<?xml version="1.0" encoding="UTF-8" standalone="no" ?>
<gpx xmlns="http://www.topografix.com/GPX/1/1" xmlns:xsi="http://www.w3.org/2001/XMLSchema-instance" xsi:schemaLocation="http://www.topografix.com/GPX/1/1 http://www.topografix.com/GPX/1/1/gpx.xsd" version="1.1" creator="VisuGPX - https://www.visugpx.com">
  <metadata>
    <name>Trail La Sauvage (Pralognan en Vanoise)</name>
    <desc><![CDATA[Départ de Tignes Val claret vers Pralognan.
Le GPS (iPhone) est généreux... ce trail fait plutôt 27 à 28km
avec 1100 de D  et 1700 de D-]]></desc>
  </metadata>
  <trk>
    <name><![CDATA[La Sauvage (Pralognan en Vanoise)]]></name>
    <trkseg>
      <trkpt lat="45.45293" lon="6.89811">
        <ele>2109</ele>
        <time>2015-08-23T07:59:18Z</time>
      </trkpt>
      <trkpt lat="45.4529" lon="6.89811">
        <ele>2109</ele>
        <time>2015-08-23T07:59:20Z</time>
      </trkpt>
      <trkpt lat="45.45287" lon="6.89811">
        <ele>2109</ele>
        <time>2015-08-23T07:59:21Z</time>
      </trkpt>
      <trkpt lat="45.45283" lon="6.89811">
        <ele>2109</ele>
        <time>2015-08-23T07:59:22Z</time>
      </trkpt>
      <trkpt lat="45.4528" lon="6.89811">
        <ele>2109</ele>
        <time>2015-08-23T07:59:23Z</time>
      </trkpt>
      <trkpt lat="45.45278" lon="6.89811">
        <ele>2109</ele>
        <time>2015-08-23T07:59:24Z</time>
      </trkpt>
      <trkpt lat="45.45273" lon="6.89812">
        <ele>2109</ele>
        <time>2015-08-23T07:59:26Z</time>
      </trkpt>
      <trkpt lat="45.45267" lon="6.89812">
        <ele>2109</ele>
        <time>2015-08-23T07:59:28Z</time>
      </trkpt>
      <trkpt lat="45.45265" lon="6.89813">
        <ele>2109</ele>
        <time>2015-08-23T07:59:29Z</time>
      </trkpt>
      <trkpt lat="45.45262" lon="6.89813">
        <ele>2109</ele>
        <time>2015-08-23T07:59:30Z</time>
      </trkpt>
      <trkpt lat="45.45257" lon="6.89815">
        <ele>2109</ele>
        <time>2015-08-23T07:59:32Z</time>
      </trkpt>
      <trkpt lat="45.45254" lon="6.89816">
        <ele>2109</ele>
        <time>2015-08-23T07:59:33Z</time>
      </trkpt>
      <trkpt lat="45.45252" lon="6.89817">
        <ele>2109</ele>
        <time>2015-08-23T07:59:34Z</time>
      </trkpt>
      <trkpt lat="45.45249" lon="6.89819">
        <ele>2110</ele>
        <time>2015-08-23T07:59:35Z</time>
      </trkpt>
      <trkpt lat="45.45247" lon="6.89822">
        <ele>2109</ele>
        <time>2015-08-23T07:59:36Z</time>
      </trkpt>
      <trkpt lat="45.45244" lon="6.89823">
        <ele>2109</ele>
        <time>2015-08-23T07:59:37Z</time>
      </trkpt>
      <trkpt lat="45.45242" lon="6.89826">
        <ele>2109</ele>
        <time>2015-08-23T07:59:38Z</time>
      </trkpt>
      <trkpt lat="45.4524" lon="6.89828">
        <ele>2110</ele>
        <time>2015-08-23T07:59:39Z</time>
      </trkpt>
      <trkpt lat="45.45237" lon="6.89831">
        <ele>2110</ele>
        <time>2015-08-23T07:59:40Z</time>
      </trkpt>
      <trkpt lat="45.45235" lon="6.89834">
        <ele>2111</ele>
        <time>2015-08-23T07:59:41Z</time>
      </trkpt>
      <trkpt lat="45.45233" lon="6.89838">
        <ele>2112</ele>
        <time>2015-08-23T07:59:42Z</time>
      </trkpt>
      <trkpt lat="45.45233" lon="6.89844">
        <ele>2112</ele>
        <time>2015-08-23T07:59:44Z</time>
      </trkpt>
      <trkpt lat="45.4523" lon="6.89853">
        <ele>2113</ele>
        <time>2015-08-23T07:59:45Z</time>
      </trkpt>
      <trkpt lat="45.4523" lon="6.89858">
        <ele>2113</ele>
        <time>2015-08-23T07:59:46Z</time>
      </trkpt>
      <trkpt lat="45.4523" lon="6.89862">
        <ele>2113</ele>
        <time>2015-08-23T07:59:47Z</time>
      </trkpt>
      <trkpt lat="45.45229" lon="6.89867">
        <ele>2114</ele>
        <time>2015-08-23T07:59:48Z</time>
      </trkpt>
      <trkpt lat="45.4523" lon="6.89871">
        <ele>2114</ele>
        <time>2015-08-23T07:59:49Z</time>
      </trkpt>
      <trkpt lat="45.45232" lon="6.89876">
        <ele>2114</ele>
        <time>2015-08-23T07:59:50Z</time>
      </trkpt>
      <trkpt lat="45.45233" lon="6.8988">
        <ele>2115</ele>
        <time>2015-08-23T07:59:51Z</time>
      </trkpt>
      <trkpt lat="45.45234" lon="6.89884">
        <ele>2115</ele>
        <time>2015-08-23T07:59:52Z</time>
      </trkpt>
      <trkpt lat="45.45236" lon="6.89887">
        <ele>2115</ele>
        <time>2015-08-23T07:59:53Z</time>
      </trkpt>
      <trkpt lat="45.45237" lon="6.8989">
        <ele>2115</ele>
        <time>2015-08-23T07:59:54Z</time>
      </trkpt>
      <trkpt lat="45.45239" lon="6.89893">
        <ele>2115</ele>
        <time>2015-08-23T07:59:55Z</time>
      </trkpt>
      <trkpt lat="45.4524" lon="6.89897">
        <ele>2116</ele>
        <time>2015-08-23T07:59:56Z</time>
      </trkpt>
      <trkpt lat="45.45242" lon="6.899">
        <ele>2116</ele>
        <time>2015-08-23T07:59:57Z</time>
      </trkpt>
      <trkpt lat="45.45246" lon="6.89906">
        <ele>2117</ele>
        <time>2015-08-23T07:59:59Z</time>
      </trkpt>
      <trkpt lat="45.45249" lon="6.8991">
        <ele>2117</ele>
        <time>2015-08-23T08:00:01Z</time>
      </trkpt>
      <trkpt lat="45.45253" lon="6.89912">
        <ele>2117</ele>
        <time>2015-08-23T08:00:03Z</time>
      </trkpt>
      <trkpt lat="45.45257" lon="6.89914">
        <ele>2117</ele>
        <time>2015-08-23T08:00:05Z</time>
      </trkpt>
      <trkpt lat="45.4526" lon="6.89917">
        <ele>2117</ele>
        <time>2015-08-23T08:00:07Z</time>
      </trkpt>
      <trkpt lat="45.45263" lon="6.89919">
        <ele>2121</ele>
        <time>2015-08-23T08:00:09Z</time>
      </trkpt>
      <trkpt lat="45.45265" lon="6.89923">
        <ele>2122</ele>
        <time>2015-08-23T08:00:11Z</time>
      </trkpt>
      <trkpt lat="45.45266" lon="6.89927">
        <ele>2122</ele>
        <time>2015-08-23T08:00:13Z</time>
      </trkpt>
      <trkpt lat="45.45266" lon="6.89931">
        <ele>2122</ele>
        <time>2015-08-23T08:00:15Z</time>
      </trkpt>
      <trkpt lat="45.45266" lon="6.89935">
        <ele>2123</ele>
        <time>2015-08-23T08:00:17Z</time>
      </trkpt>
      <trkpt lat="45.45267" lon="6.89939">
        <ele>2123</ele>
        <time>2015-08-23T08:00:19Z</time>
      </trkpt>
      <trkpt lat="45.4527" lon="6.89942">
        <ele>2124</ele>
        <time>2015-08-23T08:00:22Z</time>
      </trkpt>
      <trkpt lat="45.45273" lon="6.89944">
        <ele>2124</ele>
        <time>2015-08-23T08:00:24Z</time>
      </trkpt>
      <trkpt lat="45.45276" lon="6.89946">
        <ele>2124</ele>
        <time>2015-08-23T08:00:26Z</time>
      </trkpt>
      <trkpt lat="45.45278" lon="6.89948">
        <ele>2125</ele>
        <time>2015-08-23T08:00:28Z</time>
      </trkpt>
      <trkpt lat="45.4528" lon="6.89951">
        <ele>2125</ele>
        <time>2015-08-23T08:00:30Z</time>
      </trkpt>
      <trkpt lat="45.45282" lon="6.89956">
        <ele>2125</ele>
        <time>2015-08-23T08:00:33Z</time>
      </trkpt>
      <trkpt lat="45.45285" lon="6.89958">
        <ele>2126</ele>
        <time>2015-08-23T08:00:35Z</time>
      </trkpt>
      <trkpt lat="45.45287" lon="6.89963">
        <ele>2126</ele>
        <time>2015-08-23T08:00:38Z</time>
      </trkpt>
      <trkpt lat="45.45289" lon="6.89967">
        <ele>2126</ele>
        <time>2015-08-23T08:00:42Z</time>
      </trkpt>
      <trkpt lat="45.45287" lon="6.89969">
        <ele>2127</ele>
        <time>2015-08-23T08:00:51Z</time>
      </trkpt>
      <trkpt lat="45.45286" lon="6.89973">
        <ele>2127</ele>
        <time>2015-08-23T08:00:54Z</time>
      </trkpt>
      <trkpt lat="45.45285" lon="6.89979">
        <ele>2127</ele>
        <time>2015-08-23T08:00:56Z</time>
      </trkpt>
      <trkpt lat="45.45284" lon="6.89983">
        <ele>2127</ele>
        <time>2015-08-23T08:00:58Z</time>
      </trkpt>
      <trkpt lat="45.45282" lon="6.89987">
        <ele>2128</ele>
        <time>2015-08-23T08:01:01Z</time>
      </trkpt>
      <trkpt lat="45.45279" lon="6.8999">
        <ele>2128</ele>
        <time>2015-08-23T08:01:04Z</time>
      </trkpt>
      <trkpt lat="45.45278" lon="6.89994">
        <ele>2128</ele>
        <time>2015-08-23T08:01:06Z</time>
      </trkpt>
      <trkpt lat="45.45278" lon="6.90001">
        <ele>2134</ele>
        <time>2015-08-23T08:01:08Z</time>
      </trkpt>
      <trkpt lat="45.45278" lon="6.90006">
        <ele>2134</ele>
        <time>2015-08-23T08:01:10Z</time>
      </trkpt>
      <trkpt lat="45.45278" lon="6.9001">
        <ele>2134</ele>
        <time>2015-08-23T08:01:12Z</time>
      </trkpt>
      <trkpt lat="45.45278" lon="6.90016">
        <ele>2134</ele>
        <time>2015-08-23T08:01:14Z</time>
      </trkpt>
      <trkpt lat="45.45278" lon="6.90023">
        <ele>2135</ele>
        <time>2015-08-23T08:01:16Z</time>
      </trkpt>
      <trkpt lat="45.45279" lon="6.90029">
        <ele>2135</ele>
        <time>2015-08-23T08:01:18Z</time>
      </trkpt>
      <trkpt lat="45.45279" lon="6.90035">
        <ele>2135</ele>
        <time>2015-08-23T08:01:20Z</time>
      </trkpt>
      <trkpt lat="45.45279" lon="6.90042">
        <ele>2136</ele>
        <time>2015-08-23T08:01:22Z</time>
      </trkpt>
      <trkpt lat="45.45278" lon="6.90048">
        <ele>2136</ele>
        <time>2015-08-23T08:01:24Z</time>
      </trkpt>
      <trkpt lat="45.45277" lon="6.90054">
        <ele>2136</ele>
        <time>2015-08-23T08:01:26Z</time>
      </trkpt>
      <trkpt lat="45.45275" lon="6.9006">
        <ele>2136</ele>
        <time>2015-08-23T08:01:28Z</time>
      </trkpt>
      <trkpt lat="45.45273" lon="6.90066">
        <ele>2137</ele>
        <time>2015-08-23T08:01:30Z</time>
      </trkpt>
      <trkpt lat="45.45273" lon="6.90072">
        <ele>2137</ele>
        <time>2015-08-23T08:01:32Z</time>
      </trkpt>
      <trkpt lat="45.45272" lon="6.90078">
        <ele>2137</ele>
        <time>2015-08-23T08:01:34Z</time>
      </trkpt>
      <trkpt lat="45.45271" lon="6.90084">
        <ele>2141</ele>
        <time>2015-08-23T08:01:36Z</time>
      </trkpt>
      <trkpt lat="45.4527" lon="6.9009">
        <ele>2141</ele>
        <time>2015-08-23T08:01:38Z</time>
      </trkpt>
      <trkpt lat="45.45267" lon="6.90095">
        <ele>2141</ele>
        <time>2015-08-23T08:01:40Z</time>
      </trkpt>
      <trkpt lat="45.45263" lon="6.90105">
        <ele>2141</ele>
        <time>2015-08-23T08:01:42Z</time>
      </trkpt>
      <trkpt lat="45.45262" lon="6.9011">
        <ele>2141</ele>
        <time>2015-08-23T08:01:43Z</time>
      </trkpt>
      <trkpt lat="45.45259" lon="6.90108">
        <ele>2141</ele>
        <time>2015-08-23T08:01:44Z</time>
      </trkpt>
      <trkpt lat="45.45255" lon="6.9011">
        <ele>2141</ele>
        <time>2015-08-23T08:01:46Z</time>
      </trkpt>
      <trkpt lat="45.45252" lon="6.90112">
        <ele>2141</ele>
        <time>2015-08-23T08:01:47Z</time>
      </trkpt>
      <trkpt lat="45.45248" lon="6.90112">
        <ele>2141</ele>
        <time>2015-08-23T08:01:49Z</time>
      </trkpt>
      <trkpt lat="45.45244" lon="6.90114">
        <ele>2141</ele>
        <time>2015-08-23T08:01:50Z</time>
      </trkpt>
      <trkpt lat="45.4524" lon="6.90114">
        <ele>2141</ele>
        <time>2015-08-23T08:01:51Z</time>
      </trkpt>
      <trkpt lat="45.45236" lon="6.90116">
        <ele>2141</ele>
        <time>2015-08-23T08:01:53Z</time>
      </trkpt>
      <trkpt lat="45.45231" lon="6.90119">
        <ele>2141</ele>
        <time>2015-08-23T08:01:55Z</time>
      </trkpt>
      <trkpt lat="45.45227" lon="6.90123">
        <ele>2142</ele>
        <time>2015-08-23T08:01:57Z</time>
      </trkpt>
      <trkpt lat="45.45224" lon="6.90127">
        <ele>2142</ele>
        <time>2015-08-23T08:01:59Z</time>
      </trkpt>
      <trkpt lat="45.45222" lon="6.90132">
        <ele>2142</ele>
        <time>2015-08-23T08:02:01Z</time>
      </trkpt>
      <trkpt lat="45.4522" lon="6.90138">
        <ele>2142</ele>
        <time>2015-08-23T08:02:03Z</time>
      </trkpt>
      <trkpt lat="45.45219" lon="6.90142">
        <ele>2142</ele>
        <time>2015-08-23T08:02:04Z</time>
      </trkpt>
      <trkpt lat="45.45218" lon="6.90145">
        <ele>2142</ele>
        <time>2015-08-23T08:02:05Z</time>
      </trkpt>
      <trkpt lat="45.45217" lon="6.90149">
        <ele>2142</ele>
        <time>2015-08-23T08:02:06Z</time>
      </trkpt>
      <trkpt lat="45.45216" lon="6.90156">
        <ele>2142</ele>
        <time>2015-08-23T08:02:08Z</time>
      </trkpt>
      <trkpt lat="45.45215" lon="6.90161">
        <ele>2143</ele>
        <time>2015-08-23T08:02:10Z</time>
      </trkpt>
      <trkpt lat="45.45213" lon="6.90165">
        <ele>2143</ele>
        <time>2015-08-23T08:02:12Z</time>
      </trkpt>
      <trkpt lat="45.4521" lon="6.9017">
        <ele>2147</ele>
        <time>2015-08-23T08:02:14Z</time>
      </trkpt>
      <trkpt lat="45.45208" lon="6.90175">
        <ele>2147</ele>
        <time>2015-08-23T08:02:16Z</time>
      </trkpt>
      <trkpt lat="45.45205" lon="6.9018">
        <ele>2147</ele>
        <time>2015-08-23T08:02:18Z</time>
      </trkpt>
      <trkpt lat="45.45204" lon="6.90185">
        <ele>2148</ele>
        <time>2015-08-23T08:02:21Z</time>
      </trkpt>
      <trkpt lat="45.452" lon="6.90188">
        <ele>2148</ele>
        <time>2015-08-23T08:02:23Z</time>
      </trkpt>
      <trkpt lat="45.45196" lon="6.90188">
        <ele>2148</ele>
        <time>2015-08-23T08:02:24Z</time>
      </trkpt>
      <trkpt lat="45.45192" lon="6.90189">
        <ele>2148</ele>
        <time>2015-08-23T08:02:25Z</time>
      </trkpt>
      <trkpt lat="45.45188" lon="6.90189">
        <ele>2147</ele>
        <time>2015-08-23T08:02:26Z</time>
      </trkpt>
      <trkpt lat="45.45184" lon="6.90189">
        <ele>2147</ele>
        <time>2015-08-23T08:02:27Z</time>
      </trkpt>
      <trkpt lat="45.45181" lon="6.90188">
        <ele>2147</ele>
        <time>2015-08-23T08:02:28Z</time>
      </trkpt>
      <trkpt lat="45.45178" lon="6.90189">
        <ele>2147</ele>
        <time>2015-08-23T08:02:29Z</time>
      </trkpt>
      <trkpt lat="45.45175" lon="6.90188">
        <ele>2147</ele>
        <time>2015-08-23T08:02:30Z</time>
      </trkpt>
      <trkpt lat="45.45172" lon="6.90187">
        <ele>2147</ele>
        <time>2015-08-23T08:02:31Z</time>
      </trkpt>
      <trkpt lat="45.45168" lon="6.90187">
        <ele>2147</ele>
        <time>2015-08-23T08:02:32Z</time>
      </trkpt>
      <trkpt lat="45.45165" lon="6.90186">
        <ele>2148</ele>
        <time>2015-08-23T08:02:33Z</time>
      </trkpt>
      <trkpt lat="45.45162" lon="6.90186">
        <ele>2148</ele>
        <time>2015-08-23T08:02:34Z</time>
      </trkpt>
      <trkpt lat="45.45157" lon="6.90185">
        <ele>2148</ele>
        <time>2015-08-23T08:02:36Z</time>
      </trkpt>
      <trkpt lat="45.45153" lon="6.90187">
        <ele>2148</ele>
        <time>2015-08-23T08:02:38Z</time>
      </trkpt>
      <trkpt lat="45.45149" lon="6.90189">
        <ele>2149</ele>
        <time>2015-08-23T08:02:40Z</time>
      </trkpt>
      <trkpt lat="45.45146" lon="6.90191">
        <ele>2149</ele>
        <time>2015-08-23T08:02:42Z</time>
      </trkpt>
      <trkpt lat="45.45143" lon="6.90193">
        <ele>2149</ele>
        <time>2015-08-23T08:02:44Z</time>
      </trkpt>
      <trkpt lat="45.4514" lon="6.90195">
        <ele>2149</ele>
        <time>2015-08-23T08:02:46Z</time>
      </trkpt>
      <trkpt lat="45.45136" lon="6.90197">
        <ele>2150</ele>
        <time>2015-08-23T08:02:48Z</time>
      </trkpt>
      <trkpt lat="45.45133" lon="6.90199">
        <ele>2150</ele>
        <time>2015-08-23T08:02:50Z</time>
      </trkpt>
      <trkpt lat="45.4513" lon="6.90202">
        <ele>2150</ele>
        <time>2015-08-23T08:02:52Z</time>
      </trkpt>
      <trkpt lat="45.45128" lon="6.90205">
        <ele>2150</ele>
        <time>2015-08-23T08:02:54Z</time>
      </trkpt>
      <trkpt lat="45.45126" lon="6.90208">
        <ele>2150</ele>
        <time>2015-08-23T08:02:56Z</time>
      </trkpt>
      <trkpt lat="45.45123" lon="6.90213">
        <ele>2150</ele>
        <time>2015-08-23T08:02:58Z</time>
      </trkpt>
      <trkpt lat="45.4512" lon="6.90217">
        <ele>2151</ele>
        <time>2015-08-23T08:03:00Z</time>
      </trkpt>
      <trkpt lat="45.45118" lon="6.90222">
        <ele>2151</ele>
        <time>2015-08-23T08:03:02Z</time>
      </trkpt>
      <trkpt lat="45.45116" lon="6.90227">
        <ele>2151</ele>
        <time>2015-08-23T08:03:05Z</time>
      </trkpt>
      <trkpt lat="45.45116" lon="6.90231">
        <ele>2151</ele>
        <time>2015-08-23T08:03:08Z</time>
      </trkpt>
      <trkpt lat="45.45117" lon="6.90235">
        <ele>2151</ele>
        <time>2015-08-23T08:03:10Z</time>
      </trkpt>
      <trkpt lat="45.45119" lon="6.9024">
        <ele>2151</ele>
        <time>2015-08-23T08:03:12Z</time>
      </trkpt>
      <trkpt lat="45.45121" lon="6.90245">
        <ele>2151</ele>
        <time>2015-08-23T08:03:14Z</time>
      </trkpt>
      <trkpt lat="45.45122" lon="6.9025">
        <ele>2151</ele>
        <time>2015-08-23T08:03:16Z</time>
      </trkpt>
      <trkpt lat="45.45122" lon="6.90255">
        <ele>2158</ele>
        <time>2015-08-23T08:03:19Z</time>
      </trkpt>
      <trkpt lat="45.45122" lon="6.90259">
        <ele>2159</ele>
        <time>2015-08-23T08:03:22Z</time>
      </trkpt>
      <trkpt lat="45.45119" lon="6.90261">
        <ele>2159</ele>
        <time>2015-08-23T08:03:27Z</time>
      </trkpt>
      <trkpt lat="45.45116" lon="6.90263">
        <ele>2159</ele>
        <time>2015-08-23T08:03:29Z</time>
      </trkpt>
      <trkpt lat="45.45111" lon="6.90267">
        <ele>2159</ele>
        <time>2015-08-23T08:03:31Z</time>
      </trkpt>
      <trkpt lat="45.45107" lon="6.9027">
        <ele>2159</ele>
        <time>2015-08-23T08:03:33Z</time>
      </trkpt>
      <trkpt lat="45.45102" lon="6.90273">
        <ele>2159</ele>
        <time>2015-08-23T08:03:35Z</time>
      </trkpt>
      <trkpt lat="45.45098" lon="6.90275">
        <ele>2159</ele>
        <time>2015-08-23T08:03:37Z</time>
      </trkpt>
      <trkpt lat="45.45094" lon="6.90277">
        <ele>2159</ele>
        <time>2015-08-23T08:03:39Z</time>
      </trkpt>
      <trkpt lat="45.45091" lon="6.9028">
        <ele>2159</ele>
        <time>2015-08-23T08:03:41Z</time>
      </trkpt>
      <trkpt lat="45.4509" lon="6.90284">
        <ele>2160</ele>
        <time>2015-08-23T08:03:43Z</time>
      </trkpt>
      <trkpt lat="45.45088" lon="6.90288">
        <ele>2160</ele>
        <time>2015-08-23T08:03:45Z</time>
      </trkpt>
      <trkpt lat="45.45086" lon="6.90291">
        <ele>2160</ele>
        <time>2015-08-23T08:03:47Z</time>
      </trkpt>
      <trkpt lat="45.45083" lon="6.90295">
        <ele>2161</ele>
        <time>2015-08-23T08:03:49Z</time>
      </trkpt>
      <trkpt lat="45.45081" lon="6.90299">
        <ele>2161</ele>
        <time>2015-08-23T08:03:51Z</time>
      </trkpt>
      <trkpt lat="45.45078" lon="6.90304">
        <ele>2162</ele>
        <time>2015-08-23T08:03:53Z</time>
      </trkpt>
      <trkpt lat="45.45076" lon="6.90309">
        <ele>2162</ele>
        <time>2015-08-23T08:03:55Z</time>
      </trkpt>
      <trkpt lat="45.45078" lon="6.90312">
        <ele>2163</ele>
        <time>2015-08-23T08:04:00Z</time>
      </trkpt>
      <trkpt lat="45.45082" lon="6.90313">
        <ele>2163</ele>
        <time>2015-08-23T08:04:02Z</time>
      </trkpt>
      <trkpt lat="45.45078" lon="6.90318">
        <ele>2163</ele>
        <time>2015-08-23T08:04:06Z</time>
      </trkpt>
      <trkpt lat="45.45074" lon="6.90322">
        <ele>2163</ele>
        <time>2015-08-23T08:04:08Z</time>
      </trkpt>
      <trkpt lat="45.4507" lon="6.90326">
        <ele>2163</ele>
        <time>2015-08-23T08:04:10Z</time>
      </trkpt>
      <trkpt lat="45.45066" lon="6.90331">
        <ele>2163</ele>
        <time>2015-08-23T08:04:12Z</time>
      </trkpt>
      <trkpt lat="45.45063" lon="6.90333">
        <ele>2163</ele>
        <time>2015-08-23T08:04:13Z</time>
      </trkpt>
      <trkpt lat="45.45059" lon="6.90337">
        <ele>2168</ele>
        <time>2015-08-23T08:04:15Z</time>
      </trkpt>
      <trkpt lat="45.45056" lon="6.90339">
        <ele>2169</ele>
        <time>2015-08-23T08:04:18Z</time>
      </trkpt>
      <trkpt lat="45.45054" lon="6.90342">
        <ele>2169</ele>
        <time>2015-08-23T08:04:21Z</time>
      </trkpt>
      <trkpt lat="45.45052" lon="6.90345">
        <ele>2169</ele>
        <time>2015-08-23T08:04:24Z</time>
      </trkpt>
      <trkpt lat="45.4505" lon="6.9035">
        <ele>2169</ele>
        <time>2015-08-23T08:04:27Z</time>
      </trkpt>
      <trkpt lat="45.45047" lon="6.90355">
        <ele>2169</ele>
        <time>2015-08-23T08:04:29Z</time>
      </trkpt>
      <trkpt lat="45.45045" lon="6.9036">
        <ele>2170</ele>
        <time>2015-08-23T08:04:31Z</time>
      </trkpt>
      <trkpt lat="45.45043" lon="6.90365">
        <ele>2170</ele>
        <time>2015-08-23T08:04:33Z</time>
      </trkpt>
      <trkpt lat="45.45042" lon="6.90369">
        <ele>2170</ele>
        <time>2015-08-23T08:04:34Z</time>
      </trkpt>
      <trkpt lat="45.45043" lon="6.90373">
        <ele>2170</ele>
        <time>2015-08-23T08:04:37Z</time>
      </trkpt>
      <trkpt lat="45.45044" lon="6.90377">
        <ele>2171</ele>
        <time>2015-08-23T08:04:41Z</time>
      </trkpt>
      <trkpt lat="45.45046" lon="6.90381">
        <ele>2171</ele>
        <time>2015-08-23T08:04:45Z</time>
      </trkpt>
      <trkpt lat="45.45047" lon="6.90386">
        <ele>2171</ele>
        <time>2015-08-23T08:04:48Z</time>
      </trkpt>
      <trkpt lat="45.4505" lon="6.90389">
        <ele>2172</ele>
        <time>2015-08-23T08:04:51Z</time>
      </trkpt>
      <trkpt lat="45.45053" lon="6.90393">
        <ele>2172</ele>
        <time>2015-08-23T08:04:53Z</time>
      </trkpt>
      <trkpt lat="45.45054" lon="6.90397">
        <ele>2172</ele>
        <time>2015-08-23T08:04:55Z</time>
      </trkpt>
      <trkpt lat="45.45057" lon="6.90402">
        <ele>2173</ele>
        <time>2015-08-23T08:04:57Z</time>
      </trkpt>
      <trkpt lat="45.45059" lon="6.90405">
        <ele>2173</ele>
        <time>2015-08-23T08:04:59Z</time>
      </trkpt>
      <trkpt lat="45.45056" lon="6.90409">
        <ele>2173</ele>
        <time>2015-08-23T08:05:03Z</time>
      </trkpt>
      <trkpt lat="45.45054" lon="6.90412">
        <ele>2173</ele>
        <time>2015-08-23T08:05:05Z</time>
      </trkpt>
      <trkpt lat="45.4505" lon="6.90417">
        <ele>2180</ele>
        <time>2015-08-23T08:05:07Z</time>
      </trkpt>
      <trkpt lat="45.4505" lon="6.90421">
        <ele>2180</ele>
        <time>2015-08-23T08:05:09Z</time>
      </trkpt>
      <trkpt lat="45.45052" lon="6.90423">
        <ele>2180</ele>
        <time>2015-08-23T08:05:14Z</time>
      </trkpt>
      <trkpt lat="45.45053" lon="6.90427">
        <ele>2180</ele>
        <time>2015-08-23T08:05:17Z</time>
      </trkpt>
      <trkpt lat="45.45054" lon="6.90432">
        <ele>2180</ele>
        <time>2015-08-23T08:05:20Z</time>
      </trkpt>
      <trkpt lat="45.45054" lon="6.90437">
        <ele>2181</ele>
        <time>2015-08-23T08:05:23Z</time>
      </trkpt>
      <trkpt lat="45.45053" lon="6.90442">
        <ele>2181</ele>
        <time>2015-08-23T08:05:25Z</time>
      </trkpt>
      <trkpt lat="45.45052" lon="6.90447">
        <ele>2181</ele>
        <time>2015-08-23T08:05:27Z</time>
      </trkpt>
      <trkpt lat="45.4505" lon="6.90453">
        <ele>2182</ele>
        <time>2015-08-23T08:05:29Z</time>
      </trkpt>
      <trkpt lat="45.45048" lon="6.90458">
        <ele>2182</ele>
        <time>2015-08-23T08:05:31Z</time>
      </trkpt>
      <trkpt lat="45.45047" lon="6.90464">
        <ele>2182</ele>
        <time>2015-08-23T08:05:33Z</time>
      </trkpt>
      <trkpt lat="45.45046" lon="6.90469">
        <ele>2183</ele>
        <time>2015-08-23T08:05:35Z</time>
      </trkpt>
      <trkpt lat="45.45045" lon="6.90473">
        <ele>2183</ele>
        <time>2015-08-23T08:05:37Z</time>
      </trkpt>
      <trkpt lat="45.45045" lon="6.90478">
        <ele>2183</ele>
        <time>2015-08-23T08:05:39Z</time>
      </trkpt>
      <trkpt lat="45.45045" lon="6.90481">
        <ele>2184</ele>
        <time>2015-08-23T08:05:45Z</time>
      </trkpt>
      <trkpt lat="45.45045" lon="6.90486">
        <ele>2184</ele>
        <time>2015-08-23T08:05:49Z</time>
      </trkpt>
      <trkpt lat="45.45044" lon="6.9049">
        <ele>2184</ele>
        <time>2015-08-23T08:05:52Z</time>
      </trkpt>
      <trkpt lat="45.45044" lon="6.90495">
        <ele>2184</ele>
        <time>2015-08-23T08:05:54Z</time>
      </trkpt>
      <trkpt lat="45.45044" lon="6.90499">
        <ele>2184</ele>
        <time>2015-08-23T08:05:56Z</time>
      </trkpt>
      <trkpt lat="45.45044" lon="6.90504">
        <ele>2192</ele>
        <time>2015-08-23T08:05:59Z</time>
      </trkpt>
      <trkpt lat="45.45046" lon="6.90509">
        <ele>2193</ele>
        <time>2015-08-23T08:06:02Z</time>
      </trkpt>
      <trkpt lat="45.45048" lon="6.90515">
        <ele>2193</ele>
        <time>2015-08-23T08:06:04Z</time>
      </trkpt>
      <trkpt lat="45.45049" lon="6.90521">
        <ele>2193</ele>
        <time>2015-08-23T08:06:06Z</time>
      </trkpt>
      <trkpt lat="45.45052" lon="6.90524">
        <ele>2194</ele>
        <time>2015-08-23T08:06:11Z</time>
      </trkpt>
      <trkpt lat="45.45054" lon="6.90524">
        <ele>2194</ele>
        <time>2015-08-23T08:06:14Z</time>
      </trkpt>
      <trkpt lat="45.45057" lon="6.90525">
        <ele>2194</ele>
        <time>2015-08-23T08:06:16Z</time>
      </trkpt>
      <trkpt lat="45.4506" lon="6.90526">
        <ele>2195</ele>
        <time>2015-08-23T08:06:18Z</time>
      </trkpt>
      <trkpt lat="45.45063" lon="6.90528">
        <ele>2195</ele>
        <time>2015-08-23T08:06:20Z</time>
      </trkpt>
      <trkpt lat="45.45067" lon="6.90529">
        <ele>2195</ele>
        <time>2015-08-23T08:06:22Z</time>
      </trkpt>
      <trkpt lat="45.4507" lon="6.9053">
        <ele>2195</ele>
        <time>2015-08-23T08:06:24Z</time>
      </trkpt>
      <trkpt lat="45.45073" lon="6.90532">
        <ele>2196</ele>
        <time>2015-08-23T08:06:32Z</time>
      </trkpt>
      <trkpt lat="45.45076" lon="6.90534">
        <ele>2196</ele>
        <time>2015-08-23T08:06:35Z</time>
      </trkpt>
      <trkpt lat="45.45077" lon="6.90538">
        <ele>2196</ele>
        <time>2015-08-23T08:06:37Z</time>
      </trkpt>
      <trkpt lat="45.45078" lon="6.90542">
        <ele>2197</ele>
        <time>2015-08-23T08:06:43Z</time>
      </trkpt>
      <trkpt lat="45.45078" lon="6.90547">
        <ele>2197</ele>
        <time>2015-08-23T08:06:48Z</time>
      </trkpt>
      <trkpt lat="45.4508" lon="6.9055">
        <ele>2198</ele>
        <time>2015-08-23T08:06:53Z</time>
      </trkpt>
      <trkpt lat="45.45081" lon="6.90555">
        <ele>2198</ele>
        <time>2015-08-23T08:06:56Z</time>
      </trkpt>
      <trkpt lat="45.45084" lon="6.90558">
        <ele>2207</ele>
        <time>2015-08-23T08:06:59Z</time>
      </trkpt>
      <trkpt lat="45.45087" lon="6.90558">
        <ele>2207</ele>
        <time>2015-08-23T08:07:00Z</time>
      </trkpt>
      <trkpt lat="45.45091" lon="6.90558">
        <ele>2207</ele>
        <time>2015-08-23T08:07:01Z</time>
      </trkpt>
      <trkpt lat="45.45096" lon="6.90561">
        <ele>2207</ele>
        <time>2015-08-23T08:07:03Z</time>
      </trkpt>
      <trkpt lat="45.45098" lon="6.90565">
        <ele>2207</ele>
        <time>2015-08-23T08:07:05Z</time>
      </trkpt>
      <trkpt lat="45.45096" lon="6.90568">
        <ele>2207</ele>
        <time>2015-08-23T08:07:06Z</time>
      </trkpt>
      <trkpt lat="45.45096" lon="6.90572">
        <ele>2208</ele>
        <time>2015-08-23T08:07:08Z</time>
      </trkpt>
      <trkpt lat="45.45096" lon="6.90577">
        <ele>2208</ele>
        <time>2015-08-23T08:07:11Z</time>
      </trkpt>
      <trkpt lat="45.45097" lon="6.90581">
        <ele>2208</ele>
        <time>2015-08-23T08:07:14Z</time>
      </trkpt>
      <trkpt lat="45.45097" lon="6.90586">
        <ele>2213</ele>
        <time>2015-08-23T08:07:17Z</time>
      </trkpt>
      <trkpt lat="45.45099" lon="6.90589">
        <ele>2213</ele>
        <time>2015-08-23T08:07:21Z</time>
      </trkpt>
      <trkpt lat="45.45101" lon="6.90594">
        <ele>2214</ele>
        <time>2015-08-23T08:07:24Z</time>
      </trkpt>
      <trkpt lat="45.45101" lon="6.90598">
        <ele>2215</ele>
        <time>2015-08-23T08:07:26Z</time>
      </trkpt>
      <trkpt lat="45.451" lon="6.90603">
        <ele>2216</ele>
        <time>2015-08-23T08:07:28Z</time>
      </trkpt>
      <trkpt lat="45.45099" lon="6.90608">
        <ele>2216</ele>
        <time>2015-08-23T08:07:30Z</time>
      </trkpt>
      <trkpt lat="45.45098" lon="6.90611">
        <ele>2217</ele>
        <time>2015-08-23T08:07:32Z</time>
      </trkpt>
      <trkpt lat="45.45097" lon="6.90615">
        <ele>2217</ele>
        <time>2015-08-23T08:07:34Z</time>
      </trkpt>
      <trkpt lat="45.45096" lon="6.90619">
        <ele>2218</ele>
        <time>2015-08-23T08:07:36Z</time>
      </trkpt>
      <trkpt lat="45.45095" lon="6.90623">
        <ele>2218</ele>
        <time>2015-08-23T08:07:38Z</time>
      </trkpt>
      <trkpt lat="45.45094" lon="6.90627">
        <ele>2219</ele>
        <time>2015-08-23T08:07:40Z</time>
      </trkpt>
      <trkpt lat="45.45091" lon="6.90631">
        <ele>2219</ele>
        <time>2015-08-23T08:07:43Z</time>
      </trkpt>
      <trkpt lat="45.45089" lon="6.90634">
        <ele>2219</ele>
        <time>2015-08-23T08:07:46Z</time>
      </trkpt>
      <trkpt lat="45.45087" lon="6.90637">
        <ele>2220</ele>
        <time>2015-08-23T08:07:49Z</time>
      </trkpt>
      <trkpt lat="45.45084" lon="6.9064">
        <ele>2220</ele>
        <time>2015-08-23T08:07:51Z</time>
      </trkpt>
      <trkpt lat="45.45081" lon="6.90643">
        <ele>2213</ele>
        <time>2015-08-23T08:07:53Z</time>
      </trkpt>
      <trkpt lat="45.45079" lon="6.90646">
        <ele>2214</ele>
        <time>2015-08-23T08:07:55Z</time>
      </trkpt>
      <trkpt lat="45.45077" lon="6.90649">
        <ele>2215</ele>
        <time>2015-08-23T08:07:57Z</time>
      </trkpt>
      <trkpt lat="45.45075" lon="6.90653">
        <ele>2215</ele>
        <time>2015-08-23T08:07:59Z</time>
      </trkpt>
      <trkpt lat="45.45072" lon="6.90657">
        <ele>2216</ele>
        <time>2015-08-23T08:08:01Z</time>
      </trkpt>
      <trkpt lat="45.45069" lon="6.9066">
        <ele>2215</ele>
        <time>2015-08-23T08:08:03Z</time>
      </trkpt>
      <trkpt lat="45.45068" lon="6.90664">
        <ele>2215</ele>
        <time>2015-08-23T08:08:08Z</time>
      </trkpt>
      <trkpt lat="45.45065" lon="6.90668">
        <ele>2223</ele>
        <time>2015-08-23T08:08:11Z</time>
      </trkpt>
      <trkpt lat="45.45063" lon="6.90671">
        <ele>2223</ele>
        <time>2015-08-23T08:08:13Z</time>
      </trkpt>
      <trkpt lat="45.45062" lon="6.90675">
        <ele>2223</ele>
        <time>2015-08-23T08:08:15Z</time>
      </trkpt>
      <trkpt lat="45.4506" lon="6.90678">
        <ele>2223</ele>
        <time>2015-08-23T08:08:17Z</time>
      </trkpt>
      <trkpt lat="45.45058" lon="6.90682">
        <ele>2223</ele>
        <time>2015-08-23T08:08:19Z</time>
      </trkpt>
      <trkpt lat="45.45055" lon="6.90687">
        <ele>2223</ele>
        <time>2015-08-23T08:08:22Z</time>
      </trkpt>
      <trkpt lat="45.45054" lon="6.90692">
        <ele>2224</ele>
        <time>2015-08-23T08:08:24Z</time>
      </trkpt>
      <trkpt lat="45.45052" lon="6.90697">
        <ele>2224</ele>
        <time>2015-08-23T08:08:26Z</time>
      </trkpt>
      <trkpt lat="45.4505" lon="6.90701">
        <ele>2224</ele>
        <time>2015-08-23T08:08:28Z</time>
      </trkpt>
      <trkpt lat="45.45049" lon="6.90705">
        <ele>2225</ele>
        <time>2015-08-23T08:08:31Z</time>
      </trkpt>
      <trkpt lat="45.45048" lon="6.90709">
        <ele>2225</ele>
        <time>2015-08-23T08:08:34Z</time>
      </trkpt>
      <trkpt lat="45.45046" lon="6.90714">
        <ele>2225</ele>
        <time>2015-08-23T08:08:37Z</time>
      </trkpt>
      <trkpt lat="45.45044" lon="6.90718">
        <ele>2226</ele>
        <time>2015-08-23T08:08:41Z</time>
      </trkpt>
      <trkpt lat="45.45042" lon="6.9072">
        <ele>2226</ele>
        <time>2015-08-23T08:08:43Z</time>
      </trkpt>
      <trkpt lat="45.45041" lon="6.90724">
        <ele>2226</ele>
        <time>2015-08-23T08:08:45Z</time>
      </trkpt>
      <trkpt lat="45.45042" lon="6.90728">
        <ele>2226</ele>
        <time>2015-08-23T08:08:47Z</time>
      </trkpt>
      <trkpt lat="45.45046" lon="6.90731">
        <ele>2227</ele>
        <time>2015-08-23T08:08:51Z</time>
      </trkpt>
      <trkpt lat="45.45048" lon="6.90734">
        <ele>2227</ele>
        <time>2015-08-23T08:08:53Z</time>
      </trkpt>
      <trkpt lat="45.4505" lon="6.90736">
        <ele>2228</ele>
        <time>2015-08-23T08:08:55Z</time>
      </trkpt>
      <trkpt lat="45.45052" lon="6.9074">
        <ele>2228</ele>
        <time>2015-08-23T08:08:58Z</time>
      </trkpt>
      <trkpt lat="45.45051" lon="6.90745">
        <ele>2228</ele>
        <time>2015-08-23T08:09:01Z</time>
      </trkpt>
      <trkpt lat="45.45049" lon="6.9075">
        <ele>2239</ele>
        <time>2015-08-23T08:09:04Z</time>
      </trkpt>
      <trkpt lat="45.45047" lon="6.90754">
        <ele>2239</ele>
        <time>2015-08-23T08:09:06Z</time>
      </trkpt>
      <trkpt lat="45.45043" lon="6.90757">
        <ele>2239</ele>
        <time>2015-08-23T08:09:17Z</time>
      </trkpt>
      <trkpt lat="45.45042" lon="6.9076">
        <ele>2240</ele>
        <time>2015-08-23T08:09:21Z</time>
      </trkpt>
      <trkpt lat="45.45039" lon="6.90762">
        <ele>2240</ele>
        <time>2015-08-23T08:09:24Z</time>
      </trkpt>
      <trkpt lat="45.45036" lon="6.90766">
        <ele>2240</ele>
        <time>2015-08-23T08:09:34Z</time>
      </trkpt>
      <trkpt lat="45.45033" lon="6.9077">
        <ele>2240</ele>
        <time>2015-08-23T08:09:37Z</time>
      </trkpt>
      <trkpt lat="45.45032" lon="6.90774">
        <ele>2240</ele>
        <time>2015-08-23T08:09:39Z</time>
      </trkpt>
      <trkpt lat="45.45031" lon="6.90779">
        <ele>2241</ele>
        <time>2015-08-23T08:09:42Z</time>
      </trkpt>
      <trkpt lat="45.45032" lon="6.90783">
        <ele>2241</ele>
        <time>2015-08-23T08:09:44Z</time>
      </trkpt>
      <trkpt lat="45.45032" lon="6.90791">
        <ele>2242</ele>
        <time>2015-08-23T08:09:46Z</time>
      </trkpt>
      <trkpt lat="45.45032" lon="6.90798">
        <ele>2243</ele>
        <time>2015-08-23T08:09:48Z</time>
      </trkpt>
      <trkpt lat="45.45032" lon="6.90802">
        <ele>2243</ele>
        <time>2015-08-23T08:09:49Z</time>
      </trkpt>
      <trkpt lat="45.45031" lon="6.90807">
        <ele>2244</ele>
        <time>2015-08-23T08:09:51Z</time>
      </trkpt>
      <trkpt lat="45.45029" lon="6.90811">
        <ele>2244</ele>
        <time>2015-08-23T08:09:54Z</time>
      </trkpt>
      <trkpt lat="45.45026" lon="6.9081">
        <ele>2244</ele>
        <time>2015-08-23T08:09:56Z</time>
      </trkpt>
      <trkpt lat="45.45023" lon="6.90812">
        <ele>2244</ele>
        <time>2015-08-23T08:09:58Z</time>
      </trkpt>
      <trkpt lat="45.4502" lon="6.90814">
        <ele>2244</ele>
        <time>2015-08-23T08:10:00Z</time>
      </trkpt>
      <trkpt lat="45.45018" lon="6.90817">
        <ele>2245</ele>
        <time>2015-08-23T08:10:03Z</time>
      </trkpt>
      <trkpt lat="45.45017" lon="6.90821">
        <ele>2245</ele>
        <time>2015-08-23T08:10:06Z</time>
      </trkpt>
      <trkpt lat="45.45016" lon="6.90825">
        <ele>2245</ele>
        <time>2015-08-23T08:10:09Z</time>
      </trkpt>
      <trkpt lat="45.45012" lon="6.90829">
        <ele>2246</ele>
        <time>2015-08-23T08:10:11Z</time>
      </trkpt>
      <trkpt lat="45.45009" lon="6.90832">
        <ele>2246</ele>
        <time>2015-08-23T08:10:13Z</time>
      </trkpt>
      <trkpt lat="45.45007" lon="6.90837">
        <ele>2251</ele>
        <time>2015-08-23T08:10:15Z</time>
      </trkpt>
      <trkpt lat="45.45005" lon="6.90842">
        <ele>2252</ele>
        <time>2015-08-23T08:10:17Z</time>
      </trkpt>
      <trkpt lat="45.45003" lon="6.90845">
        <ele>2252</ele>
        <time>2015-08-23T08:10:18Z</time>
      </trkpt>
      <trkpt lat="45.44999" lon="6.90851">
        <ele>2250</ele>
        <time>2015-08-23T08:10:20Z</time>
      </trkpt>
      <trkpt lat="45.44996" lon="6.90855">
        <ele>2250</ele>
        <time>2015-08-23T08:10:22Z</time>
      </trkpt>
      <trkpt lat="45.44994" lon="6.90859">
        <ele>2251</ele>
        <time>2015-08-23T08:10:25Z</time>
      </trkpt>
      <trkpt lat="45.44996" lon="6.90862">
        <ele>2251</ele>
        <time>2015-08-23T08:10:29Z</time>
      </trkpt>
      <trkpt lat="45.44997" lon="6.90866">
        <ele>2252</ele>
        <time>2015-08-23T08:10:32Z</time>
      </trkpt>
      <trkpt lat="45.44994" lon="6.90871">
        <ele>2252</ele>
        <time>2015-08-23T08:10:34Z</time>
      </trkpt>
      <trkpt lat="45.44991" lon="6.90877">
        <ele>2253</ele>
        <time>2015-08-23T08:10:36Z</time>
      </trkpt>
      <trkpt lat="45.4499" lon="6.90881">
        <ele>2253</ele>
        <time>2015-08-23T08:10:38Z</time>
      </trkpt>
      <trkpt lat="45.44991" lon="6.90886">
        <ele>2254</ele>
        <time>2015-08-23T08:10:42Z</time>
      </trkpt>
      <trkpt lat="45.44993" lon="6.90889">
        <ele>2255</ele>
        <time>2015-08-23T08:10:45Z</time>
      </trkpt>
      <trkpt lat="45.44992" lon="6.90894">
        <ele>2256</ele>
        <time>2015-08-23T08:10:48Z</time>
      </trkpt>
      <trkpt lat="45.44988" lon="6.90899">
        <ele>2256</ele>
        <time>2015-08-23T08:10:50Z</time>
      </trkpt>
      <trkpt lat="45.44985" lon="6.90904">
        <ele>2257</ele>
        <time>2015-08-23T08:10:52Z</time>
      </trkpt>
      <trkpt lat="45.44982" lon="6.90909">
        <ele>2257</ele>
        <time>2015-08-23T08:10:54Z</time>
      </trkpt>
      <trkpt lat="45.4498" lon="6.90913">
        <ele>2257</ele>
        <time>2015-08-23T08:10:56Z</time>
      </trkpt>
      <trkpt lat="45.44977" lon="6.90918">
        <ele>2265</ele>
        <time>2015-08-23T08:10:58Z</time>
      </trkpt>
      <trkpt lat="45.44976" lon="6.90921">
        <ele>2265</ele>
        <time>2015-08-23T08:11:01Z</time>
      </trkpt>
      <trkpt lat="45.44978" lon="6.90924">
        <ele>2266</ele>
        <time>2015-08-23T08:11:08Z</time>
      </trkpt>
      <trkpt lat="45.44976" lon="6.90929">
        <ele>2266</ele>
        <time>2015-08-23T08:11:10Z</time>
      </trkpt>
      <trkpt lat="45.44973" lon="6.90934">
        <ele>2266</ele>
        <time>2015-08-23T08:11:12Z</time>
      </trkpt>
      <trkpt lat="45.4497" lon="6.90939">
        <ele>2267</ele>
        <time>2015-08-23T08:11:14Z</time>
      </trkpt>
      <trkpt lat="45.44969" lon="6.90942">
        <ele>2267</ele>
        <time>2015-08-23T08:11:16Z</time>
      </trkpt>
      <trkpt lat="45.44968" lon="6.90947">
        <ele>2267</ele>
        <time>2015-08-23T08:11:20Z</time>
      </trkpt>
      <trkpt lat="45.44966" lon="6.90951">
        <ele>2268</ele>
        <time>2015-08-23T08:11:23Z</time>
      </trkpt>
      <trkpt lat="45.44963" lon="6.90956">
        <ele>2268</ele>
        <time>2015-08-23T08:11:25Z</time>
      </trkpt>
      <trkpt lat="45.4496" lon="6.90961">
        <ele>2268</ele>
        <time>2015-08-23T08:11:27Z</time>
      </trkpt>
      <trkpt lat="45.44957" lon="6.90964">
        <ele>2269</ele>
        <time>2015-08-23T08:11:28Z</time>
      </trkpt>
      <trkpt lat="45.44955" lon="6.90968">
        <ele>2269</ele>
        <time>2015-08-23T08:11:30Z</time>
      </trkpt>
      <trkpt lat="45.44953" lon="6.90971">
        <ele>2269</ele>
        <time>2015-08-23T08:11:32Z</time>
      </trkpt>
      <trkpt lat="45.44951" lon="6.90973">
        <ele>2269</ele>
        <time>2015-08-23T08:11:35Z</time>
      </trkpt>
      <trkpt lat="45.44949" lon="6.90978">
        <ele>2269</ele>
        <time>2015-08-23T08:11:38Z</time>
      </trkpt>
      <trkpt lat="45.44947" lon="6.90981">
        <ele>2270</ele>
        <time>2015-08-23T08:11:40Z</time>
      </trkpt>
      <trkpt lat="45.44946" lon="6.90986">
        <ele>2270</ele>
        <time>2015-08-23T08:11:42Z</time>
      </trkpt>
      <trkpt lat="45.44946" lon="6.9099">
        <ele>2270</ele>
        <time>2015-08-23T08:11:44Z</time>
      </trkpt>
      <trkpt lat="45.44946" lon="6.90995">
        <ele>2270</ele>
        <time>2015-08-23T08:11:47Z</time>
      </trkpt>
      <trkpt lat="45.44944" lon="6.90999">
        <ele>2270</ele>
        <time>2015-08-23T08:11:50Z</time>
      </trkpt>
      <trkpt lat="45.4494" lon="6.91002">
        <ele>2280</ele>
        <time>2015-08-23T08:11:52Z</time>
      </trkpt>
      <trkpt lat="45.44937" lon="6.91005">
        <ele>2279</ele>
        <time>2015-08-23T08:11:53Z</time>
      </trkpt>
      <trkpt lat="45.44934" lon="6.9101">
        <ele>2279</ele>
        <time>2015-08-23T08:11:55Z</time>
      </trkpt>
      <trkpt lat="45.44931" lon="6.91015">
        <ele>2280</ele>
        <time>2015-08-23T08:11:57Z</time>
      </trkpt>
      <trkpt lat="45.44929" lon="6.9102">
        <ele>2280</ele>
        <time>2015-08-23T08:11:59Z</time>
      </trkpt>
      <trkpt lat="45.44926" lon="6.91024">
        <ele>2281</ele>
        <time>2015-08-23T08:12:02Z</time>
      </trkpt>
      <trkpt lat="45.44926" lon="6.91028">
        <ele>2282</ele>
        <time>2015-08-23T08:12:08Z</time>
      </trkpt>
      <trkpt lat="45.44926" lon="6.91033">
        <ele>2282</ele>
        <time>2015-08-23T08:12:14Z</time>
      </trkpt>
      <trkpt lat="45.44924" lon="6.91037">
        <ele>2283</ele>
        <time>2015-08-23T08:12:17Z</time>
      </trkpt>
      <trkpt lat="45.4492" lon="6.91041">
        <ele>2283</ele>
        <time>2015-08-23T08:12:19Z</time>
      </trkpt>
      <trkpt lat="45.44917" lon="6.91043">
        <ele>2284</ele>
        <time>2015-08-23T08:12:20Z</time>
      </trkpt>
      <trkpt lat="45.44915" lon="6.91048">
        <ele>2275</ele>
        <time>2015-08-23T08:12:22Z</time>
      </trkpt>
      <trkpt lat="45.44914" lon="6.91052">
        <ele>2276</ele>
        <time>2015-08-23T08:12:24Z</time>
      </trkpt>
      <trkpt lat="45.44913" lon="6.91056">
        <ele>2276</ele>
        <time>2015-08-23T08:12:27Z</time>
      </trkpt>
      <trkpt lat="45.44911" lon="6.91059">
        <ele>2277</ele>
        <time>2015-08-23T08:12:29Z</time>
      </trkpt>
      <trkpt lat="45.44907" lon="6.91063">
        <ele>2278</ele>
        <time>2015-08-23T08:12:31Z</time>
      </trkpt>
      <trkpt lat="45.44904" lon="6.91067">
        <ele>2278</ele>
        <time>2015-08-23T08:12:33Z</time>
      </trkpt>
      <trkpt lat="45.44902" lon="6.9107">
        <ele>2278</ele>
        <time>2015-08-23T08:12:35Z</time>
      </trkpt>
      <trkpt lat="45.44899" lon="6.91074">
        <ele>2278</ele>
        <time>2015-08-23T08:12:38Z</time>
      </trkpt>
      <trkpt lat="45.44896" lon="6.91077">
        <ele>2278</ele>
        <time>2015-08-23T08:12:40Z</time>
      </trkpt>
      <trkpt lat="45.44893" lon="6.9108">
        <ele>2277</ele>
        <time>2015-08-23T08:12:42Z</time>
      </trkpt>
      <trkpt lat="45.44891" lon="6.91084">
        <ele>2287</ele>
        <time>2015-08-23T08:12:44Z</time>
      </trkpt>
      <trkpt lat="45.44887" lon="6.91087">
        <ele>2287</ele>
        <time>2015-08-23T08:12:46Z</time>
      </trkpt>
      <trkpt lat="45.44885" lon="6.9109">
        <ele>2287</ele>
        <time>2015-08-23T08:12:48Z</time>
      </trkpt>
      <trkpt lat="45.44883" lon="6.91096">
        <ele>2287</ele>
        <time>2015-08-23T08:12:51Z</time>
      </trkpt>
      <trkpt lat="45.44881" lon="6.91101">
        <ele>2287</ele>
        <time>2015-08-23T08:12:53Z</time>
      </trkpt>
      <trkpt lat="45.44879" lon="6.91108">
        <ele>2287</ele>
        <time>2015-08-23T08:12:55Z</time>
      </trkpt>
      <trkpt lat="45.44875" lon="6.91113">
        <ele>2287</ele>
        <time>2015-08-23T08:12:57Z</time>
      </trkpt>
      <trkpt lat="45.4487" lon="6.91118">
        <ele>2287</ele>
        <time>2015-08-23T08:12:59Z</time>
      </trkpt>
      <trkpt lat="45.44867" lon="6.9112">
        <ele>2287</ele>
        <time>2015-08-23T08:13:00Z</time>
      </trkpt>
      <trkpt lat="45.44864" lon="6.91122">
        <ele>2287</ele>
        <time>2015-08-23T08:13:01Z</time>
      </trkpt>
      <trkpt lat="45.44862" lon="6.91128">
        <ele>2287</ele>
        <time>2015-08-23T08:13:03Z</time>
      </trkpt>
      <trkpt lat="45.44861" lon="6.91134">
        <ele>2288</ele>
        <time>2015-08-23T08:13:05Z</time>
      </trkpt>
      <trkpt lat="45.44858" lon="6.91139">
        <ele>2288</ele>
        <time>2015-08-23T08:13:07Z</time>
      </trkpt>
      <trkpt lat="45.44855" lon="6.91142">
        <ele>2288</ele>
        <time>2015-08-23T08:13:09Z</time>
      </trkpt>
      <trkpt lat="45.44853" lon="6.91144">
        <ele>2288</ele>
        <time>2015-08-23T08:13:10Z</time>
      </trkpt>
      <trkpt lat="45.44849" lon="6.91149">
        <ele>2288</ele>
        <time>2015-08-23T08:13:12Z</time>
      </trkpt>
      <trkpt lat="45.44847" lon="6.91155">
        <ele>2288</ele>
        <time>2015-08-23T08:13:14Z</time>
      </trkpt>
      <trkpt lat="45.44846" lon="6.91161">
        <ele>2288</ele>
        <time>2015-08-23T08:13:16Z</time>
      </trkpt>
      <trkpt lat="45.44845" lon="6.91166">
        <ele>2288</ele>
        <time>2015-08-23T08:13:18Z</time>
      </trkpt>
      <trkpt lat="45.44844" lon="6.91172">
        <ele>2295</ele>
        <time>2015-08-23T08:13:21Z</time>
      </trkpt>
      <trkpt lat="45.44845" lon="6.91177">
        <ele>2297</ele>
        <time>2015-08-23T08:13:24Z</time>
      </trkpt>
      <trkpt lat="45.44846" lon="6.9118">
        <ele>2298</ele>
        <time>2015-08-23T08:13:27Z</time>
      </trkpt>
      <trkpt lat="45.44846" lon="6.91185">
        <ele>2300</ele>
        <time>2015-08-23T08:13:31Z</time>
      </trkpt>
      <trkpt lat="45.44846" lon="6.91191">
        <ele>2301</ele>
        <time>2015-08-23T08:13:34Z</time>
      </trkpt>
      <trkpt lat="45.44845" lon="6.91195">
        <ele>2302</ele>
        <time>2015-08-23T08:13:36Z</time>
      </trkpt>
      <trkpt lat="45.44845" lon="6.91199">
        <ele>2303</ele>
        <time>2015-08-23T08:13:38Z</time>
      </trkpt>
      <trkpt lat="45.44845" lon="6.91204">
        <ele>2304</ele>
        <time>2015-08-23T08:13:40Z</time>
      </trkpt>
      <trkpt lat="45.44842" lon="6.9121">
        <ele>2305</ele>
        <time>2015-08-23T08:13:42Z</time>
      </trkpt>
      <trkpt lat="45.4484" lon="6.91216">
        <ele>2306</ele>
        <time>2015-08-23T08:13:44Z</time>
      </trkpt>
      <trkpt lat="45.44838" lon="6.91222">
        <ele>2307</ele>
        <time>2015-08-23T08:13:46Z</time>
      </trkpt>
      <trkpt lat="45.44837" lon="6.91225">
        <ele>2307</ele>
        <time>2015-08-23T08:13:48Z</time>
      </trkpt>
      <trkpt lat="45.44835" lon="6.91229">
        <ele>2307</ele>
        <time>2015-08-23T08:13:50Z</time>
      </trkpt>
      <trkpt lat="45.44834" lon="6.91234">
        <ele>2308</ele>
        <time>2015-08-23T08:13:52Z</time>
      </trkpt>
      <trkpt lat="45.44832" lon="6.91239">
        <ele>2298</ele>
        <time>2015-08-23T08:13:54Z</time>
      </trkpt>
      <trkpt lat="45.44829" lon="6.91242">
        <ele>2300</ele>
        <time>2015-08-23T08:13:56Z</time>
      </trkpt>
      <trkpt lat="45.44828" lon="6.91246">
        <ele>2302</ele>
        <time>2015-08-23T08:13:59Z</time>
      </trkpt>
      <trkpt lat="45.44828" lon="6.91251">
        <ele>2306</ele>
        <time>2015-08-23T08:14:03Z</time>
      </trkpt>
      <trkpt lat="45.44828" lon="6.91255">
        <ele>2306</ele>
        <time>2015-08-23T08:14:07Z</time>
      </trkpt>
      <trkpt lat="45.44829" lon="6.91259">
        <ele>2305</ele>
        <time>2015-08-23T08:14:11Z</time>
      </trkpt>
      <trkpt lat="45.44828" lon="6.91264">
        <ele>2305</ele>
        <time>2015-08-23T08:14:14Z</time>
      </trkpt>
      <trkpt lat="45.44825" lon="6.91266">
        <ele>2304</ele>
        <time>2015-08-23T08:14:15Z</time>
      </trkpt>
      <trkpt lat="45.44822" lon="6.91271">
        <ele>2304</ele>
        <time>2015-08-23T08:14:17Z</time>
      </trkpt>
      <trkpt lat="45.44818" lon="6.91276">
        <ele>2303</ele>
        <time>2015-08-23T08:14:19Z</time>
      </trkpt>
      <trkpt lat="45.44815" lon="6.9128">
        <ele>2303</ele>
        <time>2015-08-23T08:14:21Z</time>
      </trkpt>
      <trkpt lat="45.44812" lon="6.91284">
        <ele>2303</ele>
        <time>2015-08-23T08:14:23Z</time>
      </trkpt>
      <trkpt lat="45.44812" lon="6.91288">
        <ele>2303</ele>
        <time>2015-08-23T08:14:25Z</time>
      </trkpt>
      <trkpt lat="45.44812" lon="6.91293">
        <ele>2304</ele>
        <time>2015-08-23T08:14:29Z</time>
      </trkpt>
      <trkpt lat="45.44813" lon="6.91297">
        <ele>2304</ele>
        <time>2015-08-23T08:14:32Z</time>
      </trkpt>
      <trkpt lat="45.44812" lon="6.91302">
        <ele>2305</ele>
        <time>2015-08-23T08:14:35Z</time>
      </trkpt>
      <trkpt lat="45.4481" lon="6.91305">
        <ele>2305</ele>
        <time>2015-08-23T08:14:38Z</time>
      </trkpt>
      <trkpt lat="45.44807" lon="6.91307">
        <ele>2305</ele>
        <time>2015-08-23T08:14:40Z</time>
      </trkpt>
      <trkpt lat="45.44805" lon="6.91311">
        <ele>2305</ele>
        <time>2015-08-23T08:14:42Z</time>
      </trkpt>
      <trkpt lat="45.44803" lon="6.91316">
        <ele>2305</ele>
        <time>2015-08-23T08:14:44Z</time>
      </trkpt>
      <trkpt lat="45.44803" lon="6.9132">
        <ele>2305</ele>
        <time>2015-08-23T08:14:46Z</time>
      </trkpt>
      <trkpt lat="45.44803" lon="6.91325">
        <ele>2306</ele>
        <time>2015-08-23T08:14:49Z</time>
      </trkpt>
      <trkpt lat="45.44804" lon="6.91329">
        <ele>2307</ele>
        <time>2015-08-23T08:14:51Z</time>
      </trkpt>
      <trkpt lat="45.44805" lon="6.91333">
        <ele>2307</ele>
        <time>2015-08-23T08:14:53Z</time>
      </trkpt>
      <trkpt lat="45.44803" lon="6.91338">
        <ele>2317</ele>
        <time>2015-08-23T08:14:55Z</time>
      </trkpt>
      <trkpt lat="45.448" lon="6.91341">
        <ele>2316</ele>
        <time>2015-08-23T08:14:56Z</time>
      </trkpt>
      <trkpt lat="45.44798" lon="6.91346">
        <ele>2316</ele>
        <time>2015-08-23T08:14:58Z</time>
      </trkpt>
      <trkpt lat="45.44797" lon="6.9135">
        <ele>2316</ele>
        <time>2015-08-23T08:15:00Z</time>
      </trkpt>
      <trkpt lat="45.44795" lon="6.91354">
        <ele>2316</ele>
        <time>2015-08-23T08:15:03Z</time>
      </trkpt>
      <trkpt lat="45.44793" lon="6.91358">
        <ele>2316</ele>
        <time>2015-08-23T08:15:06Z</time>
      </trkpt>
      <trkpt lat="45.44791" lon="6.91362">
        <ele>2316</ele>
        <time>2015-08-23T08:15:09Z</time>
      </trkpt>
      <trkpt lat="45.44789" lon="6.91364">
        <ele>2316</ele>
        <time>2015-08-23T08:15:11Z</time>
      </trkpt>
      <trkpt lat="45.44786" lon="6.91368">
        <ele>2315</ele>
        <time>2015-08-23T08:15:13Z</time>
      </trkpt>
      <trkpt lat="45.44783" lon="6.91373">
        <ele>2315</ele>
        <time>2015-08-23T08:15:15Z</time>
      </trkpt>
      <trkpt lat="45.44781" lon="6.91379">
        <ele>2316</ele>
        <time>2015-08-23T08:15:17Z</time>
      </trkpt>
      <trkpt lat="45.4478" lon="6.91384">
        <ele>2316</ele>
        <time>2015-08-23T08:15:19Z</time>
      </trkpt>
      <trkpt lat="45.4478" lon="6.91389">
        <ele>2316</ele>
        <time>2015-08-23T08:15:21Z</time>
      </trkpt>
      <trkpt lat="45.44779" lon="6.91394">
        <ele>2316</ele>
        <time>2015-08-23T08:15:23Z</time>
      </trkpt>
      <trkpt lat="45.44778" lon="6.91399">
        <ele>2316</ele>
        <time>2015-08-23T08:15:25Z</time>
      </trkpt>
      <trkpt lat="45.44777" lon="6.91405">
        <ele>2316</ele>
        <time>2015-08-23T08:15:27Z</time>
      </trkpt>
      <trkpt lat="45.44777" lon="6.9141">
        <ele>2316</ele>
        <time>2015-08-23T08:15:29Z</time>
      </trkpt>
      <trkpt lat="45.44778" lon="6.91416">
        <ele>2317</ele>
        <time>2015-08-23T08:15:31Z</time>
      </trkpt>
      <trkpt lat="45.44778" lon="6.91423">
        <ele>2329</ele>
        <time>2015-08-23T08:15:33Z</time>
      </trkpt>
      <trkpt lat="45.44776" lon="6.9143">
        <ele>2329</ele>
        <time>2015-08-23T08:15:35Z</time>
      </trkpt>
      <trkpt lat="45.44773" lon="6.91436">
        <ele>2329</ele>
        <time>2015-08-23T08:15:37Z</time>
      </trkpt>
      <trkpt lat="45.44771" lon="6.91441">
        <ele>2330</ele>
        <time>2015-08-23T08:15:39Z</time>
      </trkpt>
      <trkpt lat="45.44769" lon="6.91446">
        <ele>2331</ele>
        <time>2015-08-23T08:15:41Z</time>
      </trkpt>
      <trkpt lat="45.44767" lon="6.91453">
        <ele>2332</ele>
        <time>2015-08-23T08:15:43Z</time>
      </trkpt>
      <trkpt lat="45.44764" lon="6.91459">
        <ele>2333</ele>
        <time>2015-08-23T08:15:45Z</time>
      </trkpt>
      <trkpt lat="45.44762" lon="6.91466">
        <ele>2333</ele>
        <time>2015-08-23T08:15:47Z</time>
      </trkpt>
      <trkpt lat="45.4476" lon="6.91473">
        <ele>2334</ele>
        <time>2015-08-23T08:15:49Z</time>
      </trkpt>
      <trkpt lat="45.44758" lon="6.9148">
        <ele>2334</ele>
        <time>2015-08-23T08:15:51Z</time>
      </trkpt>
      <trkpt lat="45.44756" lon="6.91485">
        <ele>2334</ele>
        <time>2015-08-23T08:15:53Z</time>
      </trkpt>
      <trkpt lat="45.44753" lon="6.91489">
        <ele>2334</ele>
        <time>2015-08-23T08:15:55Z</time>
      </trkpt>
      <trkpt lat="45.44748" lon="6.91492">
        <ele>2324</ele>
        <time>2015-08-23T08:15:57Z</time>
      </trkpt>
      <trkpt lat="45.44743" lon="6.91494">
        <ele>2323</ele>
        <time>2015-08-23T08:15:59Z</time>
      </trkpt>
      <trkpt lat="45.44738" lon="6.91495">
        <ele>2321</ele>
        <time>2015-08-23T08:16:01Z</time>
      </trkpt>
      <trkpt lat="45.44734" lon="6.91496">
        <ele>2318</ele>
        <time>2015-08-23T08:16:03Z</time>
      </trkpt>
      <trkpt lat="45.4473" lon="6.91497">
        <ele>2316</ele>
        <time>2015-08-23T08:16:05Z</time>
      </trkpt>
      <trkpt lat="45.44727" lon="6.91499">
        <ele>2315</ele>
        <time>2015-08-23T08:16:07Z</time>
      </trkpt>
      <trkpt lat="45.44723" lon="6.91502">
        <ele>2330</ele>
        <time>2015-08-23T08:16:09Z</time>
      </trkpt>
      <trkpt lat="45.4472" lon="6.91507">
        <ele>2330</ele>
        <time>2015-08-23T08:16:11Z</time>
      </trkpt>
      <trkpt lat="45.44718" lon="6.91511">
        <ele>2330</ele>
        <time>2015-08-23T08:16:13Z</time>
      </trkpt>
      <trkpt lat="45.44717" lon="6.91514">
        <ele>2330</ele>
        <time>2015-08-23T08:16:15Z</time>
      </trkpt>
      <trkpt lat="45.44716" lon="6.91518">
        <ele>2330</ele>
        <time>2015-08-23T08:16:17Z</time>
      </trkpt>
      <trkpt lat="45.44716" lon="6.91523">
        <ele>2331</ele>
        <time>2015-08-23T08:16:20Z</time>
      </trkpt>
      <trkpt lat="45.44719" lon="6.91526">
        <ele>2332</ele>
        <time>2015-08-23T08:16:22Z</time>
      </trkpt>
      <trkpt lat="45.4472" lon="6.91531">
        <ele>2333</ele>
        <time>2015-08-23T08:16:24Z</time>
      </trkpt>
      <trkpt lat="45.44718" lon="6.91535">
        <ele>2333</ele>
        <time>2015-08-23T08:16:26Z</time>
      </trkpt>
      <trkpt lat="45.44714" lon="6.91536">
        <ele>2333</ele>
        <time>2015-08-23T08:16:28Z</time>
      </trkpt>
      <trkpt lat="45.44709" lon="6.91536">
        <ele>2332</ele>
        <time>2015-08-23T08:16:30Z</time>
      </trkpt>
      <trkpt lat="45.44705" lon="6.91535">
        <ele>2331</ele>
        <time>2015-08-23T08:16:31Z</time>
      </trkpt>
      <trkpt lat="45.44702" lon="6.91536">
        <ele>2330</ele>
        <time>2015-08-23T08:16:32Z</time>
      </trkpt>
      <trkpt lat="45.44697" lon="6.91538">
        <ele>2330</ele>
        <time>2015-08-23T08:16:34Z</time>
      </trkpt>
      <trkpt lat="45.44694" lon="6.91543">
        <ele>2331</ele>
        <time>2015-08-23T08:16:36Z</time>
      </trkpt>
      <trkpt lat="45.44692" lon="6.91548">
        <ele>2332</ele>
        <time>2015-08-23T08:16:38Z</time>
      </trkpt>
      <trkpt lat="45.44691" lon="6.91553">
        <ele>2333</ele>
        <time>2015-08-23T08:16:40Z</time>
      </trkpt>
      <trkpt lat="45.44692" lon="6.91558">
        <ele>2334</ele>
        <time>2015-08-23T08:16:42Z</time>
      </trkpt>
      <trkpt lat="45.44693" lon="6.91564">
        <ele>2335</ele>
        <time>2015-08-23T08:16:44Z</time>
      </trkpt>
      <trkpt lat="45.44694" lon="6.91568">
        <ele>2336</ele>
        <time>2015-08-23T08:16:46Z</time>
      </trkpt>
      <trkpt lat="45.4469" lon="6.91572">
        <ele>2336</ele>
        <time>2015-08-23T08:16:49Z</time>
      </trkpt>
      <trkpt lat="45.44685" lon="6.91575">
        <ele>2336</ele>
        <time>2015-08-23T08:16:51Z</time>
      </trkpt>
      <trkpt lat="45.4468" lon="6.91578">
        <ele>2336</ele>
        <time>2015-08-23T08:16:53Z</time>
      </trkpt>
      <trkpt lat="45.44676" lon="6.91581">
        <ele>2337</ele>
        <time>2015-08-23T08:16:55Z</time>
      </trkpt>
      <trkpt lat="45.44672" lon="6.91586">
        <ele>2344</ele>
        <time>2015-08-23T08:16:57Z</time>
      </trkpt>
      <trkpt lat="45.44669" lon="6.91591">
        <ele>2345</ele>
        <time>2015-08-23T08:16:59Z</time>
      </trkpt>
      <trkpt lat="45.44665" lon="6.91594">
        <ele>2339</ele>
        <time>2015-08-23T08:17:01Z</time>
      </trkpt>
      <trkpt lat="45.44663" lon="6.91597">
        <ele>2340</ele>
        <time>2015-08-23T08:17:03Z</time>
      </trkpt>
      <trkpt lat="45.4466" lon="6.916">
        <ele>2340</ele>
        <time>2015-08-23T08:17:06Z</time>
      </trkpt>
      <trkpt lat="45.44661" lon="6.91604">
        <ele>2341</ele>
        <time>2015-08-23T08:17:11Z</time>
      </trkpt>
      <trkpt lat="45.44659" lon="6.91608">
        <ele>2341</ele>
        <time>2015-08-23T08:17:14Z</time>
      </trkpt>
      <trkpt lat="45.44658" lon="6.91611">
        <ele>2342</ele>
        <time>2015-08-23T08:17:21Z</time>
      </trkpt>
      <trkpt lat="45.44655" lon="6.91613">
        <ele>2342</ele>
        <time>2015-08-23T08:17:23Z</time>
      </trkpt>
      <trkpt lat="45.44651" lon="6.91615">
        <ele>2342</ele>
        <time>2015-08-23T08:17:25Z</time>
      </trkpt>
      <trkpt lat="45.44648" lon="6.91618">
        <ele>2342</ele>
        <time>2015-08-23T08:17:27Z</time>
      </trkpt>
      <trkpt lat="45.44645" lon="6.91621">
        <ele>2343</ele>
        <time>2015-08-23T08:17:29Z</time>
      </trkpt>
      <trkpt lat="45.44641" lon="6.91624">
        <ele>2343</ele>
        <time>2015-08-23T08:17:31Z</time>
      </trkpt>
      <trkpt lat="45.44636" lon="6.91628">
        <ele>2343</ele>
        <time>2015-08-23T08:17:33Z</time>
      </trkpt>
      <trkpt lat="45.44633" lon="6.91631">
        <ele>2343</ele>
        <time>2015-08-23T08:17:35Z</time>
      </trkpt>
      <trkpt lat="45.4463" lon="6.91635">
        <ele>2344</ele>
        <time>2015-08-23T08:17:37Z</time>
      </trkpt>
      <trkpt lat="45.44627" lon="6.91638">
        <ele>2344</ele>
        <time>2015-08-23T08:17:39Z</time>
      </trkpt>
      <trkpt lat="45.44623" lon="6.9164">
        <ele>2344</ele>
        <time>2015-08-23T08:17:42Z</time>
      </trkpt>
      <trkpt lat="45.44621" lon="6.91643">
        <ele>2344</ele>
        <time>2015-08-23T08:17:44Z</time>
      </trkpt>
      <trkpt lat="45.44619" lon="6.91646">
        <ele>2344</ele>
        <time>2015-08-23T08:17:46Z</time>
      </trkpt>
      <trkpt lat="45.44617" lon="6.91649">
        <ele>2344</ele>
        <time>2015-08-23T08:17:49Z</time>
      </trkpt>
      <trkpt lat="45.44615" lon="6.91652">
        <ele>2345</ele>
        <time>2015-08-23T08:17:51Z</time>
      </trkpt>
      <trkpt lat="45.44612" lon="6.91655">
        <ele>2345</ele>
        <time>2015-08-23T08:17:52Z</time>
      </trkpt>
      <trkpt lat="45.44609" lon="6.91658">
        <ele>2345</ele>
        <time>2015-08-23T08:17:53Z</time>
      </trkpt>
      <trkpt lat="45.44607" lon="6.9166">
        <ele>2345</ele>
        <time>2015-08-23T08:17:54Z</time>
      </trkpt>
      <trkpt lat="45.44605" lon="6.91664">
        <ele>2345</ele>
        <time>2015-08-23T08:17:56Z</time>
      </trkpt>
      <trkpt lat="45.44603" lon="6.91667">
        <ele>2362</ele>
        <time>2015-08-23T08:17:58Z</time>
      </trkpt>
      <trkpt lat="45.44601" lon="6.91671">
        <ele>2362</ele>
        <time>2015-08-23T08:18:00Z</time>
      </trkpt>
      <trkpt lat="45.44598" lon="6.91676">
        <ele>2362</ele>
        <time>2015-08-23T08:18:02Z</time>
      </trkpt>
      <trkpt lat="45.44597" lon="6.9168">
        <ele>2363</ele>
        <time>2015-08-23T08:18:04Z</time>
      </trkpt>
      <trkpt lat="45.44598" lon="6.91685">
        <ele>2365</ele>
        <time>2015-08-23T08:18:07Z</time>
      </trkpt>
      <trkpt lat="45.44599" lon="6.91688">
        <ele>2366</ele>
        <time>2015-08-23T08:18:09Z</time>
      </trkpt>
      <trkpt lat="45.44601" lon="6.91692">
        <ele>2368</ele>
        <time>2015-08-23T08:18:11Z</time>
      </trkpt>
      <trkpt lat="45.44601" lon="6.91696">
        <ele>2369</ele>
        <time>2015-08-23T08:18:13Z</time>
      </trkpt>
      <trkpt lat="45.44599" lon="6.91701">
        <ele>2371</ele>
        <time>2015-08-23T08:18:15Z</time>
      </trkpt>
      <trkpt lat="45.44598" lon="6.91705">
        <ele>2372</ele>
        <time>2015-08-23T08:18:17Z</time>
      </trkpt>
      <trkpt lat="45.44596" lon="6.91709">
        <ele>2373</ele>
        <time>2015-08-23T08:18:20Z</time>
      </trkpt>
      <trkpt lat="45.44593" lon="6.91712">
        <ele>2373</ele>
        <time>2015-08-23T08:18:23Z</time>
      </trkpt>
      <trkpt lat="45.44595" lon="6.91707">
        <ele>2372</ele>
        <time>2015-08-23T08:18:27Z</time>
      </trkpt>
      <trkpt lat="45.44596" lon="6.91701">
        <ele>2370</ele>
        <time>2015-08-23T08:18:30Z</time>
      </trkpt>
      <trkpt lat="45.44597" lon="6.91696">
        <ele>2369</ele>
        <time>2015-08-23T08:18:32Z</time>
      </trkpt>
      <trkpt lat="45.44599" lon="6.91693">
        <ele>2368</ele>
        <time>2015-08-23T08:18:34Z</time>
      </trkpt>
      <trkpt lat="45.44601" lon="6.9169">
        <ele>2367</ele>
        <time>2015-08-23T08:18:35Z</time>
      </trkpt>
      <trkpt lat="45.44602" lon="6.91695">
        <ele>2369</ele>
        <time>2015-08-23T08:18:43Z</time>
      </trkpt>
      <trkpt lat="45.44601" lon="6.91701">
        <ele>2371</ele>
        <time>2015-08-23T08:18:45Z</time>
      </trkpt>
      <trkpt lat="45.446" lon="6.91708">
        <ele>2373</ele>
        <time>2015-08-23T08:18:47Z</time>
      </trkpt>
      <trkpt lat="45.44599" lon="6.91713">
        <ele>2374</ele>
        <time>2015-08-23T08:18:49Z</time>
      </trkpt>
      <trkpt lat="45.44597" lon="6.91717">
        <ele>2375</ele>
        <time>2015-08-23T08:18:51Z</time>
      </trkpt>
      <trkpt lat="45.44595" lon="6.9172">
        <ele>2376</ele>
        <time>2015-08-23T08:18:53Z</time>
      </trkpt>
      <trkpt lat="45.44593" lon="6.91724">
        <ele>2377</ele>
        <time>2015-08-23T08:18:56Z</time>
      </trkpt>
      <trkpt lat="45.44591" lon="6.91727">
        <ele>2378</ele>
        <time>2015-08-23T08:19:00Z</time>
      </trkpt>
      <trkpt lat="45.44588" lon="6.91729">
        <ele>2378</ele>
        <time>2015-08-23T08:19:02Z</time>
      </trkpt>
      <trkpt lat="45.44584" lon="6.91732">
        <ele>2379</ele>
        <time>2015-08-23T08:19:04Z</time>
      </trkpt>
      <trkpt lat="45.44582" lon="6.91734">
        <ele>2376</ele>
        <time>2015-08-23T08:19:06Z</time>
      </trkpt>
      <trkpt lat="45.44579" lon="6.91737">
        <ele>2377</ele>
        <time>2015-08-23T08:19:13Z</time>
      </trkpt>
      <trkpt lat="45.44576" lon="6.91739">
        <ele>2377</ele>
        <time>2015-08-23T08:19:15Z</time>
      </trkpt>
      <trkpt lat="45.44573" lon="6.91741">
        <ele>2377</ele>
        <time>2015-08-23T08:19:17Z</time>
      </trkpt>
      <trkpt lat="45.4457" lon="6.91744">
        <ele>2377</ele>
        <time>2015-08-23T08:19:20Z</time>
      </trkpt>
      <trkpt lat="45.44569" lon="6.91747">
        <ele>2377</ele>
        <time>2015-08-23T08:19:24Z</time>
      </trkpt>
      <trkpt lat="45.44566" lon="6.91748">
        <ele>2376</ele>
        <time>2015-08-23T08:19:27Z</time>
      </trkpt>
      <trkpt lat="45.44561" lon="6.91747">
        <ele>2375</ele>
        <time>2015-08-23T08:19:29Z</time>
      </trkpt>
      <trkpt lat="45.44557" lon="6.91746">
        <ele>2374</ele>
        <time>2015-08-23T08:19:31Z</time>
      </trkpt>
      <trkpt lat="45.44553" lon="6.91746">
        <ele>2373</ele>
        <time>2015-08-23T08:19:33Z</time>
      </trkpt>
      <trkpt lat="45.44549" lon="6.91746">
        <ele>2373</ele>
        <time>2015-08-23T08:19:35Z</time>
      </trkpt>
      <trkpt lat="45.44545" lon="6.91748">
        <ele>2373</ele>
        <time>2015-08-23T08:19:37Z</time>
      </trkpt>
      <trkpt lat="45.44541" lon="6.9175">
        <ele>2395</ele>
        <time>2015-08-23T08:19:39Z</time>
      </trkpt>
      <trkpt lat="45.44537" lon="6.91754">
        <ele>2395</ele>
        <time>2015-08-23T08:19:41Z</time>
      </trkpt>
      <trkpt lat="45.44534" lon="6.91757">
        <ele>2395</ele>
        <time>2015-08-23T08:19:43Z</time>
      </trkpt>
      <trkpt lat="45.44533" lon="6.91761">
        <ele>2395</ele>
        <time>2015-08-23T08:19:45Z</time>
      </trkpt>
      <trkpt lat="45.44534" lon="6.91766">
        <ele>2396</ele>
        <time>2015-08-23T08:19:48Z</time>
      </trkpt>
      <trkpt lat="45.44533" lon="6.91771">
        <ele>2396</ele>
        <time>2015-08-23T08:19:51Z</time>
      </trkpt>
      <trkpt lat="45.44532" lon="6.91775">
        <ele>2397</ele>
        <time>2015-08-23T08:19:53Z</time>
      </trkpt>
      <trkpt lat="45.4453" lon="6.91778">
        <ele>2397</ele>
        <time>2015-08-23T08:19:55Z</time>
      </trkpt>
      <trkpt lat="45.44528" lon="6.91782">
        <ele>2398</ele>
        <time>2015-08-23T08:19:58Z</time>
      </trkpt>
      <trkpt lat="45.44524" lon="6.91784">
        <ele>2398</ele>
        <time>2015-08-23T08:20:00Z</time>
      </trkpt>
      <trkpt lat="45.44521" lon="6.91786">
        <ele>2398</ele>
        <time>2015-08-23T08:20:02Z</time>
      </trkpt>
      <trkpt lat="45.44519" lon="6.9179">
        <ele>2399</ele>
        <time>2015-08-23T08:20:04Z</time>
      </trkpt>
      <trkpt lat="45.44517" lon="6.91794">
        <ele>2400</ele>
        <time>2015-08-23T08:20:06Z</time>
      </trkpt>
      <trkpt lat="45.44515" lon="6.91798">
        <ele>2400</ele>
        <time>2015-08-23T08:20:08Z</time>
      </trkpt>
      <trkpt lat="45.44512" lon="6.918">
        <ele>2401</ele>
        <time>2015-08-23T08:20:10Z</time>
      </trkpt>
      <trkpt lat="45.44508" lon="6.91803">
        <ele>2401</ele>
        <time>2015-08-23T08:20:12Z</time>
      </trkpt>
      <trkpt lat="45.44504" lon="6.91805">
        <ele>2401</ele>
        <time>2015-08-23T08:20:14Z</time>
      </trkpt>
      <trkpt lat="45.445" lon="6.91807">
        <ele>2403</ele>
        <time>2015-08-23T08:20:16Z</time>
      </trkpt>
      <trkpt lat="45.44496" lon="6.9181">
        <ele>2403</ele>
        <time>2015-08-23T08:20:18Z</time>
      </trkpt>
      <trkpt lat="45.44492" lon="6.91814">
        <ele>2404</ele>
        <time>2015-08-23T08:20:20Z</time>
      </trkpt>
      <trkpt lat="45.44488" lon="6.91819">
        <ele>2405</ele>
        <time>2015-08-23T08:20:22Z</time>
      </trkpt>
      <trkpt lat="45.44486" lon="6.91823">
        <ele>2405</ele>
        <time>2015-08-23T08:20:24Z</time>
      </trkpt>
      <trkpt lat="45.44483" lon="6.91827">
        <ele>2405</ele>
        <time>2015-08-23T08:20:26Z</time>
      </trkpt>
      <trkpt lat="45.44481" lon="6.91832">
        <ele>2406</ele>
        <time>2015-08-23T08:20:28Z</time>
      </trkpt>
      <trkpt lat="45.44478" lon="6.91838">
        <ele>2414</ele>
        <time>2015-08-23T08:20:30Z</time>
      </trkpt>
      <trkpt lat="45.44477" lon="6.91844">
        <ele>2415</ele>
        <time>2015-08-23T08:20:32Z</time>
      </trkpt>
      <trkpt lat="45.44475" lon="6.9185">
        <ele>2416</ele>
        <time>2015-08-23T08:20:34Z</time>
      </trkpt>
      <trkpt lat="45.44473" lon="6.91855">
        <ele>2416</ele>
        <time>2015-08-23T08:20:36Z</time>
      </trkpt>
      <trkpt lat="45.44471" lon="6.9186">
        <ele>2417</ele>
        <time>2015-08-23T08:20:38Z</time>
      </trkpt>
      <trkpt lat="45.44471" lon="6.91864">
        <ele>2417</ele>
        <time>2015-08-23T08:20:41Z</time>
      </trkpt>
      <trkpt lat="45.44468" lon="6.91867">
        <ele>2418</ele>
        <time>2015-08-23T08:20:45Z</time>
      </trkpt>
      <trkpt lat="45.44466" lon="6.91872">
        <ele>2418</ele>
        <time>2015-08-23T08:20:48Z</time>
      </trkpt>
      <trkpt lat="45.44465" lon="6.91876">
        <ele>2419</ele>
        <time>2015-08-23T08:20:50Z</time>
      </trkpt>
      <trkpt lat="45.44464" lon="6.91881">
        <ele>2419</ele>
        <time>2015-08-23T08:20:52Z</time>
      </trkpt>
      <trkpt lat="45.44463" lon="6.91885">
        <ele>2419</ele>
        <time>2015-08-23T08:20:55Z</time>
      </trkpt>
      <trkpt lat="45.44461" lon="6.91889">
        <ele>2420</ele>
        <time>2015-08-23T08:20:59Z</time>
      </trkpt>
      <trkpt lat="45.4446" lon="6.91893">
        <ele>2420</ele>
        <time>2015-08-23T08:21:02Z</time>
      </trkpt>
      <trkpt lat="45.4446" lon="6.91897">
        <ele>2420</ele>
        <time>2015-08-23T08:21:05Z</time>
      </trkpt>
      <trkpt lat="45.44457" lon="6.91901">
        <ele>2420</ele>
        <time>2015-08-23T08:21:07Z</time>
      </trkpt>
      <trkpt lat="45.44455" lon="6.91904">
        <ele>2420</ele>
        <time>2015-08-23T08:21:08Z</time>
      </trkpt>
      <trkpt lat="45.44452" lon="6.91907">
        <ele>2420</ele>
        <time>2015-08-23T08:21:09Z</time>
      </trkpt>
      <trkpt lat="45.44449" lon="6.91911">
        <ele>2420</ele>
        <time>2015-08-23T08:21:11Z</time>
      </trkpt>
      <trkpt lat="45.44448" lon="6.91915">
        <ele>2421</ele>
        <time>2015-08-23T08:21:14Z</time>
      </trkpt>
      <trkpt lat="45.44448" lon="6.91919">
        <ele>2427</ele>
        <time>2015-08-23T08:21:16Z</time>
      </trkpt>
      <trkpt lat="45.44447" lon="6.91925">
        <ele>2428</ele>
        <time>2015-08-23T08:21:18Z</time>
      </trkpt>
      <trkpt lat="45.44445" lon="6.9193">
        <ele>2428</ele>
        <time>2015-08-23T08:21:20Z</time>
      </trkpt>
      <trkpt lat="45.44443" lon="6.91935">
        <ele>2428</ele>
        <time>2015-08-23T08:21:22Z</time>
      </trkpt>
      <trkpt lat="45.4444" lon="6.9194">
        <ele>2428</ele>
        <time>2015-08-23T08:21:24Z</time>
      </trkpt>
      <trkpt lat="45.44435" lon="6.91944">
        <ele>2428</ele>
        <time>2015-08-23T08:21:26Z</time>
      </trkpt>
      <trkpt lat="45.44431" lon="6.91947">
        <ele>2428</ele>
        <time>2015-08-23T08:21:28Z</time>
      </trkpt>
      <trkpt lat="45.44428" lon="6.91948">
        <ele>2428</ele>
        <time>2015-08-23T08:21:29Z</time>
      </trkpt>
      <trkpt lat="45.44424" lon="6.9195">
        <ele>2428</ele>
        <time>2015-08-23T08:21:31Z</time>
      </trkpt>
      <trkpt lat="45.44424" lon="6.91954">
        <ele>2428</ele>
        <time>2015-08-23T08:21:35Z</time>
      </trkpt>
      <trkpt lat="45.44422" lon="6.91958">
        <ele>2429</ele>
        <time>2015-08-23T08:21:37Z</time>
      </trkpt>
      <trkpt lat="45.4442" lon="6.91962">
        <ele>2429</ele>
        <time>2015-08-23T08:21:40Z</time>
      </trkpt>
      <trkpt lat="45.44418" lon="6.91965">
        <ele>2429</ele>
        <time>2015-08-23T08:21:43Z</time>
      </trkpt>
      <trkpt lat="45.44415" lon="6.91967">
        <ele>2430</ele>
        <time>2015-08-23T08:21:45Z</time>
      </trkpt>
      <trkpt lat="45.44412" lon="6.91969">
        <ele>2430</ele>
        <time>2015-08-23T08:21:48Z</time>
      </trkpt>
      <trkpt lat="45.4441" lon="6.91973">
        <ele>2430</ele>
        <time>2015-08-23T08:21:52Z</time>
      </trkpt>
      <trkpt lat="45.44406" lon="6.91975">
        <ele>2431</ele>
        <time>2015-08-23T08:21:54Z</time>
      </trkpt>
      <trkpt lat="45.44403" lon="6.91978">
        <ele>2431</ele>
        <time>2015-08-23T08:21:56Z</time>
      </trkpt>
      <trkpt lat="45.44404" lon="6.91983">
        <ele>2431</ele>
        <time>2015-08-23T08:21:59Z</time>
      </trkpt>
      <trkpt lat="45.44405" lon="6.91988">
        <ele>2430</ele>
        <time>2015-08-23T08:22:02Z</time>
      </trkpt>
      <trkpt lat="45.44406" lon="6.91992">
        <ele>2430</ele>
        <time>2015-08-23T08:22:05Z</time>
      </trkpt>
      <trkpt lat="45.44406" lon="6.91997">
        <ele>2430</ele>
        <time>2015-08-23T08:22:10Z</time>
      </trkpt>
      <trkpt lat="45.44403" lon="6.92">
        <ele>2433</ele>
        <time>2015-08-23T08:22:13Z</time>
      </trkpt>
      <trkpt lat="45.44401" lon="6.92004">
        <ele>2433</ele>
        <time>2015-08-23T08:22:15Z</time>
      </trkpt>
      <trkpt lat="45.444" lon="6.92007">
        <ele>2434</ele>
        <time>2015-08-23T08:22:16Z</time>
      </trkpt>
      <trkpt lat="45.44398" lon="6.9201">
        <ele>2434</ele>
        <time>2015-08-23T08:22:17Z</time>
      </trkpt>
      <trkpt lat="45.44396" lon="6.92013">
        <ele>2435</ele>
        <time>2015-08-23T08:22:18Z</time>
      </trkpt>
      <trkpt lat="45.44394" lon="6.92017">
        <ele>2436</ele>
        <time>2015-08-23T08:22:20Z</time>
      </trkpt>
      <trkpt lat="45.44392" lon="6.92021">
        <ele>2436</ele>
        <time>2015-08-23T08:22:22Z</time>
      </trkpt>
      <trkpt lat="45.44393" lon="6.92026">
        <ele>2437</ele>
        <time>2015-08-23T08:22:24Z</time>
      </trkpt>
      <trkpt lat="45.44392" lon="6.92031">
        <ele>2437</ele>
        <time>2015-08-23T08:22:26Z</time>
      </trkpt>
      <trkpt lat="45.44389" lon="6.92036">
        <ele>2438</ele>
        <time>2015-08-23T08:22:28Z</time>
      </trkpt>
      <trkpt lat="45.44386" lon="6.9204">
        <ele>2438</ele>
        <time>2015-08-23T08:22:30Z</time>
      </trkpt>
      <trkpt lat="45.44384" lon="6.92045">
        <ele>2439</ele>
        <time>2015-08-23T08:22:32Z</time>
      </trkpt>
      <trkpt lat="45.44381" lon="6.92048">
        <ele>2439</ele>
        <time>2015-08-23T08:22:35Z</time>
      </trkpt>
      <trkpt lat="45.44378" lon="6.9205">
        <ele>2439</ele>
        <time>2015-08-23T08:22:38Z</time>
      </trkpt>
      <trkpt lat="45.44375" lon="6.92052">
        <ele>2439</ele>
        <time>2015-08-23T08:22:40Z</time>
      </trkpt>
      <trkpt lat="45.44372" lon="6.92054">
        <ele>2440</ele>
        <time>2015-08-23T08:22:43Z</time>
      </trkpt>
      <trkpt lat="45.44369" lon="6.92057">
        <ele>2440</ele>
        <time>2015-08-23T08:22:45Z</time>
      </trkpt>
      <trkpt lat="45.44364" lon="6.92059">
        <ele>2440</ele>
        <time>2015-08-23T08:22:47Z</time>
      </trkpt>
      <trkpt lat="45.44361" lon="6.92061">
        <ele>2440</ele>
        <time>2015-08-23T08:22:49Z</time>
      </trkpt>
      <trkpt lat="45.44356" lon="6.92063">
        <ele>2441</ele>
        <time>2015-08-23T08:22:52Z</time>
      </trkpt>
      <trkpt lat="45.44354" lon="6.92064">
        <ele>2441</ele>
        <time>2015-08-23T08:23:02Z</time>
      </trkpt>
      <trkpt lat="45.44352" lon="6.92065">
        <ele>2441</ele>
        <time>2015-08-23T08:23:03Z</time>
      </trkpt>
      <trkpt lat="45.44349" lon="6.92063">
        <ele>2441</ele>
        <time>2015-08-23T08:23:05Z</time>
      </trkpt>
      <trkpt lat="45.44346" lon="6.92062">
        <ele>2441</ele>
        <time>2015-08-23T08:23:07Z</time>
      </trkpt>
      <trkpt lat="45.44344" lon="6.92059">
        <ele>2441</ele>
        <time>2015-08-23T08:23:09Z</time>
      </trkpt>
      <trkpt lat="45.44342" lon="6.92061">
        <ele>2441</ele>
        <time>2015-08-23T08:23:13Z</time>
      </trkpt>
      <trkpt lat="45.44339" lon="6.92067">
        <ele>2442</ele>
        <time>2015-08-23T08:23:21Z</time>
      </trkpt>
      <trkpt lat="45.44337" lon="6.92071">
        <ele>2442</ele>
        <time>2015-08-23T08:23:25Z</time>
      </trkpt>
      <trkpt lat="45.4434" lon="6.92073">
        <ele>2442</ele>
        <time>2015-08-23T08:23:30Z</time>
      </trkpt>
      <trkpt lat="45.44341" lon="6.92077">
        <ele>2443</ele>
        <time>2015-08-23T08:23:34Z</time>
      </trkpt>
      <trkpt lat="45.44341" lon="6.92082">
        <ele>2443</ele>
        <time>2015-08-23T08:23:37Z</time>
      </trkpt>
      <trkpt lat="45.44338" lon="6.92086">
        <ele>2446</ele>
        <time>2015-08-23T08:23:39Z</time>
      </trkpt>
      <trkpt lat="45.44336" lon="6.9209">
        <ele>2447</ele>
        <time>2015-08-23T08:23:41Z</time>
      </trkpt>
      <trkpt lat="45.44334" lon="6.92093">
        <ele>2447</ele>
        <time>2015-08-23T08:23:43Z</time>
      </trkpt>
      <trkpt lat="45.44331" lon="6.92097">
        <ele>2451</ele>
        <time>2015-08-23T08:23:46Z</time>
      </trkpt>
      <trkpt lat="45.44328" lon="6.92099">
        <ele>2452</ele>
        <time>2015-08-23T08:23:48Z</time>
      </trkpt>
      <trkpt lat="45.44324" lon="6.92099">
        <ele>2452</ele>
        <time>2015-08-23T08:23:50Z</time>
      </trkpt>
      <trkpt lat="45.44321" lon="6.92098">
        <ele>2453</ele>
        <time>2015-08-23T08:23:52Z</time>
      </trkpt>
      <trkpt lat="45.44318" lon="6.92096">
        <ele>2453</ele>
        <time>2015-08-23T08:23:56Z</time>
      </trkpt>
      <trkpt lat="45.44315" lon="6.92096">
        <ele>2454</ele>
        <time>2015-08-23T08:23:59Z</time>
      </trkpt>
      <trkpt lat="45.44311" lon="6.92097">
        <ele>2455</ele>
        <time>2015-08-23T08:24:01Z</time>
      </trkpt>
      <trkpt lat="45.44307" lon="6.921">
        <ele>2456</ele>
        <time>2015-08-23T08:24:03Z</time>
      </trkpt>
      <trkpt lat="45.44305" lon="6.92103">
        <ele>2456</ele>
        <time>2015-08-23T08:24:05Z</time>
      </trkpt>
      <trkpt lat="45.44303" lon="6.92107">
        <ele>2457</ele>
        <time>2015-08-23T08:24:08Z</time>
      </trkpt>
      <trkpt lat="45.44301" lon="6.92111">
        <ele>2458</ele>
        <time>2015-08-23T08:24:11Z</time>
      </trkpt>
      <trkpt lat="45.44298" lon="6.92113">
        <ele>2458</ele>
        <time>2015-08-23T08:24:14Z</time>
      </trkpt>
      <trkpt lat="45.44296" lon="6.92116">
        <ele>2458</ele>
        <time>2015-08-23T08:24:18Z</time>
      </trkpt>
      <trkpt lat="45.44294" lon="6.92119">
        <ele>2459</ele>
        <time>2015-08-23T08:24:22Z</time>
      </trkpt>
      <trkpt lat="45.44291" lon="6.92121">
        <ele>2459</ele>
        <time>2015-08-23T08:24:23Z</time>
      </trkpt>
      <trkpt lat="45.44289" lon="6.92123">
        <ele>2460</ele>
        <time>2015-08-23T08:24:25Z</time>
      </trkpt>
      <trkpt lat="45.44285" lon="6.92122">
        <ele>2460</ele>
        <time>2015-08-23T08:24:31Z</time>
      </trkpt>
      <trkpt lat="45.44282" lon="6.92122">
        <ele>2460</ele>
        <time>2015-08-23T08:24:33Z</time>
      </trkpt>
      <trkpt lat="45.44279" lon="6.92123">
        <ele>2461</ele>
        <time>2015-08-23T08:24:35Z</time>
      </trkpt>
      <trkpt lat="45.44277" lon="6.92126">
        <ele>2461</ele>
        <time>2015-08-23T08:24:38Z</time>
      </trkpt>
      <trkpt lat="45.44274" lon="6.92128">
        <ele>2461</ele>
        <time>2015-08-23T08:24:42Z</time>
      </trkpt>
      <trkpt lat="45.44271" lon="6.9213">
        <ele>2462</ele>
        <time>2015-08-23T08:24:45Z</time>
      </trkpt>
      <trkpt lat="45.44268" lon="6.92132">
        <ele>2462</ele>
        <time>2015-08-23T08:24:48Z</time>
      </trkpt>
      <trkpt lat="45.44265" lon="6.92134">
        <ele>2462</ele>
        <time>2015-08-23T08:24:50Z</time>
      </trkpt>
      <trkpt lat="45.44261" lon="6.92136">
        <ele>2463</ele>
        <time>2015-08-23T08:24:53Z</time>
      </trkpt>
      <trkpt lat="45.44259" lon="6.92139">
        <ele>2463</ele>
        <time>2015-08-23T08:24:57Z</time>
      </trkpt>
      <trkpt lat="45.44258" lon="6.92143">
        <ele>2464</ele>
        <time>2015-08-23T08:25:02Z</time>
      </trkpt>
      <trkpt lat="45.44255" lon="6.92145">
        <ele>2464</ele>
        <time>2015-08-23T08:25:06Z</time>
      </trkpt>
      <trkpt lat="45.44251" lon="6.92145">
        <ele>2464</ele>
        <time>2015-08-23T08:25:08Z</time>
      </trkpt>
      <trkpt lat="45.44246" lon="6.92146">
        <ele>2476</ele>
        <time>2015-08-23T08:25:10Z</time>
      </trkpt>
      <trkpt lat="45.44245" lon="6.9215">
        <ele>2475</ele>
        <time>2015-08-23T08:25:19Z</time>
      </trkpt>
      <trkpt lat="45.44243" lon="6.92153">
        <ele>2475</ele>
        <time>2015-08-23T08:25:22Z</time>
      </trkpt>
      <trkpt lat="45.44243" lon="6.92158">
        <ele>2474</ele>
        <time>2015-08-23T08:25:26Z</time>
      </trkpt>
      <trkpt lat="45.4424" lon="6.92161">
        <ele>2474</ele>
        <time>2015-08-23T08:25:28Z</time>
      </trkpt>
      <trkpt lat="45.44238" lon="6.92162">
        <ele>2474</ele>
        <time>2015-08-23T08:25:30Z</time>
      </trkpt>
      <trkpt lat="45.44234" lon="6.92165">
        <ele>2475</ele>
        <time>2015-08-23T08:25:33Z</time>
      </trkpt>
      <trkpt lat="45.44229" lon="6.92166">
        <ele>2477</ele>
        <time>2015-08-23T08:25:35Z</time>
      </trkpt>
      <trkpt lat="45.44226" lon="6.92167">
        <ele>2476</ele>
        <time>2015-08-23T08:25:37Z</time>
      </trkpt>
      <trkpt lat="45.44223" lon="6.9217">
        <ele>2476</ele>
        <time>2015-08-23T08:25:45Z</time>
      </trkpt>
      <trkpt lat="45.4422" lon="6.92172">
        <ele>2477</ele>
        <time>2015-08-23T08:25:52Z</time>
      </trkpt>
      <trkpt lat="45.44216" lon="6.92173">
        <ele>2478</ele>
        <time>2015-08-23T08:25:54Z</time>
      </trkpt>
      <trkpt lat="45.44211" lon="6.92174">
        <ele>2479</ele>
        <time>2015-08-23T08:25:56Z</time>
      </trkpt>
      <trkpt lat="45.44207" lon="6.92175">
        <ele>2479</ele>
        <time>2015-08-23T08:25:58Z</time>
      </trkpt>
      <trkpt lat="45.44202" lon="6.92179">
        <ele>2480</ele>
        <time>2015-08-23T08:26:00Z</time>
      </trkpt>
      <trkpt lat="45.44201" lon="6.92181">
        <ele>2480</ele>
        <time>2015-08-23T08:26:04Z</time>
      </trkpt>
      <trkpt lat="45.44199" lon="6.92183">
        <ele>2480</ele>
        <time>2015-08-23T08:26:09Z</time>
      </trkpt>
      <trkpt lat="45.44197" lon="6.92185">
        <ele>2481</ele>
        <time>2015-08-23T08:26:13Z</time>
      </trkpt>
      <trkpt lat="45.44195" lon="6.92187">
        <ele>2481</ele>
        <time>2015-08-23T08:26:14Z</time>
      </trkpt>
      <trkpt lat="45.44192" lon="6.92188">
        <ele>2481</ele>
        <time>2015-08-23T08:26:15Z</time>
      </trkpt>
      <trkpt lat="45.44189" lon="6.9219">
        <ele>2482</ele>
        <time>2015-08-23T08:26:16Z</time>
      </trkpt>
      <trkpt lat="45.44185" lon="6.92192">
        <ele>2482</ele>
        <time>2015-08-23T08:26:18Z</time>
      </trkpt>
      <trkpt lat="45.44182" lon="6.92195">
        <ele>2482</ele>
        <time>2015-08-23T08:26:20Z</time>
      </trkpt>
      <trkpt lat="45.44179" lon="6.92197">
        <ele>2482</ele>
        <time>2015-08-23T08:26:22Z</time>
      </trkpt>
      <trkpt lat="45.44175" lon="6.92198">
        <ele>2482</ele>
        <time>2015-08-23T08:26:24Z</time>
      </trkpt>
      <trkpt lat="45.44172" lon="6.92199">
        <ele>2482</ele>
        <time>2015-08-23T08:26:26Z</time>
      </trkpt>
      <trkpt lat="45.44169" lon="6.922">
        <ele>2482</ele>
        <time>2015-08-23T08:26:28Z</time>
      </trkpt>
      <trkpt lat="45.44166" lon="6.92201">
        <ele>2492</ele>
        <time>2015-08-23T08:26:31Z</time>
      </trkpt>
      <trkpt lat="45.44164" lon="6.92204">
        <ele>2492</ele>
        <time>2015-08-23T08:26:34Z</time>
      </trkpt>
      <trkpt lat="45.44161" lon="6.92205">
        <ele>2492</ele>
        <time>2015-08-23T08:26:36Z</time>
      </trkpt>
      <trkpt lat="45.44158" lon="6.92206">
        <ele>2492</ele>
        <time>2015-08-23T08:26:38Z</time>
      </trkpt>
      <trkpt lat="45.44155" lon="6.9221">
        <ele>2492</ele>
        <time>2015-08-23T08:26:42Z</time>
      </trkpt>
      <trkpt lat="45.44152" lon="6.92212">
        <ele>2492</ele>
        <time>2015-08-23T08:26:45Z</time>
      </trkpt>
      <trkpt lat="45.44149" lon="6.92214">
        <ele>2492</ele>
        <time>2015-08-23T08:26:48Z</time>
      </trkpt>
      <trkpt lat="45.44135" lon="6.92223">
        <ele>2493</ele>
        <time>2015-08-23T08:26:51Z</time>
      </trkpt>
      <trkpt lat="45.44135" lon="6.92221">
        <ele>2493</ele>
        <time>2015-08-23T08:26:53Z</time>
      </trkpt>
      <trkpt lat="45.44138" lon="6.92221">
        <ele>2493</ele>
        <time>2015-08-23T08:26:54Z</time>
      </trkpt>
      <trkpt lat="45.44134" lon="6.9222">
        <ele>2493</ele>
        <time>2015-08-23T08:26:56Z</time>
      </trkpt>
      <trkpt lat="45.44131" lon="6.92221">
        <ele>2493</ele>
        <time>2015-08-23T08:26:58Z</time>
      </trkpt>
      <trkpt lat="45.44128" lon="6.92221">
        <ele>2494</ele>
        <time>2015-08-23T08:27:03Z</time>
      </trkpt>
      <trkpt lat="45.44124" lon="6.9222">
        <ele>2494</ele>
        <time>2015-08-23T08:27:06Z</time>
      </trkpt>
      <trkpt lat="45.44121" lon="6.9222">
        <ele>2494</ele>
        <time>2015-08-23T08:27:09Z</time>
      </trkpt>
      <trkpt lat="45.44118" lon="6.92218">
        <ele>2495</ele>
        <time>2015-08-23T08:27:12Z</time>
      </trkpt>
      <trkpt lat="45.44115" lon="6.92217">
        <ele>2495</ele>
        <time>2015-08-23T08:27:14Z</time>
      </trkpt>
      <trkpt lat="45.44111" lon="6.92215">
        <ele>2495</ele>
        <time>2015-08-23T08:27:17Z</time>
      </trkpt>
      <trkpt lat="45.44109" lon="6.92212">
        <ele>2496</ele>
        <time>2015-08-23T08:27:19Z</time>
      </trkpt>
      <trkpt lat="45.44107" lon="6.92209">
        <ele>2496</ele>
        <time>2015-08-23T08:27:21Z</time>
      </trkpt>
      <trkpt lat="45.44105" lon="6.92206">
        <ele>2496</ele>
        <time>2015-08-23T08:27:23Z</time>
      </trkpt>
      <trkpt lat="45.44102" lon="6.92205">
        <ele>2497</ele>
        <time>2015-08-23T08:27:26Z</time>
      </trkpt>
      <trkpt lat="45.44099" lon="6.92205">
        <ele>2497</ele>
        <time>2015-08-23T08:27:30Z</time>
      </trkpt>
      <trkpt lat="45.44096" lon="6.92204">
        <ele>2497</ele>
        <time>2015-08-23T08:27:31Z</time>
      </trkpt>
      <trkpt lat="45.44093" lon="6.92202">
        <ele>2497</ele>
        <time>2015-08-23T08:27:33Z</time>
      </trkpt>
      <trkpt lat="45.4409" lon="6.92199">
        <ele>2498</ele>
        <time>2015-08-23T08:27:35Z</time>
      </trkpt>
      <trkpt lat="45.44088" lon="6.92196">
        <ele>2498</ele>
        <time>2015-08-23T08:27:37Z</time>
      </trkpt>
      <trkpt lat="45.44087" lon="6.92191">
        <ele>2499</ele>
        <time>2015-08-23T08:27:41Z</time>
      </trkpt>
      <trkpt lat="45.44086" lon="6.92187">
        <ele>2500</ele>
        <time>2015-08-23T08:27:45Z</time>
      </trkpt>
      <trkpt lat="45.44085" lon="6.92183">
        <ele>2501</ele>
        <time>2015-08-23T08:27:47Z</time>
      </trkpt>
      <trkpt lat="45.44085" lon="6.92177">
        <ele>2502</ele>
        <time>2015-08-23T08:27:49Z</time>
      </trkpt>
      <trkpt lat="45.44082" lon="6.92179">
        <ele>2507</ele>
        <time>2015-08-23T08:27:54Z</time>
      </trkpt>
      <trkpt lat="45.44079" lon="6.92181">
        <ele>2507</ele>
        <time>2015-08-23T08:27:56Z</time>
      </trkpt>
      <trkpt lat="45.44075" lon="6.92182">
        <ele>2507</ele>
        <time>2015-08-23T08:27:58Z</time>
      </trkpt>
      <trkpt lat="45.4407" lon="6.92181">
        <ele>2508</ele>
        <time>2015-08-23T08:28:00Z</time>
      </trkpt>
      <trkpt lat="45.44065" lon="6.92179">
        <ele>2508</ele>
        <time>2015-08-23T08:28:02Z</time>
      </trkpt>
      <trkpt lat="45.44061" lon="6.92179">
        <ele>2508</ele>
        <time>2015-08-23T08:28:04Z</time>
      </trkpt>
      <trkpt lat="45.44058" lon="6.92178">
        <ele>2509</ele>
        <time>2015-08-23T08:28:06Z</time>
      </trkpt>
      <trkpt lat="45.44056" lon="6.92181">
        <ele>2509</ele>
        <time>2015-08-23T08:28:10Z</time>
      </trkpt>
      <trkpt lat="45.44052" lon="6.92181">
        <ele>2509</ele>
        <time>2015-08-23T08:28:13Z</time>
      </trkpt>
      <trkpt lat="45.44049" lon="6.92181">
        <ele>2509</ele>
        <time>2015-08-23T08:28:15Z</time>
      </trkpt>
      <trkpt lat="45.44046" lon="6.92181">
        <ele>2510</ele>
        <time>2015-08-23T08:28:24Z</time>
      </trkpt>
      <trkpt lat="45.44043" lon="6.92182">
        <ele>2510</ele>
        <time>2015-08-23T08:28:27Z</time>
      </trkpt>
      <trkpt lat="45.4404" lon="6.9218">
        <ele>2510</ele>
        <time>2015-08-23T08:28:30Z</time>
      </trkpt>
      <trkpt lat="45.44038" lon="6.92178">
        <ele>2511</ele>
        <time>2015-08-23T08:28:33Z</time>
      </trkpt>
      <trkpt lat="45.44034" lon="6.92175">
        <ele>2511</ele>
        <time>2015-08-23T08:28:35Z</time>
      </trkpt>
      <trkpt lat="45.44031" lon="6.92173">
        <ele>2512</ele>
        <time>2015-08-23T08:28:37Z</time>
      </trkpt>
      <trkpt lat="45.44029" lon="6.92171">
        <ele>2512</ele>
        <time>2015-08-23T08:28:39Z</time>
      </trkpt>
      <trkpt lat="45.44027" lon="6.92168">
        <ele>2512</ele>
        <time>2015-08-23T08:28:42Z</time>
      </trkpt>
      <trkpt lat="45.44023" lon="6.92165">
        <ele>2515</ele>
        <time>2015-08-23T08:28:45Z</time>
      </trkpt>
      <trkpt lat="45.4402" lon="6.92166">
        <ele>2516</ele>
        <time>2015-08-23T08:28:47Z</time>
      </trkpt>
      <trkpt lat="45.44017" lon="6.92168">
        <ele>2514</ele>
        <time>2015-08-23T08:28:48Z</time>
      </trkpt>
      <trkpt lat="45.44015" lon="6.9217">
        <ele>2515</ele>
        <time>2015-08-23T08:28:49Z</time>
      </trkpt>
      <trkpt lat="45.44012" lon="6.92171">
        <ele>2515</ele>
        <time>2015-08-23T08:28:50Z</time>
      </trkpt>
      <trkpt lat="45.44007" lon="6.92172">
        <ele>2516</ele>
        <time>2015-08-23T08:28:52Z</time>
      </trkpt>
      <trkpt lat="45.44003" lon="6.9217">
        <ele>2517</ele>
        <time>2015-08-23T08:28:54Z</time>
      </trkpt>
      <trkpt lat="45.43999" lon="6.92166">
        <ele>2519</ele>
        <time>2015-08-23T08:28:56Z</time>
      </trkpt>
      <trkpt lat="45.43995" lon="6.92162">
        <ele>2520</ele>
        <time>2015-08-23T08:28:58Z</time>
      </trkpt>
      <trkpt lat="45.43992" lon="6.92159">
        <ele>2521</ele>
        <time>2015-08-23T08:29:00Z</time>
      </trkpt>
      <trkpt lat="45.43989" lon="6.92155">
        <ele>2522</ele>
        <time>2015-08-23T08:29:02Z</time>
      </trkpt>
      <trkpt lat="45.43987" lon="6.92151">
        <ele>2522</ele>
        <time>2015-08-23T08:29:04Z</time>
      </trkpt>
      <trkpt lat="45.43984" lon="6.92146">
        <ele>2522</ele>
        <time>2015-08-23T08:29:06Z</time>
      </trkpt>
      <trkpt lat="45.43981" lon="6.92142">
        <ele>2523</ele>
        <time>2015-08-23T08:29:08Z</time>
      </trkpt>
      <trkpt lat="45.43979" lon="6.92136">
        <ele>2523</ele>
        <time>2015-08-23T08:29:10Z</time>
      </trkpt>
      <trkpt lat="45.43978" lon="6.92129">
        <ele>2523</ele>
        <time>2015-08-23T08:29:12Z</time>
      </trkpt>
      <trkpt lat="45.43977" lon="6.92126">
        <ele>2523</ele>
        <time>2015-08-23T08:29:13Z</time>
      </trkpt>
      <trkpt lat="45.43976" lon="6.92121">
        <ele>2523</ele>
        <time>2015-08-23T08:29:14Z</time>
      </trkpt>
      <trkpt lat="45.43975" lon="6.92118">
        <ele>2523</ele>
        <time>2015-08-23T08:29:15Z</time>
      </trkpt>
      <trkpt lat="45.43973" lon="6.92111">
        <ele>2523</ele>
        <time>2015-08-23T08:29:17Z</time>
      </trkpt>
      <trkpt lat="45.43971" lon="6.92106">
        <ele>2524</ele>
        <time>2015-08-23T08:29:19Z</time>
      </trkpt>
      <trkpt lat="45.43969" lon="6.92101">
        <ele>2524</ele>
        <time>2015-08-23T08:29:21Z</time>
      </trkpt>
      <trkpt lat="45.43968" lon="6.92096">
        <ele>2524</ele>
        <time>2015-08-23T08:29:23Z</time>
      </trkpt>
      <trkpt lat="45.43965" lon="6.92092">
        <ele>2524</ele>
        <time>2015-08-23T08:29:26Z</time>
      </trkpt>
      <trkpt lat="45.43961" lon="6.92089">
        <ele>2524</ele>
        <time>2015-08-23T08:29:27Z</time>
      </trkpt>
      <trkpt lat="45.43957" lon="6.92085">
        <ele>2525</ele>
        <time>2015-08-23T08:29:29Z</time>
      </trkpt>
      <trkpt lat="45.43954" lon="6.92082">
        <ele>2524</ele>
        <time>2015-08-23T08:29:31Z</time>
      </trkpt>
      <trkpt lat="45.4395" lon="6.9208">
        <ele>2524</ele>
        <time>2015-08-23T08:29:33Z</time>
      </trkpt>
      <trkpt lat="45.43946" lon="6.92079">
        <ele>2524</ele>
        <time>2015-08-23T08:29:35Z</time>
      </trkpt>
      <trkpt lat="45.43941" lon="6.92076">
        <ele>2525</ele>
        <time>2015-08-23T08:29:37Z</time>
      </trkpt>
      <trkpt lat="45.43937" lon="6.92074">
        <ele>2525</ele>
        <time>2015-08-23T08:29:39Z</time>
      </trkpt>
      <trkpt lat="45.43932" lon="6.92072">
        <ele>2526</ele>
        <time>2015-08-23T08:29:41Z</time>
      </trkpt>
      <trkpt lat="45.43929" lon="6.92071">
        <ele>2526</ele>
        <time>2015-08-23T08:29:42Z</time>
      </trkpt>
      <trkpt lat="45.43924" lon="6.9207">
        <ele>2527</ele>
        <time>2015-08-23T08:29:44Z</time>
      </trkpt>
      <trkpt lat="45.4392" lon="6.92069">
        <ele>2527</ele>
        <time>2015-08-23T08:29:47Z</time>
      </trkpt>
      <trkpt lat="45.43916" lon="6.92066">
        <ele>2531</ele>
        <time>2015-08-23T08:29:48Z</time>
      </trkpt>
      <trkpt lat="45.43912" lon="6.92062">
        <ele>2532</ele>
        <time>2015-08-23T08:29:50Z</time>
      </trkpt>
      <trkpt lat="45.43907" lon="6.92059">
        <ele>2532</ele>
        <time>2015-08-23T08:29:52Z</time>
      </trkpt>
      <trkpt lat="45.43904" lon="6.92054">
        <ele>2532</ele>
        <time>2015-08-23T08:29:54Z</time>
      </trkpt>
      <trkpt lat="45.43901" lon="6.9205">
        <ele>2532</ele>
        <time>2015-08-23T08:29:56Z</time>
      </trkpt>
      <trkpt lat="45.43898" lon="6.92045">
        <ele>2532</ele>
        <time>2015-08-23T08:29:58Z</time>
      </trkpt>
      <trkpt lat="45.43895" lon="6.92041">
        <ele>2532</ele>
        <time>2015-08-23T08:30:00Z</time>
      </trkpt>
      <trkpt lat="45.43892" lon="6.92038">
        <ele>2532</ele>
        <time>2015-08-23T08:30:02Z</time>
      </trkpt>
      <trkpt lat="45.43889" lon="6.92034">
        <ele>2532</ele>
        <time>2015-08-23T08:30:04Z</time>
      </trkpt>
      <trkpt lat="45.43886" lon="6.92031">
        <ele>2533</ele>
        <time>2015-08-23T08:30:06Z</time>
      </trkpt>
      <trkpt lat="45.43884" lon="6.92029">
        <ele>2533</ele>
        <time>2015-08-23T08:30:08Z</time>
      </trkpt>
      <trkpt lat="45.43881" lon="6.92025">
        <ele>2533</ele>
        <time>2015-08-23T08:30:10Z</time>
      </trkpt>
      <trkpt lat="45.43878" lon="6.92021">
        <ele>2533</ele>
        <time>2015-08-23T08:30:12Z</time>
      </trkpt>
      <trkpt lat="45.43876" lon="6.92016">
        <ele>2533</ele>
        <time>2015-08-23T08:30:14Z</time>
      </trkpt>
      <trkpt lat="45.43874" lon="6.92013">
        <ele>2533</ele>
        <time>2015-08-23T08:30:16Z</time>
      </trkpt>
      <trkpt lat="45.43871" lon="6.92011">
        <ele>2534</ele>
        <time>2015-08-23T08:30:18Z</time>
      </trkpt>
      <trkpt lat="45.43868" lon="6.92008">
        <ele>2534</ele>
        <time>2015-08-23T08:30:20Z</time>
      </trkpt>
      <trkpt lat="45.43865" lon="6.92004">
        <ele>2534</ele>
        <time>2015-08-23T08:30:22Z</time>
      </trkpt>
      <trkpt lat="45.43864" lon="6.92001">
        <ele>2534</ele>
        <time>2015-08-23T08:30:24Z</time>
      </trkpt>
      <trkpt lat="45.43862" lon="6.91996">
        <ele>2533</ele>
        <time>2015-08-23T08:30:28Z</time>
      </trkpt>
      <trkpt lat="45.4386" lon="6.91992">
        <ele>2533</ele>
        <time>2015-08-23T08:30:30Z</time>
      </trkpt>
      <trkpt lat="45.43858" lon="6.91988">
        <ele>2534</ele>
        <time>2015-08-23T08:30:32Z</time>
      </trkpt>
      <trkpt lat="45.43854" lon="6.91986">
        <ele>2534</ele>
        <time>2015-08-23T08:30:34Z</time>
      </trkpt>
      <trkpt lat="45.43849" lon="6.91985">
        <ele>2535</ele>
        <time>2015-08-23T08:30:36Z</time>
      </trkpt>
      <trkpt lat="45.43846" lon="6.91985">
        <ele>2535</ele>
        <time>2015-08-23T08:30:37Z</time>
      </trkpt>
      <trkpt lat="45.43841" lon="6.91984">
        <ele>2535</ele>
        <time>2015-08-23T08:30:39Z</time>
      </trkpt>
      <trkpt lat="45.43837" lon="6.91982">
        <ele>2535</ele>
        <time>2015-08-23T08:30:41Z</time>
      </trkpt>
      <trkpt lat="45.43833" lon="6.91981">
        <ele>2541</ele>
        <time>2015-08-23T08:30:43Z</time>
      </trkpt>
      <trkpt lat="45.43828" lon="6.91981">
        <ele>2542</ele>
        <time>2015-08-23T08:30:45Z</time>
      </trkpt>
      <trkpt lat="45.43823" lon="6.91981">
        <ele>2542</ele>
        <time>2015-08-23T08:30:47Z</time>
      </trkpt>
      <trkpt lat="45.43818" lon="6.9198">
        <ele>2542</ele>
        <time>2015-08-23T08:30:49Z</time>
      </trkpt>
      <trkpt lat="45.43814" lon="6.91978">
        <ele>2543</ele>
        <time>2015-08-23T08:30:51Z</time>
      </trkpt>
      <trkpt lat="45.43811" lon="6.91975">
        <ele>2543</ele>
        <time>2015-08-23T08:30:53Z</time>
      </trkpt>
      <trkpt lat="45.43809" lon="6.91972">
        <ele>2543</ele>
        <time>2015-08-23T08:30:55Z</time>
      </trkpt>
      <trkpt lat="45.43806" lon="6.91969">
        <ele>2543</ele>
        <time>2015-08-23T08:30:57Z</time>
      </trkpt>
      <trkpt lat="45.43804" lon="6.91965">
        <ele>2543</ele>
        <time>2015-08-23T08:30:59Z</time>
      </trkpt>
      <trkpt lat="45.43803" lon="6.9196">
        <ele>2544</ele>
        <time>2015-08-23T08:31:01Z</time>
      </trkpt>
      <trkpt lat="45.43801" lon="6.91954">
        <ele>2544</ele>
        <time>2015-08-23T08:31:03Z</time>
      </trkpt>
      <trkpt lat="45.438" lon="6.9195">
        <ele>2544</ele>
        <time>2015-08-23T08:31:04Z</time>
      </trkpt>
      <trkpt lat="45.43798" lon="6.91943">
        <ele>2544</ele>
        <time>2015-08-23T08:31:06Z</time>
      </trkpt>
      <trkpt lat="45.43796" lon="6.91936">
        <ele>2544</ele>
        <time>2015-08-23T08:31:08Z</time>
      </trkpt>
      <trkpt lat="45.43794" lon="6.9193">
        <ele>2544</ele>
        <time>2015-08-23T08:31:10Z</time>
      </trkpt>
      <trkpt lat="45.43791" lon="6.91926">
        <ele>2545</ele>
        <time>2015-08-23T08:31:12Z</time>
      </trkpt>
      <trkpt lat="45.43788" lon="6.91922">
        <ele>2545</ele>
        <time>2015-08-23T08:31:14Z</time>
      </trkpt>
      <trkpt lat="45.43786" lon="6.91918">
        <ele>2545</ele>
        <time>2015-08-23T08:31:16Z</time>
      </trkpt>
      <trkpt lat="45.43785" lon="6.91914">
        <ele>2546</ele>
        <time>2015-08-23T08:31:18Z</time>
      </trkpt>
      <trkpt lat="45.43784" lon="6.91909">
        <ele>2546</ele>
        <time>2015-08-23T08:31:20Z</time>
      </trkpt>
      <trkpt lat="45.43783" lon="6.91904">
        <ele>2546</ele>
        <time>2015-08-23T08:31:22Z</time>
      </trkpt>
      <trkpt lat="45.43782" lon="6.91899">
        <ele>2546</ele>
        <time>2015-08-23T08:31:24Z</time>
      </trkpt>
      <trkpt lat="45.43779" lon="6.91894">
        <ele>2546</ele>
        <time>2015-08-23T08:31:26Z</time>
      </trkpt>
      <trkpt lat="45.43775" lon="6.9189">
        <ele>2546</ele>
        <time>2015-08-23T08:31:28Z</time>
      </trkpt>
      <trkpt lat="45.43772" lon="6.91888">
        <ele>2546</ele>
        <time>2015-08-23T08:31:30Z</time>
      </trkpt>
      <trkpt lat="45.43768" lon="6.91887">
        <ele>2546</ele>
        <time>2015-08-23T08:31:32Z</time>
      </trkpt>
      <trkpt lat="45.43765" lon="6.91887">
        <ele>2547</ele>
        <time>2015-08-23T08:31:34Z</time>
      </trkpt>
      <trkpt lat="45.43761" lon="6.91886">
        <ele>2547</ele>
        <time>2015-08-23T08:31:36Z</time>
      </trkpt>
      <trkpt lat="45.43758" lon="6.91886">
        <ele>2547</ele>
        <time>2015-08-23T08:31:38Z</time>
      </trkpt>
      <trkpt lat="45.43755" lon="6.91886">
        <ele>2547</ele>
        <time>2015-08-23T08:31:42Z</time>
      </trkpt>
      <trkpt lat="45.43752" lon="6.91885">
        <ele>2547</ele>
        <time>2015-08-23T08:31:45Z</time>
      </trkpt>
      <trkpt lat="45.43749" lon="6.91886">
        <ele>2551</ele>
        <time>2015-08-23T08:31:49Z</time>
      </trkpt>
      <trkpt lat="45.43746" lon="6.91884">
        <ele>2551</ele>
        <time>2015-08-23T08:31:52Z</time>
      </trkpt>
      <trkpt lat="45.43743" lon="6.91881">
        <ele>2551</ele>
        <time>2015-08-23T08:31:53Z</time>
      </trkpt>
      <trkpt lat="45.43741" lon="6.91879">
        <ele>2551</ele>
        <time>2015-08-23T08:31:55Z</time>
      </trkpt>
      <trkpt lat="45.43739" lon="6.91876">
        <ele>2551</ele>
        <time>2015-08-23T08:31:57Z</time>
      </trkpt>
      <trkpt lat="45.43736" lon="6.91871">
        <ele>2551</ele>
        <time>2015-08-23T08:31:59Z</time>
      </trkpt>
      <trkpt lat="45.43733" lon="6.91866">
        <ele>2551</ele>
        <time>2015-08-23T08:32:01Z</time>
      </trkpt>
      <trkpt lat="45.4373" lon="6.91864">
        <ele>2551</ele>
        <time>2015-08-23T08:32:02Z</time>
      </trkpt>
      <trkpt lat="45.43728" lon="6.9186">
        <ele>2551</ele>
        <time>2015-08-23T08:32:03Z</time>
      </trkpt>
      <trkpt lat="45.43726" lon="6.91858">
        <ele>2551</ele>
        <time>2015-08-23T08:32:04Z</time>
      </trkpt>
      <trkpt lat="45.43724" lon="6.91855">
        <ele>2551</ele>
        <time>2015-08-23T08:32:05Z</time>
      </trkpt>
      <trkpt lat="45.43722" lon="6.91851">
        <ele>2551</ele>
        <time>2015-08-23T08:32:06Z</time>
      </trkpt>
      <trkpt lat="45.43721" lon="6.91848">
        <ele>2551</ele>
        <time>2015-08-23T08:32:07Z</time>
      </trkpt>
      <trkpt lat="45.43719" lon="6.91845">
        <ele>2551</ele>
        <time>2015-08-23T08:32:08Z</time>
      </trkpt>
      <trkpt lat="45.43718" lon="6.91841">
        <ele>2551</ele>
        <time>2015-08-23T08:32:09Z</time>
      </trkpt>
      <trkpt lat="45.43717" lon="6.91838">
        <ele>2551</ele>
        <time>2015-08-23T08:32:10Z</time>
      </trkpt>
      <trkpt lat="45.43715" lon="6.91834">
        <ele>2551</ele>
        <time>2015-08-23T08:32:11Z</time>
      </trkpt>
      <trkpt lat="45.43714" lon="6.91831">
        <ele>2549</ele>
        <time>2015-08-23T08:32:12Z</time>
      </trkpt>
      <trkpt lat="45.43712" lon="6.91828">
        <ele>2548</ele>
        <time>2015-08-23T08:32:13Z</time>
      </trkpt>
      <trkpt lat="45.43711" lon="6.91825">
        <ele>2548</ele>
        <time>2015-08-23T08:32:14Z</time>
      </trkpt>
      <trkpt lat="45.43709" lon="6.91822">
        <ele>2548</ele>
        <time>2015-08-23T08:32:15Z</time>
      </trkpt>
      <trkpt lat="45.43706" lon="6.91819">
        <ele>2548</ele>
        <time>2015-08-23T08:32:16Z</time>
      </trkpt>
      <trkpt lat="45.43702" lon="6.91815">
        <ele>2548</ele>
        <time>2015-08-23T08:32:18Z</time>
      </trkpt>
      <trkpt lat="45.43697" lon="6.91812">
        <ele>2548</ele>
        <time>2015-08-23T08:32:20Z</time>
      </trkpt>
      <trkpt lat="45.43693" lon="6.91809">
        <ele>2548</ele>
        <time>2015-08-23T08:32:22Z</time>
      </trkpt>
      <trkpt lat="45.43689" lon="6.91805">
        <ele>2548</ele>
        <time>2015-08-23T08:32:24Z</time>
      </trkpt>
      <trkpt lat="45.43685" lon="6.91801">
        <ele>2548</ele>
        <time>2015-08-23T08:32:26Z</time>
      </trkpt>
      <trkpt lat="45.43682" lon="6.91797">
        <ele>2548</ele>
        <time>2015-08-23T08:32:28Z</time>
      </trkpt>
      <trkpt lat="45.43677" lon="6.91794">
        <ele>2548</ele>
        <time>2015-08-23T08:32:30Z</time>
      </trkpt>
      <trkpt lat="45.43672" lon="6.91792">
        <ele>2548</ele>
        <time>2015-08-23T08:32:32Z</time>
      </trkpt>
      <trkpt lat="45.43669" lon="6.91791">
        <ele>2548</ele>
        <time>2015-08-23T08:32:33Z</time>
      </trkpt>
      <trkpt lat="45.43665" lon="6.91788">
        <ele>2550</ele>
        <time>2015-08-23T08:32:35Z</time>
      </trkpt>
      <trkpt lat="45.43661" lon="6.91783">
        <ele>2550</ele>
        <time>2015-08-23T08:32:37Z</time>
      </trkpt>
      <trkpt lat="45.43658" lon="6.91778">
        <ele>2550</ele>
        <time>2015-08-23T08:32:39Z</time>
      </trkpt>
      <trkpt lat="45.43655" lon="6.91773">
        <ele>2550</ele>
        <time>2015-08-23T08:32:41Z</time>
      </trkpt>
      <trkpt lat="45.43651" lon="6.91769">
        <ele>2550</ele>
        <time>2015-08-23T08:32:43Z</time>
      </trkpt>
      <trkpt lat="45.43647" lon="6.91764">
        <ele>2550</ele>
        <time>2015-08-23T08:32:45Z</time>
      </trkpt>
      <trkpt lat="45.43645" lon="6.91762">
        <ele>2550</ele>
        <time>2015-08-23T08:32:46Z</time>
      </trkpt>
      <trkpt lat="45.43643" lon="6.91758">
        <ele>2550</ele>
        <time>2015-08-23T08:32:47Z</time>
      </trkpt>
      <trkpt lat="45.4364" lon="6.91756">
        <ele>2550</ele>
        <time>2015-08-23T08:32:48Z</time>
      </trkpt>
      <trkpt lat="45.43638" lon="6.91753">
        <ele>2550</ele>
        <time>2015-08-23T08:32:49Z</time>
      </trkpt>
      <trkpt lat="45.43635" lon="6.91751">
        <ele>2550</ele>
        <time>2015-08-23T08:32:50Z</time>
      </trkpt>
      <trkpt lat="45.43633" lon="6.91748">
        <ele>2546</ele>
        <time>2015-08-23T08:32:51Z</time>
      </trkpt>
      <trkpt lat="45.43631" lon="6.91745">
        <ele>2545</ele>
        <time>2015-08-23T08:32:52Z</time>
      </trkpt>
      <trkpt lat="45.43629" lon="6.91742">
        <ele>2545</ele>
        <time>2015-08-23T08:32:53Z</time>
      </trkpt>
      <trkpt lat="45.43627" lon="6.91739">
        <ele>2545</ele>
        <time>2015-08-23T08:32:54Z</time>
      </trkpt>
      <trkpt lat="45.43625" lon="6.91735">
        <ele>2544</ele>
        <time>2015-08-23T08:32:55Z</time>
      </trkpt>
      <trkpt lat="45.43623" lon="6.91732">
        <ele>2544</ele>
        <time>2015-08-23T08:32:56Z</time>
      </trkpt>
      <trkpt lat="45.43621" lon="6.91729">
        <ele>2544</ele>
        <time>2015-08-23T08:32:57Z</time>
      </trkpt>
      <trkpt lat="45.43619" lon="6.91725">
        <ele>2543</ele>
        <time>2015-08-23T08:32:58Z</time>
      </trkpt>
      <trkpt lat="45.43618" lon="6.91721">
        <ele>2543</ele>
        <time>2015-08-23T08:32:59Z</time>
      </trkpt>
      <trkpt lat="45.43616" lon="6.91716">
        <ele>2543</ele>
        <time>2015-08-23T08:33:01Z</time>
      </trkpt>
      <trkpt lat="45.43616" lon="6.91712">
        <ele>2542</ele>
        <time>2015-08-23T08:33:03Z</time>
      </trkpt>
      <trkpt lat="45.43617" lon="6.91706">
        <ele>2542</ele>
        <time>2015-08-23T08:33:06Z</time>
      </trkpt>
      <trkpt lat="45.43618" lon="6.91701">
        <ele>2541</ele>
        <time>2015-08-23T08:33:07Z</time>
      </trkpt>
      <trkpt lat="45.43619" lon="6.91697">
        <ele>2541</ele>
        <time>2015-08-23T08:33:10Z</time>
      </trkpt>
      <trkpt lat="45.43618" lon="6.91693">
        <ele>2541</ele>
        <time>2015-08-23T08:33:13Z</time>
      </trkpt>
      <trkpt lat="45.43617" lon="6.9169">
        <ele>2541</ele>
        <time>2015-08-23T08:33:15Z</time>
      </trkpt>
      <trkpt lat="45.43614" lon="6.91687">
        <ele>2541</ele>
        <time>2015-08-23T08:33:17Z</time>
      </trkpt>
      <trkpt lat="45.43611" lon="6.91685">
        <ele>2540</ele>
        <time>2015-08-23T08:33:19Z</time>
      </trkpt>
      <trkpt lat="45.43608" lon="6.91682">
        <ele>2540</ele>
        <time>2015-08-23T08:33:21Z</time>
      </trkpt>
      <trkpt lat="45.43605" lon="6.91677">
        <ele>2540</ele>
        <time>2015-08-23T08:33:23Z</time>
      </trkpt>
      <trkpt lat="45.43603" lon="6.91672">
        <ele>2540</ele>
        <time>2015-08-23T08:33:25Z</time>
      </trkpt>
      <trkpt lat="45.436" lon="6.91665">
        <ele>2533</ele>
        <time>2015-08-23T08:33:27Z</time>
      </trkpt>
      <trkpt lat="45.43598" lon="6.91662">
        <ele>2533</ele>
        <time>2015-08-23T08:33:28Z</time>
      </trkpt>
      <trkpt lat="45.43596" lon="6.91658">
        <ele>2534</ele>
        <time>2015-08-23T08:33:29Z</time>
      </trkpt>
      <trkpt lat="45.43592" lon="6.91654">
        <ele>2534</ele>
        <time>2015-08-23T08:33:31Z</time>
      </trkpt>
      <trkpt lat="45.43588" lon="6.91651">
        <ele>2534</ele>
        <time>2015-08-23T08:33:33Z</time>
      </trkpt>
      <trkpt lat="45.43585" lon="6.91649">
        <ele>2534</ele>
        <time>2015-08-23T08:33:35Z</time>
      </trkpt>
      <trkpt lat="45.43582" lon="6.91645">
        <ele>2544</ele>
        <time>2015-08-23T08:33:37Z</time>
      </trkpt>
      <trkpt lat="45.4358" lon="6.91641">
        <ele>2544</ele>
        <time>2015-08-23T08:33:39Z</time>
      </trkpt>
      <trkpt lat="45.43578" lon="6.91637">
        <ele>2544</ele>
        <time>2015-08-23T08:33:41Z</time>
      </trkpt>
      <trkpt lat="45.43577" lon="6.91632">
        <ele>2544</ele>
        <time>2015-08-23T08:33:43Z</time>
      </trkpt>
      <trkpt lat="45.43575" lon="6.91628">
        <ele>2544</ele>
        <time>2015-08-23T08:33:45Z</time>
      </trkpt>
      <trkpt lat="45.43574" lon="6.91624">
        <ele>2544</ele>
        <time>2015-08-23T08:33:47Z</time>
      </trkpt>
      <trkpt lat="45.43572" lon="6.91622">
        <ele>2544</ele>
        <time>2015-08-23T08:33:49Z</time>
      </trkpt>
      <trkpt lat="45.43568" lon="6.9162">
        <ele>2544</ele>
        <time>2015-08-23T08:33:51Z</time>
      </trkpt>
      <trkpt lat="45.43565" lon="6.91616">
        <ele>2544</ele>
        <time>2015-08-23T08:33:53Z</time>
      </trkpt>
      <trkpt lat="45.43562" lon="6.91615">
        <ele>2544</ele>
        <time>2015-08-23T08:33:55Z</time>
      </trkpt>
      <trkpt lat="45.43559" lon="6.91617">
        <ele>2544</ele>
        <time>2015-08-23T08:33:58Z</time>
      </trkpt>
      <trkpt lat="45.43555" lon="6.91617">
        <ele>2544</ele>
        <time>2015-08-23T08:34:02Z</time>
      </trkpt>
      <trkpt lat="45.43552" lon="6.91619">
        <ele>2544</ele>
        <time>2015-08-23T08:34:06Z</time>
      </trkpt>
      <trkpt lat="45.43549" lon="6.9162">
        <ele>2544</ele>
        <time>2015-08-23T08:34:10Z</time>
      </trkpt>
      <trkpt lat="45.43546" lon="6.91618">
        <ele>2544</ele>
        <time>2015-08-23T08:34:14Z</time>
      </trkpt>
      <trkpt lat="45.43543" lon="6.91616">
        <ele>2544</ele>
        <time>2015-08-23T08:34:15Z</time>
      </trkpt>
      <trkpt lat="45.4354" lon="6.91615">
        <ele>2544</ele>
        <time>2015-08-23T08:34:17Z</time>
      </trkpt>
      <trkpt lat="45.43537" lon="6.91616">
        <ele>2544</ele>
        <time>2015-08-23T08:34:20Z</time>
      </trkpt>
      <trkpt lat="45.43532" lon="6.91617">
        <ele>2544</ele>
        <time>2015-08-23T08:34:22Z</time>
      </trkpt>
      <trkpt lat="45.43528" lon="6.91618">
        <ele>2544</ele>
        <time>2015-08-23T08:34:24Z</time>
      </trkpt>
      <trkpt lat="45.43525" lon="6.9162">
        <ele>2544</ele>
        <time>2015-08-23T08:34:26Z</time>
      </trkpt>
      <trkpt lat="45.43522" lon="6.9162">
        <ele>2544</ele>
        <time>2015-08-23T08:34:29Z</time>
      </trkpt>
      <trkpt lat="45.43518" lon="6.91619">
        <ele>2544</ele>
        <time>2015-08-23T08:34:32Z</time>
      </trkpt>
      <trkpt lat="45.43514" lon="6.91616">
        <ele>2544</ele>
        <time>2015-08-23T08:34:34Z</time>
      </trkpt>
      <trkpt lat="45.43511" lon="6.91614">
        <ele>2544</ele>
        <time>2015-08-23T08:34:37Z</time>
      </trkpt>
      <trkpt lat="45.43509" lon="6.91612">
        <ele>2544</ele>
        <time>2015-08-23T08:34:39Z</time>
      </trkpt>
      <trkpt lat="45.43506" lon="6.91609">
        <ele>2544</ele>
        <time>2015-08-23T08:34:41Z</time>
      </trkpt>
      <trkpt lat="45.43504" lon="6.91605">
        <ele>2544</ele>
        <time>2015-08-23T08:34:43Z</time>
      </trkpt>
      <trkpt lat="45.43498" lon="6.91609">
        <ele>2579.2</ele>
        <time>2015-08-23T08:34:50Z</time>
      </trkpt>
      <trkpt lat="45.43493" lon="6.91609">
        <ele>2579.8</ele>
        <time>2015-08-23T08:34:51Z</time>
      </trkpt>
      <trkpt lat="45.4349" lon="6.91609">
        <ele>2580.2</ele>
        <time>2015-08-23T08:34:55Z</time>
      </trkpt>
      <trkpt lat="45.43487" lon="6.91608">
        <ele>2580.6</ele>
        <time>2015-08-23T08:34:57Z</time>
      </trkpt>
      <trkpt lat="45.43484" lon="6.91606">
        <ele>2581</ele>
        <time>2015-08-23T08:34:59Z</time>
      </trkpt>
      <trkpt lat="45.43481" lon="6.91605">
        <ele>2581.5</ele>
        <time>2015-08-23T08:35:01Z</time>
      </trkpt>
      <trkpt lat="45.43477" lon="6.91605">
        <ele>2582.1</ele>
        <time>2015-08-23T08:35:03Z</time>
      </trkpt>
      <trkpt lat="45.43473" lon="6.91603">
        <ele>2582.6</ele>
        <time>2015-08-23T08:35:05Z</time>
      </trkpt>
      <trkpt lat="45.4347" lon="6.916">
        <ele>2582.9</ele>
        <time>2015-08-23T08:35:07Z</time>
      </trkpt>
      <trkpt lat="45.43467" lon="6.91596">
        <ele>2583.1</ele>
        <time>2015-08-23T08:35:10Z</time>
      </trkpt>
      <trkpt lat="45.43464" lon="6.91595">
        <ele>2583.3</ele>
        <time>2015-08-23T08:35:12Z</time>
      </trkpt>
      <trkpt lat="45.4346" lon="6.91594">
        <ele>2583.5</ele>
        <time>2015-08-23T08:35:14Z</time>
      </trkpt>
      <trkpt lat="45.43457" lon="6.91593">
        <ele>2583.7</ele>
        <time>2015-08-23T08:35:16Z</time>
      </trkpt>
      <trkpt lat="45.43453" lon="6.91593">
        <ele>2584</ele>
        <time>2015-08-23T08:35:18Z</time>
      </trkpt>
      <trkpt lat="45.43449" lon="6.91595">
        <ele>2584.8</ele>
        <time>2015-08-23T08:35:20Z</time>
      </trkpt>
      <trkpt lat="45.43444" lon="6.91596">
        <ele>2585.4</ele>
        <time>2015-08-23T08:35:22Z</time>
      </trkpt>
      <trkpt lat="45.43441" lon="6.91597">
        <ele>2586.1</ele>
        <time>2015-08-23T08:35:24Z</time>
      </trkpt>
      <trkpt lat="45.43438" lon="6.91597">
        <ele>2586.7</ele>
        <time>2015-08-23T08:35:26Z</time>
      </trkpt>
      <trkpt lat="45.43434" lon="6.91597">
        <ele>2587.3</ele>
        <time>2015-08-23T08:35:28Z</time>
      </trkpt>
      <trkpt lat="45.4343" lon="6.91598">
        <ele>2588.2</ele>
        <time>2015-08-23T08:35:30Z</time>
      </trkpt>
      <trkpt lat="45.43427" lon="6.91599">
        <ele>2589</ele>
        <time>2015-08-23T08:35:32Z</time>
      </trkpt>
      <trkpt lat="45.43424" lon="6.91595">
        <ele>2588.7</ele>
        <time>2015-08-23T08:35:35Z</time>
      </trkpt>
      <trkpt lat="45.43423" lon="6.91589">
        <ele>2587.5</ele>
        <time>2015-08-23T08:35:37Z</time>
      </trkpt>
      <trkpt lat="45.43421" lon="6.91584">
        <ele>2586.5</ele>
        <time>2015-08-23T08:35:39Z</time>
      </trkpt>
      <trkpt lat="45.43418" lon="6.9158">
        <ele>2557</ele>
        <time>2015-08-23T08:35:41Z</time>
      </trkpt>
      <trkpt lat="45.43414" lon="6.91579">
        <ele>2586.7</ele>
        <time>2015-08-23T08:35:43Z</time>
      </trkpt>
      <trkpt lat="45.43409" lon="6.91579">
        <ele>2587.9</ele>
        <time>2015-08-23T08:35:45Z</time>
      </trkpt>
      <trkpt lat="45.43401" lon="6.91579">
        <ele>2589.6</ele>
        <time>2015-08-23T08:35:48Z</time>
      </trkpt>
      <trkpt lat="45.43399" lon="6.91579">
        <ele>2590.3</ele>
        <time>2015-08-23T08:35:49Z</time>
      </trkpt>
      <trkpt lat="45.43393" lon="6.91578">
        <ele>2591.4</ele>
        <time>2015-08-23T08:35:51Z</time>
      </trkpt>
      <trkpt lat="45.4339" lon="6.91578">
        <ele>2591.9</ele>
        <time>2015-08-23T08:35:54Z</time>
      </trkpt>
      <trkpt lat="45.43388" lon="6.91577">
        <ele>2592.3</ele>
        <time>2015-08-23T08:35:57Z</time>
      </trkpt>
      <trkpt lat="45.43385" lon="6.91577">
        <ele>2592.7</ele>
        <time>2015-08-23T08:35:59Z</time>
      </trkpt>
      <trkpt lat="45.43383" lon="6.91576">
        <ele>2593.2</ele>
        <time>2015-08-23T08:36:01Z</time>
      </trkpt>
      <trkpt lat="45.4338" lon="6.91576">
        <ele>2593.6</ele>
        <time>2015-08-23T08:36:03Z</time>
      </trkpt>
      <trkpt lat="45.43378" lon="6.91575">
        <ele>2594</ele>
        <time>2015-08-23T08:36:06Z</time>
      </trkpt>
      <trkpt lat="45.43375" lon="6.91575">
        <ele>2594.4</ele>
        <time>2015-08-23T08:36:07Z</time>
      </trkpt>
      <trkpt lat="45.43372" lon="6.91578">
        <ele>2595.6</ele>
        <time>2015-08-23T08:36:08Z</time>
      </trkpt>
      <trkpt lat="45.43369" lon="6.91581">
        <ele>2596.8</ele>
        <time>2015-08-23T08:36:09Z</time>
      </trkpt>
      <trkpt lat="45.43366" lon="6.91582">
        <ele>2597.7</ele>
        <time>2015-08-23T08:36:10Z</time>
      </trkpt>
      <trkpt lat="45.43364" lon="6.91575">
        <ele>2596.7</ele>
        <time>2015-08-23T08:36:12Z</time>
      </trkpt>
      <trkpt lat="45.43361" lon="6.91571">
        <ele>2596.4</ele>
        <time>2015-08-23T08:36:14Z</time>
      </trkpt>
      <trkpt lat="45.43358" lon="6.91569">
        <ele>2596.2</ele>
        <time>2015-08-23T08:36:16Z</time>
      </trkpt>
      <trkpt lat="45.43355" lon="6.91567">
        <ele>2596.1</ele>
        <time>2015-08-23T08:36:19Z</time>
      </trkpt>
      <trkpt lat="45.43352" lon="6.91568">
        <ele>2596.9</ele>
        <time>2015-08-23T08:36:22Z</time>
      </trkpt>
      <trkpt lat="45.43349" lon="6.91569">
        <ele>2597.5</ele>
        <time>2015-08-23T08:36:24Z</time>
      </trkpt>
      <trkpt lat="45.43346" lon="6.91568">
        <ele>2597.6</ele>
        <time>2015-08-23T08:36:26Z</time>
      </trkpt>
      <trkpt lat="45.43343" lon="6.91565">
        <ele>2597.2</ele>
        <time>2015-08-23T08:36:28Z</time>
      </trkpt>
      <trkpt lat="45.43341" lon="6.91563">
        <ele>2596.9</ele>
        <time>2015-08-23T08:36:30Z</time>
      </trkpt>
      <trkpt lat="45.43338" lon="6.9156">
        <ele>2596.7</ele>
        <time>2015-08-23T08:36:32Z</time>
      </trkpt>
      <trkpt lat="45.43333" lon="6.91563">
        <ele>2597.8</ele>
        <time>2015-08-23T08:36:36Z</time>
      </trkpt>
      <trkpt lat="45.4333" lon="6.91565">
        <ele>2598.9</ele>
        <time>2015-08-23T08:36:38Z</time>
      </trkpt>
      <trkpt lat="45.43328" lon="6.91568">
        <ele>2600</ele>
        <time>2015-08-23T08:36:40Z</time>
      </trkpt>
      <trkpt lat="45.43325" lon="6.9157">
        <ele>2601.1</ele>
        <time>2015-08-23T08:36:42Z</time>
      </trkpt>
      <trkpt lat="45.43322" lon="6.91572">
        <ele>2602</ele>
        <time>2015-08-23T08:36:44Z</time>
      </trkpt>
      <trkpt lat="45.43319" lon="6.91573">
        <ele>2602.6</ele>
        <time>2015-08-23T08:36:46Z</time>
      </trkpt>
      <trkpt lat="45.43316" lon="6.91571">
        <ele>2602.8</ele>
        <time>2015-08-23T08:36:49Z</time>
      </trkpt>
      <trkpt lat="45.43313" lon="6.9157">
        <ele>2602.9</ele>
        <time>2015-08-23T08:36:51Z</time>
      </trkpt>
      <trkpt lat="45.4331" lon="6.9157">
        <ele>2603.5</ele>
        <time>2015-08-23T08:36:53Z</time>
      </trkpt>
      <trkpt lat="45.43308" lon="6.91573">
        <ele>2604.4</ele>
        <time>2015-08-23T08:36:57Z</time>
      </trkpt>
      <trkpt lat="45.43304" lon="6.91573">
        <ele>2605</ele>
        <time>2015-08-23T08:37:01Z</time>
      </trkpt>
      <trkpt lat="45.43301" lon="6.91574">
        <ele>2605.4</ele>
        <time>2015-08-23T08:37:03Z</time>
      </trkpt>
      <trkpt lat="45.43298" lon="6.91573">
        <ele>2605.8</ele>
        <time>2015-08-23T08:37:06Z</time>
      </trkpt>
      <trkpt lat="45.43296" lon="6.91571">
        <ele>2605.5</ele>
        <time>2015-08-23T08:37:08Z</time>
      </trkpt>
      <trkpt lat="45.43292" lon="6.91568">
        <ele>2605.3</ele>
        <time>2015-08-23T08:37:10Z</time>
      </trkpt>
      <trkpt lat="45.43288" lon="6.91565">
        <ele>2605.4</ele>
        <time>2015-08-23T08:37:12Z</time>
      </trkpt>
      <trkpt lat="45.43284" lon="6.91565">
        <ele>2605.8</ele>
        <time>2015-08-23T08:37:14Z</time>
      </trkpt>
      <trkpt lat="45.4328" lon="6.91565">
        <ele>2606.3</ele>
        <time>2015-08-23T08:37:16Z</time>
      </trkpt>
      <trkpt lat="45.43276" lon="6.91564">
        <ele>2606.9</ele>
        <time>2015-08-23T08:37:18Z</time>
      </trkpt>
      <trkpt lat="45.43271" lon="6.91564">
        <ele>2607.5</ele>
        <time>2015-08-23T08:37:20Z</time>
      </trkpt>
      <trkpt lat="45.43267" lon="6.91565">
        <ele>2608.1</ele>
        <time>2015-08-23T08:37:22Z</time>
      </trkpt>
      <trkpt lat="45.43262" lon="6.91565">
        <ele>2609</ele>
        <time>2015-08-23T08:37:24Z</time>
      </trkpt>
      <trkpt lat="45.4326" lon="6.91566">
        <ele>2609.6</ele>
        <time>2015-08-23T08:37:25Z</time>
      </trkpt>
      <trkpt lat="45.43255" lon="6.91568">
        <ele>2610.7</ele>
        <time>2015-08-23T08:37:27Z</time>
      </trkpt>
      <trkpt lat="45.43252" lon="6.91569">
        <ele>2611.4</ele>
        <time>2015-08-23T08:37:28Z</time>
      </trkpt>
      <trkpt lat="45.43248" lon="6.9157">
        <ele>2612.4</ele>
        <time>2015-08-23T08:37:30Z</time>
      </trkpt>
      <trkpt lat="45.43245" lon="6.9157">
        <ele>2613.1</ele>
        <time>2015-08-23T08:37:32Z</time>
      </trkpt>
      <trkpt lat="45.43242" lon="6.91571">
        <ele>2613.8</ele>
        <time>2015-08-23T08:37:34Z</time>
      </trkpt>
      <trkpt lat="45.43239" lon="6.91568">
        <ele>2613.5</ele>
        <time>2015-08-23T08:37:36Z</time>
      </trkpt>
      <trkpt lat="45.43236" lon="6.91568">
        <ele>2613.9</ele>
        <time>2015-08-23T08:37:39Z</time>
      </trkpt>
      <trkpt lat="45.43233" lon="6.91567">
        <ele>2614.1</ele>
        <time>2015-08-23T08:37:41Z</time>
      </trkpt>
      <trkpt lat="45.43229" lon="6.91565">
        <ele>2614</ele>
        <time>2015-08-23T08:37:43Z</time>
      </trkpt>
      <trkpt lat="45.43224" lon="6.91561">
        <ele>2613.7</ele>
        <time>2015-08-23T08:37:45Z</time>
      </trkpt>
      <trkpt lat="45.43221" lon="6.91559">
        <ele>2613.4</ele>
        <time>2015-08-23T08:37:46Z</time>
      </trkpt>
      <trkpt lat="45.43216" lon="6.91556">
        <ele>2613</ele>
        <time>2015-08-23T08:37:48Z</time>
      </trkpt>
      <trkpt lat="45.43211" lon="6.91554">
        <ele>2613.2</ele>
        <time>2015-08-23T08:37:50Z</time>
      </trkpt>
      <trkpt lat="45.43207" lon="6.91552">
        <ele>2613.7</ele>
        <time>2015-08-23T08:37:52Z</time>
      </trkpt>
      <trkpt lat="45.43204" lon="6.91551">
        <ele>2613.9</ele>
        <time>2015-08-23T08:37:54Z</time>
      </trkpt>
      <trkpt lat="45.43201" lon="6.91548">
        <ele>2614.1</ele>
        <time>2015-08-23T08:37:56Z</time>
      </trkpt>
      <trkpt lat="45.43198" lon="6.91545">
        <ele>2614.4</ele>
        <time>2015-08-23T08:37:58Z</time>
      </trkpt>
      <trkpt lat="45.43195" lon="6.91544">
        <ele>2614.5</ele>
        <time>2015-08-23T08:37:59Z</time>
      </trkpt>
      <trkpt lat="45.4319" lon="6.91542">
        <ele>2614.6</ele>
        <time>2015-08-23T08:38:01Z</time>
      </trkpt>
      <trkpt lat="45.43187" lon="6.9154">
        <ele>2614.6</ele>
        <time>2015-08-23T08:38:02Z</time>
      </trkpt>
      <trkpt lat="45.43184" lon="6.91539">
        <ele>2614.6</ele>
        <time>2015-08-23T08:38:03Z</time>
      </trkpt>
      <trkpt lat="45.43181" lon="6.91539">
        <ele>2614.7</ele>
        <time>2015-08-23T08:38:04Z</time>
      </trkpt>
      <trkpt lat="45.43178" lon="6.91538">
        <ele>2614.8</ele>
        <time>2015-08-23T08:38:05Z</time>
      </trkpt>
      <trkpt lat="45.43175" lon="6.91538">
        <ele>2614.8</ele>
        <time>2015-08-23T08:38:06Z</time>
      </trkpt>
      <trkpt lat="45.43172" lon="6.91536">
        <ele>2614.9</ele>
        <time>2015-08-23T08:38:08Z</time>
      </trkpt>
      <trkpt lat="45.43172" lon="6.91531">
        <ele>2614.8</ele>
        <time>2015-08-23T08:38:10Z</time>
      </trkpt>
      <trkpt lat="45.43172" lon="6.91524">
        <ele>2615.2</ele>
        <time>2015-08-23T08:38:12Z</time>
      </trkpt>
      <trkpt lat="45.43172" lon="6.91518">
        <ele>2616.1</ele>
        <time>2015-08-23T08:38:14Z</time>
      </trkpt>
      <trkpt lat="45.43171" lon="6.91511">
        <ele>2616.9</ele>
        <time>2015-08-23T08:38:16Z</time>
      </trkpt>
      <trkpt lat="45.43169" lon="6.91506">
        <ele>2617.5</ele>
        <time>2015-08-23T08:38:18Z</time>
      </trkpt>
      <trkpt lat="45.43167" lon="6.91503">
        <ele>2617.7</ele>
        <time>2015-08-23T08:38:20Z</time>
      </trkpt>
      <trkpt lat="45.43164" lon="6.91501">
        <ele>2617.8</ele>
        <time>2015-08-23T08:38:23Z</time>
      </trkpt>
      <trkpt lat="45.43161" lon="6.91499">
        <ele>2618</ele>
        <time>2015-08-23T08:38:24Z</time>
      </trkpt>
      <trkpt lat="45.43159" lon="6.91495">
        <ele>2618.7</ele>
        <time>2015-08-23T08:38:27Z</time>
      </trkpt>
      <trkpt lat="45.43156" lon="6.91494">
        <ele>2618.6</ele>
        <time>2015-08-23T08:38:31Z</time>
      </trkpt>
      <trkpt lat="45.43153" lon="6.91492">
        <ele>2618.8</ele>
        <time>2015-08-23T08:38:33Z</time>
      </trkpt>
      <trkpt lat="45.43151" lon="6.91488">
        <ele>2619.3</ele>
        <time>2015-08-23T08:38:35Z</time>
      </trkpt>
      <trkpt lat="45.4315" lon="6.91484">
        <ele>2619.7</ele>
        <time>2015-08-23T08:38:37Z</time>
      </trkpt>
      <trkpt lat="45.43147" lon="6.91481">
        <ele>2619.9</ele>
        <time>2015-08-23T08:38:40Z</time>
      </trkpt>
      <trkpt lat="45.43143" lon="6.91477">
        <ele>2619.9</ele>
        <time>2015-08-23T08:38:43Z</time>
      </trkpt>
      <trkpt lat="45.43139" lon="6.91474">
        <ele>2619.9</ele>
        <time>2015-08-23T08:38:45Z</time>
      </trkpt>
      <trkpt lat="45.43137" lon="6.9147">
        <ele>2620.5</ele>
        <time>2015-08-23T08:38:46Z</time>
      </trkpt>
      <trkpt lat="45.43134" lon="6.91465">
        <ele>2621.4</ele>
        <time>2015-08-23T08:38:48Z</time>
      </trkpt>
      <trkpt lat="45.43133" lon="6.91458">
        <ele>2622.1</ele>
        <time>2015-08-23T08:38:50Z</time>
      </trkpt>
      <trkpt lat="45.43131" lon="6.91455">
        <ele>2622.5</ele>
        <time>2015-08-23T08:38:52Z</time>
      </trkpt>
      <trkpt lat="45.43129" lon="6.91451">
        <ele>2622.9</ele>
        <time>2015-08-23T08:38:54Z</time>
      </trkpt>
      <trkpt lat="45.43126" lon="6.91447">
        <ele>2623.3</ele>
        <time>2015-08-23T08:38:56Z</time>
      </trkpt>
      <trkpt lat="45.43125" lon="6.9144">
        <ele>2624.2</ele>
        <time>2015-08-23T08:38:58Z</time>
      </trkpt>
      <trkpt lat="45.43127" lon="6.91432">
        <ele>2625.3</ele>
        <time>2015-08-23T08:39:01Z</time>
      </trkpt>
      <trkpt lat="45.43128" lon="6.91425">
        <ele>2626.3</ele>
        <time>2015-08-23T08:39:03Z</time>
      </trkpt>
      <trkpt lat="45.43129" lon="6.9142">
        <ele>2627.1</ele>
        <time>2015-08-23T08:39:05Z</time>
      </trkpt>
      <trkpt lat="45.43129" lon="6.91415">
        <ele>2628.2</ele>
        <time>2015-08-23T08:39:07Z</time>
      </trkpt>
      <trkpt lat="45.43126" lon="6.91413">
        <ele>2628.4</ele>
        <time>2015-08-23T08:39:10Z</time>
      </trkpt>
      <trkpt lat="45.43124" lon="6.91409">
        <ele>2629.3</ele>
        <time>2015-08-23T08:39:14Z</time>
      </trkpt>
      <trkpt lat="45.43123" lon="6.91404">
        <ele>2630.7</ele>
        <time>2015-08-23T08:39:17Z</time>
      </trkpt>
      <trkpt lat="45.43123" lon="6.91399">
        <ele>2631.9</ele>
        <time>2015-08-23T08:39:20Z</time>
      </trkpt>
      <trkpt lat="45.43121" lon="6.91395">
        <ele>2632.7</ele>
        <time>2015-08-23T08:39:25Z</time>
      </trkpt>
      <trkpt lat="45.43118" lon="6.91394">
        <ele>2633</ele>
        <time>2015-08-23T08:39:27Z</time>
      </trkpt>
      <trkpt lat="45.43115" lon="6.91392">
        <ele>2633.4</ele>
        <time>2015-08-23T08:39:29Z</time>
      </trkpt>
      <trkpt lat="45.43112" lon="6.9139">
        <ele>2633.7</ele>
        <time>2015-08-23T08:39:31Z</time>
      </trkpt>
      <trkpt lat="45.4311" lon="6.91387">
        <ele>2634.3</ele>
        <time>2015-08-23T08:39:33Z</time>
      </trkpt>
      <trkpt lat="45.43108" lon="6.91384">
        <ele>2634.8</ele>
        <time>2015-08-23T08:39:35Z</time>
      </trkpt>
      <trkpt lat="45.43105" lon="6.91381">
        <ele>2635.3</ele>
        <time>2015-08-23T08:39:39Z</time>
      </trkpt>
      <trkpt lat="45.43103" lon="6.91378">
        <ele>2635.8</ele>
        <time>2015-08-23T08:39:42Z</time>
      </trkpt>
      <trkpt lat="45.43102" lon="6.91375">
        <ele>2636.4</ele>
        <time>2015-08-23T08:39:44Z</time>
      </trkpt>
      <trkpt lat="45.43103" lon="6.91365">
        <ele>2638.3</ele>
        <time>2015-08-23T08:40:09Z</time>
      </trkpt>
      <trkpt lat="45.43102" lon="6.9136">
        <ele>2639.2</ele>
        <time>2015-08-23T08:40:11Z</time>
      </trkpt>
      <trkpt lat="45.43103" lon="6.91352">
        <ele>2640.6</ele>
        <time>2015-08-23T08:40:13Z</time>
      </trkpt>
      <trkpt lat="45.43104" lon="6.91347">
        <ele>2641.4</ele>
        <time>2015-08-23T08:40:15Z</time>
      </trkpt>
      <trkpt lat="45.43105" lon="6.9134">
        <ele>2642.6</ele>
        <time>2015-08-23T08:40:17Z</time>
      </trkpt>
      <trkpt lat="45.43107" lon="6.91333">
        <ele>2643.6</ele>
        <time>2015-08-23T08:40:19Z</time>
      </trkpt>
      <trkpt lat="45.43109" lon="6.91327">
        <ele>2645.5</ele>
        <time>2015-08-23T08:40:21Z</time>
      </trkpt>
      <trkpt lat="45.43111" lon="6.91322">
        <ele>2646.7</ele>
        <time>2015-08-23T08:40:22Z</time>
      </trkpt>
      <trkpt lat="45.43113" lon="6.91319">
        <ele>2647.8</ele>
        <time>2015-08-23T08:40:23Z</time>
      </trkpt>
      <trkpt lat="45.43115" lon="6.91314">
        <ele>2649.2</ele>
        <time>2015-08-23T08:40:25Z</time>
      </trkpt>
      <trkpt lat="45.43115" lon="6.91311">
        <ele>2650.4</ele>
        <time>2015-08-23T08:40:30Z</time>
      </trkpt>
      <trkpt lat="45.43111" lon="6.91309">
        <ele>2651</ele>
        <time>2015-08-23T08:40:32Z</time>
      </trkpt>
      <trkpt lat="45.43108" lon="6.91308">
        <ele>2651.5</ele>
        <time>2015-08-23T08:40:42Z</time>
      </trkpt>
      <trkpt lat="45.43103" lon="6.91306">
        <ele>2652.7</ele>
        <time>2015-08-23T08:40:46Z</time>
      </trkpt>
      <trkpt lat="45.43102" lon="6.91302">
        <ele>2652.6</ele>
        <time>2015-08-23T08:40:50Z</time>
      </trkpt>
      <trkpt lat="45.43099" lon="6.91301">
        <ele>2653</ele>
        <time>2015-08-23T08:40:57Z</time>
      </trkpt>
      <trkpt lat="45.43096" lon="6.913">
        <ele>2653.4</ele>
        <time>2015-08-23T08:40:59Z</time>
      </trkpt>
      <trkpt lat="45.43091" lon="6.91299">
        <ele>2653.9</ele>
        <time>2015-08-23T08:41:01Z</time>
      </trkpt>
      <trkpt lat="45.43087" lon="6.91298">
        <ele>2654.4</ele>
        <time>2015-08-23T08:41:03Z</time>
      </trkpt>
      <trkpt lat="45.43083" lon="6.91297">
        <ele>2655</ele>
        <time>2015-08-23T08:41:05Z</time>
      </trkpt>
      <trkpt lat="45.43079" lon="6.91296">
        <ele>2655.2</ele>
        <time>2015-08-23T08:41:07Z</time>
      </trkpt>
      <trkpt lat="45.43075" lon="6.91293">
        <ele>2655.3</ele>
        <time>2015-08-23T08:41:09Z</time>
      </trkpt>
      <trkpt lat="45.43072" lon="6.91291">
        <ele>2655.4</ele>
        <time>2015-08-23T08:41:11Z</time>
      </trkpt>
      <trkpt lat="45.43068" lon="6.91289">
        <ele>2655.4</ele>
        <time>2015-08-23T08:41:13Z</time>
      </trkpt>
      <trkpt lat="45.43064" lon="6.91286">
        <ele>2655.4</ele>
        <time>2015-08-23T08:41:15Z</time>
      </trkpt>
      <trkpt lat="45.43059" lon="6.91284">
        <ele>2655.4</ele>
        <time>2015-08-23T08:41:17Z</time>
      </trkpt>
      <trkpt lat="45.43054" lon="6.91283">
        <ele>2655.5</ele>
        <time>2015-08-23T08:41:19Z</time>
      </trkpt>
      <trkpt lat="45.43051" lon="6.91284">
        <ele>2655.7</ele>
        <time>2015-08-23T08:41:20Z</time>
      </trkpt>
      <trkpt lat="45.43047" lon="6.91288">
        <ele>2656.1</ele>
        <time>2015-08-23T08:41:22Z</time>
      </trkpt>
      <trkpt lat="45.43045" lon="6.91291">
        <ele>2656.3</ele>
        <time>2015-08-23T08:41:23Z</time>
      </trkpt>
      <trkpt lat="45.43042" lon="6.91293">
        <ele>2656.5</ele>
        <time>2015-08-23T08:41:24Z</time>
      </trkpt>
      <trkpt lat="45.43039" lon="6.91297">
        <ele>2656.7</ele>
        <time>2015-08-23T08:41:26Z</time>
      </trkpt>
      <trkpt lat="45.43035" lon="6.91299">
        <ele>2656.9</ele>
        <time>2015-08-23T08:41:28Z</time>
      </trkpt>
      <trkpt lat="45.43031" lon="6.91302">
        <ele>2657</ele>
        <time>2015-08-23T08:41:30Z</time>
      </trkpt>
      <trkpt lat="45.43026" lon="6.91304">
        <ele>2657.1</ele>
        <time>2015-08-23T08:41:32Z</time>
      </trkpt>
      <trkpt lat="45.43021" lon="6.91306">
        <ele>2657.2</ele>
        <time>2015-08-23T08:41:34Z</time>
      </trkpt>
      <trkpt lat="45.43016" lon="6.91305">
        <ele>2657.5</ele>
        <time>2015-08-23T08:41:36Z</time>
      </trkpt>
      <trkpt lat="45.43012" lon="6.91304">
        <ele>2657.7</ele>
        <time>2015-08-23T08:41:38Z</time>
      </trkpt>
      <trkpt lat="45.43007" lon="6.91303">
        <ele>2658</ele>
        <time>2015-08-23T08:41:40Z</time>
      </trkpt>
      <trkpt lat="45.43004" lon="6.913">
        <ele>2658.3</ele>
        <time>2015-08-23T08:41:42Z</time>
      </trkpt>
      <trkpt lat="45.43001" lon="6.91298">
        <ele>2658.7</ele>
        <time>2015-08-23T08:41:44Z</time>
      </trkpt>
      <trkpt lat="45.42999" lon="6.91294">
        <ele>2659.4</ele>
        <time>2015-08-23T08:41:46Z</time>
      </trkpt>
      <trkpt lat="45.42996" lon="6.91289">
        <ele>2660.2</ele>
        <time>2015-08-23T08:41:48Z</time>
      </trkpt>
      <trkpt lat="45.42994" lon="6.91283">
        <ele>2661.1</ele>
        <time>2015-08-23T08:41:50Z</time>
      </trkpt>
      <trkpt lat="45.42992" lon="6.91276">
        <ele>2661.7</ele>
        <time>2015-08-23T08:41:52Z</time>
      </trkpt>
      <trkpt lat="45.4299" lon="6.9127">
        <ele>2661.5</ele>
        <time>2015-08-23T08:41:54Z</time>
      </trkpt>
      <trkpt lat="45.42987" lon="6.91265">
        <ele>2661.4</ele>
        <time>2015-08-23T08:41:56Z</time>
      </trkpt>
      <trkpt lat="45.42985" lon="6.91262">
        <ele>2661.6</ele>
        <time>2015-08-23T08:41:58Z</time>
      </trkpt>
      <trkpt lat="45.42981" lon="6.91259">
        <ele>2662</ele>
        <time>2015-08-23T08:42:00Z</time>
      </trkpt>
      <trkpt lat="45.42976" lon="6.91257">
        <ele>2662.6</ele>
        <time>2015-08-23T08:42:02Z</time>
      </trkpt>
      <trkpt lat="45.42972" lon="6.91256">
        <ele>2663.2</ele>
        <time>2015-08-23T08:42:04Z</time>
      </trkpt>
      <trkpt lat="45.4297" lon="6.91254">
        <ele>2663.6</ele>
        <time>2015-08-23T08:42:06Z</time>
      </trkpt>
      <trkpt lat="45.42967" lon="6.91251">
        <ele>2663.8</ele>
        <time>2015-08-23T08:42:09Z</time>
      </trkpt>
      <trkpt lat="45.42965" lon="6.91247">
        <ele>2663.3</ele>
        <time>2015-08-23T08:42:11Z</time>
      </trkpt>
      <trkpt lat="45.42962" lon="6.91243">
        <ele>2663</ele>
        <time>2015-08-23T08:42:13Z</time>
      </trkpt>
      <trkpt lat="45.42958" lon="6.91242">
        <ele>2663.5</ele>
        <time>2015-08-23T08:42:15Z</time>
      </trkpt>
      <trkpt lat="45.42953" lon="6.9124">
        <ele>2664</ele>
        <time>2015-08-23T08:42:17Z</time>
      </trkpt>
      <trkpt lat="45.4295" lon="6.9124">
        <ele>2664.5</ele>
        <time>2015-08-23T08:42:19Z</time>
      </trkpt>
      <trkpt lat="45.42945" lon="6.91239">
        <ele>2665.3</ele>
        <time>2015-08-23T08:42:21Z</time>
      </trkpt>
      <trkpt lat="45.42942" lon="6.91237">
        <ele>2665.7</ele>
        <time>2015-08-23T08:42:23Z</time>
      </trkpt>
      <trkpt lat="45.42939" lon="6.91235">
        <ele>2666</ele>
        <time>2015-08-23T08:42:25Z</time>
      </trkpt>
      <trkpt lat="45.42935" lon="6.91234">
        <ele>2666.6</ele>
        <time>2015-08-23T08:42:27Z</time>
      </trkpt>
      <trkpt lat="45.42932" lon="6.91233">
        <ele>2667.1</ele>
        <time>2015-08-23T08:42:29Z</time>
      </trkpt>
      <trkpt lat="45.42928" lon="6.91232">
        <ele>2667.7</ele>
        <time>2015-08-23T08:42:31Z</time>
      </trkpt>
      <trkpt lat="45.42924" lon="6.91231">
        <ele>2668.4</ele>
        <time>2015-08-23T08:42:33Z</time>
      </trkpt>
      <trkpt lat="45.42919" lon="6.9123">
        <ele>2669.4</ele>
        <time>2015-08-23T08:42:35Z</time>
      </trkpt>
      <trkpt lat="45.42914" lon="6.91229">
        <ele>2670.1</ele>
        <time>2015-08-23T08:42:37Z</time>
      </trkpt>
      <trkpt lat="45.42911" lon="6.91229">
        <ele>2670.4</ele>
        <time>2015-08-23T08:42:38Z</time>
      </trkpt>
      <trkpt lat="45.42907" lon="6.9123">
        <ele>2671</ele>
        <time>2015-08-23T08:42:40Z</time>
      </trkpt>
      <trkpt lat="45.42903" lon="6.9123">
        <ele>2671.3</ele>
        <time>2015-08-23T08:42:42Z</time>
      </trkpt>
      <trkpt lat="45.429" lon="6.91225">
        <ele>2671.5</ele>
        <time>2015-08-23T08:42:45Z</time>
      </trkpt>
      <trkpt lat="45.42898" lon="6.9122">
        <ele>2671.6</ele>
        <time>2015-08-23T08:42:47Z</time>
      </trkpt>
      <trkpt lat="45.42895" lon="6.91214">
        <ele>2671.9</ele>
        <time>2015-08-23T08:42:49Z</time>
      </trkpt>
      <trkpt lat="45.42892" lon="6.9121">
        <ele>2672.2</ele>
        <time>2015-08-23T08:42:51Z</time>
      </trkpt>
      <trkpt lat="45.42888" lon="6.91209">
        <ele>2672.6</ele>
        <time>2015-08-23T08:42:53Z</time>
      </trkpt>
      <trkpt lat="45.42884" lon="6.91209">
        <ele>2673</ele>
        <time>2015-08-23T08:42:55Z</time>
      </trkpt>
      <trkpt lat="45.4288" lon="6.91209">
        <ele>2673.3</ele>
        <time>2015-08-23T08:42:57Z</time>
      </trkpt>
      <trkpt lat="45.42878" lon="6.91206">
        <ele>2673.4</ele>
        <time>2015-08-23T08:42:59Z</time>
      </trkpt>
      <trkpt lat="45.42877" lon="6.912">
        <ele>2673.4</ele>
        <time>2015-08-23T08:43:01Z</time>
      </trkpt>
      <trkpt lat="45.42876" lon="6.91194">
        <ele>2673.4</ele>
        <time>2015-08-23T08:43:03Z</time>
      </trkpt>
      <trkpt lat="45.42875" lon="6.9119">
        <ele>2673.8</ele>
        <time>2015-08-23T08:43:05Z</time>
      </trkpt>
      <trkpt lat="45.42873" lon="6.91187">
        <ele>2674.2</ele>
        <time>2015-08-23T08:43:07Z</time>
      </trkpt>
      <trkpt lat="45.42871" lon="6.91183">
        <ele>2674.7</ele>
        <time>2015-08-23T08:43:09Z</time>
      </trkpt>
      <trkpt lat="45.42869" lon="6.91178">
        <ele>2675.1</ele>
        <time>2015-08-23T08:43:11Z</time>
      </trkpt>
      <trkpt lat="45.42869" lon="6.91171">
        <ele>2675.5</ele>
        <time>2015-08-23T08:43:13Z</time>
      </trkpt>
      <trkpt lat="45.42868" lon="6.91165">
        <ele>2675.8</ele>
        <time>2015-08-23T08:43:15Z</time>
      </trkpt>
      <trkpt lat="45.42867" lon="6.91159">
        <ele>2676</ele>
        <time>2015-08-23T08:43:17Z</time>
      </trkpt>
      <trkpt lat="45.42866" lon="6.91155">
        <ele>2676.2</ele>
        <time>2015-08-23T08:43:19Z</time>
      </trkpt>
      <trkpt lat="45.42863" lon="6.9115">
        <ele>2676.5</ele>
        <time>2015-08-23T08:43:21Z</time>
      </trkpt>
      <trkpt lat="45.42861" lon="6.91146">
        <ele>2676.9</ele>
        <time>2015-08-23T08:43:23Z</time>
      </trkpt>
      <trkpt lat="45.42858" lon="6.91143">
        <ele>2677.7</ele>
        <time>2015-08-23T08:43:25Z</time>
      </trkpt>
      <trkpt lat="45.42856" lon="6.91139">
        <ele>2678.3</ele>
        <time>2015-08-23T08:43:27Z</time>
      </trkpt>
      <trkpt lat="45.42854" lon="6.91135">
        <ele>2678.9</ele>
        <time>2015-08-23T08:43:29Z</time>
      </trkpt>
      <trkpt lat="45.42853" lon="6.91131">
        <ele>2679.5</ele>
        <time>2015-08-23T08:43:31Z</time>
      </trkpt>
      <trkpt lat="45.4285" lon="6.91128">
        <ele>2680.2</ele>
        <time>2015-08-23T08:43:33Z</time>
      </trkpt>
      <trkpt lat="45.42847" lon="6.91125">
        <ele>2681</ele>
        <time>2015-08-23T08:43:36Z</time>
      </trkpt>
      <trkpt lat="45.42845" lon="6.91121">
        <ele>2681.6</ele>
        <time>2015-08-23T08:43:38Z</time>
      </trkpt>
      <trkpt lat="45.42843" lon="6.91117">
        <ele>2682.1</ele>
        <time>2015-08-23T08:43:40Z</time>
      </trkpt>
      <trkpt lat="45.42842" lon="6.91113">
        <ele>2682.4</ele>
        <time>2015-08-23T08:43:42Z</time>
      </trkpt>
      <trkpt lat="45.42842" lon="6.91108">
        <ele>2683</ele>
        <time>2015-08-23T08:43:44Z</time>
      </trkpt>
      <trkpt lat="45.42841" lon="6.91102">
        <ele>2684</ele>
        <time>2015-08-23T08:43:46Z</time>
      </trkpt>
      <trkpt lat="45.4284" lon="6.91097">
        <ele>2684.7</ele>
        <time>2015-08-23T08:43:48Z</time>
      </trkpt>
      <trkpt lat="45.42839" lon="6.91094">
        <ele>2685.4</ele>
        <time>2015-08-23T08:43:51Z</time>
      </trkpt>
      <trkpt lat="45.42837" lon="6.91089">
        <ele>2686.1</ele>
        <time>2015-08-23T08:43:54Z</time>
      </trkpt>
      <trkpt lat="45.42837" lon="6.91085">
        <ele>2686.7</ele>
        <time>2015-08-23T08:43:56Z</time>
      </trkpt>
      <trkpt lat="45.42839" lon="6.9108">
        <ele>2688</ele>
        <time>2015-08-23T08:43:58Z</time>
      </trkpt>
      <trkpt lat="45.42842" lon="6.91079">
        <ele>2688.2</ele>
        <time>2015-08-23T08:43:59Z</time>
      </trkpt>
      <trkpt lat="45.42846" lon="6.91075">
        <ele>2688.8</ele>
        <time>2015-08-23T08:44:01Z</time>
      </trkpt>
      <trkpt lat="45.42845" lon="6.91072">
        <ele>2690</ele>
        <time>2015-08-23T08:44:07Z</time>
      </trkpt>
      <trkpt lat="45.42843" lon="6.9107">
        <ele>2690.7</ele>
        <time>2015-08-23T08:44:10Z</time>
      </trkpt>
      <trkpt lat="45.42843" lon="6.91065">
        <ele>2692.2</ele>
        <time>2015-08-23T08:44:14Z</time>
      </trkpt>
      <trkpt lat="45.42845" lon="6.91062">
        <ele>2692.9</ele>
        <time>2015-08-23T08:44:15Z</time>
      </trkpt>
      <trkpt lat="45.42846" lon="6.91057">
        <ele>2694.1</ele>
        <time>2015-08-23T08:44:19Z</time>
      </trkpt>
      <trkpt lat="45.42842" lon="6.91054">
        <ele>2695.5</ele>
        <time>2015-08-23T08:44:23Z</time>
      </trkpt>
      <trkpt lat="45.42838" lon="6.91053">
        <ele>2696.5</ele>
        <time>2015-08-23T08:44:26Z</time>
      </trkpt>
      <trkpt lat="45.42835" lon="6.91052">
        <ele>2697.4</ele>
        <time>2015-08-23T08:44:29Z</time>
      </trkpt>
      <trkpt lat="45.42833" lon="6.91048">
        <ele>2697.5</ele>
        <time>2015-08-23T08:44:41Z</time>
      </trkpt>
      <trkpt lat="45.42831" lon="6.91045">
        <ele>2697.4</ele>
        <time>2015-08-23T08:44:44Z</time>
      </trkpt>
      <trkpt lat="45.42828" lon="6.91044">
        <ele>2697.6</ele>
        <time>2015-08-23T08:44:48Z</time>
      </trkpt>
      <trkpt lat="45.42824" lon="6.91043">
        <ele>2697.9</ele>
        <time>2015-08-23T08:44:51Z</time>
      </trkpt>
      <trkpt lat="45.4282" lon="6.91042">
        <ele>2698.2</ele>
        <time>2015-08-23T08:44:53Z</time>
      </trkpt>
      <trkpt lat="45.42817" lon="6.91041">
        <ele>2698.4</ele>
        <time>2015-08-23T08:44:55Z</time>
      </trkpt>
      <trkpt lat="45.42814" lon="6.9104">
        <ele>2698.7</ele>
        <time>2015-08-23T08:44:58Z</time>
      </trkpt>
      <trkpt lat="45.42811" lon="6.91038">
        <ele>2699.1</ele>
        <time>2015-08-23T08:45:01Z</time>
      </trkpt>
      <trkpt lat="45.42808" lon="6.91036">
        <ele>2699.4</ele>
        <time>2015-08-23T08:45:03Z</time>
      </trkpt>
      <trkpt lat="45.42805" lon="6.91035">
        <ele>2699.9</ele>
        <time>2015-08-23T08:45:05Z</time>
      </trkpt>
      <trkpt lat="45.42801" lon="6.91035">
        <ele>2700.5</ele>
        <time>2015-08-23T08:45:07Z</time>
      </trkpt>
      <trkpt lat="45.42798" lon="6.91034">
        <ele>2701.1</ele>
        <time>2015-08-23T08:45:09Z</time>
      </trkpt>
      <trkpt lat="45.42794" lon="6.91035">
        <ele>2701.7</ele>
        <time>2015-08-23T08:45:11Z</time>
      </trkpt>
      <trkpt lat="45.42791" lon="6.91033">
        <ele>2702.4</ele>
        <time>2015-08-23T08:45:13Z</time>
      </trkpt>
      <trkpt lat="45.42787" lon="6.9103">
        <ele>2703.2</ele>
        <time>2015-08-23T08:45:15Z</time>
      </trkpt>
      <trkpt lat="45.42783" lon="6.91027">
        <ele>2703.8</ele>
        <time>2015-08-23T08:45:17Z</time>
      </trkpt>
      <trkpt lat="45.4278" lon="6.91025">
        <ele>2704.1</ele>
        <time>2015-08-23T08:45:19Z</time>
      </trkpt>
      <trkpt lat="45.42776" lon="6.91023">
        <ele>2704.4</ele>
        <time>2015-08-23T08:45:21Z</time>
      </trkpt>
      <trkpt lat="45.42773" lon="6.91022">
        <ele>2704.5</ele>
        <time>2015-08-23T08:45:23Z</time>
      </trkpt>
      <trkpt lat="45.4277" lon="6.9102">
        <ele>2704.5</ele>
        <time>2015-08-23T08:45:25Z</time>
      </trkpt>
      <trkpt lat="45.42766" lon="6.9102">
        <ele>2704.9</ele>
        <time>2015-08-23T08:45:28Z</time>
      </trkpt>
      <trkpt lat="45.42764" lon="6.91021">
        <ele>2705.6</ele>
        <time>2015-08-23T08:45:31Z</time>
      </trkpt>
      <trkpt lat="45.42761" lon="6.91024">
        <ele>2706.5</ele>
        <time>2015-08-23T08:45:35Z</time>
      </trkpt>
      <trkpt lat="45.42759" lon="6.91027">
        <ele>2707.5</ele>
        <time>2015-08-23T08:45:37Z</time>
      </trkpt>
      <trkpt lat="45.42755" lon="6.9103">
        <ele>2708.2</ele>
        <time>2015-08-23T08:45:39Z</time>
      </trkpt>
      <trkpt lat="45.42751" lon="6.91031">
        <ele>2708.8</ele>
        <time>2015-08-23T08:45:41Z</time>
      </trkpt>
      <trkpt lat="45.42748" lon="6.91031">
        <ele>2709</ele>
        <time>2015-08-23T08:45:43Z</time>
      </trkpt>
      <trkpt lat="45.42745" lon="6.91031">
        <ele>2709.1</ele>
        <time>2015-08-23T08:45:45Z</time>
      </trkpt>
      <trkpt lat="45.42739" lon="6.9103">
        <ele>2709.1</ele>
        <time>2015-08-23T08:45:47Z</time>
      </trkpt>
      <trkpt lat="45.42735" lon="6.91028">
        <ele>2709</ele>
        <time>2015-08-23T08:45:49Z</time>
      </trkpt>
      <trkpt lat="45.42731" lon="6.91026">
        <ele>2708.5</ele>
        <time>2015-08-23T08:45:51Z</time>
      </trkpt>
      <trkpt lat="45.42729" lon="6.91025">
        <ele>2708.3</ele>
        <time>2015-08-23T08:45:55Z</time>
      </trkpt>
      <trkpt lat="45.42725" lon="6.91028">
        <ele>2709</ele>
        <time>2015-08-23T08:45:58Z</time>
      </trkpt>
      <trkpt lat="45.4272" lon="6.9103">
        <ele>2709.4</ele>
        <time>2015-08-23T08:46:00Z</time>
      </trkpt>
      <trkpt lat="45.42714" lon="6.9103">
        <ele>2710</ele>
        <time>2015-08-23T08:46:02Z</time>
      </trkpt>
      <trkpt lat="45.4271" lon="6.9103">
        <ele>2710.3</ele>
        <time>2015-08-23T08:46:03Z</time>
      </trkpt>
      <trkpt lat="45.42704" lon="6.91029">
        <ele>2710.6</ele>
        <time>2015-08-23T08:46:05Z</time>
      </trkpt>
      <trkpt lat="45.427" lon="6.91029">
        <ele>2710.9</ele>
        <time>2015-08-23T08:46:06Z</time>
      </trkpt>
      <trkpt lat="45.42697" lon="6.91029">
        <ele>2711</ele>
        <time>2015-08-23T08:46:07Z</time>
      </trkpt>
      <trkpt lat="45.42694" lon="6.91029">
        <ele>2711.2</ele>
        <time>2015-08-23T08:46:08Z</time>
      </trkpt>
      <trkpt lat="45.42689" lon="6.91029">
        <ele>2711.5</ele>
        <time>2015-08-23T08:46:10Z</time>
      </trkpt>
      <trkpt lat="45.42685" lon="6.91028">
        <ele>2711.5</ele>
        <time>2015-08-23T08:46:12Z</time>
      </trkpt>
      <trkpt lat="45.4268" lon="6.91028">
        <ele>2711.5</ele>
        <time>2015-08-23T08:46:14Z</time>
      </trkpt>
      <trkpt lat="45.42677" lon="6.91028">
        <ele>2711.6</ele>
        <time>2015-08-23T08:46:16Z</time>
      </trkpt>
      <trkpt lat="45.42673" lon="6.91028">
        <ele>2711.8</ele>
        <time>2015-08-23T08:46:18Z</time>
      </trkpt>
      <trkpt lat="45.42669" lon="6.91027">
        <ele>2712</ele>
        <time>2015-08-23T08:46:20Z</time>
      </trkpt>
      <trkpt lat="45.42665" lon="6.91025">
        <ele>2712.2</ele>
        <time>2015-08-23T08:46:22Z</time>
      </trkpt>
      <trkpt lat="45.42661" lon="6.91021">
        <ele>2712.6</ele>
        <time>2015-08-23T08:46:25Z</time>
      </trkpt>
      <trkpt lat="45.42659" lon="6.91015">
        <ele>2713.1</ele>
        <time>2015-08-23T08:46:26Z</time>
      </trkpt>
      <trkpt lat="45.42657" lon="6.91009">
        <ele>2713.5</ele>
        <time>2015-08-23T08:46:28Z</time>
      </trkpt>
      <trkpt lat="45.42655" lon="6.91007">
        <ele>2713.6</ele>
        <time>2015-08-23T08:46:30Z</time>
      </trkpt>
      <trkpt lat="45.42651" lon="6.91004">
        <ele>2713.8</ele>
        <time>2015-08-23T08:46:33Z</time>
      </trkpt>
      <trkpt lat="45.42654" lon="6.90999">
        <ele>2714</ele>
        <time>2015-08-23T08:46:37Z</time>
      </trkpt>
      <trkpt lat="45.42653" lon="6.90993">
        <ele>2714.2</ele>
        <time>2015-08-23T08:46:39Z</time>
      </trkpt>
      <trkpt lat="45.42652" lon="6.9099">
        <ele>2714.4</ele>
        <time>2015-08-23T08:46:40Z</time>
      </trkpt>
      <trkpt lat="45.4265" lon="6.90986">
        <ele>2714.6</ele>
        <time>2015-08-23T08:46:41Z</time>
      </trkpt>
      <trkpt lat="45.42648" lon="6.90983">
        <ele>2714.8</ele>
        <time>2015-08-23T08:46:42Z</time>
      </trkpt>
      <trkpt lat="45.42645" lon="6.9098">
        <ele>2715.1</ele>
        <time>2015-08-23T08:46:43Z</time>
      </trkpt>
      <trkpt lat="45.42643" lon="6.90977">
        <ele>2715.4</ele>
        <time>2015-08-23T08:46:44Z</time>
      </trkpt>
      <trkpt lat="45.42641" lon="6.90974">
        <ele>2715.7</ele>
        <time>2015-08-23T08:46:45Z</time>
      </trkpt>
      <trkpt lat="45.42638" lon="6.90972">
        <ele>2716.1</ele>
        <time>2015-08-23T08:46:46Z</time>
      </trkpt>
      <trkpt lat="45.42636" lon="6.9097">
        <ele>2716.6</ele>
        <time>2015-08-23T08:46:47Z</time>
      </trkpt>
      <trkpt lat="45.42632" lon="6.90964">
        <ele>2717.8</ele>
        <time>2015-08-23T08:46:49Z</time>
      </trkpt>
      <trkpt lat="45.4263" lon="6.90961">
        <ele>2718.4</ele>
        <time>2015-08-23T08:46:50Z</time>
      </trkpt>
      <trkpt lat="45.42628" lon="6.90957">
        <ele>2719</ele>
        <time>2015-08-23T08:46:51Z</time>
      </trkpt>
      <trkpt lat="45.42626" lon="6.90952">
        <ele>2719.8</ele>
        <time>2015-08-23T08:46:53Z</time>
      </trkpt>
      <trkpt lat="45.42623" lon="6.90947">
        <ele>2720.3</ele>
        <time>2015-08-23T08:46:55Z</time>
      </trkpt>
      <trkpt lat="45.42619" lon="6.90942">
        <ele>2720.9</ele>
        <time>2015-08-23T08:46:57Z</time>
      </trkpt>
      <trkpt lat="45.42617" lon="6.9094">
        <ele>2720.8</ele>
        <time>2015-08-23T08:46:59Z</time>
      </trkpt>
      <trkpt lat="45.42615" lon="6.90946">
        <ele>2719.3</ele>
        <time>2015-08-23T08:47:01Z</time>
      </trkpt>
      <trkpt lat="45.42612" lon="6.90943">
        <ele>2719.4</ele>
        <time>2015-08-23T08:47:06Z</time>
      </trkpt>
      <trkpt lat="45.4261" lon="6.9094">
        <ele>2720.2</ele>
        <time>2015-08-23T08:47:08Z</time>
      </trkpt>
      <trkpt lat="45.42607" lon="6.90935">
        <ele>2721.4</ele>
        <time>2015-08-23T08:47:10Z</time>
      </trkpt>
      <trkpt lat="45.42604" lon="6.90933">
        <ele>2721.8</ele>
        <time>2015-08-23T08:47:14Z</time>
      </trkpt>
      <trkpt lat="45.42601" lon="6.90933">
        <ele>2721.9</ele>
        <time>2015-08-23T08:47:19Z</time>
      </trkpt>
      <trkpt lat="45.42599" lon="6.9093">
        <ele>2722.4</ele>
        <time>2015-08-23T08:47:22Z</time>
      </trkpt>
      <trkpt lat="45.42596" lon="6.90926">
        <ele>2723.1</ele>
        <time>2015-08-23T08:47:25Z</time>
      </trkpt>
      <trkpt lat="45.42593" lon="6.90923">
        <ele>2723.6</ele>
        <time>2015-08-23T08:47:27Z</time>
      </trkpt>
      <trkpt lat="45.42592" lon="6.90918">
        <ele>2724.3</ele>
        <time>2015-08-23T08:47:28Z</time>
      </trkpt>
      <trkpt lat="45.42589" lon="6.90914">
        <ele>2724.9</ele>
        <time>2015-08-23T08:47:30Z</time>
      </trkpt>
      <trkpt lat="45.42586" lon="6.90914">
        <ele>2724.7</ele>
        <time>2015-08-23T08:47:34Z</time>
      </trkpt>
      <trkpt lat="45.42583" lon="6.90912">
        <ele>2724.8</ele>
        <time>2015-08-23T08:47:35Z</time>
      </trkpt>
      <trkpt lat="45.4258" lon="6.90908">
        <ele>2725.6</ele>
        <time>2015-08-23T08:47:37Z</time>
      </trkpt>
      <trkpt lat="45.42577" lon="6.90903">
        <ele>2726.7</ele>
        <time>2015-08-23T08:47:39Z</time>
      </trkpt>
      <trkpt lat="45.42575" lon="6.90898">
        <ele>2727.8</ele>
        <time>2015-08-23T08:47:41Z</time>
      </trkpt>
      <trkpt lat="45.42572" lon="6.90893">
        <ele>2728.6</ele>
        <time>2015-08-23T08:47:43Z</time>
      </trkpt>
      <trkpt lat="45.42571" lon="6.90888">
        <ele>2729.5</ele>
        <time>2015-08-23T08:47:45Z</time>
      </trkpt>
      <trkpt lat="45.42571" lon="6.90883">
        <ele>2730.1</ele>
        <time>2015-08-23T08:47:50Z</time>
      </trkpt>
      <trkpt lat="45.4257" lon="6.90877">
        <ele>2730.8</ele>
        <time>2015-08-23T08:47:53Z</time>
      </trkpt>
      <trkpt lat="45.42569" lon="6.90873">
        <ele>2731.3</ele>
        <time>2015-08-23T08:47:55Z</time>
      </trkpt>
      <trkpt lat="45.42568" lon="6.90867">
        <ele>2731.9</ele>
        <time>2015-08-23T08:47:57Z</time>
      </trkpt>
      <trkpt lat="45.42566" lon="6.90863">
        <ele>2732.4</ele>
        <time>2015-08-23T08:47:59Z</time>
      </trkpt>
      <trkpt lat="45.42563" lon="6.9086">
        <ele>2732.7</ele>
        <time>2015-08-23T08:48:02Z</time>
      </trkpt>
      <trkpt lat="45.42561" lon="6.90858">
        <ele>2732.6</ele>
        <time>2015-08-23T08:48:05Z</time>
      </trkpt>
      <trkpt lat="45.42557" lon="6.90856">
        <ele>2732.4</ele>
        <time>2015-08-23T08:48:08Z</time>
      </trkpt>
      <trkpt lat="45.42554" lon="6.90854">
        <ele>2732.6</ele>
        <time>2015-08-23T08:48:11Z</time>
      </trkpt>
      <trkpt lat="45.42551" lon="6.90853">
        <ele>2733</ele>
        <time>2015-08-23T08:48:13Z</time>
      </trkpt>
      <trkpt lat="45.42547" lon="6.90854">
        <ele>2733.8</ele>
        <time>2015-08-23T08:48:16Z</time>
      </trkpt>
      <trkpt lat="45.42544" lon="6.90854">
        <ele>2734.4</ele>
        <time>2015-08-23T08:48:18Z</time>
      </trkpt>
      <trkpt lat="45.42541" lon="6.90854">
        <ele>2734.9</ele>
        <time>2015-08-23T08:48:20Z</time>
      </trkpt>
      <trkpt lat="45.42537" lon="6.90856">
        <ele>2735.6</ele>
        <time>2015-08-23T08:48:23Z</time>
      </trkpt>
      <trkpt lat="45.42534" lon="6.90858">
        <ele>2736.1</ele>
        <time>2015-08-23T08:48:27Z</time>
      </trkpt>
      <trkpt lat="45.42531" lon="6.90856">
        <ele>2736.6</ele>
        <time>2015-08-23T08:48:29Z</time>
      </trkpt>
      <trkpt lat="45.42529" lon="6.90855">
        <ele>2737.1</ele>
        <time>2015-08-23T08:48:30Z</time>
      </trkpt>
      <trkpt lat="45.42526" lon="6.90853">
        <ele>2737.6</ele>
        <time>2015-08-23T08:48:31Z</time>
      </trkpt>
      <trkpt lat="45.42521" lon="6.90849">
        <ele>2738.7</ele>
        <time>2015-08-23T08:48:33Z</time>
      </trkpt>
      <trkpt lat="45.42518" lon="6.90843">
        <ele>2739.7</ele>
        <time>2015-08-23T08:48:35Z</time>
      </trkpt>
      <trkpt lat="45.42515" lon="6.9084">
        <ele>2740.6</ele>
        <time>2015-08-23T08:48:37Z</time>
      </trkpt>
      <trkpt lat="45.42512" lon="6.90835">
        <ele>2741.7</ele>
        <time>2015-08-23T08:48:39Z</time>
      </trkpt>
      <trkpt lat="45.42509" lon="6.90831">
        <ele>2742.6</ele>
        <time>2015-08-23T08:48:41Z</time>
      </trkpt>
      <trkpt lat="45.42505" lon="6.90827">
        <ele>2743.5</ele>
        <time>2015-08-23T08:48:43Z</time>
      </trkpt>
      <trkpt lat="45.42501" lon="6.90825">
        <ele>2744.8</ele>
        <time>2015-08-23T08:48:45Z</time>
      </trkpt>
      <trkpt lat="45.42497" lon="6.90827">
        <ele>2745.7</ele>
        <time>2015-08-23T08:48:47Z</time>
      </trkpt>
      <trkpt lat="45.42492" lon="6.90828">
        <ele>2746.6</ele>
        <time>2015-08-23T08:48:49Z</time>
      </trkpt>
      <trkpt lat="45.42487" lon="6.90828">
        <ele>2747.7</ele>
        <time>2015-08-23T08:48:51Z</time>
      </trkpt>
      <trkpt lat="45.42482" lon="6.90828">
        <ele>2748.7</ele>
        <time>2015-08-23T08:48:53Z</time>
      </trkpt>
      <trkpt lat="45.42479" lon="6.9083">
        <ele>2748.9</ele>
        <time>2015-08-23T08:48:55Z</time>
      </trkpt>
      <trkpt lat="45.42476" lon="6.90832">
        <ele>2748.7</ele>
        <time>2015-08-23T08:48:58Z</time>
      </trkpt>
      <trkpt lat="45.42478" lon="6.90836">
        <ele>2747.6</ele>
        <time>2015-08-23T08:49:03Z</time>
      </trkpt>
      <trkpt lat="45.42471" lon="6.90834">
        <ele>2748.9</ele>
        <time>2015-08-23T08:49:06Z</time>
      </trkpt>
      <trkpt lat="45.42468" lon="6.90832">
        <ele>2749.3</ele>
        <time>2015-08-23T08:49:07Z</time>
      </trkpt>
      <trkpt lat="45.42464" lon="6.9083">
        <ele>2749.8</ele>
        <time>2015-08-23T08:49:09Z</time>
      </trkpt>
      <trkpt lat="45.4246" lon="6.90828">
        <ele>2749.9</ele>
        <time>2015-08-23T08:49:12Z</time>
      </trkpt>
      <trkpt lat="45.42457" lon="6.90826">
        <ele>2750</ele>
        <time>2015-08-23T08:49:17Z</time>
      </trkpt>
      <trkpt lat="45.42454" lon="6.90825">
        <ele>2749.7</ele>
        <time>2015-08-23T08:49:19Z</time>
      </trkpt>
      <trkpt lat="45.4245" lon="6.90823">
        <ele>2749.4</ele>
        <time>2015-08-23T08:49:21Z</time>
      </trkpt>
      <trkpt lat="45.42447" lon="6.90818">
        <ele>2749</ele>
        <time>2015-08-23T08:49:23Z</time>
      </trkpt>
      <trkpt lat="45.42444" lon="6.90812">
        <ele>2748.2</ele>
        <time>2015-08-23T08:49:25Z</time>
      </trkpt>
      <trkpt lat="45.42442" lon="6.90806">
        <ele>2747.3</ele>
        <time>2015-08-23T08:49:27Z</time>
      </trkpt>
      <trkpt lat="45.4244" lon="6.90801">
        <ele>2747.4</ele>
        <time>2015-08-23T08:49:29Z</time>
      </trkpt>
      <trkpt lat="45.42436" lon="6.90797">
        <ele>2747</ele>
        <time>2015-08-23T08:49:31Z</time>
      </trkpt>
      <trkpt lat="45.42432" lon="6.90792">
        <ele>2746.6</ele>
        <time>2015-08-23T08:49:33Z</time>
      </trkpt>
      <trkpt lat="45.4243" lon="6.90787">
        <ele>2746.6</ele>
        <time>2015-08-23T08:49:35Z</time>
      </trkpt>
      <trkpt lat="45.42428" lon="6.90781">
        <ele>2747.1</ele>
        <time>2015-08-23T08:49:37Z</time>
      </trkpt>
      <trkpt lat="45.42426" lon="6.90775">
        <ele>2747</ele>
        <time>2015-08-23T08:49:39Z</time>
      </trkpt>
      <trkpt lat="45.42424" lon="6.9077">
        <ele>2746.8</ele>
        <time>2015-08-23T08:49:41Z</time>
      </trkpt>
      <trkpt lat="45.42422" lon="6.90765">
        <ele>2746.4</ele>
        <time>2015-08-23T08:49:43Z</time>
      </trkpt>
      <trkpt lat="45.4242" lon="6.90759">
        <ele>2746.4</ele>
        <time>2015-08-23T08:49:45Z</time>
      </trkpt>
      <trkpt lat="45.42419" lon="6.90754">
        <ele>2746.2</ele>
        <time>2015-08-23T08:49:47Z</time>
      </trkpt>
      <trkpt lat="45.42418" lon="6.9075">
        <ele>2746.3</ele>
        <time>2015-08-23T08:49:49Z</time>
      </trkpt>
      <trkpt lat="45.42416" lon="6.90746">
        <ele>2745.8</ele>
        <time>2015-08-23T08:49:52Z</time>
      </trkpt>
      <trkpt lat="45.42414" lon="6.90742">
        <ele>2745.5</ele>
        <time>2015-08-23T08:49:53Z</time>
      </trkpt>
      <trkpt lat="45.42412" lon="6.90739">
        <ele>2744.9</ele>
        <time>2015-08-23T08:49:54Z</time>
      </trkpt>
      <trkpt lat="45.42409" lon="6.90735">
        <ele>2744.4</ele>
        <time>2015-08-23T08:49:55Z</time>
      </trkpt>
      <trkpt lat="45.42408" lon="6.90731">
        <ele>2744.1</ele>
        <time>2015-08-23T08:49:56Z</time>
      </trkpt>
      <trkpt lat="45.42404" lon="6.90726">
        <ele>2743.6</ele>
        <time>2015-08-23T08:49:57Z</time>
      </trkpt>
      <trkpt lat="45.424" lon="6.9072">
        <ele>2742.8</ele>
        <time>2015-08-23T08:49:58Z</time>
      </trkpt>
      <trkpt lat="45.42397" lon="6.90716">
        <ele>2742.2</ele>
        <time>2015-08-23T08:49:59Z</time>
      </trkpt>
      <trkpt lat="45.42394" lon="6.90712">
        <ele>2741.7</ele>
        <time>2015-08-23T08:50:00Z</time>
      </trkpt>
      <trkpt lat="45.42391" lon="6.90708">
        <ele>2741.3</ele>
        <time>2015-08-23T08:50:01Z</time>
      </trkpt>
      <trkpt lat="45.42389" lon="6.90705">
        <ele>2740.9</ele>
        <time>2015-08-23T08:50:02Z</time>
      </trkpt>
      <trkpt lat="45.42386" lon="6.90702">
        <ele>2740.6</ele>
        <time>2015-08-23T08:50:03Z</time>
      </trkpt>
      <trkpt lat="45.42383" lon="6.90699">
        <ele>2740.3</ele>
        <time>2015-08-23T08:50:04Z</time>
      </trkpt>
      <trkpt lat="45.4238" lon="6.90697">
        <ele>2740</ele>
        <time>2015-08-23T08:50:05Z</time>
      </trkpt>
      <trkpt lat="45.42378" lon="6.90694">
        <ele>2739.8</ele>
        <time>2015-08-23T08:50:06Z</time>
      </trkpt>
      <trkpt lat="45.42375" lon="6.90692">
        <ele>2739.6</ele>
        <time>2015-08-23T08:50:07Z</time>
      </trkpt>
      <trkpt lat="45.42372" lon="6.90689">
        <ele>2739.4</ele>
        <time>2015-08-23T08:50:08Z</time>
      </trkpt>
      <trkpt lat="45.4237" lon="6.90688">
        <ele>2739.3</ele>
        <time>2015-08-23T08:50:09Z</time>
      </trkpt>
      <trkpt lat="45.42365" lon="6.90685">
        <ele>2739</ele>
        <time>2015-08-23T08:50:11Z</time>
      </trkpt>
      <trkpt lat="45.4236" lon="6.90681">
        <ele>2738.9</ele>
        <time>2015-08-23T08:50:13Z</time>
      </trkpt>
      <trkpt lat="45.42356" lon="6.90678">
        <ele>2738.5</ele>
        <time>2015-08-23T08:50:15Z</time>
      </trkpt>
      <trkpt lat="45.42354" lon="6.90676">
        <ele>2738.3</ele>
        <time>2015-08-23T08:50:16Z</time>
      </trkpt>
      <trkpt lat="45.42351" lon="6.90674">
        <ele>2738.1</ele>
        <time>2015-08-23T08:50:17Z</time>
      </trkpt>
      <trkpt lat="45.42349" lon="6.90671">
        <ele>2737.9</ele>
        <time>2015-08-23T08:50:18Z</time>
      </trkpt>
      <trkpt lat="45.42346" lon="6.90669">
        <ele>2737.7</ele>
        <time>2015-08-23T08:50:19Z</time>
      </trkpt>
      <trkpt lat="45.42344" lon="6.90667">
        <ele>2737.5</ele>
        <time>2015-08-23T08:50:20Z</time>
      </trkpt>
      <trkpt lat="45.42341" lon="6.90664">
        <ele>2737.2</ele>
        <time>2015-08-23T08:50:21Z</time>
      </trkpt>
      <trkpt lat="45.42338" lon="6.90661">
        <ele>2736.9</ele>
        <time>2015-08-23T08:50:22Z</time>
      </trkpt>
      <trkpt lat="45.42336" lon="6.90658">
        <ele>2736.6</ele>
        <time>2015-08-23T08:50:23Z</time>
      </trkpt>
      <trkpt lat="45.42333" lon="6.90655">
        <ele>2736.4</ele>
        <time>2015-08-23T08:50:24Z</time>
      </trkpt>
      <trkpt lat="45.42331" lon="6.90652">
        <ele>2736.5</ele>
        <time>2015-08-23T08:50:25Z</time>
      </trkpt>
      <trkpt lat="45.42328" lon="6.90649">
        <ele>2736.5</ele>
        <time>2015-08-23T08:50:26Z</time>
      </trkpt>
      <trkpt lat="45.42327" lon="6.90646">
        <ele>2736.6</ele>
        <time>2015-08-23T08:50:27Z</time>
      </trkpt>
      <trkpt lat="45.42325" lon="6.90643">
        <ele>2736.6</ele>
        <time>2015-08-23T08:50:28Z</time>
      </trkpt>
      <trkpt lat="45.42322" lon="6.9064">
        <ele>2736.6</ele>
        <time>2015-08-23T08:50:29Z</time>
      </trkpt>
      <trkpt lat="45.4232" lon="6.90638">
        <ele>2736.5</ele>
        <time>2015-08-23T08:50:30Z</time>
      </trkpt>
      <trkpt lat="45.42318" lon="6.90635">
        <ele>2736.5</ele>
        <time>2015-08-23T08:50:31Z</time>
      </trkpt>
      <trkpt lat="45.42313" lon="6.90631">
        <ele>2736.6</ele>
        <time>2015-08-23T08:50:33Z</time>
      </trkpt>
      <trkpt lat="45.4231" lon="6.90629">
        <ele>2736.7</ele>
        <time>2015-08-23T08:50:34Z</time>
      </trkpt>
      <trkpt lat="45.42308" lon="6.90626">
        <ele>2736.9</ele>
        <time>2015-08-23T08:50:35Z</time>
      </trkpt>
      <trkpt lat="45.42305" lon="6.90624">
        <ele>2737.1</ele>
        <time>2015-08-23T08:50:36Z</time>
      </trkpt>
      <trkpt lat="45.42303" lon="6.90621">
        <ele>2736.9</ele>
        <time>2015-08-23T08:50:37Z</time>
      </trkpt>
      <trkpt lat="45.42301" lon="6.90619">
        <ele>2736.7</ele>
        <time>2015-08-23T08:50:38Z</time>
      </trkpt>
      <trkpt lat="45.42297" lon="6.90614">
        <ele>2736.4</ele>
        <time>2015-08-23T08:50:40Z</time>
      </trkpt>
      <trkpt lat="45.42295" lon="6.9061">
        <ele>2736</ele>
        <time>2015-08-23T08:50:42Z</time>
      </trkpt>
      <trkpt lat="45.42292" lon="6.90608">
        <ele>2735.5</ele>
        <time>2015-08-23T08:50:44Z</time>
      </trkpt>
      <trkpt lat="45.42289" lon="6.90605">
        <ele>2735.1</ele>
        <time>2015-08-23T08:50:46Z</time>
      </trkpt>
      <trkpt lat="45.42286" lon="6.90602">
        <ele>2734.7</ele>
        <time>2015-08-23T08:50:48Z</time>
      </trkpt>
      <trkpt lat="45.42284" lon="6.90599">
        <ele>2734.5</ele>
        <time>2015-08-23T08:50:49Z</time>
      </trkpt>
      <trkpt lat="45.42281" lon="6.90595">
        <ele>2734.4</ele>
        <time>2015-08-23T08:50:50Z</time>
      </trkpt>
      <trkpt lat="45.42279" lon="6.90592">
        <ele>2734.5</ele>
        <time>2015-08-23T08:50:51Z</time>
      </trkpt>
      <trkpt lat="45.42277" lon="6.90587">
        <ele>2734.5</ele>
        <time>2015-08-23T08:50:52Z</time>
      </trkpt>
      <trkpt lat="45.42274" lon="6.90583">
        <ele>2734.2</ele>
        <time>2015-08-23T08:50:53Z</time>
      </trkpt>
      <trkpt lat="45.42271" lon="6.90579">
        <ele>2733.6</ele>
        <time>2015-08-23T08:50:54Z</time>
      </trkpt>
      <trkpt lat="45.42269" lon="6.90576">
        <ele>2733</ele>
        <time>2015-08-23T08:50:55Z</time>
      </trkpt>
      <trkpt lat="45.42267" lon="6.90573">
        <ele>2732.7</ele>
        <time>2015-08-23T08:50:56Z</time>
      </trkpt>
      <trkpt lat="45.42264" lon="6.90571">
        <ele>2732.3</ele>
        <time>2015-08-23T08:50:57Z</time>
      </trkpt>
      <trkpt lat="45.42262" lon="6.90567">
        <ele>2732</ele>
        <time>2015-08-23T08:50:58Z</time>
      </trkpt>
      <trkpt lat="45.42259" lon="6.90564">
        <ele>2731.9</ele>
        <time>2015-08-23T08:50:59Z</time>
      </trkpt>
      <trkpt lat="45.42256" lon="6.9056">
        <ele>2731.9</ele>
        <time>2015-08-23T08:51:01Z</time>
      </trkpt>
      <trkpt lat="45.42253" lon="6.90556">
        <ele>2732</ele>
        <time>2015-08-23T08:51:02Z</time>
      </trkpt>
      <trkpt lat="45.4225" lon="6.90549">
        <ele>2732</ele>
        <time>2015-08-23T08:51:03Z</time>
      </trkpt>
      <trkpt lat="45.42248" lon="6.90546">
        <ele>2731.9</ele>
        <time>2015-08-23T08:51:04Z</time>
      </trkpt>
      <trkpt lat="45.42244" lon="6.9054">
        <ele>2731.7</ele>
        <time>2015-08-23T08:51:06Z</time>
      </trkpt>
      <trkpt lat="45.42242" lon="6.90538">
        <ele>2731.5</ele>
        <time>2015-08-23T08:51:07Z</time>
      </trkpt>
      <trkpt lat="45.4224" lon="6.90535">
        <ele>2731.2</ele>
        <time>2015-08-23T08:51:08Z</time>
      </trkpt>
      <trkpt lat="45.42238" lon="6.90532">
        <ele>2730.9</ele>
        <time>2015-08-23T08:51:09Z</time>
      </trkpt>
      <trkpt lat="45.42236" lon="6.90528">
        <ele>2730.5</ele>
        <time>2015-08-23T08:51:10Z</time>
      </trkpt>
      <trkpt lat="45.42235" lon="6.90524">
        <ele>2730.4</ele>
        <time>2015-08-23T08:51:11Z</time>
      </trkpt>
      <trkpt lat="45.42233" lon="6.90517">
        <ele>2730.3</ele>
        <time>2015-08-23T08:51:14Z</time>
      </trkpt>
      <trkpt lat="45.42231" lon="6.90511">
        <ele>2730.4</ele>
        <time>2015-08-23T08:51:15Z</time>
      </trkpt>
      <trkpt lat="45.42226" lon="6.90503">
        <ele>2730.7</ele>
        <time>2015-08-23T08:51:18Z</time>
      </trkpt>
      <trkpt lat="45.42224" lon="6.905">
        <ele>2730.9</ele>
        <time>2015-08-23T08:51:19Z</time>
      </trkpt>
      <trkpt lat="45.42221" lon="6.90498">
        <ele>2731</ele>
        <time>2015-08-23T08:51:20Z</time>
      </trkpt>
      <trkpt lat="45.42219" lon="6.90494">
        <ele>2730.9</ele>
        <time>2015-08-23T08:51:21Z</time>
      </trkpt>
      <trkpt lat="45.42217" lon="6.90492">
        <ele>2730.8</ele>
        <time>2015-08-23T08:51:22Z</time>
      </trkpt>
      <trkpt lat="45.42215" lon="6.9049">
        <ele>2730.6</ele>
        <time>2015-08-23T08:51:23Z</time>
      </trkpt>
      <trkpt lat="45.4221" lon="6.90486">
        <ele>2730.3</ele>
        <time>2015-08-23T08:51:26Z</time>
      </trkpt>
      <trkpt lat="45.42205" lon="6.90483">
        <ele>2730</ele>
        <time>2015-08-23T08:51:27Z</time>
      </trkpt>
      <trkpt lat="45.42201" lon="6.90479">
        <ele>2729.7</ele>
        <time>2015-08-23T08:51:30Z</time>
      </trkpt>
      <trkpt lat="45.42198" lon="6.90475">
        <ele>2729.3</ele>
        <time>2015-08-23T08:51:31Z</time>
      </trkpt>
      <trkpt lat="45.42196" lon="6.90472">
        <ele>2729.1</ele>
        <time>2015-08-23T08:51:32Z</time>
      </trkpt>
      <trkpt lat="45.42191" lon="6.90468">
        <ele>2729.5</ele>
        <time>2015-08-23T08:51:34Z</time>
      </trkpt>
      <trkpt lat="45.42188" lon="6.90467">
        <ele>2729.7</ele>
        <time>2015-08-23T08:51:35Z</time>
      </trkpt>
      <trkpt lat="45.42185" lon="6.90465">
        <ele>2729.8</ele>
        <time>2015-08-23T08:51:36Z</time>
      </trkpt>
      <trkpt lat="45.42181" lon="6.90465">
        <ele>2730</ele>
        <time>2015-08-23T08:51:38Z</time>
      </trkpt>
      <trkpt lat="45.42176" lon="6.90467">
        <ele>2730.2</ele>
        <time>2015-08-23T08:51:41Z</time>
      </trkpt>
      <trkpt lat="45.4217" lon="6.90466">
        <ele>2730.4</ele>
        <time>2015-08-23T08:51:46Z</time>
      </trkpt>
      <trkpt lat="45.42166" lon="6.90466">
        <ele>2730.7</ele>
        <time>2015-08-23T08:51:48Z</time>
      </trkpt>
      <trkpt lat="45.4216" lon="6.9047">
        <ele>2733</ele>
        <time>2015-08-23T08:51:51Z</time>
      </trkpt>
      <trkpt lat="45.42155" lon="6.90471">
        <ele>2734.6</ele>
        <time>2015-08-23T08:51:53Z</time>
      </trkpt>
      <trkpt lat="45.42151" lon="6.9047">
        <ele>2735.8</ele>
        <time>2015-08-23T08:51:54Z</time>
      </trkpt>
      <trkpt lat="45.42148" lon="6.90469">
        <ele>2736.6</ele>
        <time>2015-08-23T08:51:55Z</time>
      </trkpt>
      <trkpt lat="45.42145" lon="6.90468">
        <ele>2737.3</ele>
        <time>2015-08-23T08:51:56Z</time>
      </trkpt>
      <trkpt lat="45.42141" lon="6.90467">
        <ele>2738.4</ele>
        <time>2015-08-23T08:51:58Z</time>
      </trkpt>
      <trkpt lat="45.42139" lon="6.9047">
        <ele>2739.6</ele>
        <time>2015-08-23T08:52:01Z</time>
      </trkpt>
      <trkpt lat="45.42136" lon="6.90469">
        <ele>2739.7</ele>
        <time>2015-08-23T08:52:06Z</time>
      </trkpt>
      <trkpt lat="45.42133" lon="6.90468">
        <ele>2739.8</ele>
        <time>2015-08-23T08:52:08Z</time>
      </trkpt>
      <trkpt lat="45.4213" lon="6.9047">
        <ele>2740.4</ele>
        <time>2015-08-23T08:52:14Z</time>
      </trkpt>
      <trkpt lat="45.42127" lon="6.90467">
        <ele>2740.2</ele>
        <time>2015-08-23T08:52:19Z</time>
      </trkpt>
      <trkpt lat="45.42125" lon="6.90463">
        <ele>2740.2</ele>
        <time>2015-08-23T08:52:21Z</time>
      </trkpt>
      <trkpt lat="45.42122" lon="6.9046">
        <ele>2740.4</ele>
        <time>2015-08-23T08:52:26Z</time>
      </trkpt>
      <trkpt lat="45.4212" lon="6.90457">
        <ele>2740.4</ele>
        <time>2015-08-23T08:52:28Z</time>
      </trkpt>
      <trkpt lat="45.42118" lon="6.90452">
        <ele>2740.6</ele>
        <time>2015-08-23T08:52:30Z</time>
      </trkpt>
      <trkpt lat="45.42115" lon="6.9045">
        <ele>2741.3</ele>
        <time>2015-08-23T08:52:33Z</time>
      </trkpt>
      <trkpt lat="45.42111" lon="6.9045">
        <ele>2742</ele>
        <time>2015-08-23T08:52:34Z</time>
      </trkpt>
      <trkpt lat="45.42108" lon="6.90451">
        <ele>2742</ele>
        <time>2015-08-23T08:52:37Z</time>
      </trkpt>
      <trkpt lat="45.42106" lon="6.90454">
        <ele>2742</ele>
        <time>2015-08-23T08:52:42Z</time>
      </trkpt>
      <trkpt lat="45.42102" lon="6.90453">
        <ele>2742</ele>
        <time>2015-08-23T08:52:44Z</time>
      </trkpt>
      <trkpt lat="45.42098" lon="6.9045">
        <ele>2742</ele>
        <time>2015-08-23T08:52:46Z</time>
      </trkpt>
      <trkpt lat="45.42095" lon="6.90448">
        <ele>2742</ele>
        <time>2015-08-23T08:52:48Z</time>
      </trkpt>
      <trkpt lat="45.4209" lon="6.90447">
        <ele>2742</ele>
        <time>2015-08-23T08:52:51Z</time>
      </trkpt>
      <trkpt lat="45.42087" lon="6.90447">
        <ele>2742</ele>
        <time>2015-08-23T08:52:54Z</time>
      </trkpt>
      <trkpt lat="45.42084" lon="6.90446">
        <ele>2742</ele>
        <time>2015-08-23T08:52:55Z</time>
      </trkpt>
      <trkpt lat="45.42079" lon="6.90444">
        <ele>2741.7</ele>
        <time>2015-08-23T08:52:57Z</time>
      </trkpt>
      <trkpt lat="45.42076" lon="6.90442">
        <ele>2741.5</ele>
        <time>2015-08-23T08:52:58Z</time>
      </trkpt>
      <trkpt lat="45.42072" lon="6.90438">
        <ele>2741.3</ele>
        <time>2015-08-23T08:53:00Z</time>
      </trkpt>
      <trkpt lat="45.42068" lon="6.90437">
        <ele>2741</ele>
        <time>2015-08-23T08:53:02Z</time>
      </trkpt>
      <trkpt lat="45.42064" lon="6.90437">
        <ele>2740.8</ele>
        <time>2015-08-23T08:53:04Z</time>
      </trkpt>
      <trkpt lat="45.42059" lon="6.90436">
        <ele>2740.5</ele>
        <time>2015-08-23T08:53:06Z</time>
      </trkpt>
      <trkpt lat="45.42056" lon="6.90433">
        <ele>2740.4</ele>
        <time>2015-08-23T08:53:08Z</time>
      </trkpt>
      <trkpt lat="45.42053" lon="6.90429">
        <ele>2740.6</ele>
        <time>2015-08-23T08:53:10Z</time>
      </trkpt>
      <trkpt lat="45.42051" lon="6.90427">
        <ele>2740.7</ele>
        <time>2015-08-23T08:53:12Z</time>
      </trkpt>
      <trkpt lat="45.42048" lon="6.90424">
        <ele>2740.7</ele>
        <time>2015-08-23T08:53:14Z</time>
      </trkpt>
      <trkpt lat="45.42045" lon="6.90422">
        <ele>2740.6</ele>
        <time>2015-08-23T08:53:16Z</time>
      </trkpt>
      <trkpt lat="45.42041" lon="6.9042">
        <ele>2740.5</ele>
        <time>2015-08-23T08:53:18Z</time>
      </trkpt>
      <trkpt lat="45.42037" lon="6.90418">
        <ele>2740.4</ele>
        <time>2015-08-23T08:53:20Z</time>
      </trkpt>
      <trkpt lat="45.42032" lon="6.90417">
        <ele>2740.2</ele>
        <time>2015-08-23T08:53:22Z</time>
      </trkpt>
      <trkpt lat="45.42028" lon="6.90414">
        <ele>2740.4</ele>
        <time>2015-08-23T08:53:24Z</time>
      </trkpt>
      <trkpt lat="45.42024" lon="6.90412">
        <ele>2740.2</ele>
        <time>2015-08-23T08:53:26Z</time>
      </trkpt>
      <trkpt lat="45.42019" lon="6.90412">
        <ele>2739.8</ele>
        <time>2015-08-23T08:53:28Z</time>
      </trkpt>
      <trkpt lat="45.42016" lon="6.90412">
        <ele>2739.5</ele>
        <time>2015-08-23T08:53:29Z</time>
      </trkpt>
      <trkpt lat="45.42013" lon="6.90412">
        <ele>2739.3</ele>
        <time>2015-08-23T08:53:30Z</time>
      </trkpt>
      <trkpt lat="45.42006" lon="6.90407">
        <ele>2738.7</ele>
        <time>2015-08-23T08:53:33Z</time>
      </trkpt>
      <trkpt lat="45.42003" lon="6.90404">
        <ele>2738.4</ele>
        <time>2015-08-23T08:53:34Z</time>
      </trkpt>
      <trkpt lat="45.41999" lon="6.90402">
        <ele>2737.9</ele>
        <time>2015-08-23T08:53:36Z</time>
      </trkpt>
      <trkpt lat="45.41996" lon="6.90408">
        <ele>2737.6</ele>
        <time>2015-08-23T08:53:38Z</time>
      </trkpt>
      <trkpt lat="45.41992" lon="6.90411">
        <ele>2737.5</ele>
        <time>2015-08-23T08:53:40Z</time>
      </trkpt>
      <trkpt lat="45.41989" lon="6.90413">
        <ele>2737.4</ele>
        <time>2015-08-23T08:53:41Z</time>
      </trkpt>
      <trkpt lat="45.41987" lon="6.90416">
        <ele>2737.4</ele>
        <time>2015-08-23T08:53:42Z</time>
      </trkpt>
      <trkpt lat="45.41984" lon="6.90418">
        <ele>2737.7</ele>
        <time>2015-08-23T08:53:43Z</time>
      </trkpt>
      <trkpt lat="45.4198" lon="6.9042">
        <ele>2738.1</ele>
        <time>2015-08-23T08:53:44Z</time>
      </trkpt>
      <trkpt lat="45.41977" lon="6.9042">
        <ele>2738.1</ele>
        <time>2015-08-23T08:53:45Z</time>
      </trkpt>
      <trkpt lat="45.41974" lon="6.9042">
        <ele>2737.9</ele>
        <time>2015-08-23T08:53:46Z</time>
      </trkpt>
      <trkpt lat="45.41971" lon="6.90419">
        <ele>2737.8</ele>
        <time>2015-08-23T08:53:47Z</time>
      </trkpt>
      <trkpt lat="45.41967" lon="6.90417">
        <ele>2737.6</ele>
        <time>2015-08-23T08:53:48Z</time>
      </trkpt>
      <trkpt lat="45.41964" lon="6.90415">
        <ele>2737.6</ele>
        <time>2015-08-23T08:53:49Z</time>
      </trkpt>
      <trkpt lat="45.41961" lon="6.90414">
        <ele>2737.7</ele>
        <time>2015-08-23T08:53:50Z</time>
      </trkpt>
      <trkpt lat="45.41957" lon="6.90412">
        <ele>2737.7</ele>
        <time>2015-08-23T08:53:51Z</time>
      </trkpt>
      <trkpt lat="45.41954" lon="6.90412">
        <ele>2737.9</ele>
        <time>2015-08-23T08:53:52Z</time>
      </trkpt>
      <trkpt lat="45.41949" lon="6.90411">
        <ele>2738.3</ele>
        <time>2015-08-23T08:53:54Z</time>
      </trkpt>
      <trkpt lat="45.41945" lon="6.90409">
        <ele>2737.9</ele>
        <time>2015-08-23T08:53:56Z</time>
      </trkpt>
      <trkpt lat="45.41942" lon="6.90406">
        <ele>2737.3</ele>
        <time>2015-08-23T08:53:58Z</time>
      </trkpt>
      <trkpt lat="45.41939" lon="6.90406">
        <ele>2737.4</ele>
        <time>2015-08-23T08:54:01Z</time>
      </trkpt>
      <trkpt lat="45.41936" lon="6.90408">
        <ele>2737.8</ele>
        <time>2015-08-23T08:54:03Z</time>
      </trkpt>
      <trkpt lat="45.41932" lon="6.90407">
        <ele>2737.8</ele>
        <time>2015-08-23T08:54:05Z</time>
      </trkpt>
      <trkpt lat="45.41929" lon="6.90405">
        <ele>2737.4</ele>
        <time>2015-08-23T08:54:07Z</time>
      </trkpt>
      <trkpt lat="45.41926" lon="6.90403">
        <ele>2736.8</ele>
        <time>2015-08-23T08:54:08Z</time>
      </trkpt>
      <trkpt lat="45.41924" lon="6.904">
        <ele>2736.1</ele>
        <time>2015-08-23T08:54:09Z</time>
      </trkpt>
      <trkpt lat="45.41921" lon="6.90396">
        <ele>2735.3</ele>
        <time>2015-08-23T08:54:11Z</time>
      </trkpt>
      <trkpt lat="45.41918" lon="6.90392">
        <ele>2734.6</ele>
        <time>2015-08-23T08:54:13Z</time>
      </trkpt>
      <trkpt lat="45.41914" lon="6.90389">
        <ele>2733.9</ele>
        <time>2015-08-23T08:54:15Z</time>
      </trkpt>
      <trkpt lat="45.4191" lon="6.90388">
        <ele>2733.5</ele>
        <time>2015-08-23T08:54:17Z</time>
      </trkpt>
      <trkpt lat="45.41905" lon="6.90387">
        <ele>2733.4</ele>
        <time>2015-08-23T08:54:19Z</time>
      </trkpt>
      <trkpt lat="45.419" lon="6.90387">
        <ele>2733.2</ele>
        <time>2015-08-23T08:54:21Z</time>
      </trkpt>
      <trkpt lat="45.41897" lon="6.90388">
        <ele>2733.1</ele>
        <time>2015-08-23T08:54:22Z</time>
      </trkpt>
      <trkpt lat="45.41894" lon="6.90388">
        <ele>2733</ele>
        <time>2015-08-23T08:54:23Z</time>
      </trkpt>
      <trkpt lat="45.41891" lon="6.90388">
        <ele>2732.9</ele>
        <time>2015-08-23T08:54:24Z</time>
      </trkpt>
      <trkpt lat="45.41885" lon="6.90387">
        <ele>2732.9</ele>
        <time>2015-08-23T08:54:26Z</time>
      </trkpt>
      <trkpt lat="45.41882" lon="6.90387">
        <ele>2733</ele>
        <time>2015-08-23T08:54:27Z</time>
      </trkpt>
      <trkpt lat="45.41878" lon="6.90384">
        <ele>2732.8</ele>
        <time>2015-08-23T08:54:29Z</time>
      </trkpt>
      <trkpt lat="45.41873" lon="6.90381">
        <ele>2732.6</ele>
        <time>2015-08-23T08:54:31Z</time>
      </trkpt>
      <trkpt lat="45.41869" lon="6.90379">
        <ele>2732.4</ele>
        <time>2015-08-23T08:54:33Z</time>
      </trkpt>
      <trkpt lat="45.41864" lon="6.90377">
        <ele>2732.2</ele>
        <time>2015-08-23T08:54:35Z</time>
      </trkpt>
      <trkpt lat="45.4186" lon="6.90374">
        <ele>2731.9</ele>
        <time>2015-08-23T08:54:37Z</time>
      </trkpt>
      <trkpt lat="45.41856" lon="6.9037">
        <ele>2731.7</ele>
        <time>2015-08-23T08:54:39Z</time>
      </trkpt>
      <trkpt lat="45.41852" lon="6.90366">
        <ele>2731.2</ele>
        <time>2015-08-23T08:54:41Z</time>
      </trkpt>
      <trkpt lat="45.41849" lon="6.9036">
        <ele>2730.4</ele>
        <time>2015-08-23T08:54:43Z</time>
      </trkpt>
      <trkpt lat="45.41846" lon="6.90354">
        <ele>2730.3</ele>
        <time>2015-08-23T08:54:45Z</time>
      </trkpt>
      <trkpt lat="45.41843" lon="6.90352">
        <ele>2730.1</ele>
        <time>2015-08-23T08:54:46Z</time>
      </trkpt>
      <trkpt lat="45.41841" lon="6.90349">
        <ele>2729.9</ele>
        <time>2015-08-23T08:54:47Z</time>
      </trkpt>
      <trkpt lat="45.41839" lon="6.90346">
        <ele>2729.6</ele>
        <time>2015-08-23T08:54:48Z</time>
      </trkpt>
      <trkpt lat="45.41837" lon="6.90342">
        <ele>2729.2</ele>
        <time>2015-08-23T08:54:49Z</time>
      </trkpt>
      <trkpt lat="45.41835" lon="6.90338">
        <ele>2728.7</ele>
        <time>2015-08-23T08:54:50Z</time>
      </trkpt>
      <trkpt lat="45.41833" lon="6.90336">
        <ele>2728.2</ele>
        <time>2015-08-23T08:54:51Z</time>
      </trkpt>
      <trkpt lat="45.41829" lon="6.90332">
        <ele>2727.8</ele>
        <time>2015-08-23T08:54:53Z</time>
      </trkpt>
      <trkpt lat="45.41824" lon="6.90328">
        <ele>2727.8</ele>
        <time>2015-08-23T08:54:55Z</time>
      </trkpt>
      <trkpt lat="45.41822" lon="6.90327">
        <ele>2727.6</ele>
        <time>2015-08-23T08:54:56Z</time>
      </trkpt>
      <trkpt lat="45.41819" lon="6.90327">
        <ele>2727.2</ele>
        <time>2015-08-23T08:54:57Z</time>
      </trkpt>
      <trkpt lat="45.41816" lon="6.90326">
        <ele>2726.9</ele>
        <time>2015-08-23T08:54:58Z</time>
      </trkpt>
      <trkpt lat="45.41813" lon="6.90325">
        <ele>2726.6</ele>
        <time>2015-08-23T08:54:59Z</time>
      </trkpt>
      <trkpt lat="45.4181" lon="6.90324">
        <ele>2726.3</ele>
        <time>2015-08-23T08:55:00Z</time>
      </trkpt>
      <trkpt lat="45.41806" lon="6.90323">
        <ele>2725.7</ele>
        <time>2015-08-23T08:55:02Z</time>
      </trkpt>
      <trkpt lat="45.41801" lon="6.90322">
        <ele>2725.2</ele>
        <time>2015-08-23T08:55:04Z</time>
      </trkpt>
      <trkpt lat="45.41797" lon="6.9032">
        <ele>2724.6</ele>
        <time>2015-08-23T08:55:06Z</time>
      </trkpt>
      <trkpt lat="45.41792" lon="6.90319">
        <ele>2723.8</ele>
        <time>2015-08-23T08:55:08Z</time>
      </trkpt>
      <trkpt lat="45.41787" lon="6.90317">
        <ele>2722.7</ele>
        <time>2015-08-23T08:55:10Z</time>
      </trkpt>
      <trkpt lat="45.41784" lon="6.90316">
        <ele>2722.1</ele>
        <time>2015-08-23T08:55:11Z</time>
      </trkpt>
      <trkpt lat="45.41781" lon="6.90316">
        <ele>2721.4</ele>
        <time>2015-08-23T08:55:12Z</time>
      </trkpt>
      <trkpt lat="45.41775" lon="6.90316">
        <ele>2720.1</ele>
        <time>2015-08-23T08:55:14Z</time>
      </trkpt>
      <trkpt lat="45.41771" lon="6.90317">
        <ele>2719.3</ele>
        <time>2015-08-23T08:55:16Z</time>
      </trkpt>
      <trkpt lat="45.41768" lon="6.90318">
        <ele>2718.7</ele>
        <time>2015-08-23T08:55:18Z</time>
      </trkpt>
      <trkpt lat="45.41765" lon="6.90318">
        <ele>2718</ele>
        <time>2015-08-23T08:55:21Z</time>
      </trkpt>
      <trkpt lat="45.41762" lon="6.90318">
        <ele>2717.2</ele>
        <time>2015-08-23T08:55:25Z</time>
      </trkpt>
      <trkpt lat="45.41758" lon="6.90319">
        <ele>2716.7</ele>
        <time>2015-08-23T08:55:26Z</time>
      </trkpt>
      <trkpt lat="45.41754" lon="6.9032">
        <ele>2716.3</ele>
        <time>2015-08-23T08:55:27Z</time>
      </trkpt>
      <trkpt lat="45.41751" lon="6.90322">
        <ele>2715.9</ele>
        <time>2015-08-23T08:55:28Z</time>
      </trkpt>
      <trkpt lat="45.41747" lon="6.90323">
        <ele>2715.6</ele>
        <time>2015-08-23T08:55:29Z</time>
      </trkpt>
      <trkpt lat="45.41743" lon="6.90322">
        <ele>2714.5</ele>
        <time>2015-08-23T08:55:31Z</time>
      </trkpt>
      <trkpt lat="45.4174" lon="6.90318">
        <ele>2712.6</ele>
        <time>2015-08-23T08:55:33Z</time>
      </trkpt>
      <trkpt lat="45.41736" lon="6.90315">
        <ele>2710.6</ele>
        <time>2015-08-23T08:55:35Z</time>
      </trkpt>
      <trkpt lat="45.41733" lon="6.90314">
        <ele>2709.7</ele>
        <time>2015-08-23T08:55:37Z</time>
      </trkpt>
      <trkpt lat="45.41729" lon="6.90316">
        <ele>2709.6</ele>
        <time>2015-08-23T08:55:39Z</time>
      </trkpt>
      <trkpt lat="45.41725" lon="6.90316">
        <ele>2709.1</ele>
        <time>2015-08-23T08:55:41Z</time>
      </trkpt>
      <trkpt lat="45.41721" lon="6.90316">
        <ele>2708.2</ele>
        <time>2015-08-23T08:55:43Z</time>
      </trkpt>
      <trkpt lat="45.41718" lon="6.90316">
        <ele>2707.5</ele>
        <time>2015-08-23T08:55:44Z</time>
      </trkpt>
      <trkpt lat="45.41715" lon="6.90317">
        <ele>2707</ele>
        <time>2015-08-23T08:55:45Z</time>
      </trkpt>
      <trkpt lat="45.41712" lon="6.90318">
        <ele>2706.5</ele>
        <time>2015-08-23T08:55:46Z</time>
      </trkpt>
      <trkpt lat="45.41708" lon="6.90319">
        <ele>2706.1</ele>
        <time>2015-08-23T08:55:47Z</time>
      </trkpt>
      <trkpt lat="45.41705" lon="6.9032">
        <ele>2705.7</ele>
        <time>2015-08-23T08:55:48Z</time>
      </trkpt>
      <trkpt lat="45.41701" lon="6.9032">
        <ele>2704.7</ele>
        <time>2015-08-23T08:55:50Z</time>
      </trkpt>
      <trkpt lat="45.41697" lon="6.9032">
        <ele>2703.7</ele>
        <time>2015-08-23T08:55:52Z</time>
      </trkpt>
      <trkpt lat="45.41694" lon="6.90321">
        <ele>2703.4</ele>
        <time>2015-08-23T08:55:53Z</time>
      </trkpt>
      <trkpt lat="45.4169" lon="6.90324">
        <ele>2702.9</ele>
        <time>2015-08-23T08:55:54Z</time>
      </trkpt>
      <trkpt lat="45.41685" lon="6.90326">
        <ele>2702.6</ele>
        <time>2015-08-23T08:55:55Z</time>
      </trkpt>
      <trkpt lat="45.41682" lon="6.90329">
        <ele>2702.3</ele>
        <time>2015-08-23T08:55:56Z</time>
      </trkpt>
      <trkpt lat="45.41678" lon="6.90331">
        <ele>2702</ele>
        <time>2015-08-23T08:55:57Z</time>
      </trkpt>
      <trkpt lat="45.41674" lon="6.90333">
        <ele>2701.7</ele>
        <time>2015-08-23T08:55:58Z</time>
      </trkpt>
      <trkpt lat="45.41671" lon="6.90334">
        <ele>2701.4</ele>
        <time>2015-08-23T08:55:59Z</time>
      </trkpt>
      <trkpt lat="45.41668" lon="6.90336">
        <ele>2701</ele>
        <time>2015-08-23T08:56:00Z</time>
      </trkpt>
      <trkpt lat="45.41666" lon="6.90337">
        <ele>2700.7</ele>
        <time>2015-08-23T08:56:01Z</time>
      </trkpt>
      <trkpt lat="45.41663" lon="6.90338">
        <ele>2700.6</ele>
        <time>2015-08-23T08:56:02Z</time>
      </trkpt>
      <trkpt lat="45.4166" lon="6.90339">
        <ele>2700.4</ele>
        <time>2015-08-23T08:56:03Z</time>
      </trkpt>
      <trkpt lat="45.41656" lon="6.90339">
        <ele>2700.4</ele>
        <time>2015-08-23T08:56:04Z</time>
      </trkpt>
      <trkpt lat="45.41653" lon="6.90341">
        <ele>2700.4</ele>
        <time>2015-08-23T08:56:05Z</time>
      </trkpt>
      <trkpt lat="45.41651" lon="6.90342">
        <ele>2700.5</ele>
        <time>2015-08-23T08:56:06Z</time>
      </trkpt>
      <trkpt lat="45.41648" lon="6.90343">
        <ele>2700.5</ele>
        <time>2015-08-23T08:56:07Z</time>
      </trkpt>
      <trkpt lat="45.41643" lon="6.90344">
        <ele>2700.4</ele>
        <time>2015-08-23T08:56:09Z</time>
      </trkpt>
      <trkpt lat="45.41637" lon="6.90344">
        <ele>2699.9</ele>
        <time>2015-08-23T08:56:11Z</time>
      </trkpt>
      <trkpt lat="45.41634" lon="6.90343">
        <ele>2699</ele>
        <time>2015-08-23T08:56:12Z</time>
      </trkpt>
      <trkpt lat="45.41632" lon="6.90341">
        <ele>2698</ele>
        <time>2015-08-23T08:56:13Z</time>
      </trkpt>
      <trkpt lat="45.41629" lon="6.90339">
        <ele>2697.1</ele>
        <time>2015-08-23T08:56:14Z</time>
      </trkpt>
      <trkpt lat="45.41627" lon="6.90338">
        <ele>2696.2</ele>
        <time>2015-08-23T08:56:15Z</time>
      </trkpt>
      <trkpt lat="45.41623" lon="6.90337">
        <ele>2695.3</ele>
        <time>2015-08-23T08:56:17Z</time>
      </trkpt>
      <trkpt lat="45.41619" lon="6.90337">
        <ele>2694.6</ele>
        <time>2015-08-23T08:56:19Z</time>
      </trkpt>
      <trkpt lat="45.41616" lon="6.90337">
        <ele>2694.1</ele>
        <time>2015-08-23T08:56:21Z</time>
      </trkpt>
      <trkpt lat="45.41612" lon="6.90338">
        <ele>2693.7</ele>
        <time>2015-08-23T08:56:23Z</time>
      </trkpt>
      <trkpt lat="45.4161" lon="6.90339">
        <ele>2693.6</ele>
        <time>2015-08-23T08:56:24Z</time>
      </trkpt>
      <trkpt lat="45.41605" lon="6.9034">
        <ele>2693.2</ele>
        <time>2015-08-23T08:56:26Z</time>
      </trkpt>
      <trkpt lat="45.41602" lon="6.90338">
        <ele>2692.3</ele>
        <time>2015-08-23T08:56:29Z</time>
      </trkpt>
      <trkpt lat="45.416" lon="6.90336">
        <ele>2691.3</ele>
        <time>2015-08-23T08:56:31Z</time>
      </trkpt>
      <trkpt lat="45.41598" lon="6.90334">
        <ele>2690.3</ele>
        <time>2015-08-23T08:56:34Z</time>
      </trkpt>
      <trkpt lat="45.41595" lon="6.90333">
        <ele>2689.6</ele>
        <time>2015-08-23T08:56:37Z</time>
      </trkpt>
      <trkpt lat="45.41592" lon="6.90331">
        <ele>2688.2</ele>
        <time>2015-08-23T08:56:40Z</time>
      </trkpt>
      <trkpt lat="45.41589" lon="6.90328">
        <ele>2686.8</ele>
        <time>2015-08-23T08:56:42Z</time>
      </trkpt>
      <trkpt lat="45.41586" lon="6.90326">
        <ele>2685.8</ele>
        <time>2015-08-23T08:56:43Z</time>
      </trkpt>
      <trkpt lat="45.41583" lon="6.90324">
        <ele>2684.8</ele>
        <time>2015-08-23T08:56:44Z</time>
      </trkpt>
      <trkpt lat="45.41578" lon="6.90321">
        <ele>2683.4</ele>
        <time>2015-08-23T08:56:46Z</time>
      </trkpt>
      <trkpt lat="45.41575" lon="6.90319">
        <ele>2682.5</ele>
        <time>2015-08-23T08:56:47Z</time>
      </trkpt>
      <trkpt lat="45.41571" lon="6.90318">
        <ele>2681.9</ele>
        <time>2015-08-23T08:56:48Z</time>
      </trkpt>
      <trkpt lat="45.41569" lon="6.90317">
        <ele>2681.3</ele>
        <time>2015-08-23T08:56:49Z</time>
      </trkpt>
      <trkpt lat="45.41565" lon="6.90316">
        <ele>2680.7</ele>
        <time>2015-08-23T08:56:50Z</time>
      </trkpt>
      <trkpt lat="45.41562" lon="6.90315">
        <ele>2680.2</ele>
        <time>2015-08-23T08:56:51Z</time>
      </trkpt>
      <trkpt lat="45.41558" lon="6.90315">
        <ele>2679.9</ele>
        <time>2015-08-23T08:56:52Z</time>
      </trkpt>
      <trkpt lat="45.41554" lon="6.90315">
        <ele>2679.6</ele>
        <time>2015-08-23T08:56:53Z</time>
      </trkpt>
      <trkpt lat="45.41551" lon="6.90316">
        <ele>2679.4</ele>
        <time>2015-08-23T08:56:54Z</time>
      </trkpt>
      <trkpt lat="45.41549" lon="6.90317">
        <ele>2679.2</ele>
        <time>2015-08-23T08:56:55Z</time>
      </trkpt>
      <trkpt lat="45.41545" lon="6.90318">
        <ele>2678.9</ele>
        <time>2015-08-23T08:56:56Z</time>
      </trkpt>
      <trkpt lat="45.41539" lon="6.90318">
        <ele>2678</ele>
        <time>2015-08-23T08:56:58Z</time>
      </trkpt>
      <trkpt lat="45.41535" lon="6.90318">
        <ele>2677.4</ele>
        <time>2015-08-23T08:56:59Z</time>
      </trkpt>
      <trkpt lat="45.41532" lon="6.90318">
        <ele>2676.8</ele>
        <time>2015-08-23T08:57:00Z</time>
      </trkpt>
      <trkpt lat="45.41528" lon="6.90317">
        <ele>2676.1</ele>
        <time>2015-08-23T08:57:01Z</time>
      </trkpt>
      <trkpt lat="45.41525" lon="6.90317">
        <ele>2675.6</ele>
        <time>2015-08-23T08:57:02Z</time>
      </trkpt>
      <trkpt lat="45.41522" lon="6.90317">
        <ele>2675.1</ele>
        <time>2015-08-23T08:57:03Z</time>
      </trkpt>
      <trkpt lat="45.41519" lon="6.90317">
        <ele>2674.7</ele>
        <time>2015-08-23T08:57:04Z</time>
      </trkpt>
      <trkpt lat="45.4151" lon="6.9032">
        <ele>2673.7</ele>
        <time>2015-08-23T08:57:05Z</time>
      </trkpt>
      <trkpt lat="45.41506" lon="6.9032">
        <ele>2673</ele>
        <time>2015-08-23T08:57:06Z</time>
      </trkpt>
      <trkpt lat="45.41501" lon="6.90322">
        <ele>2672.3</ele>
        <time>2015-08-23T08:57:08Z</time>
      </trkpt>
      <trkpt lat="45.41498" lon="6.90323">
        <ele>2671.9</ele>
        <time>2015-08-23T08:57:09Z</time>
      </trkpt>
      <trkpt lat="45.41494" lon="6.90324">
        <ele>2671.6</ele>
        <time>2015-08-23T08:57:10Z</time>
      </trkpt>
      <trkpt lat="45.41492" lon="6.90323">
        <ele>2671.2</ele>
        <time>2015-08-23T08:57:11Z</time>
      </trkpt>
      <trkpt lat="45.41487" lon="6.90324">
        <ele>2670.6</ele>
        <time>2015-08-23T08:57:13Z</time>
      </trkpt>
      <trkpt lat="45.41483" lon="6.90326">
        <ele>2670.2</ele>
        <time>2015-08-23T08:57:16Z</time>
      </trkpt>
      <trkpt lat="45.41478" lon="6.9033">
        <ele>2669.7</ele>
        <time>2015-08-23T08:57:18Z</time>
      </trkpt>
      <trkpt lat="45.41474" lon="6.90332">
        <ele>2669.2</ele>
        <time>2015-08-23T08:57:20Z</time>
      </trkpt>
      <trkpt lat="45.4147" lon="6.90333">
        <ele>2668.4</ele>
        <time>2015-08-23T08:57:22Z</time>
      </trkpt>
      <trkpt lat="45.41466" lon="6.90332">
        <ele>2667.5</ele>
        <time>2015-08-23T08:57:24Z</time>
      </trkpt>
      <trkpt lat="45.41461" lon="6.90333">
        <ele>2666.7</ele>
        <time>2015-08-23T08:57:26Z</time>
      </trkpt>
      <trkpt lat="45.41459" lon="6.90336">
        <ele>2666.3</ele>
        <time>2015-08-23T08:57:28Z</time>
      </trkpt>
      <trkpt lat="45.41456" lon="6.90338">
        <ele>2666.1</ele>
        <time>2015-08-23T08:57:30Z</time>
      </trkpt>
      <trkpt lat="45.41453" lon="6.90341">
        <ele>2665.9</ele>
        <time>2015-08-23T08:57:32Z</time>
      </trkpt>
      <trkpt lat="45.41448" lon="6.90344">
        <ele>2665.3</ele>
        <time>2015-08-23T08:57:34Z</time>
      </trkpt>
      <trkpt lat="45.41443" lon="6.90345">
        <ele>2664.5</ele>
        <time>2015-08-23T08:57:36Z</time>
      </trkpt>
      <trkpt lat="45.4144" lon="6.90345">
        <ele>2664</ele>
        <time>2015-08-23T08:57:37Z</time>
      </trkpt>
      <trkpt lat="45.41437" lon="6.90345">
        <ele>2663.5</ele>
        <time>2015-08-23T08:57:38Z</time>
      </trkpt>
      <trkpt lat="45.41432" lon="6.90345">
        <ele>2662.6</ele>
        <time>2015-08-23T08:57:40Z</time>
      </trkpt>
      <trkpt lat="45.41427" lon="6.90346">
        <ele>2661.9</ele>
        <time>2015-08-23T08:57:42Z</time>
      </trkpt>
      <trkpt lat="45.41422" lon="6.90347">
        <ele>2661.2</ele>
        <time>2015-08-23T08:57:44Z</time>
      </trkpt>
      <trkpt lat="45.41419" lon="6.90348">
        <ele>2661</ele>
        <time>2015-08-23T08:57:45Z</time>
      </trkpt>
      <trkpt lat="45.41416" lon="6.9035">
        <ele>2660.9</ele>
        <time>2015-08-23T08:57:46Z</time>
      </trkpt>
      <trkpt lat="45.41411" lon="6.90353">
        <ele>2660.9</ele>
        <time>2015-08-23T08:57:48Z</time>
      </trkpt>
      <trkpt lat="45.41408" lon="6.90357">
        <ele>2661.2</ele>
        <time>2015-08-23T08:57:50Z</time>
      </trkpt>
      <trkpt lat="45.41404" lon="6.90359">
        <ele>2661.1</ele>
        <time>2015-08-23T08:57:52Z</time>
      </trkpt>
      <trkpt lat="45.414" lon="6.9036">
        <ele>2660.9</ele>
        <time>2015-08-23T08:57:54Z</time>
      </trkpt>
      <trkpt lat="45.41397" lon="6.90361">
        <ele>2660.8</ele>
        <time>2015-08-23T08:57:56Z</time>
      </trkpt>
      <trkpt lat="45.41393" lon="6.90364">
        <ele>2660.8</ele>
        <time>2015-08-23T08:57:58Z</time>
      </trkpt>
      <trkpt lat="45.41388" lon="6.90365">
        <ele>2660.5</ele>
        <time>2015-08-23T08:58:00Z</time>
      </trkpt>
      <trkpt lat="45.41381" lon="6.90362">
        <ele>2659.4</ele>
        <time>2015-08-23T08:58:03Z</time>
      </trkpt>
      <trkpt lat="45.41379" lon="6.90361">
        <ele>2658.9</ele>
        <time>2015-08-23T08:58:04Z</time>
      </trkpt>
      <trkpt lat="45.41376" lon="6.90362">
        <ele>2658.7</ele>
        <time>2015-08-23T08:58:05Z</time>
      </trkpt>
      <trkpt lat="45.4137" lon="6.90363">
        <ele>2658.3</ele>
        <time>2015-08-23T08:58:07Z</time>
      </trkpt>
      <trkpt lat="45.41367" lon="6.90364">
        <ele>2658</ele>
        <time>2015-08-23T08:58:08Z</time>
      </trkpt>
      <trkpt lat="45.41364" lon="6.90364">
        <ele>2657.6</ele>
        <time>2015-08-23T08:58:09Z</time>
      </trkpt>
      <trkpt lat="45.41361" lon="6.90364">
        <ele>2657.5</ele>
        <time>2015-08-23T08:58:10Z</time>
      </trkpt>
      <trkpt lat="45.41358" lon="6.9036">
        <ele>2656.9</ele>
        <time>2015-08-23T08:58:14Z</time>
      </trkpt>
      <trkpt lat="45.41355" lon="6.90357">
        <ele>2656.6</ele>
        <time>2015-08-23T08:58:17Z</time>
      </trkpt>
      <trkpt lat="45.41353" lon="6.90353">
        <ele>2656.1</ele>
        <time>2015-08-23T08:58:19Z</time>
      </trkpt>
      <trkpt lat="45.41351" lon="6.90348">
        <ele>2655.6</ele>
        <time>2015-08-23T08:58:21Z</time>
      </trkpt>
      <trkpt lat="45.41347" lon="6.90344">
        <ele>2655.1</ele>
        <time>2015-08-23T08:58:23Z</time>
      </trkpt>
      <trkpt lat="45.41344" lon="6.90342">
        <ele>2654.9</ele>
        <time>2015-08-23T08:58:24Z</time>
      </trkpt>
      <trkpt lat="45.41341" lon="6.90341">
        <ele>2654.8</ele>
        <time>2015-08-23T08:58:25Z</time>
      </trkpt>
      <trkpt lat="45.41338" lon="6.90341">
        <ele>2654.8</ele>
        <time>2015-08-23T08:58:26Z</time>
      </trkpt>
      <trkpt lat="45.41334" lon="6.90341">
        <ele>2654.8</ele>
        <time>2015-08-23T08:58:27Z</time>
      </trkpt>
      <trkpt lat="45.4133" lon="6.90342">
        <ele>2654.7</ele>
        <time>2015-08-23T08:58:28Z</time>
      </trkpt>
      <trkpt lat="45.41326" lon="6.90343">
        <ele>2654.5</ele>
        <time>2015-08-23T08:58:29Z</time>
      </trkpt>
      <trkpt lat="45.41322" lon="6.90343">
        <ele>2654.3</ele>
        <time>2015-08-23T08:58:30Z</time>
      </trkpt>
      <trkpt lat="45.41318" lon="6.90342">
        <ele>2654</ele>
        <time>2015-08-23T08:58:31Z</time>
      </trkpt>
      <trkpt lat="45.41314" lon="6.9034">
        <ele>2653.5</ele>
        <time>2015-08-23T08:58:32Z</time>
      </trkpt>
      <trkpt lat="45.41311" lon="6.90339">
        <ele>2653.1</ele>
        <time>2015-08-23T08:58:34Z</time>
      </trkpt>
      <trkpt lat="45.41304" lon="6.90333">
        <ele>2652</ele>
        <time>2015-08-23T08:58:35Z</time>
      </trkpt>
      <trkpt lat="45.413" lon="6.90331">
        <ele>2651.7</ele>
        <time>2015-08-23T08:58:36Z</time>
      </trkpt>
      <trkpt lat="45.41298" lon="6.90329">
        <ele>2651.6</ele>
        <time>2015-08-23T08:58:37Z</time>
      </trkpt>
      <trkpt lat="45.41295" lon="6.90328">
        <ele>2651.4</ele>
        <time>2015-08-23T08:58:38Z</time>
      </trkpt>
      <trkpt lat="45.41292" lon="6.90326">
        <ele>2651.3</ele>
        <time>2015-08-23T08:58:39Z</time>
      </trkpt>
      <trkpt lat="45.41289" lon="6.90325">
        <ele>2651.1</ele>
        <time>2015-08-23T08:58:40Z</time>
      </trkpt>
      <trkpt lat="45.41286" lon="6.90324">
        <ele>2650.9</ele>
        <time>2015-08-23T08:58:41Z</time>
      </trkpt>
      <trkpt lat="45.41283" lon="6.90322">
        <ele>2650.8</ele>
        <time>2015-08-23T08:58:42Z</time>
      </trkpt>
      <trkpt lat="45.4128" lon="6.90321">
        <ele>2650.6</ele>
        <time>2015-08-23T08:58:43Z</time>
      </trkpt>
      <trkpt lat="45.41276" lon="6.90318">
        <ele>2650.6</ele>
        <time>2015-08-23T08:58:45Z</time>
      </trkpt>
      <trkpt lat="45.41272" lon="6.90316">
        <ele>2650.9</ele>
        <time>2015-08-23T08:58:47Z</time>
      </trkpt>
      <trkpt lat="45.41266" lon="6.90317">
        <ele>2651.5</ele>
        <time>2015-08-23T08:58:49Z</time>
      </trkpt>
      <trkpt lat="45.41263" lon="6.90317">
        <ele>2652</ele>
        <time>2015-08-23T08:58:50Z</time>
      </trkpt>
      <trkpt lat="45.41257" lon="6.90318">
        <ele>2652.8</ele>
        <time>2015-08-23T08:58:52Z</time>
      </trkpt>
      <trkpt lat="45.41253" lon="6.90318">
        <ele>2653.3</ele>
        <time>2015-08-23T08:58:53Z</time>
      </trkpt>
      <trkpt lat="45.41249" lon="6.90317">
        <ele>2653.7</ele>
        <time>2015-08-23T08:58:55Z</time>
      </trkpt>
      <trkpt lat="45.41244" lon="6.90317">
        <ele>2654.1</ele>
        <time>2015-08-23T08:58:57Z</time>
      </trkpt>
      <trkpt lat="45.41241" lon="6.90316">
        <ele>2654.1</ele>
        <time>2015-08-23T08:58:59Z</time>
      </trkpt>
      <trkpt lat="45.41238" lon="6.90314">
        <ele>2654</ele>
        <time>2015-08-23T08:59:01Z</time>
      </trkpt>
      <trkpt lat="45.41235" lon="6.90309">
        <ele>2653.3</ele>
        <time>2015-08-23T08:59:03Z</time>
      </trkpt>
      <trkpt lat="45.41232" lon="6.90306">
        <ele>2653</ele>
        <time>2015-08-23T08:59:05Z</time>
      </trkpt>
      <trkpt lat="45.41227" lon="6.90303">
        <ele>2653.2</ele>
        <time>2015-08-23T08:59:07Z</time>
      </trkpt>
      <trkpt lat="45.41222" lon="6.90302">
        <ele>2653.6</ele>
        <time>2015-08-23T08:59:09Z</time>
      </trkpt>
      <trkpt lat="45.41218" lon="6.903">
        <ele>2653.6</ele>
        <time>2015-08-23T08:59:11Z</time>
      </trkpt>
      <trkpt lat="45.41214" lon="6.90297">
        <ele>2653.5</ele>
        <time>2015-08-23T08:59:13Z</time>
      </trkpt>
      <trkpt lat="45.41211" lon="6.90296">
        <ele>2653.5</ele>
        <time>2015-08-23T08:59:14Z</time>
      </trkpt>
      <trkpt lat="45.41209" lon="6.90294">
        <ele>2653.4</ele>
        <time>2015-08-23T08:59:15Z</time>
      </trkpt>
      <trkpt lat="45.41206" lon="6.90292">
        <ele>2653.4</ele>
        <time>2015-08-23T08:59:16Z</time>
      </trkpt>
      <trkpt lat="45.41201" lon="6.90287">
        <ele>2653.3</ele>
        <time>2015-08-23T08:59:18Z</time>
      </trkpt>
      <trkpt lat="45.41199" lon="6.90285">
        <ele>2653.2</ele>
        <time>2015-08-23T08:59:19Z</time>
      </trkpt>
      <trkpt lat="45.41197" lon="6.90282">
        <ele>2653.1</ele>
        <time>2015-08-23T08:59:20Z</time>
      </trkpt>
      <trkpt lat="45.41194" lon="6.90276">
        <ele>2652.9</ele>
        <time>2015-08-23T08:59:22Z</time>
      </trkpt>
      <trkpt lat="45.41191" lon="6.90272">
        <ele>2652.7</ele>
        <time>2015-08-23T08:59:24Z</time>
      </trkpt>
      <trkpt lat="45.41188" lon="6.90268">
        <ele>2652.5</ele>
        <time>2015-08-23T08:59:26Z</time>
      </trkpt>
      <trkpt lat="45.41186" lon="6.90264">
        <ele>2652.3</ele>
        <time>2015-08-23T08:59:28Z</time>
      </trkpt>
      <trkpt lat="45.41184" lon="6.90259">
        <ele>2652</ele>
        <time>2015-08-23T08:59:30Z</time>
      </trkpt>
      <trkpt lat="45.41182" lon="6.90253">
        <ele>2651.7</ele>
        <time>2015-08-23T08:59:32Z</time>
      </trkpt>
      <trkpt lat="45.41179" lon="6.90247">
        <ele>2651.4</ele>
        <time>2015-08-23T08:59:34Z</time>
      </trkpt>
      <trkpt lat="45.41177" lon="6.90244">
        <ele>2651.2</ele>
        <time>2015-08-23T08:59:35Z</time>
      </trkpt>
      <trkpt lat="45.41175" lon="6.9024">
        <ele>2651.1</ele>
        <time>2015-08-23T08:59:36Z</time>
      </trkpt>
      <trkpt lat="45.41173" lon="6.90237">
        <ele>2651.1</ele>
        <time>2015-08-23T08:59:37Z</time>
      </trkpt>
      <trkpt lat="45.41171" lon="6.90233">
        <ele>2651</ele>
        <time>2015-08-23T08:59:38Z</time>
      </trkpt>
      <trkpt lat="45.4117" lon="6.9023">
        <ele>2651</ele>
        <time>2015-08-23T08:59:39Z</time>
      </trkpt>
      <trkpt lat="45.41168" lon="6.90226">
        <ele>2651</ele>
        <time>2015-08-23T08:59:40Z</time>
      </trkpt>
      <trkpt lat="45.41167" lon="6.90216">
        <ele>2650.6</ele>
        <time>2015-08-23T08:59:43Z</time>
      </trkpt>
      <trkpt lat="45.41165" lon="6.90209">
        <ele>2650.1</ele>
        <time>2015-08-23T08:59:45Z</time>
      </trkpt>
      <trkpt lat="45.41164" lon="6.90202">
        <ele>2649.7</ele>
        <time>2015-08-23T08:59:47Z</time>
      </trkpt>
      <trkpt lat="45.41161" lon="6.90196">
        <ele>2649.3</ele>
        <time>2015-08-23T08:59:49Z</time>
      </trkpt>
      <trkpt lat="45.41159" lon="6.90193">
        <ele>2649.2</ele>
        <time>2015-08-23T08:59:50Z</time>
      </trkpt>
      <trkpt lat="45.41157" lon="6.9019">
        <ele>2649.1</ele>
        <time>2015-08-23T08:59:51Z</time>
      </trkpt>
      <trkpt lat="45.41155" lon="6.90187">
        <ele>2649</ele>
        <time>2015-08-23T08:59:52Z</time>
      </trkpt>
      <trkpt lat="45.41154" lon="6.90183">
        <ele>2648.9</ele>
        <time>2015-08-23T08:59:53Z</time>
      </trkpt>
      <trkpt lat="45.41153" lon="6.90179">
        <ele>2648.7</ele>
        <time>2015-08-23T08:59:54Z</time>
      </trkpt>
      <trkpt lat="45.41151" lon="6.90176">
        <ele>2648.5</ele>
        <time>2015-08-23T08:59:56Z</time>
      </trkpt>
      <trkpt lat="45.41146" lon="6.90167">
        <ele>2648</ele>
        <time>2015-08-23T08:59:58Z</time>
      </trkpt>
      <trkpt lat="45.41144" lon="6.90163">
        <ele>2647.5</ele>
        <time>2015-08-23T09:00:00Z</time>
      </trkpt>
      <trkpt lat="45.41141" lon="6.90159">
        <ele>2646.9</ele>
        <time>2015-08-23T09:00:02Z</time>
      </trkpt>
      <trkpt lat="45.4114" lon="6.90155">
        <ele>2646.3</ele>
        <time>2015-08-23T09:00:04Z</time>
      </trkpt>
      <trkpt lat="45.41141" lon="6.90149">
        <ele>2645.5</ele>
        <time>2015-08-23T09:00:07Z</time>
      </trkpt>
      <trkpt lat="45.41144" lon="6.90141">
        <ele>2644.6</ele>
        <time>2015-08-23T09:00:09Z</time>
      </trkpt>
      <trkpt lat="45.41145" lon="6.90136">
        <ele>2644.2</ele>
        <time>2015-08-23T09:00:10Z</time>
      </trkpt>
      <trkpt lat="45.41146" lon="6.90131">
        <ele>2643.9</ele>
        <time>2015-08-23T09:00:11Z</time>
      </trkpt>
      <trkpt lat="45.41146" lon="6.90127">
        <ele>2643.6</ele>
        <time>2015-08-23T09:00:12Z</time>
      </trkpt>
      <trkpt lat="45.41147" lon="6.90122">
        <ele>2643.3</ele>
        <time>2015-08-23T09:00:13Z</time>
      </trkpt>
      <trkpt lat="45.41147" lon="6.90117">
        <ele>2643</ele>
        <time>2015-08-23T09:00:14Z</time>
      </trkpt>
      <trkpt lat="45.41149" lon="6.90109">
        <ele>2642.6</ele>
        <time>2015-08-23T09:00:16Z</time>
      </trkpt>
      <trkpt lat="45.41149" lon="6.90103">
        <ele>2642.5</ele>
        <time>2015-08-23T09:00:18Z</time>
      </trkpt>
      <trkpt lat="45.41148" lon="6.90095">
        <ele>2642.1</ele>
        <time>2015-08-23T09:00:21Z</time>
      </trkpt>
      <trkpt lat="45.41148" lon="6.90089">
        <ele>2641.9</ele>
        <time>2015-08-23T09:00:23Z</time>
      </trkpt>
      <trkpt lat="45.41148" lon="6.90083">
        <ele>2641.7</ele>
        <time>2015-08-23T09:00:25Z</time>
      </trkpt>
      <trkpt lat="45.41146" lon="6.90077">
        <ele>2641.4</ele>
        <time>2015-08-23T09:00:27Z</time>
      </trkpt>
      <trkpt lat="45.41144" lon="6.90075">
        <ele>2641.1</ele>
        <time>2015-08-23T09:00:28Z</time>
      </trkpt>
      <trkpt lat="45.41142" lon="6.90072">
        <ele>2640.9</ele>
        <time>2015-08-23T09:00:29Z</time>
      </trkpt>
      <trkpt lat="45.4114" lon="6.90069">
        <ele>2640.5</ele>
        <time>2015-08-23T09:00:30Z</time>
      </trkpt>
      <trkpt lat="45.41138" lon="6.90066">
        <ele>2640.3</ele>
        <time>2015-08-23T09:00:31Z</time>
      </trkpt>
      <trkpt lat="45.41135" lon="6.90062">
        <ele>2640</ele>
        <time>2015-08-23T09:00:32Z</time>
      </trkpt>
      <trkpt lat="45.41132" lon="6.90058">
        <ele>2639.6</ele>
        <time>2015-08-23T09:00:33Z</time>
      </trkpt>
      <trkpt lat="45.4113" lon="6.90054">
        <ele>2639.3</ele>
        <time>2015-08-23T09:00:34Z</time>
      </trkpt>
      <trkpt lat="45.41128" lon="6.9005">
        <ele>2639.1</ele>
        <time>2015-08-23T09:00:35Z</time>
      </trkpt>
      <trkpt lat="45.41125" lon="6.90046">
        <ele>2639</ele>
        <time>2015-08-23T09:00:36Z</time>
      </trkpt>
      <trkpt lat="45.41123" lon="6.90044">
        <ele>2638.9</ele>
        <time>2015-08-23T09:00:37Z</time>
      </trkpt>
      <trkpt lat="45.4112" lon="6.90041">
        <ele>2638.8</ele>
        <time>2015-08-23T09:00:39Z</time>
      </trkpt>
      <trkpt lat="45.41118" lon="6.90037">
        <ele>2638.8</ele>
        <time>2015-08-23T09:00:41Z</time>
      </trkpt>
      <trkpt lat="45.41114" lon="6.90033">
        <ele>2638.9</ele>
        <time>2015-08-23T09:00:43Z</time>
      </trkpt>
      <trkpt lat="45.4111" lon="6.90031">
        <ele>2638.9</ele>
        <time>2015-08-23T09:00:45Z</time>
      </trkpt>
      <trkpt lat="45.41105" lon="6.90029">
        <ele>2639.1</ele>
        <time>2015-08-23T09:00:47Z</time>
      </trkpt>
      <trkpt lat="45.41101" lon="6.90028">
        <ele>2639.4</ele>
        <time>2015-08-23T09:00:49Z</time>
      </trkpt>
      <trkpt lat="45.41097" lon="6.90025">
        <ele>2639.6</ele>
        <time>2015-08-23T09:00:51Z</time>
      </trkpt>
      <trkpt lat="45.41093" lon="6.90021">
        <ele>2639.9</ele>
        <time>2015-08-23T09:00:53Z</time>
      </trkpt>
      <trkpt lat="45.41088" lon="6.9002">
        <ele>2640.1</ele>
        <time>2015-08-23T09:00:55Z</time>
      </trkpt>
      <trkpt lat="45.41084" lon="6.9002">
        <ele>2640.3</ele>
        <time>2015-08-23T09:00:57Z</time>
      </trkpt>
      <trkpt lat="45.41079" lon="6.90022">
        <ele>2640.4</ele>
        <time>2015-08-23T09:00:59Z</time>
      </trkpt>
      <trkpt lat="45.41074" lon="6.90024">
        <ele>2640.3</ele>
        <time>2015-08-23T09:01:01Z</time>
      </trkpt>
      <trkpt lat="45.41071" lon="6.90025">
        <ele>2640.3</ele>
        <time>2015-08-23T09:01:02Z</time>
      </trkpt>
      <trkpt lat="45.41066" lon="6.90027">
        <ele>2640.1</ele>
        <time>2015-08-23T09:01:04Z</time>
      </trkpt>
      <trkpt lat="45.41063" lon="6.90028">
        <ele>2639.9</ele>
        <time>2015-08-23T09:01:05Z</time>
      </trkpt>
      <trkpt lat="45.41062" lon="6.90032">
        <ele>2639.3</ele>
        <time>2015-08-23T09:01:06Z</time>
      </trkpt>
      <trkpt lat="45.4106" lon="6.90035">
        <ele>2638.8</ele>
        <time>2015-08-23T09:01:07Z</time>
      </trkpt>
      <trkpt lat="45.41058" lon="6.90038">
        <ele>2638.3</ele>
        <time>2015-08-23T09:01:08Z</time>
      </trkpt>
      <trkpt lat="45.41056" lon="6.9004">
        <ele>2637.8</ele>
        <time>2015-08-23T09:01:09Z</time>
      </trkpt>
      <trkpt lat="45.41053" lon="6.90043">
        <ele>2637.2</ele>
        <time>2015-08-23T09:01:10Z</time>
      </trkpt>
      <trkpt lat="45.4105" lon="6.90045">
        <ele>2636.7</ele>
        <time>2015-08-23T09:01:11Z</time>
      </trkpt>
      <trkpt lat="45.41048" lon="6.90047">
        <ele>2636.2</ele>
        <time>2015-08-23T09:01:12Z</time>
      </trkpt>
      <trkpt lat="45.41045" lon="6.90049">
        <ele>2635.8</ele>
        <time>2015-08-23T09:01:13Z</time>
      </trkpt>
      <trkpt lat="45.41042" lon="6.90052">
        <ele>2635.1</ele>
        <time>2015-08-23T09:01:15Z</time>
      </trkpt>
      <trkpt lat="45.41038" lon="6.90055">
        <ele>2634.5</ele>
        <time>2015-08-23T09:01:17Z</time>
      </trkpt>
      <trkpt lat="45.41035" lon="6.90058">
        <ele>2634.3</ele>
        <time>2015-08-23T09:01:19Z</time>
      </trkpt>
      <trkpt lat="45.4103" lon="6.9006">
        <ele>2634.1</ele>
        <time>2015-08-23T09:01:21Z</time>
      </trkpt>
      <trkpt lat="45.41027" lon="6.90061">
        <ele>2634</ele>
        <time>2015-08-23T09:01:22Z</time>
      </trkpt>
      <trkpt lat="45.41024" lon="6.90061">
        <ele>2634</ele>
        <time>2015-08-23T09:01:23Z</time>
      </trkpt>
      <trkpt lat="45.41021" lon="6.90061">
        <ele>2633.9</ele>
        <time>2015-08-23T09:01:24Z</time>
      </trkpt>
      <trkpt lat="45.41018" lon="6.90061">
        <ele>2633.9</ele>
        <time>2015-08-23T09:01:25Z</time>
      </trkpt>
      <trkpt lat="45.41013" lon="6.90062">
        <ele>2633.8</ele>
        <time>2015-08-23T09:01:27Z</time>
      </trkpt>
      <trkpt lat="45.41009" lon="6.90061">
        <ele>2633.7</ele>
        <time>2015-08-23T09:01:29Z</time>
      </trkpt>
      <trkpt lat="45.41005" lon="6.90062">
        <ele>2633.7</ele>
        <time>2015-08-23T09:01:31Z</time>
      </trkpt>
      <trkpt lat="45.41002" lon="6.90061">
        <ele>2633.6</ele>
        <time>2015-08-23T09:01:33Z</time>
      </trkpt>
      <trkpt lat="45.40999" lon="6.9006">
        <ele>2633.7</ele>
        <time>2015-08-23T09:01:35Z</time>
      </trkpt>
      <trkpt lat="45.40995" lon="6.9006">
        <ele>2633.7</ele>
        <time>2015-08-23T09:01:37Z</time>
      </trkpt>
      <trkpt lat="45.40992" lon="6.90061">
        <ele>2633.7</ele>
        <time>2015-08-23T09:01:39Z</time>
      </trkpt>
      <trkpt lat="45.40989" lon="6.90061">
        <ele>2633.7</ele>
        <time>2015-08-23T09:01:41Z</time>
      </trkpt>
      <trkpt lat="45.40985" lon="6.90062">
        <ele>2633.7</ele>
        <time>2015-08-23T09:01:44Z</time>
      </trkpt>
      <trkpt lat="45.40981" lon="6.90062">
        <ele>2633.7</ele>
        <time>2015-08-23T09:01:47Z</time>
      </trkpt>
      <trkpt lat="45.40977" lon="6.90064">
        <ele>2633.7</ele>
        <time>2015-08-23T09:01:49Z</time>
      </trkpt>
      <trkpt lat="45.40975" lon="6.90065">
        <ele>2633.6</ele>
        <time>2015-08-23T09:01:51Z</time>
      </trkpt>
      <trkpt lat="45.40972" lon="6.90068">
        <ele>2633.3</ele>
        <time>2015-08-23T09:01:54Z</time>
      </trkpt>
      <trkpt lat="45.40968" lon="6.90069">
        <ele>2631.9</ele>
        <time>2015-08-23T09:01:56Z</time>
      </trkpt>
      <trkpt lat="45.40964" lon="6.90071">
        <ele>2630.6</ele>
        <time>2015-08-23T09:01:58Z</time>
      </trkpt>
      <trkpt lat="45.40961" lon="6.90073">
        <ele>2629.8</ele>
        <time>2015-08-23T09:01:59Z</time>
      </trkpt>
      <trkpt lat="45.40958" lon="6.90075">
        <ele>2629.2</ele>
        <time>2015-08-23T09:02:00Z</time>
      </trkpt>
      <trkpt lat="45.40955" lon="6.90077">
        <ele>2628.8</ele>
        <time>2015-08-23T09:02:01Z</time>
      </trkpt>
      <trkpt lat="45.40952" lon="6.9008">
        <ele>2628.5</ele>
        <time>2015-08-23T09:02:02Z</time>
      </trkpt>
      <trkpt lat="45.40948" lon="6.90083">
        <ele>2628.6</ele>
        <time>2015-08-23T09:02:03Z</time>
      </trkpt>
      <trkpt lat="45.40945" lon="6.90086">
        <ele>2627.7</ele>
        <time>2015-08-23T09:02:04Z</time>
      </trkpt>
      <trkpt lat="45.40942" lon="6.90088">
        <ele>2626.7</ele>
        <time>2015-08-23T09:02:05Z</time>
      </trkpt>
      <trkpt lat="45.40939" lon="6.9009">
        <ele>2625.9</ele>
        <time>2015-08-23T09:02:06Z</time>
      </trkpt>
      <trkpt lat="45.40937" lon="6.90093">
        <ele>2625.2</ele>
        <time>2015-08-23T09:02:07Z</time>
      </trkpt>
      <trkpt lat="45.40933" lon="6.90097">
        <ele>2624.1</ele>
        <time>2015-08-23T09:02:09Z</time>
      </trkpt>
      <trkpt lat="45.4093" lon="6.90098">
        <ele>2623.6</ele>
        <time>2015-08-23T09:02:10Z</time>
      </trkpt>
      <trkpt lat="45.40926" lon="6.90099">
        <ele>2623.1</ele>
        <time>2015-08-23T09:02:11Z</time>
      </trkpt>
      <trkpt lat="45.40923" lon="6.901">
        <ele>2622.6</ele>
        <time>2015-08-23T09:02:12Z</time>
      </trkpt>
      <trkpt lat="45.40919" lon="6.901">
        <ele>2622.3</ele>
        <time>2015-08-23T09:02:13Z</time>
      </trkpt>
      <trkpt lat="45.40916" lon="6.90101">
        <ele>2621.9</ele>
        <time>2015-08-23T09:02:14Z</time>
      </trkpt>
      <trkpt lat="45.40913" lon="6.901">
        <ele>2621.3</ele>
        <time>2015-08-23T09:02:15Z</time>
      </trkpt>
      <trkpt lat="45.4091" lon="6.901">
        <ele>2620.8</ele>
        <time>2015-08-23T09:02:16Z</time>
      </trkpt>
      <trkpt lat="45.40907" lon="6.90101">
        <ele>2620.3</ele>
        <time>2015-08-23T09:02:17Z</time>
      </trkpt>
      <trkpt lat="45.40904" lon="6.90102">
        <ele>2619.8</ele>
        <time>2015-08-23T09:02:18Z</time>
      </trkpt>
      <trkpt lat="45.40901" lon="6.90103">
        <ele>2619.3</ele>
        <time>2015-08-23T09:02:19Z</time>
      </trkpt>
      <trkpt lat="45.40896" lon="6.90104">
        <ele>2618.5</ele>
        <time>2015-08-23T09:02:21Z</time>
      </trkpt>
      <trkpt lat="45.40892" lon="6.90106">
        <ele>2617.7</ele>
        <time>2015-08-23T09:02:23Z</time>
      </trkpt>
      <trkpt lat="45.40888" lon="6.90109">
        <ele>2616.8</ele>
        <time>2015-08-23T09:02:25Z</time>
      </trkpt>
      <trkpt lat="45.40885" lon="6.90109">
        <ele>2616.2</ele>
        <time>2015-08-23T09:02:27Z</time>
      </trkpt>
      <trkpt lat="45.40884" lon="6.90103">
        <ele>2616.3</ele>
        <time>2015-08-23T09:02:29Z</time>
      </trkpt>
      <trkpt lat="45.40884" lon="6.90097">
        <ele>2616.5</ele>
        <time>2015-08-23T09:02:31Z</time>
      </trkpt>
      <trkpt lat="45.40882" lon="6.90093">
        <ele>2616.4</ele>
        <time>2015-08-23T09:02:32Z</time>
      </trkpt>
      <trkpt lat="45.4088" lon="6.9009">
        <ele>2616.2</ele>
        <time>2015-08-23T09:02:33Z</time>
      </trkpt>
      <trkpt lat="45.40878" lon="6.90086">
        <ele>2615.9</ele>
        <time>2015-08-23T09:02:34Z</time>
      </trkpt>
      <trkpt lat="45.40875" lon="6.90082">
        <ele>2615.4</ele>
        <time>2015-08-23T09:02:35Z</time>
      </trkpt>
      <trkpt lat="45.40872" lon="6.90078">
        <ele>2614.3</ele>
        <time>2015-08-23T09:02:36Z</time>
      </trkpt>
      <trkpt lat="45.40869" lon="6.90075">
        <ele>2613.6</ele>
        <time>2015-08-23T09:02:37Z</time>
      </trkpt>
      <trkpt lat="45.40867" lon="6.90071">
        <ele>2613</ele>
        <time>2015-08-23T09:02:38Z</time>
      </trkpt>
      <trkpt lat="45.40864" lon="6.90068">
        <ele>2612.7</ele>
        <time>2015-08-23T09:02:39Z</time>
      </trkpt>
      <trkpt lat="45.40863" lon="6.90065">
        <ele>2612.4</ele>
        <time>2015-08-23T09:02:40Z</time>
      </trkpt>
      <trkpt lat="45.4086" lon="6.90059">
        <ele>2612</ele>
        <time>2015-08-23T09:02:42Z</time>
      </trkpt>
      <trkpt lat="45.40859" lon="6.90055">
        <ele>2611.4</ele>
        <time>2015-08-23T09:02:44Z</time>
      </trkpt>
      <trkpt lat="45.40862" lon="6.9005">
        <ele>2610.5</ele>
        <time>2015-08-23T09:02:47Z</time>
      </trkpt>
      <trkpt lat="45.40866" lon="6.90047">
        <ele>2609.7</ele>
        <time>2015-08-23T09:02:49Z</time>
      </trkpt>
      <trkpt lat="45.4087" lon="6.90043">
        <ele>2608.7</ele>
        <time>2015-08-23T09:02:51Z</time>
      </trkpt>
      <trkpt lat="45.40873" lon="6.9004">
        <ele>2608.2</ele>
        <time>2015-08-23T09:02:52Z</time>
      </trkpt>
      <trkpt lat="45.40875" lon="6.90037">
        <ele>2607.9</ele>
        <time>2015-08-23T09:02:53Z</time>
      </trkpt>
      <trkpt lat="45.40878" lon="6.90035">
        <ele>2607.7</ele>
        <time>2015-08-23T09:02:54Z</time>
      </trkpt>
      <trkpt lat="45.4088" lon="6.90033">
        <ele>2607.6</ele>
        <time>2015-08-23T09:02:55Z</time>
      </trkpt>
      <trkpt lat="45.40883" lon="6.90031">
        <ele>2607.5</ele>
        <time>2015-08-23T09:02:56Z</time>
      </trkpt>
      <trkpt lat="45.40886" lon="6.90025">
        <ele>2607.2</ele>
        <time>2015-08-23T09:02:58Z</time>
      </trkpt>
      <trkpt lat="45.40887" lon="6.90019">
        <ele>2606.3</ele>
        <time>2015-08-23T09:03:00Z</time>
      </trkpt>
      <trkpt lat="45.40886" lon="6.90011">
        <ele>2605</ele>
        <time>2015-08-23T09:03:02Z</time>
      </trkpt>
      <trkpt lat="45.40884" lon="6.90005">
        <ele>2603.4</ele>
        <time>2015-08-23T09:03:04Z</time>
      </trkpt>
      <trkpt lat="45.40882" lon="6.89999">
        <ele>2601.8</ele>
        <time>2015-08-23T09:03:06Z</time>
      </trkpt>
      <trkpt lat="45.40879" lon="6.89994">
        <ele>2599.8</ele>
        <time>2015-08-23T09:03:08Z</time>
      </trkpt>
      <trkpt lat="45.40877" lon="6.8999">
        <ele>2598.7</ele>
        <time>2015-08-23T09:03:09Z</time>
      </trkpt>
      <trkpt lat="45.40875" lon="6.89984">
        <ele>2596.7</ele>
        <time>2015-08-23T09:03:11Z</time>
      </trkpt>
      <trkpt lat="45.40874" lon="6.89978">
        <ele>2595.2</ele>
        <time>2015-08-23T09:03:13Z</time>
      </trkpt>
      <trkpt lat="45.40872" lon="6.89973">
        <ele>2594.1</ele>
        <time>2015-08-23T09:03:15Z</time>
      </trkpt>
      <trkpt lat="45.40872" lon="6.89969">
        <ele>2593.2</ele>
        <time>2015-08-23T09:03:17Z</time>
      </trkpt>
      <trkpt lat="45.40873" lon="6.89965">
        <ele>2592.6</ele>
        <time>2015-08-23T09:03:19Z</time>
      </trkpt>
      <trkpt lat="45.40876" lon="6.89962">
        <ele>2592.7</ele>
        <time>2015-08-23T09:03:22Z</time>
      </trkpt>
      <trkpt lat="45.40876" lon="6.89957">
        <ele>2591.6</ele>
        <time>2015-08-23T09:03:26Z</time>
      </trkpt>
      <trkpt lat="45.40876" lon="6.89953">
        <ele>2590.7</ele>
        <time>2015-08-23T09:03:28Z</time>
      </trkpt>
      <trkpt lat="45.40878" lon="6.89949">
        <ele>2590.1</ele>
        <time>2015-08-23T09:03:31Z</time>
      </trkpt>
      <trkpt lat="45.40882" lon="6.89947">
        <ele>2590.2</ele>
        <time>2015-08-23T09:03:33Z</time>
      </trkpt>
      <trkpt lat="45.40886" lon="6.89943">
        <ele>2589.6</ele>
        <time>2015-08-23T09:03:35Z</time>
      </trkpt>
      <trkpt lat="45.40888" lon="6.89939">
        <ele>2589.3</ele>
        <time>2015-08-23T09:03:36Z</time>
      </trkpt>
      <trkpt lat="45.40889" lon="6.89934">
        <ele>2588.9</ele>
        <time>2015-08-23T09:03:37Z</time>
      </trkpt>
      <trkpt lat="45.40889" lon="6.8993">
        <ele>2588.4</ele>
        <time>2015-08-23T09:03:38Z</time>
      </trkpt>
      <trkpt lat="45.40888" lon="6.89925">
        <ele>2587.9</ele>
        <time>2015-08-23T09:03:39Z</time>
      </trkpt>
      <trkpt lat="45.40888" lon="6.89921">
        <ele>2587.4</ele>
        <time>2015-08-23T09:03:40Z</time>
      </trkpt>
      <trkpt lat="45.40885" lon="6.89915">
        <ele>2586.6</ele>
        <time>2015-08-23T09:03:42Z</time>
      </trkpt>
      <trkpt lat="45.40882" lon="6.89912">
        <ele>2586.4</ele>
        <time>2015-08-23T09:03:43Z</time>
      </trkpt>
      <trkpt lat="45.4088" lon="6.89908">
        <ele>2586.2</ele>
        <time>2015-08-23T09:03:44Z</time>
      </trkpt>
      <trkpt lat="45.40877" lon="6.89905">
        <ele>2586.1</ele>
        <time>2015-08-23T09:03:45Z</time>
      </trkpt>
      <trkpt lat="45.40875" lon="6.89901">
        <ele>2586</ele>
        <time>2015-08-23T09:03:46Z</time>
      </trkpt>
      <trkpt lat="45.40873" lon="6.89898">
        <ele>2586</ele>
        <time>2015-08-23T09:03:47Z</time>
      </trkpt>
      <trkpt lat="45.40872" lon="6.89894">
        <ele>2586</ele>
        <time>2015-08-23T09:03:48Z</time>
      </trkpt>
      <trkpt lat="45.4087" lon="6.89891">
        <ele>2586</ele>
        <time>2015-08-23T09:03:49Z</time>
      </trkpt>
      <trkpt lat="45.40868" lon="6.89887">
        <ele>2585.6</ele>
        <time>2015-08-23T09:03:50Z</time>
      </trkpt>
      <trkpt lat="45.40865" lon="6.89883">
        <ele>2584.9</ele>
        <time>2015-08-23T09:03:51Z</time>
      </trkpt>
      <trkpt lat="45.40863" lon="6.8988">
        <ele>2584.2</ele>
        <time>2015-08-23T09:03:52Z</time>
      </trkpt>
      <trkpt lat="45.40861" lon="6.89876">
        <ele>2583.2</ele>
        <time>2015-08-23T09:03:53Z</time>
      </trkpt>
      <trkpt lat="45.40859" lon="6.89873">
        <ele>2581.8</ele>
        <time>2015-08-23T09:03:54Z</time>
      </trkpt>
      <trkpt lat="45.40857" lon="6.89869">
        <ele>2580.4</ele>
        <time>2015-08-23T09:03:55Z</time>
      </trkpt>
      <trkpt lat="45.40855" lon="6.89865">
        <ele>2579</ele>
        <time>2015-08-23T09:03:56Z</time>
      </trkpt>
      <trkpt lat="45.40852" lon="6.8986">
        <ele>2577.4</ele>
        <time>2015-08-23T09:03:58Z</time>
      </trkpt>
      <trkpt lat="45.40851" lon="6.89854">
        <ele>2576.7</ele>
        <time>2015-08-23T09:04:00Z</time>
      </trkpt>
      <trkpt lat="45.40849" lon="6.89848">
        <ele>2576.1</ele>
        <time>2015-08-23T09:04:02Z</time>
      </trkpt>
      <trkpt lat="45.40848" lon="6.89843">
        <ele>2575.5</ele>
        <time>2015-08-23T09:04:04Z</time>
      </trkpt>
      <trkpt lat="45.40845" lon="6.89838">
        <ele>2574.5</ele>
        <time>2015-08-23T09:04:06Z</time>
      </trkpt>
      <trkpt lat="45.40841" lon="6.89834">
        <ele>2573.3</ele>
        <time>2015-08-23T09:04:08Z</time>
      </trkpt>
      <trkpt lat="45.40839" lon="6.89828">
        <ele>2572.6</ele>
        <time>2015-08-23T09:04:10Z</time>
      </trkpt>
      <trkpt lat="45.40838" lon="6.89822">
        <ele>2572.2</ele>
        <time>2015-08-23T09:04:12Z</time>
      </trkpt>
      <trkpt lat="45.40835" lon="6.89816">
        <ele>2571.5</ele>
        <time>2015-08-23T09:04:14Z</time>
      </trkpt>
      <trkpt lat="45.40833" lon="6.89812">
        <ele>2571</ele>
        <time>2015-08-23T09:04:15Z</time>
      </trkpt>
      <trkpt lat="45.4083" lon="6.89808">
        <ele>2570.9</ele>
        <time>2015-08-23T09:04:16Z</time>
      </trkpt>
      <trkpt lat="45.40827" lon="6.89805">
        <ele>2570.7</ele>
        <time>2015-08-23T09:04:17Z</time>
      </trkpt>
      <trkpt lat="45.40823" lon="6.89802">
        <ele>2570.5</ele>
        <time>2015-08-23T09:04:18Z</time>
      </trkpt>
      <trkpt lat="45.4082" lon="6.89799">
        <ele>2570.3</ele>
        <time>2015-08-23T09:04:19Z</time>
      </trkpt>
      <trkpt lat="45.40818" lon="6.89796">
        <ele>2570.1</ele>
        <time>2015-08-23T09:04:20Z</time>
      </trkpt>
      <trkpt lat="45.40815" lon="6.89793">
        <ele>2569.9</ele>
        <time>2015-08-23T09:04:21Z</time>
      </trkpt>
      <trkpt lat="45.40813" lon="6.8979">
        <ele>2569.7</ele>
        <time>2015-08-23T09:04:22Z</time>
      </trkpt>
      <trkpt lat="45.40811" lon="6.89787">
        <ele>2569.5</ele>
        <time>2015-08-23T09:04:23Z</time>
      </trkpt>
      <trkpt lat="45.40808" lon="6.89784">
        <ele>2569.3</ele>
        <time>2015-08-23T09:04:24Z</time>
      </trkpt>
      <trkpt lat="45.40806" lon="6.89781">
        <ele>2569.1</ele>
        <time>2015-08-23T09:04:25Z</time>
      </trkpt>
      <trkpt lat="45.40804" lon="6.89778">
        <ele>2569</ele>
        <time>2015-08-23T09:04:26Z</time>
      </trkpt>
      <trkpt lat="45.40802" lon="6.89775">
        <ele>2569</ele>
        <time>2015-08-23T09:04:27Z</time>
      </trkpt>
      <trkpt lat="45.408" lon="6.89773">
        <ele>2569</ele>
        <time>2015-08-23T09:04:28Z</time>
      </trkpt>
      <trkpt lat="45.40797" lon="6.89767">
        <ele>2568.9</ele>
        <time>2015-08-23T09:04:30Z</time>
      </trkpt>
      <trkpt lat="45.40796" lon="6.89763">
        <ele>2568.8</ele>
        <time>2015-08-23T09:04:31Z</time>
      </trkpt>
      <trkpt lat="45.40794" lon="6.8976">
        <ele>2568.7</ele>
        <time>2015-08-23T09:04:32Z</time>
      </trkpt>
      <trkpt lat="45.40793" lon="6.89757">
        <ele>2568.6</ele>
        <time>2015-08-23T09:04:33Z</time>
      </trkpt>
      <trkpt lat="45.40791" lon="6.89753">
        <ele>2568.5</ele>
        <time>2015-08-23T09:04:34Z</time>
      </trkpt>
      <trkpt lat="45.4079" lon="6.89749">
        <ele>2568.4</ele>
        <time>2015-08-23T09:04:35Z</time>
      </trkpt>
      <trkpt lat="45.40788" lon="6.89746">
        <ele>2568.3</ele>
        <time>2015-08-23T09:04:36Z</time>
      </trkpt>
      <trkpt lat="45.40786" lon="6.89742">
        <ele>2568.2</ele>
        <time>2015-08-23T09:04:37Z</time>
      </trkpt>
      <trkpt lat="45.40784" lon="6.89739">
        <ele>2568.1</ele>
        <time>2015-08-23T09:04:38Z</time>
      </trkpt>
      <trkpt lat="45.40782" lon="6.89736">
        <ele>2568.1</ele>
        <time>2015-08-23T09:04:39Z</time>
      </trkpt>
      <trkpt lat="45.40779" lon="6.89733">
        <ele>2568</ele>
        <time>2015-08-23T09:04:40Z</time>
      </trkpt>
      <trkpt lat="45.40777" lon="6.8973">
        <ele>2568</ele>
        <time>2015-08-23T09:04:41Z</time>
      </trkpt>
      <trkpt lat="45.40774" lon="6.89727">
        <ele>2567.9</ele>
        <time>2015-08-23T09:04:42Z</time>
      </trkpt>
      <trkpt lat="45.40772" lon="6.89725">
        <ele>2567.8</ele>
        <time>2015-08-23T09:04:43Z</time>
      </trkpt>
      <trkpt lat="45.40769" lon="6.89722">
        <ele>2567.7</ele>
        <time>2015-08-23T09:04:44Z</time>
      </trkpt>
      <trkpt lat="45.40766" lon="6.89719">
        <ele>2567.6</ele>
        <time>2015-08-23T09:04:45Z</time>
      </trkpt>
      <trkpt lat="45.40764" lon="6.89716">
        <ele>2567.6</ele>
        <time>2015-08-23T09:04:46Z</time>
      </trkpt>
      <trkpt lat="45.40761" lon="6.89713">
        <ele>2567.6</ele>
        <time>2015-08-23T09:04:47Z</time>
      </trkpt>
      <trkpt lat="45.40759" lon="6.8971">
        <ele>2567.6</ele>
        <time>2015-08-23T09:04:48Z</time>
      </trkpt>
      <trkpt lat="45.40757" lon="6.89707">
        <ele>2567.6</ele>
        <time>2015-08-23T09:04:49Z</time>
      </trkpt>
      <trkpt lat="45.40755" lon="6.89705">
        <ele>2567.7</ele>
        <time>2015-08-23T09:04:50Z</time>
      </trkpt>
      <trkpt lat="45.40751" lon="6.897">
        <ele>2567.8</ele>
        <time>2015-08-23T09:04:52Z</time>
      </trkpt>
      <trkpt lat="45.40746" lon="6.89698">
        <ele>2567.6</ele>
        <time>2015-08-23T09:04:54Z</time>
      </trkpt>
      <trkpt lat="45.40742" lon="6.89693">
        <ele>2567.4</ele>
        <time>2015-08-23T09:04:56Z</time>
      </trkpt>
      <trkpt lat="45.4074" lon="6.89691">
        <ele>2567.1</ele>
        <time>2015-08-23T09:04:57Z</time>
      </trkpt>
      <trkpt lat="45.40737" lon="6.89688">
        <ele>2566.8</ele>
        <time>2015-08-23T09:04:58Z</time>
      </trkpt>
      <trkpt lat="45.40735" lon="6.89685">
        <ele>2566.6</ele>
        <time>2015-08-23T09:04:59Z</time>
      </trkpt>
      <trkpt lat="45.40734" lon="6.89681">
        <ele>2566.3</ele>
        <time>2015-08-23T09:05:00Z</time>
      </trkpt>
      <trkpt lat="45.40732" lon="6.89678">
        <ele>2566.1</ele>
        <time>2015-08-23T09:05:01Z</time>
      </trkpt>
      <trkpt lat="45.40728" lon="6.89673">
        <ele>2565.7</ele>
        <time>2015-08-23T09:05:03Z</time>
      </trkpt>
      <trkpt lat="45.40724" lon="6.89668">
        <ele>2565.2</ele>
        <time>2015-08-23T09:05:05Z</time>
      </trkpt>
      <trkpt lat="45.40722" lon="6.89666">
        <ele>2565.2</ele>
        <time>2015-08-23T09:05:06Z</time>
      </trkpt>
      <trkpt lat="45.40718" lon="6.89661">
        <ele>2566</ele>
        <time>2015-08-23T09:05:08Z</time>
      </trkpt>
      <trkpt lat="45.40715" lon="6.89657">
        <ele>2566.6</ele>
        <time>2015-08-23T09:05:10Z</time>
      </trkpt>
      <trkpt lat="45.40712" lon="6.89654">
        <ele>2567</ele>
        <time>2015-08-23T09:05:12Z</time>
      </trkpt>
      <trkpt lat="45.40709" lon="6.89651">
        <ele>2567.2</ele>
        <time>2015-08-23T09:05:14Z</time>
      </trkpt>
      <trkpt lat="45.40707" lon="6.89649">
        <ele>2567.4</ele>
        <time>2015-08-23T09:05:17Z</time>
      </trkpt>
      <trkpt lat="45.40704" lon="6.89647">
        <ele>2567.6</ele>
        <time>2015-08-23T09:05:18Z</time>
      </trkpt>
      <trkpt lat="45.407" lon="6.89644">
        <ele>2567.8</ele>
        <time>2015-08-23T09:05:21Z</time>
      </trkpt>
      <trkpt lat="45.40696" lon="6.8964">
        <ele>2568</ele>
        <time>2015-08-23T09:05:22Z</time>
      </trkpt>
      <trkpt lat="45.40693" lon="6.89635">
        <ele>2568.4</ele>
        <time>2015-08-23T09:05:24Z</time>
      </trkpt>
      <trkpt lat="45.40691" lon="6.89631">
        <ele>2568.8</ele>
        <time>2015-08-23T09:05:26Z</time>
      </trkpt>
      <trkpt lat="45.40688" lon="6.89628">
        <ele>2569</ele>
        <time>2015-08-23T09:05:28Z</time>
      </trkpt>
      <trkpt lat="45.40683" lon="6.89625">
        <ele>2569.1</ele>
        <time>2015-08-23T09:05:30Z</time>
      </trkpt>
      <trkpt lat="45.4068" lon="6.89623">
        <ele>2569.1</ele>
        <time>2015-08-23T09:05:31Z</time>
      </trkpt>
      <trkpt lat="45.40678" lon="6.89622">
        <ele>2569.1</ele>
        <time>2015-08-23T09:05:32Z</time>
      </trkpt>
      <trkpt lat="45.40675" lon="6.8962">
        <ele>2569.1</ele>
        <time>2015-08-23T09:05:33Z</time>
      </trkpt>
      <trkpt lat="45.40671" lon="6.89616">
        <ele>2569.1</ele>
        <time>2015-08-23T09:05:35Z</time>
      </trkpt>
      <trkpt lat="45.40667" lon="6.89612">
        <ele>2569</ele>
        <time>2015-08-23T09:05:37Z</time>
      </trkpt>
      <trkpt lat="45.40663" lon="6.8961">
        <ele>2568.9</ele>
        <time>2015-08-23T09:05:39Z</time>
      </trkpt>
      <trkpt lat="45.40659" lon="6.89608">
        <ele>2568.6</ele>
        <time>2015-08-23T09:05:41Z</time>
      </trkpt>
      <trkpt lat="45.40655" lon="6.89605">
        <ele>2568.4</ele>
        <time>2015-08-23T09:05:43Z</time>
      </trkpt>
      <trkpt lat="45.4065" lon="6.89601">
        <ele>2568.1</ele>
        <time>2015-08-23T09:05:45Z</time>
      </trkpt>
      <trkpt lat="45.40648" lon="6.89599">
        <ele>2567.9</ele>
        <time>2015-08-23T09:05:46Z</time>
      </trkpt>
      <trkpt lat="45.40643" lon="6.89595">
        <ele>2567.5</ele>
        <time>2015-08-23T09:05:48Z</time>
      </trkpt>
      <trkpt lat="45.40638" lon="6.89591">
        <ele>2566.9</ele>
        <time>2015-08-23T09:05:50Z</time>
      </trkpt>
      <trkpt lat="45.40636" lon="6.89589">
        <ele>2566.6</ele>
        <time>2015-08-23T09:05:51Z</time>
      </trkpt>
      <trkpt lat="45.40633" lon="6.89587">
        <ele>2566.3</ele>
        <time>2015-08-23T09:05:52Z</time>
      </trkpt>
      <trkpt lat="45.4063" lon="6.89585">
        <ele>2566</ele>
        <time>2015-08-23T09:05:53Z</time>
      </trkpt>
      <trkpt lat="45.40628" lon="6.89582">
        <ele>2566</ele>
        <time>2015-08-23T09:05:54Z</time>
      </trkpt>
      <trkpt lat="45.40626" lon="6.89579">
        <ele>2566</ele>
        <time>2015-08-23T09:05:55Z</time>
      </trkpt>
      <trkpt lat="45.40624" lon="6.89577">
        <ele>2566</ele>
        <time>2015-08-23T09:05:56Z</time>
      </trkpt>
      <trkpt lat="45.40622" lon="6.89574">
        <ele>2566</ele>
        <time>2015-08-23T09:05:57Z</time>
      </trkpt>
      <trkpt lat="45.4062" lon="6.89571">
        <ele>2566</ele>
        <time>2015-08-23T09:05:58Z</time>
      </trkpt>
      <trkpt lat="45.40618" lon="6.89567">
        <ele>2566</ele>
        <time>2015-08-23T09:05:59Z</time>
      </trkpt>
      <trkpt lat="45.40615" lon="6.89564">
        <ele>2565.9</ele>
        <time>2015-08-23T09:06:00Z</time>
      </trkpt>
      <trkpt lat="45.40612" lon="6.89562">
        <ele>2565.7</ele>
        <time>2015-08-23T09:06:01Z</time>
      </trkpt>
      <trkpt lat="45.4061" lon="6.89559">
        <ele>2565.6</ele>
        <time>2015-08-23T09:06:02Z</time>
      </trkpt>
      <trkpt lat="45.40607" lon="6.89557">
        <ele>2565.5</ele>
        <time>2015-08-23T09:06:03Z</time>
      </trkpt>
      <trkpt lat="45.40605" lon="6.89555">
        <ele>2565.4</ele>
        <time>2015-08-23T09:06:04Z</time>
      </trkpt>
      <trkpt lat="45.40601" lon="6.89551">
        <ele>2565.3</ele>
        <time>2015-08-23T09:06:06Z</time>
      </trkpt>
      <trkpt lat="45.40598" lon="6.89548">
        <ele>2565.2</ele>
        <time>2015-08-23T09:06:08Z</time>
      </trkpt>
      <trkpt lat="45.40593" lon="6.89546">
        <ele>2564.9</ele>
        <time>2015-08-23T09:06:10Z</time>
      </trkpt>
      <trkpt lat="45.40589" lon="6.89542">
        <ele>2564.6</ele>
        <time>2015-08-23T09:06:12Z</time>
      </trkpt>
      <trkpt lat="45.40585" lon="6.89539">
        <ele>2564.4</ele>
        <time>2015-08-23T09:06:14Z</time>
      </trkpt>
      <trkpt lat="45.4058" lon="6.89534">
        <ele>2564.2</ele>
        <time>2015-08-23T09:06:16Z</time>
      </trkpt>
      <trkpt lat="45.40578" lon="6.89532">
        <ele>2564.1</ele>
        <time>2015-08-23T09:06:17Z</time>
      </trkpt>
      <trkpt lat="45.40575" lon="6.8953">
        <ele>2564</ele>
        <time>2015-08-23T09:06:18Z</time>
      </trkpt>
      <trkpt lat="45.40573" lon="6.89528">
        <ele>2563.9</ele>
        <time>2015-08-23T09:06:19Z</time>
      </trkpt>
      <trkpt lat="45.40571" lon="6.89525">
        <ele>2564</ele>
        <time>2015-08-23T09:06:20Z</time>
      </trkpt>
      <trkpt lat="45.40569" lon="6.89523">
        <ele>2564</ele>
        <time>2015-08-23T09:06:21Z</time>
      </trkpt>
      <trkpt lat="45.40567" lon="6.8952">
        <ele>2564.1</ele>
        <time>2015-08-23T09:06:22Z</time>
      </trkpt>
      <trkpt lat="45.40565" lon="6.89515">
        <ele>2564.4</ele>
        <time>2015-08-23T09:06:24Z</time>
      </trkpt>
      <trkpt lat="45.40563" lon="6.8951">
        <ele>2564.7</ele>
        <time>2015-08-23T09:06:26Z</time>
      </trkpt>
      <trkpt lat="45.40564" lon="6.89515">
        <ele>2564.3</ele>
        <time>2015-08-23T09:06:28Z</time>
      </trkpt>
      <trkpt lat="45.40563" lon="6.89521">
        <ele>2563.5</ele>
        <time>2015-08-23T09:07:10Z</time>
      </trkpt>
      <trkpt lat="45.4056" lon="6.8952">
        <ele>2563.3</ele>
        <time>2015-08-23T09:07:12Z</time>
      </trkpt>
      <trkpt lat="45.40556" lon="6.89516">
        <ele>2563.3</ele>
        <time>2015-08-23T09:07:14Z</time>
      </trkpt>
      <trkpt lat="45.40554" lon="6.89513">
        <ele>2563.5</ele>
        <time>2015-08-23T09:07:15Z</time>
      </trkpt>
      <trkpt lat="45.40549" lon="6.89507">
        <ele>2563.6</ele>
        <time>2015-08-23T09:07:17Z</time>
      </trkpt>
      <trkpt lat="45.40546" lon="6.89505">
        <ele>2563.6</ele>
        <time>2015-08-23T09:07:18Z</time>
      </trkpt>
      <trkpt lat="45.40544" lon="6.89501">
        <ele>2563.6</ele>
        <time>2015-08-23T09:07:19Z</time>
      </trkpt>
      <trkpt lat="45.40541" lon="6.89497">
        <ele>2563.7</ele>
        <time>2015-08-23T09:07:20Z</time>
      </trkpt>
      <trkpt lat="45.40538" lon="6.89492">
        <ele>2563.8</ele>
        <time>2015-08-23T09:07:21Z</time>
      </trkpt>
      <trkpt lat="45.40536" lon="6.89488">
        <ele>2564</ele>
        <time>2015-08-23T09:07:22Z</time>
      </trkpt>
      <trkpt lat="45.40534" lon="6.89485">
        <ele>2564.2</ele>
        <time>2015-08-23T09:07:23Z</time>
      </trkpt>
      <trkpt lat="45.4053" lon="6.8948">
        <ele>2564.3</ele>
        <time>2015-08-23T09:07:25Z</time>
      </trkpt>
      <trkpt lat="45.40527" lon="6.89478">
        <ele>2564.4</ele>
        <time>2015-08-23T09:07:26Z</time>
      </trkpt>
      <trkpt lat="45.40524" lon="6.89475">
        <ele>2564.5</ele>
        <time>2015-08-23T09:07:27Z</time>
      </trkpt>
      <trkpt lat="45.40522" lon="6.89473">
        <ele>2564.4</ele>
        <time>2015-08-23T09:07:28Z</time>
      </trkpt>
      <trkpt lat="45.40519" lon="6.89471">
        <ele>2564.4</ele>
        <time>2015-08-23T09:07:29Z</time>
      </trkpt>
      <trkpt lat="45.40516" lon="6.8947">
        <ele>2564.2</ele>
        <time>2015-08-23T09:07:30Z</time>
      </trkpt>
      <trkpt lat="45.40511" lon="6.89467">
        <ele>2564</ele>
        <time>2015-08-23T09:07:32Z</time>
      </trkpt>
      <trkpt lat="45.40507" lon="6.89466">
        <ele>2563.7</ele>
        <time>2015-08-23T09:07:34Z</time>
      </trkpt>
      <trkpt lat="45.40503" lon="6.89464">
        <ele>2563.5</ele>
        <time>2015-08-23T09:07:36Z</time>
      </trkpt>
      <trkpt lat="45.40498" lon="6.89461">
        <ele>2559</ele>
        <time>2015-08-23T09:07:38Z</time>
      </trkpt>
      <trkpt lat="45.40495" lon="6.8946">
        <ele>2559</ele>
        <time>2015-08-23T09:07:39Z</time>
      </trkpt>
      <trkpt lat="45.40492" lon="6.89459">
        <ele>2559</ele>
        <time>2015-08-23T09:07:40Z</time>
      </trkpt>
      <trkpt lat="45.40489" lon="6.89458">
        <ele>2559</ele>
        <time>2015-08-23T09:07:41Z</time>
      </trkpt>
      <trkpt lat="45.40486" lon="6.89458">
        <ele>2559</ele>
        <time>2015-08-23T09:07:42Z</time>
      </trkpt>
      <trkpt lat="45.40484" lon="6.8946">
        <ele>2559</ele>
        <time>2015-08-23T09:07:43Z</time>
      </trkpt>
      <trkpt lat="45.40481" lon="6.89461">
        <ele>2559</ele>
        <time>2015-08-23T09:07:44Z</time>
      </trkpt>
      <trkpt lat="45.40478" lon="6.89461">
        <ele>2559</ele>
        <time>2015-08-23T09:07:45Z</time>
      </trkpt>
      <trkpt lat="45.40474" lon="6.89461">
        <ele>2559</ele>
        <time>2015-08-23T09:07:46Z</time>
      </trkpt>
      <trkpt lat="45.40472" lon="6.89458">
        <ele>2559</ele>
        <time>2015-08-23T09:07:47Z</time>
      </trkpt>
      <trkpt lat="45.4047" lon="6.89456">
        <ele>2559</ele>
        <time>2015-08-23T09:07:48Z</time>
      </trkpt>
      <trkpt lat="45.40468" lon="6.89451">
        <ele>2559</ele>
        <time>2015-08-23T09:07:49Z</time>
      </trkpt>
      <trkpt lat="45.40468" lon="6.89446">
        <ele>2559</ele>
        <time>2015-08-23T09:07:50Z</time>
      </trkpt>
      <trkpt lat="45.40467" lon="6.89441">
        <ele>2559</ele>
        <time>2015-08-23T09:07:51Z</time>
      </trkpt>
      <trkpt lat="45.40465" lon="6.89436">
        <ele>2559</ele>
        <time>2015-08-23T09:07:52Z</time>
      </trkpt>
      <trkpt lat="45.40464" lon="6.89432">
        <ele>2559</ele>
        <time>2015-08-23T09:07:53Z</time>
      </trkpt>
      <trkpt lat="45.4046" lon="6.89424">
        <ele>2559</ele>
        <time>2015-08-23T09:07:55Z</time>
      </trkpt>
      <trkpt lat="45.40457" lon="6.89421">
        <ele>2559</ele>
        <time>2015-08-23T09:07:56Z</time>
      </trkpt>
      <trkpt lat="45.40455" lon="6.89417">
        <ele>2559</ele>
        <time>2015-08-23T09:07:57Z</time>
      </trkpt>
      <trkpt lat="45.40452" lon="6.89414">
        <ele>2559</ele>
        <time>2015-08-23T09:07:58Z</time>
      </trkpt>
      <trkpt lat="45.40449" lon="6.89411">
        <ele>2559</ele>
        <time>2015-08-23T09:07:59Z</time>
      </trkpt>
      <trkpt lat="45.40447" lon="6.89408">
        <ele>2559</ele>
        <time>2015-08-23T09:08:00Z</time>
      </trkpt>
      <trkpt lat="45.40446" lon="6.89402">
        <ele>2559</ele>
        <time>2015-08-23T09:08:02Z</time>
      </trkpt>
      <trkpt lat="45.40445" lon="6.89395">
        <ele>2559</ele>
        <time>2015-08-23T09:08:04Z</time>
      </trkpt>
      <trkpt lat="45.40446" lon="6.89388">
        <ele>2559</ele>
        <time>2015-08-23T09:08:06Z</time>
      </trkpt>
      <trkpt lat="45.40446" lon="6.89384">
        <ele>2559</ele>
        <time>2015-08-23T09:08:07Z</time>
      </trkpt>
      <trkpt lat="45.40444" lon="6.8938">
        <ele>2559</ele>
        <time>2015-08-23T09:08:08Z</time>
      </trkpt>
      <trkpt lat="45.40442" lon="6.89376">
        <ele>2559</ele>
        <time>2015-08-23T09:08:09Z</time>
      </trkpt>
      <trkpt lat="45.4044" lon="6.89371">
        <ele>2559</ele>
        <time>2015-08-23T09:08:10Z</time>
      </trkpt>
      <trkpt lat="45.40438" lon="6.89366">
        <ele>2559</ele>
        <time>2015-08-23T09:08:11Z</time>
      </trkpt>
      <trkpt lat="45.40437" lon="6.89362">
        <ele>2559</ele>
        <time>2015-08-23T09:08:12Z</time>
      </trkpt>
      <trkpt lat="45.40435" lon="6.89356">
        <ele>2559</ele>
        <time>2015-08-23T09:08:13Z</time>
      </trkpt>
      <trkpt lat="45.40435" lon="6.89351">
        <ele>2559</ele>
        <time>2015-08-23T09:08:14Z</time>
      </trkpt>
      <trkpt lat="45.40433" lon="6.89346">
        <ele>2559</ele>
        <time>2015-08-23T09:08:15Z</time>
      </trkpt>
      <trkpt lat="45.40432" lon="6.89342">
        <ele>2559</ele>
        <time>2015-08-23T09:08:16Z</time>
      </trkpt>
      <trkpt lat="45.40429" lon="6.89336">
        <ele>2559</ele>
        <time>2015-08-23T09:08:18Z</time>
      </trkpt>
      <trkpt lat="45.40426" lon="6.89329">
        <ele>2559</ele>
        <time>2015-08-23T09:08:20Z</time>
      </trkpt>
      <trkpt lat="45.40423" lon="6.89321">
        <ele>2558.7</ele>
        <time>2015-08-23T09:08:23Z</time>
      </trkpt>
      <trkpt lat="45.40423" lon="6.89317">
        <ele>2558.7</ele>
        <time>2015-08-23T09:08:26Z</time>
      </trkpt>
      <trkpt lat="45.40425" lon="6.89311">
        <ele>2558.9</ele>
        <time>2015-08-23T09:08:27Z</time>
      </trkpt>
      <trkpt lat="45.40427" lon="6.89305">
        <ele>2559.1</ele>
        <time>2015-08-23T09:08:29Z</time>
      </trkpt>
      <trkpt lat="45.40428" lon="6.89299">
        <ele>2559.3</ele>
        <time>2015-08-23T09:08:31Z</time>
      </trkpt>
      <trkpt lat="45.40429" lon="6.89293">
        <ele>2559.5</ele>
        <time>2015-08-23T09:08:33Z</time>
      </trkpt>
      <trkpt lat="45.40428" lon="6.89287">
        <ele>2559.5</ele>
        <time>2015-08-23T09:08:35Z</time>
      </trkpt>
      <trkpt lat="45.40426" lon="6.89281">
        <ele>2559.2</ele>
        <time>2015-08-23T09:08:37Z</time>
      </trkpt>
      <trkpt lat="45.40423" lon="6.89273">
        <ele>2558.9</ele>
        <time>2015-08-23T09:08:39Z</time>
      </trkpt>
      <trkpt lat="45.4042" lon="6.89268">
        <ele>2558.6</ele>
        <time>2015-08-23T09:08:41Z</time>
      </trkpt>
      <trkpt lat="45.40418" lon="6.89263">
        <ele>2558.2</ele>
        <time>2015-08-23T09:08:43Z</time>
      </trkpt>
      <trkpt lat="45.40417" lon="6.89257">
        <ele>2558.1</ele>
        <time>2015-08-23T09:08:45Z</time>
      </trkpt>
      <trkpt lat="45.40417" lon="6.89251">
        <ele>2557</ele>
        <time>2015-08-23T09:08:47Z</time>
      </trkpt>
      <trkpt lat="45.40415" lon="6.89246">
        <ele>2556</ele>
        <time>2015-08-23T09:08:49Z</time>
      </trkpt>
      <trkpt lat="45.40411" lon="6.89238">
        <ele>2556</ele>
        <time>2015-08-23T09:08:52Z</time>
      </trkpt>
      <trkpt lat="45.4041" lon="6.89234">
        <ele>2556</ele>
        <time>2015-08-23T09:08:54Z</time>
      </trkpt>
      <trkpt lat="45.4041" lon="6.89229">
        <ele>2556</ele>
        <time>2015-08-23T09:08:56Z</time>
      </trkpt>
      <trkpt lat="45.40411" lon="6.89224">
        <ele>2556</ele>
        <time>2015-08-23T09:08:58Z</time>
      </trkpt>
      <trkpt lat="45.4041" lon="6.8922">
        <ele>2556</ele>
        <time>2015-08-23T09:09:00Z</time>
      </trkpt>
      <trkpt lat="45.40408" lon="6.89214">
        <ele>2556</ele>
        <time>2015-08-23T09:09:02Z</time>
      </trkpt>
      <trkpt lat="45.40406" lon="6.89209">
        <ele>2556</ele>
        <time>2015-08-23T09:09:04Z</time>
      </trkpt>
      <trkpt lat="45.40404" lon="6.89203">
        <ele>2555</ele>
        <time>2015-08-23T09:09:06Z</time>
      </trkpt>
      <trkpt lat="45.40402" lon="6.89197">
        <ele>2555</ele>
        <time>2015-08-23T09:09:08Z</time>
      </trkpt>
      <trkpt lat="45.404" lon="6.89192">
        <ele>2555</ele>
        <time>2015-08-23T09:09:10Z</time>
      </trkpt>
      <trkpt lat="45.40397" lon="6.89186">
        <ele>2555</ele>
        <time>2015-08-23T09:09:12Z</time>
      </trkpt>
      <trkpt lat="45.40396" lon="6.89182">
        <ele>2555</ele>
        <time>2015-08-23T09:09:13Z</time>
      </trkpt>
      <trkpt lat="45.40396" lon="6.89178">
        <ele>2555</ele>
        <time>2015-08-23T09:09:14Z</time>
      </trkpt>
      <trkpt lat="45.40395" lon="6.89174">
        <ele>2555</ele>
        <time>2015-08-23T09:09:15Z</time>
      </trkpt>
      <trkpt lat="45.40395" lon="6.8917">
        <ele>2555</ele>
        <time>2015-08-23T09:09:16Z</time>
      </trkpt>
      <trkpt lat="45.40395" lon="6.89166">
        <ele>2555</ele>
        <time>2015-08-23T09:09:17Z</time>
      </trkpt>
      <trkpt lat="45.40395" lon="6.89162">
        <ele>2555</ele>
        <time>2015-08-23T09:09:18Z</time>
      </trkpt>
      <trkpt lat="45.40396" lon="6.89158">
        <ele>2555</ele>
        <time>2015-08-23T09:09:19Z</time>
      </trkpt>
      <trkpt lat="45.40395" lon="6.89153">
        <ele>2555</ele>
        <time>2015-08-23T09:09:21Z</time>
      </trkpt>
      <trkpt lat="45.40393" lon="6.89149">
        <ele>2555</ele>
        <time>2015-08-23T09:09:24Z</time>
      </trkpt>
      <trkpt lat="45.40391" lon="6.89146">
        <ele>2555</ele>
        <time>2015-08-23T09:09:26Z</time>
      </trkpt>
      <trkpt lat="45.4039" lon="6.89139">
        <ele>2555</ele>
        <time>2015-08-23T09:09:28Z</time>
      </trkpt>
      <trkpt lat="45.40392" lon="6.89134">
        <ele>2555</ele>
        <time>2015-08-23T09:09:30Z</time>
      </trkpt>
      <trkpt lat="45.40391" lon="6.89129">
        <ele>2555</ele>
        <time>2015-08-23T09:09:34Z</time>
      </trkpt>
      <trkpt lat="45.4039" lon="6.89124">
        <ele>2555</ele>
        <time>2015-08-23T09:09:36Z</time>
      </trkpt>
      <trkpt lat="45.40389" lon="6.89119">
        <ele>2555</ele>
        <time>2015-08-23T09:09:38Z</time>
      </trkpt>
      <trkpt lat="45.40388" lon="6.89115">
        <ele>2555</ele>
        <time>2015-08-23T09:09:43Z</time>
      </trkpt>
      <trkpt lat="45.40387" lon="6.89111">
        <ele>2555</ele>
        <time>2015-08-23T09:09:47Z</time>
      </trkpt>
      <trkpt lat="45.40385" lon="6.89106">
        <ele>2555</ele>
        <time>2015-08-23T09:09:51Z</time>
      </trkpt>
      <trkpt lat="45.40382" lon="6.89101">
        <ele>2555</ele>
        <time>2015-08-23T09:09:53Z</time>
      </trkpt>
      <trkpt lat="45.40381" lon="6.89096">
        <ele>2555</ele>
        <time>2015-08-23T09:09:55Z</time>
      </trkpt>
      <trkpt lat="45.40378" lon="6.89092">
        <ele>2555</ele>
        <time>2015-08-23T09:09:57Z</time>
      </trkpt>
      <trkpt lat="45.40375" lon="6.89088">
        <ele>2555</ele>
        <time>2015-08-23T09:09:59Z</time>
      </trkpt>
      <trkpt lat="45.40373" lon="6.89085">
        <ele>2555</ele>
        <time>2015-08-23T09:10:01Z</time>
      </trkpt>
      <trkpt lat="45.40369" lon="6.8908">
        <ele>2556</ele>
        <time>2015-08-23T09:10:03Z</time>
      </trkpt>
      <trkpt lat="45.40366" lon="6.89076">
        <ele>2556</ele>
        <time>2015-08-23T09:10:05Z</time>
      </trkpt>
      <trkpt lat="45.40365" lon="6.89072">
        <ele>2556</ele>
        <time>2015-08-23T09:10:06Z</time>
      </trkpt>
      <trkpt lat="45.40364" lon="6.89068">
        <ele>2556</ele>
        <time>2015-08-23T09:10:08Z</time>
      </trkpt>
      <trkpt lat="45.40361" lon="6.89062">
        <ele>2556</ele>
        <time>2015-08-23T09:10:09Z</time>
      </trkpt>
      <trkpt lat="45.40359" lon="6.89057">
        <ele>2556</ele>
        <time>2015-08-23T09:10:11Z</time>
      </trkpt>
      <trkpt lat="45.40357" lon="6.89054">
        <ele>2557</ele>
        <time>2015-08-23T09:10:13Z</time>
      </trkpt>
      <trkpt lat="45.40356" lon="6.89048">
        <ele>2557</ele>
        <time>2015-08-23T09:10:19Z</time>
      </trkpt>
      <trkpt lat="45.40356" lon="6.89043">
        <ele>2557</ele>
        <time>2015-08-23T09:10:20Z</time>
      </trkpt>
      <trkpt lat="45.40356" lon="6.89039">
        <ele>2557</ele>
        <time>2015-08-23T09:10:21Z</time>
      </trkpt>
      <trkpt lat="45.40355" lon="6.89034">
        <ele>2557</ele>
        <time>2015-08-23T09:10:22Z</time>
      </trkpt>
      <trkpt lat="45.40355" lon="6.89029">
        <ele>2557</ele>
        <time>2015-08-23T09:10:23Z</time>
      </trkpt>
      <trkpt lat="45.40354" lon="6.89025">
        <ele>2558</ele>
        <time>2015-08-23T09:10:24Z</time>
      </trkpt>
      <trkpt lat="45.40354" lon="6.89021">
        <ele>2558</ele>
        <time>2015-08-23T09:10:25Z</time>
      </trkpt>
      <trkpt lat="45.40354" lon="6.89013">
        <ele>2558</ele>
        <time>2015-08-23T09:10:27Z</time>
      </trkpt>
      <trkpt lat="45.40354" lon="6.89008">
        <ele>2558</ele>
        <time>2015-08-23T09:10:28Z</time>
      </trkpt>
      <trkpt lat="45.40354" lon="6.89004">
        <ele>2558</ele>
        <time>2015-08-23T09:10:29Z</time>
      </trkpt>
      <trkpt lat="45.40354" lon="6.88999">
        <ele>2559</ele>
        <time>2015-08-23T09:10:30Z</time>
      </trkpt>
      <trkpt lat="45.40352" lon="6.88994">
        <ele>2559</ele>
        <time>2015-08-23T09:10:32Z</time>
      </trkpt>
      <trkpt lat="45.40349" lon="6.8899">
        <ele>2559</ele>
        <time>2015-08-23T09:10:34Z</time>
      </trkpt>
      <trkpt lat="45.40346" lon="6.88987">
        <ele>2559</ele>
        <time>2015-08-23T09:10:36Z</time>
      </trkpt>
      <trkpt lat="45.40343" lon="6.88982">
        <ele>2559</ele>
        <time>2015-08-23T09:10:38Z</time>
      </trkpt>
      <trkpt lat="45.40341" lon="6.88976">
        <ele>2559</ele>
        <time>2015-08-23T09:10:40Z</time>
      </trkpt>
      <trkpt lat="45.40339" lon="6.88972">
        <ele>2559</ele>
        <time>2015-08-23T09:10:42Z</time>
      </trkpt>
      <trkpt lat="45.40337" lon="6.88968">
        <ele>2559</ele>
        <time>2015-08-23T09:10:44Z</time>
      </trkpt>
      <trkpt lat="45.40334" lon="6.88966">
        <ele>2559</ele>
        <time>2015-08-23T09:10:46Z</time>
      </trkpt>
      <trkpt lat="45.40332" lon="6.8896">
        <ele>2556</ele>
        <time>2015-08-23T09:10:49Z</time>
      </trkpt>
      <trkpt lat="45.40331" lon="6.88955">
        <ele>2556</ele>
        <time>2015-08-23T09:10:52Z</time>
      </trkpt>
      <trkpt lat="45.4033" lon="6.88951">
        <ele>2556</ele>
        <time>2015-08-23T09:10:57Z</time>
      </trkpt>
      <trkpt lat="45.40327" lon="6.88947">
        <ele>2556</ele>
        <time>2015-08-23T09:10:59Z</time>
      </trkpt>
      <trkpt lat="45.40324" lon="6.88944">
        <ele>2556</ele>
        <time>2015-08-23T09:11:01Z</time>
      </trkpt>
      <trkpt lat="45.40321" lon="6.8894">
        <ele>2555</ele>
        <time>2015-08-23T09:11:04Z</time>
      </trkpt>
      <trkpt lat="45.40319" lon="6.88934">
        <ele>2555</ele>
        <time>2015-08-23T09:11:05Z</time>
      </trkpt>
      <trkpt lat="45.40318" lon="6.88927">
        <ele>2555</ele>
        <time>2015-08-23T09:11:07Z</time>
      </trkpt>
      <trkpt lat="45.40317" lon="6.8892">
        <ele>2555</ele>
        <time>2015-08-23T09:11:09Z</time>
      </trkpt>
      <trkpt lat="45.40317" lon="6.88913">
        <ele>2556</ele>
        <time>2015-08-23T09:11:11Z</time>
      </trkpt>
      <trkpt lat="45.40317" lon="6.88909">
        <ele>2556</ele>
        <time>2015-08-23T09:11:12Z</time>
      </trkpt>
      <trkpt lat="45.40315" lon="6.88903">
        <ele>2556</ele>
        <time>2015-08-23T09:11:14Z</time>
      </trkpt>
      <trkpt lat="45.40314" lon="6.88898">
        <ele>2556</ele>
        <time>2015-08-23T09:11:16Z</time>
      </trkpt>
      <trkpt lat="45.40312" lon="6.88893">
        <ele>2556</ele>
        <time>2015-08-23T09:11:18Z</time>
      </trkpt>
      <trkpt lat="45.4031" lon="6.88887">
        <ele>2556</ele>
        <time>2015-08-23T09:11:20Z</time>
      </trkpt>
      <trkpt lat="45.40307" lon="6.88882">
        <ele>2556</ele>
        <time>2015-08-23T09:11:22Z</time>
      </trkpt>
      <trkpt lat="45.40304" lon="6.88877">
        <ele>2556</ele>
        <time>2015-08-23T09:11:24Z</time>
      </trkpt>
      <trkpt lat="45.403" lon="6.88876">
        <ele>2556</ele>
        <time>2015-08-23T09:11:26Z</time>
      </trkpt>
      <trkpt lat="45.40295" lon="6.88874">
        <ele>2556</ele>
        <time>2015-08-23T09:11:28Z</time>
      </trkpt>
      <trkpt lat="45.40292" lon="6.88873">
        <ele>2556</ele>
        <time>2015-08-23T09:11:29Z</time>
      </trkpt>
      <trkpt lat="45.40289" lon="6.88871">
        <ele>2556</ele>
        <time>2015-08-23T09:11:31Z</time>
      </trkpt>
      <trkpt lat="45.40286" lon="6.88867">
        <ele>2556</ele>
        <time>2015-08-23T09:11:32Z</time>
      </trkpt>
      <trkpt lat="45.40284" lon="6.88861">
        <ele>2556</ele>
        <time>2015-08-23T09:11:34Z</time>
      </trkpt>
      <trkpt lat="45.40285" lon="6.88857">
        <ele>2556</ele>
        <time>2015-08-23T09:11:35Z</time>
      </trkpt>
      <trkpt lat="45.40284" lon="6.88852">
        <ele>2557</ele>
        <time>2015-08-23T09:11:36Z</time>
      </trkpt>
      <trkpt lat="45.40284" lon="6.88848">
        <ele>2557</ele>
        <time>2015-08-23T09:11:37Z</time>
      </trkpt>
      <trkpt lat="45.40283" lon="6.88844">
        <ele>2557</ele>
        <time>2015-08-23T09:11:38Z</time>
      </trkpt>
      <trkpt lat="45.40281" lon="6.8884">
        <ele>2557</ele>
        <time>2015-08-23T09:11:39Z</time>
      </trkpt>
      <trkpt lat="45.4028" lon="6.88836">
        <ele>2557</ele>
        <time>2015-08-23T09:11:40Z</time>
      </trkpt>
      <trkpt lat="45.40277" lon="6.8883">
        <ele>2558</ele>
        <time>2015-08-23T09:11:42Z</time>
      </trkpt>
      <trkpt lat="45.40275" lon="6.88827">
        <ele>2558</ele>
        <time>2015-08-23T09:11:44Z</time>
      </trkpt>
      <trkpt lat="45.4027" lon="6.88819">
        <ele>2558</ele>
        <time>2015-08-23T09:11:48Z</time>
      </trkpt>
      <trkpt lat="45.40268" lon="6.88814">
        <ele>2558</ele>
        <time>2015-08-23T09:11:49Z</time>
      </trkpt>
      <trkpt lat="45.40268" lon="6.88809">
        <ele>2558</ele>
        <time>2015-08-23T09:11:50Z</time>
      </trkpt>
      <trkpt lat="45.40266" lon="6.88805">
        <ele>2558</ele>
        <time>2015-08-23T09:11:52Z</time>
      </trkpt>
      <trkpt lat="45.40264" lon="6.88799">
        <ele>2558</ele>
        <time>2015-08-23T09:11:54Z</time>
      </trkpt>
      <trkpt lat="45.40261" lon="6.88794">
        <ele>2558</ele>
        <time>2015-08-23T09:11:56Z</time>
      </trkpt>
      <trkpt lat="45.4026" lon="6.88788">
        <ele>2558</ele>
        <time>2015-08-23T09:11:58Z</time>
      </trkpt>
      <trkpt lat="45.40258" lon="6.88785">
        <ele>2558</ele>
        <time>2015-08-23T09:12:00Z</time>
      </trkpt>
      <trkpt lat="45.40257" lon="6.8878">
        <ele>2558</ele>
        <time>2015-08-23T09:12:02Z</time>
      </trkpt>
      <trkpt lat="45.40253" lon="6.88777">
        <ele>2558</ele>
        <time>2015-08-23T09:12:05Z</time>
      </trkpt>
      <trkpt lat="45.4025" lon="6.88772">
        <ele>2555</ele>
        <time>2015-08-23T09:12:07Z</time>
      </trkpt>
      <trkpt lat="45.40247" lon="6.88767">
        <ele>2555</ele>
        <time>2015-08-23T09:12:09Z</time>
      </trkpt>
      <trkpt lat="45.40243" lon="6.88762">
        <ele>2554</ele>
        <time>2015-08-23T09:12:11Z</time>
      </trkpt>
      <trkpt lat="45.40242" lon="6.88759">
        <ele>2554</ele>
        <time>2015-08-23T09:12:12Z</time>
      </trkpt>
      <trkpt lat="45.40238" lon="6.88753">
        <ele>2554</ele>
        <time>2015-08-23T09:12:14Z</time>
      </trkpt>
      <trkpt lat="45.40235" lon="6.88749">
        <ele>2555</ele>
        <time>2015-08-23T09:12:16Z</time>
      </trkpt>
      <trkpt lat="45.40233" lon="6.88744">
        <ele>2555</ele>
        <time>2015-08-23T09:12:18Z</time>
      </trkpt>
      <trkpt lat="45.4023" lon="6.8874">
        <ele>2555</ele>
        <time>2015-08-23T09:12:20Z</time>
      </trkpt>
      <trkpt lat="45.40227" lon="6.88737">
        <ele>2555</ele>
        <time>2015-08-23T09:12:23Z</time>
      </trkpt>
      <trkpt lat="45.40225" lon="6.8873">
        <ele>2555</ele>
        <time>2015-08-23T09:12:25Z</time>
      </trkpt>
      <trkpt lat="45.40224" lon="6.88726">
        <ele>2555</ele>
        <time>2015-08-23T09:12:26Z</time>
      </trkpt>
      <trkpt lat="45.40223" lon="6.88719">
        <ele>2555</ele>
        <time>2015-08-23T09:12:28Z</time>
      </trkpt>
      <trkpt lat="45.40221" lon="6.88715">
        <ele>2555</ele>
        <time>2015-08-23T09:12:29Z</time>
      </trkpt>
      <trkpt lat="45.4022" lon="6.88703">
        <ele>2556</ele>
        <time>2015-08-23T09:12:30Z</time>
      </trkpt>
      <trkpt lat="45.40219" lon="6.88698">
        <ele>2556</ele>
        <time>2015-08-23T09:12:31Z</time>
      </trkpt>
      <trkpt lat="45.40219" lon="6.88694">
        <ele>2556</ele>
        <time>2015-08-23T09:12:32Z</time>
      </trkpt>
      <trkpt lat="45.4022" lon="6.8869">
        <ele>2556</ele>
        <time>2015-08-23T09:12:33Z</time>
      </trkpt>
      <trkpt lat="45.40221" lon="6.88686">
        <ele>2556</ele>
        <time>2015-08-23T09:12:34Z</time>
      </trkpt>
      <trkpt lat="45.40223" lon="6.8868">
        <ele>2556</ele>
        <time>2015-08-23T09:12:36Z</time>
      </trkpt>
      <trkpt lat="45.4022" lon="6.88676">
        <ele>2556</ele>
        <time>2015-08-23T09:12:38Z</time>
      </trkpt>
      <trkpt lat="45.40217" lon="6.8867">
        <ele>2556</ele>
        <time>2015-08-23T09:12:40Z</time>
      </trkpt>
      <trkpt lat="45.40212" lon="6.88668">
        <ele>2556</ele>
        <time>2015-08-23T09:12:42Z</time>
      </trkpt>
      <trkpt lat="45.40208" lon="6.88665">
        <ele>2558</ele>
        <time>2015-08-23T09:12:45Z</time>
      </trkpt>
      <trkpt lat="45.40204" lon="6.88662">
        <ele>2558</ele>
        <time>2015-08-23T09:12:46Z</time>
      </trkpt>
      <trkpt lat="45.402" lon="6.88659">
        <ele>2558</ele>
        <time>2015-08-23T09:12:48Z</time>
      </trkpt>
      <trkpt lat="45.40198" lon="6.88657">
        <ele>2558</ele>
        <time>2015-08-23T09:12:49Z</time>
      </trkpt>
      <trkpt lat="45.40195" lon="6.88655">
        <ele>2558</ele>
        <time>2015-08-23T09:12:51Z</time>
      </trkpt>
      <trkpt lat="45.40189" lon="6.88647">
        <ele>2558</ele>
        <time>2015-08-23T09:12:53Z</time>
      </trkpt>
      <trkpt lat="45.40187" lon="6.88644">
        <ele>2558</ele>
        <time>2015-08-23T09:12:54Z</time>
      </trkpt>
      <trkpt lat="45.40185" lon="6.88641">
        <ele>2558</ele>
        <time>2015-08-23T09:12:55Z</time>
      </trkpt>
      <trkpt lat="45.40181" lon="6.88635">
        <ele>2558</ele>
        <time>2015-08-23T09:12:57Z</time>
      </trkpt>
      <trkpt lat="45.40178" lon="6.88632">
        <ele>2558</ele>
        <time>2015-08-23T09:12:58Z</time>
      </trkpt>
      <trkpt lat="45.40174" lon="6.88628">
        <ele>2558</ele>
        <time>2015-08-23T09:13:00Z</time>
      </trkpt>
      <trkpt lat="45.40167" lon="6.88623">
        <ele>2558</ele>
        <time>2015-08-23T09:13:03Z</time>
      </trkpt>
      <trkpt lat="45.40164" lon="6.88621">
        <ele>2557</ele>
        <time>2015-08-23T09:13:05Z</time>
      </trkpt>
      <trkpt lat="45.40159" lon="6.8862">
        <ele>2557</ele>
        <time>2015-08-23T09:13:07Z</time>
      </trkpt>
      <trkpt lat="45.40154" lon="6.88619">
        <ele>2557</ele>
        <time>2015-08-23T09:13:09Z</time>
      </trkpt>
      <trkpt lat="45.4015" lon="6.88619">
        <ele>2556</ele>
        <time>2015-08-23T09:13:11Z</time>
      </trkpt>
      <trkpt lat="45.40147" lon="6.8862">
        <ele>2556</ele>
        <time>2015-08-23T09:13:14Z</time>
      </trkpt>
      <trkpt lat="45.40144" lon="6.88622">
        <ele>2556</ele>
        <time>2015-08-23T09:13:16Z</time>
      </trkpt>
      <trkpt lat="45.40142" lon="6.88621">
        <ele>2556</ele>
        <time>2015-08-23T09:13:21Z</time>
      </trkpt>
      <trkpt lat="45.40138" lon="6.88619">
        <ele>2556</ele>
        <time>2015-08-23T09:13:24Z</time>
      </trkpt>
      <trkpt lat="45.40135" lon="6.88618">
        <ele>2556</ele>
        <time>2015-08-23T09:13:26Z</time>
      </trkpt>
      <trkpt lat="45.40132" lon="6.88617">
        <ele>2556</ele>
        <time>2015-08-23T09:13:28Z</time>
      </trkpt>
      <trkpt lat="45.40128" lon="6.88615">
        <ele>2556</ele>
        <time>2015-08-23T09:13:30Z</time>
      </trkpt>
      <trkpt lat="45.40125" lon="6.88614">
        <ele>2556</ele>
        <time>2015-08-23T09:13:32Z</time>
      </trkpt>
      <trkpt lat="45.4012" lon="6.88614">
        <ele>2556</ele>
        <time>2015-08-23T09:13:34Z</time>
      </trkpt>
      <trkpt lat="45.40115" lon="6.88614">
        <ele>2556</ele>
        <time>2015-08-23T09:13:36Z</time>
      </trkpt>
      <trkpt lat="45.40112" lon="6.88615">
        <ele>2556</ele>
        <time>2015-08-23T09:13:37Z</time>
      </trkpt>
      <trkpt lat="45.40107" lon="6.88619">
        <ele>2556</ele>
        <time>2015-08-23T09:13:39Z</time>
      </trkpt>
      <trkpt lat="45.40101" lon="6.88623">
        <ele>2556</ele>
        <time>2015-08-23T09:13:41Z</time>
      </trkpt>
      <trkpt lat="45.40098" lon="6.88624">
        <ele>2555</ele>
        <time>2015-08-23T09:13:42Z</time>
      </trkpt>
      <trkpt lat="45.40095" lon="6.88626">
        <ele>2555</ele>
        <time>2015-08-23T09:13:43Z</time>
      </trkpt>
      <trkpt lat="45.40092" lon="6.88627">
        <ele>2555</ele>
        <time>2015-08-23T09:13:44Z</time>
      </trkpt>
      <trkpt lat="45.40088" lon="6.88629">
        <ele>2555</ele>
        <time>2015-08-23T09:13:45Z</time>
      </trkpt>
      <trkpt lat="45.40085" lon="6.8863">
        <ele>2555</ele>
        <time>2015-08-23T09:13:46Z</time>
      </trkpt>
      <trkpt lat="45.40082" lon="6.8863">
        <ele>2554</ele>
        <time>2015-08-23T09:13:47Z</time>
      </trkpt>
      <trkpt lat="45.40077" lon="6.88631">
        <ele>2554</ele>
        <time>2015-08-23T09:13:49Z</time>
      </trkpt>
      <trkpt lat="45.40072" lon="6.8863">
        <ele>2554</ele>
        <time>2015-08-23T09:13:51Z</time>
      </trkpt>
      <trkpt lat="45.40068" lon="6.88628">
        <ele>2554</ele>
        <time>2015-08-23T09:13:54Z</time>
      </trkpt>
      <trkpt lat="45.40063" lon="6.88629">
        <ele>2554</ele>
        <time>2015-08-23T09:13:55Z</time>
      </trkpt>
      <trkpt lat="45.40058" lon="6.88632">
        <ele>2554</ele>
        <time>2015-08-23T09:13:57Z</time>
      </trkpt>
      <trkpt lat="45.40054" lon="6.88634">
        <ele>2554</ele>
        <time>2015-08-23T09:13:59Z</time>
      </trkpt>
      <trkpt lat="45.40052" lon="6.88637">
        <ele>2554</ele>
        <time>2015-08-23T09:14:00Z</time>
      </trkpt>
      <trkpt lat="45.40048" lon="6.88641">
        <ele>2554</ele>
        <time>2015-08-23T09:14:02Z</time>
      </trkpt>
      <trkpt lat="45.40046" lon="6.88643">
        <ele>2554</ele>
        <time>2015-08-23T09:14:03Z</time>
      </trkpt>
      <trkpt lat="45.40041" lon="6.88645">
        <ele>2554</ele>
        <time>2015-08-23T09:14:05Z</time>
      </trkpt>
      <trkpt lat="45.40037" lon="6.88645">
        <ele>2554</ele>
        <time>2015-08-23T09:14:07Z</time>
      </trkpt>
      <trkpt lat="45.40032" lon="6.88644">
        <ele>2554</ele>
        <time>2015-08-23T09:14:09Z</time>
      </trkpt>
      <trkpt lat="45.40029" lon="6.88644">
        <ele>2554</ele>
        <time>2015-08-23T09:14:10Z</time>
      </trkpt>
      <trkpt lat="45.40025" lon="6.88645">
        <ele>2554</ele>
        <time>2015-08-23T09:14:12Z</time>
      </trkpt>
      <trkpt lat="45.40021" lon="6.88646">
        <ele>2554</ele>
        <time>2015-08-23T09:14:14Z</time>
      </trkpt>
      <trkpt lat="45.40019" lon="6.88649">
        <ele>2554</ele>
        <time>2015-08-23T09:14:16Z</time>
      </trkpt>
      <trkpt lat="45.40017" lon="6.88652">
        <ele>2554</ele>
        <time>2015-08-23T09:14:18Z</time>
      </trkpt>
      <trkpt lat="45.40014" lon="6.88653">
        <ele>2554</ele>
        <time>2015-08-23T09:14:21Z</time>
      </trkpt>
      <trkpt lat="45.40011" lon="6.88655">
        <ele>2554</ele>
        <time>2015-08-23T09:14:23Z</time>
      </trkpt>
      <trkpt lat="45.40007" lon="6.88657">
        <ele>2554</ele>
        <time>2015-08-23T09:14:25Z</time>
      </trkpt>
      <trkpt lat="45.40002" lon="6.88659">
        <ele>2554</ele>
        <time>2015-08-23T09:14:27Z</time>
      </trkpt>
      <trkpt lat="45.39997" lon="6.88661">
        <ele>2550</ele>
        <time>2015-08-23T09:14:29Z</time>
      </trkpt>
      <trkpt lat="45.39993" lon="6.88662">
        <ele>2550</ele>
        <time>2015-08-23T09:14:31Z</time>
      </trkpt>
      <trkpt lat="45.3999" lon="6.88667">
        <ele>2551</ele>
        <time>2015-08-23T09:14:33Z</time>
      </trkpt>
      <trkpt lat="45.39987" lon="6.88673">
        <ele>2551</ele>
        <time>2015-08-23T09:14:35Z</time>
      </trkpt>
      <trkpt lat="45.39984" lon="6.88678">
        <ele>2551</ele>
        <time>2015-08-23T09:14:37Z</time>
      </trkpt>
      <trkpt lat="45.3998" lon="6.88684">
        <ele>2551</ele>
        <time>2015-08-23T09:14:39Z</time>
      </trkpt>
      <trkpt lat="45.39977" lon="6.88687">
        <ele>2551</ele>
        <time>2015-08-23T09:14:40Z</time>
      </trkpt>
      <trkpt lat="45.39973" lon="6.88693">
        <ele>2551</ele>
        <time>2015-08-23T09:14:42Z</time>
      </trkpt>
      <trkpt lat="45.39971" lon="6.88695">
        <ele>2551</ele>
        <time>2015-08-23T09:14:43Z</time>
      </trkpt>
      <trkpt lat="45.39967" lon="6.887">
        <ele>2551</ele>
        <time>2015-08-23T09:14:45Z</time>
      </trkpt>
      <trkpt lat="45.39963" lon="6.88705">
        <ele>2550</ele>
        <time>2015-08-23T09:14:48Z</time>
      </trkpt>
      <trkpt lat="45.39957" lon="6.88702">
        <ele>2550</ele>
        <time>2015-08-23T09:14:50Z</time>
      </trkpt>
      <trkpt lat="45.39954" lon="6.88698">
        <ele>2550</ele>
        <time>2015-08-23T09:14:52Z</time>
      </trkpt>
      <trkpt lat="45.39952" lon="6.88695">
        <ele>2550</ele>
        <time>2015-08-23T09:14:53Z</time>
      </trkpt>
      <trkpt lat="45.39949" lon="6.8869">
        <ele>2550</ele>
        <time>2015-08-23T09:14:55Z</time>
      </trkpt>
      <trkpt lat="45.39946" lon="6.88687">
        <ele>2550</ele>
        <time>2015-08-23T09:14:57Z</time>
      </trkpt>
      <trkpt lat="45.39943" lon="6.88685">
        <ele>2550</ele>
        <time>2015-08-23T09:14:59Z</time>
      </trkpt>
      <trkpt lat="45.39943" lon="6.88679">
        <ele>2550</ele>
        <time>2015-08-23T09:15:01Z</time>
      </trkpt>
      <trkpt lat="45.39941" lon="6.88676">
        <ele>2550</ele>
        <time>2015-08-23T09:15:03Z</time>
      </trkpt>
      <trkpt lat="45.39936" lon="6.88674">
        <ele>2550</ele>
        <time>2015-08-23T09:15:05Z</time>
      </trkpt>
      <trkpt lat="45.39933" lon="6.88673">
        <ele>2550</ele>
        <time>2015-08-23T09:15:06Z</time>
      </trkpt>
      <trkpt lat="45.3993" lon="6.88672">
        <ele>2550</ele>
        <time>2015-08-23T09:15:07Z</time>
      </trkpt>
      <trkpt lat="45.39927" lon="6.88671">
        <ele>2550</ele>
        <time>2015-08-23T09:15:08Z</time>
      </trkpt>
      <trkpt lat="45.39924" lon="6.8867">
        <ele>2550</ele>
        <time>2015-08-23T09:15:09Z</time>
      </trkpt>
      <trkpt lat="45.39922" lon="6.88668">
        <ele>2550</ele>
        <time>2015-08-23T09:15:10Z</time>
      </trkpt>
      <trkpt lat="45.39919" lon="6.88666">
        <ele>2550</ele>
        <time>2015-08-23T09:15:11Z</time>
      </trkpt>
      <trkpt lat="45.39916" lon="6.88661">
        <ele>2547</ele>
        <time>2015-08-23T09:15:13Z</time>
      </trkpt>
      <trkpt lat="45.39913" lon="6.88655">
        <ele>2544</ele>
        <time>2015-08-23T09:15:15Z</time>
      </trkpt>
      <trkpt lat="45.3991" lon="6.88651">
        <ele>2542</ele>
        <time>2015-08-23T09:15:17Z</time>
      </trkpt>
      <trkpt lat="45.39905" lon="6.88647">
        <ele>2540</ele>
        <time>2015-08-23T09:15:19Z</time>
      </trkpt>
      <trkpt lat="45.39902" lon="6.88645">
        <ele>2539</ele>
        <time>2015-08-23T09:15:20Z</time>
      </trkpt>
      <trkpt lat="45.399" lon="6.88642">
        <ele>2538</ele>
        <time>2015-08-23T09:15:21Z</time>
      </trkpt>
      <trkpt lat="45.39897" lon="6.88639">
        <ele>2537</ele>
        <time>2015-08-23T09:15:22Z</time>
      </trkpt>
      <trkpt lat="45.39895" lon="6.88636">
        <ele>2537</ele>
        <time>2015-08-23T09:15:23Z</time>
      </trkpt>
      <trkpt lat="45.39893" lon="6.88633">
        <ele>2536</ele>
        <time>2015-08-23T09:15:24Z</time>
      </trkpt>
      <trkpt lat="45.3989" lon="6.8863">
        <ele>2535</ele>
        <time>2015-08-23T09:15:25Z</time>
      </trkpt>
      <trkpt lat="45.39888" lon="6.88627">
        <ele>2534</ele>
        <time>2015-08-23T09:15:26Z</time>
      </trkpt>
      <trkpt lat="45.39886" lon="6.88624">
        <ele>2534</ele>
        <time>2015-08-23T09:15:27Z</time>
      </trkpt>
      <trkpt lat="45.39884" lon="6.88622">
        <ele>2533</ele>
        <time>2015-08-23T09:15:28Z</time>
      </trkpt>
      <trkpt lat="45.39881" lon="6.88619">
        <ele>2533</ele>
        <time>2015-08-23T09:15:29Z</time>
      </trkpt>
      <trkpt lat="45.39877" lon="6.88615">
        <ele>2532</ele>
        <time>2015-08-23T09:15:31Z</time>
      </trkpt>
      <trkpt lat="45.39872" lon="6.88613">
        <ele>2531</ele>
        <time>2015-08-23T09:15:33Z</time>
      </trkpt>
      <trkpt lat="45.39869" lon="6.88613">
        <ele>2531</ele>
        <time>2015-08-23T09:15:34Z</time>
      </trkpt>
      <trkpt lat="45.39864" lon="6.88611">
        <ele>2531</ele>
        <time>2015-08-23T09:15:36Z</time>
      </trkpt>
      <trkpt lat="45.39859" lon="6.88608">
        <ele>2530</ele>
        <time>2015-08-23T09:15:39Z</time>
      </trkpt>
      <trkpt lat="45.39853" lon="6.88607">
        <ele>2530</ele>
        <time>2015-08-23T09:15:41Z</time>
      </trkpt>
      <trkpt lat="45.3985" lon="6.88603">
        <ele>2529</ele>
        <time>2015-08-23T09:15:43Z</time>
      </trkpt>
      <trkpt lat="45.39847" lon="6.88598">
        <ele>2529</ele>
        <time>2015-08-23T09:15:45Z</time>
      </trkpt>
      <trkpt lat="45.39844" lon="6.88592">
        <ele>2528</ele>
        <time>2015-08-23T09:15:47Z</time>
      </trkpt>
      <trkpt lat="45.3984" lon="6.88589">
        <ele>2528</ele>
        <time>2015-08-23T09:15:49Z</time>
      </trkpt>
      <trkpt lat="45.39837" lon="6.88584">
        <ele>2527</ele>
        <time>2015-08-23T09:15:51Z</time>
      </trkpt>
      <trkpt lat="45.39835" lon="6.88582">
        <ele>2527</ele>
        <time>2015-08-23T09:15:52Z</time>
      </trkpt>
      <trkpt lat="45.39831" lon="6.88577">
        <ele>2524</ele>
        <time>2015-08-23T09:15:54Z</time>
      </trkpt>
      <trkpt lat="45.39827" lon="6.88572">
        <ele>2521</ele>
        <time>2015-08-23T09:15:56Z</time>
      </trkpt>
      <trkpt lat="45.39823" lon="6.88567">
        <ele>2519</ele>
        <time>2015-08-23T09:15:58Z</time>
      </trkpt>
      <trkpt lat="45.39822" lon="6.88563">
        <ele>2519</ele>
        <time>2015-08-23T09:15:59Z</time>
      </trkpt>
      <trkpt lat="45.3982" lon="6.88556">
        <ele>2518</ele>
        <time>2015-08-23T09:16:01Z</time>
      </trkpt>
      <trkpt lat="45.39819" lon="6.88549">
        <ele>2517</ele>
        <time>2015-08-23T09:16:03Z</time>
      </trkpt>
      <trkpt lat="45.39818" lon="6.88543">
        <ele>2517</ele>
        <time>2015-08-23T09:16:05Z</time>
      </trkpt>
      <trkpt lat="45.39815" lon="6.88538">
        <ele>2517</ele>
        <time>2015-08-23T09:16:07Z</time>
      </trkpt>
      <trkpt lat="45.39813" lon="6.88532">
        <ele>2517</ele>
        <time>2015-08-23T09:16:09Z</time>
      </trkpt>
      <trkpt lat="45.39813" lon="6.88525">
        <ele>2518</ele>
        <time>2015-08-23T09:16:11Z</time>
      </trkpt>
      <trkpt lat="45.39813" lon="6.88521">
        <ele>2519</ele>
        <time>2015-08-23T09:16:13Z</time>
      </trkpt>
      <trkpt lat="45.39813" lon="6.88516">
        <ele>2520</ele>
        <time>2015-08-23T09:16:16Z</time>
      </trkpt>
      <trkpt lat="45.39812" lon="6.88512">
        <ele>2520</ele>
        <time>2015-08-23T09:16:18Z</time>
      </trkpt>
      <trkpt lat="45.39809" lon="6.88509">
        <ele>2519</ele>
        <time>2015-08-23T09:16:20Z</time>
      </trkpt>
      <trkpt lat="45.39806" lon="6.88506">
        <ele>2518</ele>
        <time>2015-08-23T09:16:22Z</time>
      </trkpt>
      <trkpt lat="45.39803" lon="6.88503">
        <ele>2517</ele>
        <time>2015-08-23T09:16:24Z</time>
      </trkpt>
      <trkpt lat="45.398" lon="6.88501">
        <ele>2516</ele>
        <time>2015-08-23T09:16:26Z</time>
      </trkpt>
      <trkpt lat="45.39797" lon="6.88496">
        <ele>2518</ele>
        <time>2015-08-23T09:16:28Z</time>
      </trkpt>
      <trkpt lat="45.39795" lon="6.88492">
        <ele>2518</ele>
        <time>2015-08-23T09:16:30Z</time>
      </trkpt>
      <trkpt lat="45.39795" lon="6.88486">
        <ele>2518</ele>
        <time>2015-08-23T09:16:32Z</time>
      </trkpt>
      <trkpt lat="45.39795" lon="6.8848">
        <ele>2518</ele>
        <time>2015-08-23T09:16:35Z</time>
      </trkpt>
      <trkpt lat="45.39792" lon="6.8847">
        <ele>2517</ele>
        <time>2015-08-23T09:16:37Z</time>
      </trkpt>
      <trkpt lat="45.3979" lon="6.88465">
        <ele>2517</ele>
        <time>2015-08-23T09:16:39Z</time>
      </trkpt>
      <trkpt lat="45.39785" lon="6.8846">
        <ele>2516</ele>
        <time>2015-08-23T09:16:52Z</time>
      </trkpt>
      <trkpt lat="45.39782" lon="6.88452">
        <ele>2515</ele>
        <time>2015-08-23T09:16:54Z</time>
      </trkpt>
      <trkpt lat="45.39781" lon="6.88447">
        <ele>2515</ele>
        <time>2015-08-23T09:16:55Z</time>
      </trkpt>
      <trkpt lat="45.39779" lon="6.88442">
        <ele>2515</ele>
        <time>2015-08-23T09:16:56Z</time>
      </trkpt>
      <trkpt lat="45.39778" lon="6.88436">
        <ele>2514</ele>
        <time>2015-08-23T09:16:57Z</time>
      </trkpt>
      <trkpt lat="45.39777" lon="6.88431">
        <ele>2513</ele>
        <time>2015-08-23T09:16:58Z</time>
      </trkpt>
      <trkpt lat="45.39775" lon="6.88425">
        <ele>2512</ele>
        <time>2015-08-23T09:16:59Z</time>
      </trkpt>
      <trkpt lat="45.39774" lon="6.88421">
        <ele>2512</ele>
        <time>2015-08-23T09:17:00Z</time>
      </trkpt>
      <trkpt lat="45.39772" lon="6.88417">
        <ele>2511</ele>
        <time>2015-08-23T09:17:01Z</time>
      </trkpt>
      <trkpt lat="45.39771" lon="6.88413">
        <ele>2513</ele>
        <time>2015-08-23T09:17:02Z</time>
      </trkpt>
      <trkpt lat="45.3977" lon="6.88409">
        <ele>2512</ele>
        <time>2015-08-23T09:17:03Z</time>
      </trkpt>
      <trkpt lat="45.39768" lon="6.88405">
        <ele>2512</ele>
        <time>2015-08-23T09:17:04Z</time>
      </trkpt>
      <trkpt lat="45.39767" lon="6.88401">
        <ele>2512</ele>
        <time>2015-08-23T09:17:05Z</time>
      </trkpt>
      <trkpt lat="45.39765" lon="6.88398">
        <ele>2513</ele>
        <time>2015-08-23T09:17:06Z</time>
      </trkpt>
      <trkpt lat="45.39762" lon="6.88392">
        <ele>2513</ele>
        <time>2015-08-23T09:17:08Z</time>
      </trkpt>
      <trkpt lat="45.3976" lon="6.88389">
        <ele>2513</ele>
        <time>2015-08-23T09:17:09Z</time>
      </trkpt>
      <trkpt lat="45.39758" lon="6.88383">
        <ele>2513</ele>
        <time>2015-08-23T09:17:11Z</time>
      </trkpt>
      <trkpt lat="45.39757" lon="6.88379">
        <ele>2514</ele>
        <time>2015-08-23T09:17:13Z</time>
      </trkpt>
      <trkpt lat="45.39755" lon="6.88375">
        <ele>2513</ele>
        <time>2015-08-23T09:17:15Z</time>
      </trkpt>
      <trkpt lat="45.39753" lon="6.88371">
        <ele>2513</ele>
        <time>2015-08-23T09:17:17Z</time>
      </trkpt>
      <trkpt lat="45.3975" lon="6.88368">
        <ele>2513</ele>
        <time>2015-08-23T09:17:19Z</time>
      </trkpt>
      <trkpt lat="45.39746" lon="6.88366">
        <ele>2490</ele>
        <time>2015-08-23T09:17:21Z</time>
      </trkpt>
      <trkpt lat="45.39739" lon="6.88362">
        <ele>2490</ele>
        <time>2015-08-23T09:17:24Z</time>
      </trkpt>
      <trkpt lat="45.39737" lon="6.8836">
        <ele>2490</ele>
        <time>2015-08-23T09:17:25Z</time>
      </trkpt>
      <trkpt lat="45.39734" lon="6.88356">
        <ele>2490</ele>
        <time>2015-08-23T09:17:26Z</time>
      </trkpt>
      <trkpt lat="45.39732" lon="6.88352">
        <ele>2490</ele>
        <time>2015-08-23T09:17:27Z</time>
      </trkpt>
      <trkpt lat="45.3973" lon="6.88349">
        <ele>2490</ele>
        <time>2015-08-23T09:17:28Z</time>
      </trkpt>
      <trkpt lat="45.39728" lon="6.88346">
        <ele>2490</ele>
        <time>2015-08-23T09:17:29Z</time>
      </trkpt>
      <trkpt lat="45.39727" lon="6.88343">
        <ele>2489</ele>
        <time>2015-08-23T09:17:30Z</time>
      </trkpt>
      <trkpt lat="45.39725" lon="6.88339">
        <ele>2489</ele>
        <time>2015-08-23T09:17:31Z</time>
      </trkpt>
      <trkpt lat="45.39722" lon="6.88335">
        <ele>2489</ele>
        <time>2015-08-23T09:17:32Z</time>
      </trkpt>
      <trkpt lat="45.3972" lon="6.88331">
        <ele>2487</ele>
        <time>2015-08-23T09:17:33Z</time>
      </trkpt>
      <trkpt lat="45.39719" lon="6.88326">
        <ele>2486</ele>
        <time>2015-08-23T09:17:34Z</time>
      </trkpt>
      <trkpt lat="45.39718" lon="6.88322">
        <ele>2486</ele>
        <time>2015-08-23T09:17:35Z</time>
      </trkpt>
      <trkpt lat="45.39717" lon="6.88317">
        <ele>2485</ele>
        <time>2015-08-23T09:17:36Z</time>
      </trkpt>
      <trkpt lat="45.39716" lon="6.88311">
        <ele>2485</ele>
        <time>2015-08-23T09:17:37Z</time>
      </trkpt>
      <trkpt lat="45.39714" lon="6.88305">
        <ele>2485</ele>
        <time>2015-08-23T09:17:38Z</time>
      </trkpt>
      <trkpt lat="45.39712" lon="6.88302">
        <ele>2484</ele>
        <time>2015-08-23T09:17:40Z</time>
      </trkpt>
      <trkpt lat="45.39709" lon="6.88297">
        <ele>2483</ele>
        <time>2015-08-23T09:17:42Z</time>
      </trkpt>
      <trkpt lat="45.39707" lon="6.88294">
        <ele>2483</ele>
        <time>2015-08-23T09:17:43Z</time>
      </trkpt>
      <trkpt lat="45.39706" lon="6.8829">
        <ele>2483</ele>
        <time>2015-08-23T09:17:44Z</time>
      </trkpt>
      <trkpt lat="45.39705" lon="6.88285">
        <ele>2482</ele>
        <time>2015-08-23T09:17:46Z</time>
      </trkpt>
      <trkpt lat="45.39703" lon="6.88278">
        <ele>2482</ele>
        <time>2015-08-23T09:17:48Z</time>
      </trkpt>
      <trkpt lat="45.39703" lon="6.88274">
        <ele>2482</ele>
        <time>2015-08-23T09:17:49Z</time>
      </trkpt>
      <trkpt lat="45.39702" lon="6.88267">
        <ele>2481</ele>
        <time>2015-08-23T09:17:51Z</time>
      </trkpt>
      <trkpt lat="45.397" lon="6.88262">
        <ele>2481</ele>
        <time>2015-08-23T09:17:53Z</time>
      </trkpt>
      <trkpt lat="45.39698" lon="6.88259">
        <ele>2480</ele>
        <time>2015-08-23T09:17:55Z</time>
      </trkpt>
      <trkpt lat="45.39696" lon="6.88256">
        <ele>2479</ele>
        <time>2015-08-23T09:17:57Z</time>
      </trkpt>
      <trkpt lat="45.39693" lon="6.88252">
        <ele>2479</ele>
        <time>2015-08-23T09:18:00Z</time>
      </trkpt>
      <trkpt lat="45.39693" lon="6.88259">
        <ele>2479</ele>
        <time>2015-08-23T09:18:06Z</time>
      </trkpt>
      <trkpt lat="45.39692" lon="6.88263">
        <ele>2479</ele>
        <time>2015-08-23T09:18:14Z</time>
      </trkpt>
      <trkpt lat="45.39693" lon="6.88268">
        <ele>2479</ele>
        <time>2015-08-23T09:18:16Z</time>
      </trkpt>
      <trkpt lat="45.39695" lon="6.88273">
        <ele>2480</ele>
        <time>2015-08-23T09:18:18Z</time>
      </trkpt>
      <trkpt lat="45.39698" lon="6.88276">
        <ele>2481</ele>
        <time>2015-08-23T09:18:19Z</time>
      </trkpt>
      <trkpt lat="45.397" lon="6.8828">
        <ele>2481</ele>
        <time>2015-08-23T09:18:20Z</time>
      </trkpt>
      <trkpt lat="45.39702" lon="6.88283">
        <ele>2482</ele>
        <time>2015-08-23T09:18:21Z</time>
      </trkpt>
      <trkpt lat="45.39705" lon="6.8829">
        <ele>2483</ele>
        <time>2015-08-23T09:18:23Z</time>
      </trkpt>
      <trkpt lat="45.39706" lon="6.88293">
        <ele>2483</ele>
        <time>2015-08-23T09:18:24Z</time>
      </trkpt>
      <trkpt lat="45.39707" lon="6.88298">
        <ele>2483</ele>
        <time>2015-08-23T09:18:26Z</time>
      </trkpt>
      <trkpt lat="45.39707" lon="6.88304">
        <ele>2483</ele>
        <time>2015-08-23T09:18:29Z</time>
      </trkpt>
      <trkpt lat="45.39707" lon="6.88309">
        <ele>2483</ele>
        <time>2015-08-23T09:18:32Z</time>
      </trkpt>
      <trkpt lat="45.39709" lon="6.88315">
        <ele>2484</ele>
        <time>2015-08-23T09:18:33Z</time>
      </trkpt>
      <trkpt lat="45.39711" lon="6.88319">
        <ele>2484</ele>
        <time>2015-08-23T09:18:35Z</time>
      </trkpt>
      <trkpt lat="45.39712" lon="6.88323">
        <ele>2485</ele>
        <time>2015-08-23T09:18:37Z</time>
      </trkpt>
      <trkpt lat="45.39711" lon="6.88329">
        <ele>2484</ele>
        <time>2015-08-23T09:18:39Z</time>
      </trkpt>
      <trkpt lat="45.39712" lon="6.88334">
        <ele>2486</ele>
        <time>2015-08-23T09:18:41Z</time>
      </trkpt>
      <trkpt lat="45.39714" lon="6.88339">
        <ele>2487</ele>
        <time>2015-08-23T09:18:43Z</time>
      </trkpt>
      <trkpt lat="45.39717" lon="6.88349">
        <ele>2487</ele>
        <time>2015-08-23T09:18:46Z</time>
      </trkpt>
      <trkpt lat="45.39719" lon="6.88353">
        <ele>2487</ele>
        <time>2015-08-23T09:18:47Z</time>
      </trkpt>
      <trkpt lat="45.3972" lon="6.88358">
        <ele>2488</ele>
        <time>2015-08-23T09:18:48Z</time>
      </trkpt>
      <trkpt lat="45.39721" lon="6.88363">
        <ele>2488</ele>
        <time>2015-08-23T09:18:49Z</time>
      </trkpt>
      <trkpt lat="45.39721" lon="6.88367">
        <ele>2487</ele>
        <time>2015-08-23T09:18:50Z</time>
      </trkpt>
      <trkpt lat="45.39721" lon="6.88372">
        <ele>2487</ele>
        <time>2015-08-23T09:18:51Z</time>
      </trkpt>
      <trkpt lat="45.39721" lon="6.88376">
        <ele>2487</ele>
        <time>2015-08-23T09:18:52Z</time>
      </trkpt>
      <trkpt lat="45.3972" lon="6.88383">
        <ele>2487</ele>
        <time>2015-08-23T09:18:54Z</time>
      </trkpt>
      <trkpt lat="45.39716" lon="6.88384">
        <ele>2487</ele>
        <time>2015-08-23T09:18:56Z</time>
      </trkpt>
      <trkpt lat="45.39713" lon="6.88385">
        <ele>2486</ele>
        <time>2015-08-23T09:18:58Z</time>
      </trkpt>
      <trkpt lat="45.39709" lon="6.88383">
        <ele>2486</ele>
        <time>2015-08-23T09:19:00Z</time>
      </trkpt>
      <trkpt lat="45.39705" lon="6.88381">
        <ele>2485</ele>
        <time>2015-08-23T09:19:02Z</time>
      </trkpt>
      <trkpt lat="45.39702" lon="6.88379">
        <ele>2485</ele>
        <time>2015-08-23T09:19:03Z</time>
      </trkpt>
      <trkpt lat="45.39699" lon="6.88377">
        <ele>2484</ele>
        <time>2015-08-23T09:19:04Z</time>
      </trkpt>
      <trkpt lat="45.39696" lon="6.88375">
        <ele>2484</ele>
        <time>2015-08-23T09:19:05Z</time>
      </trkpt>
      <trkpt lat="45.39692" lon="6.88377">
        <ele>2483</ele>
        <time>2015-08-23T09:19:07Z</time>
      </trkpt>
      <trkpt lat="45.3969" lon="6.88379">
        <ele>2483</ele>
        <time>2015-08-23T09:19:09Z</time>
      </trkpt>
      <trkpt lat="45.39688" lon="6.88374">
        <ele>2482</ele>
        <time>2015-08-23T09:19:11Z</time>
      </trkpt>
      <trkpt lat="45.39686" lon="6.88369">
        <ele>2482</ele>
        <time>2015-08-23T09:19:13Z</time>
      </trkpt>
      <trkpt lat="45.39687" lon="6.88362">
        <ele>2482</ele>
        <time>2015-08-23T09:19:15Z</time>
      </trkpt>
      <trkpt lat="45.39689" lon="6.88358">
        <ele>2482</ele>
        <time>2015-08-23T09:19:17Z</time>
      </trkpt>
      <trkpt lat="45.3969" lon="6.88352">
        <ele>2482</ele>
        <time>2015-08-23T09:19:19Z</time>
      </trkpt>
      <trkpt lat="45.3969" lon="6.88345">
        <ele>2481</ele>
        <time>2015-08-23T09:19:21Z</time>
      </trkpt>
      <trkpt lat="45.3969" lon="6.8834">
        <ele>2481</ele>
        <time>2015-08-23T09:19:23Z</time>
      </trkpt>
      <trkpt lat="45.39688" lon="6.88334">
        <ele>2480</ele>
        <time>2015-08-23T09:19:25Z</time>
      </trkpt>
      <trkpt lat="45.39685" lon="6.8833">
        <ele>2478</ele>
        <time>2015-08-23T09:19:27Z</time>
      </trkpt>
      <trkpt lat="45.39681" lon="6.88328">
        <ele>2477</ele>
        <time>2015-08-23T09:19:29Z</time>
      </trkpt>
      <trkpt lat="45.39677" lon="6.88325">
        <ele>2477</ele>
        <time>2015-08-23T09:19:32Z</time>
      </trkpt>
      <trkpt lat="45.39672" lon="6.88322">
        <ele>2476</ele>
        <time>2015-08-23T09:19:33Z</time>
      </trkpt>
      <trkpt lat="45.3967" lon="6.88318">
        <ele>2477</ele>
        <time>2015-08-23T09:19:35Z</time>
      </trkpt>
      <trkpt lat="45.39668" lon="6.88314">
        <ele>2477</ele>
        <time>2015-08-23T09:19:37Z</time>
      </trkpt>
      <trkpt lat="45.39665" lon="6.8831">
        <ele>2468</ele>
        <time>2015-08-23T09:19:39Z</time>
      </trkpt>
      <trkpt lat="45.39663" lon="6.88305">
        <ele>2467</ele>
        <time>2015-08-23T09:19:41Z</time>
      </trkpt>
      <trkpt lat="45.39663" lon="6.88301">
        <ele>2467</ele>
        <time>2015-08-23T09:19:42Z</time>
      </trkpt>
      <trkpt lat="45.39663" lon="6.88297">
        <ele>2466</ele>
        <time>2015-08-23T09:19:43Z</time>
      </trkpt>
      <trkpt lat="45.39662" lon="6.88293">
        <ele>2466</ele>
        <time>2015-08-23T09:19:44Z</time>
      </trkpt>
      <trkpt lat="45.39661" lon="6.88286">
        <ele>2466</ele>
        <time>2015-08-23T09:19:46Z</time>
      </trkpt>
      <trkpt lat="45.3966" lon="6.88282">
        <ele>2466</ele>
        <time>2015-08-23T09:19:47Z</time>
      </trkpt>
      <trkpt lat="45.3966" lon="6.88278">
        <ele>2466</ele>
        <time>2015-08-23T09:19:48Z</time>
      </trkpt>
      <trkpt lat="45.39658" lon="6.88272">
        <ele>2466</ele>
        <time>2015-08-23T09:19:50Z</time>
      </trkpt>
      <trkpt lat="45.39655" lon="6.88266">
        <ele>2466</ele>
        <time>2015-08-23T09:19:52Z</time>
      </trkpt>
      <trkpt lat="45.39653" lon="6.88263">
        <ele>2466</ele>
        <time>2015-08-23T09:19:53Z</time>
      </trkpt>
      <trkpt lat="45.3965" lon="6.88259">
        <ele>2465</ele>
        <time>2015-08-23T09:19:54Z</time>
      </trkpt>
      <trkpt lat="45.39648" lon="6.88256">
        <ele>2465</ele>
        <time>2015-08-23T09:19:55Z</time>
      </trkpt>
      <trkpt lat="45.39647" lon="6.88253">
        <ele>2465</ele>
        <time>2015-08-23T09:19:56Z</time>
      </trkpt>
      <trkpt lat="45.39643" lon="6.88246">
        <ele>2461</ele>
        <time>2015-08-23T09:19:58Z</time>
      </trkpt>
      <trkpt lat="45.39641" lon="6.88241">
        <ele>2461</ele>
        <time>2015-08-23T09:20:00Z</time>
      </trkpt>
      <trkpt lat="45.39637" lon="6.88238">
        <ele>2460</ele>
        <time>2015-08-23T09:20:02Z</time>
      </trkpt>
      <trkpt lat="45.39634" lon="6.88234">
        <ele>2459</ele>
        <time>2015-08-23T09:20:04Z</time>
      </trkpt>
      <trkpt lat="45.39631" lon="6.88229">
        <ele>2459</ele>
        <time>2015-08-23T09:20:06Z</time>
      </trkpt>
      <trkpt lat="45.3963" lon="6.88224">
        <ele>2459</ele>
        <time>2015-08-23T09:20:09Z</time>
      </trkpt>
      <trkpt lat="45.3963" lon="6.88219">
        <ele>2458</ele>
        <time>2015-08-23T09:20:12Z</time>
      </trkpt>
      <trkpt lat="45.39626" lon="6.88217">
        <ele>2458</ele>
        <time>2015-08-23T09:20:15Z</time>
      </trkpt>
      <trkpt lat="45.39622" lon="6.88218">
        <ele>2458</ele>
        <time>2015-08-23T09:20:17Z</time>
      </trkpt>
      <trkpt lat="45.39618" lon="6.88216">
        <ele>2457</ele>
        <time>2015-08-23T09:20:19Z</time>
      </trkpt>
      <trkpt lat="45.39618" lon="6.8821">
        <ele>2457</ele>
        <time>2015-08-23T09:20:21Z</time>
      </trkpt>
      <trkpt lat="45.3962" lon="6.88205">
        <ele>2457</ele>
        <time>2015-08-23T09:20:23Z</time>
      </trkpt>
      <trkpt lat="45.39621" lon="6.88199">
        <ele>2456</ele>
        <time>2015-08-23T09:20:25Z</time>
      </trkpt>
      <trkpt lat="45.39621" lon="6.88193">
        <ele>2456</ele>
        <time>2015-08-23T09:20:27Z</time>
      </trkpt>
      <trkpt lat="45.3962" lon="6.88186">
        <ele>2455</ele>
        <time>2015-08-23T09:20:29Z</time>
      </trkpt>
      <trkpt lat="45.39619" lon="6.88179">
        <ele>2455</ele>
        <time>2015-08-23T09:20:31Z</time>
      </trkpt>
      <trkpt lat="45.39619" lon="6.88175">
        <ele>2455</ele>
        <time>2015-08-23T09:20:32Z</time>
      </trkpt>
      <trkpt lat="45.39618" lon="6.8817">
        <ele>2454</ele>
        <time>2015-08-23T09:20:33Z</time>
      </trkpt>
      <trkpt lat="45.39617" lon="6.88166">
        <ele>2446</ele>
        <time>2015-08-23T09:20:34Z</time>
      </trkpt>
      <trkpt lat="45.39617" lon="6.88159">
        <ele>2445</ele>
        <time>2015-08-23T09:20:36Z</time>
      </trkpt>
      <trkpt lat="45.39616" lon="6.88155">
        <ele>2445</ele>
        <time>2015-08-23T09:20:38Z</time>
      </trkpt>
      <trkpt lat="45.39615" lon="6.8815">
        <ele>2444</ele>
        <time>2015-08-23T09:20:40Z</time>
      </trkpt>
      <trkpt lat="45.39613" lon="6.88146">
        <ele>2444</ele>
        <time>2015-08-23T09:20:42Z</time>
      </trkpt>
      <trkpt lat="45.39612" lon="6.8814">
        <ele>2443</ele>
        <time>2015-08-23T09:20:44Z</time>
      </trkpt>
      <trkpt lat="45.39611" lon="6.88136">
        <ele>2443</ele>
        <time>2015-08-23T09:20:45Z</time>
      </trkpt>
      <trkpt lat="45.39609" lon="6.88131">
        <ele>2442</ele>
        <time>2015-08-23T09:20:46Z</time>
      </trkpt>
      <trkpt lat="45.39608" lon="6.88127">
        <ele>2442</ele>
        <time>2015-08-23T09:20:47Z</time>
      </trkpt>
      <trkpt lat="45.39607" lon="6.88123">
        <ele>2441</ele>
        <time>2015-08-23T09:20:49Z</time>
      </trkpt>
      <trkpt lat="45.39605" lon="6.88119">
        <ele>2440</ele>
        <time>2015-08-23T09:20:50Z</time>
      </trkpt>
      <trkpt lat="45.39603" lon="6.88123">
        <ele>2441</ele>
        <time>2015-08-23T09:20:53Z</time>
      </trkpt>
      <trkpt lat="45.39601" lon="6.88126">
        <ele>2441</ele>
        <time>2015-08-23T09:20:55Z</time>
      </trkpt>
      <trkpt lat="45.39598" lon="6.88129">
        <ele>2441</ele>
        <time>2015-08-23T09:20:57Z</time>
      </trkpt>
      <trkpt lat="45.39598" lon="6.88123">
        <ele>2440</ele>
        <time>2015-08-23T09:21:02Z</time>
      </trkpt>
      <trkpt lat="45.39599" lon="6.88118">
        <ele>2440</ele>
        <time>2015-08-23T09:21:04Z</time>
      </trkpt>
      <trkpt lat="45.39599" lon="6.88112">
        <ele>2439</ele>
        <time>2015-08-23T09:21:06Z</time>
      </trkpt>
      <trkpt lat="45.396" lon="6.88107">
        <ele>2438</ele>
        <time>2015-08-23T09:21:08Z</time>
      </trkpt>
      <trkpt lat="45.39605" lon="6.88102">
        <ele>2438</ele>
        <time>2015-08-23T09:21:10Z</time>
      </trkpt>
      <trkpt lat="45.39608" lon="6.88097">
        <ele>2438</ele>
        <time>2015-08-23T09:21:12Z</time>
      </trkpt>
      <trkpt lat="45.39609" lon="6.88093">
        <ele>2437</ele>
        <time>2015-08-23T09:21:13Z</time>
      </trkpt>
      <trkpt lat="45.3961" lon="6.88088">
        <ele>2437</ele>
        <time>2015-08-23T09:21:14Z</time>
      </trkpt>
      <trkpt lat="45.39611" lon="6.88084">
        <ele>2437</ele>
        <time>2015-08-23T09:21:15Z</time>
      </trkpt>
      <trkpt lat="45.39611" lon="6.88078">
        <ele>2428</ele>
        <time>2015-08-23T09:21:16Z</time>
      </trkpt>
      <trkpt lat="45.3961" lon="6.88073">
        <ele>2428</ele>
        <time>2015-08-23T09:21:17Z</time>
      </trkpt>
      <trkpt lat="45.39609" lon="6.88068">
        <ele>2428</ele>
        <time>2015-08-23T09:21:18Z</time>
      </trkpt>
      <trkpt lat="45.39609" lon="6.88063">
        <ele>2428</ele>
        <time>2015-08-23T09:21:19Z</time>
      </trkpt>
      <trkpt lat="45.39608" lon="6.88058">
        <ele>2427</ele>
        <time>2015-08-23T09:21:20Z</time>
      </trkpt>
      <trkpt lat="45.39607" lon="6.88054">
        <ele>2427</ele>
        <time>2015-08-23T09:21:21Z</time>
      </trkpt>
      <trkpt lat="45.39606" lon="6.88049">
        <ele>2426</ele>
        <time>2015-08-23T09:21:22Z</time>
      </trkpt>
      <trkpt lat="45.39605" lon="6.88045">
        <ele>2426</ele>
        <time>2015-08-23T09:21:23Z</time>
      </trkpt>
      <trkpt lat="45.39603" lon="6.8804">
        <ele>2425</ele>
        <time>2015-08-23T09:21:24Z</time>
      </trkpt>
      <trkpt lat="45.39601" lon="6.88036">
        <ele>2425</ele>
        <time>2015-08-23T09:21:25Z</time>
      </trkpt>
      <trkpt lat="45.396" lon="6.88032">
        <ele>2424</ele>
        <time>2015-08-23T09:21:26Z</time>
      </trkpt>
      <trkpt lat="45.39598" lon="6.88029">
        <ele>2423</ele>
        <time>2015-08-23T09:21:27Z</time>
      </trkpt>
      <trkpt lat="45.39595" lon="6.88025">
        <ele>2422</ele>
        <time>2015-08-23T09:21:28Z</time>
      </trkpt>
      <trkpt lat="45.39594" lon="6.88021">
        <ele>2421</ele>
        <time>2015-08-23T09:21:29Z</time>
      </trkpt>
      <trkpt lat="45.39591" lon="6.88017">
        <ele>2420</ele>
        <time>2015-08-23T09:21:30Z</time>
      </trkpt>
      <trkpt lat="45.39586" lon="6.8801">
        <ele>2417</ele>
        <time>2015-08-23T09:21:33Z</time>
      </trkpt>
      <trkpt lat="45.39582" lon="6.88005">
        <ele>2414</ele>
        <time>2015-08-23T09:21:35Z</time>
      </trkpt>
      <trkpt lat="45.39581" lon="6.88001">
        <ele>2413</ele>
        <time>2015-08-23T09:21:36Z</time>
      </trkpt>
      <trkpt lat="45.39579" lon="6.87998">
        <ele>2412</ele>
        <time>2015-08-23T09:21:37Z</time>
      </trkpt>
      <trkpt lat="45.39578" lon="6.87994">
        <ele>2412</ele>
        <time>2015-08-23T09:21:38Z</time>
      </trkpt>
      <trkpt lat="45.39577" lon="6.87989">
        <ele>2412</ele>
        <time>2015-08-23T09:21:39Z</time>
      </trkpt>
      <trkpt lat="45.39576" lon="6.87985">
        <ele>2412</ele>
        <time>2015-08-23T09:21:40Z</time>
      </trkpt>
      <trkpt lat="45.39575" lon="6.87976">
        <ele>2412</ele>
        <time>2015-08-23T09:21:42Z</time>
      </trkpt>
      <trkpt lat="45.39574" lon="6.87972">
        <ele>2411</ele>
        <time>2015-08-23T09:21:43Z</time>
      </trkpt>
      <trkpt lat="45.39573" lon="6.87968">
        <ele>2411</ele>
        <time>2015-08-23T09:21:44Z</time>
      </trkpt>
      <trkpt lat="45.39571" lon="6.87958">
        <ele>2411</ele>
        <time>2015-08-23T09:21:47Z</time>
      </trkpt>
      <trkpt lat="45.39571" lon="6.87947">
        <ele>2411</ele>
        <time>2015-08-23T09:21:49Z</time>
      </trkpt>
      <trkpt lat="45.39568" lon="6.87943">
        <ele>2411</ele>
        <time>2015-08-23T09:21:50Z</time>
      </trkpt>
      <trkpt lat="45.39566" lon="6.87936">
        <ele>2411</ele>
        <time>2015-08-23T09:21:52Z</time>
      </trkpt>
      <trkpt lat="45.39562" lon="6.87933">
        <ele>2411</ele>
        <time>2015-08-23T09:21:54Z</time>
      </trkpt>
      <trkpt lat="45.39559" lon="6.87928">
        <ele>2410</ele>
        <time>2015-08-23T09:21:56Z</time>
      </trkpt>
      <trkpt lat="45.39557" lon="6.87922">
        <ele>2410</ele>
        <time>2015-08-23T09:21:58Z</time>
      </trkpt>
      <trkpt lat="45.39553" lon="6.87914">
        <ele>2407</ele>
        <time>2015-08-23T09:22:01Z</time>
      </trkpt>
      <trkpt lat="45.39551" lon="6.87908">
        <ele>2407</ele>
        <time>2015-08-23T09:22:02Z</time>
      </trkpt>
      <trkpt lat="45.39549" lon="6.87905">
        <ele>2407</ele>
        <time>2015-08-23T09:22:03Z</time>
      </trkpt>
      <trkpt lat="45.39547" lon="6.87898">
        <ele>2406</ele>
        <time>2015-08-23T09:22:05Z</time>
      </trkpt>
      <trkpt lat="45.39546" lon="6.87894">
        <ele>2406</ele>
        <time>2015-08-23T09:22:06Z</time>
      </trkpt>
      <trkpt lat="45.39545" lon="6.87887">
        <ele>2406</ele>
        <time>2015-08-23T09:22:08Z</time>
      </trkpt>
      <trkpt lat="45.39544" lon="6.8788">
        <ele>2406</ele>
        <time>2015-08-23T09:22:10Z</time>
      </trkpt>
      <trkpt lat="45.39544" lon="6.87873">
        <ele>2406</ele>
        <time>2015-08-23T09:22:12Z</time>
      </trkpt>
      <trkpt lat="45.39543" lon="6.87869">
        <ele>2406</ele>
        <time>2015-08-23T09:22:13Z</time>
      </trkpt>
      <trkpt lat="45.39542" lon="6.87865">
        <ele>2405</ele>
        <time>2015-08-23T09:22:14Z</time>
      </trkpt>
      <trkpt lat="45.39542" lon="6.87861">
        <ele>2405</ele>
        <time>2015-08-23T09:22:15Z</time>
      </trkpt>
      <trkpt lat="45.39541" lon="6.87856">
        <ele>2405</ele>
        <time>2015-08-23T09:22:16Z</time>
      </trkpt>
      <trkpt lat="45.39541" lon="6.87852">
        <ele>2405</ele>
        <time>2015-08-23T09:22:17Z</time>
      </trkpt>
      <trkpt lat="45.39539" lon="6.87845">
        <ele>2405</ele>
        <time>2015-08-23T09:22:19Z</time>
      </trkpt>
      <trkpt lat="45.39538" lon="6.87841">
        <ele>2405</ele>
        <time>2015-08-23T09:22:21Z</time>
      </trkpt>
      <trkpt lat="45.39535" lon="6.87846">
        <ele>2405</ele>
        <time>2015-08-23T09:22:23Z</time>
      </trkpt>
      <trkpt lat="45.39532" lon="6.87849">
        <ele>2405</ele>
        <time>2015-08-23T09:22:24Z</time>
      </trkpt>
      <trkpt lat="45.3953" lon="6.87853">
        <ele>2405</ele>
        <time>2015-08-23T09:22:25Z</time>
      </trkpt>
      <trkpt lat="45.39526" lon="6.87857">
        <ele>2405</ele>
        <time>2015-08-23T09:22:27Z</time>
      </trkpt>
      <trkpt lat="45.39522" lon="6.87858">
        <ele>2405</ele>
        <time>2015-08-23T09:22:29Z</time>
      </trkpt>
      <trkpt lat="45.39519" lon="6.8786">
        <ele>2405</ele>
        <time>2015-08-23T09:22:32Z</time>
      </trkpt>
      <trkpt lat="45.39517" lon="6.87863">
        <ele>2405</ele>
        <time>2015-08-23T09:22:34Z</time>
      </trkpt>
      <trkpt lat="45.39514" lon="6.87864">
        <ele>2405</ele>
        <time>2015-08-23T09:22:36Z</time>
      </trkpt>
      <trkpt lat="45.3951" lon="6.87863">
        <ele>2405</ele>
        <time>2015-08-23T09:22:38Z</time>
      </trkpt>
      <trkpt lat="45.39504" lon="6.8786">
        <ele>2405</ele>
        <time>2015-08-23T09:22:40Z</time>
      </trkpt>
      <trkpt lat="45.39501" lon="6.87857">
        <ele>2405</ele>
        <time>2015-08-23T09:22:41Z</time>
      </trkpt>
      <trkpt lat="45.39498" lon="6.87853">
        <ele>2408</ele>
        <time>2015-08-23T09:22:42Z</time>
      </trkpt>
      <trkpt lat="45.39496" lon="6.87849">
        <ele>2408</ele>
        <time>2015-08-23T09:22:43Z</time>
      </trkpt>
      <trkpt lat="45.39495" lon="6.87845">
        <ele>2407</ele>
        <time>2015-08-23T09:22:44Z</time>
      </trkpt>
      <trkpt lat="45.39493" lon="6.8784">
        <ele>2406</ele>
        <time>2015-08-23T09:22:45Z</time>
      </trkpt>
      <trkpt lat="45.39492" lon="6.87835">
        <ele>2406</ele>
        <time>2015-08-23T09:22:47Z</time>
      </trkpt>
      <trkpt lat="45.3949" lon="6.87826">
        <ele>2405</ele>
        <time>2015-08-23T09:22:48Z</time>
      </trkpt>
      <trkpt lat="45.39489" lon="6.87821">
        <ele>2405</ele>
        <time>2015-08-23T09:22:49Z</time>
      </trkpt>
      <trkpt lat="45.39488" lon="6.87816">
        <ele>2405</ele>
        <time>2015-08-23T09:22:50Z</time>
      </trkpt>
      <trkpt lat="45.39488" lon="6.87812">
        <ele>2406</ele>
        <time>2015-08-23T09:22:51Z</time>
      </trkpt>
      <trkpt lat="45.39487" lon="6.87807">
        <ele>2406</ele>
        <time>2015-08-23T09:22:52Z</time>
      </trkpt>
      <trkpt lat="45.39486" lon="6.87803">
        <ele>2406</ele>
        <time>2015-08-23T09:22:53Z</time>
      </trkpt>
      <trkpt lat="45.39485" lon="6.87799">
        <ele>2406</ele>
        <time>2015-08-23T09:22:54Z</time>
      </trkpt>
      <trkpt lat="45.39483" lon="6.87794">
        <ele>2406</ele>
        <time>2015-08-23T09:22:55Z</time>
      </trkpt>
      <trkpt lat="45.39482" lon="6.87789">
        <ele>2406</ele>
        <time>2015-08-23T09:22:56Z</time>
      </trkpt>
      <trkpt lat="45.39481" lon="6.87784">
        <ele>2406</ele>
        <time>2015-08-23T09:22:57Z</time>
      </trkpt>
      <trkpt lat="45.3948" lon="6.87779">
        <ele>2405</ele>
        <time>2015-08-23T09:22:58Z</time>
      </trkpt>
      <trkpt lat="45.3948" lon="6.87775">
        <ele>2405</ele>
        <time>2015-08-23T09:22:59Z</time>
      </trkpt>
      <trkpt lat="45.39479" lon="6.87771">
        <ele>2405</ele>
        <time>2015-08-23T09:23:00Z</time>
      </trkpt>
      <trkpt lat="45.39477" lon="6.87765">
        <ele>2405</ele>
        <time>2015-08-23T09:23:02Z</time>
      </trkpt>
      <trkpt lat="45.39475" lon="6.8776">
        <ele>2405</ele>
        <time>2015-08-23T09:23:04Z</time>
      </trkpt>
      <trkpt lat="45.39471" lon="6.87756">
        <ele>2405</ele>
        <time>2015-08-23T09:23:06Z</time>
      </trkpt>
      <trkpt lat="45.39469" lon="6.87753">
        <ele>2405</ele>
        <time>2015-08-23T09:23:07Z</time>
      </trkpt>
      <trkpt lat="45.39466" lon="6.87748">
        <ele>2403</ele>
        <time>2015-08-23T09:23:09Z</time>
      </trkpt>
      <trkpt lat="45.39465" lon="6.87741">
        <ele>2403</ele>
        <time>2015-08-23T09:23:11Z</time>
      </trkpt>
      <trkpt lat="45.39466" lon="6.87735">
        <ele>2403</ele>
        <time>2015-08-23T09:23:13Z</time>
      </trkpt>
      <trkpt lat="45.39467" lon="6.8773">
        <ele>2403</ele>
        <time>2015-08-23T09:23:15Z</time>
      </trkpt>
      <trkpt lat="45.39466" lon="6.87725">
        <ele>2403</ele>
        <time>2015-08-23T09:23:17Z</time>
      </trkpt>
      <trkpt lat="45.39466" lon="6.87718">
        <ele>2403</ele>
        <time>2015-08-23T09:23:19Z</time>
      </trkpt>
      <trkpt lat="45.39466" lon="6.87711">
        <ele>2403</ele>
        <time>2015-08-23T09:23:21Z</time>
      </trkpt>
      <trkpt lat="45.39465" lon="6.87706">
        <ele>2403</ele>
        <time>2015-08-23T09:23:22Z</time>
      </trkpt>
      <trkpt lat="45.39464" lon="6.87703">
        <ele>2403</ele>
        <time>2015-08-23T09:23:23Z</time>
      </trkpt>
      <trkpt lat="45.39463" lon="6.87699">
        <ele>2403</ele>
        <time>2015-08-23T09:23:24Z</time>
      </trkpt>
      <trkpt lat="45.39461" lon="6.87696">
        <ele>2403</ele>
        <time>2015-08-23T09:23:25Z</time>
      </trkpt>
      <trkpt lat="45.39459" lon="6.87692">
        <ele>2403</ele>
        <time>2015-08-23T09:23:26Z</time>
      </trkpt>
      <trkpt lat="45.39458" lon="6.87689">
        <ele>2403</ele>
        <time>2015-08-23T09:23:27Z</time>
      </trkpt>
      <trkpt lat="45.39456" lon="6.87686">
        <ele>2403</ele>
        <time>2015-08-23T09:23:28Z</time>
      </trkpt>
      <trkpt lat="45.39454" lon="6.87682">
        <ele>2403</ele>
        <time>2015-08-23T09:23:29Z</time>
      </trkpt>
      <trkpt lat="45.39451" lon="6.87678">
        <ele>2403</ele>
        <time>2015-08-23T09:23:30Z</time>
      </trkpt>
      <trkpt lat="45.39449" lon="6.87673">
        <ele>2403</ele>
        <time>2015-08-23T09:23:31Z</time>
      </trkpt>
      <trkpt lat="45.39447" lon="6.87669">
        <ele>2403</ele>
        <time>2015-08-23T09:23:32Z</time>
      </trkpt>
      <trkpt lat="45.39445" lon="6.87664">
        <ele>2400</ele>
        <time>2015-08-23T09:23:33Z</time>
      </trkpt>
      <trkpt lat="45.39443" lon="6.8766">
        <ele>2400</ele>
        <time>2015-08-23T09:23:34Z</time>
      </trkpt>
      <trkpt lat="45.39441" lon="6.87656">
        <ele>2400</ele>
        <time>2015-08-23T09:23:35Z</time>
      </trkpt>
      <trkpt lat="45.39439" lon="6.87649">
        <ele>2400</ele>
        <time>2015-08-23T09:23:37Z</time>
      </trkpt>
      <trkpt lat="45.39436" lon="6.87644">
        <ele>2400</ele>
        <time>2015-08-23T09:23:40Z</time>
      </trkpt>
      <trkpt lat="45.39433" lon="6.87639">
        <ele>2400</ele>
        <time>2015-08-23T09:23:42Z</time>
      </trkpt>
      <trkpt lat="45.3943" lon="6.87636">
        <ele>2400</ele>
        <time>2015-08-23T09:23:43Z</time>
      </trkpt>
      <trkpt lat="45.39426" lon="6.87632">
        <ele>2399</ele>
        <time>2015-08-23T09:23:45Z</time>
      </trkpt>
      <trkpt lat="45.39422" lon="6.87627">
        <ele>2399</ele>
        <time>2015-08-23T09:23:47Z</time>
      </trkpt>
      <trkpt lat="45.39418" lon="6.87622">
        <ele>2399</ele>
        <time>2015-08-23T09:23:49Z</time>
      </trkpt>
      <trkpt lat="45.39416" lon="6.8762">
        <ele>2401</ele>
        <time>2015-08-23T09:23:50Z</time>
      </trkpt>
      <trkpt lat="45.39413" lon="6.87617">
        <ele>2401</ele>
        <time>2015-08-23T09:23:51Z</time>
      </trkpt>
      <trkpt lat="45.39411" lon="6.87614">
        <ele>2401</ele>
        <time>2015-08-23T09:23:52Z</time>
      </trkpt>
      <trkpt lat="45.39409" lon="6.87611">
        <ele>2401</ele>
        <time>2015-08-23T09:23:53Z</time>
      </trkpt>
      <trkpt lat="45.39405" lon="6.87606">
        <ele>2400</ele>
        <time>2015-08-23T09:23:55Z</time>
      </trkpt>
      <trkpt lat="45.39402" lon="6.87602">
        <ele>2400</ele>
        <time>2015-08-23T09:23:57Z</time>
      </trkpt>
      <trkpt lat="45.394" lon="6.87597">
        <ele>2400</ele>
        <time>2015-08-23T09:23:59Z</time>
      </trkpt>
      <trkpt lat="45.39398" lon="6.87592">
        <ele>2400</ele>
        <time>2015-08-23T09:24:01Z</time>
      </trkpt>
      <trkpt lat="45.39393" lon="6.87588">
        <ele>2400</ele>
        <time>2015-08-23T09:24:03Z</time>
      </trkpt>
      <trkpt lat="45.39391" lon="6.87584">
        <ele>2400</ele>
        <time>2015-08-23T09:24:04Z</time>
      </trkpt>
      <trkpt lat="45.39389" lon="6.87581">
        <ele>2396</ele>
        <time>2015-08-23T09:24:05Z</time>
      </trkpt>
      <trkpt lat="45.39387" lon="6.87578">
        <ele>2396</ele>
        <time>2015-08-23T09:24:06Z</time>
      </trkpt>
      <trkpt lat="45.39385" lon="6.87575">
        <ele>2396</ele>
        <time>2015-08-23T09:24:07Z</time>
      </trkpt>
      <trkpt lat="45.39382" lon="6.87572">
        <ele>2396</ele>
        <time>2015-08-23T09:24:08Z</time>
      </trkpt>
      <trkpt lat="45.39378" lon="6.87567">
        <ele>2396</ele>
        <time>2015-08-23T09:24:10Z</time>
      </trkpt>
      <trkpt lat="45.39374" lon="6.87562">
        <ele>2396</ele>
        <time>2015-08-23T09:24:12Z</time>
      </trkpt>
      <trkpt lat="45.3937" lon="6.87558">
        <ele>2396</ele>
        <time>2015-08-23T09:24:14Z</time>
      </trkpt>
      <trkpt lat="45.39367" lon="6.87554">
        <ele>2396</ele>
        <time>2015-08-23T09:24:16Z</time>
      </trkpt>
      <trkpt lat="45.39363" lon="6.8755">
        <ele>2396</ele>
        <time>2015-08-23T09:24:18Z</time>
      </trkpt>
      <trkpt lat="45.39358" lon="6.87547">
        <ele>2396</ele>
        <time>2015-08-23T09:24:20Z</time>
      </trkpt>
      <trkpt lat="45.39354" lon="6.87543">
        <ele>2396</ele>
        <time>2015-08-23T09:24:22Z</time>
      </trkpt>
      <trkpt lat="45.39352" lon="6.87536">
        <ele>2395</ele>
        <time>2015-08-23T09:24:24Z</time>
      </trkpt>
      <trkpt lat="45.39351" lon="6.87532">
        <ele>2395</ele>
        <time>2015-08-23T09:24:25Z</time>
      </trkpt>
      <trkpt lat="45.39351" lon="6.87528">
        <ele>2395</ele>
        <time>2015-08-23T09:24:26Z</time>
      </trkpt>
      <trkpt lat="45.3935" lon="6.87524">
        <ele>2395</ele>
        <time>2015-08-23T09:24:27Z</time>
      </trkpt>
      <trkpt lat="45.39349" lon="6.8752">
        <ele>2394</ele>
        <time>2015-08-23T09:24:28Z</time>
      </trkpt>
      <trkpt lat="45.39349" lon="6.87516">
        <ele>2394</ele>
        <time>2015-08-23T09:24:29Z</time>
      </trkpt>
      <trkpt lat="45.39348" lon="6.87508">
        <ele>2394</ele>
        <time>2015-08-23T09:24:31Z</time>
      </trkpt>
      <trkpt lat="45.39347" lon="6.87504">
        <ele>2394</ele>
        <time>2015-08-23T09:24:32Z</time>
      </trkpt>
      <trkpt lat="45.39345" lon="6.87498">
        <ele>2392</ele>
        <time>2015-08-23T09:24:34Z</time>
      </trkpt>
      <trkpt lat="45.39343" lon="6.87492">
        <ele>2392</ele>
        <time>2015-08-23T09:24:36Z</time>
      </trkpt>
      <trkpt lat="45.39341" lon="6.87486">
        <ele>2392</ele>
        <time>2015-08-23T09:24:38Z</time>
      </trkpt>
      <trkpt lat="45.39339" lon="6.87481">
        <ele>2391</ele>
        <time>2015-08-23T09:24:40Z</time>
      </trkpt>
      <trkpt lat="45.39338" lon="6.87475">
        <ele>2391</ele>
        <time>2015-08-23T09:24:42Z</time>
      </trkpt>
      <trkpt lat="45.39338" lon="6.8747">
        <ele>2391</ele>
        <time>2015-08-23T09:24:44Z</time>
      </trkpt>
      <trkpt lat="45.39336" lon="6.87465">
        <ele>2391</ele>
        <time>2015-08-23T09:24:46Z</time>
      </trkpt>
      <trkpt lat="45.39334" lon="6.8746">
        <ele>2391</ele>
        <time>2015-08-23T09:24:48Z</time>
      </trkpt>
      <trkpt lat="45.39332" lon="6.87455">
        <ele>2398</ele>
        <time>2015-08-23T09:24:50Z</time>
      </trkpt>
      <trkpt lat="45.39332" lon="6.8745">
        <ele>2397</ele>
        <time>2015-08-23T09:24:53Z</time>
      </trkpt>
      <trkpt lat="45.39332" lon="6.87446">
        <ele>2397</ele>
        <time>2015-08-23T09:24:55Z</time>
      </trkpt>
      <trkpt lat="45.39334" lon="6.87441">
        <ele>2390</ele>
        <time>2015-08-23T09:24:57Z</time>
      </trkpt>
      <trkpt lat="45.39334" lon="6.87436">
        <ele>2390</ele>
        <time>2015-08-23T09:25:00Z</time>
      </trkpt>
      <trkpt lat="45.39331" lon="6.87432">
        <ele>2395</ele>
        <time>2015-08-23T09:25:03Z</time>
      </trkpt>
      <trkpt lat="45.3933" lon="6.87427">
        <ele>2394</ele>
        <time>2015-08-23T09:25:06Z</time>
      </trkpt>
      <trkpt lat="45.39331" lon="6.87422">
        <ele>2392</ele>
        <time>2015-08-23T09:25:08Z</time>
      </trkpt>
      <trkpt lat="45.39333" lon="6.87417">
        <ele>2390</ele>
        <time>2015-08-23T09:25:10Z</time>
      </trkpt>
      <trkpt lat="45.39336" lon="6.87414">
        <ele>2390</ele>
        <time>2015-08-23T09:25:11Z</time>
      </trkpt>
      <trkpt lat="45.39338" lon="6.87408">
        <ele>2389</ele>
        <time>2015-08-23T09:25:13Z</time>
      </trkpt>
      <trkpt lat="45.3934" lon="6.87401">
        <ele>2388</ele>
        <time>2015-08-23T09:25:15Z</time>
      </trkpt>
      <trkpt lat="45.3934" lon="6.87396">
        <ele>2388</ele>
        <time>2015-08-23T09:25:16Z</time>
      </trkpt>
      <trkpt lat="45.3934" lon="6.87392">
        <ele>2387</ele>
        <time>2015-08-23T09:25:17Z</time>
      </trkpt>
      <trkpt lat="45.3934" lon="6.87387">
        <ele>2387</ele>
        <time>2015-08-23T09:25:18Z</time>
      </trkpt>
      <trkpt lat="45.39339" lon="6.87383">
        <ele>2387</ele>
        <time>2015-08-23T09:25:19Z</time>
      </trkpt>
      <trkpt lat="45.39339" lon="6.87378">
        <ele>2387</ele>
        <time>2015-08-23T09:25:20Z</time>
      </trkpt>
      <trkpt lat="45.3934" lon="6.87374">
        <ele>2387</ele>
        <time>2015-08-23T09:25:21Z</time>
      </trkpt>
      <trkpt lat="45.3934" lon="6.8737">
        <ele>2387</ele>
        <time>2015-08-23T09:25:22Z</time>
      </trkpt>
      <trkpt lat="45.3934" lon="6.87365">
        <ele>2386</ele>
        <time>2015-08-23T09:25:23Z</time>
      </trkpt>
      <trkpt lat="45.39341" lon="6.8736">
        <ele>2386</ele>
        <time>2015-08-23T09:25:24Z</time>
      </trkpt>
      <trkpt lat="45.39341" lon="6.87355">
        <ele>2386</ele>
        <time>2015-08-23T09:25:25Z</time>
      </trkpt>
      <trkpt lat="45.39341" lon="6.87351">
        <ele>2386</ele>
        <time>2015-08-23T09:25:26Z</time>
      </trkpt>
      <trkpt lat="45.39342" lon="6.87346">
        <ele>2386</ele>
        <time>2015-08-23T09:25:27Z</time>
      </trkpt>
      <trkpt lat="45.39342" lon="6.87341">
        <ele>2386</ele>
        <time>2015-08-23T09:25:28Z</time>
      </trkpt>
      <trkpt lat="45.39343" lon="6.87336">
        <ele>2386</ele>
        <time>2015-08-23T09:25:29Z</time>
      </trkpt>
      <trkpt lat="45.39343" lon="6.87332">
        <ele>2385</ele>
        <time>2015-08-23T09:25:30Z</time>
      </trkpt>
      <trkpt lat="45.39343" lon="6.87327">
        <ele>2385</ele>
        <time>2015-08-23T09:25:31Z</time>
      </trkpt>
      <trkpt lat="45.39343" lon="6.87323">
        <ele>2385</ele>
        <time>2015-08-23T09:25:32Z</time>
      </trkpt>
      <trkpt lat="45.39343" lon="6.87318">
        <ele>2384</ele>
        <time>2015-08-23T09:25:33Z</time>
      </trkpt>
      <trkpt lat="45.39343" lon="6.87313">
        <ele>2384</ele>
        <time>2015-08-23T09:25:34Z</time>
      </trkpt>
      <trkpt lat="45.39344" lon="6.87308">
        <ele>2384</ele>
        <time>2015-08-23T09:25:35Z</time>
      </trkpt>
      <trkpt lat="45.39344" lon="6.87303">
        <ele>2384</ele>
        <time>2015-08-23T09:25:36Z</time>
      </trkpt>
      <trkpt lat="45.39345" lon="6.87294">
        <ele>2384</ele>
        <time>2015-08-23T09:25:38Z</time>
      </trkpt>
      <trkpt lat="45.39345" lon="6.8729">
        <ele>2383</ele>
        <time>2015-08-23T09:25:39Z</time>
      </trkpt>
      <trkpt lat="45.39345" lon="6.87286">
        <ele>2383</ele>
        <time>2015-08-23T09:25:40Z</time>
      </trkpt>
      <trkpt lat="45.39344" lon="6.87282">
        <ele>2383</ele>
        <time>2015-08-23T09:25:41Z</time>
      </trkpt>
      <trkpt lat="45.39344" lon="6.87278">
        <ele>2383</ele>
        <time>2015-08-23T09:25:42Z</time>
      </trkpt>
      <trkpt lat="45.39342" lon="6.87275">
        <ele>2383</ele>
        <time>2015-08-23T09:25:43Z</time>
      </trkpt>
      <trkpt lat="45.3934" lon="6.87272">
        <ele>2383</ele>
        <time>2015-08-23T09:25:44Z</time>
      </trkpt>
      <trkpt lat="45.39338" lon="6.87263">
        <ele>2383</ele>
        <time>2015-08-23T09:25:46Z</time>
      </trkpt>
      <trkpt lat="45.39336" lon="6.87258">
        <ele>2383</ele>
        <time>2015-08-23T09:25:47Z</time>
      </trkpt>
      <trkpt lat="45.39336" lon="6.87254">
        <ele>2383</ele>
        <time>2015-08-23T09:25:48Z</time>
      </trkpt>
      <trkpt lat="45.39336" lon="6.8725">
        <ele>2383</ele>
        <time>2015-08-23T09:25:49Z</time>
      </trkpt>
      <trkpt lat="45.39336" lon="6.87245">
        <ele>2383</ele>
        <time>2015-08-23T09:25:50Z</time>
      </trkpt>
      <trkpt lat="45.39336" lon="6.8724">
        <ele>2382</ele>
        <time>2015-08-23T09:25:51Z</time>
      </trkpt>
      <trkpt lat="45.39337" lon="6.87236">
        <ele>2382</ele>
        <time>2015-08-23T09:25:52Z</time>
      </trkpt>
      <trkpt lat="45.39337" lon="6.87231">
        <ele>2382</ele>
        <time>2015-08-23T09:25:53Z</time>
      </trkpt>
      <trkpt lat="45.39338" lon="6.87226">
        <ele>2382</ele>
        <time>2015-08-23T09:25:54Z</time>
      </trkpt>
      <trkpt lat="45.39338" lon="6.8722">
        <ele>2381</ele>
        <time>2015-08-23T09:25:56Z</time>
      </trkpt>
      <trkpt lat="45.39338" lon="6.87213">
        <ele>2381</ele>
        <time>2015-08-23T09:25:58Z</time>
      </trkpt>
      <trkpt lat="45.39337" lon="6.87206">
        <ele>2381</ele>
        <time>2015-08-23T09:26:00Z</time>
      </trkpt>
      <trkpt lat="45.39336" lon="6.87202">
        <ele>2381</ele>
        <time>2015-08-23T09:26:01Z</time>
      </trkpt>
      <trkpt lat="45.39335" lon="6.87199">
        <ele>2380</ele>
        <time>2015-08-23T09:26:02Z</time>
      </trkpt>
      <trkpt lat="45.39334" lon="6.87195">
        <ele>2380</ele>
        <time>2015-08-23T09:26:03Z</time>
      </trkpt>
      <trkpt lat="45.39332" lon="6.87192">
        <ele>2384</ele>
        <time>2015-08-23T09:26:04Z</time>
      </trkpt>
      <trkpt lat="45.3933" lon="6.87189">
        <ele>2383</ele>
        <time>2015-08-23T09:26:05Z</time>
      </trkpt>
      <trkpt lat="45.39329" lon="6.87186">
        <ele>2383</ele>
        <time>2015-08-23T09:26:06Z</time>
      </trkpt>
      <trkpt lat="45.39327" lon="6.87182">
        <ele>2382</ele>
        <time>2015-08-23T09:26:07Z</time>
      </trkpt>
      <trkpt lat="45.39326" lon="6.87179">
        <ele>2382</ele>
        <time>2015-08-23T09:26:08Z</time>
      </trkpt>
      <trkpt lat="45.39325" lon="6.87171">
        <ele>2381</ele>
        <time>2015-08-23T09:26:10Z</time>
      </trkpt>
      <trkpt lat="45.39325" lon="6.87167">
        <ele>2380</ele>
        <time>2015-08-23T09:26:11Z</time>
      </trkpt>
      <trkpt lat="45.39324" lon="6.87162">
        <ele>2380</ele>
        <time>2015-08-23T09:26:12Z</time>
      </trkpt>
      <trkpt lat="45.39324" lon="6.87158">
        <ele>2381</ele>
        <time>2015-08-23T09:26:13Z</time>
      </trkpt>
      <trkpt lat="45.39324" lon="6.87153">
        <ele>2381</ele>
        <time>2015-08-23T09:26:14Z</time>
      </trkpt>
      <trkpt lat="45.39323" lon="6.87149">
        <ele>2382</ele>
        <time>2015-08-23T09:26:15Z</time>
      </trkpt>
      <trkpt lat="45.39323" lon="6.87142">
        <ele>2382</ele>
        <time>2015-08-23T09:26:17Z</time>
      </trkpt>
      <trkpt lat="45.39322" lon="6.87135">
        <ele>2383</ele>
        <time>2015-08-23T09:26:19Z</time>
      </trkpt>
      <trkpt lat="45.39322" lon="6.87132">
        <ele>2383</ele>
        <time>2015-08-23T09:26:20Z</time>
      </trkpt>
      <trkpt lat="45.39321" lon="6.87128">
        <ele>2383</ele>
        <time>2015-08-23T09:26:21Z</time>
      </trkpt>
      <trkpt lat="45.3932" lon="6.87124">
        <ele>2383</ele>
        <time>2015-08-23T09:26:22Z</time>
      </trkpt>
      <trkpt lat="45.3932" lon="6.8712">
        <ele>2383</ele>
        <time>2015-08-23T09:26:23Z</time>
      </trkpt>
      <trkpt lat="45.39319" lon="6.87116">
        <ele>2383</ele>
        <time>2015-08-23T09:26:24Z</time>
      </trkpt>
      <trkpt lat="45.39319" lon="6.87112">
        <ele>2383</ele>
        <time>2015-08-23T09:26:25Z</time>
      </trkpt>
      <trkpt lat="45.39319" lon="6.87107">
        <ele>2382</ele>
        <time>2015-08-23T09:26:26Z</time>
      </trkpt>
      <trkpt lat="45.39319" lon="6.87102">
        <ele>2382</ele>
        <time>2015-08-23T09:26:27Z</time>
      </trkpt>
      <trkpt lat="45.3932" lon="6.87098">
        <ele>2381</ele>
        <time>2015-08-23T09:26:28Z</time>
      </trkpt>
      <trkpt lat="45.39321" lon="6.87089">
        <ele>2380</ele>
        <time>2015-08-23T09:26:30Z</time>
      </trkpt>
      <trkpt lat="45.39323" lon="6.87085">
        <ele>2379</ele>
        <time>2015-08-23T09:26:31Z</time>
      </trkpt>
      <trkpt lat="45.39324" lon="6.8708">
        <ele>2379</ele>
        <time>2015-08-23T09:26:32Z</time>
      </trkpt>
      <trkpt lat="45.39325" lon="6.87076">
        <ele>2379</ele>
        <time>2015-08-23T09:26:33Z</time>
      </trkpt>
      <trkpt lat="45.39326" lon="6.87072">
        <ele>2379</ele>
        <time>2015-08-23T09:26:34Z</time>
      </trkpt>
      <trkpt lat="45.39326" lon="6.87068">
        <ele>2380</ele>
        <time>2015-08-23T09:26:35Z</time>
      </trkpt>
      <trkpt lat="45.39327" lon="6.87064">
        <ele>2380</ele>
        <time>2015-08-23T09:26:36Z</time>
      </trkpt>
      <trkpt lat="45.39328" lon="6.8706">
        <ele>2381</ele>
        <time>2015-08-23T09:26:37Z</time>
      </trkpt>
      <trkpt lat="45.39329" lon="6.87054">
        <ele>2381</ele>
        <time>2015-08-23T09:26:39Z</time>
      </trkpt>
      <trkpt lat="45.39328" lon="6.87047">
        <ele>2381</ele>
        <time>2015-08-23T09:26:41Z</time>
      </trkpt>
      <trkpt lat="45.39327" lon="6.87041">
        <ele>2381</ele>
        <time>2015-08-23T09:26:43Z</time>
      </trkpt>
      <trkpt lat="45.39326" lon="6.87036">
        <ele>2381</ele>
        <time>2015-08-23T09:26:46Z</time>
      </trkpt>
      <trkpt lat="45.39326" lon="6.87031">
        <ele>2381</ele>
        <time>2015-08-23T09:26:47Z</time>
      </trkpt>
      <trkpt lat="45.39325" lon="6.87024">
        <ele>2380</ele>
        <time>2015-08-23T09:26:49Z</time>
      </trkpt>
      <trkpt lat="45.39326" lon="6.87015">
        <ele>2378</ele>
        <time>2015-08-23T09:26:51Z</time>
      </trkpt>
      <trkpt lat="45.39326" lon="6.87011">
        <ele>2377</ele>
        <time>2015-08-23T09:26:52Z</time>
      </trkpt>
      <trkpt lat="45.39326" lon="6.87007">
        <ele>2376</ele>
        <time>2015-08-23T09:26:53Z</time>
      </trkpt>
      <trkpt lat="45.39326" lon="6.87002">
        <ele>2375</ele>
        <time>2015-08-23T09:26:54Z</time>
      </trkpt>
      <trkpt lat="45.39326" lon="6.86997">
        <ele>2374</ele>
        <time>2015-08-23T09:26:55Z</time>
      </trkpt>
      <trkpt lat="45.39325" lon="6.86992">
        <ele>2375</ele>
        <time>2015-08-23T09:26:56Z</time>
      </trkpt>
      <trkpt lat="45.39324" lon="6.86987">
        <ele>2376</ele>
        <time>2015-08-23T09:26:57Z</time>
      </trkpt>
      <trkpt lat="45.39324" lon="6.86982">
        <ele>2376</ele>
        <time>2015-08-23T09:26:58Z</time>
      </trkpt>
      <trkpt lat="45.39324" lon="6.86978">
        <ele>2377</ele>
        <time>2015-08-23T09:27:00Z</time>
      </trkpt>
      <trkpt lat="45.39324" lon="6.86973">
        <ele>2377</ele>
        <time>2015-08-23T09:27:01Z</time>
      </trkpt>
      <trkpt lat="45.39324" lon="6.86962">
        <ele>2377</ele>
        <time>2015-08-23T09:27:03Z</time>
      </trkpt>
      <trkpt lat="45.39325" lon="6.86955">
        <ele>2377</ele>
        <time>2015-08-23T09:27:05Z</time>
      </trkpt>
      <trkpt lat="45.39326" lon="6.86948">
        <ele>2376</ele>
        <time>2015-08-23T09:27:07Z</time>
      </trkpt>
      <trkpt lat="45.39327" lon="6.86941">
        <ele>2375</ele>
        <time>2015-08-23T09:27:09Z</time>
      </trkpt>
      <trkpt lat="45.39329" lon="6.86936">
        <ele>2374</ele>
        <time>2015-08-23T09:27:11Z</time>
      </trkpt>
      <trkpt lat="45.39333" lon="6.86931">
        <ele>2368</ele>
        <time>2015-08-23T09:27:13Z</time>
      </trkpt>
      <trkpt lat="45.39337" lon="6.86927">
        <ele>2368</ele>
        <time>2015-08-23T09:27:15Z</time>
      </trkpt>
      <trkpt lat="45.39338" lon="6.8692">
        <ele>2368</ele>
        <time>2015-08-23T09:27:17Z</time>
      </trkpt>
      <trkpt lat="45.39338" lon="6.86914">
        <ele>2367</ele>
        <time>2015-08-23T09:27:19Z</time>
      </trkpt>
      <trkpt lat="45.39338" lon="6.86908">
        <ele>2366</ele>
        <time>2015-08-23T09:27:21Z</time>
      </trkpt>
      <trkpt lat="45.39338" lon="6.86897">
        <ele>2366</ele>
        <time>2015-08-23T09:27:24Z</time>
      </trkpt>
      <trkpt lat="45.39339" lon="6.86893">
        <ele>2366</ele>
        <time>2015-08-23T09:27:25Z</time>
      </trkpt>
      <trkpt lat="45.39339" lon="6.86889">
        <ele>2366</ele>
        <time>2015-08-23T09:27:26Z</time>
      </trkpt>
      <trkpt lat="45.3934" lon="6.86885">
        <ele>2366</ele>
        <time>2015-08-23T09:27:27Z</time>
      </trkpt>
      <trkpt lat="45.39341" lon="6.86881">
        <ele>2365</ele>
        <time>2015-08-23T09:27:28Z</time>
      </trkpt>
      <trkpt lat="45.39341" lon="6.86877">
        <ele>2365</ele>
        <time>2015-08-23T09:27:29Z</time>
      </trkpt>
      <trkpt lat="45.39342" lon="6.8687">
        <ele>2365</ele>
        <time>2015-08-23T09:27:31Z</time>
      </trkpt>
      <trkpt lat="45.39343" lon="6.86866">
        <ele>2365</ele>
        <time>2015-08-23T09:27:33Z</time>
      </trkpt>
      <trkpt lat="45.39344" lon="6.86862">
        <ele>2365</ele>
        <time>2015-08-23T09:27:35Z</time>
      </trkpt>
      <trkpt lat="45.39345" lon="6.86856">
        <ele>2364</ele>
        <time>2015-08-23T09:27:37Z</time>
      </trkpt>
      <trkpt lat="45.39346" lon="6.86849">
        <ele>2364</ele>
        <time>2015-08-23T09:27:39Z</time>
      </trkpt>
      <trkpt lat="45.39347" lon="6.86841">
        <ele>2364</ele>
        <time>2015-08-23T09:27:41Z</time>
      </trkpt>
      <trkpt lat="45.39347" lon="6.86834">
        <ele>2363</ele>
        <time>2015-08-23T09:27:43Z</time>
      </trkpt>
      <trkpt lat="45.39346" lon="6.86827">
        <ele>2361</ele>
        <time>2015-08-23T09:27:45Z</time>
      </trkpt>
      <trkpt lat="45.39346" lon="6.86822">
        <ele>2361</ele>
        <time>2015-08-23T09:27:46Z</time>
      </trkpt>
      <trkpt lat="45.39345" lon="6.86818">
        <ele>2361</ele>
        <time>2015-08-23T09:27:47Z</time>
      </trkpt>
      <trkpt lat="45.39345" lon="6.86814">
        <ele>2361</ele>
        <time>2015-08-23T09:27:48Z</time>
      </trkpt>
      <trkpt lat="45.39344" lon="6.86809">
        <ele>2360</ele>
        <time>2015-08-23T09:27:49Z</time>
      </trkpt>
      <trkpt lat="45.39344" lon="6.86805">
        <ele>2360</ele>
        <time>2015-08-23T09:27:50Z</time>
      </trkpt>
      <trkpt lat="45.39344" lon="6.86801">
        <ele>2360</ele>
        <time>2015-08-23T09:27:51Z</time>
      </trkpt>
      <trkpt lat="45.39345" lon="6.86796">
        <ele>2360</ele>
        <time>2015-08-23T09:27:52Z</time>
      </trkpt>
      <trkpt lat="45.39345" lon="6.86792">
        <ele>2359</ele>
        <time>2015-08-23T09:27:53Z</time>
      </trkpt>
      <trkpt lat="45.39345" lon="6.86788">
        <ele>2359</ele>
        <time>2015-08-23T09:27:54Z</time>
      </trkpt>
      <trkpt lat="45.39346" lon="6.86784">
        <ele>2359</ele>
        <time>2015-08-23T09:27:55Z</time>
      </trkpt>
      <trkpt lat="45.39346" lon="6.86779">
        <ele>2359</ele>
        <time>2015-08-23T09:27:56Z</time>
      </trkpt>
      <trkpt lat="45.39345" lon="6.86775">
        <ele>2358</ele>
        <time>2015-08-23T09:27:57Z</time>
      </trkpt>
      <trkpt lat="45.39345" lon="6.86771">
        <ele>2358</ele>
        <time>2015-08-23T09:27:58Z</time>
      </trkpt>
      <trkpt lat="45.39344" lon="6.86764">
        <ele>2357</ele>
        <time>2015-08-23T09:28:00Z</time>
      </trkpt>
      <trkpt lat="45.39343" lon="6.86757">
        <ele>2356</ele>
        <time>2015-08-23T09:28:02Z</time>
      </trkpt>
      <trkpt lat="45.39343" lon="6.86753">
        <ele>2356</ele>
        <time>2015-08-23T09:28:03Z</time>
      </trkpt>
      <trkpt lat="45.39347" lon="6.86746">
        <ele>2353</ele>
        <time>2015-08-23T09:29:25Z</time>
      </trkpt>
      <trkpt lat="45.39347" lon="6.86741">
        <ele>2353</ele>
        <time>2015-08-23T09:29:28Z</time>
      </trkpt>
      <trkpt lat="45.39346" lon="6.86737">
        <ele>2353</ele>
        <time>2015-08-23T09:29:29Z</time>
      </trkpt>
      <trkpt lat="45.39346" lon="6.86733">
        <ele>2353</ele>
        <time>2015-08-23T09:29:30Z</time>
      </trkpt>
      <trkpt lat="45.39346" lon="6.86728">
        <ele>2353</ele>
        <time>2015-08-23T09:29:31Z</time>
      </trkpt>
      <trkpt lat="45.39345" lon="6.86723">
        <ele>2352</ele>
        <time>2015-08-23T09:29:32Z</time>
      </trkpt>
      <trkpt lat="45.39345" lon="6.86718">
        <ele>2352</ele>
        <time>2015-08-23T09:29:33Z</time>
      </trkpt>
      <trkpt lat="45.39345" lon="6.86713">
        <ele>2352</ele>
        <time>2015-08-23T09:29:34Z</time>
      </trkpt>
      <trkpt lat="45.39346" lon="6.86709">
        <ele>2352</ele>
        <time>2015-08-23T09:29:35Z</time>
      </trkpt>
      <trkpt lat="45.39347" lon="6.86703">
        <ele>2351</ele>
        <time>2015-08-23T09:29:37Z</time>
      </trkpt>
      <trkpt lat="45.39349" lon="6.86696">
        <ele>2351</ele>
        <time>2015-08-23T09:29:39Z</time>
      </trkpt>
      <trkpt lat="45.3935" lon="6.8669">
        <ele>2350</ele>
        <time>2015-08-23T09:29:41Z</time>
      </trkpt>
      <trkpt lat="45.39349" lon="6.86684">
        <ele>2350</ele>
        <time>2015-08-23T09:29:43Z</time>
      </trkpt>
      <trkpt lat="45.39349" lon="6.86677">
        <ele>2349</ele>
        <time>2015-08-23T09:29:45Z</time>
      </trkpt>
      <trkpt lat="45.39349" lon="6.86669">
        <ele>2349</ele>
        <time>2015-08-23T09:29:47Z</time>
      </trkpt>
      <trkpt lat="45.3935" lon="6.86663">
        <ele>2345</ele>
        <time>2015-08-23T09:29:49Z</time>
      </trkpt>
      <trkpt lat="45.39353" lon="6.86661">
        <ele>2344</ele>
        <time>2015-08-23T09:29:50Z</time>
      </trkpt>
      <trkpt lat="45.39356" lon="6.86655">
        <ele>2344</ele>
        <time>2015-08-23T09:29:52Z</time>
      </trkpt>
      <trkpt lat="45.39358" lon="6.86652">
        <ele>2344</ele>
        <time>2015-08-23T09:29:53Z</time>
      </trkpt>
      <trkpt lat="45.3936" lon="6.86649">
        <ele>2343</ele>
        <time>2015-08-23T09:29:54Z</time>
      </trkpt>
      <trkpt lat="45.39362" lon="6.86643">
        <ele>2343</ele>
        <time>2015-08-23T09:29:56Z</time>
      </trkpt>
      <trkpt lat="45.39361" lon="6.86637">
        <ele>2343</ele>
        <time>2015-08-23T09:29:58Z</time>
      </trkpt>
      <trkpt lat="45.39359" lon="6.8663">
        <ele>2342</ele>
        <time>2015-08-23T09:30:00Z</time>
      </trkpt>
      <trkpt lat="45.39357" lon="6.86627">
        <ele>2342</ele>
        <time>2015-08-23T09:30:01Z</time>
      </trkpt>
      <trkpt lat="45.39354" lon="6.86622">
        <ele>2341</ele>
        <time>2015-08-23T09:30:03Z</time>
      </trkpt>
      <trkpt lat="45.39351" lon="6.86619">
        <ele>2341</ele>
        <time>2015-08-23T09:30:04Z</time>
      </trkpt>
      <trkpt lat="45.39349" lon="6.86616">
        <ele>2340</ele>
        <time>2015-08-23T09:30:05Z</time>
      </trkpt>
      <trkpt lat="45.39346" lon="6.86614">
        <ele>2340</ele>
        <time>2015-08-23T09:30:06Z</time>
      </trkpt>
      <trkpt lat="45.39344" lon="6.86611">
        <ele>2340</ele>
        <time>2015-08-23T09:30:07Z</time>
      </trkpt>
      <trkpt lat="45.39342" lon="6.86609">
        <ele>2339</ele>
        <time>2015-08-23T09:30:08Z</time>
      </trkpt>
      <trkpt lat="45.3934" lon="6.86606">
        <ele>2339</ele>
        <time>2015-08-23T09:30:09Z</time>
      </trkpt>
      <trkpt lat="45.39338" lon="6.86603">
        <ele>2338</ele>
        <time>2015-08-23T09:30:10Z</time>
      </trkpt>
      <trkpt lat="45.39336" lon="6.866">
        <ele>2338</ele>
        <time>2015-08-23T09:30:11Z</time>
      </trkpt>
      <trkpt lat="45.39334" lon="6.86597">
        <ele>2337</ele>
        <time>2015-08-23T09:30:12Z</time>
      </trkpt>
      <trkpt lat="45.39332" lon="6.86593">
        <ele>2338</ele>
        <time>2015-08-23T09:30:13Z</time>
      </trkpt>
      <trkpt lat="45.39331" lon="6.8659">
        <ele>2337</ele>
        <time>2015-08-23T09:30:14Z</time>
      </trkpt>
      <trkpt lat="45.3933" lon="6.86586">
        <ele>2336</ele>
        <time>2015-08-23T09:30:15Z</time>
      </trkpt>
      <trkpt lat="45.39329" lon="6.86582">
        <ele>2334</ele>
        <time>2015-08-23T09:30:16Z</time>
      </trkpt>
      <trkpt lat="45.39327" lon="6.86578">
        <ele>2335</ele>
        <time>2015-08-23T09:30:17Z</time>
      </trkpt>
      <trkpt lat="45.39326" lon="6.86573">
        <ele>2335</ele>
        <time>2015-08-23T09:30:18Z</time>
      </trkpt>
      <trkpt lat="45.39325" lon="6.86569">
        <ele>2335</ele>
        <time>2015-08-23T09:30:19Z</time>
      </trkpt>
      <trkpt lat="45.39325" lon="6.86566">
        <ele>2336</ele>
        <time>2015-08-23T09:30:20Z</time>
      </trkpt>
      <trkpt lat="45.39324" lon="6.86562">
        <ele>2336</ele>
        <time>2015-08-23T09:30:21Z</time>
      </trkpt>
      <trkpt lat="45.39324" lon="6.86558">
        <ele>2336</ele>
        <time>2015-08-23T09:30:22Z</time>
      </trkpt>
      <trkpt lat="45.39323" lon="6.86554">
        <ele>2336</ele>
        <time>2015-08-23T09:30:23Z</time>
      </trkpt>
      <trkpt lat="45.39323" lon="6.86549">
        <ele>2336</ele>
        <time>2015-08-23T09:30:24Z</time>
      </trkpt>
      <trkpt lat="45.39322" lon="6.86544">
        <ele>2336</ele>
        <time>2015-08-23T09:30:25Z</time>
      </trkpt>
      <trkpt lat="45.39321" lon="6.86539">
        <ele>2336</ele>
        <time>2015-08-23T09:30:26Z</time>
      </trkpt>
      <trkpt lat="45.3932" lon="6.86534">
        <ele>2336</ele>
        <time>2015-08-23T09:30:27Z</time>
      </trkpt>
      <trkpt lat="45.39319" lon="6.8653">
        <ele>2336</ele>
        <time>2015-08-23T09:30:28Z</time>
      </trkpt>
      <trkpt lat="45.39318" lon="6.86525">
        <ele>2335</ele>
        <time>2015-08-23T09:30:29Z</time>
      </trkpt>
      <trkpt lat="45.39318" lon="6.8652">
        <ele>2335</ele>
        <time>2015-08-23T09:30:30Z</time>
      </trkpt>
      <trkpt lat="45.39318" lon="6.86516">
        <ele>2335</ele>
        <time>2015-08-23T09:30:31Z</time>
      </trkpt>
      <trkpt lat="45.39317" lon="6.86512">
        <ele>2334</ele>
        <time>2015-08-23T09:30:32Z</time>
      </trkpt>
      <trkpt lat="45.39317" lon="6.86508">
        <ele>2334</ele>
        <time>2015-08-23T09:30:33Z</time>
      </trkpt>
      <trkpt lat="45.39317" lon="6.865">
        <ele>2334</ele>
        <time>2015-08-23T09:30:35Z</time>
      </trkpt>
      <trkpt lat="45.39316" lon="6.86493">
        <ele>2333</ele>
        <time>2015-08-23T09:30:37Z</time>
      </trkpt>
      <trkpt lat="45.39315" lon="6.86489">
        <ele>2333</ele>
        <time>2015-08-23T09:30:38Z</time>
      </trkpt>
      <trkpt lat="45.39314" lon="6.86482">
        <ele>2333</ele>
        <time>2015-08-23T09:30:40Z</time>
      </trkpt>
      <trkpt lat="45.39314" lon="6.86475">
        <ele>2334</ele>
        <time>2015-08-23T09:30:42Z</time>
      </trkpt>
      <trkpt lat="45.39313" lon="6.86469">
        <ele>2334</ele>
        <time>2015-08-23T09:30:44Z</time>
      </trkpt>
      <trkpt lat="45.39312" lon="6.86462">
        <ele>2334</ele>
        <time>2015-08-23T09:30:46Z</time>
      </trkpt>
      <trkpt lat="45.3931" lon="6.86459">
        <ele>2334</ele>
        <time>2015-08-23T09:30:47Z</time>
      </trkpt>
      <trkpt lat="45.39306" lon="6.86455">
        <ele>2334</ele>
        <time>2015-08-23T09:30:49Z</time>
      </trkpt>
      <trkpt lat="45.39304" lon="6.86448">
        <ele>2334</ele>
        <time>2015-08-23T09:30:51Z</time>
      </trkpt>
      <trkpt lat="45.39304" lon="6.86441">
        <ele>2334</ele>
        <time>2015-08-23T09:30:53Z</time>
      </trkpt>
      <trkpt lat="45.39305" lon="6.86434">
        <ele>2334</ele>
        <time>2015-08-23T09:30:55Z</time>
      </trkpt>
      <trkpt lat="45.39306" lon="6.86427">
        <ele>2334</ele>
        <time>2015-08-23T09:30:57Z</time>
      </trkpt>
      <trkpt lat="45.39307" lon="6.8642">
        <ele>2334</ele>
        <time>2015-08-23T09:30:59Z</time>
      </trkpt>
      <trkpt lat="45.39307" lon="6.86412">
        <ele>2333</ele>
        <time>2015-08-23T09:31:01Z</time>
      </trkpt>
      <trkpt lat="45.39308" lon="6.86405">
        <ele>2333</ele>
        <time>2015-08-23T09:31:03Z</time>
      </trkpt>
      <trkpt lat="45.39309" lon="6.86398">
        <ele>2333</ele>
        <time>2015-08-23T09:31:05Z</time>
      </trkpt>
      <trkpt lat="45.3931" lon="6.86393">
        <ele>2333</ele>
        <time>2015-08-23T09:31:07Z</time>
      </trkpt>
      <trkpt lat="45.3931" lon="6.86389">
        <ele>2333</ele>
        <time>2015-08-23T09:31:11Z</time>
      </trkpt>
      <trkpt lat="45.39308" lon="6.86385">
        <ele>2333</ele>
        <time>2015-08-23T09:31:17Z</time>
      </trkpt>
      <trkpt lat="45.39305" lon="6.86382">
        <ele>2333</ele>
        <time>2015-08-23T09:31:20Z</time>
      </trkpt>
      <trkpt lat="45.39302" lon="6.86381">
        <ele>2333</ele>
        <time>2015-08-23T09:31:23Z</time>
      </trkpt>
      <trkpt lat="45.39303" lon="6.86386">
        <ele>2333</ele>
        <time>2015-08-23T09:31:25Z</time>
      </trkpt>
      <trkpt lat="45.393" lon="6.86377">
        <ele>2333</ele>
        <time>2015-08-23T09:31:33Z</time>
      </trkpt>
      <trkpt lat="45.39299" lon="6.8637">
        <ele>2333</ele>
        <time>2015-08-23T09:31:35Z</time>
      </trkpt>
      <trkpt lat="45.39298" lon="6.86363">
        <ele>2333</ele>
        <time>2015-08-23T09:31:37Z</time>
      </trkpt>
      <trkpt lat="45.39297" lon="6.86356">
        <ele>2333</ele>
        <time>2015-08-23T09:31:39Z</time>
      </trkpt>
      <trkpt lat="45.39296" lon="6.86352">
        <ele>2333</ele>
        <time>2015-08-23T09:31:40Z</time>
      </trkpt>
      <trkpt lat="45.39296" lon="6.86348">
        <ele>2333</ele>
        <time>2015-08-23T09:31:41Z</time>
      </trkpt>
      <trkpt lat="45.39295" lon="6.86343">
        <ele>2333</ele>
        <time>2015-08-23T09:31:42Z</time>
      </trkpt>
      <trkpt lat="45.39294" lon="6.86339">
        <ele>2333</ele>
        <time>2015-08-23T09:31:43Z</time>
      </trkpt>
      <trkpt lat="45.39294" lon="6.86334">
        <ele>2333</ele>
        <time>2015-08-23T09:31:44Z</time>
      </trkpt>
      <trkpt lat="45.39293" lon="6.8633">
        <ele>2333</ele>
        <time>2015-08-23T09:31:45Z</time>
      </trkpt>
      <trkpt lat="45.39292" lon="6.86326">
        <ele>2333</ele>
        <time>2015-08-23T09:31:46Z</time>
      </trkpt>
      <trkpt lat="45.39292" lon="6.86322">
        <ele>2333</ele>
        <time>2015-08-23T09:31:47Z</time>
      </trkpt>
      <trkpt lat="45.39291" lon="6.86318">
        <ele>2333</ele>
        <time>2015-08-23T09:31:48Z</time>
      </trkpt>
      <trkpt lat="45.39291" lon="6.86314">
        <ele>2333</ele>
        <time>2015-08-23T09:31:49Z</time>
      </trkpt>
      <trkpt lat="45.39291" lon="6.8631">
        <ele>2333</ele>
        <time>2015-08-23T09:31:50Z</time>
      </trkpt>
      <trkpt lat="45.39291" lon="6.86306">
        <ele>2333</ele>
        <time>2015-08-23T09:31:51Z</time>
      </trkpt>
      <trkpt lat="45.39291" lon="6.86301">
        <ele>2333</ele>
        <time>2015-08-23T09:31:52Z</time>
      </trkpt>
      <trkpt lat="45.39291" lon="6.86296">
        <ele>2333</ele>
        <time>2015-08-23T09:31:53Z</time>
      </trkpt>
      <trkpt lat="45.3929" lon="6.86292">
        <ele>2333</ele>
        <time>2015-08-23T09:31:55Z</time>
      </trkpt>
      <trkpt lat="45.39289" lon="6.86281">
        <ele>2333</ele>
        <time>2015-08-23T09:31:57Z</time>
      </trkpt>
      <trkpt lat="45.39289" lon="6.86277">
        <ele>2333</ele>
        <time>2015-08-23T09:31:58Z</time>
      </trkpt>
      <trkpt lat="45.39289" lon="6.86273">
        <ele>2333</ele>
        <time>2015-08-23T09:31:59Z</time>
      </trkpt>
      <trkpt lat="45.39288" lon="6.86269">
        <ele>2334</ele>
        <time>2015-08-23T09:32:00Z</time>
      </trkpt>
      <trkpt lat="45.39288" lon="6.86265">
        <ele>2334</ele>
        <time>2015-08-23T09:32:01Z</time>
      </trkpt>
      <trkpt lat="45.39287" lon="6.86258">
        <ele>2334</ele>
        <time>2015-08-23T09:32:03Z</time>
      </trkpt>
      <trkpt lat="45.39287" lon="6.86254">
        <ele>2334</ele>
        <time>2015-08-23T09:32:04Z</time>
      </trkpt>
      <trkpt lat="45.39286" lon="6.86247">
        <ele>2334</ele>
        <time>2015-08-23T09:32:06Z</time>
      </trkpt>
      <trkpt lat="45.39286" lon="6.8624">
        <ele>2334</ele>
        <time>2015-08-23T09:32:08Z</time>
      </trkpt>
      <trkpt lat="45.39284" lon="6.86233">
        <ele>2334</ele>
        <time>2015-08-23T09:32:10Z</time>
      </trkpt>
      <trkpt lat="45.39284" lon="6.86229">
        <ele>2334</ele>
        <time>2015-08-23T09:32:11Z</time>
      </trkpt>
      <trkpt lat="45.39283" lon="6.86225">
        <ele>2334</ele>
        <time>2015-08-23T09:32:12Z</time>
      </trkpt>
      <trkpt lat="45.39282" lon="6.86221">
        <ele>2334</ele>
        <time>2015-08-23T09:32:13Z</time>
      </trkpt>
      <trkpt lat="45.39281" lon="6.86218">
        <ele>2334</ele>
        <time>2015-08-23T09:32:14Z</time>
      </trkpt>
      <trkpt lat="45.3928" lon="6.86214">
        <ele>2334</ele>
        <time>2015-08-23T09:32:15Z</time>
      </trkpt>
      <trkpt lat="45.39278" lon="6.86207">
        <ele>2334</ele>
        <time>2015-08-23T09:32:17Z</time>
      </trkpt>
      <trkpt lat="45.39276" lon="6.862">
        <ele>2334</ele>
        <time>2015-08-23T09:32:19Z</time>
      </trkpt>
      <trkpt lat="45.39275" lon="6.86196">
        <ele>2334</ele>
        <time>2015-08-23T09:32:20Z</time>
      </trkpt>
      <trkpt lat="45.39275" lon="6.86189">
        <ele>2334</ele>
        <time>2015-08-23T09:32:22Z</time>
      </trkpt>
      <trkpt lat="45.39274" lon="6.86182">
        <ele>2335</ele>
        <time>2015-08-23T09:32:24Z</time>
      </trkpt>
      <trkpt lat="45.39274" lon="6.86175">
        <ele>2335</ele>
        <time>2015-08-23T09:32:26Z</time>
      </trkpt>
      <trkpt lat="45.39273" lon="6.86168">
        <ele>2335</ele>
        <time>2015-08-23T09:32:28Z</time>
      </trkpt>
      <trkpt lat="45.39274" lon="6.86162">
        <ele>2334</ele>
        <time>2015-08-23T09:32:30Z</time>
      </trkpt>
      <trkpt lat="45.39275" lon="6.86157">
        <ele>2334</ele>
        <time>2015-08-23T09:32:32Z</time>
      </trkpt>
      <trkpt lat="45.39276" lon="6.86153">
        <ele>2334</ele>
        <time>2015-08-23T09:32:34Z</time>
      </trkpt>
      <trkpt lat="45.39277" lon="6.86147">
        <ele>2334</ele>
        <time>2015-08-23T09:32:36Z</time>
      </trkpt>
      <trkpt lat="45.39276" lon="6.86141">
        <ele>2333</ele>
        <time>2015-08-23T09:32:38Z</time>
      </trkpt>
      <trkpt lat="45.39276" lon="6.86136">
        <ele>2333</ele>
        <time>2015-08-23T09:32:39Z</time>
      </trkpt>
      <trkpt lat="45.39276" lon="6.86132">
        <ele>2333</ele>
        <time>2015-08-23T09:32:40Z</time>
      </trkpt>
      <trkpt lat="45.39276" lon="6.86128">
        <ele>2333</ele>
        <time>2015-08-23T09:32:41Z</time>
      </trkpt>
      <trkpt lat="45.39276" lon="6.86125">
        <ele>2333</ele>
        <time>2015-08-23T09:32:42Z</time>
      </trkpt>
      <trkpt lat="45.39277" lon="6.86117">
        <ele>2333</ele>
        <time>2015-08-23T09:32:44Z</time>
      </trkpt>
      <trkpt lat="45.39277" lon="6.8611">
        <ele>2333</ele>
        <time>2015-08-23T09:32:46Z</time>
      </trkpt>
      <trkpt lat="45.39278" lon="6.86102">
        <ele>2333</ele>
        <time>2015-08-23T09:32:48Z</time>
      </trkpt>
      <trkpt lat="45.39278" lon="6.86098">
        <ele>2333</ele>
        <time>2015-08-23T09:32:49Z</time>
      </trkpt>
      <trkpt lat="45.39278" lon="6.86094">
        <ele>2333</ele>
        <time>2015-08-23T09:32:50Z</time>
      </trkpt>
      <trkpt lat="45.39279" lon="6.86089">
        <ele>2333</ele>
        <time>2015-08-23T09:32:51Z</time>
      </trkpt>
      <trkpt lat="45.3928" lon="6.86084">
        <ele>2333</ele>
        <time>2015-08-23T09:32:52Z</time>
      </trkpt>
      <trkpt lat="45.39281" lon="6.86079">
        <ele>2330</ele>
        <time>2015-08-23T09:32:53Z</time>
      </trkpt>
      <trkpt lat="45.39281" lon="6.86074">
        <ele>2330</ele>
        <time>2015-08-23T09:32:54Z</time>
      </trkpt>
      <trkpt lat="45.39281" lon="6.8607">
        <ele>2330</ele>
        <time>2015-08-23T09:32:55Z</time>
      </trkpt>
      <trkpt lat="45.39281" lon="6.86065">
        <ele>2330</ele>
        <time>2015-08-23T09:32:56Z</time>
      </trkpt>
      <trkpt lat="45.39281" lon="6.86061">
        <ele>2330</ele>
        <time>2015-08-23T09:32:57Z</time>
      </trkpt>
      <trkpt lat="45.3928" lon="6.86056">
        <ele>2330</ele>
        <time>2015-08-23T09:32:58Z</time>
      </trkpt>
      <trkpt lat="45.3928" lon="6.86053">
        <ele>2329</ele>
        <time>2015-08-23T09:32:59Z</time>
      </trkpt>
      <trkpt lat="45.3928" lon="6.86048">
        <ele>2329</ele>
        <time>2015-08-23T09:33:00Z</time>
      </trkpt>
      <trkpt lat="45.39279" lon="6.86044">
        <ele>2329</ele>
        <time>2015-08-23T09:33:02Z</time>
      </trkpt>
      <trkpt lat="45.39278" lon="6.86038">
        <ele>2329</ele>
        <time>2015-08-23T09:33:04Z</time>
      </trkpt>
      <trkpt lat="45.39277" lon="6.86032">
        <ele>2329</ele>
        <time>2015-08-23T09:33:06Z</time>
      </trkpt>
      <trkpt lat="45.39276" lon="6.86026">
        <ele>2329</ele>
        <time>2015-08-23T09:33:08Z</time>
      </trkpt>
      <trkpt lat="45.39275" lon="6.86021">
        <ele>2329</ele>
        <time>2015-08-23T09:33:10Z</time>
      </trkpt>
      <trkpt lat="45.39274" lon="6.86014">
        <ele>2329</ele>
        <time>2015-08-23T09:33:12Z</time>
      </trkpt>
      <trkpt lat="45.39274" lon="6.8601">
        <ele>2329</ele>
        <time>2015-08-23T09:33:13Z</time>
      </trkpt>
      <trkpt lat="45.39274" lon="6.86003">
        <ele>2329</ele>
        <time>2015-08-23T09:33:15Z</time>
      </trkpt>
      <trkpt lat="45.39275" lon="6.85999">
        <ele>2326</ele>
        <time>2015-08-23T09:33:16Z</time>
      </trkpt>
      <trkpt lat="45.39275" lon="6.85994">
        <ele>2326</ele>
        <time>2015-08-23T09:33:17Z</time>
      </trkpt>
      <trkpt lat="45.39275" lon="6.8599">
        <ele>2326</ele>
        <time>2015-08-23T09:33:18Z</time>
      </trkpt>
      <trkpt lat="45.39276" lon="6.85985">
        <ele>2326</ele>
        <time>2015-08-23T09:33:19Z</time>
      </trkpt>
      <trkpt lat="45.39276" lon="6.85981">
        <ele>2325</ele>
        <time>2015-08-23T09:33:20Z</time>
      </trkpt>
      <trkpt lat="45.39278" lon="6.85974">
        <ele>2325</ele>
        <time>2015-08-23T09:33:22Z</time>
      </trkpt>
      <trkpt lat="45.3928" lon="6.85967">
        <ele>2325</ele>
        <time>2015-08-23T09:33:24Z</time>
      </trkpt>
      <trkpt lat="45.3928" lon="6.85963">
        <ele>2324</ele>
        <time>2015-08-23T09:33:25Z</time>
      </trkpt>
      <trkpt lat="45.39281" lon="6.85955">
        <ele>2324</ele>
        <time>2015-08-23T09:33:27Z</time>
      </trkpt>
      <trkpt lat="45.3928" lon="6.85948">
        <ele>2324</ele>
        <time>2015-08-23T09:33:29Z</time>
      </trkpt>
      <trkpt lat="45.39278" lon="6.85941">
        <ele>2325</ele>
        <time>2015-08-23T09:33:31Z</time>
      </trkpt>
      <trkpt lat="45.39277" lon="6.85938">
        <ele>2325</ele>
        <time>2015-08-23T09:33:32Z</time>
      </trkpt>
      <trkpt lat="45.39277" lon="6.85934">
        <ele>2325</ele>
        <time>2015-08-23T09:33:33Z</time>
      </trkpt>
      <trkpt lat="45.39276" lon="6.8593">
        <ele>2325</ele>
        <time>2015-08-23T09:33:34Z</time>
      </trkpt>
      <trkpt lat="45.39275" lon="6.85925">
        <ele>2325</ele>
        <time>2015-08-23T09:33:35Z</time>
      </trkpt>
      <trkpt lat="45.39275" lon="6.85922">
        <ele>2325</ele>
        <time>2015-08-23T09:33:36Z</time>
      </trkpt>
      <trkpt lat="45.39273" lon="6.85915">
        <ele>2323</ele>
        <time>2015-08-23T09:33:38Z</time>
      </trkpt>
      <trkpt lat="45.39272" lon="6.85908">
        <ele>2323</ele>
        <time>2015-08-23T09:33:40Z</time>
      </trkpt>
      <trkpt lat="45.39272" lon="6.85902">
        <ele>2322</ele>
        <time>2015-08-23T09:33:42Z</time>
      </trkpt>
      <trkpt lat="45.39271" lon="6.85894">
        <ele>2322</ele>
        <time>2015-08-23T09:33:44Z</time>
      </trkpt>
      <trkpt lat="45.39271" lon="6.8589">
        <ele>2321</ele>
        <time>2015-08-23T09:33:45Z</time>
      </trkpt>
      <trkpt lat="45.39271" lon="6.85886">
        <ele>2321</ele>
        <time>2015-08-23T09:33:46Z</time>
      </trkpt>
      <trkpt lat="45.39271" lon="6.85882">
        <ele>2321</ele>
        <time>2015-08-23T09:33:47Z</time>
      </trkpt>
      <trkpt lat="45.39271" lon="6.85878">
        <ele>2321</ele>
        <time>2015-08-23T09:33:48Z</time>
      </trkpt>
      <trkpt lat="45.39271" lon="6.85873">
        <ele>2320</ele>
        <time>2015-08-23T09:33:49Z</time>
      </trkpt>
      <trkpt lat="45.39272" lon="6.8587">
        <ele>2320</ele>
        <time>2015-08-23T09:33:50Z</time>
      </trkpt>
      <trkpt lat="45.39273" lon="6.85866">
        <ele>2320</ele>
        <time>2015-08-23T09:33:51Z</time>
      </trkpt>
      <trkpt lat="45.39276" lon="6.85859">
        <ele>2320</ele>
        <time>2015-08-23T09:33:53Z</time>
      </trkpt>
      <trkpt lat="45.39278" lon="6.85853">
        <ele>2320</ele>
        <time>2015-08-23T09:33:55Z</time>
      </trkpt>
      <trkpt lat="45.39278" lon="6.85846">
        <ele>2319</ele>
        <time>2015-08-23T09:33:57Z</time>
      </trkpt>
      <trkpt lat="45.39279" lon="6.8584">
        <ele>2319</ele>
        <time>2015-08-23T09:33:59Z</time>
      </trkpt>
      <trkpt lat="45.39279" lon="6.85834">
        <ele>2319</ele>
        <time>2015-08-23T09:34:01Z</time>
      </trkpt>
      <trkpt lat="45.39278" lon="6.8583">
        <ele>2315</ele>
        <time>2015-08-23T09:34:03Z</time>
      </trkpt>
      <trkpt lat="45.39277" lon="6.85825">
        <ele>2315</ele>
        <time>2015-08-23T09:34:05Z</time>
      </trkpt>
      <trkpt lat="45.39276" lon="6.85818">
        <ele>2315</ele>
        <time>2015-08-23T09:34:07Z</time>
      </trkpt>
      <trkpt lat="45.39276" lon="6.85814">
        <ele>2314</ele>
        <time>2015-08-23T09:34:08Z</time>
      </trkpt>
      <trkpt lat="45.39276" lon="6.85808">
        <ele>2314</ele>
        <time>2015-08-23T09:34:09Z</time>
      </trkpt>
      <trkpt lat="45.39276" lon="6.85803">
        <ele>2313</ele>
        <time>2015-08-23T09:34:10Z</time>
      </trkpt>
      <trkpt lat="45.39276" lon="6.85797">
        <ele>2313</ele>
        <time>2015-08-23T09:34:11Z</time>
      </trkpt>
      <trkpt lat="45.39277" lon="6.85793">
        <ele>2312</ele>
        <time>2015-08-23T09:34:12Z</time>
      </trkpt>
      <trkpt lat="45.39276" lon="6.85788">
        <ele>2312</ele>
        <time>2015-08-23T09:34:13Z</time>
      </trkpt>
      <trkpt lat="45.39276" lon="6.85783">
        <ele>2312</ele>
        <time>2015-08-23T09:34:14Z</time>
      </trkpt>
      <trkpt lat="45.39276" lon="6.85778">
        <ele>2312</ele>
        <time>2015-08-23T09:34:15Z</time>
      </trkpt>
      <trkpt lat="45.39275" lon="6.85774">
        <ele>2312</ele>
        <time>2015-08-23T09:34:16Z</time>
      </trkpt>
      <trkpt lat="45.39275" lon="6.85769">
        <ele>2312</ele>
        <time>2015-08-23T09:34:17Z</time>
      </trkpt>
      <trkpt lat="45.39276" lon="6.85765">
        <ele>2312</ele>
        <time>2015-08-23T09:34:18Z</time>
      </trkpt>
      <trkpt lat="45.39276" lon="6.85761">
        <ele>2312</ele>
        <time>2015-08-23T09:34:19Z</time>
      </trkpt>
      <trkpt lat="45.39278" lon="6.85757">
        <ele>2312</ele>
        <time>2015-08-23T09:34:20Z</time>
      </trkpt>
      <trkpt lat="45.39279" lon="6.8575">
        <ele>2311</ele>
        <time>2015-08-23T09:34:22Z</time>
      </trkpt>
      <trkpt lat="45.39278" lon="6.85744">
        <ele>2307</ele>
        <time>2015-08-23T09:34:24Z</time>
      </trkpt>
      <trkpt lat="45.39278" lon="6.8574">
        <ele>2307</ele>
        <time>2015-08-23T09:34:25Z</time>
      </trkpt>
      <trkpt lat="45.39277" lon="6.85736">
        <ele>2306</ele>
        <time>2015-08-23T09:34:26Z</time>
      </trkpt>
      <trkpt lat="45.39277" lon="6.85729">
        <ele>2306</ele>
        <time>2015-08-23T09:34:28Z</time>
      </trkpt>
      <trkpt lat="45.39277" lon="6.85721">
        <ele>2305</ele>
        <time>2015-08-23T09:34:30Z</time>
      </trkpt>
      <trkpt lat="45.39277" lon="6.85716">
        <ele>2305</ele>
        <time>2015-08-23T09:34:31Z</time>
      </trkpt>
      <trkpt lat="45.39277" lon="6.85712">
        <ele>2305</ele>
        <time>2015-08-23T09:34:32Z</time>
      </trkpt>
      <trkpt lat="45.39278" lon="6.85708">
        <ele>2304</ele>
        <time>2015-08-23T09:34:33Z</time>
      </trkpt>
      <trkpt lat="45.39279" lon="6.85703">
        <ele>2304</ele>
        <time>2015-08-23T09:34:34Z</time>
      </trkpt>
      <trkpt lat="45.3928" lon="6.85699">
        <ele>2304</ele>
        <time>2015-08-23T09:34:35Z</time>
      </trkpt>
      <trkpt lat="45.39281" lon="6.85692">
        <ele>2303</ele>
        <time>2015-08-23T09:34:37Z</time>
      </trkpt>
      <trkpt lat="45.39281" lon="6.85687">
        <ele>2303</ele>
        <time>2015-08-23T09:34:39Z</time>
      </trkpt>
      <trkpt lat="45.3928" lon="6.85681">
        <ele>2304</ele>
        <time>2015-08-23T09:34:41Z</time>
      </trkpt>
      <trkpt lat="45.39279" lon="6.85675">
        <ele>2304</ele>
        <time>2015-08-23T09:34:43Z</time>
      </trkpt>
      <trkpt lat="45.39278" lon="6.8567">
        <ele>2304</ele>
        <time>2015-08-23T09:34:45Z</time>
      </trkpt>
      <trkpt lat="45.39279" lon="6.85664">
        <ele>2301</ele>
        <time>2015-08-23T09:34:47Z</time>
      </trkpt>
      <trkpt lat="45.39279" lon="6.85657">
        <ele>2301</ele>
        <time>2015-08-23T09:34:49Z</time>
      </trkpt>
      <trkpt lat="45.3928" lon="6.85654">
        <ele>2300</ele>
        <time>2015-08-23T09:34:50Z</time>
      </trkpt>
      <trkpt lat="45.3928" lon="6.85649">
        <ele>2300</ele>
        <time>2015-08-23T09:34:51Z</time>
      </trkpt>
      <trkpt lat="45.39281" lon="6.85645">
        <ele>2300</ele>
        <time>2015-08-23T09:34:52Z</time>
      </trkpt>
      <trkpt lat="45.39281" lon="6.8564">
        <ele>2299</ele>
        <time>2015-08-23T09:34:53Z</time>
      </trkpt>
      <trkpt lat="45.39281" lon="6.85635">
        <ele>2299</ele>
        <time>2015-08-23T09:34:54Z</time>
      </trkpt>
      <trkpt lat="45.39281" lon="6.85631">
        <ele>2299</ele>
        <time>2015-08-23T09:34:55Z</time>
      </trkpt>
      <trkpt lat="45.39282" lon="6.85626">
        <ele>2299</ele>
        <time>2015-08-23T09:34:56Z</time>
      </trkpt>
      <trkpt lat="45.39282" lon="6.85622">
        <ele>2299</ele>
        <time>2015-08-23T09:34:57Z</time>
      </trkpt>
      <trkpt lat="45.39281" lon="6.85618">
        <ele>2299</ele>
        <time>2015-08-23T09:34:58Z</time>
      </trkpt>
      <trkpt lat="45.3928" lon="6.85611">
        <ele>2299</ele>
        <time>2015-08-23T09:35:00Z</time>
      </trkpt>
      <trkpt lat="45.39279" lon="6.85607">
        <ele>2299</ele>
        <time>2015-08-23T09:35:01Z</time>
      </trkpt>
      <trkpt lat="45.39278" lon="6.85603">
        <ele>2299</ele>
        <time>2015-08-23T09:35:02Z</time>
      </trkpt>
      <trkpt lat="45.39277" lon="6.85599">
        <ele>2300</ele>
        <time>2015-08-23T09:35:03Z</time>
      </trkpt>
      <trkpt lat="45.39276" lon="6.85595">
        <ele>2300</ele>
        <time>2015-08-23T09:35:04Z</time>
      </trkpt>
      <trkpt lat="45.39275" lon="6.85591">
        <ele>2300</ele>
        <time>2015-08-23T09:35:05Z</time>
      </trkpt>
      <trkpt lat="45.39274" lon="6.85587">
        <ele>2301</ele>
        <time>2015-08-23T09:35:06Z</time>
      </trkpt>
      <trkpt lat="45.39273" lon="6.85583">
        <ele>2301</ele>
        <time>2015-08-23T09:35:07Z</time>
      </trkpt>
      <trkpt lat="45.39271" lon="6.85579">
        <ele>2300</ele>
        <time>2015-08-23T09:35:08Z</time>
      </trkpt>
      <trkpt lat="45.39269" lon="6.85575">
        <ele>2300</ele>
        <time>2015-08-23T09:35:09Z</time>
      </trkpt>
      <trkpt lat="45.39267" lon="6.85571">
        <ele>2300</ele>
        <time>2015-08-23T09:35:10Z</time>
      </trkpt>
      <trkpt lat="45.39265" lon="6.85568">
        <ele>2300</ele>
        <time>2015-08-23T09:35:11Z</time>
      </trkpt>
      <trkpt lat="45.39264" lon="6.85565">
        <ele>2300</ele>
        <time>2015-08-23T09:35:12Z</time>
      </trkpt>
      <trkpt lat="45.39262" lon="6.85561">
        <ele>2299</ele>
        <time>2015-08-23T09:35:13Z</time>
      </trkpt>
      <trkpt lat="45.39261" lon="6.85558">
        <ele>2299</ele>
        <time>2015-08-23T09:35:14Z</time>
      </trkpt>
      <trkpt lat="45.3926" lon="6.85554">
        <ele>2299</ele>
        <time>2015-08-23T09:35:15Z</time>
      </trkpt>
      <trkpt lat="45.39258" lon="6.8555">
        <ele>2298</ele>
        <time>2015-08-23T09:35:16Z</time>
      </trkpt>
      <trkpt lat="45.39257" lon="6.85546">
        <ele>2298</ele>
        <time>2015-08-23T09:35:17Z</time>
      </trkpt>
      <trkpt lat="45.39256" lon="6.85542">
        <ele>2298</ele>
        <time>2015-08-23T09:35:18Z</time>
      </trkpt>
      <trkpt lat="45.39255" lon="6.85538">
        <ele>2298</ele>
        <time>2015-08-23T09:35:19Z</time>
      </trkpt>
      <trkpt lat="45.39255" lon="6.85534">
        <ele>2298</ele>
        <time>2015-08-23T09:35:20Z</time>
      </trkpt>
      <trkpt lat="45.39256" lon="6.85528">
        <ele>2298</ele>
        <time>2015-08-23T09:35:22Z</time>
      </trkpt>
      <trkpt lat="45.39258" lon="6.85523">
        <ele>2298</ele>
        <time>2015-08-23T09:35:24Z</time>
      </trkpt>
      <trkpt lat="45.39258" lon="6.85517">
        <ele>2298</ele>
        <time>2015-08-23T09:35:26Z</time>
      </trkpt>
      <trkpt lat="45.39258" lon="6.85511">
        <ele>2299</ele>
        <time>2015-08-23T09:35:28Z</time>
      </trkpt>
      <trkpt lat="45.39258" lon="6.85505">
        <ele>2299</ele>
        <time>2015-08-23T09:35:30Z</time>
      </trkpt>
      <trkpt lat="45.3926" lon="6.85498">
        <ele>2299</ele>
        <time>2015-08-23T09:35:32Z</time>
      </trkpt>
      <trkpt lat="45.3926" lon="6.85495">
        <ele>2298</ele>
        <time>2015-08-23T09:35:33Z</time>
      </trkpt>
      <trkpt lat="45.39261" lon="6.85488">
        <ele>2297</ele>
        <time>2015-08-23T09:35:35Z</time>
      </trkpt>
      <trkpt lat="45.39261" lon="6.85482">
        <ele>2296</ele>
        <time>2015-08-23T09:35:37Z</time>
      </trkpt>
      <trkpt lat="45.39261" lon="6.85477">
        <ele>2296</ele>
        <time>2015-08-23T09:35:39Z</time>
      </trkpt>
      <trkpt lat="45.39261" lon="6.8547">
        <ele>2295</ele>
        <time>2015-08-23T09:35:41Z</time>
      </trkpt>
      <trkpt lat="45.39259" lon="6.85463">
        <ele>2295</ele>
        <time>2015-08-23T09:35:43Z</time>
      </trkpt>
      <trkpt lat="45.39256" lon="6.85458">
        <ele>2295</ele>
        <time>2015-08-23T09:35:45Z</time>
      </trkpt>
      <trkpt lat="45.39254" lon="6.85452">
        <ele>2295</ele>
        <time>2015-08-23T09:35:47Z</time>
      </trkpt>
      <trkpt lat="45.39254" lon="6.85446">
        <ele>2295</ele>
        <time>2015-08-23T09:35:49Z</time>
      </trkpt>
      <trkpt lat="45.39253" lon="6.85439">
        <ele>2296</ele>
        <time>2015-08-23T09:35:51Z</time>
      </trkpt>
      <trkpt lat="45.39252" lon="6.85432">
        <ele>2297</ele>
        <time>2015-08-23T09:35:53Z</time>
      </trkpt>
      <trkpt lat="45.3925" lon="6.85428">
        <ele>2297</ele>
        <time>2015-08-23T09:35:54Z</time>
      </trkpt>
      <trkpt lat="45.39249" lon="6.85424">
        <ele>2305</ele>
        <time>2015-08-23T09:35:55Z</time>
      </trkpt>
      <trkpt lat="45.39246" lon="6.85418">
        <ele>2303</ele>
        <time>2015-08-23T09:35:57Z</time>
      </trkpt>
      <trkpt lat="45.39244" lon="6.85414">
        <ele>2304</ele>
        <time>2015-08-23T09:35:59Z</time>
      </trkpt>
      <trkpt lat="45.3924" lon="6.85409">
        <ele>2306</ele>
        <time>2015-08-23T09:36:01Z</time>
      </trkpt>
      <trkpt lat="45.39238" lon="6.85404">
        <ele>2307</ele>
        <time>2015-08-23T09:36:03Z</time>
      </trkpt>
      <trkpt lat="45.39238" lon="6.854">
        <ele>2308</ele>
        <time>2015-08-23T09:36:05Z</time>
      </trkpt>
      <trkpt lat="45.3924" lon="6.85396">
        <ele>2308</ele>
        <time>2015-08-23T09:36:07Z</time>
      </trkpt>
      <trkpt lat="45.39243" lon="6.85393">
        <ele>2308</ele>
        <time>2015-08-23T09:36:09Z</time>
      </trkpt>
      <trkpt lat="45.39247" lon="6.8539">
        <ele>2308</ele>
        <time>2015-08-23T09:36:11Z</time>
      </trkpt>
      <trkpt lat="45.39251" lon="6.85386">
        <ele>2295</ele>
        <time>2015-08-23T09:36:13Z</time>
      </trkpt>
      <trkpt lat="45.39252" lon="6.85382">
        <ele>2295</ele>
        <time>2015-08-23T09:36:14Z</time>
      </trkpt>
      <trkpt lat="45.39254" lon="6.85379">
        <ele>2294</ele>
        <time>2015-08-23T09:36:15Z</time>
      </trkpt>
      <trkpt lat="45.39257" lon="6.85374">
        <ele>2294</ele>
        <time>2015-08-23T09:36:17Z</time>
      </trkpt>
      <trkpt lat="45.39259" lon="6.85368">
        <ele>2294</ele>
        <time>2015-08-23T09:36:19Z</time>
      </trkpt>
      <trkpt lat="45.3926" lon="6.85361">
        <ele>2294</ele>
        <time>2015-08-23T09:36:21Z</time>
      </trkpt>
      <trkpt lat="45.39261" lon="6.85354">
        <ele>2295</ele>
        <time>2015-08-23T09:36:23Z</time>
      </trkpt>
      <trkpt lat="45.39263" lon="6.85347">
        <ele>2295</ele>
        <time>2015-08-23T09:36:25Z</time>
      </trkpt>
      <trkpt lat="45.39264" lon="6.85343">
        <ele>2295</ele>
        <time>2015-08-23T09:36:26Z</time>
      </trkpt>
      <trkpt lat="45.39265" lon="6.85339">
        <ele>2295</ele>
        <time>2015-08-23T09:36:27Z</time>
      </trkpt>
      <trkpt lat="45.39265" lon="6.85334">
        <ele>2295</ele>
        <time>2015-08-23T09:36:28Z</time>
      </trkpt>
      <trkpt lat="45.39266" lon="6.8533">
        <ele>2293</ele>
        <time>2015-08-23T09:36:29Z</time>
      </trkpt>
      <trkpt lat="45.39265" lon="6.85326">
        <ele>2293</ele>
        <time>2015-08-23T09:36:30Z</time>
      </trkpt>
      <trkpt lat="45.39265" lon="6.85322">
        <ele>2292</ele>
        <time>2015-08-23T09:36:31Z</time>
      </trkpt>
      <trkpt lat="45.39265" lon="6.85318">
        <ele>2292</ele>
        <time>2015-08-23T09:36:32Z</time>
      </trkpt>
      <trkpt lat="45.39264" lon="6.85311">
        <ele>2291</ele>
        <time>2015-08-23T09:36:34Z</time>
      </trkpt>
      <trkpt lat="45.39263" lon="6.85304">
        <ele>2290</ele>
        <time>2015-08-23T09:36:36Z</time>
      </trkpt>
      <trkpt lat="45.39261" lon="6.85297">
        <ele>2289</ele>
        <time>2015-08-23T09:36:38Z</time>
      </trkpt>
      <trkpt lat="45.39261" lon="6.85294">
        <ele>2289</ele>
        <time>2015-08-23T09:36:39Z</time>
      </trkpt>
      <trkpt lat="45.39258" lon="6.85286">
        <ele>2289</ele>
        <time>2015-08-23T09:36:41Z</time>
      </trkpt>
      <trkpt lat="45.39258" lon="6.85283">
        <ele>2288</ele>
        <time>2015-08-23T09:36:42Z</time>
      </trkpt>
      <trkpt lat="45.39256" lon="6.85276">
        <ele>2288</ele>
        <time>2015-08-23T09:36:44Z</time>
      </trkpt>
      <trkpt lat="45.39255" lon="6.85271">
        <ele>2288</ele>
        <time>2015-08-23T09:36:46Z</time>
      </trkpt>
      <trkpt lat="45.39253" lon="6.85266">
        <ele>2287</ele>
        <time>2015-08-23T09:36:48Z</time>
      </trkpt>
      <trkpt lat="45.39251" lon="6.85264">
        <ele>2287</ele>
        <time>2015-08-23T09:36:51Z</time>
      </trkpt>
      <trkpt lat="45.39247" lon="6.85264">
        <ele>2295</ele>
        <time>2015-08-23T09:36:53Z</time>
      </trkpt>
      <trkpt lat="45.39244" lon="6.85264">
        <ele>2295</ele>
        <time>2015-08-23T09:36:55Z</time>
      </trkpt>
      <trkpt lat="45.39242" lon="6.8526">
        <ele>2294</ele>
        <time>2015-08-23T09:36:58Z</time>
      </trkpt>
      <trkpt lat="45.39241" lon="6.85255">
        <ele>2293</ele>
        <time>2015-08-23T09:37:00Z</time>
      </trkpt>
      <trkpt lat="45.3924" lon="6.8525">
        <ele>2290</ele>
        <time>2015-08-23T09:37:02Z</time>
      </trkpt>
      <trkpt lat="45.39238" lon="6.85244">
        <ele>2291</ele>
        <time>2015-08-23T09:37:04Z</time>
      </trkpt>
      <trkpt lat="45.39236" lon="6.85237">
        <ele>2292</ele>
        <time>2015-08-23T09:37:06Z</time>
      </trkpt>
      <trkpt lat="45.39234" lon="6.8523">
        <ele>2292</ele>
        <time>2015-08-23T09:37:08Z</time>
      </trkpt>
      <trkpt lat="45.39234" lon="6.85226">
        <ele>2292</ele>
        <time>2015-08-23T09:37:09Z</time>
      </trkpt>
      <trkpt lat="45.39235" lon="6.85222">
        <ele>2292</ele>
        <time>2015-08-23T09:37:10Z</time>
      </trkpt>
      <trkpt lat="45.39236" lon="6.85217">
        <ele>2292</ele>
        <time>2015-08-23T09:37:11Z</time>
      </trkpt>
      <trkpt lat="45.39237" lon="6.85212">
        <ele>2292</ele>
        <time>2015-08-23T09:37:12Z</time>
      </trkpt>
      <trkpt lat="45.39238" lon="6.85208">
        <ele>2291</ele>
        <time>2015-08-23T09:37:13Z</time>
      </trkpt>
      <trkpt lat="45.39239" lon="6.85204">
        <ele>2291</ele>
        <time>2015-08-23T09:37:14Z</time>
      </trkpt>
      <trkpt lat="45.39239" lon="6.85199">
        <ele>2290</ele>
        <time>2015-08-23T09:37:15Z</time>
      </trkpt>
      <trkpt lat="45.39239" lon="6.85195">
        <ele>2289</ele>
        <time>2015-08-23T09:37:16Z</time>
      </trkpt>
      <trkpt lat="45.39238" lon="6.8519">
        <ele>2289</ele>
        <time>2015-08-23T09:37:17Z</time>
      </trkpt>
      <trkpt lat="45.39237" lon="6.85185">
        <ele>2288</ele>
        <time>2015-08-23T09:37:18Z</time>
      </trkpt>
      <trkpt lat="45.39235" lon="6.85181">
        <ele>2287</ele>
        <time>2015-08-23T09:37:19Z</time>
      </trkpt>
      <trkpt lat="45.39234" lon="6.85177">
        <ele>2287</ele>
        <time>2015-08-23T09:37:20Z</time>
      </trkpt>
      <trkpt lat="45.39233" lon="6.85172">
        <ele>2286</ele>
        <time>2015-08-23T09:37:21Z</time>
      </trkpt>
      <trkpt lat="45.39232" lon="6.85168">
        <ele>2286</ele>
        <time>2015-08-23T09:37:22Z</time>
      </trkpt>
      <trkpt lat="45.39231" lon="6.85163">
        <ele>2281</ele>
        <time>2015-08-23T09:37:23Z</time>
      </trkpt>
      <trkpt lat="45.3923" lon="6.85159">
        <ele>2281</ele>
        <time>2015-08-23T09:37:24Z</time>
      </trkpt>
      <trkpt lat="45.3923" lon="6.85155">
        <ele>2281</ele>
        <time>2015-08-23T09:37:25Z</time>
      </trkpt>
      <trkpt lat="45.39228" lon="6.85151">
        <ele>2281</ele>
        <time>2015-08-23T09:37:26Z</time>
      </trkpt>
      <trkpt lat="45.39227" lon="6.85147">
        <ele>2281</ele>
        <time>2015-08-23T09:37:27Z</time>
      </trkpt>
      <trkpt lat="45.39226" lon="6.85144">
        <ele>2282</ele>
        <time>2015-08-23T09:37:28Z</time>
      </trkpt>
      <trkpt lat="45.39224" lon="6.85139">
        <ele>2282</ele>
        <time>2015-08-23T09:37:29Z</time>
      </trkpt>
      <trkpt lat="45.39223" lon="6.85135">
        <ele>2282</ele>
        <time>2015-08-23T09:37:30Z</time>
      </trkpt>
      <trkpt lat="45.39222" lon="6.85131">
        <ele>2281</ele>
        <time>2015-08-23T09:37:31Z</time>
      </trkpt>
      <trkpt lat="45.39221" lon="6.85127">
        <ele>2281</ele>
        <time>2015-08-23T09:37:32Z</time>
      </trkpt>
      <trkpt lat="45.3922" lon="6.85123">
        <ele>2281</ele>
        <time>2015-08-23T09:37:33Z</time>
      </trkpt>
      <trkpt lat="45.39218" lon="6.85119">
        <ele>2281</ele>
        <time>2015-08-23T09:37:34Z</time>
      </trkpt>
      <trkpt lat="45.39217" lon="6.85115">
        <ele>2281</ele>
        <time>2015-08-23T09:37:35Z</time>
      </trkpt>
      <trkpt lat="45.39217" lon="6.85111">
        <ele>2280</ele>
        <time>2015-08-23T09:37:36Z</time>
      </trkpt>
      <trkpt lat="45.39216" lon="6.85106">
        <ele>2280</ele>
        <time>2015-08-23T09:37:37Z</time>
      </trkpt>
      <trkpt lat="45.39216" lon="6.85102">
        <ele>2280</ele>
        <time>2015-08-23T09:37:38Z</time>
      </trkpt>
      <trkpt lat="45.39215" lon="6.85097">
        <ele>2279</ele>
        <time>2015-08-23T09:37:39Z</time>
      </trkpt>
      <trkpt lat="45.39214" lon="6.85093">
        <ele>2279</ele>
        <time>2015-08-23T09:37:40Z</time>
      </trkpt>
      <trkpt lat="45.39214" lon="6.85089">
        <ele>2279</ele>
        <time>2015-08-23T09:37:41Z</time>
      </trkpt>
      <trkpt lat="45.39213" lon="6.85083">
        <ele>2270</ele>
        <time>2015-08-23T09:37:43Z</time>
      </trkpt>
      <trkpt lat="45.39212" lon="6.85077">
        <ele>2270</ele>
        <time>2015-08-23T09:37:45Z</time>
      </trkpt>
      <trkpt lat="45.39208" lon="6.85072">
        <ele>2270</ele>
        <time>2015-08-23T09:37:47Z</time>
      </trkpt>
      <trkpt lat="45.39204" lon="6.85067">
        <ele>2271</ele>
        <time>2015-08-23T09:37:49Z</time>
      </trkpt>
      <trkpt lat="45.39202" lon="6.85065">
        <ele>2271</ele>
        <time>2015-08-23T09:37:50Z</time>
      </trkpt>
      <trkpt lat="45.39198" lon="6.85061">
        <ele>2272</ele>
        <time>2015-08-23T09:37:52Z</time>
      </trkpt>
      <trkpt lat="45.39195" lon="6.85056">
        <ele>2272</ele>
        <time>2015-08-23T09:37:54Z</time>
      </trkpt>
      <trkpt lat="45.39194" lon="6.85051">
        <ele>2271</ele>
        <time>2015-08-23T09:37:56Z</time>
      </trkpt>
      <trkpt lat="45.39194" lon="6.85045">
        <ele>2270</ele>
        <time>2015-08-23T09:37:58Z</time>
      </trkpt>
      <trkpt lat="45.39194" lon="6.85039">
        <ele>2269</ele>
        <time>2015-08-23T09:38:00Z</time>
      </trkpt>
      <trkpt lat="45.39192" lon="6.85031">
        <ele>2269</ele>
        <time>2015-08-23T09:38:02Z</time>
      </trkpt>
      <trkpt lat="45.39191" lon="6.85027">
        <ele>2269</ele>
        <time>2015-08-23T09:38:03Z</time>
      </trkpt>
      <trkpt lat="45.39191" lon="6.85023">
        <ele>2268</ele>
        <time>2015-08-23T09:38:04Z</time>
      </trkpt>
      <trkpt lat="45.39189" lon="6.85016">
        <ele>2268</ele>
        <time>2015-08-23T09:38:06Z</time>
      </trkpt>
      <trkpt lat="45.39188" lon="6.85012">
        <ele>2268</ele>
        <time>2015-08-23T09:38:07Z</time>
      </trkpt>
      <trkpt lat="45.39186" lon="6.85008">
        <ele>2268</ele>
        <time>2015-08-23T09:38:08Z</time>
      </trkpt>
      <trkpt lat="45.39185" lon="6.85003">
        <ele>2268</ele>
        <time>2015-08-23T09:38:09Z</time>
      </trkpt>
      <trkpt lat="45.39183" lon="6.84999">
        <ele>2263</ele>
        <time>2015-08-23T09:38:10Z</time>
      </trkpt>
      <trkpt lat="45.39182" lon="6.84995">
        <ele>2263</ele>
        <time>2015-08-23T09:38:11Z</time>
      </trkpt>
      <trkpt lat="45.3918" lon="6.8499">
        <ele>2263</ele>
        <time>2015-08-23T09:38:12Z</time>
      </trkpt>
      <trkpt lat="45.39179" lon="6.84985">
        <ele>2262</ele>
        <time>2015-08-23T09:38:13Z</time>
      </trkpt>
      <trkpt lat="45.39178" lon="6.84981">
        <ele>2261</ele>
        <time>2015-08-23T09:38:14Z</time>
      </trkpt>
      <trkpt lat="45.39177" lon="6.84977">
        <ele>2261</ele>
        <time>2015-08-23T09:38:15Z</time>
      </trkpt>
      <trkpt lat="45.39176" lon="6.84973">
        <ele>2260</ele>
        <time>2015-08-23T09:38:16Z</time>
      </trkpt>
      <trkpt lat="45.39174" lon="6.84969">
        <ele>2260</ele>
        <time>2015-08-23T09:38:17Z</time>
      </trkpt>
      <trkpt lat="45.39173" lon="6.84965">
        <ele>2259</ele>
        <time>2015-08-23T09:38:18Z</time>
      </trkpt>
      <trkpt lat="45.39172" lon="6.84961">
        <ele>2259</ele>
        <time>2015-08-23T09:38:19Z</time>
      </trkpt>
      <trkpt lat="45.3917" lon="6.84957">
        <ele>2258</ele>
        <time>2015-08-23T09:38:20Z</time>
      </trkpt>
      <trkpt lat="45.39169" lon="6.84954">
        <ele>2258</ele>
        <time>2015-08-23T09:38:21Z</time>
      </trkpt>
      <trkpt lat="45.39167" lon="6.84949">
        <ele>2258</ele>
        <time>2015-08-23T09:38:22Z</time>
      </trkpt>
      <trkpt lat="45.39165" lon="6.84943">
        <ele>2269</ele>
        <time>2015-08-23T09:38:23Z</time>
      </trkpt>
      <trkpt lat="45.39163" lon="6.84938">
        <ele>2268</ele>
        <time>2015-08-23T09:38:24Z</time>
      </trkpt>
      <trkpt lat="45.39161" lon="6.84932">
        <ele>2266</ele>
        <time>2015-08-23T09:38:25Z</time>
      </trkpt>
      <trkpt lat="45.39159" lon="6.84926">
        <ele>2264</ele>
        <time>2015-08-23T09:38:26Z</time>
      </trkpt>
      <trkpt lat="45.39157" lon="6.84922">
        <ele>2264</ele>
        <time>2015-08-23T09:38:27Z</time>
      </trkpt>
      <trkpt lat="45.39155" lon="6.84917">
        <ele>2264</ele>
        <time>2015-08-23T09:38:28Z</time>
      </trkpt>
      <trkpt lat="45.39154" lon="6.84913">
        <ele>2259</ele>
        <time>2015-08-23T09:38:29Z</time>
      </trkpt>
      <trkpt lat="45.39153" lon="6.84909">
        <ele>2259</ele>
        <time>2015-08-23T09:38:30Z</time>
      </trkpt>
      <trkpt lat="45.3915" lon="6.84903">
        <ele>2260</ele>
        <time>2015-08-23T09:38:32Z</time>
      </trkpt>
      <trkpt lat="45.39148" lon="6.84897">
        <ele>2260</ele>
        <time>2015-08-23T09:38:34Z</time>
      </trkpt>
      <trkpt lat="45.39149" lon="6.84892">
        <ele>2260</ele>
        <time>2015-08-23T09:38:36Z</time>
      </trkpt>
      <trkpt lat="45.39149" lon="6.84886">
        <ele>2260</ele>
        <time>2015-08-23T09:38:38Z</time>
      </trkpt>
      <trkpt lat="45.39147" lon="6.84881">
        <ele>2260</ele>
        <time>2015-08-23T09:38:40Z</time>
      </trkpt>
      <trkpt lat="45.39143" lon="6.84875">
        <ele>2260</ele>
        <time>2015-08-23T09:38:42Z</time>
      </trkpt>
      <trkpt lat="45.3914" lon="6.8487">
        <ele>2260</ele>
        <time>2015-08-23T09:38:44Z</time>
      </trkpt>
      <trkpt lat="45.39136" lon="6.84864">
        <ele>2260</ele>
        <time>2015-08-23T09:38:46Z</time>
      </trkpt>
      <trkpt lat="45.39135" lon="6.84861">
        <ele>2259</ele>
        <time>2015-08-23T09:38:47Z</time>
      </trkpt>
      <trkpt lat="45.39133" lon="6.84854">
        <ele>2259</ele>
        <time>2015-08-23T09:38:49Z</time>
      </trkpt>
      <trkpt lat="45.39132" lon="6.84848">
        <ele>2259</ele>
        <time>2015-08-23T09:38:51Z</time>
      </trkpt>
      <trkpt lat="45.3913" lon="6.84841">
        <ele>2259</ele>
        <time>2015-08-23T09:38:53Z</time>
      </trkpt>
      <trkpt lat="45.39128" lon="6.84837">
        <ele>2259</ele>
        <time>2015-08-23T09:38:54Z</time>
      </trkpt>
      <trkpt lat="45.39127" lon="6.84833">
        <ele>2250</ele>
        <time>2015-08-23T09:38:55Z</time>
      </trkpt>
      <trkpt lat="45.39126" lon="6.84828">
        <ele>2250</ele>
        <time>2015-08-23T09:38:56Z</time>
      </trkpt>
      <trkpt lat="45.39124" lon="6.84824">
        <ele>2250</ele>
        <time>2015-08-23T09:38:57Z</time>
      </trkpt>
      <trkpt lat="45.39123" lon="6.84819">
        <ele>2250</ele>
        <time>2015-08-23T09:38:58Z</time>
      </trkpt>
      <trkpt lat="45.39121" lon="6.84815">
        <ele>2250</ele>
        <time>2015-08-23T09:38:59Z</time>
      </trkpt>
      <trkpt lat="45.39119" lon="6.84811">
        <ele>2249</ele>
        <time>2015-08-23T09:39:00Z</time>
      </trkpt>
      <trkpt lat="45.39117" lon="6.84807">
        <ele>2249</ele>
        <time>2015-08-23T09:39:01Z</time>
      </trkpt>
      <trkpt lat="45.39115" lon="6.84803">
        <ele>2249</ele>
        <time>2015-08-23T09:39:02Z</time>
      </trkpt>
      <trkpt lat="45.39113" lon="6.84799">
        <ele>2249</ele>
        <time>2015-08-23T09:39:03Z</time>
      </trkpt>
      <trkpt lat="45.39111" lon="6.84795">
        <ele>2249</ele>
        <time>2015-08-23T09:39:04Z</time>
      </trkpt>
      <trkpt lat="45.39108" lon="6.84791">
        <ele>2249</ele>
        <time>2015-08-23T09:39:05Z</time>
      </trkpt>
      <trkpt lat="45.39105" lon="6.84787">
        <ele>2248</ele>
        <time>2015-08-23T09:39:06Z</time>
      </trkpt>
      <trkpt lat="45.39102" lon="6.84783">
        <ele>2248</ele>
        <time>2015-08-23T09:39:07Z</time>
      </trkpt>
      <trkpt lat="45.39099" lon="6.84779">
        <ele>2248</ele>
        <time>2015-08-23T09:39:08Z</time>
      </trkpt>
      <trkpt lat="45.39097" lon="6.84775">
        <ele>2248</ele>
        <time>2015-08-23T09:39:09Z</time>
      </trkpt>
      <trkpt lat="45.39093" lon="6.84772">
        <ele>2247</ele>
        <time>2015-08-23T09:39:10Z</time>
      </trkpt>
      <trkpt lat="45.39089" lon="6.84768">
        <ele>2247</ele>
        <time>2015-08-23T09:39:11Z</time>
      </trkpt>
      <trkpt lat="45.39085" lon="6.84765">
        <ele>2247</ele>
        <time>2015-08-23T09:39:12Z</time>
      </trkpt>
      <trkpt lat="45.39081" lon="6.84762">
        <ele>2254</ele>
        <time>2015-08-23T09:39:13Z</time>
      </trkpt>
      <trkpt lat="45.39079" lon="6.84758">
        <ele>2252</ele>
        <time>2015-08-23T09:39:14Z</time>
      </trkpt>
      <trkpt lat="45.39077" lon="6.84754">
        <ele>2251</ele>
        <time>2015-08-23T09:39:15Z</time>
      </trkpt>
      <trkpt lat="45.39075" lon="6.84749">
        <ele>2247</ele>
        <time>2015-08-23T09:39:16Z</time>
      </trkpt>
      <trkpt lat="45.39073" lon="6.84744">
        <ele>2247</ele>
        <time>2015-08-23T09:39:17Z</time>
      </trkpt>
      <trkpt lat="45.39071" lon="6.84739">
        <ele>2247</ele>
        <time>2015-08-23T09:39:18Z</time>
      </trkpt>
      <trkpt lat="45.39069" lon="6.84735">
        <ele>2248</ele>
        <time>2015-08-23T09:39:19Z</time>
      </trkpt>
      <trkpt lat="45.39067" lon="6.84732">
        <ele>2248</ele>
        <time>2015-08-23T09:39:20Z</time>
      </trkpt>
      <trkpt lat="45.39065" lon="6.84729">
        <ele>2248</ele>
        <time>2015-08-23T09:39:21Z</time>
      </trkpt>
      <trkpt lat="45.39063" lon="6.84722">
        <ele>2248</ele>
        <time>2015-08-23T09:39:23Z</time>
      </trkpt>
      <trkpt lat="45.39062" lon="6.84719">
        <ele>2247</ele>
        <time>2015-08-23T09:39:24Z</time>
      </trkpt>
      <trkpt lat="45.39059" lon="6.84711">
        <ele>2247</ele>
        <time>2015-08-23T09:39:26Z</time>
      </trkpt>
      <trkpt lat="45.39058" lon="6.84708">
        <ele>2247</ele>
        <time>2015-08-23T09:39:27Z</time>
      </trkpt>
      <trkpt lat="45.39057" lon="6.84704">
        <ele>2246</ele>
        <time>2015-08-23T09:39:28Z</time>
      </trkpt>
      <trkpt lat="45.39055" lon="6.847">
        <ele>2246</ele>
        <time>2015-08-23T09:39:29Z</time>
      </trkpt>
      <trkpt lat="45.39054" lon="6.84697">
        <ele>2246</ele>
        <time>2015-08-23T09:39:30Z</time>
      </trkpt>
      <trkpt lat="45.39052" lon="6.84693">
        <ele>2246</ele>
        <time>2015-08-23T09:39:31Z</time>
      </trkpt>
      <trkpt lat="45.39051" lon="6.84689">
        <ele>2245</ele>
        <time>2015-08-23T09:39:32Z</time>
      </trkpt>
      <trkpt lat="45.39049" lon="6.84686">
        <ele>2245</ele>
        <time>2015-08-23T09:39:33Z</time>
      </trkpt>
      <trkpt lat="45.39047" lon="6.84682">
        <ele>2245</ele>
        <time>2015-08-23T09:39:34Z</time>
      </trkpt>
      <trkpt lat="45.39045" lon="6.84678">
        <ele>2245</ele>
        <time>2015-08-23T09:39:35Z</time>
      </trkpt>
      <trkpt lat="45.39042" lon="6.84676">
        <ele>2245</ele>
        <time>2015-08-23T09:39:36Z</time>
      </trkpt>
      <trkpt lat="45.3904" lon="6.84674">
        <ele>2246</ele>
        <time>2015-08-23T09:39:37Z</time>
      </trkpt>
      <trkpt lat="45.39037" lon="6.84672">
        <ele>2246</ele>
        <time>2015-08-23T09:39:38Z</time>
      </trkpt>
      <trkpt lat="45.39034" lon="6.8467">
        <ele>2246</ele>
        <time>2015-08-23T09:39:39Z</time>
      </trkpt>
      <trkpt lat="45.39031" lon="6.84668">
        <ele>2246</ele>
        <time>2015-08-23T09:39:40Z</time>
      </trkpt>
      <trkpt lat="45.39028" lon="6.84666">
        <ele>2238</ele>
        <time>2015-08-23T09:39:41Z</time>
      </trkpt>
      <trkpt lat="45.39025" lon="6.84664">
        <ele>2239</ele>
        <time>2015-08-23T09:39:42Z</time>
      </trkpt>
      <trkpt lat="45.39022" lon="6.84661">
        <ele>2239</ele>
        <time>2015-08-23T09:39:43Z</time>
      </trkpt>
      <trkpt lat="45.3902" lon="6.84658">
        <ele>2240</ele>
        <time>2015-08-23T09:39:44Z</time>
      </trkpt>
      <trkpt lat="45.39018" lon="6.84654">
        <ele>2240</ele>
        <time>2015-08-23T09:39:45Z</time>
      </trkpt>
      <trkpt lat="45.39016" lon="6.84651">
        <ele>2239</ele>
        <time>2015-08-23T09:39:46Z</time>
      </trkpt>
      <trkpt lat="45.39013" lon="6.84644">
        <ele>2239</ele>
        <time>2015-08-23T09:39:48Z</time>
      </trkpt>
      <trkpt lat="45.39012" lon="6.8464">
        <ele>2238</ele>
        <time>2015-08-23T09:39:49Z</time>
      </trkpt>
      <trkpt lat="45.3901" lon="6.84636">
        <ele>2238</ele>
        <time>2015-08-23T09:39:50Z</time>
      </trkpt>
      <trkpt lat="45.39009" lon="6.84633">
        <ele>2237</ele>
        <time>2015-08-23T09:39:51Z</time>
      </trkpt>
      <trkpt lat="45.39007" lon="6.8463">
        <ele>2237</ele>
        <time>2015-08-23T09:39:52Z</time>
      </trkpt>
      <trkpt lat="45.39003" lon="6.84625">
        <ele>2237</ele>
        <time>2015-08-23T09:39:54Z</time>
      </trkpt>
      <trkpt lat="45.39" lon="6.8462">
        <ele>2248</ele>
        <time>2015-08-23T09:39:56Z</time>
      </trkpt>
      <trkpt lat="45.38997" lon="6.84614">
        <ele>2247</ele>
        <time>2015-08-23T09:39:58Z</time>
      </trkpt>
      <trkpt lat="45.38996" lon="6.84611">
        <ele>2246</ele>
        <time>2015-08-23T09:39:59Z</time>
      </trkpt>
      <trkpt lat="45.38995" lon="6.84606">
        <ele>2245</ele>
        <time>2015-08-23T09:40:00Z</time>
      </trkpt>
      <trkpt lat="45.38993" lon="6.84601">
        <ele>2244</ele>
        <time>2015-08-23T09:40:01Z</time>
      </trkpt>
      <trkpt lat="45.38992" lon="6.84597">
        <ele>2242</ele>
        <time>2015-08-23T09:40:02Z</time>
      </trkpt>
      <trkpt lat="45.38991" lon="6.84593">
        <ele>2241</ele>
        <time>2015-08-23T09:40:03Z</time>
      </trkpt>
      <trkpt lat="45.38989" lon="6.84588">
        <ele>2241</ele>
        <time>2015-08-23T09:40:04Z</time>
      </trkpt>
      <trkpt lat="45.38988" lon="6.84584">
        <ele>2240</ele>
        <time>2015-08-23T09:40:05Z</time>
      </trkpt>
      <trkpt lat="45.38987" lon="6.8458">
        <ele>2235</ele>
        <time>2015-08-23T09:40:06Z</time>
      </trkpt>
      <trkpt lat="45.38985" lon="6.84577">
        <ele>2236</ele>
        <time>2015-08-23T09:40:07Z</time>
      </trkpt>
      <trkpt lat="45.38983" lon="6.84573">
        <ele>2236</ele>
        <time>2015-08-23T09:40:08Z</time>
      </trkpt>
      <trkpt lat="45.38982" lon="6.84568">
        <ele>2236</ele>
        <time>2015-08-23T09:40:09Z</time>
      </trkpt>
      <trkpt lat="45.38981" lon="6.84565">
        <ele>2237</ele>
        <time>2015-08-23T09:40:10Z</time>
      </trkpt>
      <trkpt lat="45.38979" lon="6.84561">
        <ele>2237</ele>
        <time>2015-08-23T09:40:11Z</time>
      </trkpt>
      <trkpt lat="45.38978" lon="6.84557">
        <ele>2237</ele>
        <time>2015-08-23T09:40:12Z</time>
      </trkpt>
      <trkpt lat="45.38977" lon="6.84553">
        <ele>2237</ele>
        <time>2015-08-23T09:40:13Z</time>
      </trkpt>
      <trkpt lat="45.38976" lon="6.8455">
        <ele>2237</ele>
        <time>2015-08-23T09:40:14Z</time>
      </trkpt>
      <trkpt lat="45.38975" lon="6.84546">
        <ele>2236</ele>
        <time>2015-08-23T09:40:15Z</time>
      </trkpt>
      <trkpt lat="45.38974" lon="6.84542">
        <ele>2236</ele>
        <time>2015-08-23T09:40:16Z</time>
      </trkpt>
      <trkpt lat="45.38973" lon="6.84538">
        <ele>2236</ele>
        <time>2015-08-23T09:40:17Z</time>
      </trkpt>
      <trkpt lat="45.38971" lon="6.84535">
        <ele>2236</ele>
        <time>2015-08-23T09:40:18Z</time>
      </trkpt>
      <trkpt lat="45.3897" lon="6.8453">
        <ele>2236</ele>
        <time>2015-08-23T09:40:19Z</time>
      </trkpt>
      <trkpt lat="45.38969" lon="6.84526">
        <ele>2236</ele>
        <time>2015-08-23T09:40:20Z</time>
      </trkpt>
      <trkpt lat="45.38968" lon="6.84519">
        <ele>2235</ele>
        <time>2015-08-23T09:40:22Z</time>
      </trkpt>
      <trkpt lat="45.38968" lon="6.84511">
        <ele>2235</ele>
        <time>2015-08-23T09:40:24Z</time>
      </trkpt>
      <trkpt lat="45.38967" lon="6.84507">
        <ele>2235</ele>
        <time>2015-08-23T09:40:25Z</time>
      </trkpt>
      <trkpt lat="45.38967" lon="6.845">
        <ele>2234</ele>
        <time>2015-08-23T09:40:27Z</time>
      </trkpt>
      <trkpt lat="45.38966" lon="6.84494">
        <ele>2226</ele>
        <time>2015-08-23T09:40:29Z</time>
      </trkpt>
      <trkpt lat="45.38965" lon="6.84489">
        <ele>2226</ele>
        <time>2015-08-23T09:40:31Z</time>
      </trkpt>
      <trkpt lat="45.38962" lon="6.84483">
        <ele>2226</ele>
        <time>2015-08-23T09:40:33Z</time>
      </trkpt>
      <trkpt lat="45.3896" lon="6.84479">
        <ele>2226</ele>
        <time>2015-08-23T09:40:34Z</time>
      </trkpt>
      <trkpt lat="45.38959" lon="6.84476">
        <ele>2226</ele>
        <time>2015-08-23T09:40:35Z</time>
      </trkpt>
      <trkpt lat="45.38957" lon="6.84472">
        <ele>2225</ele>
        <time>2015-08-23T09:40:36Z</time>
      </trkpt>
      <trkpt lat="45.38956" lon="6.84468">
        <ele>2225</ele>
        <time>2015-08-23T09:40:37Z</time>
      </trkpt>
      <trkpt lat="45.38954" lon="6.84465">
        <ele>2225</ele>
        <time>2015-08-23T09:40:38Z</time>
      </trkpt>
      <trkpt lat="45.38952" lon="6.84461">
        <ele>2225</ele>
        <time>2015-08-23T09:40:39Z</time>
      </trkpt>
      <trkpt lat="45.3895" lon="6.84457">
        <ele>2225</ele>
        <time>2015-08-23T09:40:40Z</time>
      </trkpt>
      <trkpt lat="45.38948" lon="6.84453">
        <ele>2224</ele>
        <time>2015-08-23T09:40:41Z</time>
      </trkpt>
      <trkpt lat="45.38945" lon="6.8445">
        <ele>2224</ele>
        <time>2015-08-23T09:40:42Z</time>
      </trkpt>
      <trkpt lat="45.38944" lon="6.84446">
        <ele>2224</ele>
        <time>2015-08-23T09:40:43Z</time>
      </trkpt>
      <trkpt lat="45.38942" lon="6.84442">
        <ele>2224</ele>
        <time>2015-08-23T09:40:44Z</time>
      </trkpt>
      <trkpt lat="45.3894" lon="6.84438">
        <ele>2223</ele>
        <time>2015-08-23T09:40:45Z</time>
      </trkpt>
      <trkpt lat="45.38939" lon="6.84434">
        <ele>2223</ele>
        <time>2015-08-23T09:40:46Z</time>
      </trkpt>
      <trkpt lat="45.38937" lon="6.8443">
        <ele>2223</ele>
        <time>2015-08-23T09:40:47Z</time>
      </trkpt>
      <trkpt lat="45.38935" lon="6.84427">
        <ele>2223</ele>
        <time>2015-08-23T09:40:48Z</time>
      </trkpt>
      <trkpt lat="45.38933" lon="6.84424">
        <ele>2223</ele>
        <time>2015-08-23T09:40:49Z</time>
      </trkpt>
      <trkpt lat="45.38929" lon="6.84418">
        <ele>2223</ele>
        <time>2015-08-23T09:40:51Z</time>
      </trkpt>
      <trkpt lat="45.38926" lon="6.84412">
        <ele>2218</ele>
        <time>2015-08-23T09:40:53Z</time>
      </trkpt>
      <trkpt lat="45.38924" lon="6.84409">
        <ele>2218</ele>
        <time>2015-08-23T09:40:54Z</time>
      </trkpt>
      <trkpt lat="45.38922" lon="6.84405">
        <ele>2218</ele>
        <time>2015-08-23T09:40:55Z</time>
      </trkpt>
      <trkpt lat="45.3892" lon="6.84402">
        <ele>2217</ele>
        <time>2015-08-23T09:40:56Z</time>
      </trkpt>
      <trkpt lat="45.38918" lon="6.84399">
        <ele>2217</ele>
        <time>2015-08-23T09:40:57Z</time>
      </trkpt>
      <trkpt lat="45.38916" lon="6.84396">
        <ele>2224</ele>
        <time>2015-08-23T09:40:58Z</time>
      </trkpt>
      <trkpt lat="45.38914" lon="6.84392">
        <ele>2224</ele>
        <time>2015-08-23T09:40:59Z</time>
      </trkpt>
      <trkpt lat="45.38911" lon="6.84388">
        <ele>2224</ele>
        <time>2015-08-23T09:41:00Z</time>
      </trkpt>
      <trkpt lat="45.38909" lon="6.84385">
        <ele>2224</ele>
        <time>2015-08-23T09:41:01Z</time>
      </trkpt>
      <trkpt lat="45.38907" lon="6.84381">
        <ele>2224</ele>
        <time>2015-08-23T09:41:02Z</time>
      </trkpt>
      <trkpt lat="45.38904" lon="6.84379">
        <ele>2224</ele>
        <time>2015-08-23T09:41:03Z</time>
      </trkpt>
      <trkpt lat="45.38901" lon="6.84374">
        <ele>2224</ele>
        <time>2015-08-23T09:41:05Z</time>
      </trkpt>
      <trkpt lat="45.38899" lon="6.84371">
        <ele>2223</ele>
        <time>2015-08-23T09:41:06Z</time>
      </trkpt>
      <trkpt lat="45.38897" lon="6.84368">
        <ele>2223</ele>
        <time>2015-08-23T09:41:07Z</time>
      </trkpt>
      <trkpt lat="45.38895" lon="6.84364">
        <ele>2223</ele>
        <time>2015-08-23T09:41:08Z</time>
      </trkpt>
      <trkpt lat="45.38893" lon="6.84361">
        <ele>2223</ele>
        <time>2015-08-23T09:41:09Z</time>
      </trkpt>
      <trkpt lat="45.3889" lon="6.84355">
        <ele>2222</ele>
        <time>2015-08-23T09:41:11Z</time>
      </trkpt>
      <trkpt lat="45.38888" lon="6.84351">
        <ele>2222</ele>
        <time>2015-08-23T09:41:13Z</time>
      </trkpt>
      <trkpt lat="45.38885" lon="6.84347">
        <ele>2223</ele>
        <time>2015-08-23T09:41:15Z</time>
      </trkpt>
      <trkpt lat="45.38883" lon="6.84343">
        <ele>2222</ele>
        <time>2015-08-23T09:41:17Z</time>
      </trkpt>
      <trkpt lat="45.38881" lon="6.84337">
        <ele>2223</ele>
        <time>2015-08-23T09:41:19Z</time>
      </trkpt>
      <trkpt lat="45.38879" lon="6.84333">
        <ele>2213</ele>
        <time>2015-08-23T09:41:20Z</time>
      </trkpt>
      <trkpt lat="45.38877" lon="6.8433">
        <ele>2213</ele>
        <time>2015-08-23T09:41:21Z</time>
      </trkpt>
      <trkpt lat="45.38875" lon="6.84327">
        <ele>2213</ele>
        <time>2015-08-23T09:41:22Z</time>
      </trkpt>
      <trkpt lat="45.38873" lon="6.84323">
        <ele>2213</ele>
        <time>2015-08-23T09:41:23Z</time>
      </trkpt>
      <trkpt lat="45.38871" lon="6.8432">
        <ele>2213</ele>
        <time>2015-08-23T09:41:24Z</time>
      </trkpt>
      <trkpt lat="45.38869" lon="6.84315">
        <ele>2213</ele>
        <time>2015-08-23T09:41:25Z</time>
      </trkpt>
      <trkpt lat="45.38867" lon="6.84312">
        <ele>2213</ele>
        <time>2015-08-23T09:41:26Z</time>
      </trkpt>
      <trkpt lat="45.38865" lon="6.84308">
        <ele>2213</ele>
        <time>2015-08-23T09:41:27Z</time>
      </trkpt>
      <trkpt lat="45.38863" lon="6.84304">
        <ele>2213</ele>
        <time>2015-08-23T09:41:28Z</time>
      </trkpt>
      <trkpt lat="45.3886" lon="6.84301">
        <ele>2213</ele>
        <time>2015-08-23T09:41:29Z</time>
      </trkpt>
      <trkpt lat="45.38858" lon="6.84297">
        <ele>2212</ele>
        <time>2015-08-23T09:41:30Z</time>
      </trkpt>
      <trkpt lat="45.38856" lon="6.84294">
        <ele>2212</ele>
        <time>2015-08-23T09:41:31Z</time>
      </trkpt>
      <trkpt lat="45.38853" lon="6.84291">
        <ele>2212</ele>
        <time>2015-08-23T09:41:32Z</time>
      </trkpt>
      <trkpt lat="45.3885" lon="6.84288">
        <ele>2212</ele>
        <time>2015-08-23T09:41:33Z</time>
      </trkpt>
      <trkpt lat="45.38847" lon="6.84286">
        <ele>2211</ele>
        <time>2015-08-23T09:41:34Z</time>
      </trkpt>
      <trkpt lat="45.38844" lon="6.84284">
        <ele>2211</ele>
        <time>2015-08-23T09:41:35Z</time>
      </trkpt>
      <trkpt lat="45.38841" lon="6.84283">
        <ele>2211</ele>
        <time>2015-08-23T09:41:36Z</time>
      </trkpt>
      <trkpt lat="45.38838" lon="6.84281">
        <ele>2211</ele>
        <time>2015-08-23T09:41:37Z</time>
      </trkpt>
      <trkpt lat="45.38834" lon="6.84277">
        <ele>2210</ele>
        <time>2015-08-23T09:41:39Z</time>
      </trkpt>
      <trkpt lat="45.38832" lon="6.84272">
        <ele>2219</ele>
        <time>2015-08-23T09:41:41Z</time>
      </trkpt>
      <trkpt lat="45.38829" lon="6.84267">
        <ele>2218</ele>
        <time>2015-08-23T09:41:43Z</time>
      </trkpt>
      <trkpt lat="45.38826" lon="6.84263">
        <ele>2216</ele>
        <time>2015-08-23T09:41:45Z</time>
      </trkpt>
      <trkpt lat="45.38823" lon="6.84259">
        <ele>2216</ele>
        <time>2015-08-23T09:41:47Z</time>
      </trkpt>
      <trkpt lat="45.3882" lon="6.84253">
        <ele>2216</ele>
        <time>2015-08-23T09:41:49Z</time>
      </trkpt>
      <trkpt lat="45.38818" lon="6.8425">
        <ele>2209</ele>
        <time>2015-08-23T09:41:50Z</time>
      </trkpt>
      <trkpt lat="45.38816" lon="6.84246">
        <ele>2209</ele>
        <time>2015-08-23T09:41:51Z</time>
      </trkpt>
      <trkpt lat="45.38814" lon="6.84243">
        <ele>2209</ele>
        <time>2015-08-23T09:41:52Z</time>
      </trkpt>
      <trkpt lat="45.38812" lon="6.8424">
        <ele>2210</ele>
        <time>2015-08-23T09:41:53Z</time>
      </trkpt>
      <trkpt lat="45.38809" lon="6.84237">
        <ele>2210</ele>
        <time>2015-08-23T09:41:54Z</time>
      </trkpt>
      <trkpt lat="45.38807" lon="6.84234">
        <ele>2210</ele>
        <time>2015-08-23T09:41:55Z</time>
      </trkpt>
      <trkpt lat="45.38805" lon="6.84232">
        <ele>2210</ele>
        <time>2015-08-23T09:41:56Z</time>
      </trkpt>
      <trkpt lat="45.38803" lon="6.84229">
        <ele>2210</ele>
        <time>2015-08-23T09:41:57Z</time>
      </trkpt>
      <trkpt lat="45.38801" lon="6.84226">
        <ele>2211</ele>
        <time>2015-08-23T09:41:58Z</time>
      </trkpt>
      <trkpt lat="45.38799" lon="6.84223">
        <ele>2211</ele>
        <time>2015-08-23T09:41:59Z</time>
      </trkpt>
      <trkpt lat="45.38798" lon="6.8422">
        <ele>2211</ele>
        <time>2015-08-23T09:42:00Z</time>
      </trkpt>
      <trkpt lat="45.38794" lon="6.84215">
        <ele>2211</ele>
        <time>2015-08-23T09:42:02Z</time>
      </trkpt>
      <trkpt lat="45.38791" lon="6.8421">
        <ele>2211</ele>
        <time>2015-08-23T09:42:04Z</time>
      </trkpt>
      <trkpt lat="45.38789" lon="6.84202">
        <ele>2210</ele>
        <time>2015-08-23T09:42:07Z</time>
      </trkpt>
      <trkpt lat="45.38789" lon="6.84197">
        <ele>2210</ele>
        <time>2015-08-23T09:42:09Z</time>
      </trkpt>
      <trkpt lat="45.38787" lon="6.84191">
        <ele>2210</ele>
        <time>2015-08-23T09:42:11Z</time>
      </trkpt>
      <trkpt lat="45.38784" lon="6.84185">
        <ele>2210</ele>
        <time>2015-08-23T09:42:13Z</time>
      </trkpt>
      <trkpt lat="45.38783" lon="6.84182">
        <ele>2210</ele>
        <time>2015-08-23T09:42:14Z</time>
      </trkpt>
      <trkpt lat="45.38779" lon="6.84177">
        <ele>2210</ele>
        <time>2015-08-23T09:42:16Z</time>
      </trkpt>
      <trkpt lat="45.38776" lon="6.84171">
        <ele>2210</ele>
        <time>2015-08-23T09:42:18Z</time>
      </trkpt>
      <trkpt lat="45.38773" lon="6.84165">
        <ele>2204</ele>
        <time>2015-08-23T09:42:20Z</time>
      </trkpt>
      <trkpt lat="45.3877" lon="6.84159">
        <ele>2204</ele>
        <time>2015-08-23T09:42:22Z</time>
      </trkpt>
      <trkpt lat="45.38769" lon="6.84156">
        <ele>2204</ele>
        <time>2015-08-23T09:42:23Z</time>
      </trkpt>
      <trkpt lat="45.38766" lon="6.84149">
        <ele>2204</ele>
        <time>2015-08-23T09:42:25Z</time>
      </trkpt>
      <trkpt lat="45.38765" lon="6.84146">
        <ele>2204</ele>
        <time>2015-08-23T09:42:26Z</time>
      </trkpt>
      <trkpt lat="45.38763" lon="6.84142">
        <ele>2204</ele>
        <time>2015-08-23T09:42:27Z</time>
      </trkpt>
      <trkpt lat="45.38761" lon="6.84138">
        <ele>2203</ele>
        <time>2015-08-23T09:42:28Z</time>
      </trkpt>
      <trkpt lat="45.38759" lon="6.84135">
        <ele>2203</ele>
        <time>2015-08-23T09:42:29Z</time>
      </trkpt>
      <trkpt lat="45.38756" lon="6.84133">
        <ele>2203</ele>
        <time>2015-08-23T09:42:30Z</time>
      </trkpt>
      <trkpt lat="45.38754" lon="6.8413">
        <ele>2203</ele>
        <time>2015-08-23T09:42:31Z</time>
      </trkpt>
      <trkpt lat="45.38751" lon="6.84125">
        <ele>2203</ele>
        <time>2015-08-23T09:42:33Z</time>
      </trkpt>
      <trkpt lat="45.38748" lon="6.8412">
        <ele>2209</ele>
        <time>2015-08-23T09:42:35Z</time>
      </trkpt>
      <trkpt lat="45.38746" lon="6.84115">
        <ele>2209</ele>
        <time>2015-08-23T09:42:37Z</time>
      </trkpt>
      <trkpt lat="45.38743" lon="6.84109">
        <ele>2208</ele>
        <time>2015-08-23T09:42:39Z</time>
      </trkpt>
      <trkpt lat="45.38741" lon="6.84102">
        <ele>2207</ele>
        <time>2015-08-23T09:42:41Z</time>
      </trkpt>
      <trkpt lat="45.3874" lon="6.84098">
        <ele>2207</ele>
        <time>2015-08-23T09:42:42Z</time>
      </trkpt>
      <trkpt lat="45.38738" lon="6.84094">
        <ele>2206</ele>
        <time>2015-08-23T09:42:43Z</time>
      </trkpt>
      <trkpt lat="45.38736" lon="6.8409">
        <ele>2206</ele>
        <time>2015-08-23T09:42:44Z</time>
      </trkpt>
      <trkpt lat="45.38734" lon="6.84086">
        <ele>2206</ele>
        <time>2015-08-23T09:42:45Z</time>
      </trkpt>
      <trkpt lat="45.38732" lon="6.84083">
        <ele>2200</ele>
        <time>2015-08-23T09:42:46Z</time>
      </trkpt>
      <trkpt lat="45.3873" lon="6.84079">
        <ele>2200</ele>
        <time>2015-08-23T09:42:47Z</time>
      </trkpt>
      <trkpt lat="45.38727" lon="6.84076">
        <ele>2200</ele>
        <time>2015-08-23T09:42:48Z</time>
      </trkpt>
      <trkpt lat="45.38725" lon="6.84072">
        <ele>2200</ele>
        <time>2015-08-23T09:42:49Z</time>
      </trkpt>
      <trkpt lat="45.38724" lon="6.84069">
        <ele>2200</ele>
        <time>2015-08-23T09:42:50Z</time>
      </trkpt>
      <trkpt lat="45.38722" lon="6.84065">
        <ele>2200</ele>
        <time>2015-08-23T09:42:51Z</time>
      </trkpt>
      <trkpt lat="45.38721" lon="6.84061">
        <ele>2200</ele>
        <time>2015-08-23T09:42:52Z</time>
      </trkpt>
      <trkpt lat="45.38719" lon="6.84058">
        <ele>2199</ele>
        <time>2015-08-23T09:42:53Z</time>
      </trkpt>
      <trkpt lat="45.38717" lon="6.84054">
        <ele>2199</ele>
        <time>2015-08-23T09:42:54Z</time>
      </trkpt>
      <trkpt lat="45.38715" lon="6.8405">
        <ele>2199</ele>
        <time>2015-08-23T09:42:55Z</time>
      </trkpt>
      <trkpt lat="45.38713" lon="6.84047">
        <ele>2199</ele>
        <time>2015-08-23T09:42:56Z</time>
      </trkpt>
      <trkpt lat="45.38711" lon="6.84044">
        <ele>2199</ele>
        <time>2015-08-23T09:42:57Z</time>
      </trkpt>
      <trkpt lat="45.38707" lon="6.84041">
        <ele>2198</ele>
        <time>2015-08-23T09:42:59Z</time>
      </trkpt>
      <trkpt lat="45.38701" lon="6.84039">
        <ele>2198</ele>
        <time>2015-08-23T09:43:01Z</time>
      </trkpt>
      <trkpt lat="45.38697" lon="6.84038">
        <ele>2198</ele>
        <time>2015-08-23T09:43:02Z</time>
      </trkpt>
      <trkpt lat="45.38694" lon="6.84038">
        <ele>2198</ele>
        <time>2015-08-23T09:43:03Z</time>
      </trkpt>
      <trkpt lat="45.3869" lon="6.84037">
        <ele>2198</ele>
        <time>2015-08-23T09:43:04Z</time>
      </trkpt>
      <trkpt lat="45.38686" lon="6.84037">
        <ele>2198</ele>
        <time>2015-08-23T09:43:05Z</time>
      </trkpt>
      <trkpt lat="45.38683" lon="6.84036">
        <ele>2198</ele>
        <time>2015-08-23T09:43:06Z</time>
      </trkpt>
      <trkpt lat="45.3868" lon="6.84035">
        <ele>2198</ele>
        <time>2015-08-23T09:43:07Z</time>
      </trkpt>
      <trkpt lat="45.38677" lon="6.84033">
        <ele>2198</ele>
        <time>2015-08-23T09:43:08Z</time>
      </trkpt>
      <trkpt lat="45.38673" lon="6.84029">
        <ele>2197</ele>
        <time>2015-08-23T09:43:10Z</time>
      </trkpt>
      <trkpt lat="45.38669" lon="6.84026">
        <ele>2197</ele>
        <time>2015-08-23T09:43:12Z</time>
      </trkpt>
      <trkpt lat="45.38667" lon="6.84021">
        <ele>2196</ele>
        <time>2015-08-23T09:43:14Z</time>
      </trkpt>
      <trkpt lat="45.38666" lon="6.84014">
        <ele>2200</ele>
        <time>2015-08-23T09:43:16Z</time>
      </trkpt>
      <trkpt lat="45.38664" lon="6.84007">
        <ele>2197</ele>
        <time>2015-08-23T09:43:18Z</time>
      </trkpt>
      <trkpt lat="45.38662" lon="6.84002">
        <ele>2196</ele>
        <time>2015-08-23T09:43:20Z</time>
      </trkpt>
      <trkpt lat="45.38659" lon="6.83997">
        <ele>2192</ele>
        <time>2015-08-23T09:43:22Z</time>
      </trkpt>
      <trkpt lat="45.38657" lon="6.83994">
        <ele>2192</ele>
        <time>2015-08-23T09:43:23Z</time>
      </trkpt>
      <trkpt lat="45.38655" lon="6.83991">
        <ele>2192</ele>
        <time>2015-08-23T09:43:24Z</time>
      </trkpt>
      <trkpt lat="45.38653" lon="6.83987">
        <ele>2192</ele>
        <time>2015-08-23T09:43:25Z</time>
      </trkpt>
      <trkpt lat="45.3865" lon="6.83983">
        <ele>2191</ele>
        <time>2015-08-23T09:43:30Z</time>
      </trkpt>
      <trkpt lat="45.38648" lon="6.83978">
        <ele>2191</ele>
        <time>2015-08-23T09:43:32Z</time>
      </trkpt>
      <trkpt lat="45.38647" lon="6.83975">
        <ele>2191</ele>
        <time>2015-08-23T09:43:33Z</time>
      </trkpt>
      <trkpt lat="45.38643" lon="6.83966">
        <ele>2190</ele>
        <time>2015-08-23T09:43:35Z</time>
      </trkpt>
      <trkpt lat="45.38641" lon="6.83962">
        <ele>2190</ele>
        <time>2015-08-23T09:43:36Z</time>
      </trkpt>
      <trkpt lat="45.3864" lon="6.83957">
        <ele>2190</ele>
        <time>2015-08-23T09:43:37Z</time>
      </trkpt>
      <trkpt lat="45.38637" lon="6.83953">
        <ele>2189</ele>
        <time>2015-08-23T09:43:38Z</time>
      </trkpt>
      <trkpt lat="45.38635" lon="6.83948">
        <ele>2189</ele>
        <time>2015-08-23T09:43:39Z</time>
      </trkpt>
      <trkpt lat="45.38632" lon="6.83945">
        <ele>2189</ele>
        <time>2015-08-23T09:43:40Z</time>
      </trkpt>
      <trkpt lat="45.38629" lon="6.83942">
        <ele>2189</ele>
        <time>2015-08-23T09:43:41Z</time>
      </trkpt>
      <trkpt lat="45.38626" lon="6.83939">
        <ele>2189</ele>
        <time>2015-08-23T09:43:42Z</time>
      </trkpt>
      <trkpt lat="45.38623" lon="6.83936">
        <ele>2188</ele>
        <time>2015-08-23T09:43:43Z</time>
      </trkpt>
      <trkpt lat="45.3862" lon="6.83934">
        <ele>2188</ele>
        <time>2015-08-23T09:43:44Z</time>
      </trkpt>
      <trkpt lat="45.38618" lon="6.83931">
        <ele>2188</ele>
        <time>2015-08-23T09:43:45Z</time>
      </trkpt>
      <trkpt lat="45.38616" lon="6.83928">
        <ele>2188</ele>
        <time>2015-08-23T09:43:46Z</time>
      </trkpt>
      <trkpt lat="45.38614" lon="6.83925">
        <ele>2188</ele>
        <time>2015-08-23T09:43:47Z</time>
      </trkpt>
      <trkpt lat="45.38613" lon="6.83921">
        <ele>2188</ele>
        <time>2015-08-23T09:43:48Z</time>
      </trkpt>
      <trkpt lat="45.38611" lon="6.83918">
        <ele>2187</ele>
        <time>2015-08-23T09:43:49Z</time>
      </trkpt>
      <trkpt lat="45.38608" lon="6.83916">
        <ele>2178</ele>
        <time>2015-08-23T09:43:50Z</time>
      </trkpt>
      <trkpt lat="45.38606" lon="6.83912">
        <ele>2178</ele>
        <time>2015-08-23T09:43:51Z</time>
      </trkpt>
      <trkpt lat="45.38604" lon="6.83909">
        <ele>2178</ele>
        <time>2015-08-23T09:43:52Z</time>
      </trkpt>
      <trkpt lat="45.38602" lon="6.83905">
        <ele>2178</ele>
        <time>2015-08-23T09:43:53Z</time>
      </trkpt>
      <trkpt lat="45.386" lon="6.839">
        <ele>2178</ele>
        <time>2015-08-23T09:43:54Z</time>
      </trkpt>
      <trkpt lat="45.38598" lon="6.83896">
        <ele>2178</ele>
        <time>2015-08-23T09:43:55Z</time>
      </trkpt>
      <trkpt lat="45.38597" lon="6.83892">
        <ele>2177</ele>
        <time>2015-08-23T09:43:56Z</time>
      </trkpt>
      <trkpt lat="45.38595" lon="6.83887">
        <ele>2177</ele>
        <time>2015-08-23T09:43:57Z</time>
      </trkpt>
      <trkpt lat="45.38593" lon="6.83884">
        <ele>2176</ele>
        <time>2015-08-23T09:43:58Z</time>
      </trkpt>
      <trkpt lat="45.38591" lon="6.83881">
        <ele>2176</ele>
        <time>2015-08-23T09:43:59Z</time>
      </trkpt>
      <trkpt lat="45.38588" lon="6.83878">
        <ele>2175</ele>
        <time>2015-08-23T09:44:00Z</time>
      </trkpt>
      <trkpt lat="45.38585" lon="6.83876">
        <ele>2175</ele>
        <time>2015-08-23T09:44:01Z</time>
      </trkpt>
      <trkpt lat="45.38582" lon="6.83875">
        <ele>2180</ele>
        <time>2015-08-23T09:44:02Z</time>
      </trkpt>
      <trkpt lat="45.38578" lon="6.83873">
        <ele>2180</ele>
        <time>2015-08-23T09:44:03Z</time>
      </trkpt>
      <trkpt lat="45.38575" lon="6.83872">
        <ele>2180</ele>
        <time>2015-08-23T09:44:04Z</time>
      </trkpt>
      <trkpt lat="45.38572" lon="6.83871">
        <ele>2180</ele>
        <time>2015-08-23T09:44:05Z</time>
      </trkpt>
      <trkpt lat="45.38569" lon="6.8387">
        <ele>2180</ele>
        <time>2015-08-23T09:44:06Z</time>
      </trkpt>
      <trkpt lat="45.38566" lon="6.83869">
        <ele>2180</ele>
        <time>2015-08-23T09:44:07Z</time>
      </trkpt>
      <trkpt lat="45.38564" lon="6.83869">
        <ele>2180</ele>
        <time>2015-08-23T09:44:08Z</time>
      </trkpt>
      <trkpt lat="45.38559" lon="6.83867">
        <ele>2181</ele>
        <time>2015-08-23T09:44:10Z</time>
      </trkpt>
      <trkpt lat="45.38554" lon="6.83866">
        <ele>2181</ele>
        <time>2015-08-23T09:44:12Z</time>
      </trkpt>
      <trkpt lat="45.38551" lon="6.83865">
        <ele>2181</ele>
        <time>2015-08-23T09:44:13Z</time>
      </trkpt>
      <trkpt lat="45.38548" lon="6.83863">
        <ele>2181</ele>
        <time>2015-08-23T09:44:14Z</time>
      </trkpt>
      <trkpt lat="45.38546" lon="6.83861">
        <ele>2181</ele>
        <time>2015-08-23T09:44:15Z</time>
      </trkpt>
      <trkpt lat="45.38543" lon="6.83859">
        <ele>2181</ele>
        <time>2015-08-23T09:44:16Z</time>
      </trkpt>
      <trkpt lat="45.3854" lon="6.83857">
        <ele>2181</ele>
        <time>2015-08-23T09:44:17Z</time>
      </trkpt>
      <trkpt lat="45.38537" lon="6.83855">
        <ele>2181</ele>
        <time>2015-08-23T09:44:18Z</time>
      </trkpt>
      <trkpt lat="45.38534" lon="6.83853">
        <ele>2181</ele>
        <time>2015-08-23T09:44:19Z</time>
      </trkpt>
      <trkpt lat="45.3853" lon="6.83852">
        <ele>2181</ele>
        <time>2015-08-23T09:44:20Z</time>
      </trkpt>
      <trkpt lat="45.38528" lon="6.8385">
        <ele>2181</ele>
        <time>2015-08-23T09:44:21Z</time>
      </trkpt>
      <trkpt lat="45.38525" lon="6.83849">
        <ele>2181</ele>
        <time>2015-08-23T09:44:22Z</time>
      </trkpt>
      <trkpt lat="45.38522" lon="6.83847">
        <ele>2181</ele>
        <time>2015-08-23T09:44:23Z</time>
      </trkpt>
      <trkpt lat="45.38519" lon="6.83845">
        <ele>2180</ele>
        <time>2015-08-23T09:44:24Z</time>
      </trkpt>
      <trkpt lat="45.38517" lon="6.83843">
        <ele>2180</ele>
        <time>2015-08-23T09:44:25Z</time>
      </trkpt>
      <trkpt lat="45.38514" lon="6.83841">
        <ele>2180</ele>
        <time>2015-08-23T09:44:26Z</time>
      </trkpt>
      <trkpt lat="45.38512" lon="6.83838">
        <ele>2179</ele>
        <time>2015-08-23T09:44:27Z</time>
      </trkpt>
      <trkpt lat="45.3851" lon="6.83836">
        <ele>2179</ele>
        <time>2015-08-23T09:44:28Z</time>
      </trkpt>
      <trkpt lat="45.38506" lon="6.83831">
        <ele>2175</ele>
        <time>2015-08-23T09:44:30Z</time>
      </trkpt>
      <trkpt lat="45.38503" lon="6.83826">
        <ele>2174</ele>
        <time>2015-08-23T09:44:32Z</time>
      </trkpt>
      <trkpt lat="45.385" lon="6.83819">
        <ele>2176</ele>
        <time>2015-08-23T09:44:34Z</time>
      </trkpt>
      <trkpt lat="45.38498" lon="6.83815">
        <ele>2175</ele>
        <time>2015-08-23T09:44:35Z</time>
      </trkpt>
      <trkpt lat="45.38497" lon="6.83812">
        <ele>2175</ele>
        <time>2015-08-23T09:44:36Z</time>
      </trkpt>
      <trkpt lat="45.38495" lon="6.83808">
        <ele>2174</ele>
        <time>2015-08-23T09:44:37Z</time>
      </trkpt>
      <trkpt lat="45.38493" lon="6.83806">
        <ele>2174</ele>
        <time>2015-08-23T09:44:38Z</time>
      </trkpt>
      <trkpt lat="45.3849" lon="6.83802">
        <ele>2174</ele>
        <time>2015-08-23T09:44:39Z</time>
      </trkpt>
      <trkpt lat="45.38487" lon="6.83799">
        <ele>2174</ele>
        <time>2015-08-23T09:44:40Z</time>
      </trkpt>
      <trkpt lat="45.38484" lon="6.83796">
        <ele>2173</ele>
        <time>2015-08-23T09:44:41Z</time>
      </trkpt>
      <trkpt lat="45.38481" lon="6.83793">
        <ele>2173</ele>
        <time>2015-08-23T09:44:42Z</time>
      </trkpt>
      <trkpt lat="45.38477" lon="6.8379">
        <ele>2173</ele>
        <time>2015-08-23T09:44:43Z</time>
      </trkpt>
      <trkpt lat="45.38473" lon="6.83787">
        <ele>2173</ele>
        <time>2015-08-23T09:44:44Z</time>
      </trkpt>
      <trkpt lat="45.3847" lon="6.83784">
        <ele>2172</ele>
        <time>2015-08-23T09:44:45Z</time>
      </trkpt>
      <trkpt lat="45.38467" lon="6.83781">
        <ele>2172</ele>
        <time>2015-08-23T09:44:46Z</time>
      </trkpt>
      <trkpt lat="45.38464" lon="6.83778">
        <ele>2172</ele>
        <time>2015-08-23T09:44:47Z</time>
      </trkpt>
      <trkpt lat="45.38461" lon="6.83775">
        <ele>2172</ele>
        <time>2015-08-23T09:44:48Z</time>
      </trkpt>
      <trkpt lat="45.38459" lon="6.83772">
        <ele>2172</ele>
        <time>2015-08-23T09:44:49Z</time>
      </trkpt>
      <trkpt lat="45.38457" lon="6.83768">
        <ele>2171</ele>
        <time>2015-08-23T09:44:50Z</time>
      </trkpt>
      <trkpt lat="45.38455" lon="6.83765">
        <ele>2171</ele>
        <time>2015-08-23T09:44:51Z</time>
      </trkpt>
      <trkpt lat="45.38454" lon="6.83762">
        <ele>2171</ele>
        <time>2015-08-23T09:44:52Z</time>
      </trkpt>
      <trkpt lat="45.38453" lon="6.83758">
        <ele>2171</ele>
        <time>2015-08-23T09:44:53Z</time>
      </trkpt>
      <trkpt lat="45.38451" lon="6.83755">
        <ele>2171</ele>
        <time>2015-08-23T09:44:54Z</time>
      </trkpt>
      <trkpt lat="45.3845" lon="6.83751">
        <ele>2170</ele>
        <time>2015-08-23T09:44:55Z</time>
      </trkpt>
      <trkpt lat="45.38448" lon="6.83748">
        <ele>2161</ele>
        <time>2015-08-23T09:44:56Z</time>
      </trkpt>
      <trkpt lat="45.38447" lon="6.83744">
        <ele>2161</ele>
        <time>2015-08-23T09:44:57Z</time>
      </trkpt>
      <trkpt lat="45.38445" lon="6.83741">
        <ele>2161</ele>
        <time>2015-08-23T09:44:58Z</time>
      </trkpt>
      <trkpt lat="45.38442" lon="6.83735">
        <ele>2161</ele>
        <time>2015-08-23T09:45:00Z</time>
      </trkpt>
      <trkpt lat="45.38438" lon="6.8373">
        <ele>2161</ele>
        <time>2015-08-23T09:45:02Z</time>
      </trkpt>
      <trkpt lat="45.38434" lon="6.83727">
        <ele>2160</ele>
        <time>2015-08-23T09:45:04Z</time>
      </trkpt>
      <trkpt lat="45.38429" lon="6.83723">
        <ele>2160</ele>
        <time>2015-08-23T09:45:06Z</time>
      </trkpt>
      <trkpt lat="45.38426" lon="6.83721">
        <ele>2160</ele>
        <time>2015-08-23T09:45:07Z</time>
      </trkpt>
      <trkpt lat="45.38423" lon="6.83719">
        <ele>2160</ele>
        <time>2015-08-23T09:45:08Z</time>
      </trkpt>
      <trkpt lat="45.38421" lon="6.83717">
        <ele>2160</ele>
        <time>2015-08-23T09:45:09Z</time>
      </trkpt>
      <trkpt lat="45.38418" lon="6.83715">
        <ele>2159</ele>
        <time>2015-08-23T09:45:10Z</time>
      </trkpt>
      <trkpt lat="45.38415" lon="6.83713">
        <ele>2165</ele>
        <time>2015-08-23T09:45:11Z</time>
      </trkpt>
      <trkpt lat="45.38413" lon="6.83711">
        <ele>2165</ele>
        <time>2015-08-23T09:45:12Z</time>
      </trkpt>
      <trkpt lat="45.3841" lon="6.83708">
        <ele>2165</ele>
        <time>2015-08-23T09:45:13Z</time>
      </trkpt>
      <trkpt lat="45.38407" lon="6.83706">
        <ele>2165</ele>
        <time>2015-08-23T09:45:14Z</time>
      </trkpt>
      <trkpt lat="45.38405" lon="6.83704">
        <ele>2165</ele>
        <time>2015-08-23T09:45:15Z</time>
      </trkpt>
      <trkpt lat="45.384" lon="6.83701">
        <ele>2165</ele>
        <time>2015-08-23T09:45:17Z</time>
      </trkpt>
      <trkpt lat="45.38395" lon="6.83699">
        <ele>2165</ele>
        <time>2015-08-23T09:45:19Z</time>
      </trkpt>
      <trkpt lat="45.38391" lon="6.83696">
        <ele>2165</ele>
        <time>2015-08-23T09:45:21Z</time>
      </trkpt>
      <trkpt lat="45.38387" lon="6.83692">
        <ele>2165</ele>
        <time>2015-08-23T09:45:23Z</time>
      </trkpt>
      <trkpt lat="45.38382" lon="6.83689">
        <ele>2166</ele>
        <time>2015-08-23T09:45:25Z</time>
      </trkpt>
      <trkpt lat="45.38379" lon="6.83687">
        <ele>2166</ele>
        <time>2015-08-23T09:45:26Z</time>
      </trkpt>
      <trkpt lat="45.38377" lon="6.83685">
        <ele>2166</ele>
        <time>2015-08-23T09:45:27Z</time>
      </trkpt>
      <trkpt lat="45.38371" lon="6.83681">
        <ele>2166</ele>
        <time>2015-08-23T09:45:29Z</time>
      </trkpt>
      <trkpt lat="45.38368" lon="6.83679">
        <ele>2166</ele>
        <time>2015-08-23T09:45:30Z</time>
      </trkpt>
      <trkpt lat="45.38365" lon="6.83677">
        <ele>2166</ele>
        <time>2015-08-23T09:45:31Z</time>
      </trkpt>
      <trkpt lat="45.38362" lon="6.83676">
        <ele>2167</ele>
        <time>2015-08-23T09:45:32Z</time>
      </trkpt>
      <trkpt lat="45.38358" lon="6.83672">
        <ele>2167</ele>
        <time>2015-08-23T09:45:34Z</time>
      </trkpt>
      <trkpt lat="45.38355" lon="6.83667">
        <ele>2167</ele>
        <time>2015-08-23T09:45:36Z</time>
      </trkpt>
      <trkpt lat="45.38352" lon="6.83663">
        <ele>2159</ele>
        <time>2015-08-23T09:45:38Z</time>
      </trkpt>
      <trkpt lat="45.3835" lon="6.83657">
        <ele>2159</ele>
        <time>2015-08-23T09:45:40Z</time>
      </trkpt>
      <trkpt lat="45.38348" lon="6.83651">
        <ele>2158</ele>
        <time>2015-08-23T09:45:42Z</time>
      </trkpt>
      <trkpt lat="45.38345" lon="6.83645">
        <ele>2157</ele>
        <time>2015-08-23T09:45:44Z</time>
      </trkpt>
      <trkpt lat="45.38342" lon="6.83639">
        <ele>2156</ele>
        <time>2015-08-23T09:45:46Z</time>
      </trkpt>
      <trkpt lat="45.38339" lon="6.83633">
        <ele>2155</ele>
        <time>2015-08-23T09:45:48Z</time>
      </trkpt>
      <trkpt lat="45.38335" lon="6.83628">
        <ele>2155</ele>
        <time>2015-08-23T09:45:50Z</time>
      </trkpt>
      <trkpt lat="45.38332" lon="6.83623">
        <ele>2160</ele>
        <time>2015-08-23T09:45:52Z</time>
      </trkpt>
      <trkpt lat="45.38329" lon="6.83617">
        <ele>2159</ele>
        <time>2015-08-23T09:45:54Z</time>
      </trkpt>
      <trkpt lat="45.38327" lon="6.83614">
        <ele>2159</ele>
        <time>2015-08-23T09:45:55Z</time>
      </trkpt>
      <trkpt lat="45.38324" lon="6.83608">
        <ele>2157</ele>
        <time>2015-08-23T09:45:57Z</time>
      </trkpt>
      <trkpt lat="45.38322" lon="6.83604">
        <ele>2157</ele>
        <time>2015-08-23T09:45:58Z</time>
      </trkpt>
      <trkpt lat="45.3832" lon="6.836">
        <ele>2156</ele>
        <time>2015-08-23T09:45:59Z</time>
      </trkpt>
      <trkpt lat="45.38318" lon="6.83596">
        <ele>2156</ele>
        <time>2015-08-23T09:46:00Z</time>
      </trkpt>
      <trkpt lat="45.38315" lon="6.83593">
        <ele>2156</ele>
        <time>2015-08-23T09:46:01Z</time>
      </trkpt>
      <trkpt lat="45.38313" lon="6.8359">
        <ele>2156</ele>
        <time>2015-08-23T09:46:02Z</time>
      </trkpt>
      <trkpt lat="45.38308" lon="6.83588">
        <ele>2157</ele>
        <time>2015-08-23T09:46:04Z</time>
      </trkpt>
      <trkpt lat="45.38304" lon="6.83588">
        <ele>2157</ele>
        <time>2015-08-23T09:46:06Z</time>
      </trkpt>
      <trkpt lat="45.38299" lon="6.83589">
        <ele>2158</ele>
        <time>2015-08-23T09:46:08Z</time>
      </trkpt>
      <trkpt lat="45.38294" lon="6.83588">
        <ele>2159</ele>
        <time>2015-08-23T09:46:10Z</time>
      </trkpt>
      <trkpt lat="45.38292" lon="6.83587">
        <ele>2159</ele>
        <time>2015-08-23T09:46:11Z</time>
      </trkpt>
      <trkpt lat="45.38288" lon="6.83583">
        <ele>2148</ele>
        <time>2015-08-23T09:46:13Z</time>
      </trkpt>
      <trkpt lat="45.38285" lon="6.8358">
        <ele>2148</ele>
        <time>2015-08-23T09:46:15Z</time>
      </trkpt>
      <trkpt lat="45.38282" lon="6.83576">
        <ele>2148</ele>
        <time>2015-08-23T09:46:17Z</time>
      </trkpt>
      <trkpt lat="45.38279" lon="6.83572">
        <ele>2149</ele>
        <time>2015-08-23T09:46:19Z</time>
      </trkpt>
      <trkpt lat="45.38275" lon="6.83568">
        <ele>2149</ele>
        <time>2015-08-23T09:46:21Z</time>
      </trkpt>
      <trkpt lat="45.38271" lon="6.83565">
        <ele>2149</ele>
        <time>2015-08-23T09:46:23Z</time>
      </trkpt>
      <trkpt lat="45.38267" lon="6.83563">
        <ele>2149</ele>
        <time>2015-08-23T09:46:25Z</time>
      </trkpt>
      <trkpt lat="45.38263" lon="6.83559">
        <ele>2148</ele>
        <time>2015-08-23T09:46:27Z</time>
      </trkpt>
      <trkpt lat="45.38259" lon="6.83555">
        <ele>2148</ele>
        <time>2015-08-23T09:46:29Z</time>
      </trkpt>
      <trkpt lat="45.38257" lon="6.8355">
        <ele>2147</ele>
        <time>2015-08-23T09:46:31Z</time>
      </trkpt>
      <trkpt lat="45.38254" lon="6.83545">
        <ele>2146</ele>
        <time>2015-08-23T09:46:33Z</time>
      </trkpt>
      <trkpt lat="45.38249" lon="6.83543">
        <ele>2146</ele>
        <time>2015-08-23T09:46:35Z</time>
      </trkpt>
      <trkpt lat="45.38245" lon="6.83539">
        <ele>2145</ele>
        <time>2015-08-23T09:46:37Z</time>
      </trkpt>
      <trkpt lat="45.38242" lon="6.83537">
        <ele>2145</ele>
        <time>2015-08-23T09:46:38Z</time>
      </trkpt>
      <trkpt lat="45.38239" lon="6.83535">
        <ele>2144</ele>
        <time>2015-08-23T09:46:39Z</time>
      </trkpt>
      <trkpt lat="45.38236" lon="6.83532">
        <ele>2144</ele>
        <time>2015-08-23T09:46:40Z</time>
      </trkpt>
      <trkpt lat="45.38233" lon="6.8353">
        <ele>2144</ele>
        <time>2015-08-23T09:46:41Z</time>
      </trkpt>
      <trkpt lat="45.38228" lon="6.83529">
        <ele>2144</ele>
        <time>2015-08-23T09:46:43Z</time>
      </trkpt>
      <trkpt lat="45.38224" lon="6.83529">
        <ele>2144</ele>
        <time>2015-08-23T09:46:45Z</time>
      </trkpt>
      <trkpt lat="45.3822" lon="6.8353">
        <ele>2144</ele>
        <time>2015-08-23T09:46:47Z</time>
      </trkpt>
      <trkpt lat="45.38215" lon="6.83529">
        <ele>2144</ele>
        <time>2015-08-23T09:46:49Z</time>
      </trkpt>
      <trkpt lat="45.38211" lon="6.83528">
        <ele>2144</ele>
        <time>2015-08-23T09:46:51Z</time>
      </trkpt>
      <trkpt lat="45.38207" lon="6.83527">
        <ele>2144</ele>
        <time>2015-08-23T09:46:53Z</time>
      </trkpt>
      <trkpt lat="45.38204" lon="6.83526">
        <ele>2143</ele>
        <time>2015-08-23T09:46:54Z</time>
      </trkpt>
      <trkpt lat="45.38201" lon="6.83524">
        <ele>2143</ele>
        <time>2015-08-23T09:46:55Z</time>
      </trkpt>
      <trkpt lat="45.38198" lon="6.83523">
        <ele>2143</ele>
        <time>2015-08-23T09:46:56Z</time>
      </trkpt>
      <trkpt lat="45.38195" lon="6.8352">
        <ele>2143</ele>
        <time>2015-08-23T09:46:57Z</time>
      </trkpt>
      <trkpt lat="45.38191" lon="6.83518">
        <ele>2142</ele>
        <time>2015-08-23T09:46:58Z</time>
      </trkpt>
      <trkpt lat="45.38188" lon="6.83516">
        <ele>2142</ele>
        <time>2015-08-23T09:46:59Z</time>
      </trkpt>
      <trkpt lat="45.38185" lon="6.83515">
        <ele>2141</ele>
        <time>2015-08-23T09:47:00Z</time>
      </trkpt>
      <trkpt lat="45.38182" lon="6.83515">
        <ele>2141</ele>
        <time>2015-08-23T09:47:01Z</time>
      </trkpt>
      <trkpt lat="45.3818" lon="6.83516">
        <ele>2141</ele>
        <time>2015-08-23T09:47:02Z</time>
      </trkpt>
      <trkpt lat="45.38175" lon="6.83517">
        <ele>2141</ele>
        <time>2015-08-23T09:47:04Z</time>
      </trkpt>
      <trkpt lat="45.38172" lon="6.83516">
        <ele>2140</ele>
        <time>2015-08-23T09:47:05Z</time>
      </trkpt>
      <trkpt lat="45.38169" lon="6.83515">
        <ele>2140</ele>
        <time>2015-08-23T09:47:06Z</time>
      </trkpt>
      <trkpt lat="45.38166" lon="6.83514">
        <ele>2141</ele>
        <time>2015-08-23T09:47:07Z</time>
      </trkpt>
      <trkpt lat="45.38163" lon="6.83512">
        <ele>2140</ele>
        <time>2015-08-23T09:47:08Z</time>
      </trkpt>
      <trkpt lat="45.3816" lon="6.83511">
        <ele>2140</ele>
        <time>2015-08-23T09:47:09Z</time>
      </trkpt>
      <trkpt lat="45.38157" lon="6.8351">
        <ele>2141</ele>
        <time>2015-08-23T09:47:10Z</time>
      </trkpt>
      <trkpt lat="45.38153" lon="6.83508">
        <ele>2141</ele>
        <time>2015-08-23T09:47:11Z</time>
      </trkpt>
      <trkpt lat="45.3815" lon="6.83507">
        <ele>2141</ele>
        <time>2015-08-23T09:47:12Z</time>
      </trkpt>
      <trkpt lat="45.38147" lon="6.83505">
        <ele>2142</ele>
        <time>2015-08-23T09:47:13Z</time>
      </trkpt>
      <trkpt lat="45.38144" lon="6.83505">
        <ele>2142</ele>
        <time>2015-08-23T09:47:14Z</time>
      </trkpt>
      <trkpt lat="45.38141" lon="6.83503">
        <ele>2143</ele>
        <time>2015-08-23T09:47:15Z</time>
      </trkpt>
      <trkpt lat="45.38138" lon="6.835">
        <ele>2143</ele>
        <time>2015-08-23T09:47:16Z</time>
      </trkpt>
      <trkpt lat="45.38135" lon="6.83498">
        <ele>2135</ele>
        <time>2015-08-23T09:47:17Z</time>
      </trkpt>
      <trkpt lat="45.38132" lon="6.83496">
        <ele>2135</ele>
        <time>2015-08-23T09:47:18Z</time>
      </trkpt>
      <trkpt lat="45.38129" lon="6.83494">
        <ele>2135</ele>
        <time>2015-08-23T09:47:19Z</time>
      </trkpt>
      <trkpt lat="45.38126" lon="6.83493">
        <ele>2135</ele>
        <time>2015-08-23T09:47:20Z</time>
      </trkpt>
      <trkpt lat="45.38121" lon="6.83491">
        <ele>2135</ele>
        <time>2015-08-23T09:47:22Z</time>
      </trkpt>
      <trkpt lat="45.38117" lon="6.8349">
        <ele>2136</ele>
        <time>2015-08-23T09:47:24Z</time>
      </trkpt>
      <trkpt lat="45.38112" lon="6.83489">
        <ele>2136</ele>
        <time>2015-08-23T09:47:26Z</time>
      </trkpt>
      <trkpt lat="45.38108" lon="6.83488">
        <ele>2136</ele>
        <time>2015-08-23T09:47:28Z</time>
      </trkpt>
      <trkpt lat="45.38103" lon="6.83486">
        <ele>2136</ele>
        <time>2015-08-23T09:47:30Z</time>
      </trkpt>
      <trkpt lat="45.38098" lon="6.83485">
        <ele>2137</ele>
        <time>2015-08-23T09:47:32Z</time>
      </trkpt>
      <trkpt lat="45.38093" lon="6.83483">
        <ele>2137</ele>
        <time>2015-08-23T09:47:34Z</time>
      </trkpt>
      <trkpt lat="45.38088" lon="6.83481">
        <ele>2137</ele>
        <time>2015-08-23T09:47:36Z</time>
      </trkpt>
      <trkpt lat="45.38084" lon="6.83479">
        <ele>2136</ele>
        <time>2015-08-23T09:47:38Z</time>
      </trkpt>
      <trkpt lat="45.38079" lon="6.83477">
        <ele>2137</ele>
        <time>2015-08-23T09:47:40Z</time>
      </trkpt>
      <trkpt lat="45.38074" lon="6.83476">
        <ele>2137</ele>
        <time>2015-08-23T09:47:42Z</time>
      </trkpt>
      <trkpt lat="45.38069" lon="6.83474">
        <ele>2137</ele>
        <time>2015-08-23T09:47:44Z</time>
      </trkpt>
      <trkpt lat="45.38067" lon="6.83473">
        <ele>2136</ele>
        <time>2015-08-23T09:47:45Z</time>
      </trkpt>
      <trkpt lat="45.38062" lon="6.8347">
        <ele>2136</ele>
        <time>2015-08-23T09:47:47Z</time>
      </trkpt>
      <trkpt lat="45.38058" lon="6.83469">
        <ele>2136</ele>
        <time>2015-08-23T09:47:49Z</time>
      </trkpt>
      <trkpt lat="45.38055" lon="6.83469">
        <ele>2136</ele>
        <time>2015-08-23T09:47:50Z</time>
      </trkpt>
      <trkpt lat="45.38052" lon="6.83469">
        <ele>2136</ele>
        <time>2015-08-23T09:47:51Z</time>
      </trkpt>
      <trkpt lat="45.38049" lon="6.83469">
        <ele>2136</ele>
        <time>2015-08-23T09:47:52Z</time>
      </trkpt>
      <trkpt lat="45.38045" lon="6.83468">
        <ele>2136</ele>
        <time>2015-08-23T09:47:53Z</time>
      </trkpt>
      <trkpt lat="45.38042" lon="6.83467">
        <ele>2136</ele>
        <time>2015-08-23T09:47:54Z</time>
      </trkpt>
      <trkpt lat="45.38039" lon="6.83467">
        <ele>2136</ele>
        <time>2015-08-23T09:47:55Z</time>
      </trkpt>
      <trkpt lat="45.38036" lon="6.83466">
        <ele>2136</ele>
        <time>2015-08-23T09:47:56Z</time>
      </trkpt>
      <trkpt lat="45.38033" lon="6.83465">
        <ele>2136</ele>
        <time>2015-08-23T09:47:57Z</time>
      </trkpt>
      <trkpt lat="45.3803" lon="6.83465">
        <ele>2136</ele>
        <time>2015-08-23T09:47:58Z</time>
      </trkpt>
      <trkpt lat="45.38027" lon="6.83464">
        <ele>2136</ele>
        <time>2015-08-23T09:47:59Z</time>
      </trkpt>
      <trkpt lat="45.38024" lon="6.83462">
        <ele>2135</ele>
        <time>2015-08-23T09:48:00Z</time>
      </trkpt>
      <trkpt lat="45.38021" lon="6.83461">
        <ele>2135</ele>
        <time>2015-08-23T09:48:01Z</time>
      </trkpt>
      <trkpt lat="45.38018" lon="6.8346">
        <ele>2135</ele>
        <time>2015-08-23T09:48:02Z</time>
      </trkpt>
      <trkpt lat="45.38015" lon="6.83459">
        <ele>2135</ele>
        <time>2015-08-23T09:48:03Z</time>
      </trkpt>
      <trkpt lat="45.38012" lon="6.83458">
        <ele>2135</ele>
        <time>2015-08-23T09:48:04Z</time>
      </trkpt>
      <trkpt lat="45.3801" lon="6.83458">
        <ele>2135</ele>
        <time>2015-08-23T09:48:05Z</time>
      </trkpt>
      <trkpt lat="45.38007" lon="6.83457">
        <ele>2135</ele>
        <time>2015-08-23T09:48:06Z</time>
      </trkpt>
      <trkpt lat="45.38004" lon="6.83457">
        <ele>2135</ele>
        <time>2015-08-23T09:48:07Z</time>
      </trkpt>
      <trkpt lat="45.38001" lon="6.83457">
        <ele>2135</ele>
        <time>2015-08-23T09:48:08Z</time>
      </trkpt>
      <trkpt lat="45.37998" lon="6.83457">
        <ele>2134</ele>
        <time>2015-08-23T09:48:09Z</time>
      </trkpt>
      <trkpt lat="45.37995" lon="6.83456">
        <ele>2134</ele>
        <time>2015-08-23T09:48:10Z</time>
      </trkpt>
      <trkpt lat="45.37992" lon="6.83456">
        <ele>2133</ele>
        <time>2015-08-23T09:48:11Z</time>
      </trkpt>
      <trkpt lat="45.37989" lon="6.83455">
        <ele>2133</ele>
        <time>2015-08-23T09:48:12Z</time>
      </trkpt>
      <trkpt lat="45.37986" lon="6.83454">
        <ele>2133</ele>
        <time>2015-08-23T09:48:13Z</time>
      </trkpt>
      <trkpt lat="45.37984" lon="6.83453">
        <ele>2133</ele>
        <time>2015-08-23T09:48:14Z</time>
      </trkpt>
      <trkpt lat="45.37981" lon="6.83452">
        <ele>2133</ele>
        <time>2015-08-23T09:48:15Z</time>
      </trkpt>
      <trkpt lat="45.37978" lon="6.83451">
        <ele>2133</ele>
        <time>2015-08-23T09:48:16Z</time>
      </trkpt>
      <trkpt lat="45.37975" lon="6.8345">
        <ele>2133</ele>
        <time>2015-08-23T09:48:17Z</time>
      </trkpt>
      <trkpt lat="45.37972" lon="6.83449">
        <ele>2132</ele>
        <time>2015-08-23T09:48:18Z</time>
      </trkpt>
      <trkpt lat="45.37969" lon="6.83448">
        <ele>2132</ele>
        <time>2015-08-23T09:48:19Z</time>
      </trkpt>
      <trkpt lat="45.37966" lon="6.83448">
        <ele>2132</ele>
        <time>2015-08-23T09:48:20Z</time>
      </trkpt>
      <trkpt lat="45.37962" lon="6.83447">
        <ele>2132</ele>
        <time>2015-08-23T09:48:21Z</time>
      </trkpt>
      <trkpt lat="45.3796" lon="6.83448">
        <ele>2132</ele>
        <time>2015-08-23T09:48:22Z</time>
      </trkpt>
      <trkpt lat="45.37957" lon="6.83449">
        <ele>2132</ele>
        <time>2015-08-23T09:48:23Z</time>
      </trkpt>
      <trkpt lat="45.37952" lon="6.8345">
        <ele>2132</ele>
        <time>2015-08-23T09:48:25Z</time>
      </trkpt>
      <trkpt lat="45.37946" lon="6.8345">
        <ele>2132</ele>
        <time>2015-08-23T09:48:27Z</time>
      </trkpt>
      <trkpt lat="45.37944" lon="6.83448">
        <ele>2132</ele>
        <time>2015-08-23T09:48:28Z</time>
      </trkpt>
      <trkpt lat="45.37941" lon="6.83447">
        <ele>2131</ele>
        <time>2015-08-23T09:48:29Z</time>
      </trkpt>
      <trkpt lat="45.37938" lon="6.83445">
        <ele>2131</ele>
        <time>2015-08-23T09:48:30Z</time>
      </trkpt>
      <trkpt lat="45.37935" lon="6.83445">
        <ele>2131</ele>
        <time>2015-08-23T09:48:31Z</time>
      </trkpt>
      <trkpt lat="45.37932" lon="6.83444">
        <ele>2130</ele>
        <time>2015-08-23T09:48:32Z</time>
      </trkpt>
      <trkpt lat="45.37927" lon="6.83443">
        <ele>2130</ele>
        <time>2015-08-23T09:48:34Z</time>
      </trkpt>
      <trkpt lat="45.37922" lon="6.83442">
        <ele>2130</ele>
        <time>2015-08-23T09:48:36Z</time>
      </trkpt>
      <trkpt lat="45.37919" lon="6.83441">
        <ele>2129</ele>
        <time>2015-08-23T09:48:37Z</time>
      </trkpt>
      <trkpt lat="45.37916" lon="6.8344">
        <ele>2127</ele>
        <time>2015-08-23T09:48:38Z</time>
      </trkpt>
      <trkpt lat="45.37913" lon="6.83439">
        <ele>2127</ele>
        <time>2015-08-23T09:48:39Z</time>
      </trkpt>
      <trkpt lat="45.3791" lon="6.83438">
        <ele>2127</ele>
        <time>2015-08-23T09:48:40Z</time>
      </trkpt>
      <trkpt lat="45.37907" lon="6.83437">
        <ele>2127</ele>
        <time>2015-08-23T09:48:41Z</time>
      </trkpt>
      <trkpt lat="45.37902" lon="6.83438">
        <ele>2127</ele>
        <time>2015-08-23T09:48:43Z</time>
      </trkpt>
      <trkpt lat="45.37899" lon="6.83438">
        <ele>2127</ele>
        <time>2015-08-23T09:48:44Z</time>
      </trkpt>
      <trkpt lat="45.37897" lon="6.83438">
        <ele>2127</ele>
        <time>2015-08-23T09:48:45Z</time>
      </trkpt>
      <trkpt lat="45.37894" lon="6.83438">
        <ele>2127</ele>
        <time>2015-08-23T09:48:46Z</time>
      </trkpt>
      <trkpt lat="45.37891" lon="6.83438">
        <ele>2127</ele>
        <time>2015-08-23T09:48:47Z</time>
      </trkpt>
      <trkpt lat="45.37887" lon="6.83438">
        <ele>2127</ele>
        <time>2015-08-23T09:48:48Z</time>
      </trkpt>
      <trkpt lat="45.37883" lon="6.83436">
        <ele>2127</ele>
        <time>2015-08-23T09:48:49Z</time>
      </trkpt>
      <trkpt lat="45.37879" lon="6.83434">
        <ele>2126</ele>
        <time>2015-08-23T09:48:50Z</time>
      </trkpt>
      <trkpt lat="45.37876" lon="6.83433">
        <ele>2126</ele>
        <time>2015-08-23T09:48:51Z</time>
      </trkpt>
      <trkpt lat="45.37873" lon="6.83433">
        <ele>2126</ele>
        <time>2015-08-23T09:48:53Z</time>
      </trkpt>
      <trkpt lat="45.37869" lon="6.8343">
        <ele>2125</ele>
        <time>2015-08-23T09:48:56Z</time>
      </trkpt>
      <trkpt lat="45.37864" lon="6.83429">
        <ele>2125</ele>
        <time>2015-08-23T09:48:57Z</time>
      </trkpt>
      <trkpt lat="45.37861" lon="6.8343">
        <ele>2125</ele>
        <time>2015-08-23T09:48:58Z</time>
      </trkpt>
      <trkpt lat="45.37858" lon="6.83428">
        <ele>2124</ele>
        <time>2015-08-23T09:48:59Z</time>
      </trkpt>
      <trkpt lat="45.37855" lon="6.83427">
        <ele>2123</ele>
        <time>2015-08-23T09:49:00Z</time>
      </trkpt>
      <trkpt lat="45.37852" lon="6.83426">
        <ele>2123</ele>
        <time>2015-08-23T09:49:01Z</time>
      </trkpt>
      <trkpt lat="45.37849" lon="6.83424">
        <ele>2122</ele>
        <time>2015-08-23T09:49:02Z</time>
      </trkpt>
      <trkpt lat="45.37846" lon="6.83422">
        <ele>2121</ele>
        <time>2015-08-23T09:49:03Z</time>
      </trkpt>
      <trkpt lat="45.37843" lon="6.83421">
        <ele>2120</ele>
        <time>2015-08-23T09:49:04Z</time>
      </trkpt>
      <trkpt lat="45.3784" lon="6.83419">
        <ele>2119</ele>
        <time>2015-08-23T09:49:05Z</time>
      </trkpt>
      <trkpt lat="45.37838" lon="6.83417">
        <ele>2117</ele>
        <time>2015-08-23T09:49:06Z</time>
      </trkpt>
      <trkpt lat="45.37835" lon="6.83415">
        <ele>2115</ele>
        <time>2015-08-23T09:49:07Z</time>
      </trkpt>
      <trkpt lat="45.37833" lon="6.83413">
        <ele>2114</ele>
        <time>2015-08-23T09:49:08Z</time>
      </trkpt>
      <trkpt lat="45.3783" lon="6.83412">
        <ele>2114</ele>
        <time>2015-08-23T09:49:09Z</time>
      </trkpt>
      <trkpt lat="45.37827" lon="6.83411">
        <ele>2113</ele>
        <time>2015-08-23T09:49:10Z</time>
      </trkpt>
      <trkpt lat="45.37824" lon="6.8341">
        <ele>2113</ele>
        <time>2015-08-23T09:49:11Z</time>
      </trkpt>
      <trkpt lat="45.37819" lon="6.83409">
        <ele>2112</ele>
        <time>2015-08-23T09:49:13Z</time>
      </trkpt>
      <trkpt lat="45.37816" lon="6.83409">
        <ele>2112</ele>
        <time>2015-08-23T09:49:14Z</time>
      </trkpt>
      <trkpt lat="45.3781" lon="6.83408">
        <ele>2111</ele>
        <time>2015-08-23T09:49:16Z</time>
      </trkpt>
      <trkpt lat="45.37807" lon="6.83407">
        <ele>2111</ele>
        <time>2015-08-23T09:49:17Z</time>
      </trkpt>
      <trkpt lat="45.37804" lon="6.83406">
        <ele>2110</ele>
        <time>2015-08-23T09:49:18Z</time>
      </trkpt>
      <trkpt lat="45.37801" lon="6.83405">
        <ele>2110</ele>
        <time>2015-08-23T09:49:19Z</time>
      </trkpt>
      <trkpt lat="45.37798" lon="6.83404">
        <ele>2110</ele>
        <time>2015-08-23T09:49:20Z</time>
      </trkpt>
      <trkpt lat="45.37795" lon="6.83403">
        <ele>2110</ele>
        <time>2015-08-23T09:49:21Z</time>
      </trkpt>
      <trkpt lat="45.37792" lon="6.83402">
        <ele>2110</ele>
        <time>2015-08-23T09:49:22Z</time>
      </trkpt>
      <trkpt lat="45.37789" lon="6.83402">
        <ele>2109</ele>
        <time>2015-08-23T09:49:23Z</time>
      </trkpt>
      <trkpt lat="45.37786" lon="6.83401">
        <ele>2109</ele>
        <time>2015-08-23T09:49:24Z</time>
      </trkpt>
      <trkpt lat="45.37783" lon="6.834">
        <ele>2109</ele>
        <time>2015-08-23T09:49:25Z</time>
      </trkpt>
      <trkpt lat="45.3778" lon="6.83398">
        <ele>2109</ele>
        <time>2015-08-23T09:49:26Z</time>
      </trkpt>
      <trkpt lat="45.37777" lon="6.83397">
        <ele>2109</ele>
        <time>2015-08-23T09:49:27Z</time>
      </trkpt>
      <trkpt lat="45.37772" lon="6.83396">
        <ele>2109</ele>
        <time>2015-08-23T09:49:29Z</time>
      </trkpt>
      <trkpt lat="45.37767" lon="6.83397">
        <ele>2109</ele>
        <time>2015-08-23T09:49:31Z</time>
      </trkpt>
      <trkpt lat="45.37762" lon="6.83397">
        <ele>2108</ele>
        <time>2015-08-23T09:49:33Z</time>
      </trkpt>
      <trkpt lat="45.37759" lon="6.83396">
        <ele>2108</ele>
        <time>2015-08-23T09:49:34Z</time>
      </trkpt>
      <trkpt lat="45.37756" lon="6.83395">
        <ele>2108</ele>
        <time>2015-08-23T09:49:35Z</time>
      </trkpt>
      <trkpt lat="45.37752" lon="6.83395">
        <ele>2108</ele>
        <time>2015-08-23T09:49:36Z</time>
      </trkpt>
      <trkpt lat="45.37749" lon="6.83394">
        <ele>2106</ele>
        <time>2015-08-23T09:49:37Z</time>
      </trkpt>
      <trkpt lat="45.37747" lon="6.83394">
        <ele>2106</ele>
        <time>2015-08-23T09:49:38Z</time>
      </trkpt>
      <trkpt lat="45.37742" lon="6.83395">
        <ele>2106</ele>
        <time>2015-08-23T09:49:40Z</time>
      </trkpt>
      <trkpt lat="45.37737" lon="6.83398">
        <ele>2106</ele>
        <time>2015-08-23T09:49:42Z</time>
      </trkpt>
      <trkpt lat="45.37734" lon="6.83399">
        <ele>2106</ele>
        <time>2015-08-23T09:49:43Z</time>
      </trkpt>
      <trkpt lat="45.37729" lon="6.83403">
        <ele>2106</ele>
        <time>2015-08-23T09:49:45Z</time>
      </trkpt>
      <trkpt lat="45.37725" lon="6.83405">
        <ele>2105</ele>
        <time>2015-08-23T09:49:47Z</time>
      </trkpt>
      <trkpt lat="45.37721" lon="6.83407">
        <ele>2105</ele>
        <time>2015-08-23T09:49:49Z</time>
      </trkpt>
      <trkpt lat="45.37718" lon="6.83408">
        <ele>2105</ele>
        <time>2015-08-23T09:49:50Z</time>
      </trkpt>
      <trkpt lat="45.37715" lon="6.83409">
        <ele>2105</ele>
        <time>2015-08-23T09:49:51Z</time>
      </trkpt>
      <trkpt lat="45.37712" lon="6.83409">
        <ele>2105</ele>
        <time>2015-08-23T09:49:52Z</time>
      </trkpt>
      <trkpt lat="45.37709" lon="6.83409">
        <ele>2104</ele>
        <time>2015-08-23T09:49:53Z</time>
      </trkpt>
      <trkpt lat="45.37706" lon="6.83409">
        <ele>2104</ele>
        <time>2015-08-23T09:49:54Z</time>
      </trkpt>
      <trkpt lat="45.37703" lon="6.8341">
        <ele>2104</ele>
        <time>2015-08-23T09:49:55Z</time>
      </trkpt>
      <trkpt lat="45.37698" lon="6.83411">
        <ele>2104</ele>
        <time>2015-08-23T09:49:57Z</time>
      </trkpt>
      <trkpt lat="45.37694" lon="6.8341">
        <ele>2103</ele>
        <time>2015-08-23T09:49:59Z</time>
      </trkpt>
      <trkpt lat="45.3769" lon="6.83408">
        <ele>2103</ele>
        <time>2015-08-23T09:50:01Z</time>
      </trkpt>
      <trkpt lat="45.37685" lon="6.83408">
        <ele>2102</ele>
        <time>2015-08-23T09:50:03Z</time>
      </trkpt>
      <trkpt lat="45.37682" lon="6.83408">
        <ele>2102</ele>
        <time>2015-08-23T09:50:04Z</time>
      </trkpt>
      <trkpt lat="45.37679" lon="6.83408">
        <ele>2102</ele>
        <time>2015-08-23T09:50:05Z</time>
      </trkpt>
      <trkpt lat="45.37676" lon="6.83408">
        <ele>2101</ele>
        <time>2015-08-23T09:50:06Z</time>
      </trkpt>
      <trkpt lat="45.37672" lon="6.83409">
        <ele>2101</ele>
        <time>2015-08-23T09:50:07Z</time>
      </trkpt>
      <trkpt lat="45.37669" lon="6.8341">
        <ele>2101</ele>
        <time>2015-08-23T09:50:08Z</time>
      </trkpt>
      <trkpt lat="45.37665" lon="6.8341">
        <ele>2100</ele>
        <time>2015-08-23T09:50:09Z</time>
      </trkpt>
      <trkpt lat="45.37661" lon="6.83411">
        <ele>2100</ele>
        <time>2015-08-23T09:50:11Z</time>
      </trkpt>
      <trkpt lat="45.37655" lon="6.83413">
        <ele>2101</ele>
        <time>2015-08-23T09:50:12Z</time>
      </trkpt>
      <trkpt lat="45.37651" lon="6.83416">
        <ele>2101</ele>
        <time>2015-08-23T09:50:14Z</time>
      </trkpt>
      <trkpt lat="45.37647" lon="6.83419">
        <ele>2104</ele>
        <time>2015-08-23T09:50:16Z</time>
      </trkpt>
      <trkpt lat="45.37644" lon="6.83418">
        <ele>2104</ele>
        <time>2015-08-23T09:50:19Z</time>
      </trkpt>
      <trkpt lat="45.37644" lon="6.83413">
        <ele>2102</ele>
        <time>2015-08-23T09:50:21Z</time>
      </trkpt>
      <trkpt lat="45.37646" lon="6.83407">
        <ele>2102</ele>
        <time>2015-08-23T09:50:23Z</time>
      </trkpt>
      <trkpt lat="45.37646" lon="6.83401">
        <ele>2102</ele>
        <time>2015-08-23T09:50:25Z</time>
      </trkpt>
      <trkpt lat="45.37643" lon="6.83395">
        <ele>2102</ele>
        <time>2015-08-23T09:50:27Z</time>
      </trkpt>
      <trkpt lat="45.37639" lon="6.83392">
        <ele>2103</ele>
        <time>2015-08-23T09:50:29Z</time>
      </trkpt>
      <trkpt lat="45.37635" lon="6.8339">
        <ele>2103</ele>
        <time>2015-08-23T09:50:31Z</time>
      </trkpt>
      <trkpt lat="45.3763" lon="6.8339">
        <ele>2103</ele>
        <time>2015-08-23T09:50:33Z</time>
      </trkpt>
      <trkpt lat="45.37626" lon="6.8339">
        <ele>2103</ele>
        <time>2015-08-23T09:50:35Z</time>
      </trkpt>
      <trkpt lat="45.37621" lon="6.83388">
        <ele>2103</ele>
        <time>2015-08-23T09:50:37Z</time>
      </trkpt>
      <trkpt lat="45.37619" lon="6.83386">
        <ele>2103</ele>
        <time>2015-08-23T09:50:38Z</time>
      </trkpt>
      <trkpt lat="45.37615" lon="6.83382">
        <ele>2103</ele>
        <time>2015-08-23T09:50:40Z</time>
      </trkpt>
      <trkpt lat="45.37613" lon="6.83377">
        <ele>2104</ele>
        <time>2015-08-23T09:50:42Z</time>
      </trkpt>
      <trkpt lat="45.37612" lon="6.83372">
        <ele>2104</ele>
        <time>2015-08-23T09:50:44Z</time>
      </trkpt>
      <trkpt lat="45.3761" lon="6.83367">
        <ele>2104</ele>
        <time>2015-08-23T09:50:46Z</time>
      </trkpt>
      <trkpt lat="45.37608" lon="6.83363">
        <ele>2105</ele>
        <time>2015-08-23T09:50:48Z</time>
      </trkpt>
      <trkpt lat="45.37608" lon="6.83358">
        <ele>2105</ele>
        <time>2015-08-23T09:50:51Z</time>
      </trkpt>
      <trkpt lat="45.37606" lon="6.83355">
        <ele>2105</ele>
        <time>2015-08-23T09:50:56Z</time>
      </trkpt>
      <trkpt lat="45.37603" lon="6.8335">
        <ele>2106</ele>
        <time>2015-08-23T09:50:59Z</time>
      </trkpt>
      <trkpt lat="45.37602" lon="6.83347">
        <ele>2106</ele>
        <time>2015-08-23T09:51:01Z</time>
      </trkpt>
      <trkpt lat="45.376" lon="6.83342">
        <ele>2107</ele>
        <time>2015-08-23T09:51:03Z</time>
      </trkpt>
      <trkpt lat="45.37598" lon="6.83338">
        <ele>2107</ele>
        <time>2015-08-23T09:51:05Z</time>
      </trkpt>
      <trkpt lat="45.37595" lon="6.83335">
        <ele>2108</ele>
        <time>2015-08-23T09:51:07Z</time>
      </trkpt>
      <trkpt lat="45.37593" lon="6.83333">
        <ele>2114</ele>
        <time>2015-08-23T09:51:09Z</time>
      </trkpt>
      <trkpt lat="45.3759" lon="6.8333">
        <ele>2113</ele>
        <time>2015-08-23T09:51:11Z</time>
      </trkpt>
      <trkpt lat="45.37587" lon="6.83329">
        <ele>2113</ele>
        <time>2015-08-23T09:51:13Z</time>
      </trkpt>
      <trkpt lat="45.37584" lon="6.83327">
        <ele>2113</ele>
        <time>2015-08-23T09:51:16Z</time>
      </trkpt>
      <trkpt lat="45.37583" lon="6.83323">
        <ele>2114</ele>
        <time>2015-08-23T09:51:19Z</time>
      </trkpt>
      <trkpt lat="45.37582" lon="6.83319">
        <ele>2116</ele>
        <time>2015-08-23T09:51:23Z</time>
      </trkpt>
      <trkpt lat="45.37579" lon="6.83316">
        <ele>2117</ele>
        <time>2015-08-23T09:51:25Z</time>
      </trkpt>
      <trkpt lat="45.37577" lon="6.83312">
        <ele>2118</ele>
        <time>2015-08-23T09:51:27Z</time>
      </trkpt>
      <trkpt lat="45.37576" lon="6.83309">
        <ele>2119</ele>
        <time>2015-08-23T09:51:29Z</time>
      </trkpt>
      <trkpt lat="45.37573" lon="6.83307">
        <ele>2119</ele>
        <time>2015-08-23T09:51:32Z</time>
      </trkpt>
      <trkpt lat="45.37569" lon="6.83307">
        <ele>2120</ele>
        <time>2015-08-23T09:51:35Z</time>
      </trkpt>
      <trkpt lat="45.37567" lon="6.83305">
        <ele>2120</ele>
        <time>2015-08-23T09:51:37Z</time>
      </trkpt>
      <trkpt lat="45.37565" lon="6.83301">
        <ele>2121</ele>
        <time>2015-08-23T09:51:39Z</time>
      </trkpt>
      <trkpt lat="45.37562" lon="6.83301">
        <ele>2121</ele>
        <time>2015-08-23T09:51:41Z</time>
      </trkpt>
      <trkpt lat="45.37559" lon="6.83301">
        <ele>2121</ele>
        <time>2015-08-23T09:51:43Z</time>
      </trkpt>
      <trkpt lat="45.37556" lon="6.83299">
        <ele>2121</ele>
        <time>2015-08-23T09:51:46Z</time>
      </trkpt>
      <trkpt lat="45.37553" lon="6.83296">
        <ele>2122</ele>
        <time>2015-08-23T09:51:48Z</time>
      </trkpt>
      <trkpt lat="45.37551" lon="6.83293">
        <ele>2122</ele>
        <time>2015-08-23T09:51:50Z</time>
      </trkpt>
      <trkpt lat="45.37548" lon="6.8329">
        <ele>2122</ele>
        <time>2015-08-23T09:51:53Z</time>
      </trkpt>
      <trkpt lat="45.37545" lon="6.83288">
        <ele>2123</ele>
        <time>2015-08-23T09:51:56Z</time>
      </trkpt>
      <trkpt lat="45.37541" lon="6.83287">
        <ele>2123</ele>
        <time>2015-08-23T09:51:59Z</time>
      </trkpt>
      <trkpt lat="45.37538" lon="6.83287">
        <ele>2123</ele>
        <time>2015-08-23T09:52:01Z</time>
      </trkpt>
      <trkpt lat="45.37535" lon="6.83284">
        <ele>2123</ele>
        <time>2015-08-23T09:52:04Z</time>
      </trkpt>
      <trkpt lat="45.37532" lon="6.83282">
        <ele>2123</ele>
        <time>2015-08-23T09:52:07Z</time>
      </trkpt>
      <trkpt lat="45.3753" lon="6.83279">
        <ele>2124</ele>
        <time>2015-08-23T09:52:10Z</time>
      </trkpt>
      <trkpt lat="45.37534" lon="6.83276">
        <ele>2124</ele>
        <time>2015-08-23T09:52:13Z</time>
      </trkpt>
      <trkpt lat="45.37538" lon="6.83275">
        <ele>2124</ele>
        <time>2015-08-23T09:52:15Z</time>
      </trkpt>
      <trkpt lat="45.37541" lon="6.83275">
        <ele>2124</ele>
        <time>2015-08-23T09:52:17Z</time>
      </trkpt>
      <trkpt lat="45.37544" lon="6.83275">
        <ele>2125</ele>
        <time>2015-08-23T09:52:19Z</time>
      </trkpt>
      <trkpt lat="45.37546" lon="6.83274">
        <ele>2125</ele>
        <time>2015-08-23T09:52:22Z</time>
      </trkpt>
      <trkpt lat="45.37545" lon="6.83269">
        <ele>2125</ele>
        <time>2015-08-23T09:52:26Z</time>
      </trkpt>
      <trkpt lat="45.37541" lon="6.83269">
        <ele>2125</ele>
        <time>2015-08-23T09:52:29Z</time>
      </trkpt>
      <trkpt lat="45.37538" lon="6.83268">
        <ele>2125</ele>
        <time>2015-08-23T09:52:32Z</time>
      </trkpt>
      <trkpt lat="45.37535" lon="6.83268">
        <ele>2125</ele>
        <time>2015-08-23T09:52:34Z</time>
      </trkpt>
      <trkpt lat="45.37533" lon="6.83266">
        <ele>2125</ele>
        <time>2015-08-23T09:52:36Z</time>
      </trkpt>
      <trkpt lat="45.3753" lon="6.83263">
        <ele>2125</ele>
        <time>2015-08-23T09:52:39Z</time>
      </trkpt>
      <trkpt lat="45.37528" lon="6.83259">
        <ele>2126</ele>
        <time>2015-08-23T09:52:42Z</time>
      </trkpt>
      <trkpt lat="45.37526" lon="6.83255">
        <ele>2126</ele>
        <time>2015-08-23T09:52:45Z</time>
      </trkpt>
      <trkpt lat="45.37526" lon="6.83251">
        <ele>2126</ele>
        <time>2015-08-23T09:52:50Z</time>
      </trkpt>
      <trkpt lat="45.37526" lon="6.83247">
        <ele>2149</ele>
        <time>2015-08-23T09:52:53Z</time>
      </trkpt>
      <trkpt lat="45.37524" lon="6.83243">
        <ele>2150</ele>
        <time>2015-08-23T09:52:56Z</time>
      </trkpt>
      <trkpt lat="45.37521" lon="6.83243">
        <ele>2149</ele>
        <time>2015-08-23T09:52:58Z</time>
      </trkpt>
      <trkpt lat="45.37517" lon="6.83242">
        <ele>2147</ele>
        <time>2015-08-23T09:53:00Z</time>
      </trkpt>
      <trkpt lat="45.37513" lon="6.83243">
        <ele>2145</ele>
        <time>2015-08-23T09:53:02Z</time>
      </trkpt>
      <trkpt lat="45.3751" lon="6.83243">
        <ele>2143</ele>
        <time>2015-08-23T09:53:05Z</time>
      </trkpt>
      <trkpt lat="45.37506" lon="6.83243">
        <ele>2140</ele>
        <time>2015-08-23T09:53:08Z</time>
      </trkpt>
      <trkpt lat="45.37503" lon="6.83244">
        <ele>2138</ele>
        <time>2015-08-23T09:53:11Z</time>
      </trkpt>
      <trkpt lat="45.375" lon="6.83243">
        <ele>2138</ele>
        <time>2015-08-23T09:53:17Z</time>
      </trkpt>
      <trkpt lat="45.37499" lon="6.83238">
        <ele>2139</ele>
        <time>2015-08-23T09:53:20Z</time>
      </trkpt>
      <trkpt lat="45.37498" lon="6.83233">
        <ele>2142</ele>
        <time>2015-08-23T09:53:22Z</time>
      </trkpt>
      <trkpt lat="45.375" lon="6.83229">
        <ele>2144</ele>
        <time>2015-08-23T09:53:25Z</time>
      </trkpt>
      <trkpt lat="45.37503" lon="6.83228">
        <ele>2151</ele>
        <time>2015-08-23T09:53:28Z</time>
      </trkpt>
      <trkpt lat="45.37507" lon="6.83228">
        <ele>2152</ele>
        <time>2015-08-23T09:53:31Z</time>
      </trkpt>
      <trkpt lat="45.3751" lon="6.83226">
        <ele>2153</ele>
        <time>2015-08-23T09:53:34Z</time>
      </trkpt>
      <trkpt lat="45.37513" lon="6.83225">
        <ele>2154</ele>
        <time>2015-08-23T09:53:37Z</time>
      </trkpt>
      <trkpt lat="45.37517" lon="6.83225">
        <ele>2155</ele>
        <time>2015-08-23T09:53:38Z</time>
      </trkpt>
      <trkpt lat="45.3752" lon="6.83223">
        <ele>2156</ele>
        <time>2015-08-23T09:53:40Z</time>
      </trkpt>
      <trkpt lat="45.37522" lon="6.8322">
        <ele>2157</ele>
        <time>2015-08-23T09:53:45Z</time>
      </trkpt>
      <trkpt lat="45.37525" lon="6.8322">
        <ele>2158</ele>
        <time>2015-08-23T09:53:50Z</time>
      </trkpt>
      <trkpt lat="45.37528" lon="6.83219">
        <ele>2159</ele>
        <time>2015-08-23T09:53:56Z</time>
      </trkpt>
      <trkpt lat="45.37531" lon="6.83217">
        <ele>2159</ele>
        <time>2015-08-23T09:54:00Z</time>
      </trkpt>
      <trkpt lat="45.37535" lon="6.83218">
        <ele>2159</ele>
        <time>2015-08-23T09:54:03Z</time>
      </trkpt>
      <trkpt lat="45.37538" lon="6.83218">
        <ele>2160</ele>
        <time>2015-08-23T09:54:05Z</time>
      </trkpt>
      <trkpt lat="45.37541" lon="6.83217">
        <ele>2160</ele>
        <time>2015-08-23T09:54:08Z</time>
      </trkpt>
      <trkpt lat="45.37544" lon="6.83217">
        <ele>2160</ele>
        <time>2015-08-23T09:54:11Z</time>
      </trkpt>
      <trkpt lat="45.37547" lon="6.83214">
        <ele>2161</ele>
        <time>2015-08-23T09:54:14Z</time>
      </trkpt>
      <trkpt lat="45.3755" lon="6.83214">
        <ele>2161</ele>
        <time>2015-08-23T09:54:18Z</time>
      </trkpt>
      <trkpt lat="45.37554" lon="6.83215">
        <ele>2161</ele>
        <time>2015-08-23T09:54:22Z</time>
      </trkpt>
      <trkpt lat="45.37557" lon="6.83215">
        <ele>2161</ele>
        <time>2015-08-23T09:54:23Z</time>
      </trkpt>
      <trkpt lat="45.3756" lon="6.83214">
        <ele>2161</ele>
        <time>2015-08-23T09:54:26Z</time>
      </trkpt>
      <trkpt lat="45.37564" lon="6.83215">
        <ele>2161</ele>
        <time>2015-08-23T09:54:29Z</time>
      </trkpt>
      <trkpt lat="45.37567" lon="6.83216">
        <ele>2161</ele>
        <time>2015-08-23T09:54:31Z</time>
      </trkpt>
      <trkpt lat="45.3757" lon="6.83214">
        <ele>2161</ele>
        <time>2015-08-23T09:54:34Z</time>
      </trkpt>
      <trkpt lat="45.37573" lon="6.83214">
        <ele>2161</ele>
        <time>2015-08-23T09:54:36Z</time>
      </trkpt>
      <trkpt lat="45.37577" lon="6.83215">
        <ele>2160</ele>
        <time>2015-08-23T09:54:38Z</time>
      </trkpt>
      <trkpt lat="45.3758" lon="6.83215">
        <ele>2161</ele>
        <time>2015-08-23T09:54:40Z</time>
      </trkpt>
      <trkpt lat="45.37582" lon="6.83213">
        <ele>2161</ele>
        <time>2015-08-23T09:54:43Z</time>
      </trkpt>
      <trkpt lat="45.37587" lon="6.83212">
        <ele>2160</ele>
        <time>2015-08-23T09:54:46Z</time>
      </trkpt>
      <trkpt lat="45.37584" lon="6.83209">
        <ele>2162</ele>
        <time>2015-08-23T09:54:51Z</time>
      </trkpt>
      <trkpt lat="45.3758" lon="6.83207">
        <ele>2164</ele>
        <time>2015-08-23T09:54:53Z</time>
      </trkpt>
      <trkpt lat="45.37577" lon="6.83205">
        <ele>2165</ele>
        <time>2015-08-23T09:54:55Z</time>
      </trkpt>
      <trkpt lat="45.37574" lon="6.83204">
        <ele>2166</ele>
        <time>2015-08-23T09:54:57Z</time>
      </trkpt>
      <trkpt lat="45.37571" lon="6.83202">
        <ele>2166</ele>
        <time>2015-08-23T09:54:59Z</time>
      </trkpt>
      <trkpt lat="45.37568" lon="6.832">
        <ele>2167</ele>
        <time>2015-08-23T09:55:02Z</time>
      </trkpt>
      <trkpt lat="45.37567" lon="6.83196">
        <ele>2168</ele>
        <time>2015-08-23T09:55:05Z</time>
      </trkpt>
      <trkpt lat="45.3757" lon="6.83194">
        <ele>2170</ele>
        <time>2015-08-23T09:55:08Z</time>
      </trkpt>
      <trkpt lat="45.37573" lon="6.83192">
        <ele>2171</ele>
        <time>2015-08-23T09:55:10Z</time>
      </trkpt>
      <trkpt lat="45.37576" lon="6.83191">
        <ele>2172</ele>
        <time>2015-08-23T09:55:13Z</time>
      </trkpt>
      <trkpt lat="45.37579" lon="6.8319">
        <ele>2172</ele>
        <time>2015-08-23T09:55:15Z</time>
      </trkpt>
      <trkpt lat="45.37583" lon="6.83188">
        <ele>2173</ele>
        <time>2015-08-23T09:55:17Z</time>
      </trkpt>
      <trkpt lat="45.37586" lon="6.83187">
        <ele>2173</ele>
        <time>2015-08-23T09:55:19Z</time>
      </trkpt>
      <trkpt lat="45.37589" lon="6.83185">
        <ele>2174</ele>
        <time>2015-08-23T09:55:22Z</time>
      </trkpt>
      <trkpt lat="45.37591" lon="6.83182">
        <ele>2175</ele>
        <time>2015-08-23T09:55:26Z</time>
      </trkpt>
      <trkpt lat="45.37594" lon="6.8318">
        <ele>2175</ele>
        <time>2015-08-23T09:55:29Z</time>
      </trkpt>
      <trkpt lat="45.37597" lon="6.83179">
        <ele>2174</ele>
        <time>2015-08-23T09:55:31Z</time>
      </trkpt>
      <trkpt lat="45.376" lon="6.83178">
        <ele>2174</ele>
        <time>2015-08-23T09:55:33Z</time>
      </trkpt>
      <trkpt lat="45.37603" lon="6.83177">
        <ele>2173</ele>
        <time>2015-08-23T09:55:36Z</time>
      </trkpt>
      <trkpt lat="45.37606" lon="6.83176">
        <ele>2172</ele>
        <time>2015-08-23T09:55:40Z</time>
      </trkpt>
      <trkpt lat="45.3761" lon="6.83175">
        <ele>2172</ele>
        <time>2015-08-23T09:55:43Z</time>
      </trkpt>
      <trkpt lat="45.37613" lon="6.83175">
        <ele>2171</ele>
        <time>2015-08-23T09:55:46Z</time>
      </trkpt>
      <trkpt lat="45.37616" lon="6.83174">
        <ele>2170</ele>
        <time>2015-08-23T09:55:49Z</time>
      </trkpt>
      <trkpt lat="45.37619" lon="6.83174">
        <ele>2170</ele>
        <time>2015-08-23T09:55:51Z</time>
      </trkpt>
      <trkpt lat="45.37622" lon="6.83174">
        <ele>2170</ele>
        <time>2015-08-23T09:55:53Z</time>
      </trkpt>
      <trkpt lat="45.37625" lon="6.83174">
        <ele>2169</ele>
        <time>2015-08-23T09:55:55Z</time>
      </trkpt>
      <trkpt lat="45.37628" lon="6.83172">
        <ele>2170</ele>
        <time>2015-08-23T09:55:58Z</time>
      </trkpt>
      <trkpt lat="45.37628" lon="6.83168">
        <ele>2170</ele>
        <time>2015-08-23T09:56:02Z</time>
      </trkpt>
      <trkpt lat="45.3763" lon="6.83165">
        <ele>2197</ele>
        <time>2015-08-23T09:56:06Z</time>
      </trkpt>
      <trkpt lat="45.37634" lon="6.83163">
        <ele>2197</ele>
        <time>2015-08-23T09:56:10Z</time>
      </trkpt>
      <trkpt lat="45.37637" lon="6.83161">
        <ele>2197</ele>
        <time>2015-08-23T09:56:13Z</time>
      </trkpt>
      <trkpt lat="45.37639" lon="6.83158">
        <ele>2197</ele>
        <time>2015-08-23T09:56:16Z</time>
      </trkpt>
      <trkpt lat="45.37635" lon="6.83156">
        <ele>2198</ele>
        <time>2015-08-23T09:56:20Z</time>
      </trkpt>
      <trkpt lat="45.37632" lon="6.83157">
        <ele>2198</ele>
        <time>2015-08-23T09:56:22Z</time>
      </trkpt>
      <trkpt lat="45.37629" lon="6.83155">
        <ele>2199</ele>
        <time>2015-08-23T09:56:24Z</time>
      </trkpt>
      <trkpt lat="45.37626" lon="6.83153">
        <ele>2199</ele>
        <time>2015-08-23T09:56:26Z</time>
      </trkpt>
      <trkpt lat="45.37623" lon="6.83154">
        <ele>2199</ele>
        <time>2015-08-23T09:56:28Z</time>
      </trkpt>
      <trkpt lat="45.37619" lon="6.83152">
        <ele>2200</ele>
        <time>2015-08-23T09:56:30Z</time>
      </trkpt>
      <trkpt lat="45.37617" lon="6.83151">
        <ele>2200</ele>
        <time>2015-08-23T09:56:31Z</time>
      </trkpt>
      <trkpt lat="45.37615" lon="6.83149">
        <ele>2200</ele>
        <time>2015-08-23T09:56:32Z</time>
      </trkpt>
      <trkpt lat="45.37612" lon="6.83146">
        <ele>2201</ele>
        <time>2015-08-23T09:56:33Z</time>
      </trkpt>
      <trkpt lat="45.37609" lon="6.83142">
        <ele>2201</ele>
        <time>2015-08-23T09:56:35Z</time>
      </trkpt>
      <trkpt lat="45.37606" lon="6.83139">
        <ele>2202</ele>
        <time>2015-08-23T09:56:37Z</time>
      </trkpt>
      <trkpt lat="45.37603" lon="6.8314">
        <ele>2202</ele>
        <time>2015-08-23T09:56:40Z</time>
      </trkpt>
      <trkpt lat="45.37601" lon="6.83143">
        <ele>2201</ele>
        <time>2015-08-23T09:56:46Z</time>
      </trkpt>
      <trkpt lat="45.37599" lon="6.83141">
        <ele>2201</ele>
        <time>2015-08-23T09:56:50Z</time>
      </trkpt>
      <trkpt lat="45.37596" lon="6.83142">
        <ele>2201</ele>
        <time>2015-08-23T09:56:53Z</time>
      </trkpt>
      <trkpt lat="45.37593" lon="6.83143">
        <ele>2200</ele>
        <time>2015-08-23T09:56:55Z</time>
      </trkpt>
      <trkpt lat="45.3759" lon="6.83144">
        <ele>2200</ele>
        <time>2015-08-23T09:56:57Z</time>
      </trkpt>
      <trkpt lat="45.37586" lon="6.83144">
        <ele>2200</ele>
        <time>2015-08-23T09:56:59Z</time>
      </trkpt>
      <trkpt lat="45.37582" lon="6.83145">
        <ele>2202</ele>
        <time>2015-08-23T09:57:01Z</time>
      </trkpt>
      <trkpt lat="45.37579" lon="6.83146">
        <ele>2202</ele>
        <time>2015-08-23T09:57:03Z</time>
      </trkpt>
      <trkpt lat="45.37575" lon="6.83146">
        <ele>2203</ele>
        <time>2015-08-23T09:57:05Z</time>
      </trkpt>
      <trkpt lat="45.37572" lon="6.83145">
        <ele>2203</ele>
        <time>2015-08-23T09:57:07Z</time>
      </trkpt>
      <trkpt lat="45.37568" lon="6.83143">
        <ele>2205</ele>
        <time>2015-08-23T09:57:09Z</time>
      </trkpt>
      <trkpt lat="45.37564" lon="6.83142">
        <ele>2206</ele>
        <time>2015-08-23T09:57:11Z</time>
      </trkpt>
      <trkpt lat="45.3756" lon="6.83141">
        <ele>2206</ele>
        <time>2015-08-23T09:57:13Z</time>
      </trkpt>
      <trkpt lat="45.37557" lon="6.83139">
        <ele>2207</ele>
        <time>2015-08-23T09:57:16Z</time>
      </trkpt>
      <trkpt lat="45.37554" lon="6.83138">
        <ele>2208</ele>
        <time>2015-08-23T09:57:19Z</time>
      </trkpt>
      <trkpt lat="45.37551" lon="6.83137">
        <ele>2208</ele>
        <time>2015-08-23T09:57:21Z</time>
      </trkpt>
      <trkpt lat="45.37549" lon="6.83133">
        <ele>2209</ele>
        <time>2015-08-23T09:57:24Z</time>
      </trkpt>
      <trkpt lat="45.37546" lon="6.83134">
        <ele>2209</ele>
        <time>2015-08-23T09:57:27Z</time>
      </trkpt>
      <trkpt lat="45.37543" lon="6.83135">
        <ele>2209</ele>
        <time>2015-08-23T09:57:29Z</time>
      </trkpt>
      <trkpt lat="45.37539" lon="6.83135">
        <ele>2209</ele>
        <time>2015-08-23T09:57:32Z</time>
      </trkpt>
      <trkpt lat="45.37537" lon="6.83134">
        <ele>2209</ele>
        <time>2015-08-23T09:57:34Z</time>
      </trkpt>
      <trkpt lat="45.37534" lon="6.83134">
        <ele>2210</ele>
        <time>2015-08-23T09:57:37Z</time>
      </trkpt>
      <trkpt lat="45.37532" lon="6.83131">
        <ele>2210</ele>
        <time>2015-08-23T09:57:41Z</time>
      </trkpt>
      <trkpt lat="45.37531" lon="6.83127">
        <ele>2211</ele>
        <time>2015-08-23T09:57:44Z</time>
      </trkpt>
      <trkpt lat="45.37529" lon="6.83124">
        <ele>2212</ele>
        <time>2015-08-23T09:57:49Z</time>
      </trkpt>
      <trkpt lat="45.37526" lon="6.83123">
        <ele>2213</ele>
        <time>2015-08-23T09:57:55Z</time>
      </trkpt>
      <trkpt lat="45.37523" lon="6.83122">
        <ele>2213</ele>
        <time>2015-08-23T09:57:57Z</time>
      </trkpt>
      <trkpt lat="45.37519" lon="6.83122">
        <ele>2213</ele>
        <time>2015-08-23T09:57:59Z</time>
      </trkpt>
      <trkpt lat="45.37516" lon="6.83122">
        <ele>2214</ele>
        <time>2015-08-23T09:58:01Z</time>
      </trkpt>
      <trkpt lat="45.37513" lon="6.83123">
        <ele>2213</ele>
        <time>2015-08-23T09:58:05Z</time>
      </trkpt>
      <trkpt lat="45.3751" lon="6.83123">
        <ele>2213</ele>
        <time>2015-08-23T09:58:08Z</time>
      </trkpt>
      <trkpt lat="45.37508" lon="6.8312">
        <ele>2214</ele>
        <time>2015-08-23T09:58:14Z</time>
      </trkpt>
      <trkpt lat="45.37504" lon="6.83121">
        <ele>2214</ele>
        <time>2015-08-23T09:58:17Z</time>
      </trkpt>
      <trkpt lat="45.37501" lon="6.83121">
        <ele>2215</ele>
        <time>2015-08-23T09:58:19Z</time>
      </trkpt>
      <trkpt lat="45.37498" lon="6.83119">
        <ele>2209</ele>
        <time>2015-08-23T09:58:21Z</time>
      </trkpt>
      <trkpt lat="45.37496" lon="6.83116">
        <ele>2211</ele>
        <time>2015-08-23T09:58:25Z</time>
      </trkpt>
      <trkpt lat="45.37494" lon="6.83115">
        <ele>2211</ele>
        <time>2015-08-23T09:58:27Z</time>
      </trkpt>
      <trkpt lat="45.37491" lon="6.83112">
        <ele>2212</ele>
        <time>2015-08-23T09:58:30Z</time>
      </trkpt>
      <trkpt lat="45.3749" lon="6.83115">
        <ele>2210</ele>
        <time>2015-08-23T09:58:33Z</time>
      </trkpt>
      <trkpt lat="45.37487" lon="6.83115">
        <ele>2210</ele>
        <time>2015-08-23T09:58:37Z</time>
      </trkpt>
      <trkpt lat="45.37484" lon="6.83114">
        <ele>2210</ele>
        <time>2015-08-23T09:58:40Z</time>
      </trkpt>
      <trkpt lat="45.37481" lon="6.83113">
        <ele>2210</ele>
        <time>2015-08-23T09:58:42Z</time>
      </trkpt>
      <trkpt lat="45.37478" lon="6.83112">
        <ele>2210</ele>
        <time>2015-08-23T09:58:44Z</time>
      </trkpt>
      <trkpt lat="45.37475" lon="6.83109">
        <ele>2210</ele>
        <time>2015-08-23T09:58:48Z</time>
      </trkpt>
      <trkpt lat="45.37473" lon="6.83106">
        <ele>2210</ele>
        <time>2015-08-23T09:58:52Z</time>
      </trkpt>
      <trkpt lat="45.3747" lon="6.83103">
        <ele>2211</ele>
        <time>2015-08-23T09:58:56Z</time>
      </trkpt>
      <trkpt lat="45.37467" lon="6.83105">
        <ele>2209</ele>
        <time>2015-08-23T09:59:00Z</time>
      </trkpt>
      <trkpt lat="45.37464" lon="6.83106">
        <ele>2208</ele>
        <time>2015-08-23T09:59:03Z</time>
      </trkpt>
      <trkpt lat="45.37461" lon="6.83104">
        <ele>2208</ele>
        <time>2015-08-23T09:59:05Z</time>
      </trkpt>
      <trkpt lat="45.37458" lon="6.831">
        <ele>2208</ele>
        <time>2015-08-23T09:59:07Z</time>
      </trkpt>
      <trkpt lat="45.37454" lon="6.83097">
        <ele>2208</ele>
        <time>2015-08-23T09:59:09Z</time>
      </trkpt>
      <trkpt lat="45.37451" lon="6.83097">
        <ele>2208</ele>
        <time>2015-08-23T09:59:12Z</time>
      </trkpt>
      <trkpt lat="45.37447" lon="6.83095">
        <ele>2208</ele>
        <time>2015-08-23T09:59:23Z</time>
      </trkpt>
      <trkpt lat="45.37444" lon="6.83094">
        <ele>2208</ele>
        <time>2015-08-23T09:59:25Z</time>
      </trkpt>
      <trkpt lat="45.37441" lon="6.83092">
        <ele>2208</ele>
        <time>2015-08-23T09:59:27Z</time>
      </trkpt>
      <trkpt lat="45.37438" lon="6.8309">
        <ele>2208</ele>
        <time>2015-08-23T09:59:29Z</time>
      </trkpt>
      <trkpt lat="45.37437" lon="6.83087">
        <ele>2209</ele>
        <time>2015-08-23T09:59:33Z</time>
      </trkpt>
      <trkpt lat="45.37436" lon="6.83082">
        <ele>2231</ele>
        <time>2015-08-23T09:59:35Z</time>
      </trkpt>
      <trkpt lat="45.37437" lon="6.83078">
        <ele>2233</ele>
        <time>2015-08-23T09:59:40Z</time>
      </trkpt>
      <trkpt lat="45.3744" lon="6.83076">
        <ele>2234</ele>
        <time>2015-08-23T09:59:43Z</time>
      </trkpt>
      <trkpt lat="45.37442" lon="6.83074">
        <ele>2236</ele>
        <time>2015-08-23T09:59:47Z</time>
      </trkpt>
      <trkpt lat="45.37442" lon="6.8307">
        <ele>2237</ele>
        <time>2015-08-23T09:59:51Z</time>
      </trkpt>
      <trkpt lat="45.37439" lon="6.83071">
        <ele>2236</ele>
        <time>2015-08-23T09:59:57Z</time>
      </trkpt>
      <trkpt lat="45.37436" lon="6.8307">
        <ele>2235</ele>
        <time>2015-08-23T09:59:59Z</time>
      </trkpt>
      <trkpt lat="45.37433" lon="6.83068">
        <ele>2235</ele>
        <time>2015-08-23T10:00:02Z</time>
      </trkpt>
      <trkpt lat="45.37433" lon="6.83061">
        <ele>2238</ele>
        <time>2015-08-23T10:00:05Z</time>
      </trkpt>
      <trkpt lat="45.37435" lon="6.83056">
        <ele>2241</ele>
        <time>2015-08-23T10:00:08Z</time>
      </trkpt>
      <trkpt lat="45.37437" lon="6.83055">
        <ele>2242</ele>
        <time>2015-08-23T10:00:10Z</time>
      </trkpt>
      <trkpt lat="45.37441" lon="6.83054">
        <ele>2243</ele>
        <time>2015-08-23T10:00:20Z</time>
      </trkpt>
      <trkpt lat="45.37444" lon="6.83053">
        <ele>2244</ele>
        <time>2015-08-23T10:00:31Z</time>
      </trkpt>
      <trkpt lat="45.37447" lon="6.83051">
        <ele>2245</ele>
        <time>2015-08-23T10:00:34Z</time>
      </trkpt>
      <trkpt lat="45.3745" lon="6.83049">
        <ele>2246</ele>
        <time>2015-08-23T10:00:36Z</time>
      </trkpt>
      <trkpt lat="45.37453" lon="6.83047">
        <ele>2247</ele>
        <time>2015-08-23T10:00:39Z</time>
      </trkpt>
      <trkpt lat="45.37455" lon="6.83044">
        <ele>2248</ele>
        <time>2015-08-23T10:00:42Z</time>
      </trkpt>
      <trkpt lat="45.37459" lon="6.83042">
        <ele>2249</ele>
        <time>2015-08-23T10:00:46Z</time>
      </trkpt>
      <trkpt lat="45.37461" lon="6.83041">
        <ele>2249</ele>
        <time>2015-08-23T10:00:48Z</time>
      </trkpt>
      <trkpt lat="45.37464" lon="6.83041">
        <ele>2249</ele>
        <time>2015-08-23T10:00:50Z</time>
      </trkpt>
      <trkpt lat="45.37467" lon="6.8304">
        <ele>2250</ele>
        <time>2015-08-23T10:00:53Z</time>
      </trkpt>
      <trkpt lat="45.37471" lon="6.83038">
        <ele>2250</ele>
        <time>2015-08-23T10:00:56Z</time>
      </trkpt>
      <trkpt lat="45.37474" lon="6.83036">
        <ele>2251</ele>
        <time>2015-08-23T10:00:59Z</time>
      </trkpt>
      <trkpt lat="45.37477" lon="6.83035">
        <ele>2252</ele>
        <time>2015-08-23T10:01:01Z</time>
      </trkpt>
      <trkpt lat="45.3748" lon="6.83034">
        <ele>2252</ele>
        <time>2015-08-23T10:01:03Z</time>
      </trkpt>
      <trkpt lat="45.37483" lon="6.83033">
        <ele>2253</ele>
        <time>2015-08-23T10:01:06Z</time>
      </trkpt>
      <trkpt lat="45.37485" lon="6.83032">
        <ele>2254</ele>
        <time>2015-08-23T10:01:08Z</time>
      </trkpt>
      <trkpt lat="45.37488" lon="6.8303">
        <ele>2254</ele>
        <time>2015-08-23T10:01:10Z</time>
      </trkpt>
      <trkpt lat="45.37491" lon="6.83029">
        <ele>2255</ele>
        <time>2015-08-23T10:01:13Z</time>
      </trkpt>
      <trkpt lat="45.37495" lon="6.83029">
        <ele>2255</ele>
        <time>2015-08-23T10:01:17Z</time>
      </trkpt>
      <trkpt lat="45.37498" lon="6.8303">
        <ele>2255</ele>
        <time>2015-08-23T10:01:20Z</time>
      </trkpt>
      <trkpt lat="45.37501" lon="6.8303">
        <ele>2256</ele>
        <time>2015-08-23T10:01:23Z</time>
      </trkpt>
      <trkpt lat="45.37505" lon="6.83028">
        <ele>2257</ele>
        <time>2015-08-23T10:01:27Z</time>
      </trkpt>
      <trkpt lat="45.37506" lon="6.83025">
        <ele>2258</ele>
        <time>2015-08-23T10:01:30Z</time>
      </trkpt>
      <trkpt lat="45.37507" lon="6.8302">
        <ele>2259</ele>
        <time>2015-08-23T10:01:33Z</time>
      </trkpt>
      <trkpt lat="45.37509" lon="6.83016">
        <ele>2261</ele>
        <time>2015-08-23T10:01:36Z</time>
      </trkpt>
      <trkpt lat="45.37512" lon="6.83014">
        <ele>2261</ele>
        <time>2015-08-23T10:01:38Z</time>
      </trkpt>
      <trkpt lat="45.37515" lon="6.83015">
        <ele>2260</ele>
        <time>2015-08-23T10:01:45Z</time>
      </trkpt>
      <trkpt lat="45.37518" lon="6.83016">
        <ele>2259</ele>
        <time>2015-08-23T10:01:48Z</time>
      </trkpt>
      <trkpt lat="45.37521" lon="6.83017">
        <ele>2258</ele>
        <time>2015-08-23T10:01:52Z</time>
      </trkpt>
      <trkpt lat="45.37521" lon="6.83013">
        <ele>2259</ele>
        <time>2015-08-23T10:02:01Z</time>
      </trkpt>
      <trkpt lat="45.37524" lon="6.83012">
        <ele>2259</ele>
        <time>2015-08-23T10:02:06Z</time>
      </trkpt>
      <trkpt lat="45.37528" lon="6.83013">
        <ele>2258</ele>
        <time>2015-08-23T10:02:08Z</time>
      </trkpt>
      <trkpt lat="45.37531" lon="6.83013">
        <ele>2257</ele>
        <time>2015-08-23T10:02:12Z</time>
      </trkpt>
      <trkpt lat="45.37528" lon="6.8301">
        <ele>2258</ele>
        <time>2015-08-23T10:02:17Z</time>
      </trkpt>
      <trkpt lat="45.37524" lon="6.83012">
        <ele>2259</ele>
        <time>2015-08-23T10:02:20Z</time>
      </trkpt>
      <trkpt lat="45.37521" lon="6.83011">
        <ele>2259</ele>
        <time>2015-08-23T10:02:23Z</time>
      </trkpt>
      <trkpt lat="45.37519" lon="6.83008">
        <ele>2261</ele>
        <time>2015-08-23T10:02:26Z</time>
      </trkpt>
      <trkpt lat="45.37518" lon="6.83003">
        <ele>2262</ele>
        <time>2015-08-23T10:02:29Z</time>
      </trkpt>
      <trkpt lat="45.37521" lon="6.83002">
        <ele>2261</ele>
        <time>2015-08-23T10:02:33Z</time>
      </trkpt>
      <trkpt lat="45.37524" lon="6.82999">
        <ele>2283</ele>
        <time>2015-08-23T10:02:37Z</time>
      </trkpt>
      <trkpt lat="45.37526" lon="6.82999">
        <ele>2284</ele>
        <time>2015-08-23T10:02:41Z</time>
      </trkpt>
      <trkpt lat="45.37529" lon="6.82997">
        <ele>2285</ele>
        <time>2015-08-23T10:02:45Z</time>
      </trkpt>
      <trkpt lat="45.37532" lon="6.82996">
        <ele>2285</ele>
        <time>2015-08-23T10:02:50Z</time>
      </trkpt>
      <trkpt lat="45.37531" lon="6.82992">
        <ele>2285</ele>
        <time>2015-08-23T10:02:57Z</time>
      </trkpt>
      <trkpt lat="45.37532" lon="6.82989">
        <ele>2286</ele>
        <time>2015-08-23T10:03:01Z</time>
      </trkpt>
      <trkpt lat="45.37535" lon="6.82986">
        <ele>2287</ele>
        <time>2015-08-23T10:03:07Z</time>
      </trkpt>
      <trkpt lat="45.37537" lon="6.82984">
        <ele>2287</ele>
        <time>2015-08-23T10:03:13Z</time>
      </trkpt>
      <trkpt lat="45.3754" lon="6.82984">
        <ele>2287</ele>
        <time>2015-08-23T10:03:16Z</time>
      </trkpt>
      <trkpt lat="45.37543" lon="6.82983">
        <ele>2287</ele>
        <time>2015-08-23T10:03:19Z</time>
      </trkpt>
      <trkpt lat="45.37546" lon="6.82983">
        <ele>2287</ele>
        <time>2015-08-23T10:03:22Z</time>
      </trkpt>
      <trkpt lat="45.37549" lon="6.82982">
        <ele>2287</ele>
        <time>2015-08-23T10:03:24Z</time>
      </trkpt>
      <trkpt lat="45.37552" lon="6.8298">
        <ele>2287</ele>
        <time>2015-08-23T10:03:32Z</time>
      </trkpt>
      <trkpt lat="45.37555" lon="6.82978">
        <ele>2287</ele>
        <time>2015-08-23T10:03:48Z</time>
      </trkpt>
      <trkpt lat="45.37558" lon="6.82979">
        <ele>2287</ele>
        <time>2015-08-23T10:03:53Z</time>
      </trkpt>
      <trkpt lat="45.37553" lon="6.8298">
        <ele>2287</ele>
        <time>2015-08-23T10:04:01Z</time>
      </trkpt>
      <trkpt lat="45.37555" lon="6.82977">
        <ele>2288</ele>
        <time>2015-08-23T10:04:12Z</time>
      </trkpt>
      <trkpt lat="45.37553" lon="6.82974">
        <ele>2289</ele>
        <time>2015-08-23T10:04:16Z</time>
      </trkpt>
      <trkpt lat="45.37551" lon="6.82971">
        <ele>2290</ele>
        <time>2015-08-23T10:04:20Z</time>
      </trkpt>
      <trkpt lat="45.37549" lon="6.82964">
        <ele>2292</ele>
        <time>2015-08-23T10:04:27Z</time>
      </trkpt>
      <trkpt lat="45.37547" lon="6.8296">
        <ele>2294</ele>
        <time>2015-08-23T10:04:31Z</time>
      </trkpt>
      <trkpt lat="45.37548" lon="6.82957">
        <ele>2295</ele>
        <time>2015-08-23T10:04:34Z</time>
      </trkpt>
      <trkpt lat="45.3755" lon="6.82955">
        <ele>2295</ele>
        <time>2015-08-23T10:04:36Z</time>
      </trkpt>
      <trkpt lat="45.37553" lon="6.82951">
        <ele>2296</ele>
        <time>2015-08-23T10:04:39Z</time>
      </trkpt>
      <trkpt lat="45.37556" lon="6.82948">
        <ele>2297</ele>
        <time>2015-08-23T10:04:43Z</time>
      </trkpt>
      <trkpt lat="45.3756" lon="6.82948">
        <ele>2298</ele>
        <time>2015-08-23T10:04:49Z</time>
      </trkpt>
      <trkpt lat="45.37563" lon="6.82947">
        <ele>2298</ele>
        <time>2015-08-23T10:04:53Z</time>
      </trkpt>
      <trkpt lat="45.37567" lon="6.82943">
        <ele>2300</ele>
        <time>2015-08-23T10:04:55Z</time>
      </trkpt>
      <trkpt lat="45.3757" lon="6.8294">
        <ele>2302</ele>
        <time>2015-08-23T10:04:58Z</time>
      </trkpt>
      <trkpt lat="45.37573" lon="6.82939">
        <ele>2303</ele>
        <time>2015-08-23T10:05:05Z</time>
      </trkpt>
      <trkpt lat="45.37575" lon="6.82935">
        <ele>2305</ele>
        <time>2015-08-23T10:05:09Z</time>
      </trkpt>
      <trkpt lat="45.37578" lon="6.82932">
        <ele>2307</ele>
        <time>2015-08-23T10:05:12Z</time>
      </trkpt>
      <trkpt lat="45.37582" lon="6.82934">
        <ele>2307</ele>
        <time>2015-08-23T10:05:15Z</time>
      </trkpt>
      <trkpt lat="45.37585" lon="6.82934">
        <ele>2304</ele>
        <time>2015-08-23T10:05:17Z</time>
      </trkpt>
      <trkpt lat="45.37588" lon="6.82932">
        <ele>2305</ele>
        <time>2015-08-23T10:05:20Z</time>
      </trkpt>
      <trkpt lat="45.3759" lon="6.8293">
        <ele>2306</ele>
        <time>2015-08-23T10:05:24Z</time>
      </trkpt>
      <trkpt lat="45.37593" lon="6.82928">
        <ele>2306</ele>
        <time>2015-08-23T10:05:31Z</time>
      </trkpt>
      <trkpt lat="45.37596" lon="6.82925">
        <ele>2306</ele>
        <time>2015-08-23T10:05:37Z</time>
      </trkpt>
      <trkpt lat="45.37597" lon="6.8292">
        <ele>2307</ele>
        <time>2015-08-23T10:05:39Z</time>
      </trkpt>
      <trkpt lat="45.37598" lon="6.82917">
        <ele>2307</ele>
        <time>2015-08-23T10:05:43Z</time>
      </trkpt>
      <trkpt lat="45.37601" lon="6.82914">
        <ele>2327</ele>
        <time>2015-08-23T10:05:47Z</time>
      </trkpt>
      <trkpt lat="45.37605" lon="6.82914">
        <ele>2328</ele>
        <time>2015-08-23T10:05:52Z</time>
      </trkpt>
      <trkpt lat="45.37609" lon="6.82914">
        <ele>2328</ele>
        <time>2015-08-23T10:05:55Z</time>
      </trkpt>
      <trkpt lat="45.37612" lon="6.82914">
        <ele>2328</ele>
        <time>2015-08-23T10:05:57Z</time>
      </trkpt>
      <trkpt lat="45.37615" lon="6.82914">
        <ele>2329</ele>
        <time>2015-08-23T10:05:59Z</time>
      </trkpt>
      <trkpt lat="45.37618" lon="6.82912">
        <ele>2329</ele>
        <time>2015-08-23T10:06:03Z</time>
      </trkpt>
      <trkpt lat="45.37621" lon="6.82909">
        <ele>2329</ele>
        <time>2015-08-23T10:06:05Z</time>
      </trkpt>
      <trkpt lat="45.37624" lon="6.82908">
        <ele>2329</ele>
        <time>2015-08-23T10:06:08Z</time>
      </trkpt>
      <trkpt lat="45.37628" lon="6.82908">
        <ele>2329</ele>
        <time>2015-08-23T10:06:11Z</time>
      </trkpt>
      <trkpt lat="45.37631" lon="6.82907">
        <ele>2329</ele>
        <time>2015-08-23T10:06:14Z</time>
      </trkpt>
      <trkpt lat="45.37633" lon="6.82904">
        <ele>2329</ele>
        <time>2015-08-23T10:06:17Z</time>
      </trkpt>
      <trkpt lat="45.37636" lon="6.82903">
        <ele>2329</ele>
        <time>2015-08-23T10:06:19Z</time>
      </trkpt>
      <trkpt lat="45.37639" lon="6.82902">
        <ele>2329</ele>
        <time>2015-08-23T10:06:21Z</time>
      </trkpt>
      <trkpt lat="45.37642" lon="6.82903">
        <ele>2328</ele>
        <time>2015-08-23T10:06:31Z</time>
      </trkpt>
      <trkpt lat="45.37644" lon="6.829">
        <ele>2329</ele>
        <time>2015-08-23T10:06:35Z</time>
      </trkpt>
      <trkpt lat="45.37646" lon="6.82896">
        <ele>2329</ele>
        <time>2015-08-23T10:06:37Z</time>
      </trkpt>
      <trkpt lat="45.37648" lon="6.82894">
        <ele>2330</ele>
        <time>2015-08-23T10:06:39Z</time>
      </trkpt>
      <trkpt lat="45.37648" lon="6.82889">
        <ele>2331</ele>
        <time>2015-08-23T10:06:43Z</time>
      </trkpt>
      <trkpt lat="45.3765" lon="6.82886">
        <ele>2332</ele>
        <time>2015-08-23T10:06:47Z</time>
      </trkpt>
      <trkpt lat="45.37651" lon="6.82883">
        <ele>2333</ele>
        <time>2015-08-23T10:06:50Z</time>
      </trkpt>
      <trkpt lat="45.37654" lon="6.8288">
        <ele>2334</ele>
        <time>2015-08-23T10:06:53Z</time>
      </trkpt>
      <trkpt lat="45.37651" lon="6.8288">
        <ele>2334</ele>
        <time>2015-08-23T10:07:01Z</time>
      </trkpt>
      <trkpt lat="45.37647" lon="6.82882">
        <ele>2334</ele>
        <time>2015-08-23T10:07:03Z</time>
      </trkpt>
      <trkpt lat="45.37644" lon="6.82883">
        <ele>2334</ele>
        <time>2015-08-23T10:07:05Z</time>
      </trkpt>
      <trkpt lat="45.3764" lon="6.82883">
        <ele>2334</ele>
        <time>2015-08-23T10:07:07Z</time>
      </trkpt>
      <trkpt lat="45.37637" lon="6.82882">
        <ele>2334</ele>
        <time>2015-08-23T10:07:09Z</time>
      </trkpt>
      <trkpt lat="45.37634" lon="6.82881">
        <ele>2334</ele>
        <time>2015-08-23T10:07:11Z</time>
      </trkpt>
      <trkpt lat="45.37632" lon="6.82877">
        <ele>2335</ele>
        <time>2015-08-23T10:07:14Z</time>
      </trkpt>
      <trkpt lat="45.37634" lon="6.82873">
        <ele>2336</ele>
        <time>2015-08-23T10:07:17Z</time>
      </trkpt>
      <trkpt lat="45.37636" lon="6.8287">
        <ele>2337</ele>
        <time>2015-08-23T10:07:20Z</time>
      </trkpt>
      <trkpt lat="45.37639" lon="6.82867">
        <ele>2338</ele>
        <time>2015-08-23T10:07:23Z</time>
      </trkpt>
      <trkpt lat="45.37641" lon="6.82864">
        <ele>2339</ele>
        <time>2015-08-23T10:07:27Z</time>
      </trkpt>
      <trkpt lat="45.37643" lon="6.8286">
        <ele>2340</ele>
        <time>2015-08-23T10:07:30Z</time>
      </trkpt>
      <trkpt lat="45.37645" lon="6.82857">
        <ele>2342</ele>
        <time>2015-08-23T10:07:33Z</time>
      </trkpt>
      <trkpt lat="45.37647" lon="6.82853">
        <ele>2343</ele>
        <time>2015-08-23T10:07:36Z</time>
      </trkpt>
      <trkpt lat="45.3765" lon="6.8285">
        <ele>2345</ele>
        <time>2015-08-23T10:07:39Z</time>
      </trkpt>
      <trkpt lat="45.37652" lon="6.82848">
        <ele>2346</ele>
        <time>2015-08-23T10:07:42Z</time>
      </trkpt>
      <trkpt lat="45.37655" lon="6.82848">
        <ele>2347</ele>
        <time>2015-08-23T10:07:45Z</time>
      </trkpt>
      <trkpt lat="45.37658" lon="6.82845">
        <ele>2349</ele>
        <time>2015-08-23T10:07:48Z</time>
      </trkpt>
      <trkpt lat="45.37659" lon="6.82842">
        <ele>2351</ele>
        <time>2015-08-23T10:07:51Z</time>
      </trkpt>
      <trkpt lat="45.37657" lon="6.82838">
        <ele>2352</ele>
        <time>2015-08-23T10:07:55Z</time>
      </trkpt>
      <trkpt lat="45.37655" lon="6.82838">
        <ele>2350</ele>
        <time>2015-08-23T10:07:58Z</time>
      </trkpt>
      <trkpt lat="45.37656" lon="6.82834">
        <ele>2352</ele>
        <time>2015-08-23T10:08:03Z</time>
      </trkpt>
      <trkpt lat="45.37659" lon="6.82836">
        <ele>2353</ele>
        <time>2015-08-23T10:08:08Z</time>
      </trkpt>
      <trkpt lat="45.3766" lon="6.8284">
        <ele>2352</ele>
        <time>2015-08-23T10:08:11Z</time>
      </trkpt>
      <trkpt lat="45.37663" lon="6.8284">
        <ele>2353</ele>
        <time>2015-08-23T10:08:15Z</time>
      </trkpt>
      <trkpt lat="45.37666" lon="6.82837">
        <ele>2356</ele>
        <time>2015-08-23T10:08:18Z</time>
      </trkpt>
      <trkpt lat="45.37671" lon="6.82834">
        <ele>2357</ele>
        <time>2015-08-23T10:08:21Z</time>
      </trkpt>
      <trkpt lat="45.37674" lon="6.82832">
        <ele>2364</ele>
        <time>2015-08-23T10:08:24Z</time>
      </trkpt>
      <trkpt lat="45.37677" lon="6.82831">
        <ele>2365</ele>
        <time>2015-08-23T10:08:28Z</time>
      </trkpt>
      <trkpt lat="45.37679" lon="6.82829">
        <ele>2366</ele>
        <time>2015-08-23T10:08:30Z</time>
      </trkpt>
      <trkpt lat="45.37684" lon="6.8283">
        <ele>2367</ele>
        <time>2015-08-23T10:08:34Z</time>
      </trkpt>
      <trkpt lat="45.37687" lon="6.82831">
        <ele>2367</ele>
        <time>2015-08-23T10:08:36Z</time>
      </trkpt>
      <trkpt lat="45.3769" lon="6.82831">
        <ele>2368</ele>
        <time>2015-08-23T10:08:38Z</time>
      </trkpt>
      <trkpt lat="45.37692" lon="6.82829">
        <ele>2368</ele>
        <time>2015-08-23T10:08:41Z</time>
      </trkpt>
      <trkpt lat="45.37696" lon="6.82826">
        <ele>2369</ele>
        <time>2015-08-23T10:08:44Z</time>
      </trkpt>
      <trkpt lat="45.37698" lon="6.82824">
        <ele>2369</ele>
        <time>2015-08-23T10:08:48Z</time>
      </trkpt>
      <trkpt lat="45.377" lon="6.82821">
        <ele>2370</ele>
        <time>2015-08-23T10:08:51Z</time>
      </trkpt>
      <trkpt lat="45.37703" lon="6.82821">
        <ele>2370</ele>
        <time>2015-08-23T10:08:54Z</time>
      </trkpt>
      <trkpt lat="45.37708" lon="6.82822">
        <ele>2370</ele>
        <time>2015-08-23T10:08:55Z</time>
      </trkpt>
      <trkpt lat="45.37711" lon="6.82822">
        <ele>2370</ele>
        <time>2015-08-23T10:08:57Z</time>
      </trkpt>
      <trkpt lat="45.37713" lon="6.82817">
        <ele>2371</ele>
        <time>2015-08-23T10:09:05Z</time>
      </trkpt>
      <trkpt lat="45.37715" lon="6.82813">
        <ele>2371</ele>
        <time>2015-08-23T10:09:08Z</time>
      </trkpt>
      <trkpt lat="45.37716" lon="6.8281">
        <ele>2372</ele>
        <time>2015-08-23T10:09:11Z</time>
      </trkpt>
      <trkpt lat="45.37718" lon="6.82807">
        <ele>2372</ele>
        <time>2015-08-23T10:09:14Z</time>
      </trkpt>
      <trkpt lat="45.37721" lon="6.82804">
        <ele>2373</ele>
        <time>2015-08-23T10:09:18Z</time>
      </trkpt>
      <trkpt lat="45.37724" lon="6.82802">
        <ele>2373</ele>
        <time>2015-08-23T10:09:21Z</time>
      </trkpt>
      <trkpt lat="45.37726" lon="6.828">
        <ele>2373</ele>
        <time>2015-08-23T10:09:23Z</time>
      </trkpt>
      <trkpt lat="45.37729" lon="6.82798">
        <ele>2374</ele>
        <time>2015-08-23T10:09:28Z</time>
      </trkpt>
      <trkpt lat="45.37731" lon="6.82794">
        <ele>2374</ele>
        <time>2015-08-23T10:09:33Z</time>
      </trkpt>
      <trkpt lat="45.37734" lon="6.82792">
        <ele>2375</ele>
        <time>2015-08-23T10:09:35Z</time>
      </trkpt>
      <trkpt lat="45.37737" lon="6.82791">
        <ele>2375</ele>
        <time>2015-08-23T10:09:37Z</time>
      </trkpt>
      <trkpt lat="45.3774" lon="6.82789">
        <ele>2376</ele>
        <time>2015-08-23T10:09:40Z</time>
      </trkpt>
      <trkpt lat="45.37742" lon="6.82789">
        <ele>2376</ele>
        <time>2015-08-23T10:09:44Z</time>
      </trkpt>
      <trkpt lat="45.37747" lon="6.82786">
        <ele>2377</ele>
        <time>2015-08-23T10:09:47Z</time>
      </trkpt>
      <trkpt lat="45.37751" lon="6.82787">
        <ele>2380</ele>
        <time>2015-08-23T10:09:50Z</time>
      </trkpt>
      <trkpt lat="45.37755" lon="6.8279">
        <ele>2379</ele>
        <time>2015-08-23T10:09:52Z</time>
      </trkpt>
      <trkpt lat="45.37759" lon="6.82793">
        <ele>2378</ele>
        <time>2015-08-23T10:09:53Z</time>
      </trkpt>
      <trkpt lat="45.37762" lon="6.82794">
        <ele>2378</ele>
        <time>2015-08-23T10:09:55Z</time>
      </trkpt>
      <trkpt lat="45.37765" lon="6.82794">
        <ele>2378</ele>
        <time>2015-08-23T10:09:57Z</time>
      </trkpt>
      <trkpt lat="45.37768" lon="6.82794">
        <ele>2379</ele>
        <time>2015-08-23T10:09:59Z</time>
      </trkpt>
      <trkpt lat="45.37774" lon="6.82794">
        <ele>2379</ele>
        <time>2015-08-23T10:10:01Z</time>
      </trkpt>
      <trkpt lat="45.37779" lon="6.82793">
        <ele>2379</ele>
        <time>2015-08-23T10:10:03Z</time>
      </trkpt>
      <trkpt lat="45.37784" lon="6.82792">
        <ele>2379</ele>
        <time>2015-08-23T10:10:05Z</time>
      </trkpt>
      <trkpt lat="45.37787" lon="6.82791">
        <ele>2379</ele>
        <time>2015-08-23T10:10:06Z</time>
      </trkpt>
      <trkpt lat="45.3779" lon="6.8279">
        <ele>2380</ele>
        <time>2015-08-23T10:10:07Z</time>
      </trkpt>
      <trkpt lat="45.37793" lon="6.8279">
        <ele>2380</ele>
        <time>2015-08-23T10:10:08Z</time>
      </trkpt>
      <trkpt lat="45.37799" lon="6.82789">
        <ele>2380</ele>
        <time>2015-08-23T10:10:11Z</time>
      </trkpt>
      <trkpt lat="45.37802" lon="6.82787">
        <ele>2381</ele>
        <time>2015-08-23T10:10:12Z</time>
      </trkpt>
      <trkpt lat="45.37803" lon="6.82783">
        <ele>2382</ele>
        <time>2015-08-23T10:10:17Z</time>
      </trkpt>
      <trkpt lat="45.37807" lon="6.82783">
        <ele>2382</ele>
        <time>2015-08-23T10:10:18Z</time>
      </trkpt>
      <trkpt lat="45.3781" lon="6.82781">
        <ele>2382</ele>
        <time>2015-08-23T10:10:20Z</time>
      </trkpt>
      <trkpt lat="45.37812" lon="6.82783">
        <ele>2382</ele>
        <time>2015-08-23T10:10:23Z</time>
      </trkpt>
      <trkpt lat="45.37811" lon="6.82779">
        <ele>2383</ele>
        <time>2015-08-23T10:10:31Z</time>
      </trkpt>
      <trkpt lat="45.3781" lon="6.82774">
        <ele>2384</ele>
        <time>2015-08-23T10:10:34Z</time>
      </trkpt>
      <trkpt lat="45.37812" lon="6.82777">
        <ele>2383</ele>
        <time>2015-08-23T10:10:37Z</time>
      </trkpt>
      <trkpt lat="45.37816" lon="6.82777">
        <ele>2384</ele>
        <time>2015-08-23T10:10:39Z</time>
      </trkpt>
      <trkpt lat="45.3782" lon="6.82776">
        <ele>2384</ele>
        <time>2015-08-23T10:10:41Z</time>
      </trkpt>
      <trkpt lat="45.37826" lon="6.82775">
        <ele>2385</ele>
        <time>2015-08-23T10:10:43Z</time>
      </trkpt>
      <trkpt lat="45.37829" lon="6.82774">
        <ele>2385</ele>
        <time>2015-08-23T10:10:44Z</time>
      </trkpt>
      <trkpt lat="45.37835" lon="6.82774">
        <ele>2388</ele>
        <time>2015-08-23T10:10:46Z</time>
      </trkpt>
      <trkpt lat="45.3784" lon="6.82775">
        <ele>2388</ele>
        <time>2015-08-23T10:10:48Z</time>
      </trkpt>
      <trkpt lat="45.37842" lon="6.82777">
        <ele>2387</ele>
        <time>2015-08-23T10:10:50Z</time>
      </trkpt>
      <trkpt lat="45.37846" lon="6.82777">
        <ele>2387</ele>
        <time>2015-08-23T10:10:54Z</time>
      </trkpt>
      <trkpt lat="45.37846" lon="6.82772">
        <ele>2388</ele>
        <time>2015-08-23T10:10:56Z</time>
      </trkpt>
      <trkpt lat="45.37849" lon="6.82769">
        <ele>2389</ele>
        <time>2015-08-23T10:10:58Z</time>
      </trkpt>
      <trkpt lat="45.37854" lon="6.82766">
        <ele>2389</ele>
        <time>2015-08-23T10:11:00Z</time>
      </trkpt>
      <trkpt lat="45.37857" lon="6.82764">
        <ele>2389</ele>
        <time>2015-08-23T10:11:02Z</time>
      </trkpt>
      <trkpt lat="45.37859" lon="6.8276">
        <ele>2389</ele>
        <time>2015-08-23T10:11:05Z</time>
      </trkpt>
      <trkpt lat="45.37862" lon="6.82757">
        <ele>2389</ele>
        <time>2015-08-23T10:11:09Z</time>
      </trkpt>
      <trkpt lat="45.37865" lon="6.82755">
        <ele>2389</ele>
        <time>2015-08-23T10:11:11Z</time>
      </trkpt>
      <trkpt lat="45.37868" lon="6.82753">
        <ele>2389</ele>
        <time>2015-08-23T10:11:13Z</time>
      </trkpt>
      <trkpt lat="45.37872" lon="6.82749">
        <ele>2407</ele>
        <time>2015-08-23T10:11:15Z</time>
      </trkpt>
      <trkpt lat="45.37875" lon="6.82746">
        <ele>2408</ele>
        <time>2015-08-23T10:11:17Z</time>
      </trkpt>
      <trkpt lat="45.37877" lon="6.82742">
        <ele>2408</ele>
        <time>2015-08-23T10:11:19Z</time>
      </trkpt>
      <trkpt lat="45.37879" lon="6.82738">
        <ele>2408</ele>
        <time>2015-08-23T10:11:21Z</time>
      </trkpt>
      <trkpt lat="45.37882" lon="6.82738">
        <ele>2408</ele>
        <time>2015-08-23T10:11:25Z</time>
      </trkpt>
      <trkpt lat="45.37885" lon="6.82738">
        <ele>2408</ele>
        <time>2015-08-23T10:11:27Z</time>
      </trkpt>
      <trkpt lat="45.37888" lon="6.82738">
        <ele>2408</ele>
        <time>2015-08-23T10:11:30Z</time>
      </trkpt>
      <trkpt lat="45.37886" lon="6.82734">
        <ele>2409</ele>
        <time>2015-08-23T10:11:35Z</time>
      </trkpt>
      <trkpt lat="45.37887" lon="6.8273">
        <ele>2409</ele>
        <time>2015-08-23T10:11:38Z</time>
      </trkpt>
      <trkpt lat="45.37888" lon="6.82725">
        <ele>2410</ele>
        <time>2015-08-23T10:11:41Z</time>
      </trkpt>
      <trkpt lat="45.3789" lon="6.82721">
        <ele>2411</ele>
        <time>2015-08-23T10:11:45Z</time>
      </trkpt>
      <trkpt lat="45.37893" lon="6.8272">
        <ele>2411</ele>
        <time>2015-08-23T10:11:47Z</time>
      </trkpt>
      <trkpt lat="45.37897" lon="6.82719">
        <ele>2411</ele>
        <time>2015-08-23T10:11:49Z</time>
      </trkpt>
      <trkpt lat="45.37902" lon="6.82717">
        <ele>2411</ele>
        <time>2015-08-23T10:11:51Z</time>
      </trkpt>
      <trkpt lat="45.37905" lon="6.82715">
        <ele>2411</ele>
        <time>2015-08-23T10:11:53Z</time>
      </trkpt>
      <trkpt lat="45.37908" lon="6.82716">
        <ele>2411</ele>
        <time>2015-08-23T10:11:56Z</time>
      </trkpt>
      <trkpt lat="45.37911" lon="6.82713">
        <ele>2412</ele>
        <time>2015-08-23T10:12:02Z</time>
      </trkpt>
      <trkpt lat="45.37915" lon="6.8271">
        <ele>2412</ele>
        <time>2015-08-23T10:12:04Z</time>
      </trkpt>
      <trkpt lat="45.37918" lon="6.82708">
        <ele>2417</ele>
        <time>2015-08-23T10:12:06Z</time>
      </trkpt>
      <trkpt lat="45.37921" lon="6.82708">
        <ele>2417</ele>
        <time>2015-08-23T10:12:10Z</time>
      </trkpt>
      <trkpt lat="45.37924" lon="6.82709">
        <ele>2417</ele>
        <time>2015-08-23T10:12:16Z</time>
      </trkpt>
      <trkpt lat="45.37927" lon="6.82709">
        <ele>2417</ele>
        <time>2015-08-23T10:12:19Z</time>
      </trkpt>
      <trkpt lat="45.3793" lon="6.8271">
        <ele>2417</ele>
        <time>2015-08-23T10:12:23Z</time>
      </trkpt>
      <trkpt lat="45.37934" lon="6.82711">
        <ele>2417</ele>
        <time>2015-08-23T10:12:25Z</time>
      </trkpt>
      <trkpt lat="45.37937" lon="6.82711">
        <ele>2417</ele>
        <time>2015-08-23T10:12:27Z</time>
      </trkpt>
      <trkpt lat="45.3794" lon="6.82709">
        <ele>2417</ele>
        <time>2015-08-23T10:12:30Z</time>
      </trkpt>
      <trkpt lat="45.37942" lon="6.8271">
        <ele>2417</ele>
        <time>2015-08-23T10:12:37Z</time>
      </trkpt>
      <trkpt lat="45.37945" lon="6.82712">
        <ele>2417</ele>
        <time>2015-08-23T10:12:40Z</time>
      </trkpt>
      <trkpt lat="45.37949" lon="6.82712">
        <ele>2418</ele>
        <time>2015-08-23T10:12:42Z</time>
      </trkpt>
      <trkpt lat="45.37952" lon="6.82712">
        <ele>2418</ele>
        <time>2015-08-23T10:12:45Z</time>
      </trkpt>
      <trkpt lat="45.37955" lon="6.82715">
        <ele>2418</ele>
        <time>2015-08-23T10:12:48Z</time>
      </trkpt>
      <trkpt lat="45.37957" lon="6.82717">
        <ele>2417</ele>
        <time>2015-08-23T10:12:50Z</time>
      </trkpt>
      <trkpt lat="45.37959" lon="6.82723">
        <ele>2417</ele>
        <time>2015-08-23T10:12:53Z</time>
      </trkpt>
      <trkpt lat="45.37959" lon="6.82728">
        <ele>2416</ele>
        <time>2015-08-23T10:12:56Z</time>
      </trkpt>
      <trkpt lat="45.37961" lon="6.82733">
        <ele>2415</ele>
        <time>2015-08-23T10:12:57Z</time>
      </trkpt>
      <trkpt lat="45.37962" lon="6.82738">
        <ele>2415</ele>
        <time>2015-08-23T10:12:59Z</time>
      </trkpt>
      <trkpt lat="45.37965" lon="6.82744">
        <ele>2415</ele>
        <time>2015-08-23T10:13:07Z</time>
      </trkpt>
      <trkpt lat="45.37967" lon="6.82746">
        <ele>2415</ele>
        <time>2015-08-23T10:13:09Z</time>
      </trkpt>
      <trkpt lat="45.37969" lon="6.82749">
        <ele>2415</ele>
        <time>2015-08-23T10:13:11Z</time>
      </trkpt>
      <trkpt lat="45.37972" lon="6.8275">
        <ele>2415</ele>
        <time>2015-08-23T10:13:14Z</time>
      </trkpt>
      <trkpt lat="45.37976" lon="6.8275">
        <ele>2402</ele>
        <time>2015-08-23T10:13:17Z</time>
      </trkpt>
      <trkpt lat="45.37979" lon="6.82752">
        <ele>2402</ele>
        <time>2015-08-23T10:13:20Z</time>
      </trkpt>
      <trkpt lat="45.37982" lon="6.82753">
        <ele>2403</ele>
        <time>2015-08-23T10:13:22Z</time>
      </trkpt>
      <trkpt lat="45.37985" lon="6.82753">
        <ele>2404</ele>
        <time>2015-08-23T10:13:24Z</time>
      </trkpt>
      <trkpt lat="45.37989" lon="6.82752">
        <ele>2406</ele>
        <time>2015-08-23T10:13:26Z</time>
      </trkpt>
      <trkpt lat="45.37993" lon="6.8275">
        <ele>2408</ele>
        <time>2015-08-23T10:13:28Z</time>
      </trkpt>
      <trkpt lat="45.37998" lon="6.82749">
        <ele>2413</ele>
        <time>2015-08-23T10:13:30Z</time>
      </trkpt>
      <trkpt lat="45.38002" lon="6.82748">
        <ele>2413</ele>
        <time>2015-08-23T10:13:32Z</time>
      </trkpt>
      <trkpt lat="45.38006" lon="6.82745">
        <ele>2415</ele>
        <time>2015-08-23T10:13:34Z</time>
      </trkpt>
      <trkpt lat="45.3801" lon="6.82743">
        <ele>2416</ele>
        <time>2015-08-23T10:13:36Z</time>
      </trkpt>
      <trkpt lat="45.38013" lon="6.82741">
        <ele>2416</ele>
        <time>2015-08-23T10:13:38Z</time>
      </trkpt>
      <trkpt lat="45.38016" lon="6.8274">
        <ele>2417</ele>
        <time>2015-08-23T10:13:40Z</time>
      </trkpt>
      <trkpt lat="45.3802" lon="6.82738">
        <ele>2417</ele>
        <time>2015-08-23T10:13:42Z</time>
      </trkpt>
      <trkpt lat="45.38024" lon="6.82736">
        <ele>2418</ele>
        <time>2015-08-23T10:13:44Z</time>
      </trkpt>
      <trkpt lat="45.38029" lon="6.82733">
        <ele>2418</ele>
        <time>2015-08-23T10:13:46Z</time>
      </trkpt>
      <trkpt lat="45.38033" lon="6.82731">
        <ele>2419</ele>
        <time>2015-08-23T10:13:48Z</time>
      </trkpt>
      <trkpt lat="45.38037" lon="6.82729">
        <ele>2419</ele>
        <time>2015-08-23T10:13:50Z</time>
      </trkpt>
      <trkpt lat="45.38041" lon="6.82727">
        <ele>2419</ele>
        <time>2015-08-23T10:13:52Z</time>
      </trkpt>
      <trkpt lat="45.38046" lon="6.82727">
        <ele>2419</ele>
        <time>2015-08-23T10:13:54Z</time>
      </trkpt>
      <trkpt lat="45.3805" lon="6.82726">
        <ele>2419</ele>
        <time>2015-08-23T10:13:56Z</time>
      </trkpt>
      <trkpt lat="45.38054" lon="6.82725">
        <ele>2418</ele>
        <time>2015-08-23T10:13:58Z</time>
      </trkpt>
      <trkpt lat="45.38058" lon="6.82724">
        <ele>2418</ele>
        <time>2015-08-23T10:14:00Z</time>
      </trkpt>
      <trkpt lat="45.38062" lon="6.82723">
        <ele>2418</ele>
        <time>2015-08-23T10:14:02Z</time>
      </trkpt>
      <trkpt lat="45.38065" lon="6.82722">
        <ele>2418</ele>
        <time>2015-08-23T10:14:04Z</time>
      </trkpt>
      <trkpt lat="45.38068" lon="6.82719">
        <ele>2419</ele>
        <time>2015-08-23T10:14:07Z</time>
      </trkpt>
      <trkpt lat="45.38072" lon="6.82717">
        <ele>2419</ele>
        <time>2015-08-23T10:14:09Z</time>
      </trkpt>
      <trkpt lat="45.38075" lon="6.82716">
        <ele>2419</ele>
        <time>2015-08-23T10:14:12Z</time>
      </trkpt>
      <trkpt lat="45.38079" lon="6.82713">
        <ele>2419</ele>
        <time>2015-08-23T10:14:15Z</time>
      </trkpt>
      <trkpt lat="45.38082" lon="6.82711">
        <ele>2420</ele>
        <time>2015-08-23T10:14:17Z</time>
      </trkpt>
      <trkpt lat="45.38084" lon="6.82707">
        <ele>2417</ele>
        <time>2015-08-23T10:14:20Z</time>
      </trkpt>
      <trkpt lat="45.38086" lon="6.82702">
        <ele>2418</ele>
        <time>2015-08-23T10:14:24Z</time>
      </trkpt>
      <trkpt lat="45.38089" lon="6.82698">
        <ele>2418</ele>
        <time>2015-08-23T10:14:25Z</time>
      </trkpt>
      <trkpt lat="45.38092" lon="6.82695">
        <ele>2419</ele>
        <time>2015-08-23T10:14:27Z</time>
      </trkpt>
      <trkpt lat="45.38095" lon="6.82692">
        <ele>2419</ele>
        <time>2015-08-23T10:14:29Z</time>
      </trkpt>
      <trkpt lat="45.38095" lon="6.82688">
        <ele>2420</ele>
        <time>2015-08-23T10:14:35Z</time>
      </trkpt>
      <trkpt lat="45.38093" lon="6.82683">
        <ele>2422</ele>
        <time>2015-08-23T10:14:37Z</time>
      </trkpt>
      <trkpt lat="45.38094" lon="6.82677">
        <ele>2423</ele>
        <time>2015-08-23T10:14:39Z</time>
      </trkpt>
      <trkpt lat="45.38096" lon="6.82673">
        <ele>2424</ele>
        <time>2015-08-23T10:14:42Z</time>
      </trkpt>
      <trkpt lat="45.38097" lon="6.8267">
        <ele>2424</ele>
        <time>2015-08-23T10:14:43Z</time>
      </trkpt>
      <trkpt lat="45.38095" lon="6.82667">
        <ele>2425</ele>
        <time>2015-08-23T10:14:55Z</time>
      </trkpt>
      <trkpt lat="45.38094" lon="6.82663">
        <ele>2431</ele>
        <time>2015-08-23T10:15:03Z</time>
      </trkpt>
      <trkpt lat="45.38093" lon="6.82659">
        <ele>2432</ele>
        <time>2015-08-23T10:15:07Z</time>
      </trkpt>
      <trkpt lat="45.38094" lon="6.82652">
        <ele>2432</ele>
        <time>2015-08-23T10:15:10Z</time>
      </trkpt>
      <trkpt lat="45.38094" lon="6.82648">
        <ele>2433</ele>
        <time>2015-08-23T10:15:12Z</time>
      </trkpt>
      <trkpt lat="45.38096" lon="6.82643">
        <ele>2433</ele>
        <time>2015-08-23T10:15:15Z</time>
      </trkpt>
      <trkpt lat="45.38097" lon="6.82637">
        <ele>2434</ele>
        <time>2015-08-23T10:15:16Z</time>
      </trkpt>
      <trkpt lat="45.38098" lon="6.82631">
        <ele>2435</ele>
        <time>2015-08-23T10:15:18Z</time>
      </trkpt>
      <trkpt lat="45.381" lon="6.82625">
        <ele>2436</ele>
        <time>2015-08-23T10:15:20Z</time>
      </trkpt>
      <trkpt lat="45.38102" lon="6.82621">
        <ele>2436</ele>
        <time>2015-08-23T10:15:21Z</time>
      </trkpt>
      <trkpt lat="45.38103" lon="6.82615">
        <ele>2437</ele>
        <time>2015-08-23T10:15:23Z</time>
      </trkpt>
      <trkpt lat="45.38104" lon="6.82609">
        <ele>2438</ele>
        <time>2015-08-23T10:15:25Z</time>
      </trkpt>
      <trkpt lat="45.38106" lon="6.82603">
        <ele>2438</ele>
        <time>2015-08-23T10:15:27Z</time>
      </trkpt>
      <trkpt lat="45.38106" lon="6.82597">
        <ele>2439</ele>
        <time>2015-08-23T10:15:31Z</time>
      </trkpt>
      <trkpt lat="45.38104" lon="6.82594">
        <ele>2440</ele>
        <time>2015-08-23T10:15:34Z</time>
      </trkpt>
      <trkpt lat="45.38106" lon="6.82591">
        <ele>2440</ele>
        <time>2015-08-23T10:15:36Z</time>
      </trkpt>
      <trkpt lat="45.3811" lon="6.8259">
        <ele>2439</ele>
        <time>2015-08-23T10:15:38Z</time>
      </trkpt>
      <trkpt lat="45.38114" lon="6.82586">
        <ele>2439</ele>
        <time>2015-08-23T10:15:39Z</time>
      </trkpt>
      <trkpt lat="45.38114" lon="6.82581">
        <ele>2446</ele>
        <time>2015-08-23T10:15:45Z</time>
      </trkpt>
      <trkpt lat="45.38115" lon="6.82577">
        <ele>2446</ele>
        <time>2015-08-23T10:15:47Z</time>
      </trkpt>
      <trkpt lat="45.38115" lon="6.82572">
        <ele>2446</ele>
        <time>2015-08-23T10:15:49Z</time>
      </trkpt>
      <trkpt lat="45.38116" lon="6.82567">
        <ele>2446</ele>
        <time>2015-08-23T10:15:51Z</time>
      </trkpt>
      <trkpt lat="45.38119" lon="6.82562">
        <ele>2446</ele>
        <time>2015-08-23T10:15:53Z</time>
      </trkpt>
      <trkpt lat="45.38121" lon="6.82557">
        <ele>2445</ele>
        <time>2015-08-23T10:15:55Z</time>
      </trkpt>
      <trkpt lat="45.38125" lon="6.82552">
        <ele>2445</ele>
        <time>2015-08-23T10:15:57Z</time>
      </trkpt>
      <trkpt lat="45.38129" lon="6.82548">
        <ele>2445</ele>
        <time>2015-08-23T10:15:59Z</time>
      </trkpt>
      <trkpt lat="45.3813" lon="6.82543">
        <ele>2445</ele>
        <time>2015-08-23T10:16:01Z</time>
      </trkpt>
      <trkpt lat="45.38132" lon="6.82539">
        <ele>2445</ele>
        <time>2015-08-23T10:16:03Z</time>
      </trkpt>
      <trkpt lat="45.38133" lon="6.82533">
        <ele>2445</ele>
        <time>2015-08-23T10:16:05Z</time>
      </trkpt>
      <trkpt lat="45.38136" lon="6.82528">
        <ele>2445</ele>
        <time>2015-08-23T10:16:07Z</time>
      </trkpt>
      <trkpt lat="45.38138" lon="6.82523">
        <ele>2445</ele>
        <time>2015-08-23T10:16:09Z</time>
      </trkpt>
      <trkpt lat="45.38141" lon="6.82518">
        <ele>2445</ele>
        <time>2015-08-23T10:16:11Z</time>
      </trkpt>
      <trkpt lat="45.38143" lon="6.82513">
        <ele>2445</ele>
        <time>2015-08-23T10:16:13Z</time>
      </trkpt>
      <trkpt lat="45.38144" lon="6.82508">
        <ele>2445</ele>
        <time>2015-08-23T10:16:15Z</time>
      </trkpt>
      <trkpt lat="45.38146" lon="6.82503">
        <ele>2445</ele>
        <time>2015-08-23T10:16:17Z</time>
      </trkpt>
      <trkpt lat="45.38148" lon="6.82497">
        <ele>2449</ele>
        <time>2015-08-23T10:16:19Z</time>
      </trkpt>
      <trkpt lat="45.3815" lon="6.82489">
        <ele>2449</ele>
        <time>2015-08-23T10:16:21Z</time>
      </trkpt>
      <trkpt lat="45.38154" lon="6.82481">
        <ele>2450</ele>
        <time>2015-08-23T10:16:23Z</time>
      </trkpt>
      <trkpt lat="45.38155" lon="6.82476">
        <ele>2450</ele>
        <time>2015-08-23T10:16:24Z</time>
      </trkpt>
      <trkpt lat="45.38157" lon="6.82473">
        <ele>2451</ele>
        <time>2015-08-23T10:16:25Z</time>
      </trkpt>
      <trkpt lat="45.38159" lon="6.82469">
        <ele>2451</ele>
        <time>2015-08-23T10:16:26Z</time>
      </trkpt>
      <trkpt lat="45.38161" lon="6.82466">
        <ele>2451</ele>
        <time>2015-08-23T10:16:27Z</time>
      </trkpt>
      <trkpt lat="45.38162" lon="6.82463">
        <ele>2451</ele>
        <time>2015-08-23T10:16:28Z</time>
      </trkpt>
      <trkpt lat="45.38164" lon="6.82456">
        <ele>2451</ele>
        <time>2015-08-23T10:16:30Z</time>
      </trkpt>
      <trkpt lat="45.38164" lon="6.82452">
        <ele>2452</ele>
        <time>2015-08-23T10:16:31Z</time>
      </trkpt>
      <trkpt lat="45.38163" lon="6.82448">
        <ele>2452</ele>
        <time>2015-08-23T10:16:32Z</time>
      </trkpt>
      <trkpt lat="45.38163" lon="6.82441">
        <ele>2451</ele>
        <time>2015-08-23T10:16:34Z</time>
      </trkpt>
      <trkpt lat="45.38162" lon="6.82437">
        <ele>2451</ele>
        <time>2015-08-23T10:16:35Z</time>
      </trkpt>
      <trkpt lat="45.38162" lon="6.82429">
        <ele>2450</ele>
        <time>2015-08-23T10:16:37Z</time>
      </trkpt>
      <trkpt lat="45.38161" lon="6.82424">
        <ele>2449</ele>
        <time>2015-08-23T10:16:38Z</time>
      </trkpt>
      <trkpt lat="45.38161" lon="6.8242">
        <ele>2449</ele>
        <time>2015-08-23T10:16:40Z</time>
      </trkpt>
      <trkpt lat="45.3816" lon="6.82414">
        <ele>2452</ele>
        <time>2015-08-23T10:16:41Z</time>
      </trkpt>
      <trkpt lat="45.38162" lon="6.82409">
        <ele>2453</ele>
        <time>2015-08-23T10:16:43Z</time>
      </trkpt>
      <trkpt lat="45.38164" lon="6.82405">
        <ele>2455</ele>
        <time>2015-08-23T10:16:45Z</time>
      </trkpt>
      <trkpt lat="45.38167" lon="6.824">
        <ele>2447</ele>
        <time>2015-08-23T10:16:47Z</time>
      </trkpt>
      <trkpt lat="45.38171" lon="6.82395">
        <ele>2447</ele>
        <time>2015-08-23T10:16:49Z</time>
      </trkpt>
      <trkpt lat="45.38175" lon="6.82389">
        <ele>2447</ele>
        <time>2015-08-23T10:16:51Z</time>
      </trkpt>
      <trkpt lat="45.38177" lon="6.82382">
        <ele>2447</ele>
        <time>2015-08-23T10:16:53Z</time>
      </trkpt>
      <trkpt lat="45.38178" lon="6.82376">
        <ele>2448</ele>
        <time>2015-08-23T10:16:55Z</time>
      </trkpt>
      <trkpt lat="45.38179" lon="6.8237">
        <ele>2448</ele>
        <time>2015-08-23T10:16:58Z</time>
      </trkpt>
      <trkpt lat="45.38182" lon="6.82365">
        <ele>2448</ele>
        <time>2015-08-23T10:16:59Z</time>
      </trkpt>
      <trkpt lat="45.38184" lon="6.82359">
        <ele>2448</ele>
        <time>2015-08-23T10:17:01Z</time>
      </trkpt>
      <trkpt lat="45.38186" lon="6.82354">
        <ele>2448</ele>
        <time>2015-08-23T10:17:04Z</time>
      </trkpt>
      <trkpt lat="45.38188" lon="6.82347">
        <ele>2449</ele>
        <time>2015-08-23T10:17:06Z</time>
      </trkpt>
      <trkpt lat="45.3819" lon="6.82341">
        <ele>2449</ele>
        <time>2015-08-23T10:17:07Z</time>
      </trkpt>
      <trkpt lat="45.38192" lon="6.82337">
        <ele>2449</ele>
        <time>2015-08-23T10:17:08Z</time>
      </trkpt>
      <trkpt lat="45.38193" lon="6.82334">
        <ele>2448</ele>
        <time>2015-08-23T10:17:09Z</time>
      </trkpt>
      <trkpt lat="45.38196" lon="6.82327">
        <ele>2449</ele>
        <time>2015-08-23T10:17:12Z</time>
      </trkpt>
      <trkpt lat="45.38198" lon="6.82324">
        <ele>2449</ele>
        <time>2015-08-23T10:17:13Z</time>
      </trkpt>
      <trkpt lat="45.382" lon="6.82316">
        <ele>2449</ele>
        <time>2015-08-23T10:17:14Z</time>
      </trkpt>
      <trkpt lat="45.38202" lon="6.82313">
        <ele>2449</ele>
        <time>2015-08-23T10:17:16Z</time>
      </trkpt>
      <trkpt lat="45.38202" lon="6.82303">
        <ele>2449</ele>
        <time>2015-08-23T10:17:18Z</time>
      </trkpt>
      <trkpt lat="45.38202" lon="6.82297">
        <ele>2449</ele>
        <time>2015-08-23T10:17:20Z</time>
      </trkpt>
      <trkpt lat="45.38202" lon="6.82292">
        <ele>2450</ele>
        <time>2015-08-23T10:17:22Z</time>
      </trkpt>
      <trkpt lat="45.38202" lon="6.82285">
        <ele>2450</ele>
        <time>2015-08-23T10:17:24Z</time>
      </trkpt>
      <trkpt lat="45.38203" lon="6.82279">
        <ele>2450</ele>
        <time>2015-08-23T10:17:26Z</time>
      </trkpt>
      <trkpt lat="45.38207" lon="6.82275">
        <ele>2449</ele>
        <time>2015-08-23T10:17:28Z</time>
      </trkpt>
      <trkpt lat="45.38212" lon="6.82277">
        <ele>2449</ele>
        <time>2015-08-23T10:17:30Z</time>
      </trkpt>
      <trkpt lat="45.38217" lon="6.82279">
        <ele>2448</ele>
        <time>2015-08-23T10:17:32Z</time>
      </trkpt>
      <trkpt lat="45.3822" lon="6.82281">
        <ele>2448</ele>
        <time>2015-08-23T10:17:33Z</time>
      </trkpt>
      <trkpt lat="45.38225" lon="6.82282">
        <ele>2448</ele>
        <time>2015-08-23T10:17:35Z</time>
      </trkpt>
      <trkpt lat="45.3823" lon="6.82282">
        <ele>2447</ele>
        <time>2015-08-23T10:17:37Z</time>
      </trkpt>
      <trkpt lat="45.38232" lon="6.8228">
        <ele>2447</ele>
        <time>2015-08-23T10:17:39Z</time>
      </trkpt>
      <trkpt lat="45.38233" lon="6.82276">
        <ele>2447</ele>
        <time>2015-08-23T10:17:41Z</time>
      </trkpt>
      <trkpt lat="45.38234" lon="6.82272">
        <ele>2446</ele>
        <time>2015-08-23T10:17:42Z</time>
      </trkpt>
      <trkpt lat="45.38235" lon="6.82267">
        <ele>2446</ele>
        <time>2015-08-23T10:17:43Z</time>
      </trkpt>
      <trkpt lat="45.38236" lon="6.82263">
        <ele>2445</ele>
        <time>2015-08-23T10:17:44Z</time>
      </trkpt>
      <trkpt lat="45.38238" lon="6.82256">
        <ele>2445</ele>
        <time>2015-08-23T10:17:46Z</time>
      </trkpt>
      <trkpt lat="45.38239" lon="6.8225">
        <ele>2444</ele>
        <time>2015-08-23T10:17:48Z</time>
      </trkpt>
      <trkpt lat="45.3824" lon="6.82244">
        <ele>2446</ele>
        <time>2015-08-23T10:17:50Z</time>
      </trkpt>
      <trkpt lat="45.38242" lon="6.82241">
        <ele>2446</ele>
        <time>2015-08-23T10:17:51Z</time>
      </trkpt>
      <trkpt lat="45.38244" lon="6.82234">
        <ele>2447</ele>
        <time>2015-08-23T10:17:53Z</time>
      </trkpt>
      <trkpt lat="45.38245" lon="6.82227">
        <ele>2448</ele>
        <time>2015-08-23T10:17:55Z</time>
      </trkpt>
      <trkpt lat="45.38247" lon="6.8222">
        <ele>2448</ele>
        <time>2015-08-23T10:17:57Z</time>
      </trkpt>
      <trkpt lat="45.38249" lon="6.82213">
        <ele>2449</ele>
        <time>2015-08-23T10:17:59Z</time>
      </trkpt>
      <trkpt lat="45.3825" lon="6.82207">
        <ele>2446</ele>
        <time>2015-08-23T10:18:01Z</time>
      </trkpt>
      <trkpt lat="45.38252" lon="6.822">
        <ele>2446</ele>
        <time>2015-08-23T10:18:04Z</time>
      </trkpt>
      <trkpt lat="45.38253" lon="6.82195">
        <ele>2445</ele>
        <time>2015-08-23T10:18:05Z</time>
      </trkpt>
      <trkpt lat="45.38253" lon="6.82191">
        <ele>2445</ele>
        <time>2015-08-23T10:18:06Z</time>
      </trkpt>
      <trkpt lat="45.38254" lon="6.82187">
        <ele>2445</ele>
        <time>2015-08-23T10:18:07Z</time>
      </trkpt>
      <trkpt lat="45.38255" lon="6.82179">
        <ele>2444</ele>
        <time>2015-08-23T10:18:09Z</time>
      </trkpt>
      <trkpt lat="45.38257" lon="6.82173">
        <ele>2443</ele>
        <time>2015-08-23T10:18:11Z</time>
      </trkpt>
      <trkpt lat="45.38259" lon="6.82166">
        <ele>2444</ele>
        <time>2015-08-23T10:18:13Z</time>
      </trkpt>
      <trkpt lat="45.38259" lon="6.8216">
        <ele>2444</ele>
        <time>2015-08-23T10:18:15Z</time>
      </trkpt>
      <trkpt lat="45.38258" lon="6.82154">
        <ele>2445</ele>
        <time>2015-08-23T10:18:17Z</time>
      </trkpt>
      <trkpt lat="45.38258" lon="6.82149">
        <ele>2446</ele>
        <time>2015-08-23T10:18:19Z</time>
      </trkpt>
      <trkpt lat="45.38255" lon="6.82143">
        <ele>2446</ele>
        <time>2015-08-23T10:18:21Z</time>
      </trkpt>
      <trkpt lat="45.38255" lon="6.82136">
        <ele>2446</ele>
        <time>2015-08-23T10:18:23Z</time>
      </trkpt>
      <trkpt lat="45.38256" lon="6.82129">
        <ele>2447</ele>
        <time>2015-08-23T10:18:25Z</time>
      </trkpt>
      <trkpt lat="45.38258" lon="6.82126">
        <ele>2447</ele>
        <time>2015-08-23T10:18:26Z</time>
      </trkpt>
      <trkpt lat="45.3826" lon="6.82123">
        <ele>2447</ele>
        <time>2015-08-23T10:18:27Z</time>
      </trkpt>
      <trkpt lat="45.38264" lon="6.82117">
        <ele>2447</ele>
        <time>2015-08-23T10:18:29Z</time>
      </trkpt>
      <trkpt lat="45.38266" lon="6.82114">
        <ele>2447</ele>
        <time>2015-08-23T10:18:30Z</time>
      </trkpt>
      <trkpt lat="45.38269" lon="6.82111">
        <ele>2447</ele>
        <time>2015-08-23T10:18:32Z</time>
      </trkpt>
      <trkpt lat="45.38272" lon="6.82106">
        <ele>2448</ele>
        <time>2015-08-23T10:18:33Z</time>
      </trkpt>
      <trkpt lat="45.38274" lon="6.82101">
        <ele>2448</ele>
        <time>2015-08-23T10:18:35Z</time>
      </trkpt>
      <trkpt lat="45.38277" lon="6.82096">
        <ele>2448</ele>
        <time>2015-08-23T10:18:37Z</time>
      </trkpt>
      <trkpt lat="45.38278" lon="6.82091">
        <ele>2448</ele>
        <time>2015-08-23T10:18:39Z</time>
      </trkpt>
      <trkpt lat="45.38279" lon="6.82084">
        <ele>2448</ele>
        <time>2015-08-23T10:18:41Z</time>
      </trkpt>
      <trkpt lat="45.38279" lon="6.82078">
        <ele>2449</ele>
        <time>2015-08-23T10:18:44Z</time>
      </trkpt>
      <trkpt lat="45.38278" lon="6.82071">
        <ele>2449</ele>
        <time>2015-08-23T10:18:45Z</time>
      </trkpt>
      <trkpt lat="45.38277" lon="6.82066">
        <ele>2449</ele>
        <time>2015-08-23T10:18:46Z</time>
      </trkpt>
      <trkpt lat="45.38277" lon="6.82062">
        <ele>2449</ele>
        <time>2015-08-23T10:18:47Z</time>
      </trkpt>
      <trkpt lat="45.38276" lon="6.82058">
        <ele>2449</ele>
        <time>2015-08-23T10:18:48Z</time>
      </trkpt>
      <trkpt lat="45.38276" lon="6.82053">
        <ele>2449</ele>
        <time>2015-08-23T10:18:50Z</time>
      </trkpt>
      <trkpt lat="45.38276" lon="6.82042">
        <ele>2450</ele>
        <time>2015-08-23T10:18:52Z</time>
      </trkpt>
      <trkpt lat="45.38277" lon="6.82036">
        <ele>2450</ele>
        <time>2015-08-23T10:18:55Z</time>
      </trkpt>
      <trkpt lat="45.38279" lon="6.82029">
        <ele>2450</ele>
        <time>2015-08-23T10:18:56Z</time>
      </trkpt>
      <trkpt lat="45.38281" lon="6.82022">
        <ele>2450</ele>
        <time>2015-08-23T10:18:58Z</time>
      </trkpt>
      <trkpt lat="45.38283" lon="6.82016">
        <ele>2450</ele>
        <time>2015-08-23T10:19:00Z</time>
      </trkpt>
      <trkpt lat="45.38285" lon="6.82008">
        <ele>2450</ele>
        <time>2015-08-23T10:19:02Z</time>
      </trkpt>
      <trkpt lat="45.38285" lon="6.82002">
        <ele>2450</ele>
        <time>2015-08-23T10:19:04Z</time>
      </trkpt>
      <trkpt lat="45.38287" lon="6.81996">
        <ele>2451</ele>
        <time>2015-08-23T10:19:06Z</time>
      </trkpt>
      <trkpt lat="45.38289" lon="6.81991">
        <ele>2452</ele>
        <time>2015-08-23T10:19:08Z</time>
      </trkpt>
      <trkpt lat="45.38292" lon="6.81985">
        <ele>2452</ele>
        <time>2015-08-23T10:19:10Z</time>
      </trkpt>
      <trkpt lat="45.38293" lon="6.81981">
        <ele>2452</ele>
        <time>2015-08-23T10:19:11Z</time>
      </trkpt>
      <trkpt lat="45.38294" lon="6.81977">
        <ele>2452</ele>
        <time>2015-08-23T10:19:12Z</time>
      </trkpt>
      <trkpt lat="45.38295" lon="6.81974">
        <ele>2452</ele>
        <time>2015-08-23T10:19:13Z</time>
      </trkpt>
      <trkpt lat="45.38296" lon="6.8197">
        <ele>2452</ele>
        <time>2015-08-23T10:19:14Z</time>
      </trkpt>
      <trkpt lat="45.38296" lon="6.81965">
        <ele>2452</ele>
        <time>2015-08-23T10:19:15Z</time>
      </trkpt>
      <trkpt lat="45.38297" lon="6.81962">
        <ele>2452</ele>
        <time>2015-08-23T10:19:16Z</time>
      </trkpt>
      <trkpt lat="45.38297" lon="6.81956">
        <ele>2452</ele>
        <time>2015-08-23T10:19:17Z</time>
      </trkpt>
      <trkpt lat="45.38297" lon="6.81952">
        <ele>2452</ele>
        <time>2015-08-23T10:19:18Z</time>
      </trkpt>
      <trkpt lat="45.38297" lon="6.81948">
        <ele>2452</ele>
        <time>2015-08-23T10:19:19Z</time>
      </trkpt>
      <trkpt lat="45.38298" lon="6.81944">
        <ele>2452</ele>
        <time>2015-08-23T10:19:20Z</time>
      </trkpt>
      <trkpt lat="45.38299" lon="6.8194">
        <ele>2452</ele>
        <time>2015-08-23T10:19:21Z</time>
      </trkpt>
      <trkpt lat="45.38299" lon="6.81937">
        <ele>2452</ele>
        <time>2015-08-23T10:19:22Z</time>
      </trkpt>
      <trkpt lat="45.38302" lon="6.81932">
        <ele>2453</ele>
        <time>2015-08-23T10:19:24Z</time>
      </trkpt>
      <trkpt lat="45.38305" lon="6.81926">
        <ele>2453</ele>
        <time>2015-08-23T10:19:26Z</time>
      </trkpt>
      <trkpt lat="45.38307" lon="6.8192">
        <ele>2453</ele>
        <time>2015-08-23T10:19:28Z</time>
      </trkpt>
      <trkpt lat="45.38309" lon="6.81915">
        <ele>2453</ele>
        <time>2015-08-23T10:19:30Z</time>
      </trkpt>
      <trkpt lat="45.3831" lon="6.81911">
        <ele>2453</ele>
        <time>2015-08-23T10:19:32Z</time>
      </trkpt>
      <trkpt lat="45.38311" lon="6.81905">
        <ele>2453</ele>
        <time>2015-08-23T10:19:34Z</time>
      </trkpt>
      <trkpt lat="45.38312" lon="6.81898">
        <ele>2453</ele>
        <time>2015-08-23T10:19:36Z</time>
      </trkpt>
      <trkpt lat="45.38313" lon="6.81891">
        <ele>2453</ele>
        <time>2015-08-23T10:19:38Z</time>
      </trkpt>
      <trkpt lat="45.38314" lon="6.81884">
        <ele>2453</ele>
        <time>2015-08-23T10:19:40Z</time>
      </trkpt>
      <trkpt lat="45.38315" lon="6.81877">
        <ele>2453</ele>
        <time>2015-08-23T10:19:42Z</time>
      </trkpt>
      <trkpt lat="45.38317" lon="6.81871">
        <ele>2453</ele>
        <time>2015-08-23T10:19:44Z</time>
      </trkpt>
      <trkpt lat="45.38319" lon="6.81867">
        <ele>2453</ele>
        <time>2015-08-23T10:19:45Z</time>
      </trkpt>
      <trkpt lat="45.38321" lon="6.81865">
        <ele>2453</ele>
        <time>2015-08-23T10:19:46Z</time>
      </trkpt>
      <trkpt lat="45.38323" lon="6.81862">
        <ele>2453</ele>
        <time>2015-08-23T10:19:47Z</time>
      </trkpt>
      <trkpt lat="45.38326" lon="6.81856">
        <ele>2452</ele>
        <time>2015-08-23T10:19:49Z</time>
      </trkpt>
      <trkpt lat="45.38327" lon="6.81849">
        <ele>2452</ele>
        <time>2015-08-23T10:19:51Z</time>
      </trkpt>
      <trkpt lat="45.38328" lon="6.81843">
        <ele>2452</ele>
        <time>2015-08-23T10:19:53Z</time>
      </trkpt>
      <trkpt lat="45.38329" lon="6.81838">
        <ele>2452</ele>
        <time>2015-08-23T10:19:55Z</time>
      </trkpt>
      <trkpt lat="45.38329" lon="6.81833">
        <ele>2452</ele>
        <time>2015-08-23T10:19:57Z</time>
      </trkpt>
      <trkpt lat="45.3833" lon="6.81826">
        <ele>2452</ele>
        <time>2015-08-23T10:19:59Z</time>
      </trkpt>
      <trkpt lat="45.3833" lon="6.81819">
        <ele>2453</ele>
        <time>2015-08-23T10:20:01Z</time>
      </trkpt>
      <trkpt lat="45.3833" lon="6.81815">
        <ele>2453</ele>
        <time>2015-08-23T10:20:02Z</time>
      </trkpt>
      <trkpt lat="45.38331" lon="6.8181">
        <ele>2453</ele>
        <time>2015-08-23T10:20:03Z</time>
      </trkpt>
      <trkpt lat="45.38332" lon="6.81806">
        <ele>2453</ele>
        <time>2015-08-23T10:20:04Z</time>
      </trkpt>
      <trkpt lat="45.38333" lon="6.81802">
        <ele>2454</ele>
        <time>2015-08-23T10:20:05Z</time>
      </trkpt>
      <trkpt lat="45.38335" lon="6.81797">
        <ele>2458</ele>
        <time>2015-08-23T10:20:06Z</time>
      </trkpt>
      <trkpt lat="45.38336" lon="6.81793">
        <ele>2458</ele>
        <time>2015-08-23T10:20:07Z</time>
      </trkpt>
      <trkpt lat="45.38337" lon="6.81789">
        <ele>2458</ele>
        <time>2015-08-23T10:20:09Z</time>
      </trkpt>
      <trkpt lat="45.38336" lon="6.81785">
        <ele>2458</ele>
        <time>2015-08-23T10:20:10Z</time>
      </trkpt>
      <trkpt lat="45.38334" lon="6.81776">
        <ele>2458</ele>
        <time>2015-08-23T10:20:11Z</time>
      </trkpt>
      <trkpt lat="45.38334" lon="6.81772">
        <ele>2458</ele>
        <time>2015-08-23T10:20:12Z</time>
      </trkpt>
      <trkpt lat="45.38334" lon="6.81768">
        <ele>2457</ele>
        <time>2015-08-23T10:20:13Z</time>
      </trkpt>
      <trkpt lat="45.38333" lon="6.81764">
        <ele>2457</ele>
        <time>2015-08-23T10:20:14Z</time>
      </trkpt>
      <trkpt lat="45.38332" lon="6.81757">
        <ele>2454</ele>
        <time>2015-08-23T10:20:16Z</time>
      </trkpt>
      <trkpt lat="45.38332" lon="6.8175">
        <ele>2454</ele>
        <time>2015-08-23T10:20:18Z</time>
      </trkpt>
      <trkpt lat="45.38333" lon="6.81745">
        <ele>2454</ele>
        <time>2015-08-23T10:20:20Z</time>
      </trkpt>
      <trkpt lat="45.38333" lon="6.81739">
        <ele>2458</ele>
        <time>2015-08-23T10:20:22Z</time>
      </trkpt>
      <trkpt lat="45.38334" lon="6.81733">
        <ele>2459</ele>
        <time>2015-08-23T10:20:24Z</time>
      </trkpt>
      <trkpt lat="45.38333" lon="6.81729">
        <ele>2454</ele>
        <time>2015-08-23T10:20:26Z</time>
      </trkpt>
      <trkpt lat="45.38332" lon="6.81723">
        <ele>2454</ele>
        <time>2015-08-23T10:20:28Z</time>
      </trkpt>
      <trkpt lat="45.38331" lon="6.81717">
        <ele>2454</ele>
        <time>2015-08-23T10:20:30Z</time>
      </trkpt>
      <trkpt lat="45.38332" lon="6.81708">
        <ele>2454</ele>
        <time>2015-08-23T10:20:33Z</time>
      </trkpt>
      <trkpt lat="45.38332" lon="6.81698">
        <ele>2454</ele>
        <time>2015-08-23T10:20:36Z</time>
      </trkpt>
      <trkpt lat="45.38331" lon="6.81694">
        <ele>2454</ele>
        <time>2015-08-23T10:20:37Z</time>
      </trkpt>
      <trkpt lat="45.38329" lon="6.81687">
        <ele>2454</ele>
        <time>2015-08-23T10:20:39Z</time>
      </trkpt>
      <trkpt lat="45.38328" lon="6.81682">
        <ele>2454</ele>
        <time>2015-08-23T10:20:41Z</time>
      </trkpt>
      <trkpt lat="45.38328" lon="6.81676">
        <ele>2454</ele>
        <time>2015-08-23T10:20:44Z</time>
      </trkpt>
      <trkpt lat="45.38329" lon="6.8167">
        <ele>2454</ele>
        <time>2015-08-23T10:20:45Z</time>
      </trkpt>
      <trkpt lat="45.3833" lon="6.81664">
        <ele>2454</ele>
        <time>2015-08-23T10:20:48Z</time>
      </trkpt>
      <trkpt lat="45.38331" lon="6.81659">
        <ele>2453</ele>
        <time>2015-08-23T10:20:49Z</time>
      </trkpt>
      <trkpt lat="45.38333" lon="6.81654">
        <ele>2453</ele>
        <time>2015-08-23T10:20:51Z</time>
      </trkpt>
      <trkpt lat="45.38334" lon="6.81649">
        <ele>2459</ele>
        <time>2015-08-23T10:20:53Z</time>
      </trkpt>
      <trkpt lat="45.38335" lon="6.81642">
        <ele>2460</ele>
        <time>2015-08-23T10:20:55Z</time>
      </trkpt>
      <trkpt lat="45.38336" lon="6.81636">
        <ele>2461</ele>
        <time>2015-08-23T10:20:57Z</time>
      </trkpt>
      <trkpt lat="45.38335" lon="6.81629">
        <ele>2461</ele>
        <time>2015-08-23T10:20:59Z</time>
      </trkpt>
      <trkpt lat="45.38336" lon="6.81623">
        <ele>2461</ele>
        <time>2015-08-23T10:21:01Z</time>
      </trkpt>
      <trkpt lat="45.38334" lon="6.81615">
        <ele>2461</ele>
        <time>2015-08-23T10:21:03Z</time>
      </trkpt>
      <trkpt lat="45.38333" lon="6.81612">
        <ele>2453</ele>
        <time>2015-08-23T10:21:06Z</time>
      </trkpt>
      <trkpt lat="45.38331" lon="6.81609">
        <ele>2453</ele>
        <time>2015-08-23T10:21:07Z</time>
      </trkpt>
      <trkpt lat="45.3833" lon="6.81602">
        <ele>2453</ele>
        <time>2015-08-23T10:21:09Z</time>
      </trkpt>
      <trkpt lat="45.3833" lon="6.81596">
        <ele>2453</ele>
        <time>2015-08-23T10:21:11Z</time>
      </trkpt>
      <trkpt lat="45.38333" lon="6.81591">
        <ele>2453</ele>
        <time>2015-08-23T10:21:13Z</time>
      </trkpt>
      <trkpt lat="45.38335" lon="6.81586">
        <ele>2455</ele>
        <time>2015-08-23T10:21:15Z</time>
      </trkpt>
      <trkpt lat="45.38336" lon="6.8158">
        <ele>2455</ele>
        <time>2015-08-23T10:21:17Z</time>
      </trkpt>
      <trkpt lat="45.38337" lon="6.81573">
        <ele>2456</ele>
        <time>2015-08-23T10:21:19Z</time>
      </trkpt>
      <trkpt lat="45.38337" lon="6.81567">
        <ele>2457</ele>
        <time>2015-08-23T10:21:21Z</time>
      </trkpt>
      <trkpt lat="45.38338" lon="6.81561">
        <ele>2457</ele>
        <time>2015-08-23T10:21:23Z</time>
      </trkpt>
      <trkpt lat="45.38337" lon="6.81555">
        <ele>2458</ele>
        <time>2015-08-23T10:21:25Z</time>
      </trkpt>
      <trkpt lat="45.38336" lon="6.81551">
        <ele>2458</ele>
        <time>2015-08-23T10:21:26Z</time>
      </trkpt>
      <trkpt lat="45.38335" lon="6.81545">
        <ele>2457</ele>
        <time>2015-08-23T10:21:28Z</time>
      </trkpt>
      <trkpt lat="45.38336" lon="6.8154">
        <ele>2457</ele>
        <time>2015-08-23T10:21:30Z</time>
      </trkpt>
      <trkpt lat="45.38337" lon="6.81534">
        <ele>2457</ele>
        <time>2015-08-23T10:21:32Z</time>
      </trkpt>
      <trkpt lat="45.3834" lon="6.81528">
        <ele>2457</ele>
        <time>2015-08-23T10:21:34Z</time>
      </trkpt>
      <trkpt lat="45.38343" lon="6.81522">
        <ele>2456</ele>
        <time>2015-08-23T10:21:36Z</time>
      </trkpt>
      <trkpt lat="45.38346" lon="6.81517">
        <ele>2456</ele>
        <time>2015-08-23T10:21:38Z</time>
      </trkpt>
      <trkpt lat="45.38349" lon="6.81511">
        <ele>2456</ele>
        <time>2015-08-23T10:21:40Z</time>
      </trkpt>
      <trkpt lat="45.38353" lon="6.81506">
        <ele>2456</ele>
        <time>2015-08-23T10:21:42Z</time>
      </trkpt>
      <trkpt lat="45.38356" lon="6.81502">
        <ele>2456</ele>
        <time>2015-08-23T10:21:44Z</time>
      </trkpt>
      <trkpt lat="45.38359" lon="6.81498">
        <ele>2453</ele>
        <time>2015-08-23T10:21:46Z</time>
      </trkpt>
      <trkpt lat="45.38361" lon="6.81494">
        <ele>2453</ele>
        <time>2015-08-23T10:21:48Z</time>
      </trkpt>
      <trkpt lat="45.38363" lon="6.81489">
        <ele>2453</ele>
        <time>2015-08-23T10:21:50Z</time>
      </trkpt>
      <trkpt lat="45.38364" lon="6.81483">
        <ele>2453</ele>
        <time>2015-08-23T10:21:52Z</time>
      </trkpt>
      <trkpt lat="45.38362" lon="6.81473">
        <ele>2453</ele>
        <time>2015-08-23T10:21:55Z</time>
      </trkpt>
      <trkpt lat="45.38359" lon="6.81469">
        <ele>2453</ele>
        <time>2015-08-23T10:21:56Z</time>
      </trkpt>
      <trkpt lat="45.38358" lon="6.81462">
        <ele>2453</ele>
        <time>2015-08-23T10:21:58Z</time>
      </trkpt>
      <trkpt lat="45.3836" lon="6.81455">
        <ele>2452</ele>
        <time>2015-08-23T10:22:00Z</time>
      </trkpt>
      <trkpt lat="45.38363" lon="6.8145">
        <ele>2452</ele>
        <time>2015-08-23T10:22:02Z</time>
      </trkpt>
      <trkpt lat="45.38367" lon="6.81445">
        <ele>2452</ele>
        <time>2015-08-23T10:22:04Z</time>
      </trkpt>
      <trkpt lat="45.3837" lon="6.8144">
        <ele>2453</ele>
        <time>2015-08-23T10:22:06Z</time>
      </trkpt>
      <trkpt lat="45.38373" lon="6.81437">
        <ele>2453</ele>
        <time>2015-08-23T10:22:09Z</time>
      </trkpt>
      <trkpt lat="45.38376" lon="6.81434">
        <ele>2453</ele>
        <time>2015-08-23T10:22:12Z</time>
      </trkpt>
      <trkpt lat="45.38378" lon="6.81431">
        <ele>2453</ele>
        <time>2015-08-23T10:22:15Z</time>
      </trkpt>
      <trkpt lat="45.38379" lon="6.81425">
        <ele>2453</ele>
        <time>2015-08-23T10:22:19Z</time>
      </trkpt>
      <trkpt lat="45.38382" lon="6.81422">
        <ele>2453</ele>
        <time>2015-08-23T10:22:21Z</time>
      </trkpt>
      <trkpt lat="45.38386" lon="6.81418">
        <ele>2453</ele>
        <time>2015-08-23T10:22:23Z</time>
      </trkpt>
      <trkpt lat="45.38388" lon="6.81415">
        <ele>2451</ele>
        <time>2015-08-23T10:22:24Z</time>
      </trkpt>
      <trkpt lat="45.3839" lon="6.81412">
        <ele>2451</ele>
        <time>2015-08-23T10:22:25Z</time>
      </trkpt>
      <trkpt lat="45.38391" lon="6.81408">
        <ele>2451</ele>
        <time>2015-08-23T10:22:26Z</time>
      </trkpt>
      <trkpt lat="45.38393" lon="6.814">
        <ele>2451</ele>
        <time>2015-08-23T10:22:28Z</time>
      </trkpt>
      <trkpt lat="45.38393" lon="6.81395">
        <ele>2451</ele>
        <time>2015-08-23T10:22:29Z</time>
      </trkpt>
      <trkpt lat="45.38393" lon="6.81391">
        <ele>2451</ele>
        <time>2015-08-23T10:22:30Z</time>
      </trkpt>
      <trkpt lat="45.38393" lon="6.81387">
        <ele>2451</ele>
        <time>2015-08-23T10:22:31Z</time>
      </trkpt>
      <trkpt lat="45.38393" lon="6.8138">
        <ele>2451</ele>
        <time>2015-08-23T10:22:33Z</time>
      </trkpt>
      <trkpt lat="45.38393" lon="6.81375">
        <ele>2451</ele>
        <time>2015-08-23T10:22:34Z</time>
      </trkpt>
      <trkpt lat="45.38393" lon="6.81371">
        <ele>2451</ele>
        <time>2015-08-23T10:22:35Z</time>
      </trkpt>
      <trkpt lat="45.38393" lon="6.81367">
        <ele>2451</ele>
        <time>2015-08-23T10:22:36Z</time>
      </trkpt>
      <trkpt lat="45.38393" lon="6.8136">
        <ele>2451</ele>
        <time>2015-08-23T10:22:38Z</time>
      </trkpt>
      <trkpt lat="45.38394" lon="6.81354">
        <ele>2451</ele>
        <time>2015-08-23T10:22:40Z</time>
      </trkpt>
      <trkpt lat="45.38394" lon="6.81347">
        <ele>2451</ele>
        <time>2015-08-23T10:22:42Z</time>
      </trkpt>
      <trkpt lat="45.38396" lon="6.81343">
        <ele>2451</ele>
        <time>2015-08-23T10:22:44Z</time>
      </trkpt>
      <trkpt lat="45.38395" lon="6.81338">
        <ele>2451</ele>
        <time>2015-08-23T10:22:46Z</time>
      </trkpt>
      <trkpt lat="45.38395" lon="6.81333">
        <ele>2450</ele>
        <time>2015-08-23T10:22:48Z</time>
      </trkpt>
      <trkpt lat="45.38395" lon="6.81327">
        <ele>2450</ele>
        <time>2015-08-23T10:22:50Z</time>
      </trkpt>
      <trkpt lat="45.38396" lon="6.81322">
        <ele>2450</ele>
        <time>2015-08-23T10:22:52Z</time>
      </trkpt>
      <trkpt lat="45.38398" lon="6.81317">
        <ele>2450</ele>
        <time>2015-08-23T10:22:54Z</time>
      </trkpt>
      <trkpt lat="45.384" lon="6.81312">
        <ele>2450</ele>
        <time>2015-08-23T10:22:56Z</time>
      </trkpt>
      <trkpt lat="45.38402" lon="6.81306">
        <ele>2449</ele>
        <time>2015-08-23T10:22:58Z</time>
      </trkpt>
      <trkpt lat="45.38404" lon="6.81301">
        <ele>2449</ele>
        <time>2015-08-23T10:23:00Z</time>
      </trkpt>
      <trkpt lat="45.38405" lon="6.81295">
        <ele>2449</ele>
        <time>2015-08-23T10:23:03Z</time>
      </trkpt>
      <trkpt lat="45.38407" lon="6.8129">
        <ele>2449</ele>
        <time>2015-08-23T10:23:05Z</time>
      </trkpt>
      <trkpt lat="45.3841" lon="6.81285">
        <ele>2449</ele>
        <time>2015-08-23T10:23:06Z</time>
      </trkpt>
      <trkpt lat="45.38413" lon="6.81279">
        <ele>2449</ele>
        <time>2015-08-23T10:23:08Z</time>
      </trkpt>
      <trkpt lat="45.38415" lon="6.81277">
        <ele>2449</ele>
        <time>2015-08-23T10:23:09Z</time>
      </trkpt>
      <trkpt lat="45.38417" lon="6.81274">
        <ele>2456</ele>
        <time>2015-08-23T10:23:10Z</time>
      </trkpt>
      <trkpt lat="45.3842" lon="6.81272">
        <ele>2456</ele>
        <time>2015-08-23T10:23:11Z</time>
      </trkpt>
      <trkpt lat="45.38423" lon="6.81267">
        <ele>2456</ele>
        <time>2015-08-23T10:23:13Z</time>
      </trkpt>
      <trkpt lat="45.38426" lon="6.81263">
        <ele>2455</ele>
        <time>2015-08-23T10:23:15Z</time>
      </trkpt>
      <trkpt lat="45.38428" lon="6.81259">
        <ele>2455</ele>
        <time>2015-08-23T10:23:18Z</time>
      </trkpt>
      <trkpt lat="45.38428" lon="6.81253">
        <ele>2454</ele>
        <time>2015-08-23T10:23:19Z</time>
      </trkpt>
      <trkpt lat="45.38429" lon="6.81247">
        <ele>2454</ele>
        <time>2015-08-23T10:23:21Z</time>
      </trkpt>
      <trkpt lat="45.38428" lon="6.8124">
        <ele>2455</ele>
        <time>2015-08-23T10:23:23Z</time>
      </trkpt>
      <trkpt lat="45.38427" lon="6.81234">
        <ele>2456</ele>
        <time>2015-08-23T10:23:25Z</time>
      </trkpt>
      <trkpt lat="45.38426" lon="6.81227">
        <ele>2457</ele>
        <time>2015-08-23T10:23:27Z</time>
      </trkpt>
      <trkpt lat="45.38424" lon="6.81223">
        <ele>2457</ele>
        <time>2015-08-23T10:23:28Z</time>
      </trkpt>
      <trkpt lat="45.38423" lon="6.81219">
        <ele>2457</ele>
        <time>2015-08-23T10:23:29Z</time>
      </trkpt>
      <trkpt lat="45.38421" lon="6.81216">
        <ele>2457</ele>
        <time>2015-08-23T10:23:30Z</time>
      </trkpt>
      <trkpt lat="45.38418" lon="6.81213">
        <ele>2457</ele>
        <time>2015-08-23T10:23:32Z</time>
      </trkpt>
      <trkpt lat="45.38415" lon="6.81214">
        <ele>2448</ele>
        <time>2015-08-23T10:23:37Z</time>
      </trkpt>
      <trkpt lat="45.38412" lon="6.81214">
        <ele>2448</ele>
        <time>2015-08-23T10:23:38Z</time>
      </trkpt>
      <trkpt lat="45.38411" lon="6.8121">
        <ele>2448</ele>
        <time>2015-08-23T10:23:40Z</time>
      </trkpt>
      <trkpt lat="45.38409" lon="6.81205">
        <ele>2448</ele>
        <time>2015-08-23T10:23:42Z</time>
      </trkpt>
      <trkpt lat="45.3841" lon="6.81201">
        <ele>2448</ele>
        <time>2015-08-23T10:23:43Z</time>
      </trkpt>
      <trkpt lat="45.38412" lon="6.81194">
        <ele>2448</ele>
        <time>2015-08-23T10:23:45Z</time>
      </trkpt>
      <trkpt lat="45.38413" lon="6.8119">
        <ele>2448</ele>
        <time>2015-08-23T10:23:46Z</time>
      </trkpt>
      <trkpt lat="45.38415" lon="6.81187">
        <ele>2449</ele>
        <time>2015-08-23T10:23:47Z</time>
      </trkpt>
      <trkpt lat="45.38418" lon="6.81182">
        <ele>2455</ele>
        <time>2015-08-23T10:23:49Z</time>
      </trkpt>
      <trkpt lat="45.38421" lon="6.81176">
        <ele>2454</ele>
        <time>2015-08-23T10:23:51Z</time>
      </trkpt>
      <trkpt lat="45.38423" lon="6.81171">
        <ele>2454</ele>
        <time>2015-08-23T10:23:53Z</time>
      </trkpt>
      <trkpt lat="45.38424" lon="6.81165">
        <ele>2454</ele>
        <time>2015-08-23T10:23:55Z</time>
      </trkpt>
      <trkpt lat="45.38424" lon="6.81159">
        <ele>2455</ele>
        <time>2015-08-23T10:23:57Z</time>
      </trkpt>
      <trkpt lat="45.38424" lon="6.81155">
        <ele>2456</ele>
        <time>2015-08-23T10:23:58Z</time>
      </trkpt>
      <trkpt lat="45.38423" lon="6.81148">
        <ele>2457</ele>
        <time>2015-08-23T10:24:00Z</time>
      </trkpt>
      <trkpt lat="45.38423" lon="6.8114">
        <ele>2458</ele>
        <time>2015-08-23T10:24:02Z</time>
      </trkpt>
      <trkpt lat="45.38424" lon="6.81134">
        <ele>2459</ele>
        <time>2015-08-23T10:24:04Z</time>
      </trkpt>
      <trkpt lat="45.38426" lon="6.81127">
        <ele>2460</ele>
        <time>2015-08-23T10:24:06Z</time>
      </trkpt>
      <trkpt lat="45.38427" lon="6.81121">
        <ele>2460</ele>
        <time>2015-08-23T10:24:08Z</time>
      </trkpt>
      <trkpt lat="45.38426" lon="6.81113">
        <ele>2460</ele>
        <time>2015-08-23T10:24:11Z</time>
      </trkpt>
      <trkpt lat="45.38425" lon="6.81106">
        <ele>2459</ele>
        <time>2015-08-23T10:24:12Z</time>
      </trkpt>
      <trkpt lat="45.38424" lon="6.81102">
        <ele>2459</ele>
        <time>2015-08-23T10:24:13Z</time>
      </trkpt>
      <trkpt lat="45.38423" lon="6.81095">
        <ele>2458</ele>
        <time>2015-08-23T10:24:15Z</time>
      </trkpt>
      <trkpt lat="45.3842" lon="6.81088">
        <ele>2456</ele>
        <time>2015-08-23T10:24:17Z</time>
      </trkpt>
      <trkpt lat="45.38417" lon="6.81087">
        <ele>2455</ele>
        <time>2015-08-23T10:24:18Z</time>
      </trkpt>
      <trkpt lat="45.38414" lon="6.81083">
        <ele>2454</ele>
        <time>2015-08-23T10:24:20Z</time>
      </trkpt>
      <trkpt lat="45.38412" lon="6.81078">
        <ele>2454</ele>
        <time>2015-08-23T10:24:22Z</time>
      </trkpt>
      <trkpt lat="45.3841" lon="6.81074">
        <ele>2454</ele>
        <time>2015-08-23T10:24:23Z</time>
      </trkpt>
      <trkpt lat="45.38409" lon="6.81069">
        <ele>2454</ele>
        <time>2015-08-23T10:24:25Z</time>
      </trkpt>
      <trkpt lat="45.38408" lon="6.81059">
        <ele>2454</ele>
        <time>2015-08-23T10:24:27Z</time>
      </trkpt>
      <trkpt lat="45.38408" lon="6.81055">
        <ele>2454</ele>
        <time>2015-08-23T10:24:29Z</time>
      </trkpt>
      <trkpt lat="45.38409" lon="6.81049">
        <ele>2454</ele>
        <time>2015-08-23T10:24:32Z</time>
      </trkpt>
      <trkpt lat="45.38409" lon="6.81042">
        <ele>2454</ele>
        <time>2015-08-23T10:24:33Z</time>
      </trkpt>
      <trkpt lat="45.38409" lon="6.81038">
        <ele>2455</ele>
        <time>2015-08-23T10:24:34Z</time>
      </trkpt>
      <trkpt lat="45.38409" lon="6.81031">
        <ele>2455</ele>
        <time>2015-08-23T10:24:36Z</time>
      </trkpt>
      <trkpt lat="45.38409" lon="6.81026">
        <ele>2455</ele>
        <time>2015-08-23T10:24:38Z</time>
      </trkpt>
      <trkpt lat="45.38408" lon="6.81022">
        <ele>2456</ele>
        <time>2015-08-23T10:24:40Z</time>
      </trkpt>
      <trkpt lat="45.38408" lon="6.81016">
        <ele>2456</ele>
        <time>2015-08-23T10:24:42Z</time>
      </trkpt>
      <trkpt lat="45.38409" lon="6.8101">
        <ele>2457</ele>
        <time>2015-08-23T10:24:44Z</time>
      </trkpt>
      <trkpt lat="45.3841" lon="6.81004">
        <ele>2457</ele>
        <time>2015-08-23T10:24:46Z</time>
      </trkpt>
      <trkpt lat="45.3841" lon="6.80997">
        <ele>2459</ele>
        <time>2015-08-23T10:24:48Z</time>
      </trkpt>
      <trkpt lat="45.38412" lon="6.8099">
        <ele>2459</ele>
        <time>2015-08-23T10:24:50Z</time>
      </trkpt>
      <trkpt lat="45.38413" lon="6.80984">
        <ele>2459</ele>
        <time>2015-08-23T10:24:52Z</time>
      </trkpt>
      <trkpt lat="45.38413" lon="6.80979">
        <ele>2459</ele>
        <time>2015-08-23T10:24:54Z</time>
      </trkpt>
      <trkpt lat="45.38413" lon="6.80975">
        <ele>2459</ele>
        <time>2015-08-23T10:24:56Z</time>
      </trkpt>
      <trkpt lat="45.38414" lon="6.8097">
        <ele>2459</ele>
        <time>2015-08-23T10:24:59Z</time>
      </trkpt>
      <trkpt lat="45.38416" lon="6.80966">
        <ele>2460</ele>
        <time>2015-08-23T10:25:01Z</time>
      </trkpt>
      <trkpt lat="45.38417" lon="6.80962">
        <ele>2460</ele>
        <time>2015-08-23T10:25:03Z</time>
      </trkpt>
      <trkpt lat="45.38416" lon="6.80958">
        <ele>2460</ele>
        <time>2015-08-23T10:25:04Z</time>
      </trkpt>
      <trkpt lat="45.38413" lon="6.80952">
        <ele>2460</ele>
        <time>2015-08-23T10:25:06Z</time>
      </trkpt>
      <trkpt lat="45.3841" lon="6.80947">
        <ele>2461</ele>
        <time>2015-08-23T10:25:08Z</time>
      </trkpt>
      <trkpt lat="45.3841" lon="6.80942">
        <ele>2461</ele>
        <time>2015-08-23T10:25:10Z</time>
      </trkpt>
      <trkpt lat="45.3841" lon="6.80937">
        <ele>2462</ele>
        <time>2015-08-23T10:25:12Z</time>
      </trkpt>
      <trkpt lat="45.38411" lon="6.8093">
        <ele>2462</ele>
        <time>2015-08-23T10:25:14Z</time>
      </trkpt>
      <trkpt lat="45.38412" lon="6.80926">
        <ele>2463</ele>
        <time>2015-08-23T10:25:15Z</time>
      </trkpt>
      <trkpt lat="45.38415" lon="6.8092">
        <ele>2464</ele>
        <time>2015-08-23T10:25:17Z</time>
      </trkpt>
      <trkpt lat="45.38415" lon="6.80914">
        <ele>2465</ele>
        <time>2015-08-23T10:25:19Z</time>
      </trkpt>
      <trkpt lat="45.38416" lon="6.80908">
        <ele>2465</ele>
        <time>2015-08-23T10:25:21Z</time>
      </trkpt>
      <trkpt lat="45.38418" lon="6.80902">
        <ele>2468</ele>
        <time>2015-08-23T10:25:23Z</time>
      </trkpt>
      <trkpt lat="45.3842" lon="6.80899">
        <ele>2468</ele>
        <time>2015-08-23T10:25:24Z</time>
      </trkpt>
      <trkpt lat="45.38421" lon="6.80895">
        <ele>2468</ele>
        <time>2015-08-23T10:25:26Z</time>
      </trkpt>
      <trkpt lat="45.38422" lon="6.80887">
        <ele>2469</ele>
        <time>2015-08-23T10:25:29Z</time>
      </trkpt>
      <trkpt lat="45.38421" lon="6.80882">
        <ele>2469</ele>
        <time>2015-08-23T10:25:30Z</time>
      </trkpt>
      <trkpt lat="45.3842" lon="6.80873">
        <ele>2469</ele>
        <time>2015-08-23T10:25:32Z</time>
      </trkpt>
      <trkpt lat="45.38421" lon="6.80864">
        <ele>2469</ele>
        <time>2015-08-23T10:25:36Z</time>
      </trkpt>
      <trkpt lat="45.38424" lon="6.80859">
        <ele>2469</ele>
        <time>2015-08-23T10:25:38Z</time>
      </trkpt>
      <trkpt lat="45.38429" lon="6.80853">
        <ele>2469</ele>
        <time>2015-08-23T10:25:39Z</time>
      </trkpt>
      <trkpt lat="45.38431" lon="6.8085">
        <ele>2469</ele>
        <time>2015-08-23T10:25:40Z</time>
      </trkpt>
      <trkpt lat="45.38433" lon="6.80847">
        <ele>2469</ele>
        <time>2015-08-23T10:25:41Z</time>
      </trkpt>
      <trkpt lat="45.38436" lon="6.80842">
        <ele>2469</ele>
        <time>2015-08-23T10:25:43Z</time>
      </trkpt>
      <trkpt lat="45.38438" lon="6.80837">
        <ele>2469</ele>
        <time>2015-08-23T10:25:45Z</time>
      </trkpt>
      <trkpt lat="45.38441" lon="6.80832">
        <ele>2467</ele>
        <time>2015-08-23T10:25:47Z</time>
      </trkpt>
      <trkpt lat="45.38442" lon="6.80827">
        <ele>2467</ele>
        <time>2015-08-23T10:25:49Z</time>
      </trkpt>
      <trkpt lat="45.38443" lon="6.80821">
        <ele>2467</ele>
        <time>2015-08-23T10:25:51Z</time>
      </trkpt>
      <trkpt lat="45.38443" lon="6.80815">
        <ele>2467</ele>
        <time>2015-08-23T10:25:53Z</time>
      </trkpt>
      <trkpt lat="45.38444" lon="6.80809">
        <ele>2467</ele>
        <time>2015-08-23T10:25:55Z</time>
      </trkpt>
      <trkpt lat="45.38445" lon="6.80802">
        <ele>2467</ele>
        <time>2015-08-23T10:25:58Z</time>
      </trkpt>
      <trkpt lat="45.38446" lon="6.80795">
        <ele>2467</ele>
        <time>2015-08-23T10:25:59Z</time>
      </trkpt>
      <trkpt lat="45.38447" lon="6.80792">
        <ele>2467</ele>
        <time>2015-08-23T10:26:00Z</time>
      </trkpt>
      <trkpt lat="45.38448" lon="6.80788">
        <ele>2467</ele>
        <time>2015-08-23T10:26:01Z</time>
      </trkpt>
      <trkpt lat="45.3845" lon="6.80781">
        <ele>2467</ele>
        <time>2015-08-23T10:26:04Z</time>
      </trkpt>
      <trkpt lat="45.38452" lon="6.80774">
        <ele>2467</ele>
        <time>2015-08-23T10:26:05Z</time>
      </trkpt>
      <trkpt lat="45.38453" lon="6.80768">
        <ele>2466</ele>
        <time>2015-08-23T10:26:07Z</time>
      </trkpt>
      <trkpt lat="45.38454" lon="6.80762">
        <ele>2466</ele>
        <time>2015-08-23T10:26:09Z</time>
      </trkpt>
      <trkpt lat="45.38456" lon="6.80755">
        <ele>2466</ele>
        <time>2015-08-23T10:26:11Z</time>
      </trkpt>
      <trkpt lat="45.38457" lon="6.80751">
        <ele>2466</ele>
        <time>2015-08-23T10:26:12Z</time>
      </trkpt>
      <trkpt lat="45.38458" lon="6.80748">
        <ele>2465</ele>
        <time>2015-08-23T10:26:13Z</time>
      </trkpt>
      <trkpt lat="45.38459" lon="6.80744">
        <ele>2465</ele>
        <time>2015-08-23T10:26:15Z</time>
      </trkpt>
      <trkpt lat="45.38461" lon="6.80738">
        <ele>2465</ele>
        <time>2015-08-23T10:26:17Z</time>
      </trkpt>
      <trkpt lat="45.38464" lon="6.80733">
        <ele>2465</ele>
        <time>2015-08-23T10:26:19Z</time>
      </trkpt>
      <trkpt lat="45.38467" lon="6.80728">
        <ele>2465</ele>
        <time>2015-08-23T10:26:20Z</time>
      </trkpt>
      <trkpt lat="45.3847" lon="6.80724">
        <ele>2466</ele>
        <time>2015-08-23T10:26:22Z</time>
      </trkpt>
      <trkpt lat="45.38474" lon="6.80719">
        <ele>2466</ele>
        <time>2015-08-23T10:26:24Z</time>
      </trkpt>
      <trkpt lat="45.38476" lon="6.80712">
        <ele>2466</ele>
        <time>2015-08-23T10:26:27Z</time>
      </trkpt>
      <trkpt lat="45.38476" lon="6.80706">
        <ele>2466</ele>
        <time>2015-08-23T10:26:30Z</time>
      </trkpt>
      <trkpt lat="45.38475" lon="6.80699">
        <ele>2466</ele>
        <time>2015-08-23T10:26:32Z</time>
      </trkpt>
      <trkpt lat="45.38476" lon="6.80695">
        <ele>2466</ele>
        <time>2015-08-23T10:26:35Z</time>
      </trkpt>
      <trkpt lat="45.38474" lon="6.80691">
        <ele>2466</ele>
        <time>2015-08-23T10:26:37Z</time>
      </trkpt>
      <trkpt lat="45.38472" lon="6.80686">
        <ele>2466</ele>
        <time>2015-08-23T10:26:39Z</time>
      </trkpt>
      <trkpt lat="45.38471" lon="6.80681">
        <ele>2466</ele>
        <time>2015-08-23T10:26:41Z</time>
      </trkpt>
      <trkpt lat="45.3847" lon="6.80677">
        <ele>2466</ele>
        <time>2015-08-23T10:26:45Z</time>
      </trkpt>
      <trkpt lat="45.3847" lon="6.80672">
        <ele>2466</ele>
        <time>2015-08-23T10:26:48Z</time>
      </trkpt>
      <trkpt lat="45.38471" lon="6.80665">
        <ele>2466</ele>
        <time>2015-08-23T10:26:51Z</time>
      </trkpt>
      <trkpt lat="45.38472" lon="6.8066">
        <ele>2466</ele>
        <time>2015-08-23T10:26:53Z</time>
      </trkpt>
      <trkpt lat="45.38474" lon="6.80656">
        <ele>2466</ele>
        <time>2015-08-23T10:26:55Z</time>
      </trkpt>
      <trkpt lat="45.38475" lon="6.80651">
        <ele>2466</ele>
        <time>2015-08-23T10:26:58Z</time>
      </trkpt>
      <trkpt lat="45.38476" lon="6.80646">
        <ele>2466</ele>
        <time>2015-08-23T10:27:00Z</time>
      </trkpt>
      <trkpt lat="45.38477" lon="6.80641">
        <ele>2466</ele>
        <time>2015-08-23T10:27:02Z</time>
      </trkpt>
      <trkpt lat="45.38482" lon="6.80631">
        <ele>2466</ele>
        <time>2015-08-23T10:27:06Z</time>
      </trkpt>
      <trkpt lat="45.38483" lon="6.80627">
        <ele>2466</ele>
        <time>2015-08-23T10:27:07Z</time>
      </trkpt>
      <trkpt lat="45.38485" lon="6.80621">
        <ele>2466</ele>
        <time>2015-08-23T10:27:09Z</time>
      </trkpt>
      <trkpt lat="45.38489" lon="6.8061">
        <ele>2467</ele>
        <time>2015-08-23T10:27:11Z</time>
      </trkpt>
      <trkpt lat="45.38491" lon="6.80606">
        <ele>2467</ele>
        <time>2015-08-23T10:27:12Z</time>
      </trkpt>
      <trkpt lat="45.38493" lon="6.80603">
        <ele>2467</ele>
        <time>2015-08-23T10:27:13Z</time>
      </trkpt>
      <trkpt lat="45.38496" lon="6.806">
        <ele>2467</ele>
        <time>2015-08-23T10:27:14Z</time>
      </trkpt>
      <trkpt lat="45.38498" lon="6.80597">
        <ele>2467</ele>
        <time>2015-08-23T10:27:15Z</time>
      </trkpt>
      <trkpt lat="45.38501" lon="6.80592">
        <ele>2470</ele>
        <time>2015-08-23T10:27:17Z</time>
      </trkpt>
      <trkpt lat="45.38501" lon="6.80587">
        <ele>2469</ele>
        <time>2015-08-23T10:27:19Z</time>
      </trkpt>
      <trkpt lat="45.38502" lon="6.80582">
        <ele>2469</ele>
        <time>2015-08-23T10:27:21Z</time>
      </trkpt>
      <trkpt lat="45.38503" lon="6.80577">
        <ele>2470</ele>
        <time>2015-08-23T10:27:23Z</time>
      </trkpt>
      <trkpt lat="45.38505" lon="6.80568">
        <ele>2471</ele>
        <time>2015-08-23T10:27:26Z</time>
      </trkpt>
      <trkpt lat="45.38506" lon="6.80562">
        <ele>2472</ele>
        <time>2015-08-23T10:27:28Z</time>
      </trkpt>
      <trkpt lat="45.38508" lon="6.80557">
        <ele>2473</ele>
        <time>2015-08-23T10:27:30Z</time>
      </trkpt>
      <trkpt lat="45.3851" lon="6.80553">
        <ele>2473</ele>
        <time>2015-08-23T10:27:32Z</time>
      </trkpt>
      <trkpt lat="45.3851" lon="6.80545">
        <ele>2473</ele>
        <time>2015-08-23T10:27:34Z</time>
      </trkpt>
      <trkpt lat="45.3851" lon="6.80539">
        <ele>2473</ele>
        <time>2015-08-23T10:27:36Z</time>
      </trkpt>
      <trkpt lat="45.38509" lon="6.80535">
        <ele>2473</ele>
        <time>2015-08-23T10:27:37Z</time>
      </trkpt>
      <trkpt lat="45.38509" lon="6.80528">
        <ele>2474</ele>
        <time>2015-08-23T10:27:39Z</time>
      </trkpt>
      <trkpt lat="45.38509" lon="6.80521">
        <ele>2473</ele>
        <time>2015-08-23T10:27:41Z</time>
      </trkpt>
      <trkpt lat="45.38507" lon="6.8051">
        <ele>2473</ele>
        <time>2015-08-23T10:27:44Z</time>
      </trkpt>
      <trkpt lat="45.38506" lon="6.80504">
        <ele>2473</ele>
        <time>2015-08-23T10:27:46Z</time>
      </trkpt>
      <trkpt lat="45.38506" lon="6.80498">
        <ele>2473</ele>
        <time>2015-08-23T10:27:48Z</time>
      </trkpt>
      <trkpt lat="45.38506" lon="6.80493">
        <ele>2473</ele>
        <time>2015-08-23T10:27:50Z</time>
      </trkpt>
      <trkpt lat="45.38508" lon="6.80488">
        <ele>2474</ele>
        <time>2015-08-23T10:27:52Z</time>
      </trkpt>
      <trkpt lat="45.3851" lon="6.80485">
        <ele>2474</ele>
        <time>2015-08-23T10:27:55Z</time>
      </trkpt>
      <trkpt lat="45.3851" lon="6.80481">
        <ele>2475</ele>
        <time>2015-08-23T10:27:59Z</time>
      </trkpt>
      <trkpt lat="45.38512" lon="6.80476">
        <ele>2475</ele>
        <time>2015-08-23T10:28:02Z</time>
      </trkpt>
      <trkpt lat="45.38515" lon="6.80473">
        <ele>2475</ele>
        <time>2015-08-23T10:28:04Z</time>
      </trkpt>
      <trkpt lat="45.38516" lon="6.80467">
        <ele>2475</ele>
        <time>2015-08-23T10:28:06Z</time>
      </trkpt>
      <trkpt lat="45.38515" lon="6.80462">
        <ele>2475</ele>
        <time>2015-08-23T10:28:07Z</time>
      </trkpt>
      <trkpt lat="45.38515" lon="6.80456">
        <ele>2475</ele>
        <time>2015-08-23T10:28:09Z</time>
      </trkpt>
      <trkpt lat="45.38517" lon="6.80451">
        <ele>2476</ele>
        <time>2015-08-23T10:28:10Z</time>
      </trkpt>
      <trkpt lat="45.38518" lon="6.80446">
        <ele>2476</ele>
        <time>2015-08-23T10:28:12Z</time>
      </trkpt>
      <trkpt lat="45.38518" lon="6.80442">
        <ele>2476</ele>
        <time>2015-08-23T10:28:14Z</time>
      </trkpt>
      <trkpt lat="45.38519" lon="6.80436">
        <ele>2476</ele>
        <time>2015-08-23T10:28:16Z</time>
      </trkpt>
      <trkpt lat="45.38517" lon="6.80433">
        <ele>2476</ele>
        <time>2015-08-23T10:28:20Z</time>
      </trkpt>
      <trkpt lat="45.38517" lon="6.80424">
        <ele>2476</ele>
        <time>2015-08-23T10:28:27Z</time>
      </trkpt>
      <trkpt lat="45.38517" lon="6.8042">
        <ele>2476</ele>
        <time>2015-08-23T10:28:29Z</time>
      </trkpt>
      <trkpt lat="45.38517" lon="6.80414">
        <ele>2476</ele>
        <time>2015-08-23T10:28:31Z</time>
      </trkpt>
      <trkpt lat="45.38519" lon="6.80408">
        <ele>2476</ele>
        <time>2015-08-23T10:28:33Z</time>
      </trkpt>
      <trkpt lat="45.38522" lon="6.80404">
        <ele>2477</ele>
        <time>2015-08-23T10:28:35Z</time>
      </trkpt>
      <trkpt lat="45.38525" lon="6.80401">
        <ele>2477</ele>
        <time>2015-08-23T10:28:36Z</time>
      </trkpt>
      <trkpt lat="45.38527" lon="6.80399">
        <ele>2477</ele>
        <time>2015-08-23T10:28:37Z</time>
      </trkpt>
      <trkpt lat="45.38529" lon="6.80396">
        <ele>2477</ele>
        <time>2015-08-23T10:28:38Z</time>
      </trkpt>
      <trkpt lat="45.38533" lon="6.8039">
        <ele>2477</ele>
        <time>2015-08-23T10:28:40Z</time>
      </trkpt>
      <trkpt lat="45.38536" lon="6.80386">
        <ele>2477</ele>
        <time>2015-08-23T10:28:41Z</time>
      </trkpt>
      <trkpt lat="45.38539" lon="6.80379">
        <ele>2477</ele>
        <time>2015-08-23T10:28:43Z</time>
      </trkpt>
      <trkpt lat="45.38541" lon="6.80374">
        <ele>2477</ele>
        <time>2015-08-23T10:28:44Z</time>
      </trkpt>
      <trkpt lat="45.38543" lon="6.80367">
        <ele>2477</ele>
        <time>2015-08-23T10:28:46Z</time>
      </trkpt>
      <trkpt lat="45.38544" lon="6.80363">
        <ele>2477</ele>
        <time>2015-08-23T10:28:47Z</time>
      </trkpt>
      <trkpt lat="45.38546" lon="6.80355">
        <ele>2477</ele>
        <time>2015-08-23T10:28:50Z</time>
      </trkpt>
      <trkpt lat="45.38549" lon="6.80345">
        <ele>2477</ele>
        <time>2015-08-23T10:28:52Z</time>
      </trkpt>
      <trkpt lat="45.38552" lon="6.80336">
        <ele>2477</ele>
        <time>2015-08-23T10:28:56Z</time>
      </trkpt>
      <trkpt lat="45.38552" lon="6.8033">
        <ele>2479</ele>
        <time>2015-08-23T10:28:57Z</time>
      </trkpt>
      <trkpt lat="45.38553" lon="6.80325">
        <ele>2479</ele>
        <time>2015-08-23T10:28:59Z</time>
      </trkpt>
      <trkpt lat="45.38555" lon="6.8032">
        <ele>2479</ele>
        <time>2015-08-23T10:29:01Z</time>
      </trkpt>
      <trkpt lat="45.38556" lon="6.80315">
        <ele>2479</ele>
        <time>2015-08-23T10:29:03Z</time>
      </trkpt>
      <trkpt lat="45.38558" lon="6.80308">
        <ele>2479</ele>
        <time>2015-08-23T10:29:05Z</time>
      </trkpt>
      <trkpt lat="45.38559" lon="6.80304">
        <ele>2479</ele>
        <time>2015-08-23T10:29:06Z</time>
      </trkpt>
      <trkpt lat="45.38561" lon="6.80297">
        <ele>2479</ele>
        <time>2015-08-23T10:29:08Z</time>
      </trkpt>
      <trkpt lat="45.38561" lon="6.80291">
        <ele>2479</ele>
        <time>2015-08-23T10:29:10Z</time>
      </trkpt>
      <trkpt lat="45.38564" lon="6.80284">
        <ele>2479</ele>
        <time>2015-08-23T10:29:12Z</time>
      </trkpt>
      <trkpt lat="45.38566" lon="6.80278">
        <ele>2479</ele>
        <time>2015-08-23T10:29:14Z</time>
      </trkpt>
      <trkpt lat="45.3857" lon="6.8027">
        <ele>2479</ele>
        <time>2015-08-23T10:29:17Z</time>
      </trkpt>
      <trkpt lat="45.38571" lon="6.80263">
        <ele>2479</ele>
        <time>2015-08-23T10:29:19Z</time>
      </trkpt>
      <trkpt lat="45.38573" lon="6.80257">
        <ele>2478</ele>
        <time>2015-08-23T10:29:21Z</time>
      </trkpt>
      <trkpt lat="45.38573" lon="6.80252">
        <ele>2478</ele>
        <time>2015-08-23T10:29:22Z</time>
      </trkpt>
      <trkpt lat="45.38574" lon="6.80249">
        <ele>2479</ele>
        <time>2015-08-23T10:29:23Z</time>
      </trkpt>
      <trkpt lat="45.38574" lon="6.80244">
        <ele>2479</ele>
        <time>2015-08-23T10:29:24Z</time>
      </trkpt>
      <trkpt lat="45.38574" lon="6.8024">
        <ele>2479</ele>
        <time>2015-08-23T10:29:25Z</time>
      </trkpt>
      <trkpt lat="45.38575" lon="6.80236">
        <ele>2480</ele>
        <time>2015-08-23T10:29:26Z</time>
      </trkpt>
      <trkpt lat="45.38575" lon="6.80232">
        <ele>2480</ele>
        <time>2015-08-23T10:29:27Z</time>
      </trkpt>
      <trkpt lat="45.38577" lon="6.80228">
        <ele>2480</ele>
        <time>2015-08-23T10:29:28Z</time>
      </trkpt>
      <trkpt lat="45.38578" lon="6.80225">
        <ele>2480</ele>
        <time>2015-08-23T10:29:29Z</time>
      </trkpt>
      <trkpt lat="45.38581" lon="6.80218">
        <ele>2480</ele>
        <time>2015-08-23T10:29:31Z</time>
      </trkpt>
      <trkpt lat="45.38583" lon="6.80212">
        <ele>2480</ele>
        <time>2015-08-23T10:29:33Z</time>
      </trkpt>
      <trkpt lat="45.38585" lon="6.80206">
        <ele>2480</ele>
        <time>2015-08-23T10:29:35Z</time>
      </trkpt>
      <trkpt lat="45.38585" lon="6.802">
        <ele>2480</ele>
        <time>2015-08-23T10:29:37Z</time>
      </trkpt>
      <trkpt lat="45.38586" lon="6.80193">
        <ele>2480</ele>
        <time>2015-08-23T10:29:39Z</time>
      </trkpt>
      <trkpt lat="45.38588" lon="6.80186">
        <ele>2480</ele>
        <time>2015-08-23T10:29:41Z</time>
      </trkpt>
      <trkpt lat="45.3859" lon="6.80178">
        <ele>2480</ele>
        <time>2015-08-23T10:29:43Z</time>
      </trkpt>
      <trkpt lat="45.38592" lon="6.80175">
        <ele>2480</ele>
        <time>2015-08-23T10:29:44Z</time>
      </trkpt>
      <trkpt lat="45.38593" lon="6.80171">
        <ele>2480</ele>
        <time>2015-08-23T10:29:45Z</time>
      </trkpt>
      <trkpt lat="45.38594" lon="6.80168">
        <ele>2480</ele>
        <time>2015-08-23T10:29:46Z</time>
      </trkpt>
      <trkpt lat="45.38595" lon="6.80164">
        <ele>2480</ele>
        <time>2015-08-23T10:29:47Z</time>
      </trkpt>
      <trkpt lat="45.38597" lon="6.8016">
        <ele>2480</ele>
        <time>2015-08-23T10:29:49Z</time>
      </trkpt>
      <trkpt lat="45.38599" lon="6.80155">
        <ele>2480</ele>
        <time>2015-08-23T10:29:50Z</time>
      </trkpt>
      <trkpt lat="45.38602" lon="6.8015">
        <ele>2480</ele>
        <time>2015-08-23T10:29:52Z</time>
      </trkpt>
      <trkpt lat="45.38604" lon="6.80145">
        <ele>2481</ele>
        <time>2015-08-23T10:29:54Z</time>
      </trkpt>
      <trkpt lat="45.38606" lon="6.8014">
        <ele>2481</ele>
        <time>2015-08-23T10:29:56Z</time>
      </trkpt>
      <trkpt lat="45.38609" lon="6.80132">
        <ele>2481</ele>
        <time>2015-08-23T10:29:59Z</time>
      </trkpt>
      <trkpt lat="45.38612" lon="6.80127">
        <ele>2481</ele>
        <time>2015-08-23T10:30:01Z</time>
      </trkpt>
      <trkpt lat="45.38614" lon="6.80124">
        <ele>2481</ele>
        <time>2015-08-23T10:30:02Z</time>
      </trkpt>
      <trkpt lat="45.38618" lon="6.80118">
        <ele>2481</ele>
        <time>2015-08-23T10:30:04Z</time>
      </trkpt>
      <trkpt lat="45.3862" lon="6.80115">
        <ele>2481</ele>
        <time>2015-08-23T10:30:05Z</time>
      </trkpt>
      <trkpt lat="45.38622" lon="6.80112">
        <ele>2481</ele>
        <time>2015-08-23T10:30:06Z</time>
      </trkpt>
      <trkpt lat="45.38624" lon="6.80108">
        <ele>2481</ele>
        <time>2015-08-23T10:30:07Z</time>
      </trkpt>
      <trkpt lat="45.38625" lon="6.80103">
        <ele>2481</ele>
        <time>2015-08-23T10:30:08Z</time>
      </trkpt>
      <trkpt lat="45.38628" lon="6.80096">
        <ele>2481</ele>
        <time>2015-08-23T10:30:10Z</time>
      </trkpt>
      <trkpt lat="45.38629" lon="6.80092">
        <ele>2481</ele>
        <time>2015-08-23T10:30:11Z</time>
      </trkpt>
      <trkpt lat="45.3863" lon="6.80087">
        <ele>2481</ele>
        <time>2015-08-23T10:30:12Z</time>
      </trkpt>
      <trkpt lat="45.38631" lon="6.80083">
        <ele>2485</ele>
        <time>2015-08-23T10:30:13Z</time>
      </trkpt>
      <trkpt lat="45.38631" lon="6.80079">
        <ele>2485</ele>
        <time>2015-08-23T10:30:14Z</time>
      </trkpt>
      <trkpt lat="45.38631" lon="6.80075">
        <ele>2485</ele>
        <time>2015-08-23T10:30:15Z</time>
      </trkpt>
      <trkpt lat="45.38632" lon="6.80068">
        <ele>2485</ele>
        <time>2015-08-23T10:30:17Z</time>
      </trkpt>
      <trkpt lat="45.38633" lon="6.80063">
        <ele>2485</ele>
        <time>2015-08-23T10:30:19Z</time>
      </trkpt>
      <trkpt lat="45.38635" lon="6.80058">
        <ele>2486</ele>
        <time>2015-08-23T10:30:21Z</time>
      </trkpt>
      <trkpt lat="45.38636" lon="6.80053">
        <ele>2486</ele>
        <time>2015-08-23T10:30:23Z</time>
      </trkpt>
      <trkpt lat="45.38638" lon="6.80047">
        <ele>2487</ele>
        <time>2015-08-23T10:30:25Z</time>
      </trkpt>
      <trkpt lat="45.38639" lon="6.80043">
        <ele>2487</ele>
        <time>2015-08-23T10:30:26Z</time>
      </trkpt>
      <trkpt lat="45.3864" lon="6.8004">
        <ele>2487</ele>
        <time>2015-08-23T10:30:27Z</time>
      </trkpt>
      <trkpt lat="45.38643" lon="6.80033">
        <ele>2488</ele>
        <time>2015-08-23T10:30:29Z</time>
      </trkpt>
      <trkpt lat="45.38645" lon="6.8003">
        <ele>2488</ele>
        <time>2015-08-23T10:30:30Z</time>
      </trkpt>
      <trkpt lat="45.38648" lon="6.80024">
        <ele>2488</ele>
        <time>2015-08-23T10:30:32Z</time>
      </trkpt>
      <trkpt lat="45.38649" lon="6.80018">
        <ele>2489</ele>
        <time>2015-08-23T10:30:35Z</time>
      </trkpt>
      <trkpt lat="45.38648" lon="6.80013">
        <ele>2489</ele>
        <time>2015-08-23T10:30:37Z</time>
      </trkpt>
      <trkpt lat="45.38647" lon="6.80009">
        <ele>2489</ele>
        <time>2015-08-23T10:30:40Z</time>
      </trkpt>
      <trkpt lat="45.38648" lon="6.80004">
        <ele>2490</ele>
        <time>2015-08-23T10:30:42Z</time>
      </trkpt>
      <trkpt lat="45.3865" lon="6.80001">
        <ele>2490</ele>
        <time>2015-08-23T10:30:44Z</time>
      </trkpt>
      <trkpt lat="45.38653" lon="6.80001">
        <ele>2490</ele>
        <time>2015-08-23T10:30:45Z</time>
      </trkpt>
      <trkpt lat="45.38658" lon="6.80001">
        <ele>2491</ele>
        <time>2015-08-23T10:30:47Z</time>
      </trkpt>
      <trkpt lat="45.38662" lon="6.80001">
        <ele>2491</ele>
        <time>2015-08-23T10:30:49Z</time>
      </trkpt>
      <trkpt lat="45.38662" lon="6.79997">
        <ele>2493</ele>
        <time>2015-08-23T10:30:54Z</time>
      </trkpt>
      <trkpt lat="45.38662" lon="6.79992">
        <ele>2494</ele>
        <time>2015-08-23T10:30:56Z</time>
      </trkpt>
      <trkpt lat="45.38664" lon="6.79988">
        <ele>2494</ele>
        <time>2015-08-23T10:30:59Z</time>
      </trkpt>
      <trkpt lat="45.38666" lon="6.79984">
        <ele>2495</ele>
        <time>2015-08-23T10:31:01Z</time>
      </trkpt>
      <trkpt lat="45.3867" lon="6.79977">
        <ele>2493</ele>
        <time>2015-08-23T10:31:05Z</time>
      </trkpt>
      <trkpt lat="45.38674" lon="6.79973">
        <ele>2493</ele>
        <time>2015-08-23T10:31:07Z</time>
      </trkpt>
      <trkpt lat="45.38678" lon="6.7997">
        <ele>2493</ele>
        <time>2015-08-23T10:31:09Z</time>
      </trkpt>
      <trkpt lat="45.38681" lon="6.79968">
        <ele>2493</ele>
        <time>2015-08-23T10:31:11Z</time>
      </trkpt>
      <trkpt lat="45.38683" lon="6.79965">
        <ele>2493</ele>
        <time>2015-08-23T10:31:13Z</time>
      </trkpt>
      <trkpt lat="45.38683" lon="6.7996">
        <ele>2493</ele>
        <time>2015-08-23T10:31:16Z</time>
      </trkpt>
      <trkpt lat="45.38682" lon="6.79955">
        <ele>2494</ele>
        <time>2015-08-23T10:31:18Z</time>
      </trkpt>
      <trkpt lat="45.38683" lon="6.7995">
        <ele>2494</ele>
        <time>2015-08-23T10:31:20Z</time>
      </trkpt>
      <trkpt lat="45.38684" lon="6.79946">
        <ele>2494</ele>
        <time>2015-08-23T10:31:25Z</time>
      </trkpt>
      <trkpt lat="45.38686" lon="6.79943">
        <ele>2494</ele>
        <time>2015-08-23T10:31:33Z</time>
      </trkpt>
      <trkpt lat="45.38689" lon="6.79941">
        <ele>2494</ele>
        <time>2015-08-23T10:31:36Z</time>
      </trkpt>
      <trkpt lat="45.38691" lon="6.79937">
        <ele>2494</ele>
        <time>2015-08-23T10:31:39Z</time>
      </trkpt>
      <trkpt lat="45.38692" lon="6.79934">
        <ele>2494</ele>
        <time>2015-08-23T10:31:42Z</time>
      </trkpt>
      <trkpt lat="45.38695" lon="6.79933">
        <ele>2494</ele>
        <time>2015-08-23T10:31:46Z</time>
      </trkpt>
      <trkpt lat="45.38698" lon="6.79932">
        <ele>2494</ele>
        <time>2015-08-23T10:31:50Z</time>
      </trkpt>
      <trkpt lat="45.38701" lon="6.7993">
        <ele>2494</ele>
        <time>2015-08-23T10:31:53Z</time>
      </trkpt>
      <trkpt lat="45.38703" lon="6.79925">
        <ele>2494</ele>
        <time>2015-08-23T10:31:56Z</time>
      </trkpt>
      <trkpt lat="45.38705" lon="6.79922">
        <ele>2494</ele>
        <time>2015-08-23T10:31:59Z</time>
      </trkpt>
      <trkpt lat="45.38706" lon="6.79918">
        <ele>2494</ele>
        <time>2015-08-23T10:32:02Z</time>
      </trkpt>
      <trkpt lat="45.38709" lon="6.79916">
        <ele>2497</ele>
        <time>2015-08-23T10:32:06Z</time>
      </trkpt>
      <trkpt lat="45.38711" lon="6.79914">
        <ele>2497</ele>
        <time>2015-08-23T10:32:15Z</time>
      </trkpt>
      <trkpt lat="45.38714" lon="6.7991">
        <ele>2497</ele>
        <time>2015-08-23T10:32:17Z</time>
      </trkpt>
      <trkpt lat="45.38716" lon="6.79906">
        <ele>2497</ele>
        <time>2015-08-23T10:32:18Z</time>
      </trkpt>
      <trkpt lat="45.38719" lon="6.79903">
        <ele>2497</ele>
        <time>2015-08-23T10:32:20Z</time>
      </trkpt>
      <trkpt lat="45.38722" lon="6.79899">
        <ele>2497</ele>
        <time>2015-08-23T10:32:21Z</time>
      </trkpt>
      <trkpt lat="45.38724" lon="6.79896">
        <ele>2497</ele>
        <time>2015-08-23T10:32:22Z</time>
      </trkpt>
      <trkpt lat="45.3873" lon="6.7989">
        <ele>2497</ele>
        <time>2015-08-23T10:32:23Z</time>
      </trkpt>
      <trkpt lat="45.38733" lon="6.79887">
        <ele>2497</ele>
        <time>2015-08-23T10:32:24Z</time>
      </trkpt>
      <trkpt lat="45.38735" lon="6.79884">
        <ele>2497</ele>
        <time>2015-08-23T10:32:25Z</time>
      </trkpt>
      <trkpt lat="45.38737" lon="6.79882">
        <ele>2497</ele>
        <time>2015-08-23T10:32:26Z</time>
      </trkpt>
      <trkpt lat="45.38741" lon="6.79878">
        <ele>2497</ele>
        <time>2015-08-23T10:32:28Z</time>
      </trkpt>
      <trkpt lat="45.38744" lon="6.79875">
        <ele>2497</ele>
        <time>2015-08-23T10:32:30Z</time>
      </trkpt>
      <trkpt lat="45.38748" lon="6.79871">
        <ele>2497</ele>
        <time>2015-08-23T10:32:32Z</time>
      </trkpt>
      <trkpt lat="45.38751" lon="6.79867">
        <ele>2493</ele>
        <time>2015-08-23T10:32:34Z</time>
      </trkpt>
      <trkpt lat="45.38754" lon="6.7986">
        <ele>2494</ele>
        <time>2015-08-23T10:32:36Z</time>
      </trkpt>
      <trkpt lat="45.38755" lon="6.79854">
        <ele>2494</ele>
        <time>2015-08-23T10:32:38Z</time>
      </trkpt>
      <trkpt lat="45.38758" lon="6.79847">
        <ele>2494</ele>
        <time>2015-08-23T10:32:40Z</time>
      </trkpt>
      <trkpt lat="45.38759" lon="6.79844">
        <ele>2494</ele>
        <time>2015-08-23T10:32:41Z</time>
      </trkpt>
      <trkpt lat="45.38762" lon="6.79837">
        <ele>2495</ele>
        <time>2015-08-23T10:32:43Z</time>
      </trkpt>
      <trkpt lat="45.38764" lon="6.79834">
        <ele>2494</ele>
        <time>2015-08-23T10:32:44Z</time>
      </trkpt>
      <trkpt lat="45.38765" lon="6.79831">
        <ele>2495</ele>
        <time>2015-08-23T10:32:45Z</time>
      </trkpt>
      <trkpt lat="45.38768" lon="6.79825">
        <ele>2495</ele>
        <time>2015-08-23T10:32:47Z</time>
      </trkpt>
      <trkpt lat="45.38771" lon="6.7982">
        <ele>2495</ele>
        <time>2015-08-23T10:32:49Z</time>
      </trkpt>
      <trkpt lat="45.38773" lon="6.79816">
        <ele>2495</ele>
        <time>2015-08-23T10:32:51Z</time>
      </trkpt>
      <trkpt lat="45.38776" lon="6.79811">
        <ele>2495</ele>
        <time>2015-08-23T10:32:53Z</time>
      </trkpt>
      <trkpt lat="45.3878" lon="6.79805">
        <ele>2495</ele>
        <time>2015-08-23T10:32:55Z</time>
      </trkpt>
      <trkpt lat="45.38782" lon="6.798">
        <ele>2495</ele>
        <time>2015-08-23T10:32:57Z</time>
      </trkpt>
      <trkpt lat="45.38785" lon="6.79792">
        <ele>2495</ele>
        <time>2015-08-23T10:33:00Z</time>
      </trkpt>
      <trkpt lat="45.38786" lon="6.79788">
        <ele>2495</ele>
        <time>2015-08-23T10:33:03Z</time>
      </trkpt>
      <trkpt lat="45.38788" lon="6.79784">
        <ele>2495</ele>
        <time>2015-08-23T10:33:05Z</time>
      </trkpt>
      <trkpt lat="45.38791" lon="6.79783">
        <ele>2495</ele>
        <time>2015-08-23T10:33:06Z</time>
      </trkpt>
      <trkpt lat="45.38793" lon="6.79781">
        <ele>2495</ele>
        <time>2015-08-23T10:33:07Z</time>
      </trkpt>
      <trkpt lat="45.38796" lon="6.79778">
        <ele>2495</ele>
        <time>2015-08-23T10:33:08Z</time>
      </trkpt>
      <trkpt lat="45.38799" lon="6.79775">
        <ele>2495</ele>
        <time>2015-08-23T10:33:09Z</time>
      </trkpt>
      <trkpt lat="45.38801" lon="6.79773">
        <ele>2495</ele>
        <time>2015-08-23T10:33:10Z</time>
      </trkpt>
      <trkpt lat="45.38804" lon="6.79771">
        <ele>2495</ele>
        <time>2015-08-23T10:33:11Z</time>
      </trkpt>
      <trkpt lat="45.38807" lon="6.79768">
        <ele>2495</ele>
        <time>2015-08-23T10:33:12Z</time>
      </trkpt>
      <trkpt lat="45.3881" lon="6.79766">
        <ele>2495</ele>
        <time>2015-08-23T10:33:13Z</time>
      </trkpt>
      <trkpt lat="45.38814" lon="6.79765">
        <ele>2495</ele>
        <time>2015-08-23T10:33:14Z</time>
      </trkpt>
      <trkpt lat="45.38817" lon="6.79765">
        <ele>2495</ele>
        <time>2015-08-23T10:33:15Z</time>
      </trkpt>
      <trkpt lat="45.3882" lon="6.79763">
        <ele>2495</ele>
        <time>2015-08-23T10:33:16Z</time>
      </trkpt>
      <trkpt lat="45.38823" lon="6.79764">
        <ele>2494</ele>
        <time>2015-08-23T10:33:17Z</time>
      </trkpt>
      <trkpt lat="45.38826" lon="6.79762">
        <ele>2494</ele>
        <time>2015-08-23T10:33:18Z</time>
      </trkpt>
      <trkpt lat="45.38831" lon="6.79761">
        <ele>2494</ele>
        <time>2015-08-23T10:33:20Z</time>
      </trkpt>
      <trkpt lat="45.38836" lon="6.7976">
        <ele>2495</ele>
        <time>2015-08-23T10:33:22Z</time>
      </trkpt>
      <trkpt lat="45.38841" lon="6.79759">
        <ele>2495</ele>
        <time>2015-08-23T10:33:24Z</time>
      </trkpt>
      <trkpt lat="45.38846" lon="6.79756">
        <ele>2495</ele>
        <time>2015-08-23T10:33:26Z</time>
      </trkpt>
      <trkpt lat="45.38848" lon="6.79751">
        <ele>2496</ele>
        <time>2015-08-23T10:33:28Z</time>
      </trkpt>
      <trkpt lat="45.38852" lon="6.79748">
        <ele>2497</ele>
        <time>2015-08-23T10:33:30Z</time>
      </trkpt>
      <trkpt lat="45.38854" lon="6.79744">
        <ele>2497</ele>
        <time>2015-08-23T10:33:32Z</time>
      </trkpt>
      <trkpt lat="45.38856" lon="6.79741">
        <ele>2497</ele>
        <time>2015-08-23T10:33:34Z</time>
      </trkpt>
      <trkpt lat="45.38858" lon="6.79739">
        <ele>2497</ele>
        <time>2015-08-23T10:33:35Z</time>
      </trkpt>
      <trkpt lat="45.38861" lon="6.79737">
        <ele>2498</ele>
        <time>2015-08-23T10:33:36Z</time>
      </trkpt>
      <trkpt lat="45.38865" lon="6.79735">
        <ele>2498</ele>
        <time>2015-08-23T10:33:37Z</time>
      </trkpt>
      <trkpt lat="45.38868" lon="6.79733">
        <ele>2498</ele>
        <time>2015-08-23T10:33:38Z</time>
      </trkpt>
      <trkpt lat="45.38871" lon="6.79731">
        <ele>2499</ele>
        <time>2015-08-23T10:33:39Z</time>
      </trkpt>
      <trkpt lat="45.38873" lon="6.79726">
        <ele>2499</ele>
        <time>2015-08-23T10:33:41Z</time>
      </trkpt>
      <trkpt lat="45.38873" lon="6.79722">
        <ele>2499</ele>
        <time>2015-08-23T10:33:45Z</time>
      </trkpt>
      <trkpt lat="45.38873" lon="6.79717">
        <ele>2499</ele>
        <time>2015-08-23T10:33:49Z</time>
      </trkpt>
      <trkpt lat="45.38874" lon="6.79715">
        <ele>2499</ele>
        <time>2015-08-23T10:33:50Z</time>
      </trkpt>
      <trkpt lat="45.38876" lon="6.79711">
        <ele>2499</ele>
        <time>2015-08-23T10:33:53Z</time>
      </trkpt>
      <trkpt lat="45.38878" lon="6.79707">
        <ele>2499</ele>
        <time>2015-08-23T10:33:55Z</time>
      </trkpt>
      <trkpt lat="45.3888" lon="6.79704">
        <ele>2499</ele>
        <time>2015-08-23T10:34:00Z</time>
      </trkpt>
      <trkpt lat="45.38882" lon="6.79701">
        <ele>2499</ele>
        <time>2015-08-23T10:34:01Z</time>
      </trkpt>
      <trkpt lat="45.38883" lon="6.79696">
        <ele>2499</ele>
        <time>2015-08-23T10:34:03Z</time>
      </trkpt>
      <trkpt lat="45.38882" lon="6.79693">
        <ele>2499</ele>
        <time>2015-08-23T10:34:04Z</time>
      </trkpt>
      <trkpt lat="45.38883" lon="6.79688">
        <ele>2499</ele>
        <time>2015-08-23T10:34:06Z</time>
      </trkpt>
      <trkpt lat="45.38886" lon="6.79684">
        <ele>2499</ele>
        <time>2015-08-23T10:34:08Z</time>
      </trkpt>
      <trkpt lat="45.38888" lon="6.79681">
        <ele>2500</ele>
        <time>2015-08-23T10:34:11Z</time>
      </trkpt>
      <trkpt lat="45.38887" lon="6.79677">
        <ele>2499</ele>
        <time>2015-08-23T10:34:16Z</time>
      </trkpt>
      <trkpt lat="45.38888" lon="6.79674">
        <ele>2500</ele>
        <time>2015-08-23T10:34:19Z</time>
      </trkpt>
      <trkpt lat="45.38894" lon="6.7967">
        <ele>2500</ele>
        <time>2015-08-23T10:34:22Z</time>
      </trkpt>
      <trkpt lat="45.38897" lon="6.79669">
        <ele>2501</ele>
        <time>2015-08-23T10:34:23Z</time>
      </trkpt>
      <trkpt lat="45.38903" lon="6.79667">
        <ele>2501</ele>
        <time>2015-08-23T10:34:25Z</time>
      </trkpt>
      <trkpt lat="45.38907" lon="6.79666">
        <ele>2501</ele>
        <time>2015-08-23T10:34:26Z</time>
      </trkpt>
      <trkpt lat="45.38911" lon="6.79663">
        <ele>2501</ele>
        <time>2015-08-23T10:34:28Z</time>
      </trkpt>
      <trkpt lat="45.38912" lon="6.79658">
        <ele>2501</ele>
        <time>2015-08-23T10:34:31Z</time>
      </trkpt>
      <trkpt lat="45.38914" lon="6.79656">
        <ele>2500</ele>
        <time>2015-08-23T10:34:33Z</time>
      </trkpt>
      <trkpt lat="45.38917" lon="6.79655">
        <ele>2505</ele>
        <time>2015-08-23T10:34:34Z</time>
      </trkpt>
      <trkpt lat="45.3892" lon="6.79654">
        <ele>2505</ele>
        <time>2015-08-23T10:34:35Z</time>
      </trkpt>
      <trkpt lat="45.38922" lon="6.79653">
        <ele>2505</ele>
        <time>2015-08-23T10:34:36Z</time>
      </trkpt>
      <trkpt lat="45.38927" lon="6.7965">
        <ele>2505</ele>
        <time>2015-08-23T10:34:38Z</time>
      </trkpt>
      <trkpt lat="45.3893" lon="6.79647">
        <ele>2506</ele>
        <time>2015-08-23T10:34:40Z</time>
      </trkpt>
      <trkpt lat="45.38932" lon="6.79644">
        <ele>2506</ele>
        <time>2015-08-23T10:34:43Z</time>
      </trkpt>
      <trkpt lat="45.38935" lon="6.79641">
        <ele>2506</ele>
        <time>2015-08-23T10:34:47Z</time>
      </trkpt>
      <trkpt lat="45.38937" lon="6.79637">
        <ele>2506</ele>
        <time>2015-08-23T10:34:52Z</time>
      </trkpt>
      <trkpt lat="45.3894" lon="6.79636">
        <ele>2507</ele>
        <time>2015-08-23T10:34:55Z</time>
      </trkpt>
      <trkpt lat="45.38945" lon="6.79635">
        <ele>2507</ele>
        <time>2015-08-23T10:34:58Z</time>
      </trkpt>
      <trkpt lat="45.3895" lon="6.79631">
        <ele>2508</ele>
        <time>2015-08-23T10:35:01Z</time>
      </trkpt>
      <trkpt lat="45.38954" lon="6.79626">
        <ele>2508</ele>
        <time>2015-08-23T10:35:03Z</time>
      </trkpt>
      <trkpt lat="45.38957" lon="6.79622">
        <ele>2508</ele>
        <time>2015-08-23T10:35:05Z</time>
      </trkpt>
      <trkpt lat="45.38959" lon="6.79616">
        <ele>2508</ele>
        <time>2015-08-23T10:35:07Z</time>
      </trkpt>
      <trkpt lat="45.3896" lon="6.7961">
        <ele>2508</ele>
        <time>2015-08-23T10:35:09Z</time>
      </trkpt>
      <trkpt lat="45.38963" lon="6.79607">
        <ele>2509</ele>
        <time>2015-08-23T10:35:11Z</time>
      </trkpt>
      <trkpt lat="45.38966" lon="6.79604">
        <ele>2509</ele>
        <time>2015-08-23T10:35:13Z</time>
      </trkpt>
      <trkpt lat="45.38967" lon="6.796">
        <ele>2509</ele>
        <time>2015-08-23T10:35:15Z</time>
      </trkpt>
      <trkpt lat="45.38968" lon="6.79595">
        <ele>2510</ele>
        <time>2015-08-23T10:35:17Z</time>
      </trkpt>
      <trkpt lat="45.38969" lon="6.79591">
        <ele>2510</ele>
        <time>2015-08-23T10:35:21Z</time>
      </trkpt>
      <trkpt lat="45.3897" lon="6.79588">
        <ele>2510</ele>
        <time>2015-08-23T10:35:24Z</time>
      </trkpt>
      <trkpt lat="45.38971" lon="6.79584">
        <ele>2510</ele>
        <time>2015-08-23T10:35:28Z</time>
      </trkpt>
      <trkpt lat="45.38971" lon="6.79579">
        <ele>2509</ele>
        <time>2015-08-23T10:35:32Z</time>
      </trkpt>
      <trkpt lat="45.38972" lon="6.79576">
        <ele>2510</ele>
        <time>2015-08-23T10:35:35Z</time>
      </trkpt>
      <trkpt lat="45.38973" lon="6.79571">
        <ele>2510</ele>
        <time>2015-08-23T10:35:36Z</time>
      </trkpt>
      <trkpt lat="45.38973" lon="6.79565">
        <ele>2509</ele>
        <time>2015-08-23T10:35:38Z</time>
      </trkpt>
      <trkpt lat="45.38975" lon="6.7956">
        <ele>2509</ele>
        <time>2015-08-23T10:35:41Z</time>
      </trkpt>
      <trkpt lat="45.38976" lon="6.79555">
        <ele>2509</ele>
        <time>2015-08-23T10:35:42Z</time>
      </trkpt>
      <trkpt lat="45.38977" lon="6.7955">
        <ele>2509</ele>
        <time>2015-08-23T10:35:44Z</time>
      </trkpt>
      <trkpt lat="45.38977" lon="6.79546">
        <ele>2509</ele>
        <time>2015-08-23T10:35:46Z</time>
      </trkpt>
      <trkpt lat="45.38978" lon="6.79541">
        <ele>2509</ele>
        <time>2015-08-23T10:35:49Z</time>
      </trkpt>
      <trkpt lat="45.38978" lon="6.79538">
        <ele>2509</ele>
        <time>2015-08-23T10:35:51Z</time>
      </trkpt>
      <trkpt lat="45.38979" lon="6.79534">
        <ele>2509</ele>
        <time>2015-08-23T10:35:53Z</time>
      </trkpt>
      <trkpt lat="45.38982" lon="6.7953">
        <ele>2510</ele>
        <time>2015-08-23T10:35:55Z</time>
      </trkpt>
      <trkpt lat="45.38986" lon="6.79525">
        <ele>2510</ele>
        <time>2015-08-23T10:35:57Z</time>
      </trkpt>
      <trkpt lat="45.38989" lon="6.79524">
        <ele>2511</ele>
        <time>2015-08-23T10:35:58Z</time>
      </trkpt>
      <trkpt lat="45.38992" lon="6.79519">
        <ele>2511</ele>
        <time>2015-08-23T10:36:00Z</time>
      </trkpt>
      <trkpt lat="45.38992" lon="6.79515">
        <ele>2512</ele>
        <time>2015-08-23T10:36:05Z</time>
      </trkpt>
      <trkpt lat="45.38994" lon="6.79512">
        <ele>2512</ele>
        <time>2015-08-23T10:36:08Z</time>
      </trkpt>
      <trkpt lat="45.38996" lon="6.7951">
        <ele>2513</ele>
        <time>2015-08-23T10:36:10Z</time>
      </trkpt>
      <trkpt lat="45.38999" lon="6.79507">
        <ele>2514</ele>
        <time>2015-08-23T10:36:13Z</time>
      </trkpt>
      <trkpt lat="45.39002" lon="6.79504">
        <ele>2517</ele>
        <time>2015-08-23T10:36:17Z</time>
      </trkpt>
      <trkpt lat="45.39005" lon="6.79501">
        <ele>2517</ele>
        <time>2015-08-23T10:36:19Z</time>
      </trkpt>
      <trkpt lat="45.39008" lon="6.795">
        <ele>2516</ele>
        <time>2015-08-23T10:36:20Z</time>
      </trkpt>
      <trkpt lat="45.39011" lon="6.79498">
        <ele>2517</ele>
        <time>2015-08-23T10:36:22Z</time>
      </trkpt>
      <trkpt lat="45.39014" lon="6.79496">
        <ele>2517</ele>
        <time>2015-08-23T10:36:25Z</time>
      </trkpt>
      <trkpt lat="45.39016" lon="6.79493">
        <ele>2517</ele>
        <time>2015-08-23T10:36:27Z</time>
      </trkpt>
      <trkpt lat="45.39019" lon="6.7949">
        <ele>2517</ele>
        <time>2015-08-23T10:36:29Z</time>
      </trkpt>
      <trkpt lat="45.39021" lon="6.79485">
        <ele>2517</ele>
        <time>2015-08-23T10:36:30Z</time>
      </trkpt>
      <trkpt lat="45.39024" lon="6.79481">
        <ele>2517</ele>
        <time>2015-08-23T10:36:32Z</time>
      </trkpt>
      <trkpt lat="45.39027" lon="6.79477">
        <ele>2517</ele>
        <time>2015-08-23T10:36:34Z</time>
      </trkpt>
      <trkpt lat="45.39032" lon="6.79473">
        <ele>2517</ele>
        <time>2015-08-23T10:36:37Z</time>
      </trkpt>
      <trkpt lat="45.39036" lon="6.79471">
        <ele>2518</ele>
        <time>2015-08-23T10:36:39Z</time>
      </trkpt>
      <trkpt lat="45.39041" lon="6.79468">
        <ele>2518</ele>
        <time>2015-08-23T10:36:41Z</time>
      </trkpt>
      <trkpt lat="45.39045" lon="6.79466">
        <ele>2518</ele>
        <time>2015-08-23T10:36:43Z</time>
      </trkpt>
      <trkpt lat="45.3905" lon="6.79466">
        <ele>2518</ele>
        <time>2015-08-23T10:36:45Z</time>
      </trkpt>
      <trkpt lat="45.39056" lon="6.79464">
        <ele>2518</ele>
        <time>2015-08-23T10:36:47Z</time>
      </trkpt>
      <trkpt lat="45.39059" lon="6.79463">
        <ele>2518</ele>
        <time>2015-08-23T10:36:48Z</time>
      </trkpt>
      <trkpt lat="45.39061" lon="6.79462">
        <ele>2519</ele>
        <time>2015-08-23T10:36:49Z</time>
      </trkpt>
      <trkpt lat="45.39065" lon="6.79458">
        <ele>2519</ele>
        <time>2015-08-23T10:36:51Z</time>
      </trkpt>
      <trkpt lat="45.39069" lon="6.79455">
        <ele>2519</ele>
        <time>2015-08-23T10:36:53Z</time>
      </trkpt>
      <trkpt lat="45.39072" lon="6.79451">
        <ele>2518</ele>
        <time>2015-08-23T10:36:56Z</time>
      </trkpt>
      <trkpt lat="45.39075" lon="6.79446">
        <ele>2518</ele>
        <time>2015-08-23T10:36:57Z</time>
      </trkpt>
      <trkpt lat="45.39079" lon="6.79441">
        <ele>2518</ele>
        <time>2015-08-23T10:36:59Z</time>
      </trkpt>
      <trkpt lat="45.39082" lon="6.79439">
        <ele>2518</ele>
        <time>2015-08-23T10:37:00Z</time>
      </trkpt>
      <trkpt lat="45.39085" lon="6.79437">
        <ele>2522</ele>
        <time>2015-08-23T10:37:01Z</time>
      </trkpt>
      <trkpt lat="45.39088" lon="6.79435">
        <ele>2522</ele>
        <time>2015-08-23T10:37:02Z</time>
      </trkpt>
      <trkpt lat="45.3909" lon="6.79433">
        <ele>2521</ele>
        <time>2015-08-23T10:37:03Z</time>
      </trkpt>
      <trkpt lat="45.39092" lon="6.79431">
        <ele>2521</ele>
        <time>2015-08-23T10:37:04Z</time>
      </trkpt>
      <trkpt lat="45.39095" lon="6.79428">
        <ele>2521</ele>
        <time>2015-08-23T10:37:05Z</time>
      </trkpt>
      <trkpt lat="45.39099" lon="6.79425">
        <ele>2522</ele>
        <time>2015-08-23T10:37:07Z</time>
      </trkpt>
      <trkpt lat="45.39104" lon="6.79422">
        <ele>2522</ele>
        <time>2015-08-23T10:37:09Z</time>
      </trkpt>
      <trkpt lat="45.39108" lon="6.79418">
        <ele>2522</ele>
        <time>2015-08-23T10:37:11Z</time>
      </trkpt>
      <trkpt lat="45.39112" lon="6.79413">
        <ele>2519</ele>
        <time>2015-08-23T10:37:13Z</time>
      </trkpt>
      <trkpt lat="45.39114" lon="6.79407">
        <ele>2519</ele>
        <time>2015-08-23T10:37:15Z</time>
      </trkpt>
      <trkpt lat="45.39117" lon="6.79403">
        <ele>2519</ele>
        <time>2015-08-23T10:37:17Z</time>
      </trkpt>
      <trkpt lat="45.39121" lon="6.79399">
        <ele>2519</ele>
        <time>2015-08-23T10:37:19Z</time>
      </trkpt>
      <trkpt lat="45.39124" lon="6.79393">
        <ele>2519</ele>
        <time>2015-08-23T10:37:21Z</time>
      </trkpt>
      <trkpt lat="45.39127" lon="6.79387">
        <ele>2519</ele>
        <time>2015-08-23T10:37:23Z</time>
      </trkpt>
      <trkpt lat="45.39129" lon="6.79381">
        <ele>2519</ele>
        <time>2015-08-23T10:37:25Z</time>
      </trkpt>
      <trkpt lat="45.3913" lon="6.79374">
        <ele>2519</ele>
        <time>2015-08-23T10:37:27Z</time>
      </trkpt>
      <trkpt lat="45.39133" lon="6.79368">
        <ele>2519</ele>
        <time>2015-08-23T10:37:29Z</time>
      </trkpt>
      <trkpt lat="45.39135" lon="6.79361">
        <ele>2519</ele>
        <time>2015-08-23T10:37:31Z</time>
      </trkpt>
      <trkpt lat="45.39136" lon="6.79358">
        <ele>2519</ele>
        <time>2015-08-23T10:37:32Z</time>
      </trkpt>
      <trkpt lat="45.39139" lon="6.79351">
        <ele>2519</ele>
        <time>2015-08-23T10:37:34Z</time>
      </trkpt>
      <trkpt lat="45.39141" lon="6.79345">
        <ele>2519</ele>
        <time>2015-08-23T10:37:36Z</time>
      </trkpt>
      <trkpt lat="45.39143" lon="6.79342">
        <ele>2519</ele>
        <time>2015-08-23T10:37:37Z</time>
      </trkpt>
      <trkpt lat="45.39144" lon="6.79339">
        <ele>2519</ele>
        <time>2015-08-23T10:37:38Z</time>
      </trkpt>
      <trkpt lat="45.39147" lon="6.79333">
        <ele>2518</ele>
        <time>2015-08-23T10:37:40Z</time>
      </trkpt>
      <trkpt lat="45.39149" lon="6.79327">
        <ele>2518</ele>
        <time>2015-08-23T10:37:42Z</time>
      </trkpt>
      <trkpt lat="45.39151" lon="6.79321">
        <ele>2518</ele>
        <time>2015-08-23T10:37:44Z</time>
      </trkpt>
      <trkpt lat="45.39153" lon="6.79314">
        <ele>2518</ele>
        <time>2015-08-23T10:37:46Z</time>
      </trkpt>
      <trkpt lat="45.39155" lon="6.79308">
        <ele>2518</ele>
        <time>2015-08-23T10:37:48Z</time>
      </trkpt>
      <trkpt lat="45.39157" lon="6.79301">
        <ele>2518</ele>
        <time>2015-08-23T10:37:50Z</time>
      </trkpt>
      <trkpt lat="45.39159" lon="6.79298">
        <ele>2518</ele>
        <time>2015-08-23T10:37:51Z</time>
      </trkpt>
      <trkpt lat="45.39161" lon="6.79295">
        <ele>2518</ele>
        <time>2015-08-23T10:37:52Z</time>
      </trkpt>
      <trkpt lat="45.39163" lon="6.79292">
        <ele>2518</ele>
        <time>2015-08-23T10:37:53Z</time>
      </trkpt>
      <trkpt lat="45.39165" lon="6.79289">
        <ele>2518</ele>
        <time>2015-08-23T10:37:54Z</time>
      </trkpt>
      <trkpt lat="45.39167" lon="6.79285">
        <ele>2518</ele>
        <time>2015-08-23T10:37:55Z</time>
      </trkpt>
      <trkpt lat="45.39169" lon="6.79282">
        <ele>2518</ele>
        <time>2015-08-23T10:37:56Z</time>
      </trkpt>
      <trkpt lat="45.39171" lon="6.79279">
        <ele>2518</ele>
        <time>2015-08-23T10:37:57Z</time>
      </trkpt>
      <trkpt lat="45.39172" lon="6.79276">
        <ele>2518</ele>
        <time>2015-08-23T10:37:58Z</time>
      </trkpt>
      <trkpt lat="45.39176" lon="6.7927">
        <ele>2518</ele>
        <time>2015-08-23T10:38:00Z</time>
      </trkpt>
      <trkpt lat="45.39179" lon="6.79264">
        <ele>2518</ele>
        <time>2015-08-23T10:38:02Z</time>
      </trkpt>
      <trkpt lat="45.39182" lon="6.79259">
        <ele>2518</ele>
        <time>2015-08-23T10:38:04Z</time>
      </trkpt>
      <trkpt lat="45.39184" lon="6.79254">
        <ele>2518</ele>
        <time>2015-08-23T10:38:06Z</time>
      </trkpt>
      <trkpt lat="45.39185" lon="6.79249">
        <ele>2517</ele>
        <time>2015-08-23T10:38:08Z</time>
      </trkpt>
      <trkpt lat="45.39186" lon="6.79243">
        <ele>2517</ele>
        <time>2015-08-23T10:38:10Z</time>
      </trkpt>
      <trkpt lat="45.39187" lon="6.79238">
        <ele>2517</ele>
        <time>2015-08-23T10:38:12Z</time>
      </trkpt>
      <trkpt lat="45.39187" lon="6.79232">
        <ele>2517</ele>
        <time>2015-08-23T10:38:14Z</time>
      </trkpt>
      <trkpt lat="45.39189" lon="6.79226">
        <ele>2517</ele>
        <time>2015-08-23T10:38:16Z</time>
      </trkpt>
      <trkpt lat="45.39192" lon="6.79221">
        <ele>2517</ele>
        <time>2015-08-23T10:38:18Z</time>
      </trkpt>
      <trkpt lat="45.39194" lon="6.79215">
        <ele>2516</ele>
        <time>2015-08-23T10:38:20Z</time>
      </trkpt>
      <trkpt lat="45.39197" lon="6.79208">
        <ele>2516</ele>
        <time>2015-08-23T10:38:22Z</time>
      </trkpt>
      <trkpt lat="45.39199" lon="6.79204">
        <ele>2516</ele>
        <time>2015-08-23T10:38:23Z</time>
      </trkpt>
      <trkpt lat="45.39201" lon="6.79201">
        <ele>2516</ele>
        <time>2015-08-23T10:38:24Z</time>
      </trkpt>
      <trkpt lat="45.39203" lon="6.79197">
        <ele>2516</ele>
        <time>2015-08-23T10:38:25Z</time>
      </trkpt>
      <trkpt lat="45.39204" lon="6.79193">
        <ele>2516</ele>
        <time>2015-08-23T10:38:26Z</time>
      </trkpt>
      <trkpt lat="45.39206" lon="6.7919">
        <ele>2516</ele>
        <time>2015-08-23T10:38:27Z</time>
      </trkpt>
      <trkpt lat="45.39208" lon="6.79186">
        <ele>2516</ele>
        <time>2015-08-23T10:38:28Z</time>
      </trkpt>
      <trkpt lat="45.39207" lon="6.7918">
        <ele>2516</ele>
        <time>2015-08-23T10:38:29Z</time>
      </trkpt>
      <trkpt lat="45.39207" lon="6.79175">
        <ele>2516</ele>
        <time>2015-08-23T10:38:30Z</time>
      </trkpt>
      <trkpt lat="45.39206" lon="6.79171">
        <ele>2516</ele>
        <time>2015-08-23T10:38:31Z</time>
      </trkpt>
      <trkpt lat="45.39206" lon="6.79164">
        <ele>2514</ele>
        <time>2015-08-23T10:38:33Z</time>
      </trkpt>
      <trkpt lat="45.39206" lon="6.79159">
        <ele>2514</ele>
        <time>2015-08-23T10:38:35Z</time>
      </trkpt>
      <trkpt lat="45.39206" lon="6.79153">
        <ele>2514</ele>
        <time>2015-08-23T10:38:37Z</time>
      </trkpt>
      <trkpt lat="45.39207" lon="6.79147">
        <ele>2514</ele>
        <time>2015-08-23T10:38:39Z</time>
      </trkpt>
      <trkpt lat="45.39207" lon="6.79142">
        <ele>2514</ele>
        <time>2015-08-23T10:38:42Z</time>
      </trkpt>
      <trkpt lat="45.39205" lon="6.79139">
        <ele>2514</ele>
        <time>2015-08-23T10:38:46Z</time>
      </trkpt>
      <trkpt lat="45.39206" lon="6.79133">
        <ele>2514</ele>
        <time>2015-08-23T10:39:01Z</time>
      </trkpt>
      <trkpt lat="45.39207" lon="6.79126">
        <ele>2514</ele>
        <time>2015-08-23T10:39:03Z</time>
      </trkpt>
      <trkpt lat="45.39206" lon="6.7912">
        <ele>2513</ele>
        <time>2015-08-23T10:39:05Z</time>
      </trkpt>
      <trkpt lat="45.39204" lon="6.79115">
        <ele>2513</ele>
        <time>2015-08-23T10:39:07Z</time>
      </trkpt>
      <trkpt lat="45.39201" lon="6.79111">
        <ele>2513</ele>
        <time>2015-08-23T10:39:09Z</time>
      </trkpt>
      <trkpt lat="45.392" lon="6.79106">
        <ele>2513</ele>
        <time>2015-08-23T10:39:14Z</time>
      </trkpt>
      <trkpt lat="45.39198" lon="6.79103">
        <ele>2513</ele>
        <time>2015-08-23T10:39:22Z</time>
      </trkpt>
      <trkpt lat="45.39199" lon="6.79107">
        <ele>2513</ele>
        <time>2015-08-23T10:39:30Z</time>
      </trkpt>
      <trkpt lat="45.392" lon="6.791">
        <ele>2513</ele>
        <time>2015-08-23T10:40:15Z</time>
      </trkpt>
      <trkpt lat="45.39207" lon="6.79102">
        <ele>2513</ele>
        <time>2015-08-23T10:40:18Z</time>
      </trkpt>
      <trkpt lat="45.39216" lon="6.79105">
        <ele>2513</ele>
        <time>2015-08-23T10:40:23Z</time>
      </trkpt>
      <trkpt lat="45.39219" lon="6.79104">
        <ele>2513</ele>
        <time>2015-08-23T10:40:26Z</time>
      </trkpt>
      <trkpt lat="45.39221" lon="6.79104">
        <ele>2513</ele>
        <time>2015-08-23T10:40:29Z</time>
      </trkpt>
      <trkpt lat="45.39224" lon="6.79104">
        <ele>2513</ele>
        <time>2015-08-23T10:40:30Z</time>
      </trkpt>
      <trkpt lat="45.39227" lon="6.79103">
        <ele>2513</ele>
        <time>2015-08-23T10:40:31Z</time>
      </trkpt>
      <trkpt lat="45.3923" lon="6.79102">
        <ele>2513</ele>
        <time>2015-08-23T10:40:32Z</time>
      </trkpt>
      <trkpt lat="45.39233" lon="6.791">
        <ele>2513</ele>
        <time>2015-08-23T10:40:33Z</time>
      </trkpt>
      <trkpt lat="45.39236" lon="6.79098">
        <ele>2513</ele>
        <time>2015-08-23T10:40:34Z</time>
      </trkpt>
      <trkpt lat="45.39239" lon="6.79094">
        <ele>2513</ele>
        <time>2015-08-23T10:40:35Z</time>
      </trkpt>
      <trkpt lat="45.39242" lon="6.79091">
        <ele>2512</ele>
        <time>2015-08-23T10:40:36Z</time>
      </trkpt>
      <trkpt lat="45.39245" lon="6.79088">
        <ele>2512</ele>
        <time>2015-08-23T10:40:37Z</time>
      </trkpt>
      <trkpt lat="45.39247" lon="6.79084">
        <ele>2512</ele>
        <time>2015-08-23T10:40:38Z</time>
      </trkpt>
      <trkpt lat="45.39249" lon="6.79081">
        <ele>2512</ele>
        <time>2015-08-23T10:40:39Z</time>
      </trkpt>
      <trkpt lat="45.39253" lon="6.79077">
        <ele>2512</ele>
        <time>2015-08-23T10:40:41Z</time>
      </trkpt>
      <trkpt lat="45.39256" lon="6.79072">
        <ele>2512</ele>
        <time>2015-08-23T10:40:43Z</time>
      </trkpt>
      <trkpt lat="45.39259" lon="6.7907">
        <ele>2512</ele>
        <time>2015-08-23T10:40:45Z</time>
      </trkpt>
      <trkpt lat="45.39263" lon="6.79068">
        <ele>2512</ele>
        <time>2015-08-23T10:40:47Z</time>
      </trkpt>
      <trkpt lat="45.39266" lon="6.79068">
        <ele>2512</ele>
        <time>2015-08-23T10:40:48Z</time>
      </trkpt>
      <trkpt lat="45.39269" lon="6.79067">
        <ele>2511</ele>
        <time>2015-08-23T10:40:49Z</time>
      </trkpt>
      <trkpt lat="45.39273" lon="6.79067">
        <ele>2511</ele>
        <time>2015-08-23T10:40:50Z</time>
      </trkpt>
      <trkpt lat="45.39276" lon="6.79066">
        <ele>2511</ele>
        <time>2015-08-23T10:40:51Z</time>
      </trkpt>
      <trkpt lat="45.39279" lon="6.79066">
        <ele>2511</ele>
        <time>2015-08-23T10:40:52Z</time>
      </trkpt>
      <trkpt lat="45.39282" lon="6.79065">
        <ele>2511</ele>
        <time>2015-08-23T10:40:53Z</time>
      </trkpt>
      <trkpt lat="45.39286" lon="6.79065">
        <ele>2511</ele>
        <time>2015-08-23T10:40:55Z</time>
      </trkpt>
      <trkpt lat="45.39291" lon="6.79063">
        <ele>2511</ele>
        <time>2015-08-23T10:40:57Z</time>
      </trkpt>
      <trkpt lat="45.39295" lon="6.79062">
        <ele>2510</ele>
        <time>2015-08-23T10:40:59Z</time>
      </trkpt>
      <trkpt lat="45.393" lon="6.79059">
        <ele>2510</ele>
        <time>2015-08-23T10:41:01Z</time>
      </trkpt>
      <trkpt lat="45.39304" lon="6.79056">
        <ele>2510</ele>
        <time>2015-08-23T10:41:03Z</time>
      </trkpt>
      <trkpt lat="45.39307" lon="6.79054">
        <ele>2510</ele>
        <time>2015-08-23T10:41:04Z</time>
      </trkpt>
      <trkpt lat="45.39309" lon="6.79053">
        <ele>2510</ele>
        <time>2015-08-23T10:41:05Z</time>
      </trkpt>
      <trkpt lat="45.39314" lon="6.7905">
        <ele>2510</ele>
        <time>2015-08-23T10:41:07Z</time>
      </trkpt>
      <trkpt lat="45.39317" lon="6.79048">
        <ele>2510</ele>
        <time>2015-08-23T10:41:08Z</time>
      </trkpt>
      <trkpt lat="45.39322" lon="6.79046">
        <ele>2510</ele>
        <time>2015-08-23T10:41:10Z</time>
      </trkpt>
      <trkpt lat="45.39325" lon="6.79043">
        <ele>2510</ele>
        <time>2015-08-23T10:41:12Z</time>
      </trkpt>
      <trkpt lat="45.39328" lon="6.79041">
        <ele>2510</ele>
        <time>2015-08-23T10:41:15Z</time>
      </trkpt>
      <trkpt lat="45.3933" lon="6.79036">
        <ele>2510</ele>
        <time>2015-08-23T10:41:17Z</time>
      </trkpt>
      <trkpt lat="45.39333" lon="6.79027">
        <ele>2510</ele>
        <time>2015-08-23T10:41:19Z</time>
      </trkpt>
      <trkpt lat="45.39336" lon="6.79023">
        <ele>2504</ele>
        <time>2015-08-23T10:41:21Z</time>
      </trkpt>
      <trkpt lat="45.3934" lon="6.7902">
        <ele>2504</ele>
        <time>2015-08-23T10:41:23Z</time>
      </trkpt>
      <trkpt lat="45.39344" lon="6.79016">
        <ele>2504</ele>
        <time>2015-08-23T10:41:25Z</time>
      </trkpt>
      <trkpt lat="45.39346" lon="6.79012">
        <ele>2504</ele>
        <time>2015-08-23T10:41:27Z</time>
      </trkpt>
      <trkpt lat="45.39348" lon="6.79008">
        <ele>2505</ele>
        <time>2015-08-23T10:41:29Z</time>
      </trkpt>
      <trkpt lat="45.3935" lon="6.79003">
        <ele>2505</ele>
        <time>2015-08-23T10:41:31Z</time>
      </trkpt>
      <trkpt lat="45.39352" lon="6.79009">
        <ele>2504</ele>
        <time>2015-08-23T10:42:23Z</time>
      </trkpt>
      <trkpt lat="45.39351" lon="6.79004">
        <ele>2504</ele>
        <time>2015-08-23T10:42:28Z</time>
      </trkpt>
      <trkpt lat="45.3935" lon="6.78998">
        <ele>2506</ele>
        <time>2015-08-23T10:42:30Z</time>
      </trkpt>
      <trkpt lat="45.39351" lon="6.78991">
        <ele>2506</ele>
        <time>2015-08-23T10:42:32Z</time>
      </trkpt>
      <trkpt lat="45.39351" lon="6.78983">
        <ele>2505</ele>
        <time>2015-08-23T10:42:34Z</time>
      </trkpt>
      <trkpt lat="45.39351" lon="6.78976">
        <ele>2505</ele>
        <time>2015-08-23T10:42:36Z</time>
      </trkpt>
      <trkpt lat="45.39352" lon="6.78971">
        <ele>2505</ele>
        <time>2015-08-23T10:42:37Z</time>
      </trkpt>
      <trkpt lat="45.39352" lon="6.78967">
        <ele>2505</ele>
        <time>2015-08-23T10:42:38Z</time>
      </trkpt>
      <trkpt lat="45.39353" lon="6.78963">
        <ele>2504</ele>
        <time>2015-08-23T10:42:39Z</time>
      </trkpt>
      <trkpt lat="45.39353" lon="6.78959">
        <ele>2504</ele>
        <time>2015-08-23T10:42:40Z</time>
      </trkpt>
      <trkpt lat="45.39355" lon="6.78955">
        <ele>2504</ele>
        <time>2015-08-23T10:42:41Z</time>
      </trkpt>
      <trkpt lat="45.39356" lon="6.78951">
        <ele>2504</ele>
        <time>2015-08-23T10:42:42Z</time>
      </trkpt>
      <trkpt lat="45.39358" lon="6.78947">
        <ele>2504</ele>
        <time>2015-08-23T10:42:43Z</time>
      </trkpt>
      <trkpt lat="45.3936" lon="6.78944">
        <ele>2504</ele>
        <time>2015-08-23T10:42:44Z</time>
      </trkpt>
      <trkpt lat="45.39362" lon="6.7894">
        <ele>2504</ele>
        <time>2015-08-23T10:42:45Z</time>
      </trkpt>
      <trkpt lat="45.39364" lon="6.78937">
        <ele>2504</ele>
        <time>2015-08-23T10:42:46Z</time>
      </trkpt>
      <trkpt lat="45.39367" lon="6.78932">
        <ele>2504</ele>
        <time>2015-08-23T10:42:48Z</time>
      </trkpt>
      <trkpt lat="45.3937" lon="6.78927">
        <ele>2504</ele>
        <time>2015-08-23T10:42:50Z</time>
      </trkpt>
      <trkpt lat="45.39372" lon="6.78921">
        <ele>2504</ele>
        <time>2015-08-23T10:42:52Z</time>
      </trkpt>
      <trkpt lat="45.39374" lon="6.78916">
        <ele>2506</ele>
        <time>2015-08-23T10:42:54Z</time>
      </trkpt>
      <trkpt lat="45.39377" lon="6.78911">
        <ele>2506</ele>
        <time>2015-08-23T10:42:56Z</time>
      </trkpt>
      <trkpt lat="45.39382" lon="6.78909">
        <ele>2506</ele>
        <time>2015-08-23T10:42:58Z</time>
      </trkpt>
      <trkpt lat="45.39385" lon="6.78908">
        <ele>2506</ele>
        <time>2015-08-23T10:42:59Z</time>
      </trkpt>
      <trkpt lat="45.39389" lon="6.78906">
        <ele>2506</ele>
        <time>2015-08-23T10:43:00Z</time>
      </trkpt>
      <trkpt lat="45.39392" lon="6.78905">
        <ele>2506</ele>
        <time>2015-08-23T10:43:01Z</time>
      </trkpt>
      <trkpt lat="45.39395" lon="6.78905">
        <ele>2506</ele>
        <time>2015-08-23T10:43:02Z</time>
      </trkpt>
      <trkpt lat="45.39398" lon="6.78904">
        <ele>2506</ele>
        <time>2015-08-23T10:43:03Z</time>
      </trkpt>
      <trkpt lat="45.39401" lon="6.78903">
        <ele>2506</ele>
        <time>2015-08-23T10:43:04Z</time>
      </trkpt>
      <trkpt lat="45.39405" lon="6.78903">
        <ele>2506</ele>
        <time>2015-08-23T10:43:05Z</time>
      </trkpt>
      <trkpt lat="45.39408" lon="6.78903">
        <ele>2506</ele>
        <time>2015-08-23T10:43:06Z</time>
      </trkpt>
      <trkpt lat="45.39411" lon="6.78903">
        <ele>2506</ele>
        <time>2015-08-23T10:43:07Z</time>
      </trkpt>
      <trkpt lat="45.39415" lon="6.78904">
        <ele>2506</ele>
        <time>2015-08-23T10:43:08Z</time>
      </trkpt>
      <trkpt lat="45.39416" lon="6.78907">
        <ele>2506</ele>
        <time>2015-08-23T10:43:10Z</time>
      </trkpt>
      <trkpt lat="45.39419" lon="6.78915">
        <ele>2507</ele>
        <time>2015-08-23T10:43:43Z</time>
      </trkpt>
      <trkpt lat="45.39423" lon="6.78915">
        <ele>2507</ele>
        <time>2015-08-23T10:43:47Z</time>
      </trkpt>
      <trkpt lat="45.39428" lon="6.78917">
        <ele>2504</ele>
        <time>2015-08-23T10:43:49Z</time>
      </trkpt>
      <trkpt lat="45.39433" lon="6.78918">
        <ele>2503</ele>
        <time>2015-08-23T10:43:51Z</time>
      </trkpt>
      <trkpt lat="45.39438" lon="6.7892">
        <ele>2502</ele>
        <time>2015-08-23T10:43:53Z</time>
      </trkpt>
      <trkpt lat="45.39441" lon="6.78921">
        <ele>2502</ele>
        <time>2015-08-23T10:43:54Z</time>
      </trkpt>
      <trkpt lat="45.39444" lon="6.78923">
        <ele>2502</ele>
        <time>2015-08-23T10:43:55Z</time>
      </trkpt>
      <trkpt lat="45.39446" lon="6.78925">
        <ele>2502</ele>
        <time>2015-08-23T10:43:56Z</time>
      </trkpt>
      <trkpt lat="45.39449" lon="6.78927">
        <ele>2501</ele>
        <time>2015-08-23T10:43:57Z</time>
      </trkpt>
      <trkpt lat="45.39451" lon="6.78928">
        <ele>2501</ele>
        <time>2015-08-23T10:43:58Z</time>
      </trkpt>
      <trkpt lat="45.39456" lon="6.78929">
        <ele>2501</ele>
        <time>2015-08-23T10:44:00Z</time>
      </trkpt>
      <trkpt lat="45.3946" lon="6.78929">
        <ele>2501</ele>
        <time>2015-08-23T10:44:01Z</time>
      </trkpt>
      <trkpt lat="45.39463" lon="6.78929">
        <ele>2501</ele>
        <time>2015-08-23T10:44:02Z</time>
      </trkpt>
      <trkpt lat="45.39467" lon="6.7893">
        <ele>2501</ele>
        <time>2015-08-23T10:44:03Z</time>
      </trkpt>
      <trkpt lat="45.39469" lon="6.7893">
        <ele>2501</ele>
        <time>2015-08-23T10:44:04Z</time>
      </trkpt>
      <trkpt lat="45.39473" lon="6.7893">
        <ele>2501</ele>
        <time>2015-08-23T10:44:05Z</time>
      </trkpt>
      <trkpt lat="45.39476" lon="6.78931">
        <ele>2501</ele>
        <time>2015-08-23T10:44:06Z</time>
      </trkpt>
      <trkpt lat="45.39478" lon="6.78931">
        <ele>2501</ele>
        <time>2015-08-23T10:44:07Z</time>
      </trkpt>
      <trkpt lat="45.39481" lon="6.78932">
        <ele>2502</ele>
        <time>2015-08-23T10:44:08Z</time>
      </trkpt>
      <trkpt lat="45.39485" lon="6.78933">
        <ele>2502</ele>
        <time>2015-08-23T10:44:09Z</time>
      </trkpt>
      <trkpt lat="45.39488" lon="6.78934">
        <ele>2502</ele>
        <time>2015-08-23T10:44:10Z</time>
      </trkpt>
      <trkpt lat="45.39491" lon="6.78935">
        <ele>2502</ele>
        <time>2015-08-23T10:44:11Z</time>
      </trkpt>
      <trkpt lat="45.39494" lon="6.78935">
        <ele>2502</ele>
        <time>2015-08-23T10:44:12Z</time>
      </trkpt>
      <trkpt lat="45.39497" lon="6.78936">
        <ele>2502</ele>
        <time>2015-08-23T10:44:13Z</time>
      </trkpt>
      <trkpt lat="45.39499" lon="6.78936">
        <ele>2502</ele>
        <time>2015-08-23T10:44:14Z</time>
      </trkpt>
      <trkpt lat="45.39502" lon="6.78937">
        <ele>2497</ele>
        <time>2015-08-23T10:44:15Z</time>
      </trkpt>
      <trkpt lat="45.39507" lon="6.78938">
        <ele>2496</ele>
        <time>2015-08-23T10:44:17Z</time>
      </trkpt>
      <trkpt lat="45.3951" lon="6.78939">
        <ele>2496</ele>
        <time>2015-08-23T10:44:18Z</time>
      </trkpt>
      <trkpt lat="45.39513" lon="6.7894">
        <ele>2495</ele>
        <time>2015-08-23T10:44:19Z</time>
      </trkpt>
      <trkpt lat="45.39517" lon="6.78943">
        <ele>2493</ele>
        <time>2015-08-23T10:44:21Z</time>
      </trkpt>
      <trkpt lat="45.39521" lon="6.78947">
        <ele>2492</ele>
        <time>2015-08-23T10:44:23Z</time>
      </trkpt>
      <trkpt lat="45.39525" lon="6.78947">
        <ele>2492</ele>
        <time>2015-08-23T10:44:26Z</time>
      </trkpt>
      <trkpt lat="45.39527" lon="6.78943">
        <ele>2492</ele>
        <time>2015-08-23T10:44:29Z</time>
      </trkpt>
      <trkpt lat="45.39529" lon="6.7894">
        <ele>2492</ele>
        <time>2015-08-23T10:44:31Z</time>
      </trkpt>
      <trkpt lat="45.39533" lon="6.78938">
        <ele>2492</ele>
        <time>2015-08-23T10:44:33Z</time>
      </trkpt>
      <trkpt lat="45.39535" lon="6.78936">
        <ele>2492</ele>
        <time>2015-08-23T10:44:34Z</time>
      </trkpt>
      <trkpt lat="45.39538" lon="6.78934">
        <ele>2492</ele>
        <time>2015-08-23T10:44:35Z</time>
      </trkpt>
      <trkpt lat="45.39542" lon="6.78931">
        <ele>2492</ele>
        <time>2015-08-23T10:44:37Z</time>
      </trkpt>
      <trkpt lat="45.39546" lon="6.78926">
        <ele>2491</ele>
        <time>2015-08-23T10:44:39Z</time>
      </trkpt>
      <trkpt lat="45.3955" lon="6.78922">
        <ele>2491</ele>
        <time>2015-08-23T10:44:41Z</time>
      </trkpt>
      <trkpt lat="45.39553" lon="6.7892">
        <ele>2491</ele>
        <time>2015-08-23T10:44:42Z</time>
      </trkpt>
      <trkpt lat="45.39558" lon="6.78916">
        <ele>2503</ele>
        <time>2015-08-23T10:44:44Z</time>
      </trkpt>
      <trkpt lat="45.39563" lon="6.78913">
        <ele>2502</ele>
        <time>2015-08-23T10:44:46Z</time>
      </trkpt>
      <trkpt lat="45.39565" lon="6.78909">
        <ele>2502</ele>
        <time>2015-08-23T10:44:48Z</time>
      </trkpt>
      <trkpt lat="45.39568" lon="6.78905">
        <ele>2502</ele>
        <time>2015-08-23T10:44:50Z</time>
      </trkpt>
      <trkpt lat="45.3957" lon="6.78901">
        <ele>2503</ele>
        <time>2015-08-23T10:44:52Z</time>
      </trkpt>
      <trkpt lat="45.39573" lon="6.789">
        <ele>2502</ele>
        <time>2015-08-23T10:44:54Z</time>
      </trkpt>
      <trkpt lat="45.39578" lon="6.789">
        <ele>2501</ele>
        <time>2015-08-23T10:44:56Z</time>
      </trkpt>
      <trkpt lat="45.39581" lon="6.78896">
        <ele>2502</ele>
        <time>2015-08-23T10:44:58Z</time>
      </trkpt>
      <trkpt lat="45.39585" lon="6.78894">
        <ele>2496</ele>
        <time>2015-08-23T10:45:00Z</time>
      </trkpt>
      <trkpt lat="45.39588" lon="6.78892">
        <ele>2496</ele>
        <time>2015-08-23T10:45:02Z</time>
      </trkpt>
      <trkpt lat="45.39592" lon="6.78888">
        <ele>2497</ele>
        <time>2015-08-23T10:45:04Z</time>
      </trkpt>
      <trkpt lat="45.39596" lon="6.78884">
        <ele>2497</ele>
        <time>2015-08-23T10:45:06Z</time>
      </trkpt>
      <trkpt lat="45.39599" lon="6.78882">
        <ele>2498</ele>
        <time>2015-08-23T10:45:07Z</time>
      </trkpt>
      <trkpt lat="45.39603" lon="6.7888">
        <ele>2498</ele>
        <time>2015-08-23T10:45:09Z</time>
      </trkpt>
      <trkpt lat="45.39608" lon="6.78881">
        <ele>2497</ele>
        <time>2015-08-23T10:45:11Z</time>
      </trkpt>
      <trkpt lat="45.39611" lon="6.78885">
        <ele>2497</ele>
        <time>2015-08-23T10:45:13Z</time>
      </trkpt>
      <trkpt lat="45.39615" lon="6.7889">
        <ele>2496</ele>
        <time>2015-08-23T10:45:15Z</time>
      </trkpt>
      <trkpt lat="45.39619" lon="6.78891">
        <ele>2495</ele>
        <time>2015-08-23T10:45:17Z</time>
      </trkpt>
      <trkpt lat="45.39623" lon="6.7889">
        <ele>2495</ele>
        <time>2015-08-23T10:45:19Z</time>
      </trkpt>
      <trkpt lat="45.39626" lon="6.7889">
        <ele>2495</ele>
        <time>2015-08-23T10:45:21Z</time>
      </trkpt>
      <trkpt lat="45.39629" lon="6.78891">
        <ele>2494</ele>
        <time>2015-08-23T10:45:23Z</time>
      </trkpt>
      <trkpt lat="45.39633" lon="6.78891">
        <ele>2494</ele>
        <time>2015-08-23T10:45:25Z</time>
      </trkpt>
      <trkpt lat="45.39637" lon="6.78889">
        <ele>2493</ele>
        <time>2015-08-23T10:45:27Z</time>
      </trkpt>
      <trkpt lat="45.39641" lon="6.78888">
        <ele>2493</ele>
        <time>2015-08-23T10:45:28Z</time>
      </trkpt>
      <trkpt lat="45.39644" lon="6.78888">
        <ele>2493</ele>
        <time>2015-08-23T10:45:29Z</time>
      </trkpt>
      <trkpt lat="45.39648" lon="6.78885">
        <ele>2493</ele>
        <time>2015-08-23T10:45:31Z</time>
      </trkpt>
      <trkpt lat="45.39653" lon="6.7888">
        <ele>2493</ele>
        <time>2015-08-23T10:45:34Z</time>
      </trkpt>
      <trkpt lat="45.39657" lon="6.7888">
        <ele>2493</ele>
        <time>2015-08-23T10:45:35Z</time>
      </trkpt>
      <trkpt lat="45.39662" lon="6.7888">
        <ele>2493</ele>
        <time>2015-08-23T10:45:37Z</time>
      </trkpt>
      <trkpt lat="45.39665" lon="6.78881">
        <ele>2492</ele>
        <time>2015-08-23T10:45:38Z</time>
      </trkpt>
      <trkpt lat="45.39669" lon="6.78882">
        <ele>2482</ele>
        <time>2015-08-23T10:45:39Z</time>
      </trkpt>
      <trkpt lat="45.39674" lon="6.78884">
        <ele>2482</ele>
        <time>2015-08-23T10:45:41Z</time>
      </trkpt>
      <trkpt lat="45.39678" lon="6.78885">
        <ele>2482</ele>
        <time>2015-08-23T10:45:42Z</time>
      </trkpt>
      <trkpt lat="45.39683" lon="6.78888">
        <ele>2481</ele>
        <time>2015-08-23T10:45:44Z</time>
      </trkpt>
      <trkpt lat="45.39686" lon="6.78888">
        <ele>2481</ele>
        <time>2015-08-23T10:45:45Z</time>
      </trkpt>
      <trkpt lat="45.3969" lon="6.78887">
        <ele>2481</ele>
        <time>2015-08-23T10:45:47Z</time>
      </trkpt>
      <trkpt lat="45.39694" lon="6.78886">
        <ele>2481</ele>
        <time>2015-08-23T10:45:49Z</time>
      </trkpt>
      <trkpt lat="45.39697" lon="6.7888">
        <ele>2481</ele>
        <time>2015-08-23T10:45:53Z</time>
      </trkpt>
      <trkpt lat="45.39696" lon="6.78877">
        <ele>2481</ele>
        <time>2015-08-23T10:45:58Z</time>
      </trkpt>
      <trkpt lat="45.397" lon="6.78873">
        <ele>2481</ele>
        <time>2015-08-23T10:46:01Z</time>
      </trkpt>
      <trkpt lat="45.39704" lon="6.78868">
        <ele>2481</ele>
        <time>2015-08-23T10:46:03Z</time>
      </trkpt>
      <trkpt lat="45.39708" lon="6.78864">
        <ele>2481</ele>
        <time>2015-08-23T10:46:05Z</time>
      </trkpt>
      <trkpt lat="45.39709" lon="6.78859">
        <ele>2481</ele>
        <time>2015-08-23T10:46:07Z</time>
      </trkpt>
      <trkpt lat="45.3971" lon="6.78853">
        <ele>2481</ele>
        <time>2015-08-23T10:46:09Z</time>
      </trkpt>
      <trkpt lat="45.39711" lon="6.78848">
        <ele>2481</ele>
        <time>2015-08-23T10:46:11Z</time>
      </trkpt>
      <trkpt lat="45.39714" lon="6.78844">
        <ele>2481</ele>
        <time>2015-08-23T10:46:13Z</time>
      </trkpt>
      <trkpt lat="45.39718" lon="6.78844">
        <ele>2480</ele>
        <time>2015-08-23T10:46:15Z</time>
      </trkpt>
      <trkpt lat="45.39721" lon="6.78844">
        <ele>2480</ele>
        <time>2015-08-23T10:46:17Z</time>
      </trkpt>
      <trkpt lat="45.39725" lon="6.78844">
        <ele>2479</ele>
        <time>2015-08-23T10:46:19Z</time>
      </trkpt>
      <trkpt lat="45.39729" lon="6.78843">
        <ele>2479</ele>
        <time>2015-08-23T10:46:21Z</time>
      </trkpt>
      <trkpt lat="45.39734" lon="6.78842">
        <ele>2478</ele>
        <time>2015-08-23T10:46:23Z</time>
      </trkpt>
      <trkpt lat="45.39739" lon="6.78841">
        <ele>2477</ele>
        <time>2015-08-23T10:46:25Z</time>
      </trkpt>
      <trkpt lat="45.39742" lon="6.78839">
        <ele>2476</ele>
        <time>2015-08-23T10:46:27Z</time>
      </trkpt>
      <trkpt lat="45.39745" lon="6.78837">
        <ele>2475</ele>
        <time>2015-08-23T10:46:30Z</time>
      </trkpt>
      <trkpt lat="45.39749" lon="6.78836">
        <ele>2475</ele>
        <time>2015-08-23T10:46:31Z</time>
      </trkpt>
      <trkpt lat="45.39753" lon="6.78835">
        <ele>2474</ele>
        <time>2015-08-23T10:46:33Z</time>
      </trkpt>
      <trkpt lat="45.39757" lon="6.78832">
        <ele>2475</ele>
        <time>2015-08-23T10:46:35Z</time>
      </trkpt>
      <trkpt lat="45.3976" lon="6.78828">
        <ele>2475</ele>
        <time>2015-08-23T10:46:37Z</time>
      </trkpt>
      <trkpt lat="45.39764" lon="6.78826">
        <ele>2475</ele>
        <time>2015-08-23T10:46:39Z</time>
      </trkpt>
      <trkpt lat="45.39769" lon="6.78825">
        <ele>2476</ele>
        <time>2015-08-23T10:46:41Z</time>
      </trkpt>
      <trkpt lat="45.39773" lon="6.78824">
        <ele>2476</ele>
        <time>2015-08-23T10:46:42Z</time>
      </trkpt>
      <trkpt lat="45.39775" lon="6.78822">
        <ele>2476</ele>
        <time>2015-08-23T10:46:43Z</time>
      </trkpt>
      <trkpt lat="45.39778" lon="6.78821">
        <ele>2476</ele>
        <time>2015-08-23T10:46:44Z</time>
      </trkpt>
      <trkpt lat="45.39783" lon="6.78818">
        <ele>2476</ele>
        <time>2015-08-23T10:46:46Z</time>
      </trkpt>
      <trkpt lat="45.39785" lon="6.78815">
        <ele>2476</ele>
        <time>2015-08-23T10:46:47Z</time>
      </trkpt>
      <trkpt lat="45.39787" lon="6.78813">
        <ele>2476</ele>
        <time>2015-08-23T10:46:48Z</time>
      </trkpt>
      <trkpt lat="45.39789" lon="6.7881">
        <ele>2476</ele>
        <time>2015-08-23T10:46:49Z</time>
      </trkpt>
      <trkpt lat="45.39792" lon="6.78804">
        <ele>2476</ele>
        <time>2015-08-23T10:46:51Z</time>
      </trkpt>
      <trkpt lat="45.39794" lon="6.78799">
        <ele>2476</ele>
        <time>2015-08-23T10:46:53Z</time>
      </trkpt>
      <trkpt lat="45.39794" lon="6.78793">
        <ele>2477</ele>
        <time>2015-08-23T10:46:55Z</time>
      </trkpt>
      <trkpt lat="45.39795" lon="6.78789">
        <ele>2477</ele>
        <time>2015-08-23T10:46:58Z</time>
      </trkpt>
      <trkpt lat="45.39797" lon="6.78786">
        <ele>2477</ele>
        <time>2015-08-23T10:46:59Z</time>
      </trkpt>
      <trkpt lat="45.398" lon="6.78783">
        <ele>2477</ele>
        <time>2015-08-23T10:47:06Z</time>
      </trkpt>
      <trkpt lat="45.39802" lon="6.78786">
        <ele>2476</ele>
        <time>2015-08-23T10:47:08Z</time>
      </trkpt>
      <trkpt lat="45.39805" lon="6.78788">
        <ele>2476</ele>
        <time>2015-08-23T10:47:10Z</time>
      </trkpt>
      <trkpt lat="45.39812" lon="6.78793">
        <ele>2476</ele>
        <time>2015-08-23T10:47:13Z</time>
      </trkpt>
      <trkpt lat="45.39815" lon="6.78794">
        <ele>2476</ele>
        <time>2015-08-23T10:47:14Z</time>
      </trkpt>
      <trkpt lat="45.3982" lon="6.78796">
        <ele>2476</ele>
        <time>2015-08-23T10:47:16Z</time>
      </trkpt>
      <trkpt lat="45.39825" lon="6.78796">
        <ele>2475</ele>
        <time>2015-08-23T10:47:18Z</time>
      </trkpt>
      <trkpt lat="45.39828" lon="6.78795">
        <ele>2475</ele>
        <time>2015-08-23T10:47:20Z</time>
      </trkpt>
      <trkpt lat="45.39832" lon="6.78794">
        <ele>2475</ele>
        <time>2015-08-23T10:47:23Z</time>
      </trkpt>
      <trkpt lat="45.39835" lon="6.78794">
        <ele>2480</ele>
        <time>2015-08-23T10:47:24Z</time>
      </trkpt>
      <trkpt lat="45.3984" lon="6.78792">
        <ele>2480</ele>
        <time>2015-08-23T10:47:25Z</time>
      </trkpt>
      <trkpt lat="45.39843" lon="6.78788">
        <ele>2480</ele>
        <time>2015-08-23T10:47:27Z</time>
      </trkpt>
      <trkpt lat="45.39845" lon="6.78783">
        <ele>2480</ele>
        <time>2015-08-23T10:47:29Z</time>
      </trkpt>
      <trkpt lat="45.39846" lon="6.78779">
        <ele>2480</ele>
        <time>2015-08-23T10:47:31Z</time>
      </trkpt>
      <trkpt lat="45.39849" lon="6.78773">
        <ele>2480</ele>
        <time>2015-08-23T10:47:33Z</time>
      </trkpt>
      <trkpt lat="45.39851" lon="6.78768">
        <ele>2480</ele>
        <time>2015-08-23T10:47:35Z</time>
      </trkpt>
      <trkpt lat="45.39853" lon="6.78763">
        <ele>2480</ele>
        <time>2015-08-23T10:47:37Z</time>
      </trkpt>
      <trkpt lat="45.39856" lon="6.78758">
        <ele>2480</ele>
        <time>2015-08-23T10:47:39Z</time>
      </trkpt>
      <trkpt lat="45.39858" lon="6.78753">
        <ele>2480</ele>
        <time>2015-08-23T10:47:41Z</time>
      </trkpt>
      <trkpt lat="45.39859" lon="6.78745">
        <ele>2477</ele>
        <time>2015-08-23T10:47:43Z</time>
      </trkpt>
      <trkpt lat="45.3986" lon="6.78742">
        <ele>2477</ele>
        <time>2015-08-23T10:47:44Z</time>
      </trkpt>
      <trkpt lat="45.3986" lon="6.78738">
        <ele>2477</ele>
        <time>2015-08-23T10:47:45Z</time>
      </trkpt>
      <trkpt lat="45.39861" lon="6.78731">
        <ele>2477</ele>
        <time>2015-08-23T10:47:47Z</time>
      </trkpt>
      <trkpt lat="45.39862" lon="6.78725">
        <ele>2477</ele>
        <time>2015-08-23T10:47:49Z</time>
      </trkpt>
      <trkpt lat="45.39864" lon="6.78722">
        <ele>2477</ele>
        <time>2015-08-23T10:47:50Z</time>
      </trkpt>
      <trkpt lat="45.39868" lon="6.78716">
        <ele>2477</ele>
        <time>2015-08-23T10:47:52Z</time>
      </trkpt>
      <trkpt lat="45.39871" lon="6.78712">
        <ele>2477</ele>
        <time>2015-08-23T10:47:53Z</time>
      </trkpt>
      <trkpt lat="45.39874" lon="6.78709">
        <ele>2477</ele>
        <time>2015-08-23T10:47:54Z</time>
      </trkpt>
      <trkpt lat="45.39877" lon="6.78706">
        <ele>2478</ele>
        <time>2015-08-23T10:47:55Z</time>
      </trkpt>
      <trkpt lat="45.39879" lon="6.78704">
        <ele>2478</ele>
        <time>2015-08-23T10:47:56Z</time>
      </trkpt>
      <trkpt lat="45.39881" lon="6.78699">
        <ele>2477</ele>
        <time>2015-08-23T10:47:58Z</time>
      </trkpt>
      <trkpt lat="45.39882" lon="6.78695">
        <ele>2477</ele>
        <time>2015-08-23T10:48:00Z</time>
      </trkpt>
      <trkpt lat="45.39885" lon="6.7869">
        <ele>2477</ele>
        <time>2015-08-23T10:48:02Z</time>
      </trkpt>
      <trkpt lat="45.39889" lon="6.78689">
        <ele>2478</ele>
        <time>2015-08-23T10:48:04Z</time>
      </trkpt>
      <trkpt lat="45.39895" lon="6.78688">
        <ele>2478</ele>
        <time>2015-08-23T10:48:06Z</time>
      </trkpt>
      <trkpt lat="45.39899" lon="6.78687">
        <ele>2478</ele>
        <time>2015-08-23T10:48:08Z</time>
      </trkpt>
      <trkpt lat="45.39901" lon="6.78684">
        <ele>2478</ele>
        <time>2015-08-23T10:48:10Z</time>
      </trkpt>
      <trkpt lat="45.39903" lon="6.7868">
        <ele>2478</ele>
        <time>2015-08-23T10:48:12Z</time>
      </trkpt>
      <trkpt lat="45.39903" lon="6.78674">
        <ele>2478</ele>
        <time>2015-08-23T10:48:14Z</time>
      </trkpt>
      <trkpt lat="45.39904" lon="6.78668">
        <ele>2478</ele>
        <time>2015-08-23T10:48:16Z</time>
      </trkpt>
      <trkpt lat="45.39906" lon="6.78662">
        <ele>2474</ele>
        <time>2015-08-23T10:48:18Z</time>
      </trkpt>
      <trkpt lat="45.39907" lon="6.78655">
        <ele>2473</ele>
        <time>2015-08-23T10:48:20Z</time>
      </trkpt>
      <trkpt lat="45.39908" lon="6.78651">
        <ele>2472</ele>
        <time>2015-08-23T10:48:21Z</time>
      </trkpt>
      <trkpt lat="45.3991" lon="6.78648">
        <ele>2472</ele>
        <time>2015-08-23T10:48:22Z</time>
      </trkpt>
      <trkpt lat="45.39911" lon="6.78645">
        <ele>2471</ele>
        <time>2015-08-23T10:48:23Z</time>
      </trkpt>
      <trkpt lat="45.39913" lon="6.78641">
        <ele>2470</ele>
        <time>2015-08-23T10:48:24Z</time>
      </trkpt>
      <trkpt lat="45.39916" lon="6.78636">
        <ele>2469</ele>
        <time>2015-08-23T10:48:26Z</time>
      </trkpt>
      <trkpt lat="45.39918" lon="6.78629">
        <ele>2483</ele>
        <time>2015-08-23T10:48:28Z</time>
      </trkpt>
      <trkpt lat="45.3992" lon="6.78626">
        <ele>2482</ele>
        <time>2015-08-23T10:48:29Z</time>
      </trkpt>
      <trkpt lat="45.39922" lon="6.7862">
        <ele>2482</ele>
        <time>2015-08-23T10:48:31Z</time>
      </trkpt>
      <trkpt lat="45.39925" lon="6.78615">
        <ele>2481</ele>
        <time>2015-08-23T10:48:33Z</time>
      </trkpt>
      <trkpt lat="45.39928" lon="6.78609">
        <ele>2480</ele>
        <time>2015-08-23T10:48:35Z</time>
      </trkpt>
      <trkpt lat="45.39931" lon="6.78601">
        <ele>2478</ele>
        <time>2015-08-23T10:48:37Z</time>
      </trkpt>
      <trkpt lat="45.39932" lon="6.78597">
        <ele>2478</ele>
        <time>2015-08-23T10:48:38Z</time>
      </trkpt>
      <trkpt lat="45.39934" lon="6.78589">
        <ele>2477</ele>
        <time>2015-08-23T10:48:40Z</time>
      </trkpt>
      <trkpt lat="45.39936" lon="6.7858">
        <ele>2470</ele>
        <time>2015-08-23T10:48:42Z</time>
      </trkpt>
      <trkpt lat="45.39937" lon="6.78576">
        <ele>2470</ele>
        <time>2015-08-23T10:48:43Z</time>
      </trkpt>
      <trkpt lat="45.39938" lon="6.7857">
        <ele>2471</ele>
        <time>2015-08-23T10:48:45Z</time>
      </trkpt>
      <trkpt lat="45.39938" lon="6.78564">
        <ele>2471</ele>
        <time>2015-08-23T10:48:48Z</time>
      </trkpt>
      <trkpt lat="45.39937" lon="6.78559">
        <ele>2470</ele>
        <time>2015-08-23T10:48:51Z</time>
      </trkpt>
      <trkpt lat="45.39937" lon="6.78553">
        <ele>2470</ele>
        <time>2015-08-23T10:48:52Z</time>
      </trkpt>
      <trkpt lat="45.39935" lon="6.78549">
        <ele>2470</ele>
        <time>2015-08-23T10:48:53Z</time>
      </trkpt>
      <trkpt lat="45.39935" lon="6.78543">
        <ele>2469</ele>
        <time>2015-08-23T10:48:56Z</time>
      </trkpt>
      <trkpt lat="45.39935" lon="6.78538">
        <ele>2469</ele>
        <time>2015-08-23T10:48:57Z</time>
      </trkpt>
      <trkpt lat="45.39937" lon="6.78532">
        <ele>2468</ele>
        <time>2015-08-23T10:48:59Z</time>
      </trkpt>
      <trkpt lat="45.39938" lon="6.78525">
        <ele>2467</ele>
        <time>2015-08-23T10:49:01Z</time>
      </trkpt>
      <trkpt lat="45.39939" lon="6.78518">
        <ele>2466</ele>
        <time>2015-08-23T10:49:03Z</time>
      </trkpt>
      <trkpt lat="45.39939" lon="6.78513">
        <ele>2465</ele>
        <time>2015-08-23T10:49:05Z</time>
      </trkpt>
      <trkpt lat="45.39939" lon="6.78506">
        <ele>2464</ele>
        <time>2015-08-23T10:49:07Z</time>
      </trkpt>
      <trkpt lat="45.39939" lon="6.785">
        <ele>2463</ele>
        <time>2015-08-23T10:49:09Z</time>
      </trkpt>
      <trkpt lat="45.39938" lon="6.78494">
        <ele>2455</ele>
        <time>2015-08-23T10:49:11Z</time>
      </trkpt>
      <trkpt lat="45.39938" lon="6.78487">
        <ele>2455</ele>
        <time>2015-08-23T10:49:13Z</time>
      </trkpt>
      <trkpt lat="45.39938" lon="6.78482">
        <ele>2455</ele>
        <time>2015-08-23T10:49:14Z</time>
      </trkpt>
      <trkpt lat="45.39939" lon="6.78478">
        <ele>2455</ele>
        <time>2015-08-23T10:49:15Z</time>
      </trkpt>
      <trkpt lat="45.3994" lon="6.78474">
        <ele>2455</ele>
        <time>2015-08-23T10:49:16Z</time>
      </trkpt>
      <trkpt lat="45.39941" lon="6.78467">
        <ele>2455</ele>
        <time>2015-08-23T10:49:18Z</time>
      </trkpt>
      <trkpt lat="45.39941" lon="6.78463">
        <ele>2455</ele>
        <time>2015-08-23T10:49:20Z</time>
      </trkpt>
      <trkpt lat="45.39941" lon="6.78457">
        <ele>2454</ele>
        <time>2015-08-23T10:49:22Z</time>
      </trkpt>
      <trkpt lat="45.39941" lon="6.78452">
        <ele>2453</ele>
        <time>2015-08-23T10:49:24Z</time>
      </trkpt>
      <trkpt lat="45.39942" lon="6.78447">
        <ele>2453</ele>
        <time>2015-08-23T10:49:26Z</time>
      </trkpt>
      <trkpt lat="45.39943" lon="6.7844">
        <ele>2452</ele>
        <time>2015-08-23T10:49:28Z</time>
      </trkpt>
      <trkpt lat="45.39944" lon="6.78437">
        <ele>2452</ele>
        <time>2015-08-23T10:49:29Z</time>
      </trkpt>
      <trkpt lat="45.39945" lon="6.7843">
        <ele>2451</ele>
        <time>2015-08-23T10:49:31Z</time>
      </trkpt>
      <trkpt lat="45.39946" lon="6.78423">
        <ele>2451</ele>
        <time>2015-08-23T10:49:33Z</time>
      </trkpt>
      <trkpt lat="45.39947" lon="6.78416">
        <ele>2442</ele>
        <time>2015-08-23T10:49:35Z</time>
      </trkpt>
      <trkpt lat="45.39948" lon="6.78412">
        <ele>2442</ele>
        <time>2015-08-23T10:49:36Z</time>
      </trkpt>
      <trkpt lat="45.39949" lon="6.78408">
        <ele>2442</ele>
        <time>2015-08-23T10:49:37Z</time>
      </trkpt>
      <trkpt lat="45.39949" lon="6.78404">
        <ele>2442</ele>
        <time>2015-08-23T10:49:38Z</time>
      </trkpt>
      <trkpt lat="45.39949" lon="6.784">
        <ele>2442</ele>
        <time>2015-08-23T10:49:39Z</time>
      </trkpt>
      <trkpt lat="45.39951" lon="6.78393">
        <ele>2442</ele>
        <time>2015-08-23T10:49:41Z</time>
      </trkpt>
      <trkpt lat="45.39951" lon="6.78387">
        <ele>2442</ele>
        <time>2015-08-23T10:49:43Z</time>
      </trkpt>
      <trkpt lat="45.39948" lon="6.78387">
        <ele>2441</ele>
        <time>2015-08-23T10:49:46Z</time>
      </trkpt>
      <trkpt lat="45.39945" lon="6.78391">
        <ele>2441</ele>
        <time>2015-08-23T10:49:48Z</time>
      </trkpt>
      <trkpt lat="45.39944" lon="6.78397">
        <ele>2441</ele>
        <time>2015-08-23T10:49:50Z</time>
      </trkpt>
      <trkpt lat="45.39943" lon="6.78401">
        <ele>2441</ele>
        <time>2015-08-23T10:49:51Z</time>
      </trkpt>
      <trkpt lat="45.39942" lon="6.78406">
        <ele>2441</ele>
        <time>2015-08-23T10:49:53Z</time>
      </trkpt>
      <trkpt lat="45.39938" lon="6.78409">
        <ele>2440</ele>
        <time>2015-08-23T10:49:55Z</time>
      </trkpt>
      <trkpt lat="45.39934" lon="6.78413">
        <ele>2439</ele>
        <time>2015-08-23T10:49:57Z</time>
      </trkpt>
      <trkpt lat="45.39932" lon="6.78416">
        <ele>2438</ele>
        <time>2015-08-23T10:49:58Z</time>
      </trkpt>
      <trkpt lat="45.3993" lon="6.78419">
        <ele>2443</ele>
        <time>2015-08-23T10:49:59Z</time>
      </trkpt>
      <trkpt lat="45.39926" lon="6.78424">
        <ele>2442</ele>
        <time>2015-08-23T10:50:01Z</time>
      </trkpt>
      <trkpt lat="45.39922" lon="6.78433">
        <ele>2445</ele>
        <time>2015-08-23T10:50:04Z</time>
      </trkpt>
      <trkpt lat="45.39921" lon="6.78438">
        <ele>2447</ele>
        <time>2015-08-23T10:50:05Z</time>
      </trkpt>
      <trkpt lat="45.39919" lon="6.78443">
        <ele>2448</ele>
        <time>2015-08-23T10:50:07Z</time>
      </trkpt>
      <trkpt lat="45.39917" lon="6.78448">
        <ele>2449</ele>
        <time>2015-08-23T10:50:09Z</time>
      </trkpt>
      <trkpt lat="45.39913" lon="6.78454">
        <ele>2440</ele>
        <time>2015-08-23T10:50:11Z</time>
      </trkpt>
      <trkpt lat="45.39911" lon="6.78457">
        <ele>2440</ele>
        <time>2015-08-23T10:50:12Z</time>
      </trkpt>
      <trkpt lat="45.39908" lon="6.78459">
        <ele>2441</ele>
        <time>2015-08-23T10:50:13Z</time>
      </trkpt>
      <trkpt lat="45.39906" lon="6.78458">
        <ele>2440</ele>
        <time>2015-08-23T10:50:15Z</time>
      </trkpt>
      <trkpt lat="45.39901" lon="6.78457">
        <ele>2440</ele>
        <time>2015-08-23T10:50:17Z</time>
      </trkpt>
      <trkpt lat="45.399" lon="6.78447">
        <ele>2439</ele>
        <time>2015-08-23T10:50:19Z</time>
      </trkpt>
      <trkpt lat="45.39901" lon="6.78442">
        <ele>2438</ele>
        <time>2015-08-23T10:50:21Z</time>
      </trkpt>
      <trkpt lat="45.39902" lon="6.78439">
        <ele>2438</ele>
        <time>2015-08-23T10:50:22Z</time>
      </trkpt>
      <trkpt lat="45.39903" lon="6.78435">
        <ele>2437</ele>
        <time>2015-08-23T10:50:23Z</time>
      </trkpt>
      <trkpt lat="45.39904" lon="6.78428">
        <ele>2437</ele>
        <time>2015-08-23T10:50:25Z</time>
      </trkpt>
      <trkpt lat="45.39906" lon="6.78423">
        <ele>2436</ele>
        <time>2015-08-23T10:50:27Z</time>
      </trkpt>
      <trkpt lat="45.39907" lon="6.7842">
        <ele>2435</ele>
        <time>2015-08-23T10:50:28Z</time>
      </trkpt>
      <trkpt lat="45.39909" lon="6.78416">
        <ele>2430</ele>
        <time>2015-08-23T10:50:29Z</time>
      </trkpt>
      <trkpt lat="45.3991" lon="6.78409">
        <ele>2430</ele>
        <time>2015-08-23T10:50:31Z</time>
      </trkpt>
      <trkpt lat="45.39909" lon="6.78406">
        <ele>2429</ele>
        <time>2015-08-23T10:50:32Z</time>
      </trkpt>
      <trkpt lat="45.39907" lon="6.784">
        <ele>2428</ele>
        <time>2015-08-23T10:50:34Z</time>
      </trkpt>
      <trkpt lat="45.39906" lon="6.78395">
        <ele>2427</ele>
        <time>2015-08-23T10:50:36Z</time>
      </trkpt>
      <trkpt lat="45.39906" lon="6.78388">
        <ele>2426</ele>
        <time>2015-08-23T10:50:37Z</time>
      </trkpt>
      <trkpt lat="45.39907" lon="6.78382">
        <ele>2425</ele>
        <time>2015-08-23T10:50:39Z</time>
      </trkpt>
      <trkpt lat="45.39907" lon="6.78376">
        <ele>2424</ele>
        <time>2015-08-23T10:50:41Z</time>
      </trkpt>
      <trkpt lat="45.39908" lon="6.7837">
        <ele>2424</ele>
        <time>2015-08-23T10:50:44Z</time>
      </trkpt>
      <trkpt lat="45.39909" lon="6.78364">
        <ele>2423</ele>
        <time>2015-08-23T10:50:45Z</time>
      </trkpt>
      <trkpt lat="45.39909" lon="6.78359">
        <ele>2422</ele>
        <time>2015-08-23T10:50:47Z</time>
      </trkpt>
      <trkpt lat="45.39908" lon="6.78354">
        <ele>2421</ele>
        <time>2015-08-23T10:50:49Z</time>
      </trkpt>
      <trkpt lat="45.39908" lon="6.78348">
        <ele>2421</ele>
        <time>2015-08-23T10:50:51Z</time>
      </trkpt>
      <trkpt lat="45.39909" lon="6.78342">
        <ele>2420</ele>
        <time>2015-08-23T10:50:53Z</time>
      </trkpt>
      <trkpt lat="45.39909" lon="6.78335">
        <ele>2419</ele>
        <time>2015-08-23T10:50:55Z</time>
      </trkpt>
      <trkpt lat="45.39908" lon="6.78328">
        <ele>2414</ele>
        <time>2015-08-23T10:50:57Z</time>
      </trkpt>
      <trkpt lat="45.39907" lon="6.78321">
        <ele>2413</ele>
        <time>2015-08-23T10:50:59Z</time>
      </trkpt>
      <trkpt lat="45.39907" lon="6.78314">
        <ele>2411</ele>
        <time>2015-08-23T10:51:01Z</time>
      </trkpt>
      <trkpt lat="45.39907" lon="6.78308">
        <ele>2410</ele>
        <time>2015-08-23T10:51:03Z</time>
      </trkpt>
      <trkpt lat="45.39908" lon="6.78302">
        <ele>2409</ele>
        <time>2015-08-23T10:51:05Z</time>
      </trkpt>
      <trkpt lat="45.39908" lon="6.78296">
        <ele>2408</ele>
        <time>2015-08-23T10:51:07Z</time>
      </trkpt>
      <trkpt lat="45.39906" lon="6.78291">
        <ele>2408</ele>
        <time>2015-08-23T10:51:09Z</time>
      </trkpt>
      <trkpt lat="45.39906" lon="6.78285">
        <ele>2407</ele>
        <time>2015-08-23T10:51:11Z</time>
      </trkpt>
      <trkpt lat="45.39908" lon="6.78282">
        <ele>2406</ele>
        <time>2015-08-23T10:51:12Z</time>
      </trkpt>
      <trkpt lat="45.39909" lon="6.78276">
        <ele>2406</ele>
        <time>2015-08-23T10:51:14Z</time>
      </trkpt>
      <trkpt lat="45.3991" lon="6.78269">
        <ele>2405</ele>
        <time>2015-08-23T10:51:16Z</time>
      </trkpt>
      <trkpt lat="45.39912" lon="6.78263">
        <ele>2404</ele>
        <time>2015-08-23T10:51:18Z</time>
      </trkpt>
      <trkpt lat="45.39914" lon="6.78258">
        <ele>2404</ele>
        <time>2015-08-23T10:51:20Z</time>
      </trkpt>
      <trkpt lat="45.39915" lon="6.78254">
        <ele>2404</ele>
        <time>2015-08-23T10:51:22Z</time>
      </trkpt>
      <trkpt lat="45.39916" lon="6.78251">
        <ele>2403</ele>
        <time>2015-08-23T10:51:24Z</time>
      </trkpt>
      <trkpt lat="45.39916" lon="6.78246">
        <ele>2401</ele>
        <time>2015-08-23T10:51:26Z</time>
      </trkpt>
      <trkpt lat="45.39917" lon="6.78242">
        <ele>2406</ele>
        <time>2015-08-23T10:51:27Z</time>
      </trkpt>
      <trkpt lat="45.39918" lon="6.78236">
        <ele>2407</ele>
        <time>2015-08-23T10:51:30Z</time>
      </trkpt>
      <trkpt lat="45.39919" lon="6.7823">
        <ele>2407</ele>
        <time>2015-08-23T10:51:31Z</time>
      </trkpt>
      <trkpt lat="45.3992" lon="6.78224">
        <ele>2408</ele>
        <time>2015-08-23T10:51:33Z</time>
      </trkpt>
      <trkpt lat="45.39921" lon="6.78217">
        <ele>2407</ele>
        <time>2015-08-23T10:51:35Z</time>
      </trkpt>
      <trkpt lat="45.39922" lon="6.7821">
        <ele>2407</ele>
        <time>2015-08-23T10:51:37Z</time>
      </trkpt>
      <trkpt lat="45.39922" lon="6.78203">
        <ele>2405</ele>
        <time>2015-08-23T10:51:39Z</time>
      </trkpt>
      <trkpt lat="45.39922" lon="6.78196">
        <ele>2404</ele>
        <time>2015-08-23T10:51:41Z</time>
      </trkpt>
      <trkpt lat="45.39921" lon="6.78189">
        <ele>2401</ele>
        <time>2015-08-23T10:51:43Z</time>
      </trkpt>
      <trkpt lat="45.39921" lon="6.78185">
        <ele>2399</ele>
        <time>2015-08-23T10:51:44Z</time>
      </trkpt>
      <trkpt lat="45.3992" lon="6.78176">
        <ele>2395</ele>
        <time>2015-08-23T10:51:46Z</time>
      </trkpt>
      <trkpt lat="45.39919" lon="6.7817">
        <ele>2390</ele>
        <time>2015-08-23T10:51:48Z</time>
      </trkpt>
      <trkpt lat="45.39918" lon="6.78165">
        <ele>2387</ele>
        <time>2015-08-23T10:51:50Z</time>
      </trkpt>
      <trkpt lat="45.39918" lon="6.78161">
        <ele>2387</ele>
        <time>2015-08-23T10:51:52Z</time>
      </trkpt>
      <trkpt lat="45.39918" lon="6.78156">
        <ele>2388</ele>
        <time>2015-08-23T10:51:55Z</time>
      </trkpt>
      <trkpt lat="45.39921" lon="6.78147">
        <ele>2389</ele>
        <time>2015-08-23T10:51:57Z</time>
      </trkpt>
      <trkpt lat="45.39922" lon="6.78143">
        <ele>2389</ele>
        <time>2015-08-23T10:51:58Z</time>
      </trkpt>
      <trkpt lat="45.39923" lon="6.7814">
        <ele>2389</ele>
        <time>2015-08-23T10:51:59Z</time>
      </trkpt>
      <trkpt lat="45.39924" lon="6.78133">
        <ele>2389</ele>
        <time>2015-08-23T10:52:01Z</time>
      </trkpt>
      <trkpt lat="45.39925" lon="6.78127">
        <ele>2388</ele>
        <time>2015-08-23T10:52:03Z</time>
      </trkpt>
      <trkpt lat="45.39927" lon="6.78122">
        <ele>2388</ele>
        <time>2015-08-23T10:52:05Z</time>
      </trkpt>
      <trkpt lat="45.3993" lon="6.78116">
        <ele>2387</ele>
        <time>2015-08-23T10:52:07Z</time>
      </trkpt>
      <trkpt lat="45.39931" lon="6.78111">
        <ele>2386</ele>
        <time>2015-08-23T10:52:09Z</time>
      </trkpt>
      <trkpt lat="45.39931" lon="6.78105">
        <ele>2385</ele>
        <time>2015-08-23T10:52:11Z</time>
      </trkpt>
      <trkpt lat="45.39931" lon="6.78099">
        <ele>2383</ele>
        <time>2015-08-23T10:52:13Z</time>
      </trkpt>
      <trkpt lat="45.39933" lon="6.78093">
        <ele>2382</ele>
        <time>2015-08-23T10:52:15Z</time>
      </trkpt>
      <trkpt lat="45.39935" lon="6.7809">
        <ele>2383</ele>
        <time>2015-08-23T10:52:16Z</time>
      </trkpt>
      <trkpt lat="45.39938" lon="6.78083">
        <ele>2383</ele>
        <time>2015-08-23T10:52:18Z</time>
      </trkpt>
      <trkpt lat="45.39939" lon="6.78077">
        <ele>2374</ele>
        <time>2015-08-23T10:52:21Z</time>
      </trkpt>
      <trkpt lat="45.39939" lon="6.7807">
        <ele>2374</ele>
        <time>2015-08-23T10:52:23Z</time>
      </trkpt>
      <trkpt lat="45.39941" lon="6.78062">
        <ele>2374</ele>
        <time>2015-08-23T10:52:24Z</time>
      </trkpt>
      <trkpt lat="45.39943" lon="6.78057">
        <ele>2374</ele>
        <time>2015-08-23T10:52:25Z</time>
      </trkpt>
      <trkpt lat="45.39945" lon="6.78053">
        <ele>2374</ele>
        <time>2015-08-23T10:52:26Z</time>
      </trkpt>
      <trkpt lat="45.39946" lon="6.78049">
        <ele>2374</ele>
        <time>2015-08-23T10:52:27Z</time>
      </trkpt>
      <trkpt lat="45.39947" lon="6.78044">
        <ele>2374</ele>
        <time>2015-08-23T10:52:28Z</time>
      </trkpt>
      <trkpt lat="45.39949" lon="6.7804">
        <ele>2374</ele>
        <time>2015-08-23T10:52:29Z</time>
      </trkpt>
      <trkpt lat="45.39951" lon="6.78036">
        <ele>2373</ele>
        <time>2015-08-23T10:52:30Z</time>
      </trkpt>
      <trkpt lat="45.39953" lon="6.78032">
        <ele>2373</ele>
        <time>2015-08-23T10:52:31Z</time>
      </trkpt>
      <trkpt lat="45.39955" lon="6.78029">
        <ele>2373</ele>
        <time>2015-08-23T10:52:32Z</time>
      </trkpt>
      <trkpt lat="45.39957" lon="6.78023">
        <ele>2373</ele>
        <time>2015-08-23T10:52:34Z</time>
      </trkpt>
      <trkpt lat="45.39958" lon="6.78017">
        <ele>2373</ele>
        <time>2015-08-23T10:52:36Z</time>
      </trkpt>
      <trkpt lat="45.39958" lon="6.78012">
        <ele>2372</ele>
        <time>2015-08-23T10:52:38Z</time>
      </trkpt>
      <trkpt lat="45.39957" lon="6.78007">
        <ele>2372</ele>
        <time>2015-08-23T10:52:40Z</time>
      </trkpt>
      <trkpt lat="45.39957" lon="6.78002">
        <ele>2372</ele>
        <time>2015-08-23T10:52:42Z</time>
      </trkpt>
      <trkpt lat="45.39956" lon="6.77997">
        <ele>2364</ele>
        <time>2015-08-23T10:52:44Z</time>
      </trkpt>
      <trkpt lat="45.39956" lon="6.77993">
        <ele>2364</ele>
        <time>2015-08-23T10:52:46Z</time>
      </trkpt>
      <trkpt lat="45.39956" lon="6.77987">
        <ele>2364</ele>
        <time>2015-08-23T10:52:49Z</time>
      </trkpt>
      <trkpt lat="45.39959" lon="6.77983">
        <ele>2364</ele>
        <time>2015-08-23T10:52:51Z</time>
      </trkpt>
      <trkpt lat="45.39963" lon="6.77979">
        <ele>2364</ele>
        <time>2015-08-23T10:52:53Z</time>
      </trkpt>
      <trkpt lat="45.39965" lon="6.77976">
        <ele>2364</ele>
        <time>2015-08-23T10:52:54Z</time>
      </trkpt>
      <trkpt lat="45.39968" lon="6.77971">
        <ele>2363</ele>
        <time>2015-08-23T10:52:56Z</time>
      </trkpt>
      <trkpt lat="45.39968" lon="6.77965">
        <ele>2363</ele>
        <time>2015-08-23T10:52:58Z</time>
      </trkpt>
      <trkpt lat="45.39968" lon="6.7796">
        <ele>2363</ele>
        <time>2015-08-23T10:53:01Z</time>
      </trkpt>
      <trkpt lat="45.39968" lon="6.77953">
        <ele>2362</ele>
        <time>2015-08-23T10:53:02Z</time>
      </trkpt>
      <trkpt lat="45.39968" lon="6.77946">
        <ele>2362</ele>
        <time>2015-08-23T10:53:04Z</time>
      </trkpt>
      <trkpt lat="45.39967" lon="6.77943">
        <ele>2361</ele>
        <time>2015-08-23T10:53:05Z</time>
      </trkpt>
      <trkpt lat="45.39966" lon="6.77936">
        <ele>2361</ele>
        <time>2015-08-23T10:53:08Z</time>
      </trkpt>
      <trkpt lat="45.39965" lon="6.77924">
        <ele>2360</ele>
        <time>2015-08-23T10:53:10Z</time>
      </trkpt>
      <trkpt lat="45.39965" lon="6.7792">
        <ele>2360</ele>
        <time>2015-08-23T10:53:11Z</time>
      </trkpt>
      <trkpt lat="45.39964" lon="6.77913">
        <ele>2355</ele>
        <time>2015-08-23T10:53:13Z</time>
      </trkpt>
      <trkpt lat="45.39965" lon="6.77906">
        <ele>2355</ele>
        <time>2015-08-23T10:53:15Z</time>
      </trkpt>
      <trkpt lat="45.39966" lon="6.77901">
        <ele>2355</ele>
        <time>2015-08-23T10:53:17Z</time>
      </trkpt>
      <trkpt lat="45.39966" lon="6.77896">
        <ele>2355</ele>
        <time>2015-08-23T10:53:20Z</time>
      </trkpt>
      <trkpt lat="45.39965" lon="6.77892">
        <ele>2354</ele>
        <time>2015-08-23T10:53:21Z</time>
      </trkpt>
      <trkpt lat="45.39964" lon="6.77888">
        <ele>2354</ele>
        <time>2015-08-23T10:53:23Z</time>
      </trkpt>
      <trkpt lat="45.39964" lon="6.77883">
        <ele>2354</ele>
        <time>2015-08-23T10:53:25Z</time>
      </trkpt>
      <trkpt lat="45.39965" lon="6.77879">
        <ele>2354</ele>
        <time>2015-08-23T10:53:27Z</time>
      </trkpt>
      <trkpt lat="45.39968" lon="6.77874">
        <ele>2354</ele>
        <time>2015-08-23T10:53:29Z</time>
      </trkpt>
      <trkpt lat="45.39971" lon="6.7787">
        <ele>2354</ele>
        <time>2015-08-23T10:53:31Z</time>
      </trkpt>
      <trkpt lat="45.39967" lon="6.77866">
        <ele>2354</ele>
        <time>2015-08-23T10:53:34Z</time>
      </trkpt>
      <trkpt lat="45.39964" lon="6.77865">
        <ele>2353</ele>
        <time>2015-08-23T10:53:36Z</time>
      </trkpt>
      <trkpt lat="45.39958" lon="6.77863">
        <ele>2353</ele>
        <time>2015-08-23T10:53:38Z</time>
      </trkpt>
      <trkpt lat="45.39955" lon="6.77861">
        <ele>2352</ele>
        <time>2015-08-23T10:53:39Z</time>
      </trkpt>
      <trkpt lat="45.39953" lon="6.77859">
        <ele>2352</ele>
        <time>2015-08-23T10:53:40Z</time>
      </trkpt>
      <trkpt lat="45.3995" lon="6.77857">
        <ele>2352</ele>
        <time>2015-08-23T10:53:41Z</time>
      </trkpt>
      <trkpt lat="45.39947" lon="6.77854">
        <ele>2351</ele>
        <time>2015-08-23T10:53:43Z</time>
      </trkpt>
      <trkpt lat="45.39942" lon="6.77852">
        <ele>2351</ele>
        <time>2015-08-23T10:53:45Z</time>
      </trkpt>
      <trkpt lat="45.39937" lon="6.7785">
        <ele>2350</ele>
        <time>2015-08-23T10:53:47Z</time>
      </trkpt>
      <trkpt lat="45.39933" lon="6.77849">
        <ele>2349</ele>
        <time>2015-08-23T10:53:48Z</time>
      </trkpt>
      <trkpt lat="45.3993" lon="6.77848">
        <ele>2349</ele>
        <time>2015-08-23T10:53:49Z</time>
      </trkpt>
      <trkpt lat="45.39926" lon="6.77847">
        <ele>2348</ele>
        <time>2015-08-23T10:53:50Z</time>
      </trkpt>
      <trkpt lat="45.39922" lon="6.77845">
        <ele>2347</ele>
        <time>2015-08-23T10:53:52Z</time>
      </trkpt>
      <trkpt lat="45.39919" lon="6.77843">
        <ele>2347</ele>
        <time>2015-08-23T10:53:54Z</time>
      </trkpt>
      <trkpt lat="45.39917" lon="6.77839">
        <ele>2345</ele>
        <time>2015-08-23T10:53:57Z</time>
      </trkpt>
      <trkpt lat="45.39916" lon="6.77836">
        <ele>2343</ele>
        <time>2015-08-23T10:53:59Z</time>
      </trkpt>
      <trkpt lat="45.39914" lon="6.77831">
        <ele>2342</ele>
        <time>2015-08-23T10:54:01Z</time>
      </trkpt>
      <trkpt lat="45.39915" lon="6.77825">
        <ele>2341</ele>
        <time>2015-08-23T10:54:03Z</time>
      </trkpt>
      <trkpt lat="45.39916" lon="6.77818">
        <ele>2339</ele>
        <time>2015-08-23T10:54:05Z</time>
      </trkpt>
      <trkpt lat="45.39917" lon="6.77814">
        <ele>2346</ele>
        <time>2015-08-23T10:54:06Z</time>
      </trkpt>
      <trkpt lat="45.39918" lon="6.77811">
        <ele>2346</ele>
        <time>2015-08-23T10:54:07Z</time>
      </trkpt>
      <trkpt lat="45.3992" lon="6.77807">
        <ele>2346</ele>
        <time>2015-08-23T10:54:08Z</time>
      </trkpt>
      <trkpt lat="45.39922" lon="6.77803">
        <ele>2346</ele>
        <time>2015-08-23T10:54:09Z</time>
      </trkpt>
      <trkpt lat="45.39924" lon="6.778">
        <ele>2347</ele>
        <time>2015-08-23T10:54:10Z</time>
      </trkpt>
      <trkpt lat="45.39926" lon="6.77797">
        <ele>2347</ele>
        <time>2015-08-23T10:54:11Z</time>
      </trkpt>
      <trkpt lat="45.39929" lon="6.77793">
        <ele>2347</ele>
        <time>2015-08-23T10:54:13Z</time>
      </trkpt>
      <trkpt lat="45.39932" lon="6.77789">
        <ele>2347</ele>
        <time>2015-08-23T10:54:15Z</time>
      </trkpt>
      <trkpt lat="45.39935" lon="6.77786">
        <ele>2347</ele>
        <time>2015-08-23T10:54:17Z</time>
      </trkpt>
      <trkpt lat="45.39938" lon="6.77783">
        <ele>2347</ele>
        <time>2015-08-23T10:54:19Z</time>
      </trkpt>
      <trkpt lat="45.39939" lon="6.77779">
        <ele>2347</ele>
        <time>2015-08-23T10:54:21Z</time>
      </trkpt>
      <trkpt lat="45.39939" lon="6.77774">
        <ele>2347</ele>
        <time>2015-08-23T10:54:23Z</time>
      </trkpt>
      <trkpt lat="45.3994" lon="6.77766">
        <ele>2346</ele>
        <time>2015-08-23T10:54:25Z</time>
      </trkpt>
      <trkpt lat="45.39942" lon="6.77763">
        <ele>2347</ele>
        <time>2015-08-23T10:54:26Z</time>
      </trkpt>
      <trkpt lat="45.39945" lon="6.77761">
        <ele>2347</ele>
        <time>2015-08-23T10:54:27Z</time>
      </trkpt>
      <trkpt lat="45.39948" lon="6.77758">
        <ele>2347</ele>
        <time>2015-08-23T10:54:28Z</time>
      </trkpt>
      <trkpt lat="45.3995" lon="6.77755">
        <ele>2348</ele>
        <time>2015-08-23T10:54:29Z</time>
      </trkpt>
      <trkpt lat="45.39952" lon="6.77753">
        <ele>2348</ele>
        <time>2015-08-23T10:54:30Z</time>
      </trkpt>
      <trkpt lat="45.39954" lon="6.77747">
        <ele>2351</ele>
        <time>2015-08-23T10:54:32Z</time>
      </trkpt>
      <trkpt lat="45.39952" lon="6.77744">
        <ele>2350</ele>
        <time>2015-08-23T10:54:34Z</time>
      </trkpt>
      <trkpt lat="45.39948" lon="6.77745">
        <ele>2349</ele>
        <time>2015-08-23T10:54:36Z</time>
      </trkpt>
      <trkpt lat="45.39946" lon="6.77745">
        <ele>2349</ele>
        <time>2015-08-23T10:54:38Z</time>
      </trkpt>
      <trkpt lat="45.39943" lon="6.77747">
        <ele>2348</ele>
        <time>2015-08-23T10:54:40Z</time>
      </trkpt>
      <trkpt lat="45.3994" lon="6.77749">
        <ele>2347</ele>
        <time>2015-08-23T10:54:42Z</time>
      </trkpt>
      <trkpt lat="45.39937" lon="6.77752">
        <ele>2345</ele>
        <time>2015-08-23T10:54:44Z</time>
      </trkpt>
      <trkpt lat="45.39933" lon="6.77756">
        <ele>2344</ele>
        <time>2015-08-23T10:54:46Z</time>
      </trkpt>
      <trkpt lat="45.3993" lon="6.7776">
        <ele>2344</ele>
        <time>2015-08-23T10:54:48Z</time>
      </trkpt>
      <trkpt lat="45.39926" lon="6.77763">
        <ele>2344</ele>
        <time>2015-08-23T10:54:50Z</time>
      </trkpt>
      <trkpt lat="45.39923" lon="6.77767">
        <ele>2344</ele>
        <time>2015-08-23T10:54:52Z</time>
      </trkpt>
      <trkpt lat="45.3992" lon="6.77771">
        <ele>2344</ele>
        <time>2015-08-23T10:54:54Z</time>
      </trkpt>
      <trkpt lat="45.39918" lon="6.77774">
        <ele>2345</ele>
        <time>2015-08-23T10:54:56Z</time>
      </trkpt>
      <trkpt lat="45.39916" lon="6.77776">
        <ele>2336</ele>
        <time>2015-08-23T10:54:58Z</time>
      </trkpt>
      <trkpt lat="45.39913" lon="6.77778">
        <ele>2336</ele>
        <time>2015-08-23T10:55:01Z</time>
      </trkpt>
      <trkpt lat="45.39909" lon="6.77779">
        <ele>2336</ele>
        <time>2015-08-23T10:55:05Z</time>
      </trkpt>
      <trkpt lat="45.39905" lon="6.7778">
        <ele>2336</ele>
        <time>2015-08-23T10:55:06Z</time>
      </trkpt>
      <trkpt lat="45.39902" lon="6.77782">
        <ele>2336</ele>
        <time>2015-08-23T10:55:08Z</time>
      </trkpt>
      <trkpt lat="45.39898" lon="6.77786">
        <ele>2336</ele>
        <time>2015-08-23T10:55:10Z</time>
      </trkpt>
      <trkpt lat="45.39894" lon="6.77788">
        <ele>2336</ele>
        <time>2015-08-23T10:55:12Z</time>
      </trkpt>
      <trkpt lat="45.3989" lon="6.77788">
        <ele>2335</ele>
        <time>2015-08-23T10:55:14Z</time>
      </trkpt>
      <trkpt lat="45.39884" lon="6.77787">
        <ele>2335</ele>
        <time>2015-08-23T10:55:16Z</time>
      </trkpt>
      <trkpt lat="45.39879" lon="6.77787">
        <ele>2335</ele>
        <time>2015-08-23T10:55:18Z</time>
      </trkpt>
      <trkpt lat="45.39875" lon="6.77788">
        <ele>2334</ele>
        <time>2015-08-23T10:55:20Z</time>
      </trkpt>
      <trkpt lat="45.3987" lon="6.77786">
        <ele>2334</ele>
        <time>2015-08-23T10:55:22Z</time>
      </trkpt>
      <trkpt lat="45.39867" lon="6.77781">
        <ele>2333</ele>
        <time>2015-08-23T10:55:24Z</time>
      </trkpt>
      <trkpt lat="45.39865" lon="6.77778">
        <ele>2333</ele>
        <time>2015-08-23T10:55:25Z</time>
      </trkpt>
      <trkpt lat="45.39863" lon="6.77775">
        <ele>2332</ele>
        <time>2015-08-23T10:55:26Z</time>
      </trkpt>
      <trkpt lat="45.39861" lon="6.77771">
        <ele>2332</ele>
        <time>2015-08-23T10:55:27Z</time>
      </trkpt>
      <trkpt lat="45.39859" lon="6.77767">
        <ele>2331</ele>
        <time>2015-08-23T10:55:28Z</time>
      </trkpt>
      <trkpt lat="45.39856" lon="6.77763">
        <ele>2330</ele>
        <time>2015-08-23T10:55:29Z</time>
      </trkpt>
      <trkpt lat="45.39854" lon="6.77759">
        <ele>2330</ele>
        <time>2015-08-23T10:55:30Z</time>
      </trkpt>
      <trkpt lat="45.39853" lon="6.77755">
        <ele>2329</ele>
        <time>2015-08-23T10:55:31Z</time>
      </trkpt>
      <trkpt lat="45.39851" lon="6.77751">
        <ele>2328</ele>
        <time>2015-08-23T10:55:32Z</time>
      </trkpt>
      <trkpt lat="45.39851" lon="6.77747">
        <ele>2326</ele>
        <time>2015-08-23T10:55:33Z</time>
      </trkpt>
      <trkpt lat="45.39849" lon="6.77739">
        <ele>2326</ele>
        <time>2015-08-23T10:55:35Z</time>
      </trkpt>
      <trkpt lat="45.39849" lon="6.77734">
        <ele>2327</ele>
        <time>2015-08-23T10:55:36Z</time>
      </trkpt>
      <trkpt lat="45.39849" lon="6.77726">
        <ele>2327</ele>
        <time>2015-08-23T10:55:38Z</time>
      </trkpt>
      <trkpt lat="45.39848" lon="6.77722">
        <ele>2327</ele>
        <time>2015-08-23T10:55:39Z</time>
      </trkpt>
      <trkpt lat="45.39848" lon="6.77714">
        <ele>2327</ele>
        <time>2015-08-23T10:55:41Z</time>
      </trkpt>
      <trkpt lat="45.39847" lon="6.7771">
        <ele>2327</ele>
        <time>2015-08-23T10:55:42Z</time>
      </trkpt>
      <trkpt lat="45.39846" lon="6.77703">
        <ele>2327</ele>
        <time>2015-08-23T10:55:44Z</time>
      </trkpt>
      <trkpt lat="45.39845" lon="6.77698">
        <ele>2327</ele>
        <time>2015-08-23T10:55:46Z</time>
      </trkpt>
      <trkpt lat="45.39843" lon="6.7769">
        <ele>2326</ele>
        <time>2015-08-23T10:55:53Z</time>
      </trkpt>
      <trkpt lat="45.3984" lon="6.77684">
        <ele>2325</ele>
        <time>2015-08-23T10:55:55Z</time>
      </trkpt>
      <trkpt lat="45.39837" lon="6.77678">
        <ele>2324</ele>
        <time>2015-08-23T10:55:57Z</time>
      </trkpt>
      <trkpt lat="45.39835" lon="6.77674">
        <ele>2323</ele>
        <time>2015-08-23T10:55:59Z</time>
      </trkpt>
      <trkpt lat="45.39834" lon="6.77668">
        <ele>2321</ele>
        <time>2015-08-23T10:56:03Z</time>
      </trkpt>
      <trkpt lat="45.39833" lon="6.77661">
        <ele>2320</ele>
        <time>2015-08-23T10:56:05Z</time>
      </trkpt>
      <trkpt lat="45.39832" lon="6.77657">
        <ele>2320</ele>
        <time>2015-08-23T10:56:06Z</time>
      </trkpt>
      <trkpt lat="45.3983" lon="6.77653">
        <ele>2321</ele>
        <time>2015-08-23T10:56:07Z</time>
      </trkpt>
      <trkpt lat="45.39829" lon="6.77649">
        <ele>2321</ele>
        <time>2015-08-23T10:56:08Z</time>
      </trkpt>
      <trkpt lat="45.39827" lon="6.77645">
        <ele>2321</ele>
        <time>2015-08-23T10:56:09Z</time>
      </trkpt>
      <trkpt lat="45.39825" lon="6.77642">
        <ele>2321</ele>
        <time>2015-08-23T10:56:10Z</time>
      </trkpt>
      <trkpt lat="45.39824" lon="6.77638">
        <ele>2321</ele>
        <time>2015-08-23T10:56:11Z</time>
      </trkpt>
      <trkpt lat="45.39822" lon="6.77635">
        <ele>2321</ele>
        <time>2015-08-23T10:56:12Z</time>
      </trkpt>
      <trkpt lat="45.3982" lon="6.77632">
        <ele>2321</ele>
        <time>2015-08-23T10:56:13Z</time>
      </trkpt>
      <trkpt lat="45.39817" lon="6.77628">
        <ele>2321</ele>
        <time>2015-08-23T10:56:15Z</time>
      </trkpt>
      <trkpt lat="45.39814" lon="6.77625">
        <ele>2321</ele>
        <time>2015-08-23T10:56:17Z</time>
      </trkpt>
      <trkpt lat="45.39812" lon="6.77621">
        <ele>2321</ele>
        <time>2015-08-23T10:56:20Z</time>
      </trkpt>
      <trkpt lat="45.3981" lon="6.77618">
        <ele>2321</ele>
        <time>2015-08-23T10:56:22Z</time>
      </trkpt>
      <trkpt lat="45.39808" lon="6.77613">
        <ele>2322</ele>
        <time>2015-08-23T10:56:25Z</time>
      </trkpt>
      <trkpt lat="45.39807" lon="6.77608">
        <ele>2322</ele>
        <time>2015-08-23T10:56:27Z</time>
      </trkpt>
      <trkpt lat="45.39804" lon="6.77601">
        <ele>2322</ele>
        <time>2015-08-23T10:56:29Z</time>
      </trkpt>
      <trkpt lat="45.39801" lon="6.77594">
        <ele>2322</ele>
        <time>2015-08-23T10:56:31Z</time>
      </trkpt>
      <trkpt lat="45.39799" lon="6.7759">
        <ele>2322</ele>
        <time>2015-08-23T10:56:32Z</time>
      </trkpt>
      <trkpt lat="45.39797" lon="6.77583">
        <ele>2321</ele>
        <time>2015-08-23T10:56:35Z</time>
      </trkpt>
      <trkpt lat="45.39795" lon="6.77577">
        <ele>2325</ele>
        <time>2015-08-23T10:56:36Z</time>
      </trkpt>
      <trkpt lat="45.39793" lon="6.77572">
        <ele>2325</ele>
        <time>2015-08-23T10:56:38Z</time>
      </trkpt>
      <trkpt lat="45.39791" lon="6.77568">
        <ele>2325</ele>
        <time>2015-08-23T10:56:40Z</time>
      </trkpt>
      <trkpt lat="45.39788" lon="6.77564">
        <ele>2325</ele>
        <time>2015-08-23T10:56:42Z</time>
      </trkpt>
      <trkpt lat="45.39786" lon="6.77559">
        <ele>2325</ele>
        <time>2015-08-23T10:56:44Z</time>
      </trkpt>
      <trkpt lat="45.39784" lon="6.77552">
        <ele>2325</ele>
        <time>2015-08-23T10:56:46Z</time>
      </trkpt>
      <trkpt lat="45.39783" lon="6.77549">
        <ele>2325</ele>
        <time>2015-08-23T10:56:47Z</time>
      </trkpt>
      <trkpt lat="45.39782" lon="6.77542">
        <ele>2325</ele>
        <time>2015-08-23T10:56:49Z</time>
      </trkpt>
      <trkpt lat="45.3978" lon="6.77536">
        <ele>2325</ele>
        <time>2015-08-23T10:56:51Z</time>
      </trkpt>
      <trkpt lat="45.39778" lon="6.77528">
        <ele>2325</ele>
        <time>2015-08-23T10:56:54Z</time>
      </trkpt>
      <trkpt lat="45.39777" lon="6.77521">
        <ele>2325</ele>
        <time>2015-08-23T10:56:55Z</time>
      </trkpt>
      <trkpt lat="45.39775" lon="6.77515">
        <ele>2325</ele>
        <time>2015-08-23T10:56:57Z</time>
      </trkpt>
      <trkpt lat="45.39772" lon="6.77509">
        <ele>2325</ele>
        <time>2015-08-23T10:56:59Z</time>
      </trkpt>
      <trkpt lat="45.39769" lon="6.77505">
        <ele>2324</ele>
        <time>2015-08-23T10:57:01Z</time>
      </trkpt>
      <trkpt lat="45.39765" lon="6.77499">
        <ele>2327</ele>
        <time>2015-08-23T10:57:03Z</time>
      </trkpt>
      <trkpt lat="45.39763" lon="6.77496">
        <ele>2326</ele>
        <time>2015-08-23T10:57:04Z</time>
      </trkpt>
      <trkpt lat="45.39761" lon="6.77493">
        <ele>2326</ele>
        <time>2015-08-23T10:57:05Z</time>
      </trkpt>
      <trkpt lat="45.39758" lon="6.77487">
        <ele>2326</ele>
        <time>2015-08-23T10:57:07Z</time>
      </trkpt>
      <trkpt lat="45.39756" lon="6.77484">
        <ele>2327</ele>
        <time>2015-08-23T10:57:08Z</time>
      </trkpt>
      <trkpt lat="45.39755" lon="6.77481">
        <ele>2327</ele>
        <time>2015-08-23T10:57:09Z</time>
      </trkpt>
      <trkpt lat="45.39752" lon="6.77478">
        <ele>2328</ele>
        <time>2015-08-23T10:57:10Z</time>
      </trkpt>
      <trkpt lat="45.3975" lon="6.77476">
        <ele>2328</ele>
        <time>2015-08-23T10:57:11Z</time>
      </trkpt>
      <trkpt lat="45.39747" lon="6.77472">
        <ele>2322</ele>
        <time>2015-08-23T10:57:13Z</time>
      </trkpt>
      <trkpt lat="45.39744" lon="6.77471">
        <ele>2322</ele>
        <time>2015-08-23T10:57:17Z</time>
      </trkpt>
      <trkpt lat="45.39744" lon="6.77466">
        <ele>2322</ele>
        <time>2015-08-23T10:57:23Z</time>
      </trkpt>
      <trkpt lat="45.39743" lon="6.77459">
        <ele>2322</ele>
        <time>2015-08-23T10:57:25Z</time>
      </trkpt>
      <trkpt lat="45.39742" lon="6.77455">
        <ele>2322</ele>
        <time>2015-08-23T10:57:26Z</time>
      </trkpt>
      <trkpt lat="45.39741" lon="6.77451">
        <ele>2322</ele>
        <time>2015-08-23T10:57:27Z</time>
      </trkpt>
      <trkpt lat="45.39739" lon="6.77446">
        <ele>2322</ele>
        <time>2015-08-23T10:57:29Z</time>
      </trkpt>
      <trkpt lat="45.39737" lon="6.7744">
        <ele>2322</ele>
        <time>2015-08-23T10:57:31Z</time>
      </trkpt>
      <trkpt lat="45.39736" lon="6.77434">
        <ele>2322</ele>
        <time>2015-08-23T10:57:33Z</time>
      </trkpt>
      <trkpt lat="45.39735" lon="6.7743">
        <ele>2322</ele>
        <time>2015-08-23T10:57:34Z</time>
      </trkpt>
      <trkpt lat="45.39731" lon="6.77426">
        <ele>2322</ele>
        <time>2015-08-23T10:57:36Z</time>
      </trkpt>
      <trkpt lat="45.39725" lon="6.77426">
        <ele>2322</ele>
        <time>2015-08-23T10:57:39Z</time>
      </trkpt>
      <trkpt lat="45.39723" lon="6.77423">
        <ele>2322</ele>
        <time>2015-08-23T10:57:40Z</time>
      </trkpt>
      <trkpt lat="45.39723" lon="6.77417">
        <ele>2322</ele>
        <time>2015-08-23T10:57:42Z</time>
      </trkpt>
      <trkpt lat="45.39725" lon="6.77411">
        <ele>2320</ele>
        <time>2015-08-23T10:57:44Z</time>
      </trkpt>
      <trkpt lat="45.39725" lon="6.77405">
        <ele>2320</ele>
        <time>2015-08-23T10:57:47Z</time>
      </trkpt>
      <trkpt lat="45.39723" lon="6.77401">
        <ele>2320</ele>
        <time>2015-08-23T10:57:50Z</time>
      </trkpt>
      <trkpt lat="45.39724" lon="6.77397">
        <ele>2320</ele>
        <time>2015-08-23T10:57:52Z</time>
      </trkpt>
      <trkpt lat="45.39725" lon="6.77392">
        <ele>2320</ele>
        <time>2015-08-23T10:57:54Z</time>
      </trkpt>
      <trkpt lat="45.39723" lon="6.77387">
        <ele>2320</ele>
        <time>2015-08-23T10:57:56Z</time>
      </trkpt>
      <trkpt lat="45.3972" lon="6.77381">
        <ele>2319</ele>
        <time>2015-08-23T10:57:58Z</time>
      </trkpt>
      <trkpt lat="45.39718" lon="6.77371">
        <ele>2319</ele>
        <time>2015-08-23T10:58:00Z</time>
      </trkpt>
      <trkpt lat="45.39718" lon="6.77366">
        <ele>2319</ele>
        <time>2015-08-23T10:58:01Z</time>
      </trkpt>
      <trkpt lat="45.39718" lon="6.77362">
        <ele>2319</ele>
        <time>2015-08-23T10:58:02Z</time>
      </trkpt>
      <trkpt lat="45.39717" lon="6.77357">
        <ele>2319</ele>
        <time>2015-08-23T10:58:03Z</time>
      </trkpt>
      <trkpt lat="45.39717" lon="6.77354">
        <ele>2319</ele>
        <time>2015-08-23T10:58:04Z</time>
      </trkpt>
      <trkpt lat="45.39716" lon="6.77347">
        <ele>2319</ele>
        <time>2015-08-23T10:58:06Z</time>
      </trkpt>
      <trkpt lat="45.39716" lon="6.7734">
        <ele>2319</ele>
        <time>2015-08-23T10:58:08Z</time>
      </trkpt>
      <trkpt lat="45.39717" lon="6.77331">
        <ele>2318</ele>
        <time>2015-08-23T10:58:11Z</time>
      </trkpt>
      <trkpt lat="45.39717" lon="6.77327">
        <ele>2318</ele>
        <time>2015-08-23T10:58:12Z</time>
      </trkpt>
      <trkpt lat="45.39716" lon="6.7732">
        <ele>2317</ele>
        <time>2015-08-23T10:58:14Z</time>
      </trkpt>
      <trkpt lat="45.39715" lon="6.77316">
        <ele>2317</ele>
        <time>2015-08-23T10:58:15Z</time>
      </trkpt>
      <trkpt lat="45.39712" lon="6.77309">
        <ele>2316</ele>
        <time>2015-08-23T10:58:17Z</time>
      </trkpt>
      <trkpt lat="45.3971" lon="6.77305">
        <ele>2316</ele>
        <time>2015-08-23T10:58:18Z</time>
      </trkpt>
      <trkpt lat="45.39708" lon="6.77302">
        <ele>2316</ele>
        <time>2015-08-23T10:58:19Z</time>
      </trkpt>
      <trkpt lat="45.39707" lon="6.77298">
        <ele>2316</ele>
        <time>2015-08-23T10:58:20Z</time>
      </trkpt>
      <trkpt lat="45.39705" lon="6.77295">
        <ele>2316</ele>
        <time>2015-08-23T10:58:21Z</time>
      </trkpt>
      <trkpt lat="45.39704" lon="6.77291">
        <ele>2315</ele>
        <time>2015-08-23T10:58:22Z</time>
      </trkpt>
      <trkpt lat="45.39701" lon="6.77285">
        <ele>2315</ele>
        <time>2015-08-23T10:58:24Z</time>
      </trkpt>
      <trkpt lat="45.397" lon="6.77281">
        <ele>2315</ele>
        <time>2015-08-23T10:58:25Z</time>
      </trkpt>
      <trkpt lat="45.39698" lon="6.77277">
        <ele>2314</ele>
        <time>2015-08-23T10:58:26Z</time>
      </trkpt>
      <trkpt lat="45.39697" lon="6.77274">
        <ele>2314</ele>
        <time>2015-08-23T10:58:28Z</time>
      </trkpt>
      <trkpt lat="45.39694" lon="6.77272">
        <ele>2314</ele>
        <time>2015-08-23T10:58:32Z</time>
      </trkpt>
      <trkpt lat="45.39692" lon="6.77266">
        <ele>2313</ele>
        <time>2015-08-23T10:58:34Z</time>
      </trkpt>
      <trkpt lat="45.3969" lon="6.77261">
        <ele>2313</ele>
        <time>2015-08-23T10:58:35Z</time>
      </trkpt>
      <trkpt lat="45.39689" lon="6.77257">
        <ele>2312</ele>
        <time>2015-08-23T10:58:36Z</time>
      </trkpt>
      <trkpt lat="45.39687" lon="6.77252">
        <ele>2312</ele>
        <time>2015-08-23T10:58:38Z</time>
      </trkpt>
      <trkpt lat="45.39684" lon="6.77244">
        <ele>2308</ele>
        <time>2015-08-23T10:58:39Z</time>
      </trkpt>
      <trkpt lat="45.39683" lon="6.77237">
        <ele>2308</ele>
        <time>2015-08-23T10:58:41Z</time>
      </trkpt>
      <trkpt lat="45.39682" lon="6.77231">
        <ele>2308</ele>
        <time>2015-08-23T10:58:43Z</time>
      </trkpt>
      <trkpt lat="45.39682" lon="6.77224">
        <ele>2308</ele>
        <time>2015-08-23T10:58:45Z</time>
      </trkpt>
      <trkpt lat="45.39682" lon="6.77219">
        <ele>2308</ele>
        <time>2015-08-23T10:58:46Z</time>
      </trkpt>
      <trkpt lat="45.39683" lon="6.77214">
        <ele>2307</ele>
        <time>2015-08-23T10:58:47Z</time>
      </trkpt>
      <trkpt lat="45.39683" lon="6.77209">
        <ele>2307</ele>
        <time>2015-08-23T10:58:48Z</time>
      </trkpt>
      <trkpt lat="45.39683" lon="6.77201">
        <ele>2306</ele>
        <time>2015-08-23T10:58:50Z</time>
      </trkpt>
      <trkpt lat="45.39683" lon="6.77196">
        <ele>2306</ele>
        <time>2015-08-23T10:58:51Z</time>
      </trkpt>
      <trkpt lat="45.39682" lon="6.77188">
        <ele>2305</ele>
        <time>2015-08-23T10:58:53Z</time>
      </trkpt>
      <trkpt lat="45.39681" lon="6.77185">
        <ele>2305</ele>
        <time>2015-08-23T10:58:55Z</time>
      </trkpt>
      <trkpt lat="45.39679" lon="6.77178">
        <ele>2304</ele>
        <time>2015-08-23T10:58:57Z</time>
      </trkpt>
      <trkpt lat="45.39677" lon="6.77176">
        <ele>2303</ele>
        <time>2015-08-23T10:58:58Z</time>
      </trkpt>
      <trkpt lat="45.39674" lon="6.77172">
        <ele>2302</ele>
        <time>2015-08-23T10:58:59Z</time>
      </trkpt>
      <trkpt lat="45.39671" lon="6.77163">
        <ele>2299</ele>
        <time>2015-08-23T10:59:02Z</time>
      </trkpt>
      <trkpt lat="45.39671" lon="6.7716">
        <ele>2299</ele>
        <time>2015-08-23T10:59:03Z</time>
      </trkpt>
      <trkpt lat="45.39672" lon="6.77152">
        <ele>2298</ele>
        <time>2015-08-23T10:59:05Z</time>
      </trkpt>
      <trkpt lat="45.39672" lon="6.77148">
        <ele>2298</ele>
        <time>2015-08-23T10:59:06Z</time>
      </trkpt>
      <trkpt lat="45.39672" lon="6.77143">
        <ele>2298</ele>
        <time>2015-08-23T10:59:07Z</time>
      </trkpt>
      <trkpt lat="45.39671" lon="6.77138">
        <ele>2298</ele>
        <time>2015-08-23T10:59:08Z</time>
      </trkpt>
      <trkpt lat="45.39671" lon="6.77134">
        <ele>2297</ele>
        <time>2015-08-23T10:59:09Z</time>
      </trkpt>
      <trkpt lat="45.3967" lon="6.77126">
        <ele>2297</ele>
        <time>2015-08-23T10:59:11Z</time>
      </trkpt>
      <trkpt lat="45.3967" lon="6.77119">
        <ele>2296</ele>
        <time>2015-08-23T10:59:13Z</time>
      </trkpt>
      <trkpt lat="45.39671" lon="6.77113">
        <ele>2295</ele>
        <time>2015-08-23T10:59:15Z</time>
      </trkpt>
      <trkpt lat="45.39672" lon="6.77106">
        <ele>2295</ele>
        <time>2015-08-23T10:59:17Z</time>
      </trkpt>
      <trkpt lat="45.3967" lon="6.77101">
        <ele>2294</ele>
        <time>2015-08-23T10:59:19Z</time>
      </trkpt>
      <trkpt lat="45.39668" lon="6.77094">
        <ele>2293</ele>
        <time>2015-08-23T10:59:21Z</time>
      </trkpt>
      <trkpt lat="45.39665" lon="6.77088">
        <ele>2290</ele>
        <time>2015-08-23T10:59:23Z</time>
      </trkpt>
      <trkpt lat="45.39662" lon="6.77084">
        <ele>2290</ele>
        <time>2015-08-23T10:59:25Z</time>
      </trkpt>
      <trkpt lat="45.39657" lon="6.77082">
        <ele>2286</ele>
        <time>2015-08-23T10:59:27Z</time>
      </trkpt>
      <trkpt lat="45.39653" lon="6.77081">
        <ele>2285</ele>
        <time>2015-08-23T10:59:28Z</time>
      </trkpt>
      <trkpt lat="45.3965" lon="6.7708">
        <ele>2284</ele>
        <time>2015-08-23T10:59:29Z</time>
      </trkpt>
      <trkpt lat="45.39648" lon="6.77078">
        <ele>2283</ele>
        <time>2015-08-23T10:59:30Z</time>
      </trkpt>
      <trkpt lat="45.39645" lon="6.77076">
        <ele>2283</ele>
        <time>2015-08-23T10:59:31Z</time>
      </trkpt>
      <trkpt lat="45.39641" lon="6.77072">
        <ele>2282</ele>
        <time>2015-08-23T10:59:33Z</time>
      </trkpt>
      <trkpt lat="45.39638" lon="6.77068">
        <ele>2281</ele>
        <time>2015-08-23T10:59:35Z</time>
      </trkpt>
      <trkpt lat="45.39633" lon="6.77065">
        <ele>2280</ele>
        <time>2015-08-23T10:59:38Z</time>
      </trkpt>
      <trkpt lat="45.39628" lon="6.77062">
        <ele>2280</ele>
        <time>2015-08-23T10:59:39Z</time>
      </trkpt>
      <trkpt lat="45.39626" lon="6.77061">
        <ele>2280</ele>
        <time>2015-08-23T10:59:40Z</time>
      </trkpt>
      <trkpt lat="45.39622" lon="6.7706">
        <ele>2279</ele>
        <time>2015-08-23T10:59:41Z</time>
      </trkpt>
      <trkpt lat="45.39619" lon="6.77058">
        <ele>2279</ele>
        <time>2015-08-23T10:59:42Z</time>
      </trkpt>
      <trkpt lat="45.39615" lon="6.77056">
        <ele>2279</ele>
        <time>2015-08-23T10:59:43Z</time>
      </trkpt>
      <trkpt lat="45.39613" lon="6.77054">
        <ele>2279</ele>
        <time>2015-08-23T10:59:44Z</time>
      </trkpt>
      <trkpt lat="45.39609" lon="6.77051">
        <ele>2278</ele>
        <time>2015-08-23T10:59:45Z</time>
      </trkpt>
      <trkpt lat="45.39606" lon="6.7705">
        <ele>2278</ele>
        <time>2015-08-23T10:59:46Z</time>
      </trkpt>
      <trkpt lat="45.39603" lon="6.77049">
        <ele>2278</ele>
        <time>2015-08-23T10:59:47Z</time>
      </trkpt>
      <trkpt lat="45.396" lon="6.77047">
        <ele>2278</ele>
        <time>2015-08-23T10:59:49Z</time>
      </trkpt>
      <trkpt lat="45.39597" lon="6.77051">
        <ele>2278</ele>
        <time>2015-08-23T10:59:50Z</time>
      </trkpt>
      <trkpt lat="45.39595" lon="6.77056">
        <ele>2279</ele>
        <time>2015-08-23T10:59:52Z</time>
      </trkpt>
      <trkpt lat="45.39591" lon="6.77061">
        <ele>2280</ele>
        <time>2015-08-23T10:59:54Z</time>
      </trkpt>
      <trkpt lat="45.39589" lon="6.77063">
        <ele>2280</ele>
        <time>2015-08-23T10:59:55Z</time>
      </trkpt>
      <trkpt lat="45.39586" lon="6.77064">
        <ele>2280</ele>
        <time>2015-08-23T10:59:56Z</time>
      </trkpt>
      <trkpt lat="45.39583" lon="6.77066">
        <ele>2284</ele>
        <time>2015-08-23T10:59:57Z</time>
      </trkpt>
      <trkpt lat="45.3958" lon="6.77067">
        <ele>2284</ele>
        <time>2015-08-23T10:59:58Z</time>
      </trkpt>
      <trkpt lat="45.39577" lon="6.77068">
        <ele>2284</ele>
        <time>2015-08-23T11:00:00Z</time>
      </trkpt>
      <trkpt lat="45.39574" lon="6.77065">
        <ele>2284</ele>
        <time>2015-08-23T11:00:01Z</time>
      </trkpt>
      <trkpt lat="45.39575" lon="6.77058">
        <ele>2284</ele>
        <time>2015-08-23T11:00:03Z</time>
      </trkpt>
      <trkpt lat="45.39575" lon="6.77053">
        <ele>2283</ele>
        <time>2015-08-23T11:00:04Z</time>
      </trkpt>
      <trkpt lat="45.39577" lon="6.77049">
        <ele>2283</ele>
        <time>2015-08-23T11:00:05Z</time>
      </trkpt>
      <trkpt lat="45.39579" lon="6.77045">
        <ele>2282</ele>
        <time>2015-08-23T11:00:06Z</time>
      </trkpt>
      <trkpt lat="45.39581" lon="6.77042">
        <ele>2282</ele>
        <time>2015-08-23T11:00:07Z</time>
      </trkpt>
      <trkpt lat="45.39583" lon="6.77038">
        <ele>2281</ele>
        <time>2015-08-23T11:00:08Z</time>
      </trkpt>
      <trkpt lat="45.39585" lon="6.77035">
        <ele>2276</ele>
        <time>2015-08-23T11:00:09Z</time>
      </trkpt>
      <trkpt lat="45.39587" lon="6.77031">
        <ele>2276</ele>
        <time>2015-08-23T11:00:10Z</time>
      </trkpt>
      <trkpt lat="45.3959" lon="6.77027">
        <ele>2275</ele>
        <time>2015-08-23T11:00:11Z</time>
      </trkpt>
      <trkpt lat="45.39592" lon="6.77024">
        <ele>2275</ele>
        <time>2015-08-23T11:00:12Z</time>
      </trkpt>
      <trkpt lat="45.39594" lon="6.77018">
        <ele>2274</ele>
        <time>2015-08-23T11:00:14Z</time>
      </trkpt>
      <trkpt lat="45.39595" lon="6.77014">
        <ele>2274</ele>
        <time>2015-08-23T11:00:15Z</time>
      </trkpt>
      <trkpt lat="45.39596" lon="6.77009">
        <ele>2273</ele>
        <time>2015-08-23T11:00:16Z</time>
      </trkpt>
      <trkpt lat="45.39596" lon="6.77005">
        <ele>2273</ele>
        <time>2015-08-23T11:00:17Z</time>
      </trkpt>
      <trkpt lat="45.39596" lon="6.76998">
        <ele>2265</ele>
        <time>2015-08-23T11:00:19Z</time>
      </trkpt>
      <trkpt lat="45.39595" lon="6.76991">
        <ele>2265</ele>
        <time>2015-08-23T11:00:21Z</time>
      </trkpt>
      <trkpt lat="45.39595" lon="6.76985">
        <ele>2263</ele>
        <time>2015-08-23T11:00:23Z</time>
      </trkpt>
      <trkpt lat="45.39595" lon="6.7698">
        <ele>2263</ele>
        <time>2015-08-23T11:00:24Z</time>
      </trkpt>
      <trkpt lat="45.39595" lon="6.76976">
        <ele>2262</ele>
        <time>2015-08-23T11:00:25Z</time>
      </trkpt>
      <trkpt lat="45.39594" lon="6.76972">
        <ele>2261</ele>
        <time>2015-08-23T11:00:26Z</time>
      </trkpt>
      <trkpt lat="45.39594" lon="6.76967">
        <ele>2260</ele>
        <time>2015-08-23T11:00:27Z</time>
      </trkpt>
      <trkpt lat="45.39592" lon="6.76963">
        <ele>2259</ele>
        <time>2015-08-23T11:00:28Z</time>
      </trkpt>
      <trkpt lat="45.3959" lon="6.76956">
        <ele>2258</ele>
        <time>2015-08-23T11:00:31Z</time>
      </trkpt>
      <trkpt lat="45.39589" lon="6.7695">
        <ele>2257</ele>
        <time>2015-08-23T11:00:32Z</time>
      </trkpt>
      <trkpt lat="45.39588" lon="6.76945">
        <ele>2256</ele>
        <time>2015-08-23T11:00:34Z</time>
      </trkpt>
      <trkpt lat="45.39588" lon="6.76939">
        <ele>2255</ele>
        <time>2015-08-23T11:00:37Z</time>
      </trkpt>
      <trkpt lat="45.39587" lon="6.76932">
        <ele>2253</ele>
        <time>2015-08-23T11:00:38Z</time>
      </trkpt>
      <trkpt lat="45.39587" lon="6.76926">
        <ele>2252</ele>
        <time>2015-08-23T11:00:40Z</time>
      </trkpt>
      <trkpt lat="45.39586" lon="6.76921">
        <ele>2250</ele>
        <time>2015-08-23T11:00:43Z</time>
      </trkpt>
      <trkpt lat="45.39584" lon="6.76918">
        <ele>2248</ele>
        <time>2015-08-23T11:00:46Z</time>
      </trkpt>
      <trkpt lat="45.39583" lon="6.76914">
        <ele>2248</ele>
        <time>2015-08-23T11:00:48Z</time>
      </trkpt>
      <trkpt lat="45.39584" lon="6.76905">
        <ele>2246</ele>
        <time>2015-08-23T11:00:50Z</time>
      </trkpt>
      <trkpt lat="45.39585" lon="6.76898">
        <ele>2245</ele>
        <time>2015-08-23T11:00:52Z</time>
      </trkpt>
      <trkpt lat="45.39586" lon="6.76892">
        <ele>2244</ele>
        <time>2015-08-23T11:00:54Z</time>
      </trkpt>
      <trkpt lat="45.39587" lon="6.76885">
        <ele>2243</ele>
        <time>2015-08-23T11:00:56Z</time>
      </trkpt>
      <trkpt lat="45.39587" lon="6.76879">
        <ele>2243</ele>
        <time>2015-08-23T11:00:58Z</time>
      </trkpt>
      <trkpt lat="45.39587" lon="6.76875">
        <ele>2242</ele>
        <time>2015-08-23T11:01:00Z</time>
      </trkpt>
      <trkpt lat="45.39587" lon="6.7687">
        <ele>2242</ele>
        <time>2015-08-23T11:01:03Z</time>
      </trkpt>
      <trkpt lat="45.39587" lon="6.76865">
        <ele>2241</ele>
        <time>2015-08-23T11:01:11Z</time>
      </trkpt>
      <trkpt lat="45.39587" lon="6.7686">
        <ele>2240</ele>
        <time>2015-08-23T11:01:14Z</time>
      </trkpt>
      <trkpt lat="45.39585" lon="6.76856">
        <ele>2240</ele>
        <time>2015-08-23T11:01:16Z</time>
      </trkpt>
      <trkpt lat="45.39585" lon="6.76851">
        <ele>2239</ele>
        <time>2015-08-23T11:01:19Z</time>
      </trkpt>
      <trkpt lat="45.39586" lon="6.76847">
        <ele>2238</ele>
        <time>2015-08-23T11:01:21Z</time>
      </trkpt>
      <trkpt lat="45.39586" lon="6.76842">
        <ele>2237</ele>
        <time>2015-08-23T11:01:23Z</time>
      </trkpt>
      <trkpt lat="45.39586" lon="6.76838">
        <ele>2236</ele>
        <time>2015-08-23T11:01:26Z</time>
      </trkpt>
      <trkpt lat="45.39585" lon="6.76834">
        <ele>2235</ele>
        <time>2015-08-23T11:01:27Z</time>
      </trkpt>
      <trkpt lat="45.39585" lon="6.76828">
        <ele>2234</ele>
        <time>2015-08-23T11:01:29Z</time>
      </trkpt>
      <trkpt lat="45.39586" lon="6.76822">
        <ele>2233</ele>
        <time>2015-08-23T11:01:31Z</time>
      </trkpt>
      <trkpt lat="45.39588" lon="6.76819">
        <ele>2232</ele>
        <time>2015-08-23T11:01:32Z</time>
      </trkpt>
      <trkpt lat="45.3959" lon="6.76809">
        <ele>2231</ele>
        <time>2015-08-23T11:01:35Z</time>
      </trkpt>
      <trkpt lat="45.39591" lon="6.76805">
        <ele>2230</ele>
        <time>2015-08-23T11:01:36Z</time>
      </trkpt>
      <trkpt lat="45.39593" lon="6.76799">
        <ele>2229</ele>
        <time>2015-08-23T11:01:38Z</time>
      </trkpt>
      <trkpt lat="45.39594" lon="6.76792">
        <ele>2228</ele>
        <time>2015-08-23T11:01:40Z</time>
      </trkpt>
      <trkpt lat="45.39596" lon="6.76787">
        <ele>2228</ele>
        <time>2015-08-23T11:01:42Z</time>
      </trkpt>
      <trkpt lat="45.39596" lon="6.76783">
        <ele>2227</ele>
        <time>2015-08-23T11:01:44Z</time>
      </trkpt>
      <trkpt lat="45.39593" lon="6.76781">
        <ele>2226</ele>
        <time>2015-08-23T11:01:46Z</time>
      </trkpt>
      <trkpt lat="45.39589" lon="6.76781">
        <ele>2226</ele>
        <time>2015-08-23T11:01:48Z</time>
      </trkpt>
      <trkpt lat="45.39585" lon="6.7678">
        <ele>2226</ele>
        <time>2015-08-23T11:01:50Z</time>
      </trkpt>
      <trkpt lat="45.39582" lon="6.76781">
        <ele>2224</ele>
        <time>2015-08-23T11:01:51Z</time>
      </trkpt>
      <trkpt lat="45.39579" lon="6.76782">
        <ele>2224</ele>
        <time>2015-08-23T11:01:52Z</time>
      </trkpt>
      <trkpt lat="45.39576" lon="6.76782">
        <ele>2224</ele>
        <time>2015-08-23T11:01:53Z</time>
      </trkpt>
      <trkpt lat="45.3957" lon="6.76782">
        <ele>2224</ele>
        <time>2015-08-23T11:01:55Z</time>
      </trkpt>
      <trkpt lat="45.39566" lon="6.76778">
        <ele>2224</ele>
        <time>2015-08-23T11:01:58Z</time>
      </trkpt>
      <trkpt lat="45.39567" lon="6.76774">
        <ele>2223</ele>
        <time>2015-08-23T11:01:59Z</time>
      </trkpt>
      <trkpt lat="45.39569" lon="6.76771">
        <ele>2222</ele>
        <time>2015-08-23T11:02:00Z</time>
      </trkpt>
      <trkpt lat="45.39571" lon="6.76768">
        <ele>2222</ele>
        <time>2015-08-23T11:02:01Z</time>
      </trkpt>
      <trkpt lat="45.39574" lon="6.76765">
        <ele>2221</ele>
        <time>2015-08-23T11:02:02Z</time>
      </trkpt>
      <trkpt lat="45.39578" lon="6.76762">
        <ele>2220</ele>
        <time>2015-08-23T11:02:04Z</time>
      </trkpt>
      <trkpt lat="45.3958" lon="6.76759">
        <ele>2219</ele>
        <time>2015-08-23T11:02:06Z</time>
      </trkpt>
      <trkpt lat="45.39582" lon="6.76755">
        <ele>2218</ele>
        <time>2015-08-23T11:02:10Z</time>
      </trkpt>
      <trkpt lat="45.39584" lon="6.76751">
        <ele>2216</ele>
        <time>2015-08-23T11:02:12Z</time>
      </trkpt>
      <trkpt lat="45.39584" lon="6.76746">
        <ele>2215</ele>
        <time>2015-08-23T11:02:14Z</time>
      </trkpt>
      <trkpt lat="45.3958" lon="6.76743">
        <ele>2212</ele>
        <time>2015-08-23T11:02:21Z</time>
      </trkpt>
      <trkpt lat="45.39578" lon="6.76739">
        <ele>2211</ele>
        <time>2015-08-23T11:02:23Z</time>
      </trkpt>
      <trkpt lat="45.39574" lon="6.76735">
        <ele>2209</ele>
        <time>2015-08-23T11:02:25Z</time>
      </trkpt>
      <trkpt lat="45.39569" lon="6.76733">
        <ele>2208</ele>
        <time>2015-08-23T11:02:27Z</time>
      </trkpt>
      <trkpt lat="45.39564" lon="6.76731">
        <ele>2207</ele>
        <time>2015-08-23T11:02:29Z</time>
      </trkpt>
      <trkpt lat="45.39559" lon="6.7673">
        <ele>2207</ele>
        <time>2015-08-23T11:02:31Z</time>
      </trkpt>
      <trkpt lat="45.39556" lon="6.7673">
        <ele>2207</ele>
        <time>2015-08-23T11:02:32Z</time>
      </trkpt>
      <trkpt lat="45.39551" lon="6.76732">
        <ele>2207</ele>
        <time>2015-08-23T11:02:35Z</time>
      </trkpt>
      <trkpt lat="45.39548" lon="6.76738">
        <ele>2207</ele>
        <time>2015-08-23T11:02:36Z</time>
      </trkpt>
      <trkpt lat="45.39546" lon="6.76744">
        <ele>2207</ele>
        <time>2015-08-23T11:02:38Z</time>
      </trkpt>
      <trkpt lat="45.39544" lon="6.76748">
        <ele>2208</ele>
        <time>2015-08-23T11:02:40Z</time>
      </trkpt>
      <trkpt lat="45.39541" lon="6.7675">
        <ele>2222</ele>
        <time>2015-08-23T11:02:42Z</time>
      </trkpt>
      <trkpt lat="45.39537" lon="6.76751">
        <ele>2222</ele>
        <time>2015-08-23T11:02:44Z</time>
      </trkpt>
      <trkpt lat="45.39532" lon="6.76752">
        <ele>2221</ele>
        <time>2015-08-23T11:02:46Z</time>
      </trkpt>
      <trkpt lat="45.39529" lon="6.76751">
        <ele>2221</ele>
        <time>2015-08-23T11:02:47Z</time>
      </trkpt>
      <trkpt lat="45.39524" lon="6.76751">
        <ele>2221</ele>
        <time>2015-08-23T11:02:49Z</time>
      </trkpt>
      <trkpt lat="45.39522" lon="6.76749">
        <ele>2209</ele>
        <time>2015-08-23T11:02:50Z</time>
      </trkpt>
      <trkpt lat="45.39517" lon="6.76746">
        <ele>2209</ele>
        <time>2015-08-23T11:02:53Z</time>
      </trkpt>
      <trkpt lat="45.39516" lon="6.7674">
        <ele>2209</ele>
        <time>2015-08-23T11:02:54Z</time>
      </trkpt>
      <trkpt lat="45.39513" lon="6.76735">
        <ele>2208</ele>
        <time>2015-08-23T11:02:56Z</time>
      </trkpt>
      <trkpt lat="45.39514" lon="6.76731">
        <ele>2207</ele>
        <time>2015-08-23T11:02:57Z</time>
      </trkpt>
      <trkpt lat="45.39514" lon="6.76727">
        <ele>2206</ele>
        <time>2015-08-23T11:02:58Z</time>
      </trkpt>
      <trkpt lat="45.39514" lon="6.76723">
        <ele>2206</ele>
        <time>2015-08-23T11:02:59Z</time>
      </trkpt>
      <trkpt lat="45.39515" lon="6.76718">
        <ele>2205</ele>
        <time>2015-08-23T11:03:00Z</time>
      </trkpt>
      <trkpt lat="45.39514" lon="6.76714">
        <ele>2204</ele>
        <time>2015-08-23T11:03:01Z</time>
      </trkpt>
      <trkpt lat="45.39512" lon="6.76709">
        <ele>2203</ele>
        <time>2015-08-23T11:03:03Z</time>
      </trkpt>
      <trkpt lat="45.39509" lon="6.76703">
        <ele>2202</ele>
        <time>2015-08-23T11:03:05Z</time>
      </trkpt>
      <trkpt lat="45.39506" lon="6.76698">
        <ele>2201</ele>
        <time>2015-08-23T11:03:07Z</time>
      </trkpt>
      <trkpt lat="45.39504" lon="6.76692">
        <ele>2199</ele>
        <time>2015-08-23T11:03:09Z</time>
      </trkpt>
      <trkpt lat="45.39502" lon="6.76689">
        <ele>2198</ele>
        <time>2015-08-23T11:03:10Z</time>
      </trkpt>
      <trkpt lat="45.39499" lon="6.76686">
        <ele>2203</ele>
        <time>2015-08-23T11:03:11Z</time>
      </trkpt>
      <trkpt lat="45.39497" lon="6.76684">
        <ele>2202</ele>
        <time>2015-08-23T11:03:12Z</time>
      </trkpt>
      <trkpt lat="45.39494" lon="6.76681">
        <ele>2201</ele>
        <time>2015-08-23T11:03:13Z</time>
      </trkpt>
      <trkpt lat="45.39492" lon="6.76679">
        <ele>2201</ele>
        <time>2015-08-23T11:03:14Z</time>
      </trkpt>
      <trkpt lat="45.3949" lon="6.76676">
        <ele>2200</ele>
        <time>2015-08-23T11:03:15Z</time>
      </trkpt>
      <trkpt lat="45.39484" lon="6.76668">
        <ele>2201</ele>
        <time>2015-08-23T11:03:18Z</time>
      </trkpt>
      <trkpt lat="45.39482" lon="6.76665">
        <ele>2191</ele>
        <time>2015-08-23T11:03:19Z</time>
      </trkpt>
      <trkpt lat="45.3948" lon="6.76662">
        <ele>2191</ele>
        <time>2015-08-23T11:03:20Z</time>
      </trkpt>
      <trkpt lat="45.39477" lon="6.76658">
        <ele>2191</ele>
        <time>2015-08-23T11:03:21Z</time>
      </trkpt>
      <trkpt lat="45.39476" lon="6.76654">
        <ele>2191</ele>
        <time>2015-08-23T11:03:22Z</time>
      </trkpt>
      <trkpt lat="45.39475" lon="6.7665">
        <ele>2191</ele>
        <time>2015-08-23T11:03:24Z</time>
      </trkpt>
      <trkpt lat="45.39474" lon="6.76646">
        <ele>2190</ele>
        <time>2015-08-23T11:03:26Z</time>
      </trkpt>
      <trkpt lat="45.39473" lon="6.76641">
        <ele>2190</ele>
        <time>2015-08-23T11:03:28Z</time>
      </trkpt>
      <trkpt lat="45.39473" lon="6.76636">
        <ele>2189</ele>
        <time>2015-08-23T11:03:30Z</time>
      </trkpt>
      <trkpt lat="45.39472" lon="6.76629">
        <ele>2188</ele>
        <time>2015-08-23T11:03:32Z</time>
      </trkpt>
      <trkpt lat="45.39471" lon="6.76623">
        <ele>2188</ele>
        <time>2015-08-23T11:03:34Z</time>
      </trkpt>
      <trkpt lat="45.39469" lon="6.76617">
        <ele>2187</ele>
        <time>2015-08-23T11:03:37Z</time>
      </trkpt>
      <trkpt lat="45.39468" lon="6.76612">
        <ele>2186</ele>
        <time>2015-08-23T11:03:38Z</time>
      </trkpt>
      <trkpt lat="45.39467" lon="6.76608">
        <ele>2186</ele>
        <time>2015-08-23T11:03:40Z</time>
      </trkpt>
      <trkpt lat="45.39467" lon="6.76603">
        <ele>2185</ele>
        <time>2015-08-23T11:03:44Z</time>
      </trkpt>
      <trkpt lat="45.39467" lon="6.76598">
        <ele>2184</ele>
        <time>2015-08-23T11:03:45Z</time>
      </trkpt>
      <trkpt lat="45.39467" lon="6.76593">
        <ele>2184</ele>
        <time>2015-08-23T11:03:47Z</time>
      </trkpt>
      <trkpt lat="45.39466" lon="6.76588">
        <ele>2183</ele>
        <time>2015-08-23T11:03:49Z</time>
      </trkpt>
      <trkpt lat="45.39466" lon="6.76582">
        <ele>2167</ele>
        <time>2015-08-23T11:03:51Z</time>
      </trkpt>
      <trkpt lat="45.39466" lon="6.76577">
        <ele>2167</ele>
        <time>2015-08-23T11:03:53Z</time>
      </trkpt>
      <trkpt lat="45.39466" lon="6.76572">
        <ele>2167</ele>
        <time>2015-08-23T11:03:55Z</time>
      </trkpt>
      <trkpt lat="45.39464" lon="6.76567">
        <ele>2167</ele>
        <time>2015-08-23T11:03:57Z</time>
      </trkpt>
      <trkpt lat="45.39462" lon="6.76562">
        <ele>2166</ele>
        <time>2015-08-23T11:03:59Z</time>
      </trkpt>
      <trkpt lat="45.39459" lon="6.76557">
        <ele>2166</ele>
        <time>2015-08-23T11:04:01Z</time>
      </trkpt>
      <trkpt lat="45.39455" lon="6.76554">
        <ele>2166</ele>
        <time>2015-08-23T11:04:03Z</time>
      </trkpt>
      <trkpt lat="45.39452" lon="6.76552">
        <ele>2166</ele>
        <time>2015-08-23T11:04:05Z</time>
      </trkpt>
      <trkpt lat="45.3945" lon="6.76549">
        <ele>2166</ele>
        <time>2015-08-23T11:04:08Z</time>
      </trkpt>
      <trkpt lat="45.3945" lon="6.76544">
        <ele>2165</ele>
        <time>2015-08-23T11:04:11Z</time>
      </trkpt>
      <trkpt lat="45.39451" lon="6.7654">
        <ele>2165</ele>
        <time>2015-08-23T11:04:13Z</time>
      </trkpt>
      <trkpt lat="45.39452" lon="6.76534">
        <ele>2164</ele>
        <time>2015-08-23T11:04:15Z</time>
      </trkpt>
      <trkpt lat="45.39452" lon="6.76529">
        <ele>2163</ele>
        <time>2015-08-23T11:04:17Z</time>
      </trkpt>
      <trkpt lat="45.39453" lon="6.76523">
        <ele>2162</ele>
        <time>2015-08-23T11:04:19Z</time>
      </trkpt>
      <trkpt lat="45.39452" lon="6.76517">
        <ele>2162</ele>
        <time>2015-08-23T11:04:21Z</time>
      </trkpt>
      <trkpt lat="45.39451" lon="6.76513">
        <ele>2161</ele>
        <time>2015-08-23T11:04:23Z</time>
      </trkpt>
      <trkpt lat="45.3945" lon="6.76509">
        <ele>2161</ele>
        <time>2015-08-23T11:04:26Z</time>
      </trkpt>
      <trkpt lat="45.39449" lon="6.76504">
        <ele>2161</ele>
        <time>2015-08-23T11:04:30Z</time>
      </trkpt>
      <trkpt lat="45.3945" lon="6.765">
        <ele>2161</ele>
        <time>2015-08-23T11:04:33Z</time>
      </trkpt>
      <trkpt lat="45.39447" lon="6.76498">
        <ele>2146</ele>
        <time>2015-08-23T11:04:40Z</time>
      </trkpt>
      <trkpt lat="45.39445" lon="6.76495">
        <ele>2147</ele>
        <time>2015-08-23T11:04:42Z</time>
      </trkpt>
      <trkpt lat="45.39441" lon="6.76493">
        <ele>2148</ele>
        <time>2015-08-23T11:04:43Z</time>
      </trkpt>
      <trkpt lat="45.39437" lon="6.76492">
        <ele>2149</ele>
        <time>2015-08-23T11:04:45Z</time>
      </trkpt>
      <trkpt lat="45.39434" lon="6.76491">
        <ele>2150</ele>
        <time>2015-08-23T11:04:47Z</time>
      </trkpt>
      <trkpt lat="45.3943" lon="6.7649">
        <ele>2151</ele>
        <time>2015-08-23T11:04:49Z</time>
      </trkpt>
      <trkpt lat="45.39429" lon="6.76487">
        <ele>2151</ele>
        <time>2015-08-23T11:04:51Z</time>
      </trkpt>
      <trkpt lat="45.39428" lon="6.76483">
        <ele>2149</ele>
        <time>2015-08-23T11:04:55Z</time>
      </trkpt>
      <trkpt lat="45.39428" lon="6.76477">
        <ele>2147</ele>
        <time>2015-08-23T11:05:01Z</time>
      </trkpt>
      <trkpt lat="45.39428" lon="6.76472">
        <ele>2146</ele>
        <time>2015-08-23T11:05:05Z</time>
      </trkpt>
      <trkpt lat="45.39428" lon="6.76468">
        <ele>2145</ele>
        <time>2015-08-23T11:05:07Z</time>
      </trkpt>
      <trkpt lat="45.39426" lon="6.76465">
        <ele>2144</ele>
        <time>2015-08-23T11:05:09Z</time>
      </trkpt>
      <trkpt lat="45.39424" lon="6.76462">
        <ele>2144</ele>
        <time>2015-08-23T11:05:10Z</time>
      </trkpt>
      <trkpt lat="45.39423" lon="6.76458">
        <ele>2143</ele>
        <time>2015-08-23T11:05:12Z</time>
      </trkpt>
      <trkpt lat="45.39422" lon="6.76454">
        <ele>2142</ele>
        <time>2015-08-23T11:05:14Z</time>
      </trkpt>
      <trkpt lat="45.39421" lon="6.76449">
        <ele>2142</ele>
        <time>2015-08-23T11:05:17Z</time>
      </trkpt>
      <trkpt lat="45.39419" lon="6.76445">
        <ele>2141</ele>
        <time>2015-08-23T11:05:19Z</time>
      </trkpt>
      <trkpt lat="45.39418" lon="6.76441">
        <ele>2141</ele>
        <time>2015-08-23T11:05:21Z</time>
      </trkpt>
      <trkpt lat="45.39416" lon="6.76437">
        <ele>2153</ele>
        <time>2015-08-23T11:05:23Z</time>
      </trkpt>
      <trkpt lat="45.39414" lon="6.76432">
        <ele>2151</ele>
        <time>2015-08-23T11:05:25Z</time>
      </trkpt>
      <trkpt lat="45.39412" lon="6.76429">
        <ele>2150</ele>
        <time>2015-08-23T11:05:27Z</time>
      </trkpt>
      <trkpt lat="45.39412" lon="6.76424">
        <ele>2147</ele>
        <time>2015-08-23T11:05:30Z</time>
      </trkpt>
      <trkpt lat="45.39412" lon="6.76416">
        <ele>2139</ele>
        <time>2015-08-23T11:05:34Z</time>
      </trkpt>
      <trkpt lat="45.3941" lon="6.76412">
        <ele>2140</ele>
        <time>2015-08-23T11:05:36Z</time>
      </trkpt>
      <trkpt lat="45.3941" lon="6.76408">
        <ele>2140</ele>
        <time>2015-08-23T11:05:39Z</time>
      </trkpt>
      <trkpt lat="45.3941" lon="6.76401">
        <ele>2140</ele>
        <time>2015-08-23T11:05:43Z</time>
      </trkpt>
      <trkpt lat="45.39408" lon="6.76396">
        <ele>2140</ele>
        <time>2015-08-23T11:05:45Z</time>
      </trkpt>
      <trkpt lat="45.39406" lon="6.76392">
        <ele>2139</ele>
        <time>2015-08-23T11:05:47Z</time>
      </trkpt>
      <trkpt lat="45.39405" lon="6.76387">
        <ele>2139</ele>
        <time>2015-08-23T11:05:49Z</time>
      </trkpt>
      <trkpt lat="45.39407" lon="6.76384">
        <ele>2138</ele>
        <time>2015-08-23T11:05:51Z</time>
      </trkpt>
      <trkpt lat="45.3941" lon="6.76382">
        <ele>2138</ele>
        <time>2015-08-23T11:05:53Z</time>
      </trkpt>
      <trkpt lat="45.39414" lon="6.76384">
        <ele>2138</ele>
        <time>2015-08-23T11:05:55Z</time>
      </trkpt>
      <trkpt lat="45.39413" lon="6.76379">
        <ele>2137</ele>
        <time>2015-08-23T11:06:01Z</time>
      </trkpt>
      <trkpt lat="45.3941" lon="6.76375">
        <ele>2136</ele>
        <time>2015-08-23T11:06:03Z</time>
      </trkpt>
      <trkpt lat="45.39407" lon="6.76371">
        <ele>2136</ele>
        <time>2015-08-23T11:06:05Z</time>
      </trkpt>
      <trkpt lat="45.39404" lon="6.76369">
        <ele>2136</ele>
        <time>2015-08-23T11:06:07Z</time>
      </trkpt>
      <trkpt lat="45.39401" lon="6.76367">
        <ele>2136</ele>
        <time>2015-08-23T11:06:09Z</time>
      </trkpt>
      <trkpt lat="45.39399" lon="6.76364">
        <ele>2135</ele>
        <time>2015-08-23T11:06:11Z</time>
      </trkpt>
      <trkpt lat="45.39398" lon="6.76359">
        <ele>2134</ele>
        <time>2015-08-23T11:06:13Z</time>
      </trkpt>
      <trkpt lat="45.39398" lon="6.76355">
        <ele>2133</ele>
        <time>2015-08-23T11:06:15Z</time>
      </trkpt>
      <trkpt lat="45.39401" lon="6.76353">
        <ele>2132</ele>
        <time>2015-08-23T11:06:18Z</time>
      </trkpt>
      <trkpt lat="45.39404" lon="6.76352">
        <ele>2131</ele>
        <time>2015-08-23T11:06:21Z</time>
      </trkpt>
      <trkpt lat="45.39408" lon="6.76352">
        <ele>2130</ele>
        <time>2015-08-23T11:06:24Z</time>
      </trkpt>
      <trkpt lat="45.39413" lon="6.76351">
        <ele>2129</ele>
        <time>2015-08-23T11:06:26Z</time>
      </trkpt>
      <trkpt lat="45.39416" lon="6.76349">
        <ele>2128</ele>
        <time>2015-08-23T11:06:28Z</time>
      </trkpt>
      <trkpt lat="45.39416" lon="6.76344">
        <ele>2125</ele>
        <time>2015-08-23T11:06:31Z</time>
      </trkpt>
      <trkpt lat="45.39414" lon="6.76339">
        <ele>2122</ele>
        <time>2015-08-23T11:06:33Z</time>
      </trkpt>
      <trkpt lat="45.39412" lon="6.76336">
        <ele>2121</ele>
        <time>2015-08-23T11:06:35Z</time>
      </trkpt>
      <trkpt lat="45.39411" lon="6.76332">
        <ele>2117</ele>
        <time>2015-08-23T11:06:37Z</time>
      </trkpt>
      <trkpt lat="45.39411" lon="6.76327">
        <ele>2117</ele>
        <time>2015-08-23T11:06:40Z</time>
      </trkpt>
      <trkpt lat="45.39412" lon="6.76323">
        <ele>2116</ele>
        <time>2015-08-23T11:06:42Z</time>
      </trkpt>
      <trkpt lat="45.39413" lon="6.76318">
        <ele>2116</ele>
        <time>2015-08-23T11:06:45Z</time>
      </trkpt>
      <trkpt lat="45.39412" lon="6.76314">
        <ele>2115</ele>
        <time>2015-08-23T11:06:47Z</time>
      </trkpt>
      <trkpt lat="45.39412" lon="6.76309">
        <ele>2115</ele>
        <time>2015-08-23T11:06:49Z</time>
      </trkpt>
      <trkpt lat="45.39411" lon="6.76304">
        <ele>2114</ele>
        <time>2015-08-23T11:06:52Z</time>
      </trkpt>
      <trkpt lat="45.39408" lon="6.76301">
        <ele>2114</ele>
        <time>2015-08-23T11:06:53Z</time>
      </trkpt>
      <trkpt lat="45.39406" lon="6.76296">
        <ele>2113</ele>
        <time>2015-08-23T11:06:56Z</time>
      </trkpt>
      <trkpt lat="45.39404" lon="6.76292">
        <ele>2112</ele>
        <time>2015-08-23T11:06:58Z</time>
      </trkpt>
      <trkpt lat="45.39403" lon="6.76286">
        <ele>2112</ele>
        <time>2015-08-23T11:07:00Z</time>
      </trkpt>
      <trkpt lat="45.39403" lon="6.7628">
        <ele>2110</ele>
        <time>2015-08-23T11:07:02Z</time>
      </trkpt>
      <trkpt lat="45.39403" lon="6.76275">
        <ele>2109</ele>
        <time>2015-08-23T11:07:04Z</time>
      </trkpt>
      <trkpt lat="45.39402" lon="6.7627">
        <ele>2108</ele>
        <time>2015-08-23T11:07:06Z</time>
      </trkpt>
      <trkpt lat="45.39401" lon="6.76264">
        <ele>2107</ele>
        <time>2015-08-23T11:07:08Z</time>
      </trkpt>
      <trkpt lat="45.39398" lon="6.7626">
        <ele>2107</ele>
        <time>2015-08-23T11:07:10Z</time>
      </trkpt>
      <trkpt lat="45.39396" lon="6.76256">
        <ele>2107</ele>
        <time>2015-08-23T11:07:12Z</time>
      </trkpt>
      <trkpt lat="45.39398" lon="6.76253">
        <ele>2106</ele>
        <time>2015-08-23T11:07:16Z</time>
      </trkpt>
      <trkpt lat="45.394" lon="6.76248">
        <ele>2095</ele>
        <time>2015-08-23T11:07:19Z</time>
      </trkpt>
      <trkpt lat="45.39399" lon="6.76244">
        <ele>2094</ele>
        <time>2015-08-23T11:07:21Z</time>
      </trkpt>
      <trkpt lat="45.39396" lon="6.76239">
        <ele>2094</ele>
        <time>2015-08-23T11:07:23Z</time>
      </trkpt>
      <trkpt lat="45.39392" lon="6.76236">
        <ele>2093</ele>
        <time>2015-08-23T11:07:25Z</time>
      </trkpt>
      <trkpt lat="45.39388" lon="6.76234">
        <ele>2093</ele>
        <time>2015-08-23T11:07:27Z</time>
      </trkpt>
      <trkpt lat="45.39383" lon="6.76234">
        <ele>2094</ele>
        <time>2015-08-23T11:07:30Z</time>
      </trkpt>
      <trkpt lat="45.3938" lon="6.76232">
        <ele>2094</ele>
        <time>2015-08-23T11:07:32Z</time>
      </trkpt>
      <trkpt lat="45.39377" lon="6.7623">
        <ele>2094</ele>
        <time>2015-08-23T11:07:34Z</time>
      </trkpt>
      <trkpt lat="45.39373" lon="6.76229">
        <ele>2094</ele>
        <time>2015-08-23T11:07:36Z</time>
      </trkpt>
      <trkpt lat="45.39369" lon="6.76226">
        <ele>2094</ele>
        <time>2015-08-23T11:07:38Z</time>
      </trkpt>
      <trkpt lat="45.39365" lon="6.76223">
        <ele>2094</ele>
        <time>2015-08-23T11:07:40Z</time>
      </trkpt>
      <trkpt lat="45.3936" lon="6.76219">
        <ele>2093</ele>
        <time>2015-08-23T11:07:42Z</time>
      </trkpt>
      <trkpt lat="45.39356" lon="6.76215">
        <ele>2093</ele>
        <time>2015-08-23T11:07:44Z</time>
      </trkpt>
      <trkpt lat="45.39354" lon="6.76209">
        <ele>2092</ele>
        <time>2015-08-23T11:07:46Z</time>
      </trkpt>
      <trkpt lat="45.39352" lon="6.76205">
        <ele>2091</ele>
        <time>2015-08-23T11:07:48Z</time>
      </trkpt>
      <trkpt lat="45.39349" lon="6.76201">
        <ele>2091</ele>
        <time>2015-08-23T11:07:50Z</time>
      </trkpt>
      <trkpt lat="45.39346" lon="6.76199">
        <ele>2090</ele>
        <time>2015-08-23T11:07:52Z</time>
      </trkpt>
      <trkpt lat="45.39343" lon="6.76195">
        <ele>2090</ele>
        <time>2015-08-23T11:07:54Z</time>
      </trkpt>
      <trkpt lat="45.3934" lon="6.76191">
        <ele>2089</ele>
        <time>2015-08-23T11:07:56Z</time>
      </trkpt>
      <trkpt lat="45.39336" lon="6.76186">
        <ele>2088</ele>
        <time>2015-08-23T11:07:58Z</time>
      </trkpt>
      <trkpt lat="45.39333" lon="6.76181">
        <ele>2093</ele>
        <time>2015-08-23T11:08:00Z</time>
      </trkpt>
      <trkpt lat="45.39329" lon="6.76178">
        <ele>2092</ele>
        <time>2015-08-23T11:08:02Z</time>
      </trkpt>
      <trkpt lat="45.39325" lon="6.76176">
        <ele>2092</ele>
        <time>2015-08-23T11:08:04Z</time>
      </trkpt>
      <trkpt lat="45.39321" lon="6.76173">
        <ele>2093</ele>
        <time>2015-08-23T11:08:06Z</time>
      </trkpt>
      <trkpt lat="45.39319" lon="6.76167">
        <ele>2093</ele>
        <time>2015-08-23T11:08:08Z</time>
      </trkpt>
      <trkpt lat="45.39318" lon="6.76163">
        <ele>2082</ele>
        <time>2015-08-23T11:08:09Z</time>
      </trkpt>
      <trkpt lat="45.39317" lon="6.76157">
        <ele>2082</ele>
        <time>2015-08-23T11:08:11Z</time>
      </trkpt>
      <trkpt lat="45.39314" lon="6.76153">
        <ele>2082</ele>
        <time>2015-08-23T11:08:13Z</time>
      </trkpt>
      <trkpt lat="45.39311" lon="6.76149">
        <ele>2082</ele>
        <time>2015-08-23T11:08:15Z</time>
      </trkpt>
      <trkpt lat="45.39309" lon="6.76146">
        <ele>2081</ele>
        <time>2015-08-23T11:08:16Z</time>
      </trkpt>
      <trkpt lat="45.39306" lon="6.76144">
        <ele>2081</ele>
        <time>2015-08-23T11:08:17Z</time>
      </trkpt>
      <trkpt lat="45.39303" lon="6.76142">
        <ele>2081</ele>
        <time>2015-08-23T11:08:18Z</time>
      </trkpt>
      <trkpt lat="45.393" lon="6.76139">
        <ele>2081</ele>
        <time>2015-08-23T11:08:19Z</time>
      </trkpt>
      <trkpt lat="45.39298" lon="6.76138">
        <ele>2081</ele>
        <time>2015-08-23T11:08:20Z</time>
      </trkpt>
      <trkpt lat="45.39295" lon="6.76136">
        <ele>2081</ele>
        <time>2015-08-23T11:08:21Z</time>
      </trkpt>
      <trkpt lat="45.39292" lon="6.76134">
        <ele>2081</ele>
        <time>2015-08-23T11:08:22Z</time>
      </trkpt>
      <trkpt lat="45.39288" lon="6.76131">
        <ele>2081</ele>
        <time>2015-08-23T11:08:23Z</time>
      </trkpt>
      <trkpt lat="45.39285" lon="6.76129">
        <ele>2081</ele>
        <time>2015-08-23T11:08:24Z</time>
      </trkpt>
      <trkpt lat="45.39282" lon="6.76126">
        <ele>2081</ele>
        <time>2015-08-23T11:08:25Z</time>
      </trkpt>
      <trkpt lat="45.3928" lon="6.76123">
        <ele>2081</ele>
        <time>2015-08-23T11:08:26Z</time>
      </trkpt>
      <trkpt lat="45.39278" lon="6.7612">
        <ele>2081</ele>
        <time>2015-08-23T11:08:27Z</time>
      </trkpt>
      <trkpt lat="45.39274" lon="6.76115">
        <ele>2080</ele>
        <time>2015-08-23T11:08:29Z</time>
      </trkpt>
      <trkpt lat="45.39271" lon="6.7611">
        <ele>2079</ele>
        <time>2015-08-23T11:08:31Z</time>
      </trkpt>
      <trkpt lat="45.39269" lon="6.76105">
        <ele>2079</ele>
        <time>2015-08-23T11:08:33Z</time>
      </trkpt>
      <trkpt lat="45.39266" lon="6.76099">
        <ele>2078</ele>
        <time>2015-08-23T11:08:35Z</time>
      </trkpt>
      <trkpt lat="45.39264" lon="6.76096">
        <ele>2077</ele>
        <time>2015-08-23T11:08:36Z</time>
      </trkpt>
      <trkpt lat="45.39261" lon="6.76093">
        <ele>2077</ele>
        <time>2015-08-23T11:08:37Z</time>
      </trkpt>
      <trkpt lat="45.39259" lon="6.76091">
        <ele>2076</ele>
        <time>2015-08-23T11:08:38Z</time>
      </trkpt>
      <trkpt lat="45.39256" lon="6.76089">
        <ele>2076</ele>
        <time>2015-08-23T11:08:39Z</time>
      </trkpt>
      <trkpt lat="45.39252" lon="6.76085">
        <ele>2075</ele>
        <time>2015-08-23T11:08:41Z</time>
      </trkpt>
      <trkpt lat="45.39249" lon="6.7608">
        <ele>2075</ele>
        <time>2015-08-23T11:08:43Z</time>
      </trkpt>
      <trkpt lat="45.39247" lon="6.76075">
        <ele>2076</ele>
        <time>2015-08-23T11:08:45Z</time>
      </trkpt>
      <trkpt lat="45.39245" lon="6.7607">
        <ele>2077</ele>
        <time>2015-08-23T11:08:47Z</time>
      </trkpt>
      <trkpt lat="45.39243" lon="6.76065">
        <ele>2077</ele>
        <time>2015-08-23T11:08:49Z</time>
      </trkpt>
      <trkpt lat="45.39241" lon="6.76063">
        <ele>2077</ele>
        <time>2015-08-23T11:08:50Z</time>
      </trkpt>
      <trkpt lat="45.39238" lon="6.7606">
        <ele>2078</ele>
        <time>2015-08-23T11:08:51Z</time>
      </trkpt>
      <trkpt lat="45.39235" lon="6.76058">
        <ele>2078</ele>
        <time>2015-08-23T11:08:52Z</time>
      </trkpt>
      <trkpt lat="45.39232" lon="6.76056">
        <ele>2078</ele>
        <time>2015-08-23T11:08:53Z</time>
      </trkpt>
      <trkpt lat="45.3923" lon="6.76053">
        <ele>2078</ele>
        <time>2015-08-23T11:08:54Z</time>
      </trkpt>
      <trkpt lat="45.39228" lon="6.76051">
        <ele>2079</ele>
        <time>2015-08-23T11:08:55Z</time>
      </trkpt>
      <trkpt lat="45.39226" lon="6.76048">
        <ele>2079</ele>
        <time>2015-08-23T11:08:56Z</time>
      </trkpt>
      <trkpt lat="45.39224" lon="6.76045">
        <ele>2078</ele>
        <time>2015-08-23T11:08:57Z</time>
      </trkpt>
      <trkpt lat="45.39223" lon="6.76041">
        <ele>2078</ele>
        <time>2015-08-23T11:08:58Z</time>
      </trkpt>
      <trkpt lat="45.39222" lon="6.76037">
        <ele>2078</ele>
        <time>2015-08-23T11:08:59Z</time>
      </trkpt>
      <trkpt lat="45.39221" lon="6.76032">
        <ele>2077</ele>
        <time>2015-08-23T11:09:00Z</time>
      </trkpt>
      <trkpt lat="45.3922" lon="6.76028">
        <ele>2077</ele>
        <time>2015-08-23T11:09:01Z</time>
      </trkpt>
      <trkpt lat="45.39219" lon="6.76022">
        <ele>2076</ele>
        <time>2015-08-23T11:09:02Z</time>
      </trkpt>
      <trkpt lat="45.39219" lon="6.76017">
        <ele>2075</ele>
        <time>2015-08-23T11:09:03Z</time>
      </trkpt>
      <trkpt lat="45.39219" lon="6.76013">
        <ele>2075</ele>
        <time>2015-08-23T11:09:04Z</time>
      </trkpt>
      <trkpt lat="45.39218" lon="6.76009">
        <ele>2075</ele>
        <time>2015-08-23T11:09:05Z</time>
      </trkpt>
      <trkpt lat="45.39218" lon="6.76004">
        <ele>2074</ele>
        <time>2015-08-23T11:09:06Z</time>
      </trkpt>
      <trkpt lat="45.39217" lon="6.75997">
        <ele>2063</ele>
        <time>2015-08-23T11:09:08Z</time>
      </trkpt>
      <trkpt lat="45.39217" lon="6.75993">
        <ele>2063</ele>
        <time>2015-08-23T11:09:09Z</time>
      </trkpt>
      <trkpt lat="45.39217" lon="6.75988">
        <ele>2062</ele>
        <time>2015-08-23T11:09:10Z</time>
      </trkpt>
      <trkpt lat="45.39217" lon="6.75983">
        <ele>2062</ele>
        <time>2015-08-23T11:09:11Z</time>
      </trkpt>
      <trkpt lat="45.39216" lon="6.75979">
        <ele>2062</ele>
        <time>2015-08-23T11:09:12Z</time>
      </trkpt>
      <trkpt lat="45.39215" lon="6.75972">
        <ele>2062</ele>
        <time>2015-08-23T11:09:14Z</time>
      </trkpt>
      <trkpt lat="45.39214" lon="6.75968">
        <ele>2061</ele>
        <time>2015-08-23T11:09:15Z</time>
      </trkpt>
      <trkpt lat="45.39213" lon="6.75964">
        <ele>2061</ele>
        <time>2015-08-23T11:09:16Z</time>
      </trkpt>
      <trkpt lat="45.39212" lon="6.75961">
        <ele>2061</ele>
        <time>2015-08-23T11:09:17Z</time>
      </trkpt>
      <trkpt lat="45.3921" lon="6.75957">
        <ele>2061</ele>
        <time>2015-08-23T11:09:18Z</time>
      </trkpt>
      <trkpt lat="45.39207" lon="6.75951">
        <ele>2061</ele>
        <time>2015-08-23T11:09:20Z</time>
      </trkpt>
      <trkpt lat="45.39205" lon="6.75948">
        <ele>2061</ele>
        <time>2015-08-23T11:09:21Z</time>
      </trkpt>
      <trkpt lat="45.39203" lon="6.75942">
        <ele>2060</ele>
        <time>2015-08-23T11:09:23Z</time>
      </trkpt>
      <trkpt lat="45.39201" lon="6.75936">
        <ele>2060</ele>
        <time>2015-08-23T11:09:25Z</time>
      </trkpt>
      <trkpt lat="45.39199" lon="6.75933">
        <ele>2060</ele>
        <time>2015-08-23T11:09:26Z</time>
      </trkpt>
      <trkpt lat="45.39196" lon="6.75927">
        <ele>2060</ele>
        <time>2015-08-23T11:09:28Z</time>
      </trkpt>
      <trkpt lat="45.39193" lon="6.7592">
        <ele>2060</ele>
        <time>2015-08-23T11:09:30Z</time>
      </trkpt>
      <trkpt lat="45.39193" lon="6.75914">
        <ele>2053</ele>
        <time>2015-08-23T11:09:32Z</time>
      </trkpt>
      <trkpt lat="45.39193" lon="6.75907">
        <ele>2052</ele>
        <time>2015-08-23T11:09:34Z</time>
      </trkpt>
      <trkpt lat="45.39193" lon="6.759">
        <ele>2052</ele>
        <time>2015-08-23T11:09:36Z</time>
      </trkpt>
      <trkpt lat="45.39193" lon="6.75892">
        <ele>2051</ele>
        <time>2015-08-23T11:09:38Z</time>
      </trkpt>
      <trkpt lat="45.39192" lon="6.75885">
        <ele>2050</ele>
        <time>2015-08-23T11:09:40Z</time>
      </trkpt>
      <trkpt lat="45.3919" lon="6.7588">
        <ele>2050</ele>
        <time>2015-08-23T11:09:42Z</time>
      </trkpt>
      <trkpt lat="45.39187" lon="6.75875">
        <ele>2050</ele>
        <time>2015-08-23T11:09:44Z</time>
      </trkpt>
      <trkpt lat="45.39183" lon="6.75871">
        <ele>2050</ele>
        <time>2015-08-23T11:09:46Z</time>
      </trkpt>
      <trkpt lat="45.39179" lon="6.75866">
        <ele>2050</ele>
        <time>2015-08-23T11:09:48Z</time>
      </trkpt>
      <trkpt lat="45.39177" lon="6.75862">
        <ele>2049</ele>
        <time>2015-08-23T11:09:49Z</time>
      </trkpt>
      <trkpt lat="45.39175" lon="6.75859">
        <ele>2049</ele>
        <time>2015-08-23T11:09:50Z</time>
      </trkpt>
      <trkpt lat="45.39173" lon="6.75855">
        <ele>2049</ele>
        <time>2015-08-23T11:09:51Z</time>
      </trkpt>
      <trkpt lat="45.39171" lon="6.7585">
        <ele>2049</ele>
        <time>2015-08-23T11:09:52Z</time>
      </trkpt>
      <trkpt lat="45.3917" lon="6.75846">
        <ele>2049</ele>
        <time>2015-08-23T11:09:53Z</time>
      </trkpt>
      <trkpt lat="45.39168" lon="6.75842">
        <ele>2048</ele>
        <time>2015-08-23T11:09:54Z</time>
      </trkpt>
      <trkpt lat="45.39167" lon="6.75839">
        <ele>2048</ele>
        <time>2015-08-23T11:09:55Z</time>
      </trkpt>
      <trkpt lat="45.39166" lon="6.75832">
        <ele>2048</ele>
        <time>2015-08-23T11:09:57Z</time>
      </trkpt>
      <trkpt lat="45.39164" lon="6.75826">
        <ele>2049</ele>
        <time>2015-08-23T11:09:59Z</time>
      </trkpt>
      <trkpt lat="45.39163" lon="6.75821">
        <ele>2049</ele>
        <time>2015-08-23T11:10:02Z</time>
      </trkpt>
      <trkpt lat="45.39163" lon="6.75816">
        <ele>2049</ele>
        <time>2015-08-23T11:10:04Z</time>
      </trkpt>
      <trkpt lat="45.39162" lon="6.7581">
        <ele>2049</ele>
        <time>2015-08-23T11:10:06Z</time>
      </trkpt>
      <trkpt lat="45.39162" lon="6.75802">
        <ele>2049</ele>
        <time>2015-08-23T11:10:08Z</time>
      </trkpt>
      <trkpt lat="45.39163" lon="6.75794">
        <ele>2048</ele>
        <time>2015-08-23T11:10:10Z</time>
      </trkpt>
      <trkpt lat="45.39165" lon="6.75789">
        <ele>2048</ele>
        <time>2015-08-23T11:10:11Z</time>
      </trkpt>
      <trkpt lat="45.39166" lon="6.75785">
        <ele>2047</ele>
        <time>2015-08-23T11:10:12Z</time>
      </trkpt>
      <trkpt lat="45.39166" lon="6.75781">
        <ele>2046</ele>
        <time>2015-08-23T11:10:13Z</time>
      </trkpt>
      <trkpt lat="45.39167" lon="6.75777">
        <ele>2046</ele>
        <time>2015-08-23T11:10:14Z</time>
      </trkpt>
      <trkpt lat="45.39166" lon="6.7577">
        <ele>2044</ele>
        <time>2015-08-23T11:10:16Z</time>
      </trkpt>
      <trkpt lat="45.39165" lon="6.75765">
        <ele>2043</ele>
        <time>2015-08-23T11:10:18Z</time>
      </trkpt>
      <trkpt lat="45.39161" lon="6.7576">
        <ele>2042</ele>
        <time>2015-08-23T11:10:20Z</time>
      </trkpt>
      <trkpt lat="45.39159" lon="6.75758">
        <ele>2042</ele>
        <time>2015-08-23T11:10:21Z</time>
      </trkpt>
      <trkpt lat="45.39156" lon="6.75757">
        <ele>2042</ele>
        <time>2015-08-23T11:10:22Z</time>
      </trkpt>
      <trkpt lat="45.39153" lon="6.75755">
        <ele>2043</ele>
        <time>2015-08-23T11:10:23Z</time>
      </trkpt>
      <trkpt lat="45.39151" lon="6.75753">
        <ele>2043</ele>
        <time>2015-08-23T11:10:24Z</time>
      </trkpt>
      <trkpt lat="45.39146" lon="6.75749">
        <ele>2039</ele>
        <time>2015-08-23T11:10:26Z</time>
      </trkpt>
      <trkpt lat="45.39143" lon="6.75747">
        <ele>2039</ele>
        <time>2015-08-23T11:10:27Z</time>
      </trkpt>
      <trkpt lat="45.3914" lon="6.75745">
        <ele>2039</ele>
        <time>2015-08-23T11:10:28Z</time>
      </trkpt>
      <trkpt lat="45.39138" lon="6.75742">
        <ele>2040</ele>
        <time>2015-08-23T11:10:29Z</time>
      </trkpt>
      <trkpt lat="45.39136" lon="6.75739">
        <ele>2040</ele>
        <time>2015-08-23T11:10:30Z</time>
      </trkpt>
      <trkpt lat="45.39134" lon="6.75736">
        <ele>2040</ele>
        <time>2015-08-23T11:10:31Z</time>
      </trkpt>
      <trkpt lat="45.39133" lon="6.75732">
        <ele>2040</ele>
        <time>2015-08-23T11:10:32Z</time>
      </trkpt>
      <trkpt lat="45.39132" lon="6.75729">
        <ele>2040</ele>
        <time>2015-08-23T11:10:33Z</time>
      </trkpt>
      <trkpt lat="45.3913" lon="6.75725">
        <ele>2040</ele>
        <time>2015-08-23T11:10:35Z</time>
      </trkpt>
      <trkpt lat="45.39128" lon="6.75719">
        <ele>2040</ele>
        <time>2015-08-23T11:10:36Z</time>
      </trkpt>
      <trkpt lat="45.39124" lon="6.75715">
        <ele>2040</ele>
        <time>2015-08-23T11:10:38Z</time>
      </trkpt>
      <trkpt lat="45.39119" lon="6.7571">
        <ele>2040</ele>
        <time>2015-08-23T11:10:40Z</time>
      </trkpt>
      <trkpt lat="45.39115" lon="6.75705">
        <ele>2040</ele>
        <time>2015-08-23T11:10:42Z</time>
      </trkpt>
      <trkpt lat="45.39113" lon="6.75703">
        <ele>2040</ele>
        <time>2015-08-23T11:10:44Z</time>
      </trkpt>
      <trkpt lat="45.3911" lon="6.75701">
        <ele>2040</ele>
        <time>2015-08-23T11:10:45Z</time>
      </trkpt>
      <trkpt lat="45.39108" lon="6.75694">
        <ele>2040</ele>
        <time>2015-08-23T11:10:46Z</time>
      </trkpt>
      <trkpt lat="45.39107" lon="6.7569">
        <ele>2040</ele>
        <time>2015-08-23T11:10:47Z</time>
      </trkpt>
      <trkpt lat="45.39106" lon="6.75686">
        <ele>2040</ele>
        <time>2015-08-23T11:10:48Z</time>
      </trkpt>
      <trkpt lat="45.39104" lon="6.75682">
        <ele>2040</ele>
        <time>2015-08-23T11:10:49Z</time>
      </trkpt>
      <trkpt lat="45.39104" lon="6.75677">
        <ele>2040</ele>
        <time>2015-08-23T11:10:50Z</time>
      </trkpt>
      <trkpt lat="45.39102" lon="6.75673">
        <ele>2040</ele>
        <time>2015-08-23T11:10:51Z</time>
      </trkpt>
      <trkpt lat="45.39101" lon="6.7567">
        <ele>2039</ele>
        <time>2015-08-23T11:10:52Z</time>
      </trkpt>
      <trkpt lat="45.391" lon="6.75666">
        <ele>2037</ele>
        <time>2015-08-23T11:10:53Z</time>
      </trkpt>
      <trkpt lat="45.39098" lon="6.7566">
        <ele>2037</ele>
        <time>2015-08-23T11:10:56Z</time>
      </trkpt>
      <trkpt lat="45.39097" lon="6.75654">
        <ele>2037</ele>
        <time>2015-08-23T11:10:57Z</time>
      </trkpt>
      <trkpt lat="45.39093" lon="6.75647">
        <ele>2037</ele>
        <time>2015-08-23T11:10:59Z</time>
      </trkpt>
      <trkpt lat="45.39089" lon="6.75641">
        <ele>2037</ele>
        <time>2015-08-23T11:11:01Z</time>
      </trkpt>
      <trkpt lat="45.39087" lon="6.75638">
        <ele>2037</ele>
        <time>2015-08-23T11:11:02Z</time>
      </trkpt>
      <trkpt lat="45.39085" lon="6.75635">
        <ele>2036</ele>
        <time>2015-08-23T11:11:03Z</time>
      </trkpt>
      <trkpt lat="45.39083" lon="6.75631">
        <ele>2036</ele>
        <time>2015-08-23T11:11:04Z</time>
      </trkpt>
      <trkpt lat="45.39081" lon="6.75627">
        <ele>2039</ele>
        <time>2015-08-23T11:11:05Z</time>
      </trkpt>
      <trkpt lat="45.39079" lon="6.75624">
        <ele>2039</ele>
        <time>2015-08-23T11:11:06Z</time>
      </trkpt>
      <trkpt lat="45.39075" lon="6.75619">
        <ele>2038</ele>
        <time>2015-08-23T11:11:07Z</time>
      </trkpt>
      <trkpt lat="45.39072" lon="6.75616">
        <ele>2038</ele>
        <time>2015-08-23T11:11:08Z</time>
      </trkpt>
      <trkpt lat="45.3907" lon="6.75613">
        <ele>2038</ele>
        <time>2015-08-23T11:11:09Z</time>
      </trkpt>
      <trkpt lat="45.39067" lon="6.7561">
        <ele>2038</ele>
        <time>2015-08-23T11:11:10Z</time>
      </trkpt>
      <trkpt lat="45.39065" lon="6.75608">
        <ele>2038</ele>
        <time>2015-08-23T11:11:11Z</time>
      </trkpt>
      <trkpt lat="45.39062" lon="6.75605">
        <ele>2038</ele>
        <time>2015-08-23T11:11:12Z</time>
      </trkpt>
      <trkpt lat="45.39059" lon="6.756">
        <ele>2038</ele>
        <time>2015-08-23T11:11:14Z</time>
      </trkpt>
      <trkpt lat="45.39056" lon="6.75596">
        <ele>2038</ele>
        <time>2015-08-23T11:11:16Z</time>
      </trkpt>
      <trkpt lat="45.39053" lon="6.75593">
        <ele>2038</ele>
        <time>2015-08-23T11:11:17Z</time>
      </trkpt>
      <trkpt lat="45.39049" lon="6.75589">
        <ele>2038</ele>
        <time>2015-08-23T11:11:19Z</time>
      </trkpt>
      <trkpt lat="45.39046" lon="6.75586">
        <ele>2038</ele>
        <time>2015-08-23T11:11:20Z</time>
      </trkpt>
      <trkpt lat="45.39044" lon="6.75583">
        <ele>2033</ele>
        <time>2015-08-23T11:11:21Z</time>
      </trkpt>
      <trkpt lat="45.39042" lon="6.7558">
        <ele>2033</ele>
        <time>2015-08-23T11:11:22Z</time>
      </trkpt>
      <trkpt lat="45.39041" lon="6.75577">
        <ele>2033</ele>
        <time>2015-08-23T11:11:23Z</time>
      </trkpt>
      <trkpt lat="45.39038" lon="6.7557">
        <ele>2033</ele>
        <time>2015-08-23T11:11:25Z</time>
      </trkpt>
      <trkpt lat="45.39035" lon="6.75565">
        <ele>2033</ele>
        <time>2015-08-23T11:11:27Z</time>
      </trkpt>
      <trkpt lat="45.39032" lon="6.75559">
        <ele>2033</ele>
        <time>2015-08-23T11:11:29Z</time>
      </trkpt>
      <trkpt lat="45.39029" lon="6.75554">
        <ele>2033</ele>
        <time>2015-08-23T11:11:31Z</time>
      </trkpt>
      <trkpt lat="45.39026" lon="6.75549">
        <ele>2033</ele>
        <time>2015-08-23T11:11:33Z</time>
      </trkpt>
      <trkpt lat="45.39023" lon="6.75545">
        <ele>2032</ele>
        <time>2015-08-23T11:11:35Z</time>
      </trkpt>
      <trkpt lat="45.3902" lon="6.7554">
        <ele>2032</ele>
        <time>2015-08-23T11:11:37Z</time>
      </trkpt>
      <trkpt lat="45.39017" lon="6.75535">
        <ele>2032</ele>
        <time>2015-08-23T11:11:39Z</time>
      </trkpt>
      <trkpt lat="45.39013" lon="6.75529">
        <ele>2031</ele>
        <time>2015-08-23T11:11:41Z</time>
      </trkpt>
      <trkpt lat="45.39011" lon="6.75525">
        <ele>2031</ele>
        <time>2015-08-23T11:11:42Z</time>
      </trkpt>
      <trkpt lat="45.39009" lon="6.75522">
        <ele>2031</ele>
        <time>2015-08-23T11:11:43Z</time>
      </trkpt>
      <trkpt lat="45.39006" lon="6.75518">
        <ele>2030</ele>
        <time>2015-08-23T11:11:44Z</time>
      </trkpt>
      <trkpt lat="45.39003" lon="6.75516">
        <ele>2030</ele>
        <time>2015-08-23T11:11:45Z</time>
      </trkpt>
      <trkpt lat="45.39" lon="6.75513">
        <ele>2030</ele>
        <time>2015-08-23T11:11:46Z</time>
      </trkpt>
      <trkpt lat="45.38998" lon="6.75509">
        <ele>2033</ele>
        <time>2015-08-23T11:11:47Z</time>
      </trkpt>
      <trkpt lat="45.38996" lon="6.75506">
        <ele>2032</ele>
        <time>2015-08-23T11:11:48Z</time>
      </trkpt>
      <trkpt lat="45.38995" lon="6.75502">
        <ele>2031</ele>
        <time>2015-08-23T11:11:49Z</time>
      </trkpt>
      <trkpt lat="45.38994" lon="6.75496">
        <ele>2028</ele>
        <time>2015-08-23T11:11:51Z</time>
      </trkpt>
      <trkpt lat="45.38993" lon="6.75489">
        <ele>2028</ele>
        <time>2015-08-23T11:11:53Z</time>
      </trkpt>
      <trkpt lat="45.38993" lon="6.75482">
        <ele>2028</ele>
        <time>2015-08-23T11:11:55Z</time>
      </trkpt>
      <trkpt lat="45.38993" lon="6.75475">
        <ele>2028</ele>
        <time>2015-08-23T11:11:57Z</time>
      </trkpt>
      <trkpt lat="45.38992" lon="6.75467">
        <ele>2027</ele>
        <time>2015-08-23T11:11:59Z</time>
      </trkpt>
      <trkpt lat="45.38991" lon="6.75461">
        <ele>2027</ele>
        <time>2015-08-23T11:12:01Z</time>
      </trkpt>
      <trkpt lat="45.3899" lon="6.75456">
        <ele>2027</ele>
        <time>2015-08-23T11:12:02Z</time>
      </trkpt>
      <trkpt lat="45.38988" lon="6.75449">
        <ele>2026</ele>
        <time>2015-08-23T11:12:04Z</time>
      </trkpt>
      <trkpt lat="45.38986" lon="6.75442">
        <ele>2025</ele>
        <time>2015-08-23T11:12:06Z</time>
      </trkpt>
      <trkpt lat="45.38984" lon="6.75437">
        <ele>2025</ele>
        <time>2015-08-23T11:12:08Z</time>
      </trkpt>
      <trkpt lat="45.38982" lon="6.75433">
        <ele>2024</ele>
        <time>2015-08-23T11:12:10Z</time>
      </trkpt>
      <trkpt lat="45.3898" lon="6.75428">
        <ele>2024</ele>
        <time>2015-08-23T11:12:12Z</time>
      </trkpt>
      <trkpt lat="45.38978" lon="6.75425">
        <ele>2024</ele>
        <time>2015-08-23T11:12:14Z</time>
      </trkpt>
      <trkpt lat="45.38975" lon="6.7542">
        <ele>2024</ele>
        <time>2015-08-23T11:12:16Z</time>
      </trkpt>
      <trkpt lat="45.3897" lon="6.75417">
        <ele>2025</ele>
        <time>2015-08-23T11:12:19Z</time>
      </trkpt>
      <trkpt lat="45.38967" lon="6.75413">
        <ele>2018</ele>
        <time>2015-08-23T11:12:20Z</time>
      </trkpt>
      <trkpt lat="45.38965" lon="6.75411">
        <ele>2018</ele>
        <time>2015-08-23T11:12:21Z</time>
      </trkpt>
      <trkpt lat="45.38963" lon="6.75408">
        <ele>2018</ele>
        <time>2015-08-23T11:12:22Z</time>
      </trkpt>
      <trkpt lat="45.38961" lon="6.75405">
        <ele>2018</ele>
        <time>2015-08-23T11:12:23Z</time>
      </trkpt>
      <trkpt lat="45.38959" lon="6.75401">
        <ele>2018</ele>
        <time>2015-08-23T11:12:24Z</time>
      </trkpt>
      <trkpt lat="45.38958" lon="6.75398">
        <ele>2018</ele>
        <time>2015-08-23T11:12:25Z</time>
      </trkpt>
      <trkpt lat="45.38957" lon="6.75394">
        <ele>2017</ele>
        <time>2015-08-23T11:12:26Z</time>
      </trkpt>
      <trkpt lat="45.38956" lon="6.7539">
        <ele>2017</ele>
        <time>2015-08-23T11:12:27Z</time>
      </trkpt>
      <trkpt lat="45.38955" lon="6.75383">
        <ele>2017</ele>
        <time>2015-08-23T11:12:29Z</time>
      </trkpt>
      <trkpt lat="45.38957" lon="6.75376">
        <ele>2017</ele>
        <time>2015-08-23T11:12:31Z</time>
      </trkpt>
      <trkpt lat="45.3896" lon="6.75371">
        <ele>2016</ele>
        <time>2015-08-23T11:12:33Z</time>
      </trkpt>
      <trkpt lat="45.38964" lon="6.75369">
        <ele>2016</ele>
        <time>2015-08-23T11:12:35Z</time>
      </trkpt>
      <trkpt lat="45.38968" lon="6.7537">
        <ele>2016</ele>
        <time>2015-08-23T11:12:37Z</time>
      </trkpt>
      <trkpt lat="45.38971" lon="6.75371">
        <ele>2017</ele>
        <time>2015-08-23T11:12:38Z</time>
      </trkpt>
      <trkpt lat="45.38974" lon="6.75373">
        <ele>2017</ele>
        <time>2015-08-23T11:12:39Z</time>
      </trkpt>
      <trkpt lat="45.38977" lon="6.75374">
        <ele>2017</ele>
        <time>2015-08-23T11:12:40Z</time>
      </trkpt>
      <trkpt lat="45.3898" lon="6.75374">
        <ele>2017</ele>
        <time>2015-08-23T11:12:41Z</time>
      </trkpt>
      <trkpt lat="45.38983" lon="6.75374">
        <ele>2017</ele>
        <time>2015-08-23T11:12:42Z</time>
      </trkpt>
      <trkpt lat="45.38986" lon="6.75373">
        <ele>2017</ele>
        <time>2015-08-23T11:12:43Z</time>
      </trkpt>
      <trkpt lat="45.38989" lon="6.75371">
        <ele>2017</ele>
        <time>2015-08-23T11:12:44Z</time>
      </trkpt>
      <trkpt lat="45.38991" lon="6.75368">
        <ele>2017</ele>
        <time>2015-08-23T11:12:45Z</time>
      </trkpt>
      <trkpt lat="45.38993" lon="6.75362">
        <ele>2017</ele>
        <time>2015-08-23T11:12:47Z</time>
      </trkpt>
      <trkpt lat="45.38994" lon="6.75358">
        <ele>2017</ele>
        <time>2015-08-23T11:12:48Z</time>
      </trkpt>
      <trkpt lat="45.38993" lon="6.75353">
        <ele>2017</ele>
        <time>2015-08-23T11:12:49Z</time>
      </trkpt>
      <trkpt lat="45.38993" lon="6.75349">
        <ele>2017</ele>
        <time>2015-08-23T11:12:50Z</time>
      </trkpt>
      <trkpt lat="45.38993" lon="6.75341">
        <ele>2017</ele>
        <time>2015-08-23T11:12:52Z</time>
      </trkpt>
      <trkpt lat="45.3899" lon="6.75335">
        <ele>2017</ele>
        <time>2015-08-23T11:12:53Z</time>
      </trkpt>
      <trkpt lat="45.38988" lon="6.75327">
        <ele>2015</ele>
        <time>2015-08-23T11:12:55Z</time>
      </trkpt>
      <trkpt lat="45.38987" lon="6.75323">
        <ele>2015</ele>
        <time>2015-08-23T11:12:56Z</time>
      </trkpt>
      <trkpt lat="45.38985" lon="6.75319">
        <ele>2015</ele>
        <time>2015-08-23T11:12:57Z</time>
      </trkpt>
      <trkpt lat="45.38984" lon="6.75315">
        <ele>2015</ele>
        <time>2015-08-23T11:12:58Z</time>
      </trkpt>
      <trkpt lat="45.38981" lon="6.7531">
        <ele>2014</ele>
        <time>2015-08-23T11:13:00Z</time>
      </trkpt>
      <trkpt lat="45.38979" lon="6.75306">
        <ele>2014</ele>
        <time>2015-08-23T11:13:01Z</time>
      </trkpt>
      <trkpt lat="45.38977" lon="6.75297">
        <ele>2014</ele>
        <time>2015-08-23T11:13:03Z</time>
      </trkpt>
      <trkpt lat="45.38977" lon="6.75293">
        <ele>2014</ele>
        <time>2015-08-23T11:13:04Z</time>
      </trkpt>
      <trkpt lat="45.38976" lon="6.75289">
        <ele>2014</ele>
        <time>2015-08-23T11:13:05Z</time>
      </trkpt>
      <trkpt lat="45.38975" lon="6.75285">
        <ele>2014</ele>
        <time>2015-08-23T11:13:06Z</time>
      </trkpt>
      <trkpt lat="45.38973" lon="6.75279">
        <ele>2014</ele>
        <time>2015-08-23T11:13:08Z</time>
      </trkpt>
      <trkpt lat="45.38973" lon="6.75275">
        <ele>2015</ele>
        <time>2015-08-23T11:13:09Z</time>
      </trkpt>
      <trkpt lat="45.38972" lon="6.75271">
        <ele>2015</ele>
        <time>2015-08-23T11:13:10Z</time>
      </trkpt>
      <trkpt lat="45.38972" lon="6.75267">
        <ele>2015</ele>
        <time>2015-08-23T11:13:11Z</time>
      </trkpt>
      <trkpt lat="45.3897" lon="6.75263">
        <ele>2015</ele>
        <time>2015-08-23T11:13:12Z</time>
      </trkpt>
      <trkpt lat="45.38968" lon="6.7526">
        <ele>2014</ele>
        <time>2015-08-23T11:13:13Z</time>
      </trkpt>
      <trkpt lat="45.38966" lon="6.75257">
        <ele>2014</ele>
        <time>2015-08-23T11:13:14Z</time>
      </trkpt>
      <trkpt lat="45.38964" lon="6.75255">
        <ele>2014</ele>
        <time>2015-08-23T11:13:15Z</time>
      </trkpt>
      <trkpt lat="45.38962" lon="6.75252">
        <ele>2013</ele>
        <time>2015-08-23T11:13:16Z</time>
      </trkpt>
      <trkpt lat="45.3896" lon="6.75249">
        <ele>2013</ele>
        <time>2015-08-23T11:13:17Z</time>
      </trkpt>
      <trkpt lat="45.38958" lon="6.75245">
        <ele>2013</ele>
        <time>2015-08-23T11:13:18Z</time>
      </trkpt>
      <trkpt lat="45.38957" lon="6.75242">
        <ele>2013</ele>
        <time>2015-08-23T11:13:19Z</time>
      </trkpt>
      <trkpt lat="45.38955" lon="6.75239">
        <ele>2012</ele>
        <time>2015-08-23T11:13:20Z</time>
      </trkpt>
      <trkpt lat="45.38953" lon="6.75236">
        <ele>2012</ele>
        <time>2015-08-23T11:13:21Z</time>
      </trkpt>
      <trkpt lat="45.38951" lon="6.75233">
        <ele>2012</ele>
        <time>2015-08-23T11:13:22Z</time>
      </trkpt>
      <trkpt lat="45.38948" lon="6.75228">
        <ele>2011</ele>
        <time>2015-08-23T11:13:24Z</time>
      </trkpt>
      <trkpt lat="45.38945" lon="6.75222">
        <ele>2011</ele>
        <time>2015-08-23T11:13:26Z</time>
      </trkpt>
      <trkpt lat="45.38943" lon="6.75219">
        <ele>2011</ele>
        <time>2015-08-23T11:13:27Z</time>
      </trkpt>
      <trkpt lat="45.38941" lon="6.75216">
        <ele>2010</ele>
        <time>2015-08-23T11:13:28Z</time>
      </trkpt>
      <trkpt lat="45.38939" lon="6.75213">
        <ele>2010</ele>
        <time>2015-08-23T11:13:29Z</time>
      </trkpt>
      <trkpt lat="45.38938" lon="6.7521">
        <ele>2010</ele>
        <time>2015-08-23T11:13:30Z</time>
      </trkpt>
      <trkpt lat="45.38936" lon="6.75206">
        <ele>2010</ele>
        <time>2015-08-23T11:13:31Z</time>
      </trkpt>
      <trkpt lat="45.38935" lon="6.75201">
        <ele>2009</ele>
        <time>2015-08-23T11:13:32Z</time>
      </trkpt>
      <trkpt lat="45.38934" lon="6.75197">
        <ele>2009</ele>
        <time>2015-08-23T11:13:34Z</time>
      </trkpt>
      <trkpt lat="45.38933" lon="6.75193">
        <ele>2009</ele>
        <time>2015-08-23T11:13:35Z</time>
      </trkpt>
      <trkpt lat="45.38931" lon="6.75187">
        <ele>2008</ele>
        <time>2015-08-23T11:13:36Z</time>
      </trkpt>
      <trkpt lat="45.38929" lon="6.7518">
        <ele>2006</ele>
        <time>2015-08-23T11:13:38Z</time>
      </trkpt>
      <trkpt lat="45.38927" lon="6.75177">
        <ele>2005</ele>
        <time>2015-08-23T11:13:39Z</time>
      </trkpt>
      <trkpt lat="45.38924" lon="6.75171">
        <ele>2003</ele>
        <time>2015-08-23T11:13:41Z</time>
      </trkpt>
      <trkpt lat="45.38922" lon="6.75164">
        <ele>2002</ele>
        <time>2015-08-23T11:13:43Z</time>
      </trkpt>
      <trkpt lat="45.38921" lon="6.7516">
        <ele>2003</ele>
        <time>2015-08-23T11:13:44Z</time>
      </trkpt>
      <trkpt lat="45.3892" lon="6.75156">
        <ele>2004</ele>
        <time>2015-08-23T11:13:45Z</time>
      </trkpt>
      <trkpt lat="45.38918" lon="6.75153">
        <ele>2004</ele>
        <time>2015-08-23T11:13:46Z</time>
      </trkpt>
      <trkpt lat="45.38917" lon="6.75149">
        <ele>2005</ele>
        <time>2015-08-23T11:13:47Z</time>
      </trkpt>
      <trkpt lat="45.38915" lon="6.75145">
        <ele>1993</ele>
        <time>2015-08-23T11:13:48Z</time>
      </trkpt>
      <trkpt lat="45.38914" lon="6.75141">
        <ele>1992</ele>
        <time>2015-08-23T11:13:49Z</time>
      </trkpt>
      <trkpt lat="45.38912" lon="6.75138">
        <ele>1992</ele>
        <time>2015-08-23T11:13:50Z</time>
      </trkpt>
      <trkpt lat="45.38909" lon="6.75132">
        <ele>1991</ele>
        <time>2015-08-23T11:13:53Z</time>
      </trkpt>
      <trkpt lat="45.38907" lon="6.75125">
        <ele>1990</ele>
        <time>2015-08-23T11:13:55Z</time>
      </trkpt>
      <trkpt lat="45.38905" lon="6.75122">
        <ele>1990</ele>
        <time>2015-08-23T11:13:56Z</time>
      </trkpt>
      <trkpt lat="45.38902" lon="6.75114">
        <ele>1990</ele>
        <time>2015-08-23T11:13:57Z</time>
      </trkpt>
      <trkpt lat="45.38899" lon="6.75106">
        <ele>1989</ele>
        <time>2015-08-23T11:13:59Z</time>
      </trkpt>
      <trkpt lat="45.38897" lon="6.75101">
        <ele>1989</ele>
        <time>2015-08-23T11:14:00Z</time>
      </trkpt>
      <trkpt lat="45.38896" lon="6.75097">
        <ele>1989</ele>
        <time>2015-08-23T11:14:01Z</time>
      </trkpt>
      <trkpt lat="45.38894" lon="6.75092">
        <ele>1989</ele>
        <time>2015-08-23T11:14:02Z</time>
      </trkpt>
      <trkpt lat="45.38893" lon="6.75088">
        <ele>1989</ele>
        <time>2015-08-23T11:14:03Z</time>
      </trkpt>
      <trkpt lat="45.38892" lon="6.75084">
        <ele>1989</ele>
        <time>2015-08-23T11:14:04Z</time>
      </trkpt>
      <trkpt lat="45.38891" lon="6.75079">
        <ele>1985</ele>
        <time>2015-08-23T11:14:05Z</time>
      </trkpt>
      <trkpt lat="45.38891" lon="6.75075">
        <ele>1985</ele>
        <time>2015-08-23T11:14:06Z</time>
      </trkpt>
      <trkpt lat="45.38891" lon="6.75068">
        <ele>1985</ele>
        <time>2015-08-23T11:14:08Z</time>
      </trkpt>
      <trkpt lat="45.38893" lon="6.75061">
        <ele>1984</ele>
        <time>2015-08-23T11:14:10Z</time>
      </trkpt>
      <trkpt lat="45.38895" lon="6.75055">
        <ele>1984</ele>
        <time>2015-08-23T11:14:12Z</time>
      </trkpt>
      <trkpt lat="45.38898" lon="6.75049">
        <ele>1984</ele>
        <time>2015-08-23T11:14:14Z</time>
      </trkpt>
      <trkpt lat="45.389" lon="6.75045">
        <ele>1985</ele>
        <time>2015-08-23T11:14:16Z</time>
      </trkpt>
      <trkpt lat="45.38902" lon="6.75042">
        <ele>1985</ele>
        <time>2015-08-23T11:14:18Z</time>
      </trkpt>
      <trkpt lat="45.38905" lon="6.75037">
        <ele>1985</ele>
        <time>2015-08-23T11:14:20Z</time>
      </trkpt>
      <trkpt lat="45.38907" lon="6.75031">
        <ele>1986</ele>
        <time>2015-08-23T11:14:22Z</time>
      </trkpt>
      <trkpt lat="45.38907" lon="6.75024">
        <ele>1986</ele>
        <time>2015-08-23T11:14:24Z</time>
      </trkpt>
      <trkpt lat="45.38908" lon="6.75018">
        <ele>1987</ele>
        <time>2015-08-23T11:14:26Z</time>
      </trkpt>
      <trkpt lat="45.38907" lon="6.75012">
        <ele>1988</ele>
        <time>2015-08-23T11:14:28Z</time>
      </trkpt>
      <trkpt lat="45.38905" lon="6.75007">
        <ele>1988</ele>
        <time>2015-08-23T11:14:30Z</time>
      </trkpt>
      <trkpt lat="45.38903" lon="6.75002">
        <ele>1988</ele>
        <time>2015-08-23T11:14:32Z</time>
      </trkpt>
      <trkpt lat="45.389" lon="6.74998">
        <ele>1987</ele>
        <time>2015-08-23T11:14:34Z</time>
      </trkpt>
      <trkpt lat="45.38897" lon="6.74994">
        <ele>1986</ele>
        <time>2015-08-23T11:14:36Z</time>
      </trkpt>
      <trkpt lat="45.38894" lon="6.74988">
        <ele>1984</ele>
        <time>2015-08-23T11:14:38Z</time>
      </trkpt>
      <trkpt lat="45.38891" lon="6.74982">
        <ele>1983</ele>
        <time>2015-08-23T11:14:40Z</time>
      </trkpt>
      <trkpt lat="45.38889" lon="6.74979">
        <ele>1983</ele>
        <time>2015-08-23T11:14:41Z</time>
      </trkpt>
      <trkpt lat="45.38887" lon="6.74976">
        <ele>1982</ele>
        <time>2015-08-23T11:14:43Z</time>
      </trkpt>
      <trkpt lat="45.38886" lon="6.74973">
        <ele>1982</ele>
        <time>2015-08-23T11:14:44Z</time>
      </trkpt>
      <trkpt lat="45.38883" lon="6.74966">
        <ele>1981</ele>
        <time>2015-08-23T11:14:45Z</time>
      </trkpt>
      <trkpt lat="45.38882" lon="6.74962">
        <ele>1981</ele>
        <time>2015-08-23T11:14:46Z</time>
      </trkpt>
      <trkpt lat="45.38881" lon="6.74959">
        <ele>1981</ele>
        <time>2015-08-23T11:14:47Z</time>
      </trkpt>
      <trkpt lat="45.38879" lon="6.74955">
        <ele>1980</ele>
        <time>2015-08-23T11:14:48Z</time>
      </trkpt>
      <trkpt lat="45.38878" lon="6.74951">
        <ele>1980</ele>
        <time>2015-08-23T11:14:49Z</time>
      </trkpt>
      <trkpt lat="45.38877" lon="6.74947">
        <ele>1980</ele>
        <time>2015-08-23T11:14:50Z</time>
      </trkpt>
      <trkpt lat="45.38875" lon="6.74944">
        <ele>1980</ele>
        <time>2015-08-23T11:14:51Z</time>
      </trkpt>
      <trkpt lat="45.38873" lon="6.74938">
        <ele>1979</ele>
        <time>2015-08-23T11:14:53Z</time>
      </trkpt>
      <trkpt lat="45.38869" lon="6.74934">
        <ele>1978</ele>
        <time>2015-08-23T11:14:55Z</time>
      </trkpt>
      <trkpt lat="45.38866" lon="6.7493">
        <ele>1977</ele>
        <time>2015-08-23T11:14:57Z</time>
      </trkpt>
      <trkpt lat="45.38862" lon="6.74928">
        <ele>1975</ele>
        <time>2015-08-23T11:14:59Z</time>
      </trkpt>
      <trkpt lat="45.38858" lon="6.74923">
        <ele>1974</ele>
        <time>2015-08-23T11:15:01Z</time>
      </trkpt>
      <trkpt lat="45.38855" lon="6.74918">
        <ele>1972</ele>
        <time>2015-08-23T11:15:03Z</time>
      </trkpt>
      <trkpt lat="45.38852" lon="6.74913">
        <ele>1972</ele>
        <time>2015-08-23T11:15:05Z</time>
      </trkpt>
      <trkpt lat="45.3885" lon="6.74908">
        <ele>1972</ele>
        <time>2015-08-23T11:15:07Z</time>
      </trkpt>
      <trkpt lat="45.38848" lon="6.74904">
        <ele>1971</ele>
        <time>2015-08-23T11:15:09Z</time>
      </trkpt>
      <trkpt lat="45.38845" lon="6.74902">
        <ele>1971</ele>
        <time>2015-08-23T11:15:11Z</time>
      </trkpt>
      <trkpt lat="45.38842" lon="6.74899">
        <ele>1971</ele>
        <time>2015-08-23T11:15:13Z</time>
      </trkpt>
      <trkpt lat="45.38839" lon="6.74896">
        <ele>1971</ele>
        <time>2015-08-23T11:15:15Z</time>
      </trkpt>
      <trkpt lat="45.38837" lon="6.74893">
        <ele>1972</ele>
        <time>2015-08-23T11:15:17Z</time>
      </trkpt>
      <trkpt lat="45.38835" lon="6.74889">
        <ele>1972</ele>
        <time>2015-08-23T11:15:19Z</time>
      </trkpt>
      <trkpt lat="45.38834" lon="6.74883">
        <ele>1973</ele>
        <time>2015-08-23T11:15:21Z</time>
      </trkpt>
      <trkpt lat="45.38833" lon="6.74878">
        <ele>1953</ele>
        <time>2015-08-23T11:15:23Z</time>
      </trkpt>
      <trkpt lat="45.3883" lon="6.74873">
        <ele>1952</ele>
        <time>2015-08-23T11:15:25Z</time>
      </trkpt>
      <trkpt lat="45.38827" lon="6.74868">
        <ele>1952</ele>
        <time>2015-08-23T11:15:27Z</time>
      </trkpt>
      <trkpt lat="45.38824" lon="6.74863">
        <ele>1952</ele>
        <time>2015-08-23T11:15:29Z</time>
      </trkpt>
      <trkpt lat="45.38822" lon="6.74857">
        <ele>1952</ele>
        <time>2015-08-23T11:15:31Z</time>
      </trkpt>
      <trkpt lat="45.38819" lon="6.74853">
        <ele>1952</ele>
        <time>2015-08-23T11:15:33Z</time>
      </trkpt>
      <trkpt lat="45.38815" lon="6.74849">
        <ele>1952</ele>
        <time>2015-08-23T11:15:35Z</time>
      </trkpt>
      <trkpt lat="45.38812" lon="6.74847">
        <ele>1952</ele>
        <time>2015-08-23T11:15:36Z</time>
      </trkpt>
      <trkpt lat="45.38809" lon="6.74846">
        <ele>1951</ele>
        <time>2015-08-23T11:15:37Z</time>
      </trkpt>
      <trkpt lat="45.38806" lon="6.74845">
        <ele>1950</ele>
        <time>2015-08-23T11:15:38Z</time>
      </trkpt>
      <trkpt lat="45.38803" lon="6.74839">
        <ele>1950</ele>
        <time>2015-08-23T11:15:40Z</time>
      </trkpt>
      <trkpt lat="45.38803" lon="6.74835">
        <ele>1950</ele>
        <time>2015-08-23T11:15:41Z</time>
      </trkpt>
      <trkpt lat="45.38802" lon="6.74829">
        <ele>1946</ele>
        <time>2015-08-23T11:15:43Z</time>
      </trkpt>
      <trkpt lat="45.388" lon="6.74821">
        <ele>1945</ele>
        <time>2015-08-23T11:15:46Z</time>
      </trkpt>
      <trkpt lat="45.38798" lon="6.74816">
        <ele>1944</ele>
        <time>2015-08-23T11:15:48Z</time>
      </trkpt>
      <trkpt lat="45.38798" lon="6.7481">
        <ele>1944</ele>
        <time>2015-08-23T11:15:50Z</time>
      </trkpt>
      <trkpt lat="45.38797" lon="6.74804">
        <ele>1943</ele>
        <time>2015-08-23T11:15:52Z</time>
      </trkpt>
      <trkpt lat="45.38794" lon="6.748">
        <ele>1942</ele>
        <time>2015-08-23T11:15:54Z</time>
      </trkpt>
      <trkpt lat="45.38791" lon="6.74801">
        <ele>1942</ele>
        <time>2015-08-23T11:15:56Z</time>
      </trkpt>
      <trkpt lat="45.38788" lon="6.74804">
        <ele>1941</ele>
        <time>2015-08-23T11:15:58Z</time>
      </trkpt>
      <trkpt lat="45.38786" lon="6.74799">
        <ele>1941</ele>
        <time>2015-08-23T11:16:01Z</time>
      </trkpt>
      <trkpt lat="45.38785" lon="6.74794">
        <ele>1940</ele>
        <time>2015-08-23T11:16:03Z</time>
      </trkpt>
      <trkpt lat="45.38785" lon="6.74789">
        <ele>1940</ele>
        <time>2015-08-23T11:16:05Z</time>
      </trkpt>
      <trkpt lat="45.38784" lon="6.74783">
        <ele>1940</ele>
        <time>2015-08-23T11:16:07Z</time>
      </trkpt>
      <trkpt lat="45.38785" lon="6.74776">
        <ele>1939</ele>
        <time>2015-08-23T11:16:09Z</time>
      </trkpt>
      <trkpt lat="45.38786" lon="6.74773">
        <ele>1939</ele>
        <time>2015-08-23T11:16:10Z</time>
      </trkpt>
      <trkpt lat="45.38787" lon="6.74769">
        <ele>1939</ele>
        <time>2015-08-23T11:16:11Z</time>
      </trkpt>
      <trkpt lat="45.38789" lon="6.74766">
        <ele>1940</ele>
        <time>2015-08-23T11:16:12Z</time>
      </trkpt>
      <trkpt lat="45.38791" lon="6.74759">
        <ele>1940</ele>
        <time>2015-08-23T11:16:14Z</time>
      </trkpt>
      <trkpt lat="45.38792" lon="6.74753">
        <ele>1940</ele>
        <time>2015-08-23T11:16:16Z</time>
      </trkpt>
      <trkpt lat="45.38791" lon="6.74748">
        <ele>1934</ele>
        <time>2015-08-23T11:16:18Z</time>
      </trkpt>
      <trkpt lat="45.38789" lon="6.74742">
        <ele>1934</ele>
        <time>2015-08-23T11:16:20Z</time>
      </trkpt>
      <trkpt lat="45.38787" lon="6.74736">
        <ele>1933</ele>
        <time>2015-08-23T11:16:22Z</time>
      </trkpt>
      <trkpt lat="45.38785" lon="6.74729">
        <ele>1932</ele>
        <time>2015-08-23T11:16:24Z</time>
      </trkpt>
      <trkpt lat="45.38784" lon="6.74725">
        <ele>1932</ele>
        <time>2015-08-23T11:16:25Z</time>
      </trkpt>
      <trkpt lat="45.38782" lon="6.74719">
        <ele>1931</ele>
        <time>2015-08-23T11:16:27Z</time>
      </trkpt>
      <trkpt lat="45.38782" lon="6.74715">
        <ele>1931</ele>
        <time>2015-08-23T11:16:29Z</time>
      </trkpt>
      <trkpt lat="45.3878" lon="6.74711">
        <ele>1931</ele>
        <time>2015-08-23T11:16:31Z</time>
      </trkpt>
      <trkpt lat="45.38779" lon="6.74706">
        <ele>1930</ele>
        <time>2015-08-23T11:16:33Z</time>
      </trkpt>
      <trkpt lat="45.38778" lon="6.74701">
        <ele>1929</ele>
        <time>2015-08-23T11:16:35Z</time>
      </trkpt>
      <trkpt lat="45.38778" lon="6.74696">
        <ele>1929</ele>
        <time>2015-08-23T11:16:37Z</time>
      </trkpt>
      <trkpt lat="45.38778" lon="6.7469">
        <ele>1928</ele>
        <time>2015-08-23T11:16:39Z</time>
      </trkpt>
      <trkpt lat="45.38777" lon="6.74683">
        <ele>1927</ele>
        <time>2015-08-23T11:16:41Z</time>
      </trkpt>
      <trkpt lat="45.38777" lon="6.74677">
        <ele>1926</ele>
        <time>2015-08-23T11:16:43Z</time>
      </trkpt>
      <trkpt lat="45.38778" lon="6.74672">
        <ele>1926</ele>
        <time>2015-08-23T11:16:45Z</time>
      </trkpt>
      <trkpt lat="45.38777" lon="6.74668">
        <ele>1925</ele>
        <time>2015-08-23T11:16:47Z</time>
      </trkpt>
      <trkpt lat="45.38773" lon="6.74667">
        <ele>1923</ele>
        <time>2015-08-23T11:16:50Z</time>
      </trkpt>
      <trkpt lat="45.3877" lon="6.74669">
        <ele>1922</ele>
        <time>2015-08-23T11:16:52Z</time>
      </trkpt>
      <trkpt lat="45.38767" lon="6.74672">
        <ele>1921</ele>
        <time>2015-08-23T11:16:55Z</time>
      </trkpt>
      <trkpt lat="45.38766" lon="6.74667">
        <ele>1920</ele>
        <time>2015-08-23T11:17:04Z</time>
      </trkpt>
      <trkpt lat="45.38766" lon="6.74661">
        <ele>1916</ele>
        <time>2015-08-23T11:17:06Z</time>
      </trkpt>
      <trkpt lat="45.38765" lon="6.74653">
        <ele>1917</ele>
        <time>2015-08-23T11:17:08Z</time>
      </trkpt>
      <trkpt lat="45.38764" lon="6.74647">
        <ele>1917</ele>
        <time>2015-08-23T11:17:10Z</time>
      </trkpt>
      <trkpt lat="45.38764" lon="6.74641">
        <ele>1918</ele>
        <time>2015-08-23T11:17:12Z</time>
      </trkpt>
      <trkpt lat="45.38766" lon="6.74635">
        <ele>1918</ele>
        <time>2015-08-23T11:17:14Z</time>
      </trkpt>
      <trkpt lat="45.38766" lon="6.74627">
        <ele>1918</ele>
        <time>2015-08-23T11:17:16Z</time>
      </trkpt>
      <trkpt lat="45.38766" lon="6.74623">
        <ele>1918</ele>
        <time>2015-08-23T11:17:17Z</time>
      </trkpt>
      <trkpt lat="45.38766" lon="6.74618">
        <ele>1917</ele>
        <time>2015-08-23T11:17:18Z</time>
      </trkpt>
      <trkpt lat="45.38765" lon="6.74613">
        <ele>1916</ele>
        <time>2015-08-23T11:17:19Z</time>
      </trkpt>
      <trkpt lat="45.38765" lon="6.74609">
        <ele>1915</ele>
        <time>2015-08-23T11:17:20Z</time>
      </trkpt>
      <trkpt lat="45.38765" lon="6.74604">
        <ele>1914</ele>
        <time>2015-08-23T11:17:21Z</time>
      </trkpt>
      <trkpt lat="45.38766" lon="6.74597">
        <ele>1912</ele>
        <time>2015-08-23T11:17:23Z</time>
      </trkpt>
      <trkpt lat="45.38765" lon="6.74591">
        <ele>1910</ele>
        <time>2015-08-23T11:17:25Z</time>
      </trkpt>
      <trkpt lat="45.38764" lon="6.74584">
        <ele>1908</ele>
        <time>2015-08-23T11:17:27Z</time>
      </trkpt>
      <trkpt lat="45.38763" lon="6.74578">
        <ele>1906</ele>
        <time>2015-08-23T11:17:29Z</time>
      </trkpt>
      <trkpt lat="45.38762" lon="6.74573">
        <ele>1907</ele>
        <time>2015-08-23T11:17:31Z</time>
      </trkpt>
      <trkpt lat="45.38761" lon="6.74568">
        <ele>1909</ele>
        <time>2015-08-23T11:17:33Z</time>
      </trkpt>
      <trkpt lat="45.3876" lon="6.74563">
        <ele>1909</ele>
        <time>2015-08-23T11:17:35Z</time>
      </trkpt>
      <trkpt lat="45.38757" lon="6.7456">
        <ele>1910</ele>
        <time>2015-08-23T11:17:37Z</time>
      </trkpt>
      <trkpt lat="45.38755" lon="6.74557">
        <ele>1910</ele>
        <time>2015-08-23T11:17:39Z</time>
      </trkpt>
      <trkpt lat="45.38752" lon="6.74557">
        <ele>1909</ele>
        <time>2015-08-23T11:17:41Z</time>
      </trkpt>
      <trkpt lat="45.38748" lon="6.74559">
        <ele>1886</ele>
        <time>2015-08-23T11:17:43Z</time>
      </trkpt>
      <trkpt lat="45.38744" lon="6.74561">
        <ele>1886</ele>
        <time>2015-08-23T11:17:45Z</time>
      </trkpt>
      <trkpt lat="45.3874" lon="6.74559">
        <ele>1886</ele>
        <time>2015-08-23T11:17:47Z</time>
      </trkpt>
      <trkpt lat="45.38737" lon="6.74555">
        <ele>1884</ele>
        <time>2015-08-23T11:17:49Z</time>
      </trkpt>
      <trkpt lat="45.38733" lon="6.74551">
        <ele>1884</ele>
        <time>2015-08-23T11:17:51Z</time>
      </trkpt>
      <trkpt lat="45.38731" lon="6.74548">
        <ele>1883</ele>
        <time>2015-08-23T11:17:53Z</time>
      </trkpt>
      <trkpt lat="45.38729" lon="6.74544">
        <ele>1882</ele>
        <time>2015-08-23T11:17:55Z</time>
      </trkpt>
      <trkpt lat="45.38729" lon="6.74538">
        <ele>1882</ele>
        <time>2015-08-23T11:17:57Z</time>
      </trkpt>
      <trkpt lat="45.38728" lon="6.74534">
        <ele>1882</ele>
        <time>2015-08-23T11:17:59Z</time>
      </trkpt>
      <trkpt lat="45.38727" lon="6.74529">
        <ele>1882</ele>
        <time>2015-08-23T11:18:01Z</time>
      </trkpt>
      <trkpt lat="45.38725" lon="6.74524">
        <ele>1881</ele>
        <time>2015-08-23T11:18:03Z</time>
      </trkpt>
      <trkpt lat="45.38723" lon="6.74518">
        <ele>1881</ele>
        <time>2015-08-23T11:18:05Z</time>
      </trkpt>
      <trkpt lat="45.38721" lon="6.74515">
        <ele>1880</ele>
        <time>2015-08-23T11:18:07Z</time>
      </trkpt>
      <trkpt lat="45.38718" lon="6.74512">
        <ele>1880</ele>
        <time>2015-08-23T11:18:09Z</time>
      </trkpt>
      <trkpt lat="45.38716" lon="6.74508">
        <ele>1879</ele>
        <time>2015-08-23T11:18:12Z</time>
      </trkpt>
      <trkpt lat="45.38716" lon="6.74503">
        <ele>1879</ele>
        <time>2015-08-23T11:18:14Z</time>
      </trkpt>
      <trkpt lat="45.38716" lon="6.74499">
        <ele>1873</ele>
        <time>2015-08-23T11:18:16Z</time>
      </trkpt>
      <trkpt lat="45.38715" lon="6.74496">
        <ele>1873</ele>
        <time>2015-08-23T11:18:18Z</time>
      </trkpt>
      <trkpt lat="45.38714" lon="6.74492">
        <ele>1872</ele>
        <time>2015-08-23T11:18:21Z</time>
      </trkpt>
      <trkpt lat="45.38714" lon="6.74488">
        <ele>1872</ele>
        <time>2015-08-23T11:18:24Z</time>
      </trkpt>
      <trkpt lat="45.38714" lon="6.74481">
        <ele>1872</ele>
        <time>2015-08-23T11:18:27Z</time>
      </trkpt>
      <trkpt lat="45.38711" lon="6.74476">
        <ele>1871</ele>
        <time>2015-08-23T11:18:29Z</time>
      </trkpt>
      <trkpt lat="45.38707" lon="6.74472">
        <ele>1869</ele>
        <time>2015-08-23T11:18:31Z</time>
      </trkpt>
      <trkpt lat="45.38704" lon="6.74468">
        <ele>1869</ele>
        <time>2015-08-23T11:18:33Z</time>
      </trkpt>
      <trkpt lat="45.38704" lon="6.74464">
        <ele>1868</ele>
        <time>2015-08-23T11:18:35Z</time>
      </trkpt>
      <trkpt lat="45.38704" lon="6.74458">
        <ele>1868</ele>
        <time>2015-08-23T11:18:37Z</time>
      </trkpt>
      <trkpt lat="45.38701" lon="6.74453">
        <ele>1867</ele>
        <time>2015-08-23T11:18:39Z</time>
      </trkpt>
      <trkpt lat="45.38697" lon="6.74448">
        <ele>1866</ele>
        <time>2015-08-23T11:18:41Z</time>
      </trkpt>
      <trkpt lat="45.38696" lon="6.74444">
        <ele>1865</ele>
        <time>2015-08-23T11:18:42Z</time>
      </trkpt>
      <trkpt lat="45.38696" lon="6.74437">
        <ele>1864</ele>
        <time>2015-08-23T11:18:44Z</time>
      </trkpt>
      <trkpt lat="45.38697" lon="6.74431">
        <ele>1864</ele>
        <time>2015-08-23T11:18:46Z</time>
      </trkpt>
      <trkpt lat="45.38698" lon="6.74425">
        <ele>1864</ele>
        <time>2015-08-23T11:18:48Z</time>
      </trkpt>
      <trkpt lat="45.38699" lon="6.74421">
        <ele>1864</ele>
        <time>2015-08-23T11:18:50Z</time>
      </trkpt>
      <trkpt lat="45.38698" lon="6.74416">
        <ele>1858</ele>
        <time>2015-08-23T11:18:52Z</time>
      </trkpt>
      <trkpt lat="45.38696" lon="6.74411">
        <ele>1857</ele>
        <time>2015-08-23T11:18:56Z</time>
      </trkpt>
      <trkpt lat="45.38696" lon="6.74407">
        <ele>1857</ele>
        <time>2015-08-23T11:18:58Z</time>
      </trkpt>
      <trkpt lat="45.38696" lon="6.74401">
        <ele>1857</ele>
        <time>2015-08-23T11:19:00Z</time>
      </trkpt>
      <trkpt lat="45.38696" lon="6.74394">
        <ele>1857</ele>
        <time>2015-08-23T11:19:02Z</time>
      </trkpt>
      <trkpt lat="45.38697" lon="6.74389">
        <ele>1857</ele>
        <time>2015-08-23T11:19:04Z</time>
      </trkpt>
      <trkpt lat="45.38697" lon="6.74384">
        <ele>1857</ele>
        <time>2015-08-23T11:19:06Z</time>
      </trkpt>
      <trkpt lat="45.38696" lon="6.74378">
        <ele>1856</ele>
        <time>2015-08-23T11:19:08Z</time>
      </trkpt>
      <trkpt lat="45.38695" lon="6.74372">
        <ele>1856</ele>
        <time>2015-08-23T11:19:10Z</time>
      </trkpt>
      <trkpt lat="45.38694" lon="6.74367">
        <ele>1855</ele>
        <time>2015-08-23T11:19:12Z</time>
      </trkpt>
      <trkpt lat="45.38693" lon="6.74363">
        <ele>1854</ele>
        <time>2015-08-23T11:19:13Z</time>
      </trkpt>
      <trkpt lat="45.38691" lon="6.74355">
        <ele>1853</ele>
        <time>2015-08-23T11:19:15Z</time>
      </trkpt>
      <trkpt lat="45.38688" lon="6.74356">
        <ele>1852</ele>
        <time>2015-08-23T11:19:17Z</time>
      </trkpt>
      <trkpt lat="45.38686" lon="6.74364">
        <ele>1853</ele>
        <time>2015-08-23T11:19:19Z</time>
      </trkpt>
      <trkpt lat="45.38685" lon="6.74368">
        <ele>1853</ele>
        <time>2015-08-23T11:19:20Z</time>
      </trkpt>
      <trkpt lat="45.38684" lon="6.74372">
        <ele>1854</ele>
        <time>2015-08-23T11:19:21Z</time>
      </trkpt>
      <trkpt lat="45.38682" lon="6.74376">
        <ele>1854</ele>
        <time>2015-08-23T11:19:22Z</time>
      </trkpt>
      <trkpt lat="45.38679" lon="6.74375">
        <ele>1853</ele>
        <time>2015-08-23T11:19:27Z</time>
      </trkpt>
      <trkpt lat="45.38677" lon="6.7437">
        <ele>1852</ele>
        <time>2015-08-23T11:19:30Z</time>
      </trkpt>
      <trkpt lat="45.38675" lon="6.74366">
        <ele>1851</ele>
        <time>2015-08-23T11:19:32Z</time>
      </trkpt>
      <trkpt lat="45.38672" lon="6.74362">
        <ele>1850</ele>
        <time>2015-08-23T11:19:34Z</time>
      </trkpt>
      <trkpt lat="45.3867" lon="6.74359">
        <ele>1849</ele>
        <time>2015-08-23T11:19:36Z</time>
      </trkpt>
      <trkpt lat="45.38667" lon="6.74356">
        <ele>1848</ele>
        <time>2015-08-23T11:19:39Z</time>
      </trkpt>
      <trkpt lat="45.38665" lon="6.74353">
        <ele>1832</ele>
        <time>2015-08-23T11:19:44Z</time>
      </trkpt>
      <trkpt lat="45.38667" lon="6.7435">
        <ele>1846</ele>
        <time>2015-08-23T11:19:49Z</time>
      </trkpt>
      <trkpt lat="45.38664" lon="6.74347">
        <ele>1833</ele>
        <time>2015-08-23T11:19:56Z</time>
      </trkpt>
      <trkpt lat="45.38661" lon="6.74347">
        <ele>1833</ele>
        <time>2015-08-23T11:19:59Z</time>
      </trkpt>
      <trkpt lat="45.38658" lon="6.74345">
        <ele>1832</ele>
        <time>2015-08-23T11:20:01Z</time>
      </trkpt>
      <trkpt lat="45.38655" lon="6.74343">
        <ele>1832</ele>
        <time>2015-08-23T11:20:03Z</time>
      </trkpt>
      <trkpt lat="45.38652" lon="6.74339">
        <ele>1832</ele>
        <time>2015-08-23T11:20:05Z</time>
      </trkpt>
      <trkpt lat="45.38648" lon="6.74338">
        <ele>1831</ele>
        <time>2015-08-23T11:20:07Z</time>
      </trkpt>
      <trkpt lat="45.38643" lon="6.7434">
        <ele>1830</ele>
        <time>2015-08-23T11:20:09Z</time>
      </trkpt>
      <trkpt lat="45.3864" lon="6.7434">
        <ele>1829</ele>
        <time>2015-08-23T11:20:11Z</time>
      </trkpt>
      <trkpt lat="45.38636" lon="6.74338">
        <ele>1828</ele>
        <time>2015-08-23T11:20:13Z</time>
      </trkpt>
      <trkpt lat="45.38632" lon="6.74332">
        <ele>1822</ele>
        <time>2015-08-23T11:20:15Z</time>
      </trkpt>
      <trkpt lat="45.38629" lon="6.74324">
        <ele>1821</ele>
        <time>2015-08-23T11:20:17Z</time>
      </trkpt>
      <trkpt lat="45.38628" lon="6.74319">
        <ele>1820</ele>
        <time>2015-08-23T11:20:18Z</time>
      </trkpt>
      <trkpt lat="45.38627" lon="6.74315">
        <ele>1820</ele>
        <time>2015-08-23T11:20:19Z</time>
      </trkpt>
      <trkpt lat="45.38627" lon="6.7431">
        <ele>1820</ele>
        <time>2015-08-23T11:20:20Z</time>
      </trkpt>
      <trkpt lat="45.38628" lon="6.74305">
        <ele>1820</ele>
        <time>2015-08-23T11:20:22Z</time>
      </trkpt>
      <trkpt lat="45.38631" lon="6.74297">
        <ele>1820</ele>
        <time>2015-08-23T11:20:25Z</time>
      </trkpt>
      <trkpt lat="45.38629" lon="6.74291">
        <ele>1820</ele>
        <time>2015-08-23T11:20:26Z</time>
      </trkpt>
      <trkpt lat="45.38629" lon="6.74286">
        <ele>1819</ele>
        <time>2015-08-23T11:20:28Z</time>
      </trkpt>
      <trkpt lat="45.38628" lon="6.74284">
        <ele>1819</ele>
        <time>2015-08-23T11:20:30Z</time>
      </trkpt>
      <trkpt lat="45.38628" lon="6.74282">
        <ele>1819</ele>
        <time>2015-08-23T11:20:32Z</time>
      </trkpt>
      <trkpt lat="45.38628" lon="6.7428">
        <ele>1819</ele>
        <time>2015-08-23T11:20:34Z</time>
      </trkpt>
      <trkpt lat="45.38627" lon="6.74278">
        <ele>1819</ele>
        <time>2015-08-23T11:20:38Z</time>
      </trkpt>
      <trkpt lat="45.38627" lon="6.74276">
        <ele>1819</ele>
        <time>2015-08-23T11:20:39Z</time>
      </trkpt>
      <trkpt lat="45.38624" lon="6.74278">
        <ele>1818</ele>
        <time>2015-08-23T11:20:40Z</time>
      </trkpt>
      <trkpt lat="45.38621" lon="6.74279">
        <ele>1817</ele>
        <time>2015-08-23T11:20:41Z</time>
      </trkpt>
      <trkpt lat="45.38617" lon="6.74278">
        <ele>1817</ele>
        <time>2015-08-23T11:20:43Z</time>
      </trkpt>
      <trkpt lat="45.38613" lon="6.74276">
        <ele>1815</ele>
        <time>2015-08-23T11:20:45Z</time>
      </trkpt>
      <trkpt lat="45.38609" lon="6.74272">
        <ele>1814</ele>
        <time>2015-08-23T11:20:47Z</time>
      </trkpt>
      <trkpt lat="45.38605" lon="6.74269">
        <ele>1813</ele>
        <time>2015-08-23T11:20:49Z</time>
      </trkpt>
      <trkpt lat="45.38601" lon="6.74267">
        <ele>1812</ele>
        <time>2015-08-23T11:20:51Z</time>
      </trkpt>
      <trkpt lat="45.38598" lon="6.74264">
        <ele>1810</ele>
        <time>2015-08-23T11:20:53Z</time>
      </trkpt>
      <trkpt lat="45.38595" lon="6.74269">
        <ele>1810</ele>
        <time>2015-08-23T11:20:59Z</time>
      </trkpt>
      <trkpt lat="45.38593" lon="6.74272">
        <ele>1811</ele>
        <time>2015-08-23T11:21:00Z</time>
      </trkpt>
      <trkpt lat="45.38592" lon="6.74276">
        <ele>1812</ele>
        <time>2015-08-23T11:21:01Z</time>
      </trkpt>
      <trkpt lat="45.3859" lon="6.7428">
        <ele>1812</ele>
        <time>2015-08-23T11:21:02Z</time>
      </trkpt>
      <trkpt lat="45.38588" lon="6.74283">
        <ele>1812</ele>
        <time>2015-08-23T11:21:03Z</time>
      </trkpt>
      <trkpt lat="45.38585" lon="6.74286">
        <ele>1813</ele>
        <time>2015-08-23T11:21:04Z</time>
      </trkpt>
      <trkpt lat="45.38582" lon="6.7429">
        <ele>1793</ele>
        <time>2015-08-23T11:21:05Z</time>
      </trkpt>
      <trkpt lat="45.3858" lon="6.74292">
        <ele>1793</ele>
        <time>2015-08-23T11:21:06Z</time>
      </trkpt>
      <trkpt lat="45.38575" lon="6.74289">
        <ele>1793</ele>
        <time>2015-08-23T11:21:20Z</time>
      </trkpt>
      <trkpt lat="45.38572" lon="6.74282">
        <ele>1792</ele>
        <time>2015-08-23T11:21:22Z</time>
      </trkpt>
      <trkpt lat="45.38571" lon="6.74277">
        <ele>1792</ele>
        <time>2015-08-23T11:21:23Z</time>
      </trkpt>
      <trkpt lat="45.3857" lon="6.74272">
        <ele>1792</ele>
        <time>2015-08-23T11:21:24Z</time>
      </trkpt>
      <trkpt lat="45.38569" lon="6.74267">
        <ele>1793</ele>
        <time>2015-08-23T11:21:25Z</time>
      </trkpt>
      <trkpt lat="45.38568" lon="6.74261">
        <ele>1793</ele>
        <time>2015-08-23T11:21:26Z</time>
      </trkpt>
      <trkpt lat="45.38567" lon="6.74256">
        <ele>1793</ele>
        <time>2015-08-23T11:21:27Z</time>
      </trkpt>
      <trkpt lat="45.38566" lon="6.7425">
        <ele>1790</ele>
        <time>2015-08-23T11:21:28Z</time>
      </trkpt>
      <trkpt lat="45.38565" lon="6.74244">
        <ele>1790</ele>
        <time>2015-08-23T11:21:29Z</time>
      </trkpt>
      <trkpt lat="45.38564" lon="6.7424">
        <ele>1789</ele>
        <time>2015-08-23T11:21:30Z</time>
      </trkpt>
      <trkpt lat="45.38563" lon="6.74235">
        <ele>1788</ele>
        <time>2015-08-23T11:21:31Z</time>
      </trkpt>
      <trkpt lat="45.38563" lon="6.7423">
        <ele>1788</ele>
        <time>2015-08-23T11:21:33Z</time>
      </trkpt>
      <trkpt lat="45.38564" lon="6.74225">
        <ele>1787</ele>
        <time>2015-08-23T11:21:35Z</time>
      </trkpt>
      <trkpt lat="45.38563" lon="6.74218">
        <ele>1786</ele>
        <time>2015-08-23T11:21:37Z</time>
      </trkpt>
      <trkpt lat="45.38561" lon="6.74215">
        <ele>1786</ele>
        <time>2015-08-23T11:21:38Z</time>
      </trkpt>
      <trkpt lat="45.38559" lon="6.74212">
        <ele>1786</ele>
        <time>2015-08-23T11:21:39Z</time>
      </trkpt>
      <trkpt lat="45.38557" lon="6.74208">
        <ele>1785</ele>
        <time>2015-08-23T11:21:40Z</time>
      </trkpt>
      <trkpt lat="45.38556" lon="6.74205">
        <ele>1785</ele>
        <time>2015-08-23T11:21:41Z</time>
      </trkpt>
      <trkpt lat="45.38555" lon="6.742">
        <ele>1785</ele>
        <time>2015-08-23T11:21:42Z</time>
      </trkpt>
      <trkpt lat="45.38554" lon="6.74196">
        <ele>1785</ele>
        <time>2015-08-23T11:21:43Z</time>
      </trkpt>
      <trkpt lat="45.38553" lon="6.74192">
        <ele>1784</ele>
        <time>2015-08-23T11:21:44Z</time>
      </trkpt>
      <trkpt lat="45.38552" lon="6.74187">
        <ele>1784</ele>
        <time>2015-08-23T11:21:45Z</time>
      </trkpt>
      <trkpt lat="45.38549" lon="6.7418">
        <ele>1784</ele>
        <time>2015-08-23T11:21:47Z</time>
      </trkpt>
      <trkpt lat="45.38548" lon="6.74177">
        <ele>1783</ele>
        <time>2015-08-23T11:21:48Z</time>
      </trkpt>
      <trkpt lat="45.38547" lon="6.74173">
        <ele>1783</ele>
        <time>2015-08-23T11:21:49Z</time>
      </trkpt>
      <trkpt lat="45.38545" lon="6.74169">
        <ele>1783</ele>
        <time>2015-08-23T11:21:50Z</time>
      </trkpt>
      <trkpt lat="45.38544" lon="6.74165">
        <ele>1782</ele>
        <time>2015-08-23T11:21:51Z</time>
      </trkpt>
      <trkpt lat="45.38542" lon="6.74162">
        <ele>1781</ele>
        <time>2015-08-23T11:21:52Z</time>
      </trkpt>
      <trkpt lat="45.3854" lon="6.74156">
        <ele>1781</ele>
        <time>2015-08-23T11:21:54Z</time>
      </trkpt>
      <trkpt lat="45.3854" lon="6.7415">
        <ele>1781</ele>
        <time>2015-08-23T11:21:56Z</time>
      </trkpt>
      <trkpt lat="45.3854" lon="6.74144">
        <ele>1781</ele>
        <time>2015-08-23T11:21:58Z</time>
      </trkpt>
      <trkpt lat="45.38541" lon="6.74138">
        <ele>1781</ele>
        <time>2015-08-23T11:22:00Z</time>
      </trkpt>
      <trkpt lat="45.3854" lon="6.74134">
        <ele>1781</ele>
        <time>2015-08-23T11:22:02Z</time>
      </trkpt>
      <trkpt lat="45.38539" lon="6.74129">
        <ele>1781</ele>
        <time>2015-08-23T11:22:04Z</time>
      </trkpt>
      <trkpt lat="45.38538" lon="6.74124">
        <ele>1781</ele>
        <time>2015-08-23T11:22:06Z</time>
      </trkpt>
      <trkpt lat="45.38537" lon="6.7412">
        <ele>1781</ele>
        <time>2015-08-23T11:22:08Z</time>
      </trkpt>
      <trkpt lat="45.38535" lon="6.74116">
        <ele>1780</ele>
        <time>2015-08-23T11:22:10Z</time>
      </trkpt>
      <trkpt lat="45.38532" lon="6.74113">
        <ele>1780</ele>
        <time>2015-08-23T11:22:12Z</time>
      </trkpt>
      <trkpt lat="45.38528" lon="6.74113">
        <ele>1779</ele>
        <time>2015-08-23T11:22:14Z</time>
      </trkpt>
      <trkpt lat="45.38526" lon="6.74113">
        <ele>1779</ele>
        <time>2015-08-23T11:22:16Z</time>
      </trkpt>
      <trkpt lat="45.38523" lon="6.7411">
        <ele>1778</ele>
        <time>2015-08-23T11:22:18Z</time>
      </trkpt>
      <trkpt lat="45.38524" lon="6.74106">
        <ele>1778</ele>
        <time>2015-08-23T11:22:20Z</time>
      </trkpt>
      <trkpt lat="45.38525" lon="6.74102">
        <ele>1778</ele>
        <time>2015-08-23T11:22:21Z</time>
      </trkpt>
      <trkpt lat="45.38524" lon="6.74098">
        <ele>1778</ele>
        <time>2015-08-23T11:22:22Z</time>
      </trkpt>
      <trkpt lat="45.38523" lon="6.74094">
        <ele>1777</ele>
        <time>2015-08-23T11:22:23Z</time>
      </trkpt>
      <trkpt lat="45.38521" lon="6.74089">
        <ele>1776</ele>
        <time>2015-08-23T11:22:24Z</time>
      </trkpt>
      <trkpt lat="45.38518" lon="6.74086">
        <ele>1775</ele>
        <time>2015-08-23T11:22:25Z</time>
      </trkpt>
      <trkpt lat="45.38515" lon="6.74082">
        <ele>1778</ele>
        <time>2015-08-23T11:22:26Z</time>
      </trkpt>
      <trkpt lat="45.38512" lon="6.74078">
        <ele>1777</ele>
        <time>2015-08-23T11:22:27Z</time>
      </trkpt>
      <trkpt lat="45.38509" lon="6.74075">
        <ele>1776</ele>
        <time>2015-08-23T11:22:28Z</time>
      </trkpt>
      <trkpt lat="45.38506" lon="6.74073">
        <ele>1776</ele>
        <time>2015-08-23T11:22:29Z</time>
      </trkpt>
      <trkpt lat="45.38504" lon="6.7407">
        <ele>1777</ele>
        <time>2015-08-23T11:22:30Z</time>
      </trkpt>
      <trkpt lat="45.38501" lon="6.74067">
        <ele>1778</ele>
        <time>2015-08-23T11:22:31Z</time>
      </trkpt>
      <trkpt lat="45.38499" lon="6.74065">
        <ele>1764</ele>
        <time>2015-08-23T11:22:32Z</time>
      </trkpt>
      <trkpt lat="45.38496" lon="6.74061">
        <ele>1763</ele>
        <time>2015-08-23T11:22:34Z</time>
      </trkpt>
      <trkpt lat="45.38493" lon="6.74059">
        <ele>1763</ele>
        <time>2015-08-23T11:22:36Z</time>
      </trkpt>
      <trkpt lat="45.38489" lon="6.74058">
        <ele>1763</ele>
        <time>2015-08-23T11:22:38Z</time>
      </trkpt>
      <trkpt lat="45.38485" lon="6.74061">
        <ele>1762</ele>
        <time>2015-08-23T11:22:40Z</time>
      </trkpt>
      <trkpt lat="45.38482" lon="6.74063">
        <ele>1762</ele>
        <time>2015-08-23T11:22:41Z</time>
      </trkpt>
      <trkpt lat="45.3848" lon="6.74066">
        <ele>1761</ele>
        <time>2015-08-23T11:22:42Z</time>
      </trkpt>
      <trkpt lat="45.38478" lon="6.74072">
        <ele>1761</ele>
        <time>2015-08-23T11:22:44Z</time>
      </trkpt>
      <trkpt lat="45.38478" lon="6.74066">
        <ele>1761</ele>
        <time>2015-08-23T11:22:51Z</time>
      </trkpt>
      <trkpt lat="45.38476" lon="6.74061">
        <ele>1761</ele>
        <time>2015-08-23T11:22:53Z</time>
      </trkpt>
      <trkpt lat="45.38475" lon="6.74054">
        <ele>1760</ele>
        <time>2015-08-23T11:22:55Z</time>
      </trkpt>
      <trkpt lat="45.38473" lon="6.7405">
        <ele>1760</ele>
        <time>2015-08-23T11:22:56Z</time>
      </trkpt>
      <trkpt lat="45.38471" lon="6.74046">
        <ele>1760</ele>
        <time>2015-08-23T11:22:57Z</time>
      </trkpt>
      <trkpt lat="45.38469" lon="6.74041">
        <ele>1760</ele>
        <time>2015-08-23T11:22:58Z</time>
      </trkpt>
      <trkpt lat="45.38467" lon="6.74038">
        <ele>1760</ele>
        <time>2015-08-23T11:22:59Z</time>
      </trkpt>
      <trkpt lat="45.38464" lon="6.74034">
        <ele>1759</ele>
        <time>2015-08-23T11:23:00Z</time>
      </trkpt>
      <trkpt lat="45.38461" lon="6.74031">
        <ele>1759</ele>
        <time>2015-08-23T11:23:01Z</time>
      </trkpt>
      <trkpt lat="45.38458" lon="6.74029">
        <ele>1758</ele>
        <time>2015-08-23T11:23:02Z</time>
      </trkpt>
      <trkpt lat="45.38455" lon="6.74028">
        <ele>1758</ele>
        <time>2015-08-23T11:23:03Z</time>
      </trkpt>
      <trkpt lat="45.38452" lon="6.74029">
        <ele>1757</ele>
        <time>2015-08-23T11:23:04Z</time>
      </trkpt>
      <trkpt lat="45.38448" lon="6.7403">
        <ele>1756</ele>
        <time>2015-08-23T11:23:05Z</time>
      </trkpt>
      <trkpt lat="45.38445" lon="6.74031">
        <ele>1756</ele>
        <time>2015-08-23T11:23:06Z</time>
      </trkpt>
      <trkpt lat="45.38442" lon="6.74031">
        <ele>1755</ele>
        <time>2015-08-23T11:23:07Z</time>
      </trkpt>
      <trkpt lat="45.38439" lon="6.74031">
        <ele>1755</ele>
        <time>2015-08-23T11:23:08Z</time>
      </trkpt>
      <trkpt lat="45.38435" lon="6.74032">
        <ele>1754</ele>
        <time>2015-08-23T11:23:09Z</time>
      </trkpt>
      <trkpt lat="45.38432" lon="6.74032">
        <ele>1754</ele>
        <time>2015-08-23T11:23:10Z</time>
      </trkpt>
      <trkpt lat="45.38429" lon="6.74032">
        <ele>1753</ele>
        <time>2015-08-23T11:23:12Z</time>
      </trkpt>
      <trkpt lat="45.38422" lon="6.74027">
        <ele>1752</ele>
        <time>2015-08-23T11:23:14Z</time>
      </trkpt>
      <trkpt lat="45.38419" lon="6.74021">
        <ele>1751</ele>
        <time>2015-08-23T11:23:16Z</time>
      </trkpt>
      <trkpt lat="45.38416" lon="6.74016">
        <ele>1738</ele>
        <time>2015-08-23T11:23:19Z</time>
      </trkpt>
      <trkpt lat="45.38413" lon="6.7401">
        <ele>1739</ele>
        <time>2015-08-23T11:23:20Z</time>
      </trkpt>
      <trkpt lat="45.3841" lon="6.74005">
        <ele>1740</ele>
        <time>2015-08-23T11:23:22Z</time>
      </trkpt>
      <trkpt lat="45.38408" lon="6.74">
        <ele>1739</ele>
        <time>2015-08-23T11:23:24Z</time>
      </trkpt>
      <trkpt lat="45.38406" lon="6.73995">
        <ele>1737</ele>
        <time>2015-08-23T11:23:26Z</time>
      </trkpt>
      <trkpt lat="45.38403" lon="6.73989">
        <ele>1735</ele>
        <time>2015-08-23T11:23:28Z</time>
      </trkpt>
      <trkpt lat="45.38401" lon="6.73983">
        <ele>1734</ele>
        <time>2015-08-23T11:23:30Z</time>
      </trkpt>
      <trkpt lat="45.38398" lon="6.73978">
        <ele>1733</ele>
        <time>2015-08-23T11:23:32Z</time>
      </trkpt>
      <trkpt lat="45.38395" lon="6.73974">
        <ele>1732</ele>
        <time>2015-08-23T11:23:34Z</time>
      </trkpt>
      <trkpt lat="45.38394" lon="6.73968">
        <ele>1731</ele>
        <time>2015-08-23T11:23:36Z</time>
      </trkpt>
      <trkpt lat="45.38391" lon="6.73963">
        <ele>1731</ele>
        <time>2015-08-23T11:23:38Z</time>
      </trkpt>
      <trkpt lat="45.3839" lon="6.73958">
        <ele>1730</ele>
        <time>2015-08-23T11:23:40Z</time>
      </trkpt>
      <trkpt lat="45.38389" lon="6.73955">
        <ele>1730</ele>
        <time>2015-08-23T11:23:42Z</time>
      </trkpt>
      <trkpt lat="45.38387" lon="6.73951">
        <ele>1730</ele>
        <time>2015-08-23T11:23:44Z</time>
      </trkpt>
      <trkpt lat="45.38385" lon="6.73947">
        <ele>1729</ele>
        <time>2015-08-23T11:23:46Z</time>
      </trkpt>
      <trkpt lat="45.38381" lon="6.73945">
        <ele>1729</ele>
        <time>2015-08-23T11:23:49Z</time>
      </trkpt>
      <trkpt lat="45.38379" lon="6.73943">
        <ele>1728</ele>
        <time>2015-08-23T11:23:51Z</time>
      </trkpt>
      <trkpt lat="45.38376" lon="6.7394">
        <ele>1728</ele>
        <time>2015-08-23T11:23:54Z</time>
      </trkpt>
      <trkpt lat="45.38374" lon="6.73937">
        <ele>1727</ele>
        <time>2015-08-23T11:23:56Z</time>
      </trkpt>
      <trkpt lat="45.38373" lon="6.73931">
        <ele>1727</ele>
        <time>2015-08-23T11:23:58Z</time>
      </trkpt>
      <trkpt lat="45.38372" lon="6.73927">
        <ele>1727</ele>
        <time>2015-08-23T11:23:59Z</time>
      </trkpt>
      <trkpt lat="45.38372" lon="6.73923">
        <ele>1726</ele>
        <time>2015-08-23T11:24:00Z</time>
      </trkpt>
      <trkpt lat="45.3837" lon="6.73916">
        <ele>1726</ele>
        <time>2015-08-23T11:24:02Z</time>
      </trkpt>
      <trkpt lat="45.38369" lon="6.73905">
        <ele>1726</ele>
        <time>2015-08-23T11:24:05Z</time>
      </trkpt>
      <trkpt lat="45.38368" lon="6.739">
        <ele>1726</ele>
        <time>2015-08-23T11:24:06Z</time>
      </trkpt>
      <trkpt lat="45.38367" lon="6.73893">
        <ele>1726</ele>
        <time>2015-08-23T11:24:08Z</time>
      </trkpt>
      <trkpt lat="45.38366" lon="6.73888">
        <ele>1726</ele>
        <time>2015-08-23T11:24:10Z</time>
      </trkpt>
      <trkpt lat="45.38366" lon="6.73883">
        <ele>1727</ele>
        <time>2015-08-23T11:24:12Z</time>
      </trkpt>
      <trkpt lat="45.38366" lon="6.73879">
        <ele>1727</ele>
        <time>2015-08-23T11:24:13Z</time>
      </trkpt>
      <trkpt lat="45.38366" lon="6.73874">
        <ele>1727</ele>
        <time>2015-08-23T11:24:14Z</time>
      </trkpt>
      <trkpt lat="45.38366" lon="6.73869">
        <ele>1727</ele>
        <time>2015-08-23T11:24:15Z</time>
      </trkpt>
      <trkpt lat="45.38365" lon="6.73865">
        <ele>1727</ele>
        <time>2015-08-23T11:24:16Z</time>
      </trkpt>
      <trkpt lat="45.38363" lon="6.7386">
        <ele>1726</ele>
        <time>2015-08-23T11:24:18Z</time>
      </trkpt>
      <trkpt lat="45.38359" lon="6.73856">
        <ele>1725</ele>
        <time>2015-08-23T11:24:20Z</time>
      </trkpt>
      <trkpt lat="45.38355" lon="6.73853">
        <ele>1724</ele>
        <time>2015-08-23T11:24:22Z</time>
      </trkpt>
      <trkpt lat="45.38352" lon="6.73847">
        <ele>1723</ele>
        <time>2015-08-23T11:24:24Z</time>
      </trkpt>
      <trkpt lat="45.3835" lon="6.73844">
        <ele>1722</ele>
        <time>2015-08-23T11:24:25Z</time>
      </trkpt>
      <trkpt lat="45.38348" lon="6.73838">
        <ele>1720</ele>
        <time>2015-08-23T11:24:27Z</time>
      </trkpt>
      <trkpt lat="45.38345" lon="6.73831">
        <ele>1721</ele>
        <time>2015-08-23T11:24:29Z</time>
      </trkpt>
      <trkpt lat="45.38344" lon="6.73828">
        <ele>1721</ele>
        <time>2015-08-23T11:24:30Z</time>
      </trkpt>
      <trkpt lat="45.38342" lon="6.73824">
        <ele>1722</ele>
        <time>2015-08-23T11:24:31Z</time>
      </trkpt>
      <trkpt lat="45.3834" lon="6.73821">
        <ele>1723</ele>
        <time>2015-08-23T11:24:32Z</time>
      </trkpt>
      <trkpt lat="45.38338" lon="6.73815">
        <ele>1724</ele>
        <time>2015-08-23T11:24:34Z</time>
      </trkpt>
      <trkpt lat="45.38335" lon="6.73809">
        <ele>1726</ele>
        <time>2015-08-23T11:24:36Z</time>
      </trkpt>
      <trkpt lat="45.38332" lon="6.73804">
        <ele>1707</ele>
        <time>2015-08-23T11:24:38Z</time>
      </trkpt>
      <trkpt lat="45.38329" lon="6.738">
        <ele>1706</ele>
        <time>2015-08-23T11:24:40Z</time>
      </trkpt>
      <trkpt lat="45.38326" lon="6.73798">
        <ele>1706</ele>
        <time>2015-08-23T11:24:42Z</time>
      </trkpt>
      <trkpt lat="45.38322" lon="6.73797">
        <ele>1706</ele>
        <time>2015-08-23T11:24:44Z</time>
      </trkpt>
      <trkpt lat="45.3832" lon="6.73792">
        <ele>1706</ele>
        <time>2015-08-23T11:24:46Z</time>
      </trkpt>
      <trkpt lat="45.38318" lon="6.73789">
        <ele>1706</ele>
        <time>2015-08-23T11:24:47Z</time>
      </trkpt>
      <trkpt lat="45.38316" lon="6.73786">
        <ele>1705</ele>
        <time>2015-08-23T11:24:48Z</time>
      </trkpt>
      <trkpt lat="45.38314" lon="6.73783">
        <ele>1705</ele>
        <time>2015-08-23T11:24:49Z</time>
      </trkpt>
      <trkpt lat="45.38312" lon="6.7378">
        <ele>1705</ele>
        <time>2015-08-23T11:24:50Z</time>
      </trkpt>
      <trkpt lat="45.38308" lon="6.73775">
        <ele>1705</ele>
        <time>2015-08-23T11:24:52Z</time>
      </trkpt>
      <trkpt lat="45.38305" lon="6.7377">
        <ele>1704</ele>
        <time>2015-08-23T11:24:54Z</time>
      </trkpt>
      <trkpt lat="45.38303" lon="6.73767">
        <ele>1704</ele>
        <time>2015-08-23T11:24:55Z</time>
      </trkpt>
      <trkpt lat="45.383" lon="6.73764">
        <ele>1703</ele>
        <time>2015-08-23T11:24:56Z</time>
      </trkpt>
      <trkpt lat="45.38297" lon="6.73762">
        <ele>1703</ele>
        <time>2015-08-23T11:24:57Z</time>
      </trkpt>
      <trkpt lat="45.38294" lon="6.7376">
        <ele>1702</ele>
        <time>2015-08-23T11:24:58Z</time>
      </trkpt>
      <trkpt lat="45.38291" lon="6.73759">
        <ele>1701</ele>
        <time>2015-08-23T11:24:59Z</time>
      </trkpt>
      <trkpt lat="45.38288" lon="6.73758">
        <ele>1699</ele>
        <time>2015-08-23T11:25:00Z</time>
      </trkpt>
      <trkpt lat="45.38284" lon="6.73757">
        <ele>1698</ele>
        <time>2015-08-23T11:25:01Z</time>
      </trkpt>
      <trkpt lat="45.38281" lon="6.73756">
        <ele>1697</ele>
        <time>2015-08-23T11:25:02Z</time>
      </trkpt>
      <trkpt lat="45.38278" lon="6.73755">
        <ele>1696</ele>
        <time>2015-08-23T11:25:03Z</time>
      </trkpt>
      <trkpt lat="45.38275" lon="6.73754">
        <ele>1695</ele>
        <time>2015-08-23T11:25:04Z</time>
      </trkpt>
      <trkpt lat="45.38272" lon="6.73752">
        <ele>1694</ele>
        <time>2015-08-23T11:25:05Z</time>
      </trkpt>
      <trkpt lat="45.38269" lon="6.73751">
        <ele>1692</ele>
        <time>2015-08-23T11:25:06Z</time>
      </trkpt>
      <trkpt lat="45.38266" lon="6.73748">
        <ele>1693</ele>
        <time>2015-08-23T11:25:08Z</time>
      </trkpt>
      <trkpt lat="45.38265" lon="6.73743">
        <ele>1693</ele>
        <time>2015-08-23T11:25:10Z</time>
      </trkpt>
      <trkpt lat="45.38265" lon="6.73738">
        <ele>1694</ele>
        <time>2015-08-23T11:25:12Z</time>
      </trkpt>
      <trkpt lat="45.38265" lon="6.73733">
        <ele>1696</ele>
        <time>2015-08-23T11:25:14Z</time>
      </trkpt>
      <trkpt lat="45.38264" lon="6.73728">
        <ele>1697</ele>
        <time>2015-08-23T11:25:16Z</time>
      </trkpt>
      <trkpt lat="45.3826" lon="6.73723">
        <ele>1697</ele>
        <time>2015-08-23T11:25:18Z</time>
      </trkpt>
      <trkpt lat="45.38258" lon="6.73719">
        <ele>1698</ele>
        <time>2015-08-23T11:25:19Z</time>
      </trkpt>
      <trkpt lat="45.38256" lon="6.73716">
        <ele>1698</ele>
        <time>2015-08-23T11:25:20Z</time>
      </trkpt>
      <trkpt lat="45.38253" lon="6.73713">
        <ele>1698</ele>
        <time>2015-08-23T11:25:21Z</time>
      </trkpt>
      <trkpt lat="45.3825" lon="6.73711">
        <ele>1698</ele>
        <time>2015-08-23T11:25:22Z</time>
      </trkpt>
      <trkpt lat="45.38248" lon="6.73708">
        <ele>1681</ele>
        <time>2015-08-23T11:25:23Z</time>
      </trkpt>
      <trkpt lat="45.38246" lon="6.73705">
        <ele>1681</ele>
        <time>2015-08-23T11:25:24Z</time>
      </trkpt>
      <trkpt lat="45.38245" lon="6.73701">
        <ele>1681</ele>
        <time>2015-08-23T11:25:25Z</time>
      </trkpt>
      <trkpt lat="45.38243" lon="6.73698">
        <ele>1682</ele>
        <time>2015-08-23T11:25:26Z</time>
      </trkpt>
      <trkpt lat="45.38241" lon="6.73692">
        <ele>1682</ele>
        <time>2015-08-23T11:25:28Z</time>
      </trkpt>
      <trkpt lat="45.38239" lon="6.73687">
        <ele>1683</ele>
        <time>2015-08-23T11:25:30Z</time>
      </trkpt>
      <trkpt lat="45.38236" lon="6.73682">
        <ele>1683</ele>
        <time>2015-08-23T11:25:32Z</time>
      </trkpt>
      <trkpt lat="45.38233" lon="6.73676">
        <ele>1683</ele>
        <time>2015-08-23T11:25:34Z</time>
      </trkpt>
      <trkpt lat="45.38228" lon="6.73673">
        <ele>1682</ele>
        <time>2015-08-23T11:25:36Z</time>
      </trkpt>
      <trkpt lat="45.38226" lon="6.73672">
        <ele>1682</ele>
        <time>2015-08-23T11:25:37Z</time>
      </trkpt>
      <trkpt lat="45.38221" lon="6.73672">
        <ele>1681</ele>
        <time>2015-08-23T11:25:39Z</time>
      </trkpt>
      <trkpt lat="45.38218" lon="6.7367">
        <ele>1681</ele>
        <time>2015-08-23T11:25:41Z</time>
      </trkpt>
      <trkpt lat="45.38217" lon="6.73667">
        <ele>1682</ele>
        <time>2015-08-23T11:25:44Z</time>
      </trkpt>
      <trkpt lat="45.38217" lon="6.73662">
        <ele>1682</ele>
        <time>2015-08-23T11:25:45Z</time>
      </trkpt>
      <trkpt lat="45.38217" lon="6.73658">
        <ele>1682</ele>
        <time>2015-08-23T11:25:47Z</time>
      </trkpt>
      <trkpt lat="45.38216" lon="6.73653">
        <ele>1682</ele>
        <time>2015-08-23T11:25:49Z</time>
      </trkpt>
      <trkpt lat="45.38213" lon="6.73649">
        <ele>1681</ele>
        <time>2015-08-23T11:25:51Z</time>
      </trkpt>
      <trkpt lat="45.38209" lon="6.73645">
        <ele>1680</ele>
        <time>2015-08-23T11:25:53Z</time>
      </trkpt>
      <trkpt lat="45.38207" lon="6.73642">
        <ele>1680</ele>
        <time>2015-08-23T11:25:54Z</time>
      </trkpt>
      <trkpt lat="45.38204" lon="6.73639">
        <ele>1680</ele>
        <time>2015-08-23T11:25:55Z</time>
      </trkpt>
      <trkpt lat="45.38202" lon="6.73636">
        <ele>1679</ele>
        <time>2015-08-23T11:25:56Z</time>
      </trkpt>
      <trkpt lat="45.382" lon="6.73633">
        <ele>1679</ele>
        <time>2015-08-23T11:25:57Z</time>
      </trkpt>
      <trkpt lat="45.38198" lon="6.7363">
        <ele>1679</ele>
        <time>2015-08-23T11:25:58Z</time>
      </trkpt>
      <trkpt lat="45.38196" lon="6.73627">
        <ele>1679</ele>
        <time>2015-08-23T11:25:59Z</time>
      </trkpt>
      <trkpt lat="45.38193" lon="6.73621">
        <ele>1678</ele>
        <time>2015-08-23T11:26:01Z</time>
      </trkpt>
      <trkpt lat="45.38189" lon="6.73617">
        <ele>1677</ele>
        <time>2015-08-23T11:26:03Z</time>
      </trkpt>
      <trkpt lat="45.38186" lon="6.73614">
        <ele>1677</ele>
        <time>2015-08-23T11:26:05Z</time>
      </trkpt>
      <trkpt lat="45.38184" lon="6.73611">
        <ele>1676</ele>
        <time>2015-08-23T11:26:07Z</time>
      </trkpt>
      <trkpt lat="45.38185" lon="6.73606">
        <ele>1676</ele>
        <time>2015-08-23T11:26:09Z</time>
      </trkpt>
      <trkpt lat="45.38184" lon="6.73601">
        <ele>1675</ele>
        <time>2015-08-23T11:26:11Z</time>
      </trkpt>
      <trkpt lat="45.38184" lon="6.73594">
        <ele>1674</ele>
        <time>2015-08-23T11:26:13Z</time>
      </trkpt>
      <trkpt lat="45.38183" lon="6.73589">
        <ele>1673</ele>
        <time>2015-08-23T11:26:14Z</time>
      </trkpt>
      <trkpt lat="45.38181" lon="6.73584">
        <ele>1672</ele>
        <time>2015-08-23T11:26:15Z</time>
      </trkpt>
      <trkpt lat="45.3818" lon="6.73579">
        <ele>1672</ele>
        <time>2015-08-23T11:26:16Z</time>
      </trkpt>
      <trkpt lat="45.38178" lon="6.73574">
        <ele>1672</ele>
        <time>2015-08-23T11:26:17Z</time>
      </trkpt>
      <trkpt lat="45.38177" lon="6.73569">
        <ele>1673</ele>
        <time>2015-08-23T11:26:18Z</time>
      </trkpt>
      <trkpt lat="45.38176" lon="6.73564">
        <ele>1674</ele>
        <time>2015-08-23T11:26:19Z</time>
      </trkpt>
      <trkpt lat="45.38175" lon="6.73559">
        <ele>1674</ele>
        <time>2015-08-23T11:26:20Z</time>
      </trkpt>
      <trkpt lat="45.38173" lon="6.73555">
        <ele>1675</ele>
        <time>2015-08-23T11:26:21Z</time>
      </trkpt>
      <trkpt lat="45.38172" lon="6.73551">
        <ele>1675</ele>
        <time>2015-08-23T11:26:22Z</time>
      </trkpt>
      <trkpt lat="45.38171" lon="6.73547">
        <ele>1675</ele>
        <time>2015-08-23T11:26:23Z</time>
      </trkpt>
      <trkpt lat="45.38168" lon="6.73541">
        <ele>1675</ele>
        <time>2015-08-23T11:26:25Z</time>
      </trkpt>
      <trkpt lat="45.38166" lon="6.73536">
        <ele>1656</ele>
        <time>2015-08-23T11:26:27Z</time>
      </trkpt>
      <trkpt lat="45.38163" lon="6.7353">
        <ele>1656</ele>
        <time>2015-08-23T11:26:29Z</time>
      </trkpt>
      <trkpt lat="45.3816" lon="6.73527">
        <ele>1656</ele>
        <time>2015-08-23T11:26:30Z</time>
      </trkpt>
      <trkpt lat="45.38158" lon="6.73524">
        <ele>1656</ele>
        <time>2015-08-23T11:26:31Z</time>
      </trkpt>
      <trkpt lat="45.38156" lon="6.73522">
        <ele>1656</ele>
        <time>2015-08-23T11:26:32Z</time>
      </trkpt>
      <trkpt lat="45.38154" lon="6.73519">
        <ele>1656</ele>
        <time>2015-08-23T11:26:33Z</time>
      </trkpt>
      <trkpt lat="45.38151" lon="6.73517">
        <ele>1656</ele>
        <time>2015-08-23T11:26:34Z</time>
      </trkpt>
      <trkpt lat="45.38149" lon="6.73515">
        <ele>1656</ele>
        <time>2015-08-23T11:26:35Z</time>
      </trkpt>
      <trkpt lat="45.38144" lon="6.73511">
        <ele>1655</ele>
        <time>2015-08-23T11:26:37Z</time>
      </trkpt>
      <trkpt lat="45.3814" lon="6.73508">
        <ele>1654</ele>
        <time>2015-08-23T11:26:39Z</time>
      </trkpt>
      <trkpt lat="45.38135" lon="6.73505">
        <ele>1653</ele>
        <time>2015-08-23T11:26:41Z</time>
      </trkpt>
      <trkpt lat="45.38132" lon="6.73504">
        <ele>1653</ele>
        <time>2015-08-23T11:26:42Z</time>
      </trkpt>
      <trkpt lat="45.38129" lon="6.73502">
        <ele>1652</ele>
        <time>2015-08-23T11:26:43Z</time>
      </trkpt>
      <trkpt lat="45.38126" lon="6.735">
        <ele>1651</ele>
        <time>2015-08-23T11:26:44Z</time>
      </trkpt>
      <trkpt lat="45.38124" lon="6.73498">
        <ele>1650</ele>
        <time>2015-08-23T11:26:45Z</time>
      </trkpt>
      <trkpt lat="45.38121" lon="6.73496">
        <ele>1650</ele>
        <time>2015-08-23T11:26:46Z</time>
      </trkpt>
      <trkpt lat="45.38119" lon="6.73494">
        <ele>1649</ele>
        <time>2015-08-23T11:26:47Z</time>
      </trkpt>
      <trkpt lat="45.38116" lon="6.73492">
        <ele>1648</ele>
        <time>2015-08-23T11:26:48Z</time>
      </trkpt>
      <trkpt lat="45.38114" lon="6.7349">
        <ele>1648</ele>
        <time>2015-08-23T11:26:49Z</time>
      </trkpt>
      <trkpt lat="45.38111" lon="6.73488">
        <ele>1647</ele>
        <time>2015-08-23T11:26:50Z</time>
      </trkpt>
      <trkpt lat="45.38109" lon="6.73485">
        <ele>1647</ele>
        <time>2015-08-23T11:26:51Z</time>
      </trkpt>
      <trkpt lat="45.38106" lon="6.73482">
        <ele>1647</ele>
        <time>2015-08-23T11:26:52Z</time>
      </trkpt>
      <trkpt lat="45.38104" lon="6.7348">
        <ele>1646</ele>
        <time>2015-08-23T11:26:53Z</time>
      </trkpt>
      <trkpt lat="45.38102" lon="6.73473">
        <ele>1647</ele>
        <time>2015-08-23T11:26:55Z</time>
      </trkpt>
      <trkpt lat="45.38101" lon="6.73466">
        <ele>1647</ele>
        <time>2015-08-23T11:26:57Z</time>
      </trkpt>
      <trkpt lat="45.38101" lon="6.7346">
        <ele>1647</ele>
        <time>2015-08-23T11:26:59Z</time>
      </trkpt>
      <trkpt lat="45.38106" lon="6.73458">
        <ele>1648</ele>
        <time>2015-08-23T11:27:04Z</time>
      </trkpt>
      <trkpt lat="45.38102" lon="6.73451">
        <ele>1647</ele>
        <time>2015-08-23T11:27:16Z</time>
      </trkpt>
      <trkpt lat="45.38098" lon="6.73443">
        <ele>1645</ele>
        <time>2015-08-23T11:27:18Z</time>
      </trkpt>
      <trkpt lat="45.38096" lon="6.73438">
        <ele>1644</ele>
        <time>2015-08-23T11:27:19Z</time>
      </trkpt>
      <trkpt lat="45.38094" lon="6.73433">
        <ele>1643</ele>
        <time>2015-08-23T11:27:20Z</time>
      </trkpt>
      <trkpt lat="45.38092" lon="6.73428">
        <ele>1641</ele>
        <time>2015-08-23T11:27:21Z</time>
      </trkpt>
      <trkpt lat="45.3809" lon="6.73424">
        <ele>1639</ele>
        <time>2015-08-23T11:27:22Z</time>
      </trkpt>
      <trkpt lat="45.38088" lon="6.7342">
        <ele>1636</ele>
        <time>2015-08-23T11:27:23Z</time>
      </trkpt>
      <trkpt lat="45.38087" lon="6.73417">
        <ele>1635</ele>
        <time>2015-08-23T11:27:24Z</time>
      </trkpt>
      <trkpt lat="45.38083" lon="6.73412">
        <ele>1631</ele>
        <time>2015-08-23T11:27:27Z</time>
      </trkpt>
      <trkpt lat="45.3808" lon="6.7341">
        <ele>1630</ele>
        <time>2015-08-23T11:27:28Z</time>
      </trkpt>
      <trkpt lat="45.38076" lon="6.7341">
        <ele>1630</ele>
        <time>2015-08-23T11:27:30Z</time>
      </trkpt>
      <trkpt lat="45.38072" lon="6.7341">
        <ele>1629</ele>
        <time>2015-08-23T11:27:32Z</time>
      </trkpt>
      <trkpt lat="45.3807" lon="6.73407">
        <ele>1628</ele>
        <time>2015-08-23T11:27:34Z</time>
      </trkpt>
      <trkpt lat="45.38066" lon="6.73406">
        <ele>1628</ele>
        <time>2015-08-23T11:27:36Z</time>
      </trkpt>
      <trkpt lat="45.38063" lon="6.73404">
        <ele>1627</ele>
        <time>2015-08-23T11:27:38Z</time>
      </trkpt>
      <trkpt lat="45.3806" lon="6.73402">
        <ele>1627</ele>
        <time>2015-08-23T11:27:40Z</time>
      </trkpt>
      <trkpt lat="45.38058" lon="6.734">
        <ele>1626</ele>
        <time>2015-08-23T11:27:42Z</time>
      </trkpt>
      <trkpt lat="45.38056" lon="6.73395">
        <ele>1626</ele>
        <time>2015-08-23T11:27:44Z</time>
      </trkpt>
      <trkpt lat="45.38056" lon="6.73391">
        <ele>1626</ele>
        <time>2015-08-23T11:27:46Z</time>
      </trkpt>
      <trkpt lat="45.38056" lon="6.73387">
        <ele>1626</ele>
        <time>2015-08-23T11:27:48Z</time>
      </trkpt>
      <trkpt lat="45.38056" lon="6.73383">
        <ele>1626</ele>
        <time>2015-08-23T11:27:50Z</time>
      </trkpt>
      <trkpt lat="45.38055" lon="6.73378">
        <ele>1626</ele>
        <time>2015-08-23T11:27:52Z</time>
      </trkpt>
      <trkpt lat="45.38054" lon="6.73373">
        <ele>1626</ele>
        <time>2015-08-23T11:27:54Z</time>
      </trkpt>
      <trkpt lat="45.38053" lon="6.7337">
        <ele>1626</ele>
        <time>2015-08-23T11:27:56Z</time>
      </trkpt>
      <trkpt lat="45.3805" lon="6.73366">
        <ele>1625</ele>
        <time>2015-08-23T11:27:59Z</time>
      </trkpt>
      <trkpt lat="45.38047" lon="6.73362">
        <ele>1625</ele>
        <time>2015-08-23T11:28:01Z</time>
      </trkpt>
      <trkpt lat="45.38046" lon="6.73358">
        <ele>1625</ele>
        <time>2015-08-23T11:28:02Z</time>
      </trkpt>
      <trkpt lat="45.38045" lon="6.73354">
        <ele>1625</ele>
        <time>2015-08-23T11:28:03Z</time>
      </trkpt>
      <trkpt lat="45.38043" lon="6.7335">
        <ele>1625</ele>
        <time>2015-08-23T11:28:04Z</time>
      </trkpt>
      <trkpt lat="45.38041" lon="6.73345">
        <ele>1624</ele>
        <time>2015-08-23T11:28:05Z</time>
      </trkpt>
      <trkpt lat="45.38039" lon="6.73341">
        <ele>1624</ele>
        <time>2015-08-23T11:28:06Z</time>
      </trkpt>
      <trkpt lat="45.38037" lon="6.73338">
        <ele>1623</ele>
        <time>2015-08-23T11:28:07Z</time>
      </trkpt>
      <trkpt lat="45.38035" lon="6.73334">
        <ele>1622</ele>
        <time>2015-08-23T11:28:08Z</time>
      </trkpt>
      <trkpt lat="45.38034" lon="6.73332">
        <ele>1621</ele>
        <time>2015-08-23T11:28:10Z</time>
      </trkpt>
      <trkpt lat="45.38031" lon="6.73327">
        <ele>1620</ele>
        <time>2015-08-23T11:28:11Z</time>
      </trkpt>
      <trkpt lat="45.38028" lon="6.73324">
        <ele>1619</ele>
        <time>2015-08-23T11:28:13Z</time>
      </trkpt>
      <trkpt lat="45.38026" lon="6.7332">
        <ele>1619</ele>
        <time>2015-08-23T11:28:15Z</time>
      </trkpt>
      <trkpt lat="45.38024" lon="6.73315">
        <ele>1618</ele>
        <time>2015-08-23T11:28:17Z</time>
      </trkpt>
      <trkpt lat="45.38022" lon="6.7331">
        <ele>1618</ele>
        <time>2015-08-23T11:28:19Z</time>
      </trkpt>
      <trkpt lat="45.3802" lon="6.73303">
        <ele>1618</ele>
        <time>2015-08-23T11:28:21Z</time>
      </trkpt>
      <trkpt lat="45.38019" lon="6.73299">
        <ele>1618</ele>
        <time>2015-08-23T11:28:22Z</time>
      </trkpt>
      <trkpt lat="45.38018" lon="6.73295">
        <ele>1617</ele>
        <time>2015-08-23T11:28:23Z</time>
      </trkpt>
      <trkpt lat="45.38017" lon="6.73292">
        <ele>1617</ele>
        <time>2015-08-23T11:28:24Z</time>
      </trkpt>
      <trkpt lat="45.38015" lon="6.73284">
        <ele>1616</ele>
        <time>2015-08-23T11:28:26Z</time>
      </trkpt>
      <trkpt lat="45.38014" lon="6.73281">
        <ele>1616</ele>
        <time>2015-08-23T11:28:27Z</time>
      </trkpt>
      <trkpt lat="45.38012" lon="6.73275">
        <ele>1614</ele>
        <time>2015-08-23T11:28:29Z</time>
      </trkpt>
      <trkpt lat="45.38011" lon="6.73269">
        <ele>1612</ele>
        <time>2015-08-23T11:28:31Z</time>
      </trkpt>
      <trkpt lat="45.38009" lon="6.73264">
        <ele>1611</ele>
        <time>2015-08-23T11:28:33Z</time>
      </trkpt>
      <trkpt lat="45.38007" lon="6.73259">
        <ele>1608</ele>
        <time>2015-08-23T11:28:35Z</time>
      </trkpt>
      <trkpt lat="45.38006" lon="6.73254">
        <ele>1605</ele>
        <time>2015-08-23T11:28:37Z</time>
      </trkpt>
      <trkpt lat="45.38004" lon="6.73248">
        <ele>1603</ele>
        <time>2015-08-23T11:28:39Z</time>
      </trkpt>
      <trkpt lat="45.38004" lon="6.73241">
        <ele>1605</ele>
        <time>2015-08-23T11:28:41Z</time>
      </trkpt>
      <trkpt lat="45.38004" lon="6.73236">
        <ele>1607</ele>
        <time>2015-08-23T11:28:42Z</time>
      </trkpt>
      <trkpt lat="45.38004" lon="6.73231">
        <ele>1608</ele>
        <time>2015-08-23T11:28:43Z</time>
      </trkpt>
      <trkpt lat="45.38003" lon="6.73226">
        <ele>1609</ele>
        <time>2015-08-23T11:28:44Z</time>
      </trkpt>
      <trkpt lat="45.38002" lon="6.73221">
        <ele>1609</ele>
        <time>2015-08-23T11:28:45Z</time>
      </trkpt>
      <trkpt lat="45.38001" lon="6.73215">
        <ele>1609</ele>
        <time>2015-08-23T11:28:46Z</time>
      </trkpt>
      <trkpt lat="45.37999" lon="6.7321">
        <ele>1590</ele>
        <time>2015-08-23T11:28:47Z</time>
      </trkpt>
      <trkpt lat="45.37997" lon="6.73204">
        <ele>1590</ele>
        <time>2015-08-23T11:28:48Z</time>
      </trkpt>
      <trkpt lat="45.37996" lon="6.732">
        <ele>1590</ele>
        <time>2015-08-23T11:28:49Z</time>
      </trkpt>
      <trkpt lat="45.37994" lon="6.73196">
        <ele>1590</ele>
        <time>2015-08-23T11:28:50Z</time>
      </trkpt>
      <trkpt lat="45.37991" lon="6.73192">
        <ele>1590</ele>
        <time>2015-08-23T11:28:51Z</time>
      </trkpt>
      <trkpt lat="45.37988" lon="6.73188">
        <ele>1590</ele>
        <time>2015-08-23T11:28:52Z</time>
      </trkpt>
      <trkpt lat="45.37985" lon="6.73184">
        <ele>1589</ele>
        <time>2015-08-23T11:28:53Z</time>
      </trkpt>
      <trkpt lat="45.37982" lon="6.73181">
        <ele>1589</ele>
        <time>2015-08-23T11:28:54Z</time>
      </trkpt>
      <trkpt lat="45.3798" lon="6.73177">
        <ele>1589</ele>
        <time>2015-08-23T11:28:55Z</time>
      </trkpt>
      <trkpt lat="45.37977" lon="6.73174">
        <ele>1588</ele>
        <time>2015-08-23T11:28:56Z</time>
      </trkpt>
      <trkpt lat="45.37974" lon="6.73171">
        <ele>1588</ele>
        <time>2015-08-23T11:28:57Z</time>
      </trkpt>
      <trkpt lat="45.3797" lon="6.73168">
        <ele>1587</ele>
        <time>2015-08-23T11:28:58Z</time>
      </trkpt>
      <trkpt lat="45.37968" lon="6.73166">
        <ele>1584</ele>
        <time>2015-08-23T11:28:59Z</time>
      </trkpt>
      <trkpt lat="45.37965" lon="6.73163">
        <ele>1583</ele>
        <time>2015-08-23T11:29:00Z</time>
      </trkpt>
      <trkpt lat="45.37963" lon="6.7316">
        <ele>1583</ele>
        <time>2015-08-23T11:29:01Z</time>
      </trkpt>
      <trkpt lat="45.37961" lon="6.73157">
        <ele>1582</ele>
        <time>2015-08-23T11:29:02Z</time>
      </trkpt>
      <trkpt lat="45.37958" lon="6.73151">
        <ele>1582</ele>
        <time>2015-08-23T11:29:04Z</time>
      </trkpt>
      <trkpt lat="45.37955" lon="6.73147">
        <ele>1581</ele>
        <time>2015-08-23T11:29:07Z</time>
      </trkpt>
      <trkpt lat="45.37952" lon="6.73145">
        <ele>1581</ele>
        <time>2015-08-23T11:29:08Z</time>
      </trkpt>
      <trkpt lat="45.37949" lon="6.73142">
        <ele>1580</ele>
        <time>2015-08-23T11:29:10Z</time>
      </trkpt>
      <trkpt lat="45.37947" lon="6.73137">
        <ele>1580</ele>
        <time>2015-08-23T11:29:13Z</time>
      </trkpt>
      <trkpt lat="45.37944" lon="6.73134">
        <ele>1580</ele>
        <time>2015-08-23T11:29:16Z</time>
      </trkpt>
      <trkpt lat="45.37945" lon="6.73128">
        <ele>1580</ele>
        <time>2015-08-23T11:29:19Z</time>
      </trkpt>
      <trkpt lat="45.37946" lon="6.73122">
        <ele>1580</ele>
        <time>2015-08-23T11:29:21Z</time>
      </trkpt>
      <trkpt lat="45.37948" lon="6.73111">
        <ele>1580</ele>
        <time>2015-08-23T11:29:24Z</time>
      </trkpt>
      <trkpt lat="45.37949" lon="6.73107">
        <ele>1580</ele>
        <time>2015-08-23T11:29:25Z</time>
      </trkpt>
      <trkpt lat="45.37949" lon="6.73103">
        <ele>1580</ele>
        <time>2015-08-23T11:29:26Z</time>
      </trkpt>
      <trkpt lat="45.3795" lon="6.73098">
        <ele>1580</ele>
        <time>2015-08-23T11:29:27Z</time>
      </trkpt>
      <trkpt lat="45.37952" lon="6.73094">
        <ele>1580</ele>
        <time>2015-08-23T11:29:28Z</time>
      </trkpt>
      <trkpt lat="45.37953" lon="6.7309">
        <ele>1580</ele>
        <time>2015-08-23T11:29:29Z</time>
      </trkpt>
      <trkpt lat="45.37954" lon="6.73085">
        <ele>1580</ele>
        <time>2015-08-23T11:29:30Z</time>
      </trkpt>
      <trkpt lat="45.37955" lon="6.73081">
        <ele>1574</ele>
        <time>2015-08-23T11:29:31Z</time>
      </trkpt>
      <trkpt lat="45.37957" lon="6.73076">
        <ele>1574</ele>
        <time>2015-08-23T11:29:33Z</time>
      </trkpt>
      <trkpt lat="45.37958" lon="6.73072">
        <ele>1574</ele>
        <time>2015-08-23T11:29:39Z</time>
      </trkpt>
      <trkpt lat="45.37957" lon="6.73068">
        <ele>1573</ele>
        <time>2015-08-23T11:29:41Z</time>
      </trkpt>
      <trkpt lat="45.37957" lon="6.73064">
        <ele>1573</ele>
        <time>2015-08-23T11:29:43Z</time>
      </trkpt>
      <trkpt lat="45.37955" lon="6.7306">
        <ele>1572</ele>
        <time>2015-08-23T11:29:45Z</time>
      </trkpt>
      <trkpt lat="45.37952" lon="6.73056">
        <ele>1572</ele>
        <time>2015-08-23T11:29:47Z</time>
      </trkpt>
      <trkpt lat="45.37949" lon="6.73052">
        <ele>1571</ele>
        <time>2015-08-23T11:29:49Z</time>
      </trkpt>
      <trkpt lat="45.37947" lon="6.73048">
        <ele>1571</ele>
        <time>2015-08-23T11:29:51Z</time>
      </trkpt>
      <trkpt lat="45.37946" lon="6.73042">
        <ele>1570</ele>
        <time>2015-08-23T11:29:53Z</time>
      </trkpt>
      <trkpt lat="45.37946" lon="6.73035">
        <ele>1569</ele>
        <time>2015-08-23T11:29:55Z</time>
      </trkpt>
      <trkpt lat="45.37946" lon="6.7303">
        <ele>1568</ele>
        <time>2015-08-23T11:29:57Z</time>
      </trkpt>
      <trkpt lat="45.37949" lon="6.73026">
        <ele>1568</ele>
        <time>2015-08-23T11:30:00Z</time>
      </trkpt>
      <trkpt lat="45.37951" lon="6.73023">
        <ele>1568</ele>
        <time>2015-08-23T11:30:02Z</time>
      </trkpt>
      <trkpt lat="45.37954" lon="6.73017">
        <ele>1568</ele>
        <time>2015-08-23T11:30:04Z</time>
      </trkpt>
      <trkpt lat="45.37956" lon="6.73011">
        <ele>1568</ele>
        <time>2015-08-23T11:30:06Z</time>
      </trkpt>
      <trkpt lat="45.37957" lon="6.73007">
        <ele>1568</ele>
        <time>2015-08-23T11:30:07Z</time>
      </trkpt>
      <trkpt lat="45.37958" lon="6.73003">
        <ele>1568</ele>
        <time>2015-08-23T11:30:08Z</time>
      </trkpt>
      <trkpt lat="45.37957" lon="6.72999">
        <ele>1556</ele>
        <time>2015-08-23T11:30:09Z</time>
      </trkpt>
      <trkpt lat="45.37956" lon="6.72994">
        <ele>1556</ele>
        <time>2015-08-23T11:30:10Z</time>
      </trkpt>
      <trkpt lat="45.37955" lon="6.72989">
        <ele>1555</ele>
        <time>2015-08-23T11:30:11Z</time>
      </trkpt>
      <trkpt lat="45.37954" lon="6.72985">
        <ele>1555</ele>
        <time>2015-08-23T11:30:12Z</time>
      </trkpt>
      <trkpt lat="45.37953" lon="6.72981">
        <ele>1554</ele>
        <time>2015-08-23T11:30:13Z</time>
      </trkpt>
      <trkpt lat="45.37949" lon="6.72975">
        <ele>1553</ele>
        <time>2015-08-23T11:30:15Z</time>
      </trkpt>
      <trkpt lat="45.37946" lon="6.7297">
        <ele>1552</ele>
        <time>2015-08-23T11:30:17Z</time>
      </trkpt>
      <trkpt lat="45.37942" lon="6.72967">
        <ele>1552</ele>
        <time>2015-08-23T11:30:19Z</time>
      </trkpt>
      <trkpt lat="45.37938" lon="6.72965">
        <ele>1551</ele>
        <time>2015-08-23T11:30:21Z</time>
      </trkpt>
      <trkpt lat="45.37934" lon="6.72963">
        <ele>1551</ele>
        <time>2015-08-23T11:30:23Z</time>
      </trkpt>
      <trkpt lat="45.3793" lon="6.72961">
        <ele>1550</ele>
        <time>2015-08-23T11:30:25Z</time>
      </trkpt>
      <trkpt lat="45.37926" lon="6.72959">
        <ele>1549</ele>
        <time>2015-08-23T11:30:27Z</time>
      </trkpt>
      <trkpt lat="45.37923" lon="6.72957">
        <ele>1549</ele>
        <time>2015-08-23T11:30:30Z</time>
      </trkpt>
      <trkpt lat="45.3792" lon="6.72954">
        <ele>1548</ele>
        <time>2015-08-23T11:30:32Z</time>
      </trkpt>
      <trkpt lat="45.37915" lon="6.72952">
        <ele>1528</ele>
        <time>2015-08-23T11:30:34Z</time>
      </trkpt>
      <trkpt lat="45.37911" lon="6.72951">
        <ele>1527</ele>
        <time>2015-08-23T11:30:36Z</time>
      </trkpt>
      <trkpt lat="45.37907" lon="6.72948">
        <ele>1526</ele>
        <time>2015-08-23T11:30:38Z</time>
      </trkpt>
      <trkpt lat="45.37906" lon="6.72941">
        <ele>1526</ele>
        <time>2015-08-23T11:30:40Z</time>
      </trkpt>
      <trkpt lat="45.37906" lon="6.72936">
        <ele>1526</ele>
        <time>2015-08-23T11:30:41Z</time>
      </trkpt>
      <trkpt lat="45.37906" lon="6.7293">
        <ele>1527</ele>
        <time>2015-08-23T11:30:42Z</time>
      </trkpt>
      <trkpt lat="45.37906" lon="6.72925">
        <ele>1528</ele>
        <time>2015-08-23T11:30:43Z</time>
      </trkpt>
      <trkpt lat="45.37907" lon="6.7292">
        <ele>1529</ele>
        <time>2015-08-23T11:30:44Z</time>
      </trkpt>
      <trkpt lat="45.37908" lon="6.72914">
        <ele>1522</ele>
        <time>2015-08-23T11:30:45Z</time>
      </trkpt>
      <trkpt lat="45.37909" lon="6.72909">
        <ele>1521</ele>
        <time>2015-08-23T11:30:46Z</time>
      </trkpt>
      <trkpt lat="45.37909" lon="6.72904">
        <ele>1518</ele>
        <time>2015-08-23T11:30:47Z</time>
      </trkpt>
      <trkpt lat="45.3791" lon="6.72899">
        <ele>1515</ele>
        <time>2015-08-23T11:30:48Z</time>
      </trkpt>
      <trkpt lat="45.37911" lon="6.72895">
        <ele>1512</ele>
        <time>2015-08-23T11:30:49Z</time>
      </trkpt>
      <trkpt lat="45.37912" lon="6.7289">
        <ele>1510</ele>
        <time>2015-08-23T11:30:50Z</time>
      </trkpt>
      <trkpt lat="45.37913" lon="6.72885">
        <ele>1508</ele>
        <time>2015-08-23T11:30:51Z</time>
      </trkpt>
      <trkpt lat="45.37914" lon="6.72881">
        <ele>1507</ele>
        <time>2015-08-23T11:30:52Z</time>
      </trkpt>
      <trkpt lat="45.37917" lon="6.72877">
        <ele>1524</ele>
        <time>2015-08-23T11:30:54Z</time>
      </trkpt>
      <trkpt lat="45.37922" lon="6.72875">
        <ele>1524</ele>
        <time>2015-08-23T11:30:56Z</time>
      </trkpt>
      <trkpt lat="45.37927" lon="6.72875">
        <ele>1525</ele>
        <time>2015-08-23T11:30:58Z</time>
      </trkpt>
      <trkpt lat="45.3793" lon="6.72876">
        <ele>1525</ele>
        <time>2015-08-23T11:30:59Z</time>
      </trkpt>
      <trkpt lat="45.37933" lon="6.72877">
        <ele>1525</ele>
        <time>2015-08-23T11:31:00Z</time>
      </trkpt>
      <trkpt lat="45.37938" lon="6.72875">
        <ele>1525</ele>
        <time>2015-08-23T11:31:02Z</time>
      </trkpt>
      <trkpt lat="45.37942" lon="6.72872">
        <ele>1525</ele>
        <time>2015-08-23T11:31:04Z</time>
      </trkpt>
      <trkpt lat="45.37947" lon="6.72869">
        <ele>1525</ele>
        <time>2015-08-23T11:31:06Z</time>
      </trkpt>
      <trkpt lat="45.37949" lon="6.72866">
        <ele>1525</ele>
        <time>2015-08-23T11:31:07Z</time>
      </trkpt>
      <trkpt lat="45.37952" lon="6.72864">
        <ele>1525</ele>
        <time>2015-08-23T11:31:08Z</time>
      </trkpt>
      <trkpt lat="45.37954" lon="6.72862">
        <ele>1525</ele>
        <time>2015-08-23T11:31:09Z</time>
      </trkpt>
      <trkpt lat="45.37957" lon="6.72861">
        <ele>1525</ele>
        <time>2015-08-23T11:31:10Z</time>
      </trkpt>
      <trkpt lat="45.3796" lon="6.72859">
        <ele>1525</ele>
        <time>2015-08-23T11:31:11Z</time>
      </trkpt>
      <trkpt lat="45.37963" lon="6.72857">
        <ele>1526</ele>
        <time>2015-08-23T11:31:12Z</time>
      </trkpt>
      <trkpt lat="45.37966" lon="6.72856">
        <ele>1526</ele>
        <time>2015-08-23T11:31:13Z</time>
      </trkpt>
      <trkpt lat="45.37969" lon="6.72856">
        <ele>1526</ele>
        <time>2015-08-23T11:31:14Z</time>
      </trkpt>
      <trkpt lat="45.37972" lon="6.72856">
        <ele>1526</ele>
        <time>2015-08-23T11:31:15Z</time>
      </trkpt>
      <trkpt lat="45.37976" lon="6.72859">
        <ele>1527</ele>
        <time>2015-08-23T11:31:17Z</time>
      </trkpt>
      <trkpt lat="45.37978" lon="6.72863">
        <ele>1528</ele>
        <time>2015-08-23T11:31:18Z</time>
      </trkpt>
      <trkpt lat="45.37981" lon="6.72868">
        <ele>1529</ele>
        <time>2015-08-23T11:31:20Z</time>
      </trkpt>
      <trkpt lat="45.37985" lon="6.72871">
        <ele>1530</ele>
        <time>2015-08-23T11:31:22Z</time>
      </trkpt>
      <trkpt lat="45.37989" lon="6.72871">
        <ele>1530</ele>
        <time>2015-08-23T11:31:24Z</time>
      </trkpt>
      <trkpt lat="45.37993" lon="6.72867">
        <ele>1529</ele>
        <time>2015-08-23T11:31:26Z</time>
      </trkpt>
      <trkpt lat="45.37996" lon="6.72864">
        <ele>1529</ele>
        <time>2015-08-23T11:31:27Z</time>
      </trkpt>
      <trkpt lat="45.37998" lon="6.72859">
        <ele>1528</ele>
        <time>2015-08-23T11:31:29Z</time>
      </trkpt>
      <trkpt lat="45.37999" lon="6.72854">
        <ele>1527</ele>
        <time>2015-08-23T11:31:31Z</time>
      </trkpt>
      <trkpt lat="45.37997" lon="6.72849">
        <ele>1527</ele>
        <time>2015-08-23T11:31:33Z</time>
      </trkpt>
      <trkpt lat="45.37997" lon="6.72843">
        <ele>1526</ele>
        <time>2015-08-23T11:31:35Z</time>
      </trkpt>
      <trkpt lat="45.37997" lon="6.72837">
        <ele>1525</ele>
        <time>2015-08-23T11:31:37Z</time>
      </trkpt>
      <trkpt lat="45.38" lon="6.72839">
        <ele>1526</ele>
        <time>2015-08-23T11:31:43Z</time>
      </trkpt>
      <trkpt lat="45.38003" lon="6.72843">
        <ele>1532</ele>
        <time>2015-08-23T11:31:45Z</time>
      </trkpt>
      <trkpt lat="45.38006" lon="6.72844">
        <ele>1533</ele>
        <time>2015-08-23T11:31:47Z</time>
      </trkpt>
      <trkpt lat="45.3801" lon="6.72842">
        <ele>1533</ele>
        <time>2015-08-23T11:31:50Z</time>
      </trkpt>
      <trkpt lat="45.38013" lon="6.72839">
        <ele>1534</ele>
        <time>2015-08-23T11:31:52Z</time>
      </trkpt>
      <trkpt lat="45.38015" lon="6.72837">
        <ele>1534</ele>
        <time>2015-08-23T11:31:54Z</time>
      </trkpt>
      <trkpt lat="45.38018" lon="6.72839">
        <ele>1536</ele>
        <time>2015-08-23T11:31:57Z</time>
      </trkpt>
      <trkpt lat="45.3802" lon="6.72843">
        <ele>1537</ele>
        <time>2015-08-23T11:31:59Z</time>
      </trkpt>
      <trkpt lat="45.38022" lon="6.72848">
        <ele>1538</ele>
        <time>2015-08-23T11:32:01Z</time>
      </trkpt>
      <trkpt lat="45.38024" lon="6.72851">
        <ele>1539</ele>
        <time>2015-08-23T11:32:03Z</time>
      </trkpt>
      <trkpt lat="45.38027" lon="6.72853">
        <ele>1540</ele>
        <time>2015-08-23T11:32:05Z</time>
      </trkpt>
      <trkpt lat="45.3803" lon="6.72853">
        <ele>1541</ele>
        <time>2015-08-23T11:32:06Z</time>
      </trkpt>
      <trkpt lat="45.38035" lon="6.72853">
        <ele>1541</ele>
        <time>2015-08-23T11:32:08Z</time>
      </trkpt>
      <trkpt lat="45.38038" lon="6.7285">
        <ele>1542</ele>
        <time>2015-08-23T11:32:10Z</time>
      </trkpt>
      <trkpt lat="45.38041" lon="6.72848">
        <ele>1542</ele>
        <time>2015-08-23T11:32:12Z</time>
      </trkpt>
      <trkpt lat="45.38044" lon="6.72846">
        <ele>1542</ele>
        <time>2015-08-23T11:32:14Z</time>
      </trkpt>
      <trkpt lat="45.38047" lon="6.72844">
        <ele>1542</ele>
        <time>2015-08-23T11:32:16Z</time>
      </trkpt>
      <trkpt lat="45.38051" lon="6.72841">
        <ele>1542</ele>
        <time>2015-08-23T11:32:18Z</time>
      </trkpt>
      <trkpt lat="45.38055" lon="6.72838">
        <ele>1542</ele>
        <time>2015-08-23T11:32:20Z</time>
      </trkpt>
      <trkpt lat="45.38059" lon="6.72835">
        <ele>1542</ele>
        <time>2015-08-23T11:32:22Z</time>
      </trkpt>
      <trkpt lat="45.38061" lon="6.72832">
        <ele>1528</ele>
        <time>2015-08-23T11:32:24Z</time>
      </trkpt>
      <trkpt lat="45.3806" lon="6.72828">
        <ele>1527</ele>
        <time>2015-08-23T11:32:27Z</time>
      </trkpt>
      <trkpt lat="45.38045" lon="6.72815">
        <ele>1522</ele>
        <time>2015-08-23T11:32:31Z</time>
      </trkpt>
      <trkpt lat="45.38043" lon="6.7281">
        <ele>1521</ele>
        <time>2015-08-23T11:32:33Z</time>
      </trkpt>
      <trkpt lat="45.38042" lon="6.72805">
        <ele>1520</ele>
        <time>2015-08-23T11:32:34Z</time>
      </trkpt>
      <trkpt lat="45.3804" lon="6.72802">
        <ele>1519</ele>
        <time>2015-08-23T11:32:35Z</time>
      </trkpt>
      <trkpt lat="45.38038" lon="6.72797">
        <ele>1518</ele>
        <time>2015-08-23T11:32:36Z</time>
      </trkpt>
      <trkpt lat="45.38035" lon="6.72792">
        <ele>1517</ele>
        <time>2015-08-23T11:32:37Z</time>
      </trkpt>
      <trkpt lat="45.38033" lon="6.72786">
        <ele>1516</ele>
        <time>2015-08-23T11:32:38Z</time>
      </trkpt>
      <trkpt lat="45.38032" lon="6.7278">
        <ele>1514</ele>
        <time>2015-08-23T11:32:39Z</time>
      </trkpt>
      <trkpt lat="45.3803" lon="6.72774">
        <ele>1513</ele>
        <time>2015-08-23T11:32:40Z</time>
      </trkpt>
      <trkpt lat="45.38029" lon="6.72771">
        <ele>1512</ele>
        <time>2015-08-23T11:32:41Z</time>
      </trkpt>
      <trkpt lat="45.38029" lon="6.72767">
        <ele>1511</ele>
        <time>2015-08-23T11:32:42Z</time>
      </trkpt>
      <trkpt lat="45.38027" lon="6.7276">
        <ele>1510</ele>
        <time>2015-08-23T11:32:44Z</time>
      </trkpt>
      <trkpt lat="45.38027" lon="6.72756">
        <ele>1509</ele>
        <time>2015-08-23T11:32:45Z</time>
      </trkpt>
      <trkpt lat="45.38026" lon="6.7275">
        <ele>1492</ele>
        <time>2015-08-23T11:32:47Z</time>
      </trkpt>
      <trkpt lat="45.38026" lon="6.72744">
        <ele>1492</ele>
        <time>2015-08-23T11:32:49Z</time>
      </trkpt>
      <trkpt lat="45.38026" lon="6.72737">
        <ele>1491</ele>
        <time>2015-08-23T11:32:51Z</time>
      </trkpt>
      <trkpt lat="45.38026" lon="6.72732">
        <ele>1491</ele>
        <time>2015-08-23T11:32:53Z</time>
      </trkpt>
      <trkpt lat="45.38028" lon="6.72725">
        <ele>1490</ele>
        <time>2015-08-23T11:32:55Z</time>
      </trkpt>
      <trkpt lat="45.38029" lon="6.72721">
        <ele>1489</ele>
        <time>2015-08-23T11:32:56Z</time>
      </trkpt>
      <trkpt lat="45.38029" lon="6.72716">
        <ele>1489</ele>
        <time>2015-08-23T11:32:57Z</time>
      </trkpt>
      <trkpt lat="45.38029" lon="6.7271">
        <ele>1487</ele>
        <time>2015-08-23T11:32:59Z</time>
      </trkpt>
      <trkpt lat="45.38028" lon="6.72705">
        <ele>1486</ele>
        <time>2015-08-23T11:33:01Z</time>
      </trkpt>
      <trkpt lat="45.38027" lon="6.727">
        <ele>1485</ele>
        <time>2015-08-23T11:33:03Z</time>
      </trkpt>
      <trkpt lat="45.38027" lon="6.72696">
        <ele>1484</ele>
        <time>2015-08-23T11:33:05Z</time>
      </trkpt>
      <trkpt lat="45.38027" lon="6.72691">
        <ele>1483</ele>
        <time>2015-08-23T11:33:07Z</time>
      </trkpt>
      <trkpt lat="45.38028" lon="6.72684">
        <ele>1482</ele>
        <time>2015-08-23T11:33:09Z</time>
      </trkpt>
      <trkpt lat="45.38029" lon="6.72677">
        <ele>1481</ele>
        <time>2015-08-23T11:33:11Z</time>
      </trkpt>
      <trkpt lat="45.38032" lon="6.72671">
        <ele>1481</ele>
        <time>2015-08-23T11:33:13Z</time>
      </trkpt>
      <trkpt lat="45.38035" lon="6.72666">
        <ele>1468</ele>
        <time>2015-08-23T11:33:15Z</time>
      </trkpt>
      <trkpt lat="45.38038" lon="6.72661">
        <ele>1469</ele>
        <time>2015-08-23T11:33:17Z</time>
      </trkpt>
      <trkpt lat="45.38041" lon="6.72661">
        <ele>1469</ele>
        <time>2015-08-23T11:33:19Z</time>
      </trkpt>
      <trkpt lat="45.38045" lon="6.72662">
        <ele>1470</ele>
        <time>2015-08-23T11:33:21Z</time>
      </trkpt>
      <trkpt lat="45.38049" lon="6.72664">
        <ele>1471</ele>
        <time>2015-08-23T11:33:23Z</time>
      </trkpt>
      <trkpt lat="45.38052" lon="6.72665">
        <ele>1472</ele>
        <time>2015-08-23T11:33:25Z</time>
      </trkpt>
      <trkpt lat="45.38053" lon="6.72668">
        <ele>1486</ele>
        <time>2015-08-23T11:33:26Z</time>
      </trkpt>
      <trkpt lat="45.38057" lon="6.72672">
        <ele>1487</ele>
        <time>2015-08-23T11:33:28Z</time>
      </trkpt>
      <trkpt lat="45.38061" lon="6.72674">
        <ele>1487</ele>
        <time>2015-08-23T11:33:30Z</time>
      </trkpt>
      <trkpt lat="45.38063" lon="6.72673">
        <ele>1487</ele>
        <time>2015-08-23T11:33:33Z</time>
      </trkpt>
      <trkpt lat="45.3806" lon="6.72668">
        <ele>1487</ele>
        <time>2015-08-23T11:33:42Z</time>
      </trkpt>
      <trkpt lat="45.38056" lon="6.72666">
        <ele>1474</ele>
        <time>2015-08-23T11:33:44Z</time>
      </trkpt>
      <trkpt lat="45.38052" lon="6.72664">
        <ele>1472</ele>
        <time>2015-08-23T11:33:46Z</time>
      </trkpt>
      <trkpt lat="45.38048" lon="6.72662">
        <ele>1471</ele>
        <time>2015-08-23T11:33:48Z</time>
      </trkpt>
      <trkpt lat="45.38044" lon="6.72661">
        <ele>1470</ele>
        <time>2015-08-23T11:33:50Z</time>
      </trkpt>
      <trkpt lat="45.38041" lon="6.7266">
        <ele>1470</ele>
        <time>2015-08-23T11:33:52Z</time>
      </trkpt>
      <trkpt lat="45.38039" lon="6.72657">
        <ele>1469</ele>
        <time>2015-08-23T11:33:55Z</time>
      </trkpt>
      <trkpt lat="45.38037" lon="6.72653">
        <ele>1468</ele>
        <time>2015-08-23T11:33:57Z</time>
      </trkpt>
      <trkpt lat="45.38034" lon="6.7265">
        <ele>1468</ele>
        <time>2015-08-23T11:33:59Z</time>
      </trkpt>
      <trkpt lat="45.38032" lon="6.72646">
        <ele>1467</ele>
        <time>2015-08-23T11:34:01Z</time>
      </trkpt>
      <trkpt lat="45.38031" lon="6.72643">
        <ele>1467</ele>
        <time>2015-08-23T11:34:04Z</time>
      </trkpt>
      <trkpt lat="45.38029" lon="6.7264">
        <ele>1466</ele>
        <time>2015-08-23T11:34:07Z</time>
      </trkpt>
      <trkpt lat="45.38026" lon="6.72637">
        <ele>1466</ele>
        <time>2015-08-23T11:34:09Z</time>
      </trkpt>
      <trkpt lat="45.38023" lon="6.72635">
        <ele>1465</ele>
        <time>2015-08-23T11:34:11Z</time>
      </trkpt>
      <trkpt lat="45.38021" lon="6.72632">
        <ele>1465</ele>
        <time>2015-08-23T11:34:14Z</time>
      </trkpt>
      <trkpt lat="45.38018" lon="6.72627">
        <ele>1464</ele>
        <time>2015-08-23T11:34:17Z</time>
      </trkpt>
      <trkpt lat="45.38016" lon="6.72622">
        <ele>1463</ele>
        <time>2015-08-23T11:34:19Z</time>
      </trkpt>
      <trkpt lat="45.38015" lon="6.72617">
        <ele>1463</ele>
        <time>2015-08-23T11:34:20Z</time>
      </trkpt>
      <trkpt lat="45.38015" lon="6.72612">
        <ele>1462</ele>
        <time>2015-08-23T11:34:21Z</time>
      </trkpt>
      <trkpt lat="45.38014" lon="6.72606">
        <ele>1461</ele>
        <time>2015-08-23T11:34:22Z</time>
      </trkpt>
      <trkpt lat="45.38014" lon="6.72601">
        <ele>1460</ele>
        <time>2015-08-23T11:34:23Z</time>
      </trkpt>
      <trkpt lat="45.38014" lon="6.72596">
        <ele>1459</ele>
        <time>2015-08-23T11:34:24Z</time>
      </trkpt>
      <trkpt lat="45.38014" lon="6.72592">
        <ele>1458</ele>
        <time>2015-08-23T11:34:25Z</time>
      </trkpt>
      <trkpt lat="45.38014" lon="6.72584">
        <ele>1457</ele>
        <time>2015-08-23T11:34:27Z</time>
      </trkpt>
      <trkpt lat="45.38015" lon="6.72577">
        <ele>1450</ele>
        <time>2015-08-23T11:34:29Z</time>
      </trkpt>
      <trkpt lat="45.38016" lon="6.72571">
        <ele>1450</ele>
        <time>2015-08-23T11:34:31Z</time>
      </trkpt>
      <trkpt lat="45.38017" lon="6.72564">
        <ele>1450</ele>
        <time>2015-08-23T11:34:33Z</time>
      </trkpt>
      <trkpt lat="45.38017" lon="6.72559">
        <ele>1450</ele>
        <time>2015-08-23T11:34:35Z</time>
      </trkpt>
      <trkpt lat="45.38018" lon="6.72553">
        <ele>1449</ele>
        <time>2015-08-23T11:34:37Z</time>
      </trkpt>
      <trkpt lat="45.38018" lon="6.72548">
        <ele>1449</ele>
        <time>2015-08-23T11:34:39Z</time>
      </trkpt>
      <trkpt lat="45.38017" lon="6.72544">
        <ele>1448</ele>
        <time>2015-08-23T11:34:41Z</time>
      </trkpt>
      <trkpt lat="45.38016" lon="6.72539">
        <ele>1448</ele>
        <time>2015-08-23T11:34:43Z</time>
      </trkpt>
      <trkpt lat="45.38014" lon="6.72534">
        <ele>1447</ele>
        <time>2015-08-23T11:34:45Z</time>
      </trkpt>
      <trkpt lat="45.38014" lon="6.72529">
        <ele>1446</ele>
        <time>2015-08-23T11:34:47Z</time>
      </trkpt>
      <trkpt lat="45.38014" lon="6.72524">
        <ele>1446</ele>
        <time>2015-08-23T11:34:49Z</time>
      </trkpt>
      <trkpt lat="45.38014" lon="6.72518">
        <ele>1445</ele>
        <time>2015-08-23T11:34:51Z</time>
      </trkpt>
      <trkpt lat="45.38012" lon="6.72512">
        <ele>1444</ele>
        <time>2015-08-23T11:34:53Z</time>
      </trkpt>
      <trkpt lat="45.38011" lon="6.72508">
        <ele>1443</ele>
        <time>2015-08-23T11:34:54Z</time>
      </trkpt>
      <trkpt lat="45.38011" lon="6.72504">
        <ele>1442</ele>
        <time>2015-08-23T11:34:55Z</time>
      </trkpt>
      <trkpt lat="45.3801" lon="6.725">
        <ele>1437</ele>
        <time>2015-08-23T11:34:56Z</time>
      </trkpt>
      <trkpt lat="45.3801" lon="6.72495">
        <ele>1437</ele>
        <time>2015-08-23T11:34:57Z</time>
      </trkpt>
      <trkpt lat="45.38009" lon="6.7249">
        <ele>1437</ele>
        <time>2015-08-23T11:34:58Z</time>
      </trkpt>
      <trkpt lat="45.38009" lon="6.72486">
        <ele>1437</ele>
        <time>2015-08-23T11:34:59Z</time>
      </trkpt>
      <trkpt lat="45.38008" lon="6.72482">
        <ele>1437</ele>
        <time>2015-08-23T11:35:00Z</time>
      </trkpt>
      <trkpt lat="45.38009" lon="6.72475">
        <ele>1436</ele>
        <time>2015-08-23T11:35:02Z</time>
      </trkpt>
      <trkpt lat="45.3801" lon="6.72468">
        <ele>1436</ele>
        <time>2015-08-23T11:35:04Z</time>
      </trkpt>
      <trkpt lat="45.38012" lon="6.72461">
        <ele>1436</ele>
        <time>2015-08-23T11:35:06Z</time>
      </trkpt>
      <trkpt lat="45.38012" lon="6.72457">
        <ele>1435</ele>
        <time>2015-08-23T11:35:07Z</time>
      </trkpt>
      <trkpt lat="45.38013" lon="6.72454">
        <ele>1435</ele>
        <time>2015-08-23T11:35:08Z</time>
      </trkpt>
      <trkpt lat="45.38014" lon="6.7245">
        <ele>1435</ele>
        <time>2015-08-23T11:35:09Z</time>
      </trkpt>
      <trkpt lat="45.38015" lon="6.72446">
        <ele>1435</ele>
        <time>2015-08-23T11:35:10Z</time>
      </trkpt>
      <trkpt lat="45.38016" lon="6.72441">
        <ele>1434</ele>
        <time>2015-08-23T11:35:11Z</time>
      </trkpt>
      <trkpt lat="45.38017" lon="6.72436">
        <ele>1434</ele>
        <time>2015-08-23T11:35:12Z</time>
      </trkpt>
      <trkpt lat="45.38017" lon="6.72431">
        <ele>1434</ele>
        <time>2015-08-23T11:35:13Z</time>
      </trkpt>
      <trkpt lat="45.38018" lon="6.72427">
        <ele>1433</ele>
        <time>2015-08-23T11:35:14Z</time>
      </trkpt>
      <trkpt lat="45.38018" lon="6.72422">
        <ele>1433</ele>
        <time>2015-08-23T11:35:15Z</time>
      </trkpt>
      <trkpt lat="45.38018" lon="6.72418">
        <ele>1433</ele>
        <time>2015-08-23T11:35:16Z</time>
      </trkpt>
      <trkpt lat="45.38019" lon="6.72413">
        <ele>1429</ele>
        <time>2015-08-23T11:35:17Z</time>
      </trkpt>
      <trkpt lat="45.38019" lon="6.72409">
        <ele>1429</ele>
        <time>2015-08-23T11:35:18Z</time>
      </trkpt>
      <trkpt lat="45.3802" lon="6.72405">
        <ele>1429</ele>
        <time>2015-08-23T11:35:19Z</time>
      </trkpt>
      <trkpt lat="45.38021" lon="6.72401">
        <ele>1428</ele>
        <time>2015-08-23T11:35:20Z</time>
      </trkpt>
      <trkpt lat="45.38021" lon="6.72396">
        <ele>1428</ele>
        <time>2015-08-23T11:35:22Z</time>
      </trkpt>
      <trkpt lat="45.38019" lon="6.72394">
        <ele>1428</ele>
        <time>2015-08-23T11:35:23Z</time>
      </trkpt>
      <trkpt lat="45.37998" lon="6.72385">
        <ele>1428</ele>
        <time>2015-08-23T11:35:26Z</time>
      </trkpt>
      <trkpt lat="45.37997" lon="6.7238">
        <ele>1427</ele>
        <time>2015-08-23T11:35:27Z</time>
      </trkpt>
      <trkpt lat="45.37997" lon="6.72375">
        <ele>1427</ele>
        <time>2015-08-23T11:35:28Z</time>
      </trkpt>
      <trkpt lat="45.37996" lon="6.7237">
        <ele>1427</ele>
        <time>2015-08-23T11:35:29Z</time>
      </trkpt>
      <trkpt lat="45.37995" lon="6.72365">
        <ele>1426</ele>
        <time>2015-08-23T11:35:30Z</time>
      </trkpt>
      <trkpt lat="45.37994" lon="6.72359">
        <ele>1426</ele>
        <time>2015-08-23T11:35:31Z</time>
      </trkpt>
      <trkpt lat="45.37993" lon="6.72354">
        <ele>1426</ele>
        <time>2015-08-23T11:35:32Z</time>
      </trkpt>
      <trkpt lat="45.37992" lon="6.72348">
        <ele>1425</ele>
        <time>2015-08-23T11:35:33Z</time>
      </trkpt>
      <trkpt lat="45.3799" lon="6.72342">
        <ele>1425</ele>
        <time>2015-08-23T11:35:34Z</time>
      </trkpt>
      <trkpt lat="45.37988" lon="6.72336">
        <ele>1425</ele>
        <time>2015-08-23T11:35:35Z</time>
      </trkpt>
      <trkpt lat="45.37986" lon="6.72329">
        <ele>1423</ele>
        <time>2015-08-23T11:35:36Z</time>
      </trkpt>
      <trkpt lat="45.37984" lon="6.72322">
        <ele>1423</ele>
        <time>2015-08-23T11:35:37Z</time>
      </trkpt>
      <trkpt lat="45.37982" lon="6.72315">
        <ele>1423</ele>
        <time>2015-08-23T11:35:38Z</time>
      </trkpt>
      <trkpt lat="45.37981" lon="6.72308">
        <ele>1422</ele>
        <time>2015-08-23T11:35:39Z</time>
      </trkpt>
      <trkpt lat="45.37979" lon="6.72301">
        <ele>1422</ele>
        <time>2015-08-23T11:35:40Z</time>
      </trkpt>
      <trkpt lat="45.37978" lon="6.72294">
        <ele>1422</ele>
        <time>2015-08-23T11:35:41Z</time>
      </trkpt>
      <trkpt lat="45.37978" lon="6.72286">
        <ele>1422</ele>
        <time>2015-08-23T11:35:42Z</time>
      </trkpt>
      <trkpt lat="45.37978" lon="6.72279">
        <ele>1421</ele>
        <time>2015-08-23T11:35:43Z</time>
      </trkpt>
      <trkpt lat="45.37979" lon="6.72272">
        <ele>1421</ele>
        <time>2015-08-23T11:35:44Z</time>
      </trkpt>
      <trkpt lat="45.3798" lon="6.72266">
        <ele>1421</ele>
        <time>2015-08-23T11:35:46Z</time>
      </trkpt>
      <trkpt lat="45.37989" lon="6.72248">
        <ele>1419</ele>
        <time>2015-08-23T11:35:48Z</time>
      </trkpt>
      <trkpt lat="45.37994" lon="6.72234">
        <ele>1420</ele>
        <time>2015-08-23T11:35:49Z</time>
      </trkpt>
      <trkpt lat="45.37996" lon="6.7223">
        <ele>1420</ele>
        <time>2015-08-23T11:35:50Z</time>
      </trkpt>
      <trkpt lat="45.37998" lon="6.72224">
        <ele>1420</ele>
        <time>2015-08-23T11:35:51Z</time>
      </trkpt>
      <trkpt lat="45.38001" lon="6.72221">
        <ele>1418</ele>
        <time>2015-08-23T11:35:52Z</time>
      </trkpt>
      <trkpt lat="45.38005" lon="6.72219">
        <ele>1418</ele>
        <time>2015-08-23T11:35:53Z</time>
      </trkpt>
      <trkpt lat="45.38011" lon="6.72217">
        <ele>1418</ele>
        <time>2015-08-23T11:35:54Z</time>
      </trkpt>
      <trkpt lat="45.38015" lon="6.72214">
        <ele>1418</ele>
        <time>2015-08-23T11:35:55Z</time>
      </trkpt>
      <trkpt lat="45.38019" lon="6.72212">
        <ele>1418</ele>
        <time>2015-08-23T11:35:56Z</time>
      </trkpt>
      <trkpt lat="45.38023" lon="6.72211">
        <ele>1418</ele>
        <time>2015-08-23T11:35:57Z</time>
      </trkpt>
      <trkpt lat="45.38027" lon="6.7221">
        <ele>1418</ele>
        <time>2015-08-23T11:35:58Z</time>
      </trkpt>
      <trkpt lat="45.38032" lon="6.72208">
        <ele>1418</ele>
        <time>2015-08-23T11:35:59Z</time>
      </trkpt>
      <trkpt lat="45.38037" lon="6.72207">
        <ele>1418</ele>
        <time>2015-08-23T11:36:00Z</time>
      </trkpt>
      <trkpt lat="45.38041" lon="6.72205">
        <ele>1418</ele>
        <time>2015-08-23T11:36:01Z</time>
      </trkpt>
      <trkpt lat="45.38045" lon="6.72204">
        <ele>1418</ele>
        <time>2015-08-23T11:36:02Z</time>
      </trkpt>
      <trkpt lat="45.38049" lon="6.72202">
        <ele>1418</ele>
        <time>2015-08-23T11:36:03Z</time>
      </trkpt>
      <trkpt lat="45.38053" lon="6.722">
        <ele>1418</ele>
        <time>2015-08-23T11:36:04Z</time>
      </trkpt>
      <trkpt lat="45.38056" lon="6.72199">
        <ele>1417</ele>
        <time>2015-08-23T11:36:05Z</time>
      </trkpt>
      <trkpt lat="45.3806" lon="6.72197">
        <ele>1417</ele>
        <time>2015-08-23T11:36:06Z</time>
      </trkpt>
      <trkpt lat="45.38063" lon="6.72194">
        <ele>1417</ele>
        <time>2015-08-23T11:36:07Z</time>
      </trkpt>
      <trkpt lat="45.38066" lon="6.72192">
        <ele>1417</ele>
        <time>2015-08-23T11:36:08Z</time>
      </trkpt>
      <trkpt lat="45.38069" lon="6.7219">
        <ele>1417</ele>
        <time>2015-08-23T11:36:09Z</time>
      </trkpt>
      <trkpt lat="45.38072" lon="6.72187">
        <ele>1417</ele>
        <time>2015-08-23T11:36:10Z</time>
      </trkpt>
      <trkpt lat="45.38075" lon="6.72185">
        <ele>1417</ele>
        <time>2015-08-23T11:36:11Z</time>
      </trkpt>
      <trkpt lat="45.38078" lon="6.72183">
        <ele>1416</ele>
        <time>2015-08-23T11:36:12Z</time>
      </trkpt>
      <trkpt lat="45.38082" lon="6.7218">
        <ele>1416</ele>
        <time>2015-08-23T11:36:13Z</time>
      </trkpt>
      <trkpt lat="45.38085" lon="6.72178">
        <ele>1416</ele>
        <time>2015-08-23T11:36:14Z</time>
      </trkpt>
      <trkpt lat="45.38089" lon="6.72176">
        <ele>1416</ele>
        <time>2015-08-23T11:36:15Z</time>
      </trkpt>
      <trkpt lat="45.38092" lon="6.72173">
        <ele>1416</ele>
        <time>2015-08-23T11:36:16Z</time>
      </trkpt>
      <trkpt lat="45.38096" lon="6.72171">
        <ele>1416</ele>
        <time>2015-08-23T11:36:17Z</time>
      </trkpt>
      <trkpt lat="45.38099" lon="6.72169">
        <ele>1417</ele>
        <time>2015-08-23T11:36:18Z</time>
      </trkpt>
      <trkpt lat="45.38101" lon="6.72167">
        <ele>1417</ele>
        <time>2015-08-23T11:36:19Z</time>
      </trkpt>
      <trkpt lat="45.38104" lon="6.72165">
        <ele>1415</ele>
        <time>2015-08-23T11:36:20Z</time>
      </trkpt>
      <trkpt lat="45.38107" lon="6.72163">
        <ele>1415</ele>
        <time>2015-08-23T11:36:21Z</time>
      </trkpt>
      <trkpt lat="45.3811" lon="6.72161">
        <ele>1415</ele>
        <time>2015-08-23T11:36:22Z</time>
      </trkpt>
      <trkpt lat="45.38114" lon="6.72159">
        <ele>1415</ele>
        <time>2015-08-23T11:36:23Z</time>
      </trkpt>
      <trkpt lat="45.38118" lon="6.72157">
        <ele>1414</ele>
        <time>2015-08-23T11:36:24Z</time>
      </trkpt>
      <trkpt lat="45.38122" lon="6.72155">
        <ele>1414</ele>
        <time>2015-08-23T11:36:25Z</time>
      </trkpt>
      <trkpt lat="45.38126" lon="6.72153">
        <ele>1414</ele>
        <time>2015-08-23T11:36:26Z</time>
      </trkpt>
      <trkpt lat="45.38131" lon="6.72151">
        <ele>1414</ele>
        <time>2015-08-23T11:36:27Z</time>
      </trkpt>
      <trkpt lat="45.38135" lon="6.72148">
        <ele>1414</ele>
        <time>2015-08-23T11:36:28Z</time>
      </trkpt>
      <trkpt lat="45.38139" lon="6.72146">
        <ele>1414</ele>
        <time>2015-08-23T11:36:29Z</time>
      </trkpt>
      <trkpt lat="45.38143" lon="6.72143">
        <ele>1414</ele>
        <time>2015-08-23T11:36:30Z</time>
      </trkpt>
      <trkpt lat="45.38147" lon="6.72141">
        <ele>1414</ele>
        <time>2015-08-23T11:36:31Z</time>
      </trkpt>
      <trkpt lat="45.38151" lon="6.72139">
        <ele>1414</ele>
        <time>2015-08-23T11:36:32Z</time>
      </trkpt>
      <trkpt lat="45.38155" lon="6.72138">
        <ele>1414</ele>
        <time>2015-08-23T11:36:33Z</time>
      </trkpt>
      <trkpt lat="45.3816" lon="6.72136">
        <ele>1414</ele>
        <time>2015-08-23T11:36:34Z</time>
      </trkpt>
      <trkpt lat="45.38164" lon="6.72134">
        <ele>1414</ele>
        <time>2015-08-23T11:36:35Z</time>
      </trkpt>
      <trkpt lat="45.38169" lon="6.72133">
        <ele>1417</ele>
        <time>2015-08-23T11:36:36Z</time>
      </trkpt>
      <trkpt lat="45.38173" lon="6.72131">
        <ele>1417</ele>
        <time>2015-08-23T11:36:37Z</time>
      </trkpt>
      <trkpt lat="45.38175" lon="6.72128">
        <ele>1416</ele>
        <time>2015-08-23T11:36:38Z</time>
      </trkpt>
      <trkpt lat="45.38177" lon="6.72124">
        <ele>1416</ele>
        <time>2015-08-23T11:36:39Z</time>
      </trkpt>
      <trkpt lat="45.38179" lon="6.72122">
        <ele>1416</ele>
        <time>2015-08-23T11:36:40Z</time>
      </trkpt>
      <trkpt lat="45.38182" lon="6.72118">
        <ele>1416</ele>
        <time>2015-08-23T11:36:42Z</time>
      </trkpt>
    </trkseg>
  </trk>
</gpx>